<?xml version="1.0" encoding="UTF-8" standalone="no" ?>
<gpx xmlns="http://www.topografix.com/GPX/1/1" xmlns:xsi="http://www.w3.org/2001/XMLSchema-instance" xsi:schemaLocation="http://www.topografix.com/GPX/1/1 http://www.topografix.com/GPX/1/1/gpx.xsd" version="1.1" creator="VisuGPX - https://www.visugpx.com">
  <metadata>
    <name>Cardonette </name>
    <desc><![CDATA[44 pax]]></desc>
  </metadata>
  <trk>
    <name><![CDATA[Cardonette _1]]></name>
    <trkseg>
      <trkpt lat="49.95156" lon="2.35858">
        <ele>90.5</ele>
        <time>2023-01-25T13:01:25Z</time>
      </trkpt>
      <trkpt lat="49.95156" lon="2.35852">
        <ele>90.5</ele>
        <time>2023-01-25T13:01:26Z</time>
      </trkpt>
      <trkpt lat="49.95157" lon="2.35849">
        <ele>90.4</ele>
        <time>2023-01-25T13:01:27Z</time>
      </trkpt>
      <trkpt lat="49.95157" lon="2.35848">
        <ele>90.4</ele>
        <time>2023-01-25T13:01:28Z</time>
      </trkpt>
      <trkpt lat="49.95158" lon="2.35846">
        <ele>90.4</ele>
        <time>2023-01-25T13:01:29Z</time>
      </trkpt>
      <trkpt lat="49.95158" lon="2.35846">
        <ele>90.4</ele>
        <time>2023-01-25T13:01:30Z</time>
      </trkpt>
      <trkpt lat="49.95158" lon="2.35846">
        <ele>90.4</ele>
        <time>2023-01-25T13:01:32Z</time>
      </trkpt>
      <trkpt lat="49.95158" lon="2.35845">
        <ele>90.4</ele>
        <time>2023-01-25T13:01:33Z</time>
      </trkpt>
      <trkpt lat="49.95158" lon="2.35845">
        <ele>90.4</ele>
        <time>2023-01-25T13:01:34Z</time>
      </trkpt>
      <trkpt lat="49.95158" lon="2.35845">
        <ele>90.4</ele>
        <time>2023-01-25T13:01:35Z</time>
      </trkpt>
      <trkpt lat="49.95158" lon="2.35846">
        <ele>90.4</ele>
        <time>2023-01-25T13:01:36Z</time>
      </trkpt>
      <trkpt lat="49.95158" lon="2.35846">
        <ele>90.4</ele>
        <time>2023-01-25T13:01:37Z</time>
      </trkpt>
      <trkpt lat="49.95159" lon="2.35847">
        <ele>90.4</ele>
        <time>2023-01-25T13:01:39Z</time>
      </trkpt>
      <trkpt lat="49.95159" lon="2.35848">
        <ele>90.4</ele>
        <time>2023-01-25T13:01:40Z</time>
      </trkpt>
      <trkpt lat="49.95159" lon="2.35849">
        <ele>90.4</ele>
        <time>2023-01-25T13:01:41Z</time>
      </trkpt>
      <trkpt lat="49.95159" lon="2.35849">
        <ele>90.4</ele>
        <time>2023-01-25T13:01:42Z</time>
      </trkpt>
      <trkpt lat="49.95158" lon="2.35848">
        <ele>90.4</ele>
        <time>2023-01-25T13:01:43Z</time>
      </trkpt>
      <trkpt lat="49.95157" lon="2.35846">
        <ele>90.4</ele>
        <time>2023-01-25T13:01:45Z</time>
      </trkpt>
      <trkpt lat="49.95156" lon="2.35845">
        <ele>90.4</ele>
        <time>2023-01-25T13:01:47Z</time>
      </trkpt>
      <trkpt lat="49.95155" lon="2.35844">
        <ele>90.4</ele>
        <time>2023-01-25T13:01:48Z</time>
      </trkpt>
      <trkpt lat="49.95154" lon="2.35842">
        <ele>90.4</ele>
        <time>2023-01-25T13:01:49Z</time>
      </trkpt>
      <trkpt lat="49.95154" lon="2.35841">
        <ele>90.4</ele>
        <time>2023-01-25T13:01:50Z</time>
      </trkpt>
      <trkpt lat="49.95152" lon="2.35839">
        <ele>90.4</ele>
        <time>2023-01-25T13:01:51Z</time>
      </trkpt>
      <trkpt lat="49.95151" lon="2.35839">
        <ele>90.4</ele>
        <time>2023-01-25T13:01:52Z</time>
      </trkpt>
      <trkpt lat="49.9515" lon="2.35838">
        <ele>90.4</ele>
        <time>2023-01-25T13:01:54Z</time>
      </trkpt>
      <trkpt lat="49.95149" lon="2.35837">
        <ele>90.4</ele>
        <time>2023-01-25T13:01:55Z</time>
      </trkpt>
      <trkpt lat="49.95149" lon="2.35836">
        <ele>90.4</ele>
        <time>2023-01-25T13:01:56Z</time>
      </trkpt>
      <trkpt lat="49.95148" lon="2.35835">
        <ele>90.4</ele>
        <time>2023-01-25T13:01:57Z</time>
      </trkpt>
      <trkpt lat="49.95147" lon="2.35835">
        <ele>90.4</ele>
        <time>2023-01-25T13:01:58Z</time>
      </trkpt>
      <trkpt lat="49.95146" lon="2.35834">
        <ele>90.4</ele>
        <time>2023-01-25T13:02:00Z</time>
      </trkpt>
      <trkpt lat="49.95146" lon="2.35833">
        <ele>90.4</ele>
        <time>2023-01-25T13:02:01Z</time>
      </trkpt>
      <trkpt lat="49.95145" lon="2.35832">
        <ele>90.4</ele>
        <time>2023-01-25T13:02:02Z</time>
      </trkpt>
      <trkpt lat="49.95144" lon="2.35832">
        <ele>90.4</ele>
        <time>2023-01-25T13:02:03Z</time>
      </trkpt>
      <trkpt lat="49.95144" lon="2.35831">
        <ele>90.4</ele>
        <time>2023-01-25T13:02:04Z</time>
      </trkpt>
      <trkpt lat="49.95143" lon="2.35832">
        <ele>90.4</ele>
        <time>2023-01-25T13:02:05Z</time>
      </trkpt>
      <trkpt lat="49.95142" lon="2.35831">
        <ele>90.4</ele>
        <time>2023-01-25T13:02:06Z</time>
      </trkpt>
      <trkpt lat="49.95141" lon="2.35832">
        <ele>90.4</ele>
        <time>2023-01-25T13:02:08Z</time>
      </trkpt>
      <trkpt lat="49.9514" lon="2.35831">
        <ele>90.4</ele>
        <time>2023-01-25T13:02:09Z</time>
      </trkpt>
      <trkpt lat="49.95139" lon="2.3583">
        <ele>90.4</ele>
        <time>2023-01-25T13:02:10Z</time>
      </trkpt>
      <trkpt lat="49.95138" lon="2.35829">
        <ele>90.4</ele>
        <time>2023-01-25T13:02:11Z</time>
      </trkpt>
      <trkpt lat="49.95137" lon="2.35828">
        <ele>90.4</ele>
        <time>2023-01-25T13:02:12Z</time>
      </trkpt>
      <trkpt lat="49.95137" lon="2.35827">
        <ele>90.4</ele>
        <time>2023-01-25T13:02:13Z</time>
      </trkpt>
      <trkpt lat="49.95136" lon="2.35826">
        <ele>90.4</ele>
        <time>2023-01-25T13:02:15Z</time>
      </trkpt>
      <trkpt lat="49.95135" lon="2.35826">
        <ele>90.4</ele>
        <time>2023-01-25T13:02:16Z</time>
      </trkpt>
      <trkpt lat="49.95135" lon="2.35825">
        <ele>90.4</ele>
        <time>2023-01-25T13:02:17Z</time>
      </trkpt>
      <trkpt lat="49.95134" lon="2.35825">
        <ele>90.4</ele>
        <time>2023-01-25T13:02:18Z</time>
      </trkpt>
      <trkpt lat="49.95134" lon="2.35824">
        <ele>90.4</ele>
        <time>2023-01-25T13:02:19Z</time>
      </trkpt>
      <trkpt lat="49.95135" lon="2.35825">
        <ele>90.4</ele>
        <time>2023-01-25T13:02:20Z</time>
      </trkpt>
      <trkpt lat="49.95135" lon="2.35824">
        <ele>90.4</ele>
        <time>2023-01-25T13:02:21Z</time>
      </trkpt>
      <trkpt lat="49.95135" lon="2.35824">
        <ele>90.4</ele>
        <time>2023-01-25T13:02:23Z</time>
      </trkpt>
      <trkpt lat="49.95134" lon="2.35823">
        <ele>90.3</ele>
        <time>2023-01-25T13:02:24Z</time>
      </trkpt>
      <trkpt lat="49.95133" lon="2.35823">
        <ele>90.3</ele>
        <time>2023-01-25T13:02:25Z</time>
      </trkpt>
      <trkpt lat="49.95132" lon="2.35822">
        <ele>90.3</ele>
        <time>2023-01-25T13:02:26Z</time>
      </trkpt>
      <trkpt lat="49.9513" lon="2.35821">
        <ele>90.3</ele>
        <time>2023-01-25T13:02:27Z</time>
      </trkpt>
      <trkpt lat="49.95129" lon="2.35821">
        <ele>90.3</ele>
        <time>2023-01-25T13:02:28Z</time>
      </trkpt>
      <trkpt lat="49.95128" lon="2.3582">
        <ele>90.3</ele>
        <time>2023-01-25T13:02:29Z</time>
      </trkpt>
      <trkpt lat="49.95127" lon="2.3582">
        <ele>90.3</ele>
        <time>2023-01-25T13:02:30Z</time>
      </trkpt>
      <trkpt lat="49.95126" lon="2.3582">
        <ele>90.3</ele>
        <time>2023-01-25T13:02:32Z</time>
      </trkpt>
      <trkpt lat="49.95126" lon="2.3582">
        <ele>90.3</ele>
        <time>2023-01-25T13:02:33Z</time>
      </trkpt>
      <trkpt lat="49.95125" lon="2.3582">
        <ele>90.3</ele>
        <time>2023-01-25T13:02:34Z</time>
      </trkpt>
      <trkpt lat="49.95124" lon="2.3582">
        <ele>90.3</ele>
        <time>2023-01-25T13:02:35Z</time>
      </trkpt>
      <trkpt lat="49.95123" lon="2.3582">
        <ele>90.3</ele>
        <time>2023-01-25T13:02:36Z</time>
      </trkpt>
      <trkpt lat="49.95122" lon="2.3582">
        <ele>90.3</ele>
        <time>2023-01-25T13:02:37Z</time>
      </trkpt>
      <trkpt lat="49.95122" lon="2.3582">
        <ele>90.3</ele>
        <time>2023-01-25T13:02:39Z</time>
      </trkpt>
      <trkpt lat="49.95121" lon="2.35819">
        <ele>90.3</ele>
        <time>2023-01-25T13:02:40Z</time>
      </trkpt>
      <trkpt lat="49.9512" lon="2.35819">
        <ele>90.3</ele>
        <time>2023-01-25T13:02:41Z</time>
      </trkpt>
      <trkpt lat="49.95119" lon="2.35818">
        <ele>90.3</ele>
        <time>2023-01-25T13:02:42Z</time>
      </trkpt>
      <trkpt lat="49.95119" lon="2.35817">
        <ele>90.3</ele>
        <time>2023-01-25T13:02:43Z</time>
      </trkpt>
      <trkpt lat="49.95118" lon="2.35817">
        <ele>90.3</ele>
        <time>2023-01-25T13:02:44Z</time>
      </trkpt>
      <trkpt lat="49.95118" lon="2.35817">
        <ele>90.3</ele>
        <time>2023-01-25T13:02:46Z</time>
      </trkpt>
      <trkpt lat="49.95117" lon="2.35816">
        <ele>90.3</ele>
        <time>2023-01-25T13:02:47Z</time>
      </trkpt>
      <trkpt lat="49.95116" lon="2.35816">
        <ele>90.3</ele>
        <time>2023-01-25T13:02:48Z</time>
      </trkpt>
      <trkpt lat="49.95115" lon="2.35815">
        <ele>90.3</ele>
        <time>2023-01-25T13:02:49Z</time>
      </trkpt>
      <trkpt lat="49.95112" lon="2.35813">
        <ele>90.2</ele>
        <time>2023-01-25T13:02:50Z</time>
      </trkpt>
      <trkpt lat="49.95111" lon="2.35813">
        <ele>90.2</ele>
        <time>2023-01-25T13:02:51Z</time>
      </trkpt>
      <trkpt lat="49.9511" lon="2.35813">
        <ele>90.2</ele>
        <time>2023-01-25T13:02:53Z</time>
      </trkpt>
      <trkpt lat="49.9511" lon="2.35812">
        <ele>90.2</ele>
        <time>2023-01-25T13:02:54Z</time>
      </trkpt>
      <trkpt lat="49.95109" lon="2.35812">
        <ele>90.2</ele>
        <time>2023-01-25T13:02:55Z</time>
      </trkpt>
      <trkpt lat="49.95108" lon="2.35812">
        <ele>90.2</ele>
        <time>2023-01-25T13:02:56Z</time>
      </trkpt>
      <trkpt lat="49.95106" lon="2.35812">
        <ele>90.2</ele>
        <time>2023-01-25T13:02:57Z</time>
      </trkpt>
      <trkpt lat="49.95105" lon="2.35812">
        <ele>90.2</ele>
        <time>2023-01-25T13:02:58Z</time>
      </trkpt>
      <trkpt lat="49.95103" lon="2.35813">
        <ele>90.1</ele>
        <time>2023-01-25T13:02:59Z</time>
      </trkpt>
      <trkpt lat="49.95102" lon="2.35813">
        <ele>90.2</ele>
        <time>2023-01-25T13:03:01Z</time>
      </trkpt>
      <trkpt lat="49.95101" lon="2.35814">
        <ele>90.2</ele>
        <time>2023-01-25T13:03:02Z</time>
      </trkpt>
      <trkpt lat="49.95099" lon="2.35814">
        <ele>90.2</ele>
        <time>2023-01-25T13:03:03Z</time>
      </trkpt>
      <trkpt lat="49.95098" lon="2.35815">
        <ele>90.2</ele>
        <time>2023-01-25T13:03:04Z</time>
      </trkpt>
      <trkpt lat="49.95096" lon="2.35816">
        <ele>90.2</ele>
        <time>2023-01-25T13:03:05Z</time>
      </trkpt>
      <trkpt lat="49.95095" lon="2.35817">
        <ele>90.3</ele>
        <time>2023-01-25T13:03:07Z</time>
      </trkpt>
      <trkpt lat="49.95095" lon="2.35819">
        <ele>90.3</ele>
        <time>2023-01-25T13:03:08Z</time>
      </trkpt>
      <trkpt lat="49.95094" lon="2.35821">
        <ele>90.3</ele>
        <time>2023-01-25T13:03:09Z</time>
      </trkpt>
      <trkpt lat="49.95094" lon="2.35823">
        <ele>90.3</ele>
        <time>2023-01-25T13:03:10Z</time>
      </trkpt>
      <trkpt lat="49.95094" lon="2.35824">
        <ele>90.3</ele>
        <time>2023-01-25T13:03:11Z</time>
      </trkpt>
      <trkpt lat="49.95093" lon="2.35825">
        <ele>90.3</ele>
        <time>2023-01-25T13:03:12Z</time>
      </trkpt>
      <trkpt lat="49.95094" lon="2.35828">
        <ele>90.3</ele>
        <time>2023-01-25T13:03:13Z</time>
      </trkpt>
      <trkpt lat="49.95093" lon="2.3583">
        <ele>90.3</ele>
        <time>2023-01-25T13:03:14Z</time>
      </trkpt>
      <trkpt lat="49.95093" lon="2.35833">
        <ele>90.3</ele>
        <time>2023-01-25T13:03:15Z</time>
      </trkpt>
      <trkpt lat="49.95093" lon="2.35837">
        <ele>90.4</ele>
        <time>2023-01-25T13:03:17Z</time>
      </trkpt>
      <trkpt lat="49.95093" lon="2.35838">
        <ele>90.4</ele>
        <time>2023-01-25T13:03:18Z</time>
      </trkpt>
      <trkpt lat="49.95092" lon="2.35843">
        <ele>90.4</ele>
        <time>2023-01-25T13:03:19Z</time>
      </trkpt>
      <trkpt lat="49.95092" lon="2.35845">
        <ele>90.4</ele>
        <time>2023-01-25T13:03:20Z</time>
      </trkpt>
      <trkpt lat="49.95092" lon="2.35849">
        <ele>90.4</ele>
        <time>2023-01-25T13:03:21Z</time>
      </trkpt>
      <trkpt lat="49.95092" lon="2.3585">
        <ele>90.4</ele>
        <time>2023-01-25T13:03:22Z</time>
      </trkpt>
      <trkpt lat="49.95092" lon="2.35853">
        <ele>90.4</ele>
        <time>2023-01-25T13:03:23Z</time>
      </trkpt>
      <trkpt lat="49.95091" lon="2.35855">
        <ele>90.4</ele>
        <time>2023-01-25T13:03:24Z</time>
      </trkpt>
      <trkpt lat="49.95091" lon="2.35857">
        <ele>90.4</ele>
        <time>2023-01-25T13:03:26Z</time>
      </trkpt>
      <trkpt lat="49.95091" lon="2.3586">
        <ele>90.4</ele>
        <time>2023-01-25T13:03:27Z</time>
      </trkpt>
      <trkpt lat="49.95091" lon="2.35862">
        <ele>90.4</ele>
        <time>2023-01-25T13:03:28Z</time>
      </trkpt>
      <trkpt lat="49.95091" lon="2.35864">
        <ele>90.4</ele>
        <time>2023-01-25T13:03:29Z</time>
      </trkpt>
      <trkpt lat="49.95091" lon="2.35866">
        <ele>90.4</ele>
        <time>2023-01-25T13:03:30Z</time>
      </trkpt>
      <trkpt lat="49.95091" lon="2.35869">
        <ele>90.4</ele>
        <time>2023-01-25T13:03:31Z</time>
      </trkpt>
      <trkpt lat="49.95091" lon="2.3587">
        <ele>90.4</ele>
        <time>2023-01-25T13:03:32Z</time>
      </trkpt>
      <trkpt lat="49.95091" lon="2.35872">
        <ele>90.5</ele>
        <time>2023-01-25T13:03:33Z</time>
      </trkpt>
      <trkpt lat="49.95091" lon="2.35874">
        <ele>90.5</ele>
        <time>2023-01-25T13:03:34Z</time>
      </trkpt>
      <trkpt lat="49.9509" lon="2.35878">
        <ele>90.5</ele>
        <time>2023-01-25T13:03:35Z</time>
      </trkpt>
      <trkpt lat="49.9509" lon="2.35878">
        <ele>90.5</ele>
        <time>2023-01-25T13:03:37Z</time>
      </trkpt>
      <trkpt lat="49.9509" lon="2.3588">
        <ele>90.5</ele>
        <time>2023-01-25T13:03:38Z</time>
      </trkpt>
      <trkpt lat="49.95089" lon="2.35881">
        <ele>90.5</ele>
        <time>2023-01-25T13:03:39Z</time>
      </trkpt>
      <trkpt lat="49.95088" lon="2.35882">
        <ele>90.5</ele>
        <time>2023-01-25T13:03:40Z</time>
      </trkpt>
      <trkpt lat="49.95088" lon="2.35886">
        <ele>90.5</ele>
        <time>2023-01-25T13:03:41Z</time>
      </trkpt>
      <trkpt lat="49.95088" lon="2.35887">
        <ele>90.5</ele>
        <time>2023-01-25T13:03:42Z</time>
      </trkpt>
      <trkpt lat="49.95088" lon="2.35888">
        <ele>90.5</ele>
        <time>2023-01-25T13:03:43Z</time>
      </trkpt>
      <trkpt lat="49.95087" lon="2.3589">
        <ele>90.5</ele>
        <time>2023-01-25T13:03:44Z</time>
      </trkpt>
      <trkpt lat="49.95087" lon="2.35892">
        <ele>90.5</ele>
        <time>2023-01-25T13:03:45Z</time>
      </trkpt>
      <trkpt lat="49.95086" lon="2.35894">
        <ele>90.5</ele>
        <time>2023-01-25T13:03:47Z</time>
      </trkpt>
      <trkpt lat="49.95084" lon="2.35895">
        <ele>90.5</ele>
        <time>2023-01-25T13:03:48Z</time>
      </trkpt>
      <trkpt lat="49.95083" lon="2.35896">
        <ele>90.5</ele>
        <time>2023-01-25T13:03:49Z</time>
      </trkpt>
      <trkpt lat="49.95083" lon="2.35896">
        <ele>90.5</ele>
        <time>2023-01-25T13:03:50Z</time>
      </trkpt>
      <trkpt lat="49.95084" lon="2.359">
        <ele>90.5</ele>
        <time>2023-01-25T13:03:51Z</time>
      </trkpt>
      <trkpt lat="49.95086" lon="2.35903">
        <ele>90.5</ele>
        <time>2023-01-25T13:03:52Z</time>
      </trkpt>
      <trkpt lat="49.95086" lon="2.35906">
        <ele>90.5</ele>
        <time>2023-01-25T13:03:54Z</time>
      </trkpt>
      <trkpt lat="49.95087" lon="2.35908">
        <ele>90.5</ele>
        <time>2023-01-25T13:03:55Z</time>
      </trkpt>
      <trkpt lat="49.95087" lon="2.35911">
        <ele>90.5</ele>
        <time>2023-01-25T13:03:56Z</time>
      </trkpt>
      <trkpt lat="49.95087" lon="2.35912">
        <ele>90.5</ele>
        <time>2023-01-25T13:03:57Z</time>
      </trkpt>
      <trkpt lat="49.95088" lon="2.35914">
        <ele>90.5</ele>
        <time>2023-01-25T13:03:58Z</time>
      </trkpt>
      <trkpt lat="49.95088" lon="2.35916">
        <ele>90.5</ele>
        <time>2023-01-25T13:03:59Z</time>
      </trkpt>
      <trkpt lat="49.95088" lon="2.35919">
        <ele>90.5</ele>
        <time>2023-01-25T13:04:00Z</time>
      </trkpt>
      <trkpt lat="49.95088" lon="2.35921">
        <ele>90.5</ele>
        <time>2023-01-25T13:04:01Z</time>
      </trkpt>
      <trkpt lat="49.95087" lon="2.35922">
        <ele>90.4</ele>
        <time>2023-01-25T13:04:03Z</time>
      </trkpt>
      <trkpt lat="49.95087" lon="2.35923">
        <ele>90.4</ele>
        <time>2023-01-25T13:04:04Z</time>
      </trkpt>
      <trkpt lat="49.95087" lon="2.35924">
        <ele>90.4</ele>
        <time>2023-01-25T13:04:05Z</time>
      </trkpt>
      <trkpt lat="49.95087" lon="2.35926">
        <ele>90.4</ele>
        <time>2023-01-25T13:04:06Z</time>
      </trkpt>
      <trkpt lat="49.95087" lon="2.35927">
        <ele>90.4</ele>
        <time>2023-01-25T13:04:07Z</time>
      </trkpt>
      <trkpt lat="49.95087" lon="2.35929">
        <ele>90.4</ele>
        <time>2023-01-25T13:04:08Z</time>
      </trkpt>
      <trkpt lat="49.95086" lon="2.35931">
        <ele>90.4</ele>
        <time>2023-01-25T13:04:09Z</time>
      </trkpt>
      <trkpt lat="49.95086" lon="2.35934">
        <ele>90.3</ele>
        <time>2023-01-25T13:04:11Z</time>
      </trkpt>
      <trkpt lat="49.95086" lon="2.35936">
        <ele>90.3</ele>
        <time>2023-01-25T13:04:12Z</time>
      </trkpt>
      <trkpt lat="49.95085" lon="2.35938">
        <ele>90.3</ele>
        <time>2023-01-25T13:04:13Z</time>
      </trkpt>
      <trkpt lat="49.95085" lon="2.35941">
        <ele>90.3</ele>
        <time>2023-01-25T13:04:14Z</time>
      </trkpt>
      <trkpt lat="49.95084" lon="2.35943">
        <ele>90.3</ele>
        <time>2023-01-25T13:04:15Z</time>
      </trkpt>
      <trkpt lat="49.95084" lon="2.35946">
        <ele>90.2</ele>
        <time>2023-01-25T13:04:16Z</time>
      </trkpt>
      <trkpt lat="49.95084" lon="2.35948">
        <ele>90.2</ele>
        <time>2023-01-25T13:04:18Z</time>
      </trkpt>
      <trkpt lat="49.95084" lon="2.3595">
        <ele>90.2</ele>
        <time>2023-01-25T13:04:19Z</time>
      </trkpt>
      <trkpt lat="49.95084" lon="2.35952">
        <ele>90.2</ele>
        <time>2023-01-25T13:04:20Z</time>
      </trkpt>
      <trkpt lat="49.95084" lon="2.35954">
        <ele>90.2</ele>
        <time>2023-01-25T13:04:22Z</time>
      </trkpt>
      <trkpt lat="49.95084" lon="2.35955">
        <ele>90.2</ele>
        <time>2023-01-25T13:04:23Z</time>
      </trkpt>
      <trkpt lat="49.95084" lon="2.35957">
        <ele>90.2</ele>
        <time>2023-01-25T13:04:24Z</time>
      </trkpt>
      <trkpt lat="49.95084" lon="2.35959">
        <ele>90.2</ele>
        <time>2023-01-25T13:04:25Z</time>
      </trkpt>
      <trkpt lat="49.95085" lon="2.35962">
        <ele>90.2</ele>
        <time>2023-01-25T13:04:26Z</time>
      </trkpt>
      <trkpt lat="49.95085" lon="2.35963">
        <ele>90.2</ele>
        <time>2023-01-25T13:04:27Z</time>
      </trkpt>
      <trkpt lat="49.95085" lon="2.35965">
        <ele>90.1</ele>
        <time>2023-01-25T13:04:29Z</time>
      </trkpt>
      <trkpt lat="49.95085" lon="2.35967">
        <ele>90.1</ele>
        <time>2023-01-25T13:04:30Z</time>
      </trkpt>
      <trkpt lat="49.95084" lon="2.3597">
        <ele>90.1</ele>
        <time>2023-01-25T13:04:31Z</time>
      </trkpt>
      <trkpt lat="49.95085" lon="2.35973">
        <ele>90.1</ele>
        <time>2023-01-25T13:04:32Z</time>
      </trkpt>
      <trkpt lat="49.95085" lon="2.35976">
        <ele>90.1</ele>
        <time>2023-01-25T13:04:33Z</time>
      </trkpt>
      <trkpt lat="49.95085" lon="2.35977">
        <ele>90.1</ele>
        <time>2023-01-25T13:04:34Z</time>
      </trkpt>
      <trkpt lat="49.95085" lon="2.35979">
        <ele>90.1</ele>
        <time>2023-01-25T13:04:35Z</time>
      </trkpt>
      <trkpt lat="49.95084" lon="2.35981">
        <ele>90.1</ele>
        <time>2023-01-25T13:04:36Z</time>
      </trkpt>
      <trkpt lat="49.95083" lon="2.35981">
        <ele>90.1</ele>
        <time>2023-01-25T13:04:37Z</time>
      </trkpt>
      <trkpt lat="49.95083" lon="2.35982">
        <ele>90.1</ele>
        <time>2023-01-25T13:04:38Z</time>
      </trkpt>
      <trkpt lat="49.95083" lon="2.35983">
        <ele>90.1</ele>
        <time>2023-01-25T13:04:40Z</time>
      </trkpt>
      <trkpt lat="49.95083" lon="2.35985">
        <ele>90.1</ele>
        <time>2023-01-25T13:04:41Z</time>
      </trkpt>
      <trkpt lat="49.95083" lon="2.35986">
        <ele>90.1</ele>
        <time>2023-01-25T13:04:42Z</time>
      </trkpt>
      <trkpt lat="49.95083" lon="2.35988">
        <ele>90.1</ele>
        <time>2023-01-25T13:04:43Z</time>
      </trkpt>
      <trkpt lat="49.95084" lon="2.35989">
        <ele>90.1</ele>
        <time>2023-01-25T13:04:44Z</time>
      </trkpt>
      <trkpt lat="49.95084" lon="2.3599">
        <ele>90.1</ele>
        <time>2023-01-25T13:04:45Z</time>
      </trkpt>
      <trkpt lat="49.95084" lon="2.35992">
        <ele>90.1</ele>
        <time>2023-01-25T13:04:46Z</time>
      </trkpt>
      <trkpt lat="49.95086" lon="2.35994">
        <ele>90.1</ele>
        <time>2023-01-25T13:04:48Z</time>
      </trkpt>
      <trkpt lat="49.95086" lon="2.35996">
        <ele>90.1</ele>
        <time>2023-01-25T13:04:49Z</time>
      </trkpt>
      <trkpt lat="49.95087" lon="2.35997">
        <ele>90.1</ele>
        <time>2023-01-25T13:04:50Z</time>
      </trkpt>
      <trkpt lat="49.95089" lon="2.35999">
        <ele>90</ele>
        <time>2023-01-25T13:04:51Z</time>
      </trkpt>
      <trkpt lat="49.95089" lon="2.36">
        <ele>90</ele>
        <time>2023-01-25T13:04:52Z</time>
      </trkpt>
      <trkpt lat="49.9509" lon="2.36001">
        <ele>90</ele>
        <time>2023-01-25T13:04:54Z</time>
      </trkpt>
      <trkpt lat="49.95092" lon="2.36003">
        <ele>90</ele>
        <time>2023-01-25T13:04:55Z</time>
      </trkpt>
      <trkpt lat="49.95093" lon="2.36004">
        <ele>90</ele>
        <time>2023-01-25T13:04:56Z</time>
      </trkpt>
      <trkpt lat="49.95094" lon="2.36005">
        <ele>90</ele>
        <time>2023-01-25T13:04:57Z</time>
      </trkpt>
      <trkpt lat="49.95095" lon="2.36006">
        <ele>90</ele>
        <time>2023-01-25T13:04:58Z</time>
      </trkpt>
      <trkpt lat="49.95095" lon="2.36007">
        <ele>90</ele>
        <time>2023-01-25T13:05:00Z</time>
      </trkpt>
      <trkpt lat="49.95096" lon="2.36007">
        <ele>90</ele>
        <time>2023-01-25T13:05:01Z</time>
      </trkpt>
      <trkpt lat="49.95097" lon="2.36008">
        <ele>90</ele>
        <time>2023-01-25T13:05:02Z</time>
      </trkpt>
      <trkpt lat="49.95098" lon="2.36008">
        <ele>90</ele>
        <time>2023-01-25T13:05:03Z</time>
      </trkpt>
      <trkpt lat="49.951" lon="2.36009">
        <ele>90</ele>
        <time>2023-01-25T13:05:04Z</time>
      </trkpt>
      <trkpt lat="49.95101" lon="2.3601">
        <ele>90</ele>
        <time>2023-01-25T13:05:05Z</time>
      </trkpt>
      <trkpt lat="49.95102" lon="2.3601">
        <ele>90</ele>
        <time>2023-01-25T13:05:06Z</time>
      </trkpt>
      <trkpt lat="49.95104" lon="2.3601">
        <ele>90</ele>
        <time>2023-01-25T13:05:07Z</time>
      </trkpt>
      <trkpt lat="49.95105" lon="2.3601">
        <ele>90</ele>
        <time>2023-01-25T13:05:09Z</time>
      </trkpt>
      <trkpt lat="49.95105" lon="2.3601">
        <ele>90</ele>
        <time>2023-01-25T13:05:10Z</time>
      </trkpt>
      <trkpt lat="49.95107" lon="2.36011">
        <ele>90</ele>
        <time>2023-01-25T13:05:11Z</time>
      </trkpt>
      <trkpt lat="49.95108" lon="2.36011">
        <ele>90</ele>
        <time>2023-01-25T13:05:12Z</time>
      </trkpt>
      <trkpt lat="49.9511" lon="2.36012">
        <ele>90</ele>
        <time>2023-01-25T13:05:13Z</time>
      </trkpt>
      <trkpt lat="49.95111" lon="2.36013">
        <ele>90</ele>
        <time>2023-01-25T13:05:14Z</time>
      </trkpt>
      <trkpt lat="49.95112" lon="2.36014">
        <ele>90</ele>
        <time>2023-01-25T13:05:15Z</time>
      </trkpt>
      <trkpt lat="49.95114" lon="2.36015">
        <ele>90</ele>
        <time>2023-01-25T13:05:17Z</time>
      </trkpt>
      <trkpt lat="49.95115" lon="2.36016">
        <ele>90</ele>
        <time>2023-01-25T13:05:18Z</time>
      </trkpt>
      <trkpt lat="49.95116" lon="2.36017">
        <ele>90</ele>
        <time>2023-01-25T13:05:19Z</time>
      </trkpt>
      <trkpt lat="49.95117" lon="2.36019">
        <ele>90</ele>
        <time>2023-01-25T13:05:20Z</time>
      </trkpt>
      <trkpt lat="49.95118" lon="2.3602">
        <ele>90</ele>
        <time>2023-01-25T13:05:21Z</time>
      </trkpt>
      <trkpt lat="49.95119" lon="2.36022">
        <ele>90</ele>
        <time>2023-01-25T13:05:22Z</time>
      </trkpt>
      <trkpt lat="49.9512" lon="2.36024">
        <ele>90</ele>
        <time>2023-01-25T13:05:24Z</time>
      </trkpt>
      <trkpt lat="49.95121" lon="2.36026">
        <ele>90</ele>
        <time>2023-01-25T13:05:25Z</time>
      </trkpt>
      <trkpt lat="49.95122" lon="2.36029">
        <ele>90</ele>
        <time>2023-01-25T13:05:26Z</time>
      </trkpt>
      <trkpt lat="49.95122" lon="2.36031">
        <ele>90</ele>
        <time>2023-01-25T13:05:27Z</time>
      </trkpt>
      <trkpt lat="49.95123" lon="2.36033">
        <ele>90</ele>
        <time>2023-01-25T13:05:28Z</time>
      </trkpt>
      <trkpt lat="49.95124" lon="2.36035">
        <ele>90</ele>
        <time>2023-01-25T13:05:29Z</time>
      </trkpt>
      <trkpt lat="49.95125" lon="2.36039">
        <ele>90.1</ele>
        <time>2023-01-25T13:05:31Z</time>
      </trkpt>
      <trkpt lat="49.95126" lon="2.3604">
        <ele>90.1</ele>
        <time>2023-01-25T13:05:32Z</time>
      </trkpt>
      <trkpt lat="49.95126" lon="2.36042">
        <ele>90.1</ele>
        <time>2023-01-25T13:05:33Z</time>
      </trkpt>
      <trkpt lat="49.95127" lon="2.36044">
        <ele>90.1</ele>
        <time>2023-01-25T13:05:34Z</time>
      </trkpt>
      <trkpt lat="49.95128" lon="2.36046">
        <ele>90.1</ele>
        <time>2023-01-25T13:05:35Z</time>
      </trkpt>
      <trkpt lat="49.95129" lon="2.36047">
        <ele>90.1</ele>
        <time>2023-01-25T13:05:36Z</time>
      </trkpt>
      <trkpt lat="49.9513" lon="2.36051">
        <ele>90.2</ele>
        <time>2023-01-25T13:05:37Z</time>
      </trkpt>
      <trkpt lat="49.9513" lon="2.36052">
        <ele>90.2</ele>
        <time>2023-01-25T13:05:38Z</time>
      </trkpt>
      <trkpt lat="49.95131" lon="2.36056">
        <ele>90.2</ele>
        <time>2023-01-25T13:05:39Z</time>
      </trkpt>
      <trkpt lat="49.95131" lon="2.36058">
        <ele>90.2</ele>
        <time>2023-01-25T13:05:40Z</time>
      </trkpt>
      <trkpt lat="49.95131" lon="2.3606">
        <ele>90.2</ele>
        <time>2023-01-25T13:05:41Z</time>
      </trkpt>
      <trkpt lat="49.95131" lon="2.36063">
        <ele>90.2</ele>
        <time>2023-01-25T13:05:42Z</time>
      </trkpt>
      <trkpt lat="49.95131" lon="2.36064">
        <ele>90.2</ele>
        <time>2023-01-25T13:05:43Z</time>
      </trkpt>
      <trkpt lat="49.95132" lon="2.36066">
        <ele>90.3</ele>
        <time>2023-01-25T13:05:44Z</time>
      </trkpt>
      <trkpt lat="49.95132" lon="2.36068">
        <ele>90.3</ele>
        <time>2023-01-25T13:05:46Z</time>
      </trkpt>
      <trkpt lat="49.95133" lon="2.3607">
        <ele>90.3</ele>
        <time>2023-01-25T13:05:47Z</time>
      </trkpt>
      <trkpt lat="49.95133" lon="2.36072">
        <ele>90.3</ele>
        <time>2023-01-25T13:05:48Z</time>
      </trkpt>
      <trkpt lat="49.95133" lon="2.36073">
        <ele>90.3</ele>
        <time>2023-01-25T13:05:49Z</time>
      </trkpt>
      <trkpt lat="49.95133" lon="2.36075">
        <ele>90.3</ele>
        <time>2023-01-25T13:05:50Z</time>
      </trkpt>
      <trkpt lat="49.95134" lon="2.36077">
        <ele>90.3</ele>
        <time>2023-01-25T13:05:51Z</time>
      </trkpt>
      <trkpt lat="49.95134" lon="2.36079">
        <ele>90.3</ele>
        <time>2023-01-25T13:05:52Z</time>
      </trkpt>
      <trkpt lat="49.95135" lon="2.36082">
        <ele>90.3</ele>
        <time>2023-01-25T13:05:53Z</time>
      </trkpt>
      <trkpt lat="49.95135" lon="2.36084">
        <ele>90.4</ele>
        <time>2023-01-25T13:05:55Z</time>
      </trkpt>
      <trkpt lat="49.95136" lon="2.36085">
        <ele>90.4</ele>
        <time>2023-01-25T13:05:56Z</time>
      </trkpt>
      <trkpt lat="49.95136" lon="2.36087">
        <ele>90.4</ele>
        <time>2023-01-25T13:05:57Z</time>
      </trkpt>
      <trkpt lat="49.95137" lon="2.36089">
        <ele>90.4</ele>
        <time>2023-01-25T13:05:58Z</time>
      </trkpt>
      <trkpt lat="49.95137" lon="2.36091">
        <ele>90.4</ele>
        <time>2023-01-25T13:05:59Z</time>
      </trkpt>
      <trkpt lat="49.95137" lon="2.36094">
        <ele>90.4</ele>
        <time>2023-01-25T13:06:00Z</time>
      </trkpt>
      <trkpt lat="49.95137" lon="2.36096">
        <ele>90.4</ele>
        <time>2023-01-25T13:06:01Z</time>
      </trkpt>
      <trkpt lat="49.95138" lon="2.36098">
        <ele>90.4</ele>
        <time>2023-01-25T13:06:03Z</time>
      </trkpt>
      <trkpt lat="49.95139" lon="2.361">
        <ele>90.4</ele>
        <time>2023-01-25T13:06:04Z</time>
      </trkpt>
      <trkpt lat="49.9514" lon="2.36102">
        <ele>90.4</ele>
        <time>2023-01-25T13:06:05Z</time>
      </trkpt>
      <trkpt lat="49.95141" lon="2.36104">
        <ele>90.4</ele>
        <time>2023-01-25T13:06:06Z</time>
      </trkpt>
      <trkpt lat="49.95141" lon="2.36105">
        <ele>90.4</ele>
        <time>2023-01-25T13:06:07Z</time>
      </trkpt>
      <trkpt lat="49.95142" lon="2.36107">
        <ele>90.4</ele>
        <time>2023-01-25T13:06:08Z</time>
      </trkpt>
      <trkpt lat="49.95143" lon="2.36109">
        <ele>90.4</ele>
        <time>2023-01-25T13:06:09Z</time>
      </trkpt>
      <trkpt lat="49.95144" lon="2.36111">
        <ele>90.4</ele>
        <time>2023-01-25T13:06:10Z</time>
      </trkpt>
      <trkpt lat="49.95144" lon="2.36113">
        <ele>90.4</ele>
        <time>2023-01-25T13:06:11Z</time>
      </trkpt>
      <trkpt lat="49.95143" lon="2.36116">
        <ele>90.4</ele>
        <time>2023-01-25T13:06:12Z</time>
      </trkpt>
      <trkpt lat="49.95143" lon="2.36117">
        <ele>90.4</ele>
        <time>2023-01-25T13:06:13Z</time>
      </trkpt>
      <trkpt lat="49.95143" lon="2.3612">
        <ele>90.3</ele>
        <time>2023-01-25T13:06:14Z</time>
      </trkpt>
      <trkpt lat="49.95144" lon="2.36121">
        <ele>90.3</ele>
        <time>2023-01-25T13:06:16Z</time>
      </trkpt>
      <trkpt lat="49.95144" lon="2.36123">
        <ele>90.3</ele>
        <time>2023-01-25T13:06:17Z</time>
      </trkpt>
      <trkpt lat="49.95144" lon="2.36124">
        <ele>90.3</ele>
        <time>2023-01-25T13:06:18Z</time>
      </trkpt>
      <trkpt lat="49.95144" lon="2.36126">
        <ele>90.3</ele>
        <time>2023-01-25T13:06:19Z</time>
      </trkpt>
      <trkpt lat="49.95145" lon="2.36128">
        <ele>90.3</ele>
        <time>2023-01-25T13:06:20Z</time>
      </trkpt>
      <trkpt lat="49.95145" lon="2.36129">
        <ele>90.3</ele>
        <time>2023-01-25T13:06:21Z</time>
      </trkpt>
      <trkpt lat="49.95146" lon="2.36131">
        <ele>90.3</ele>
        <time>2023-01-25T13:06:22Z</time>
      </trkpt>
      <trkpt lat="49.95146" lon="2.36133">
        <ele>90.2</ele>
        <time>2023-01-25T13:06:23Z</time>
      </trkpt>
      <trkpt lat="49.95147" lon="2.36135">
        <ele>90.2</ele>
        <time>2023-01-25T13:06:24Z</time>
      </trkpt>
      <trkpt lat="49.95148" lon="2.36136">
        <ele>90.2</ele>
        <time>2023-01-25T13:06:25Z</time>
      </trkpt>
      <trkpt lat="49.95149" lon="2.3614">
        <ele>90.2</ele>
        <time>2023-01-25T13:06:27Z</time>
      </trkpt>
      <trkpt lat="49.95149" lon="2.36141">
        <ele>90.2</ele>
        <time>2023-01-25T13:06:28Z</time>
      </trkpt>
      <trkpt lat="49.9515" lon="2.36143">
        <ele>90.1</ele>
        <time>2023-01-25T13:06:29Z</time>
      </trkpt>
      <trkpt lat="49.95151" lon="2.36145">
        <ele>90.1</ele>
        <time>2023-01-25T13:06:31Z</time>
      </trkpt>
      <trkpt lat="49.95151" lon="2.36147">
        <ele>90.1</ele>
        <time>2023-01-25T13:06:32Z</time>
      </trkpt>
      <trkpt lat="49.95152" lon="2.36149">
        <ele>90.1</ele>
        <time>2023-01-25T13:06:33Z</time>
      </trkpt>
      <trkpt lat="49.95152" lon="2.36151">
        <ele>90.1</ele>
        <time>2023-01-25T13:06:34Z</time>
      </trkpt>
      <trkpt lat="49.95153" lon="2.36153">
        <ele>90.1</ele>
        <time>2023-01-25T13:06:35Z</time>
      </trkpt>
      <trkpt lat="49.95154" lon="2.36155">
        <ele>90</ele>
        <time>2023-01-25T13:06:36Z</time>
      </trkpt>
      <trkpt lat="49.95154" lon="2.36156">
        <ele>90</ele>
        <time>2023-01-25T13:06:37Z</time>
      </trkpt>
      <trkpt lat="49.95155" lon="2.36159">
        <ele>90</ele>
        <time>2023-01-25T13:06:39Z</time>
      </trkpt>
      <trkpt lat="49.95156" lon="2.36161">
        <ele>90</ele>
        <time>2023-01-25T13:06:40Z</time>
      </trkpt>
      <trkpt lat="49.95157" lon="2.36162">
        <ele>90</ele>
        <time>2023-01-25T13:06:41Z</time>
      </trkpt>
      <trkpt lat="49.95158" lon="2.36164">
        <ele>90</ele>
        <time>2023-01-25T13:06:42Z</time>
      </trkpt>
      <trkpt lat="49.95159" lon="2.36166">
        <ele>89.9</ele>
        <time>2023-01-25T13:06:44Z</time>
      </trkpt>
      <trkpt lat="49.9516" lon="2.36168">
        <ele>89.9</ele>
        <time>2023-01-25T13:06:45Z</time>
      </trkpt>
      <trkpt lat="49.95161" lon="2.3617">
        <ele>89.9</ele>
        <time>2023-01-25T13:06:46Z</time>
      </trkpt>
      <trkpt lat="49.95162" lon="2.36173">
        <ele>89.9</ele>
        <time>2023-01-25T13:06:47Z</time>
      </trkpt>
      <trkpt lat="49.95162" lon="2.36174">
        <ele>89.9</ele>
        <time>2023-01-25T13:06:48Z</time>
      </trkpt>
      <trkpt lat="49.95163" lon="2.36175">
        <ele>89.8</ele>
        <time>2023-01-25T13:06:49Z</time>
      </trkpt>
      <trkpt lat="49.95163" lon="2.36177">
        <ele>89.8</ele>
        <time>2023-01-25T13:06:51Z</time>
      </trkpt>
      <trkpt lat="49.95164" lon="2.36179">
        <ele>89.8</ele>
        <time>2023-01-25T13:06:52Z</time>
      </trkpt>
      <trkpt lat="49.95165" lon="2.3618">
        <ele>89.8</ele>
        <time>2023-01-25T13:06:53Z</time>
      </trkpt>
      <trkpt lat="49.95166" lon="2.36181">
        <ele>89.7</ele>
        <time>2023-01-25T13:06:54Z</time>
      </trkpt>
      <trkpt lat="49.95167" lon="2.36183">
        <ele>89.7</ele>
        <time>2023-01-25T13:06:55Z</time>
      </trkpt>
      <trkpt lat="49.95168" lon="2.36186">
        <ele>89.7</ele>
        <time>2023-01-25T13:06:56Z</time>
      </trkpt>
      <trkpt lat="49.95169" lon="2.36188">
        <ele>89.6</ele>
        <time>2023-01-25T13:06:57Z</time>
      </trkpt>
      <trkpt lat="49.95169" lon="2.36188">
        <ele>89.6</ele>
        <time>2023-01-25T13:06:58Z</time>
      </trkpt>
      <trkpt lat="49.95169" lon="2.3619">
        <ele>89.6</ele>
        <time>2023-01-25T13:06:59Z</time>
      </trkpt>
      <trkpt lat="49.95169" lon="2.36191">
        <ele>89.6</ele>
        <time>2023-01-25T13:07:00Z</time>
      </trkpt>
      <trkpt lat="49.95169" lon="2.36193">
        <ele>89.6</ele>
        <time>2023-01-25T13:07:01Z</time>
      </trkpt>
      <trkpt lat="49.9517" lon="2.36196">
        <ele>89.5</ele>
        <time>2023-01-25T13:07:02Z</time>
      </trkpt>
      <trkpt lat="49.9517" lon="2.36197">
        <ele>89.5</ele>
        <time>2023-01-25T13:07:04Z</time>
      </trkpt>
      <trkpt lat="49.9517" lon="2.36199">
        <ele>89.5</ele>
        <time>2023-01-25T13:07:05Z</time>
      </trkpt>
      <trkpt lat="49.9517" lon="2.362">
        <ele>89.5</ele>
        <time>2023-01-25T13:07:06Z</time>
      </trkpt>
      <trkpt lat="49.9517" lon="2.36203">
        <ele>89.4</ele>
        <time>2023-01-25T13:07:07Z</time>
      </trkpt>
      <trkpt lat="49.9517" lon="2.36204">
        <ele>89.4</ele>
        <time>2023-01-25T13:07:08Z</time>
      </trkpt>
      <trkpt lat="49.95171" lon="2.36206">
        <ele>89.4</ele>
        <time>2023-01-25T13:07:10Z</time>
      </trkpt>
      <trkpt lat="49.95172" lon="2.36207">
        <ele>89.4</ele>
        <time>2023-01-25T13:07:11Z</time>
      </trkpt>
      <trkpt lat="49.95173" lon="2.36211">
        <ele>89.4</ele>
        <time>2023-01-25T13:07:12Z</time>
      </trkpt>
      <trkpt lat="49.95173" lon="2.36211">
        <ele>89.3</ele>
        <time>2023-01-25T13:07:13Z</time>
      </trkpt>
      <trkpt lat="49.95174" lon="2.36214">
        <ele>89.3</ele>
        <time>2023-01-25T13:07:14Z</time>
      </trkpt>
      <trkpt lat="49.95174" lon="2.36215">
        <ele>89.3</ele>
        <time>2023-01-25T13:07:15Z</time>
      </trkpt>
      <trkpt lat="49.95175" lon="2.36217">
        <ele>89.3</ele>
        <time>2023-01-25T13:07:16Z</time>
      </trkpt>
      <trkpt lat="49.95175" lon="2.36219">
        <ele>89.3</ele>
        <time>2023-01-25T13:07:18Z</time>
      </trkpt>
      <trkpt lat="49.95176" lon="2.36221">
        <ele>89.2</ele>
        <time>2023-01-25T13:07:19Z</time>
      </trkpt>
      <trkpt lat="49.95177" lon="2.36224">
        <ele>89.2</ele>
        <time>2023-01-25T13:07:20Z</time>
      </trkpt>
      <trkpt lat="49.95177" lon="2.36226">
        <ele>89.2</ele>
        <time>2023-01-25T13:07:21Z</time>
      </trkpt>
      <trkpt lat="49.95178" lon="2.36228">
        <ele>89.2</ele>
        <time>2023-01-25T13:07:22Z</time>
      </trkpt>
      <trkpt lat="49.95178" lon="2.3623">
        <ele>89.2</ele>
        <time>2023-01-25T13:07:23Z</time>
      </trkpt>
      <trkpt lat="49.95178" lon="2.36231">
        <ele>89.2</ele>
        <time>2023-01-25T13:07:24Z</time>
      </trkpt>
      <trkpt lat="49.95179" lon="2.36232">
        <ele>89.2</ele>
        <time>2023-01-25T13:07:26Z</time>
      </trkpt>
      <trkpt lat="49.95179" lon="2.36234">
        <ele>89.1</ele>
        <time>2023-01-25T13:07:27Z</time>
      </trkpt>
      <trkpt lat="49.95179" lon="2.36236">
        <ele>89.1</ele>
        <time>2023-01-25T13:07:28Z</time>
      </trkpt>
      <trkpt lat="49.9518" lon="2.36238">
        <ele>89.1</ele>
        <time>2023-01-25T13:07:29Z</time>
      </trkpt>
      <trkpt lat="49.95181" lon="2.36241">
        <ele>89.1</ele>
        <time>2023-01-25T13:07:30Z</time>
      </trkpt>
      <trkpt lat="49.95181" lon="2.36243">
        <ele>89.1</ele>
        <time>2023-01-25T13:07:31Z</time>
      </trkpt>
      <trkpt lat="49.95182" lon="2.36244">
        <ele>89.1</ele>
        <time>2023-01-25T13:07:32Z</time>
      </trkpt>
      <trkpt lat="49.95182" lon="2.36245">
        <ele>89.1</ele>
        <time>2023-01-25T13:07:33Z</time>
      </trkpt>
      <trkpt lat="49.95183" lon="2.36247">
        <ele>89.1</ele>
        <time>2023-01-25T13:07:35Z</time>
      </trkpt>
      <trkpt lat="49.95183" lon="2.36249">
        <ele>89.1</ele>
        <time>2023-01-25T13:07:36Z</time>
      </trkpt>
      <trkpt lat="49.95184" lon="2.36252">
        <ele>89.1</ele>
        <time>2023-01-25T13:07:37Z</time>
      </trkpt>
      <trkpt lat="49.95185" lon="2.36254">
        <ele>89.1</ele>
        <time>2023-01-25T13:07:38Z</time>
      </trkpt>
      <trkpt lat="49.95185" lon="2.36255">
        <ele>89</ele>
        <time>2023-01-25T13:07:39Z</time>
      </trkpt>
      <trkpt lat="49.95186" lon="2.36257">
        <ele>89</ele>
        <time>2023-01-25T13:07:40Z</time>
      </trkpt>
      <trkpt lat="49.95186" lon="2.36259">
        <ele>89</ele>
        <time>2023-01-25T13:07:41Z</time>
      </trkpt>
      <trkpt lat="49.95187" lon="2.36262">
        <ele>89</ele>
        <time>2023-01-25T13:07:43Z</time>
      </trkpt>
      <trkpt lat="49.95186" lon="2.36263">
        <ele>89</ele>
        <time>2023-01-25T13:07:44Z</time>
      </trkpt>
      <trkpt lat="49.95184" lon="2.36265">
        <ele>89</ele>
        <time>2023-01-25T13:07:45Z</time>
      </trkpt>
      <trkpt lat="49.95184" lon="2.36267">
        <ele>89</ele>
        <time>2023-01-25T13:07:46Z</time>
      </trkpt>
      <trkpt lat="49.95183" lon="2.3627">
        <ele>89</ele>
        <time>2023-01-25T13:07:47Z</time>
      </trkpt>
      <trkpt lat="49.95183" lon="2.36271">
        <ele>89</ele>
        <time>2023-01-25T13:07:48Z</time>
      </trkpt>
      <trkpt lat="49.95182" lon="2.36272">
        <ele>89</ele>
        <time>2023-01-25T13:07:49Z</time>
      </trkpt>
      <trkpt lat="49.95182" lon="2.36274">
        <ele>89</ele>
        <time>2023-01-25T13:07:50Z</time>
      </trkpt>
      <trkpt lat="49.95183" lon="2.36276">
        <ele>89</ele>
        <time>2023-01-25T13:07:51Z</time>
      </trkpt>
      <trkpt lat="49.95183" lon="2.36279">
        <ele>89</ele>
        <time>2023-01-25T13:07:53Z</time>
      </trkpt>
      <trkpt lat="49.95184" lon="2.36281">
        <ele>89</ele>
        <time>2023-01-25T13:07:54Z</time>
      </trkpt>
      <trkpt lat="49.95185" lon="2.36283">
        <ele>89</ele>
        <time>2023-01-25T13:07:55Z</time>
      </trkpt>
      <trkpt lat="49.95186" lon="2.36285">
        <ele>89</ele>
        <time>2023-01-25T13:07:56Z</time>
      </trkpt>
      <trkpt lat="49.95187" lon="2.36287">
        <ele>89</ele>
        <time>2023-01-25T13:07:57Z</time>
      </trkpt>
      <trkpt lat="49.95188" lon="2.36288">
        <ele>89</ele>
        <time>2023-01-25T13:07:58Z</time>
      </trkpt>
      <trkpt lat="49.95189" lon="2.3629">
        <ele>89</ele>
        <time>2023-01-25T13:07:59Z</time>
      </trkpt>
      <trkpt lat="49.95191" lon="2.36292">
        <ele>89</ele>
        <time>2023-01-25T13:08:00Z</time>
      </trkpt>
      <trkpt lat="49.95192" lon="2.36294">
        <ele>89</ele>
        <time>2023-01-25T13:08:02Z</time>
      </trkpt>
      <trkpt lat="49.95193" lon="2.36296">
        <ele>89</ele>
        <time>2023-01-25T13:08:03Z</time>
      </trkpt>
      <trkpt lat="49.95194" lon="2.36298">
        <ele>89</ele>
        <time>2023-01-25T13:08:04Z</time>
      </trkpt>
      <trkpt lat="49.95195" lon="2.36299">
        <ele>89</ele>
        <time>2023-01-25T13:08:05Z</time>
      </trkpt>
      <trkpt lat="49.95196" lon="2.36298">
        <ele>89</ele>
        <time>2023-01-25T13:08:06Z</time>
      </trkpt>
      <trkpt lat="49.95197" lon="2.36299">
        <ele>89</ele>
        <time>2023-01-25T13:08:07Z</time>
      </trkpt>
      <trkpt lat="49.95199" lon="2.36301">
        <ele>89</ele>
        <time>2023-01-25T13:08:08Z</time>
      </trkpt>
      <trkpt lat="49.95199" lon="2.36302">
        <ele>89</ele>
        <time>2023-01-25T13:08:09Z</time>
      </trkpt>
      <trkpt lat="49.952" lon="2.36303">
        <ele>89</ele>
        <time>2023-01-25T13:08:10Z</time>
      </trkpt>
      <trkpt lat="49.95201" lon="2.36306">
        <ele>89</ele>
        <time>2023-01-25T13:08:11Z</time>
      </trkpt>
      <trkpt lat="49.95201" lon="2.36308">
        <ele>89</ele>
        <time>2023-01-25T13:08:13Z</time>
      </trkpt>
      <trkpt lat="49.95201" lon="2.36312">
        <ele>89</ele>
        <time>2023-01-25T13:08:14Z</time>
      </trkpt>
      <trkpt lat="49.95201" lon="2.36314">
        <ele>89</ele>
        <time>2023-01-25T13:08:15Z</time>
      </trkpt>
      <trkpt lat="49.95201" lon="2.36316">
        <ele>89</ele>
        <time>2023-01-25T13:08:16Z</time>
      </trkpt>
      <trkpt lat="49.95202" lon="2.36319">
        <ele>89</ele>
        <time>2023-01-25T13:08:17Z</time>
      </trkpt>
      <trkpt lat="49.95203" lon="2.3632">
        <ele>89.1</ele>
        <time>2023-01-25T13:08:18Z</time>
      </trkpt>
      <trkpt lat="49.95204" lon="2.36321">
        <ele>89.1</ele>
        <time>2023-01-25T13:08:19Z</time>
      </trkpt>
      <trkpt lat="49.95206" lon="2.36325">
        <ele>89.1</ele>
        <time>2023-01-25T13:08:20Z</time>
      </trkpt>
      <trkpt lat="49.95206" lon="2.36326">
        <ele>89.1</ele>
        <time>2023-01-25T13:08:22Z</time>
      </trkpt>
      <trkpt lat="49.95206" lon="2.36328">
        <ele>89.1</ele>
        <time>2023-01-25T13:08:23Z</time>
      </trkpt>
      <trkpt lat="49.95206" lon="2.3633">
        <ele>89.1</ele>
        <time>2023-01-25T13:08:24Z</time>
      </trkpt>
      <trkpt lat="49.95205" lon="2.36333">
        <ele>89.1</ele>
        <time>2023-01-25T13:08:25Z</time>
      </trkpt>
      <trkpt lat="49.95205" lon="2.36334">
        <ele>89.1</ele>
        <time>2023-01-25T13:08:26Z</time>
      </trkpt>
      <trkpt lat="49.95205" lon="2.36336">
        <ele>89.1</ele>
        <time>2023-01-25T13:08:27Z</time>
      </trkpt>
      <trkpt lat="49.95205" lon="2.36339">
        <ele>89.1</ele>
        <time>2023-01-25T13:08:28Z</time>
      </trkpt>
      <trkpt lat="49.95205" lon="2.3634">
        <ele>89.1</ele>
        <time>2023-01-25T13:08:30Z</time>
      </trkpt>
      <trkpt lat="49.95205" lon="2.36341">
        <ele>89.1</ele>
        <time>2023-01-25T13:08:31Z</time>
      </trkpt>
      <trkpt lat="49.95206" lon="2.36343">
        <ele>89.1</ele>
        <time>2023-01-25T13:08:32Z</time>
      </trkpt>
      <trkpt lat="49.95207" lon="2.36345">
        <ele>89.1</ele>
        <time>2023-01-25T13:08:33Z</time>
      </trkpt>
      <trkpt lat="49.95208" lon="2.36348">
        <ele>89.2</ele>
        <time>2023-01-25T13:08:34Z</time>
      </trkpt>
      <trkpt lat="49.95209" lon="2.36349">
        <ele>89.2</ele>
        <time>2023-01-25T13:08:35Z</time>
      </trkpt>
      <trkpt lat="49.95209" lon="2.36351">
        <ele>89.2</ele>
        <time>2023-01-25T13:08:36Z</time>
      </trkpt>
      <trkpt lat="49.9521" lon="2.36353">
        <ele>89.2</ele>
        <time>2023-01-25T13:08:37Z</time>
      </trkpt>
      <trkpt lat="49.95211" lon="2.36356">
        <ele>89.2</ele>
        <time>2023-01-25T13:08:38Z</time>
      </trkpt>
      <trkpt lat="49.95212" lon="2.36358">
        <ele>89.2</ele>
        <time>2023-01-25T13:08:40Z</time>
      </trkpt>
      <trkpt lat="49.95213" lon="2.3636">
        <ele>89.3</ele>
        <time>2023-01-25T13:08:41Z</time>
      </trkpt>
      <trkpt lat="49.95213" lon="2.36362">
        <ele>89.3</ele>
        <time>2023-01-25T13:08:42Z</time>
      </trkpt>
      <trkpt lat="49.95214" lon="2.36363">
        <ele>89.3</ele>
        <time>2023-01-25T13:08:43Z</time>
      </trkpt>
      <trkpt lat="49.95215" lon="2.36365">
        <ele>89.3</ele>
        <time>2023-01-25T13:08:44Z</time>
      </trkpt>
      <trkpt lat="49.95216" lon="2.36367">
        <ele>89.3</ele>
        <time>2023-01-25T13:08:45Z</time>
      </trkpt>
      <trkpt lat="49.95216" lon="2.36369">
        <ele>89.3</ele>
        <time>2023-01-25T13:08:47Z</time>
      </trkpt>
      <trkpt lat="49.95217" lon="2.36371">
        <ele>89.3</ele>
        <time>2023-01-25T13:08:48Z</time>
      </trkpt>
      <trkpt lat="49.95218" lon="2.36374">
        <ele>89.4</ele>
        <time>2023-01-25T13:08:49Z</time>
      </trkpt>
      <trkpt lat="49.95218" lon="2.36374">
        <ele>89.4</ele>
        <time>2023-01-25T13:08:50Z</time>
      </trkpt>
      <trkpt lat="49.95219" lon="2.36376">
        <ele>89.4</ele>
        <time>2023-01-25T13:08:51Z</time>
      </trkpt>
      <trkpt lat="49.9522" lon="2.36377">
        <ele>89.4</ele>
        <time>2023-01-25T13:08:52Z</time>
      </trkpt>
      <trkpt lat="49.95221" lon="2.36379">
        <ele>89.4</ele>
        <time>2023-01-25T13:08:53Z</time>
      </trkpt>
      <trkpt lat="49.95222" lon="2.3638">
        <ele>89.4</ele>
        <time>2023-01-25T13:08:55Z</time>
      </trkpt>
      <trkpt lat="49.95222" lon="2.36381">
        <ele>89.4</ele>
        <time>2023-01-25T13:08:56Z</time>
      </trkpt>
      <trkpt lat="49.95223" lon="2.36383">
        <ele>89.4</ele>
        <time>2023-01-25T13:08:57Z</time>
      </trkpt>
      <trkpt lat="49.95224" lon="2.36385">
        <ele>89.5</ele>
        <time>2023-01-25T13:08:58Z</time>
      </trkpt>
      <trkpt lat="49.95226" lon="2.36387">
        <ele>89.5</ele>
        <time>2023-01-25T13:08:59Z</time>
      </trkpt>
      <trkpt lat="49.95226" lon="2.36388">
        <ele>89.5</ele>
        <time>2023-01-25T13:09:00Z</time>
      </trkpt>
      <trkpt lat="49.95226" lon="2.36389">
        <ele>89.5</ele>
        <time>2023-01-25T13:09:01Z</time>
      </trkpt>
      <trkpt lat="49.95227" lon="2.36391">
        <ele>89.5</ele>
        <time>2023-01-25T13:09:03Z</time>
      </trkpt>
      <trkpt lat="49.95227" lon="2.36393">
        <ele>89.5</ele>
        <time>2023-01-25T13:09:04Z</time>
      </trkpt>
      <trkpt lat="49.95228" lon="2.36395">
        <ele>89.6</ele>
        <time>2023-01-25T13:09:05Z</time>
      </trkpt>
      <trkpt lat="49.95228" lon="2.36397">
        <ele>89.6</ele>
        <time>2023-01-25T13:09:06Z</time>
      </trkpt>
      <trkpt lat="49.95229" lon="2.36401">
        <ele>89.6</ele>
        <time>2023-01-25T13:09:07Z</time>
      </trkpt>
      <trkpt lat="49.95229" lon="2.36403">
        <ele>89.7</ele>
        <time>2023-01-25T13:09:08Z</time>
      </trkpt>
      <trkpt lat="49.9523" lon="2.36405">
        <ele>89.7</ele>
        <time>2023-01-25T13:09:09Z</time>
      </trkpt>
      <trkpt lat="49.9523" lon="2.36407">
        <ele>89.7</ele>
        <time>2023-01-25T13:09:10Z</time>
      </trkpt>
      <trkpt lat="49.9523" lon="2.36408">
        <ele>89.7</ele>
        <time>2023-01-25T13:09:11Z</time>
      </trkpt>
      <trkpt lat="49.95231" lon="2.36409">
        <ele>89.7</ele>
        <time>2023-01-25T13:09:12Z</time>
      </trkpt>
      <trkpt lat="49.95231" lon="2.36411">
        <ele>89.8</ele>
        <time>2023-01-25T13:09:13Z</time>
      </trkpt>
      <trkpt lat="49.95232" lon="2.36413">
        <ele>89.8</ele>
        <time>2023-01-25T13:09:14Z</time>
      </trkpt>
      <trkpt lat="49.95232" lon="2.36415">
        <ele>89.8</ele>
        <time>2023-01-25T13:09:15Z</time>
      </trkpt>
      <trkpt lat="49.95233" lon="2.36416">
        <ele>89.8</ele>
        <time>2023-01-25T13:09:16Z</time>
      </trkpt>
      <trkpt lat="49.95233" lon="2.36419">
        <ele>89.8</ele>
        <time>2023-01-25T13:09:17Z</time>
      </trkpt>
      <trkpt lat="49.95234" lon="2.36421">
        <ele>89.8</ele>
        <time>2023-01-25T13:09:19Z</time>
      </trkpt>
      <trkpt lat="49.95234" lon="2.36423">
        <ele>89.8</ele>
        <time>2023-01-25T13:09:20Z</time>
      </trkpt>
      <trkpt lat="49.95235" lon="2.36425">
        <ele>89.9</ele>
        <time>2023-01-25T13:09:21Z</time>
      </trkpt>
      <trkpt lat="49.95235" lon="2.36428">
        <ele>89.9</ele>
        <time>2023-01-25T13:09:22Z</time>
      </trkpt>
      <trkpt lat="49.95236" lon="2.36429">
        <ele>89.9</ele>
        <time>2023-01-25T13:09:23Z</time>
      </trkpt>
      <trkpt lat="49.95236" lon="2.36431">
        <ele>89.9</ele>
        <time>2023-01-25T13:09:24Z</time>
      </trkpt>
      <trkpt lat="49.95236" lon="2.36432">
        <ele>89.9</ele>
        <time>2023-01-25T13:09:25Z</time>
      </trkpt>
      <trkpt lat="49.95237" lon="2.36434">
        <ele>89.9</ele>
        <time>2023-01-25T13:09:26Z</time>
      </trkpt>
      <trkpt lat="49.95237" lon="2.36436">
        <ele>90</ele>
        <time>2023-01-25T13:09:28Z</time>
      </trkpt>
      <trkpt lat="49.95239" lon="2.3644">
        <ele>90</ele>
        <time>2023-01-25T13:09:29Z</time>
      </trkpt>
      <trkpt lat="49.95239" lon="2.36441">
        <ele>90</ele>
        <time>2023-01-25T13:09:30Z</time>
      </trkpt>
      <trkpt lat="49.9524" lon="2.36442">
        <ele>90</ele>
        <time>2023-01-25T13:09:31Z</time>
      </trkpt>
      <trkpt lat="49.9524" lon="2.36444">
        <ele>90.1</ele>
        <time>2023-01-25T13:09:32Z</time>
      </trkpt>
      <trkpt lat="49.95241" lon="2.36448">
        <ele>90.1</ele>
        <time>2023-01-25T13:09:33Z</time>
      </trkpt>
      <trkpt lat="49.95242" lon="2.36449">
        <ele>90.2</ele>
        <time>2023-01-25T13:09:35Z</time>
      </trkpt>
      <trkpt lat="49.95242" lon="2.36451">
        <ele>90.2</ele>
        <time>2023-01-25T13:09:36Z</time>
      </trkpt>
      <trkpt lat="49.95242" lon="2.36453">
        <ele>90.2</ele>
        <time>2023-01-25T13:09:37Z</time>
      </trkpt>
      <trkpt lat="49.95243" lon="2.36454">
        <ele>90.2</ele>
        <time>2023-01-25T13:09:38Z</time>
      </trkpt>
      <trkpt lat="49.95243" lon="2.36457">
        <ele>90.3</ele>
        <time>2023-01-25T13:09:39Z</time>
      </trkpt>
      <trkpt lat="49.95243" lon="2.36459">
        <ele>90.3</ele>
        <time>2023-01-25T13:09:40Z</time>
      </trkpt>
      <trkpt lat="49.95243" lon="2.36461">
        <ele>90.3</ele>
        <time>2023-01-25T13:09:42Z</time>
      </trkpt>
      <trkpt lat="49.95244" lon="2.36463">
        <ele>90.4</ele>
        <time>2023-01-25T13:09:43Z</time>
      </trkpt>
      <trkpt lat="49.95245" lon="2.36466">
        <ele>90.4</ele>
        <time>2023-01-25T13:09:44Z</time>
      </trkpt>
      <trkpt lat="49.95245" lon="2.36467">
        <ele>90.5</ele>
        <time>2023-01-25T13:09:45Z</time>
      </trkpt>
      <trkpt lat="49.95245" lon="2.36469">
        <ele>90.5</ele>
        <time>2023-01-25T13:09:46Z</time>
      </trkpt>
      <trkpt lat="49.95246" lon="2.3647">
        <ele>90.5</ele>
        <time>2023-01-25T13:09:47Z</time>
      </trkpt>
      <trkpt lat="49.95246" lon="2.36472">
        <ele>90.6</ele>
        <time>2023-01-25T13:09:48Z</time>
      </trkpt>
      <trkpt lat="49.95246" lon="2.36477">
        <ele>90.7</ele>
        <time>2023-01-25T13:09:49Z</time>
      </trkpt>
      <trkpt lat="49.95246" lon="2.36478">
        <ele>90.7</ele>
        <time>2023-01-25T13:09:51Z</time>
      </trkpt>
      <trkpt lat="49.95246" lon="2.3648">
        <ele>90.7</ele>
        <time>2023-01-25T13:09:52Z</time>
      </trkpt>
      <trkpt lat="49.95245" lon="2.36482">
        <ele>90.8</ele>
        <time>2023-01-25T13:09:53Z</time>
      </trkpt>
      <trkpt lat="49.95245" lon="2.36483">
        <ele>90.8</ele>
        <time>2023-01-25T13:09:54Z</time>
      </trkpt>
      <trkpt lat="49.95245" lon="2.36485">
        <ele>90.8</ele>
        <time>2023-01-25T13:09:56Z</time>
      </trkpt>
      <trkpt lat="49.95245" lon="2.36487">
        <ele>90.9</ele>
        <time>2023-01-25T13:09:57Z</time>
      </trkpt>
      <trkpt lat="49.95245" lon="2.36489">
        <ele>90.9</ele>
        <time>2023-01-25T13:09:58Z</time>
      </trkpt>
      <trkpt lat="49.95245" lon="2.3649">
        <ele>90.9</ele>
        <time>2023-01-25T13:09:59Z</time>
      </trkpt>
      <trkpt lat="49.95246" lon="2.36493">
        <ele>91</ele>
        <time>2023-01-25T13:10:00Z</time>
      </trkpt>
      <trkpt lat="49.95246" lon="2.36494">
        <ele>91</ele>
        <time>2023-01-25T13:10:01Z</time>
      </trkpt>
      <trkpt lat="49.95247" lon="2.36496">
        <ele>91.1</ele>
        <time>2023-01-25T13:10:02Z</time>
      </trkpt>
      <trkpt lat="49.95247" lon="2.36498">
        <ele>91.1</ele>
        <time>2023-01-25T13:10:04Z</time>
      </trkpt>
      <trkpt lat="49.95247" lon="2.365">
        <ele>91.2</ele>
        <time>2023-01-25T13:10:05Z</time>
      </trkpt>
      <trkpt lat="49.95247" lon="2.36502">
        <ele>91.2</ele>
        <time>2023-01-25T13:10:06Z</time>
      </trkpt>
      <trkpt lat="49.95247" lon="2.36504">
        <ele>91.3</ele>
        <time>2023-01-25T13:10:07Z</time>
      </trkpt>
      <trkpt lat="49.95247" lon="2.36505">
        <ele>91.3</ele>
        <time>2023-01-25T13:10:08Z</time>
      </trkpt>
      <trkpt lat="49.95248" lon="2.36508">
        <ele>91.4</ele>
        <time>2023-01-25T13:10:09Z</time>
      </trkpt>
      <trkpt lat="49.95248" lon="2.36509">
        <ele>91.4</ele>
        <time>2023-01-25T13:10:10Z</time>
      </trkpt>
      <trkpt lat="49.95249" lon="2.3651">
        <ele>91.4</ele>
        <time>2023-01-25T13:10:11Z</time>
      </trkpt>
      <trkpt lat="49.95249" lon="2.36512">
        <ele>91.5</ele>
        <time>2023-01-25T13:10:12Z</time>
      </trkpt>
      <trkpt lat="49.9525" lon="2.36514">
        <ele>91.5</ele>
        <time>2023-01-25T13:10:14Z</time>
      </trkpt>
      <trkpt lat="49.95251" lon="2.36516">
        <ele>91.6</ele>
        <time>2023-01-25T13:10:15Z</time>
      </trkpt>
      <trkpt lat="49.95251" lon="2.36518">
        <ele>91.6</ele>
        <time>2023-01-25T13:10:16Z</time>
      </trkpt>
      <trkpt lat="49.95252" lon="2.36519">
        <ele>91.7</ele>
        <time>2023-01-25T13:10:17Z</time>
      </trkpt>
      <trkpt lat="49.95253" lon="2.36521">
        <ele>91.7</ele>
        <time>2023-01-25T13:10:18Z</time>
      </trkpt>
      <trkpt lat="49.95253" lon="2.36523">
        <ele>91.7</ele>
        <time>2023-01-25T13:10:19Z</time>
      </trkpt>
      <trkpt lat="49.95254" lon="2.36524">
        <ele>91.8</ele>
        <time>2023-01-25T13:10:20Z</time>
      </trkpt>
      <trkpt lat="49.95254" lon="2.36525">
        <ele>91.8</ele>
        <time>2023-01-25T13:10:21Z</time>
      </trkpt>
      <trkpt lat="49.95255" lon="2.36526">
        <ele>91.8</ele>
        <time>2023-01-25T13:10:23Z</time>
      </trkpt>
      <trkpt lat="49.95255" lon="2.36528">
        <ele>91.9</ele>
        <time>2023-01-25T13:10:24Z</time>
      </trkpt>
      <trkpt lat="49.95256" lon="2.36529">
        <ele>91.9</ele>
        <time>2023-01-25T13:10:25Z</time>
      </trkpt>
      <trkpt lat="49.95256" lon="2.3653">
        <ele>91.9</ele>
        <time>2023-01-25T13:10:26Z</time>
      </trkpt>
      <trkpt lat="49.95256" lon="2.36532">
        <ele>92</ele>
        <time>2023-01-25T13:10:27Z</time>
      </trkpt>
      <trkpt lat="49.95256" lon="2.36533">
        <ele>92</ele>
        <time>2023-01-25T13:10:28Z</time>
      </trkpt>
      <trkpt lat="49.95256" lon="2.36534">
        <ele>92</ele>
        <time>2023-01-25T13:10:29Z</time>
      </trkpt>
      <trkpt lat="49.95256" lon="2.36536">
        <ele>92</ele>
        <time>2023-01-25T13:10:31Z</time>
      </trkpt>
      <trkpt lat="49.95257" lon="2.36537">
        <ele>92.1</ele>
        <time>2023-01-25T13:10:32Z</time>
      </trkpt>
      <trkpt lat="49.95257" lon="2.36538">
        <ele>92.1</ele>
        <time>2023-01-25T13:10:33Z</time>
      </trkpt>
      <trkpt lat="49.95257" lon="2.3654">
        <ele>92.1</ele>
        <time>2023-01-25T13:10:34Z</time>
      </trkpt>
      <trkpt lat="49.95258" lon="2.36542">
        <ele>92.2</ele>
        <time>2023-01-25T13:10:35Z</time>
      </trkpt>
      <trkpt lat="49.95258" lon="2.36543">
        <ele>92.2</ele>
        <time>2023-01-25T13:10:36Z</time>
      </trkpt>
      <trkpt lat="49.95259" lon="2.36546">
        <ele>92.3</ele>
        <time>2023-01-25T13:10:37Z</time>
      </trkpt>
      <trkpt lat="49.9526" lon="2.36547">
        <ele>92.3</ele>
        <time>2023-01-25T13:10:38Z</time>
      </trkpt>
      <trkpt lat="49.9526" lon="2.36549">
        <ele>92.4</ele>
        <time>2023-01-25T13:10:39Z</time>
      </trkpt>
      <trkpt lat="49.9526" lon="2.3655">
        <ele>92.4</ele>
        <time>2023-01-25T13:10:41Z</time>
      </trkpt>
      <trkpt lat="49.95261" lon="2.36551">
        <ele>92.5</ele>
        <time>2023-01-25T13:10:42Z</time>
      </trkpt>
      <trkpt lat="49.95262" lon="2.36553">
        <ele>92.5</ele>
        <time>2023-01-25T13:10:43Z</time>
      </trkpt>
      <trkpt lat="49.95262" lon="2.36555">
        <ele>92.6</ele>
        <time>2023-01-25T13:10:44Z</time>
      </trkpt>
      <trkpt lat="49.95263" lon="2.36557">
        <ele>92.7</ele>
        <time>2023-01-25T13:10:45Z</time>
      </trkpt>
      <trkpt lat="49.95264" lon="2.36558">
        <ele>92.7</ele>
        <time>2023-01-25T13:10:46Z</time>
      </trkpt>
      <trkpt lat="49.95264" lon="2.3656">
        <ele>92.8</ele>
        <time>2023-01-25T13:10:47Z</time>
      </trkpt>
      <trkpt lat="49.95265" lon="2.36561">
        <ele>92.8</ele>
        <time>2023-01-25T13:10:49Z</time>
      </trkpt>
      <trkpt lat="49.95266" lon="2.36563">
        <ele>92.9</ele>
        <time>2023-01-25T13:10:50Z</time>
      </trkpt>
      <trkpt lat="49.95267" lon="2.36565">
        <ele>93</ele>
        <time>2023-01-25T13:10:51Z</time>
      </trkpt>
      <trkpt lat="49.95267" lon="2.36566">
        <ele>93</ele>
        <time>2023-01-25T13:10:52Z</time>
      </trkpt>
      <trkpt lat="49.95268" lon="2.36567">
        <ele>93.1</ele>
        <time>2023-01-25T13:10:53Z</time>
      </trkpt>
      <trkpt lat="49.95269" lon="2.36569">
        <ele>93.1</ele>
        <time>2023-01-25T13:10:54Z</time>
      </trkpt>
      <trkpt lat="49.95269" lon="2.3657">
        <ele>93.2</ele>
        <time>2023-01-25T13:10:55Z</time>
      </trkpt>
      <trkpt lat="49.9527" lon="2.36571">
        <ele>93.2</ele>
        <time>2023-01-25T13:10:56Z</time>
      </trkpt>
      <trkpt lat="49.95271" lon="2.36573">
        <ele>93.3</ele>
        <time>2023-01-25T13:10:58Z</time>
      </trkpt>
      <trkpt lat="49.95272" lon="2.36575">
        <ele>93.3</ele>
        <time>2023-01-25T13:10:59Z</time>
      </trkpt>
      <trkpt lat="49.95272" lon="2.36577">
        <ele>93.4</ele>
        <time>2023-01-25T13:11:00Z</time>
      </trkpt>
      <trkpt lat="49.95273" lon="2.3658">
        <ele>93.5</ele>
        <time>2023-01-25T13:11:01Z</time>
      </trkpt>
      <trkpt lat="49.95274" lon="2.36581">
        <ele>93.5</ele>
        <time>2023-01-25T13:11:02Z</time>
      </trkpt>
      <trkpt lat="49.95274" lon="2.36582">
        <ele>93.6</ele>
        <time>2023-01-25T13:11:03Z</time>
      </trkpt>
      <trkpt lat="49.95275" lon="2.36584">
        <ele>93.6</ele>
        <time>2023-01-25T13:11:04Z</time>
      </trkpt>
      <trkpt lat="49.95275" lon="2.36586">
        <ele>93.7</ele>
        <time>2023-01-25T13:11:05Z</time>
      </trkpt>
      <trkpt lat="49.95275" lon="2.36588">
        <ele>93.8</ele>
        <time>2023-01-25T13:11:07Z</time>
      </trkpt>
      <trkpt lat="49.95276" lon="2.3659">
        <ele>93.8</ele>
        <time>2023-01-25T13:11:08Z</time>
      </trkpt>
      <trkpt lat="49.95276" lon="2.36592">
        <ele>93.9</ele>
        <time>2023-01-25T13:11:09Z</time>
      </trkpt>
      <trkpt lat="49.95277" lon="2.36594">
        <ele>94</ele>
        <time>2023-01-25T13:11:10Z</time>
      </trkpt>
      <trkpt lat="49.95278" lon="2.36596">
        <ele>94</ele>
        <time>2023-01-25T13:11:11Z</time>
      </trkpt>
      <trkpt lat="49.95278" lon="2.36599">
        <ele>94.1</ele>
        <time>2023-01-25T13:11:12Z</time>
      </trkpt>
      <trkpt lat="49.95279" lon="2.366">
        <ele>94.1</ele>
        <time>2023-01-25T13:11:13Z</time>
      </trkpt>
      <trkpt lat="49.95279" lon="2.36601">
        <ele>94.2</ele>
        <time>2023-01-25T13:11:14Z</time>
      </trkpt>
      <trkpt lat="49.95279" lon="2.36603">
        <ele>94.2</ele>
        <time>2023-01-25T13:11:15Z</time>
      </trkpt>
      <trkpt lat="49.9528" lon="2.36605">
        <ele>94.3</ele>
        <time>2023-01-25T13:11:16Z</time>
      </trkpt>
      <trkpt lat="49.95281" lon="2.36608">
        <ele>94.4</ele>
        <time>2023-01-25T13:11:18Z</time>
      </trkpt>
      <trkpt lat="49.95282" lon="2.36609">
        <ele>94.4</ele>
        <time>2023-01-25T13:11:19Z</time>
      </trkpt>
      <trkpt lat="49.95282" lon="2.3661">
        <ele>94.5</ele>
        <time>2023-01-25T13:11:20Z</time>
      </trkpt>
      <trkpt lat="49.95283" lon="2.36611">
        <ele>94.5</ele>
        <time>2023-01-25T13:11:21Z</time>
      </trkpt>
      <trkpt lat="49.95284" lon="2.36613">
        <ele>94.6</ele>
        <time>2023-01-25T13:11:22Z</time>
      </trkpt>
      <trkpt lat="49.95284" lon="2.36614">
        <ele>94.6</ele>
        <time>2023-01-25T13:11:23Z</time>
      </trkpt>
      <trkpt lat="49.95285" lon="2.36616">
        <ele>94.7</ele>
        <time>2023-01-25T13:11:24Z</time>
      </trkpt>
      <trkpt lat="49.95286" lon="2.36617">
        <ele>94.8</ele>
        <time>2023-01-25T13:11:25Z</time>
      </trkpt>
      <trkpt lat="49.95286" lon="2.36618">
        <ele>94.8</ele>
        <time>2023-01-25T13:11:27Z</time>
      </trkpt>
      <trkpt lat="49.95287" lon="2.36619">
        <ele>94.9</ele>
        <time>2023-01-25T13:11:28Z</time>
      </trkpt>
      <trkpt lat="49.95288" lon="2.36618">
        <ele>94.9</ele>
        <time>2023-01-25T13:11:29Z</time>
      </trkpt>
      <trkpt lat="49.95288" lon="2.36618">
        <ele>94.9</ele>
        <time>2023-01-25T13:11:31Z</time>
      </trkpt>
      <trkpt lat="49.95289" lon="2.36619">
        <ele>95</ele>
        <time>2023-01-25T13:11:32Z</time>
      </trkpt>
      <trkpt lat="49.9529" lon="2.3662">
        <ele>95</ele>
        <time>2023-01-25T13:11:33Z</time>
      </trkpt>
      <trkpt lat="49.9529" lon="2.36621">
        <ele>95</ele>
        <time>2023-01-25T13:11:34Z</time>
      </trkpt>
      <trkpt lat="49.95291" lon="2.36623">
        <ele>95.1</ele>
        <time>2023-01-25T13:11:35Z</time>
      </trkpt>
      <trkpt lat="49.95291" lon="2.36623">
        <ele>95.1</ele>
        <time>2023-01-25T13:11:36Z</time>
      </trkpt>
      <trkpt lat="49.95291" lon="2.36625">
        <ele>95.2</ele>
        <time>2023-01-25T13:11:37Z</time>
      </trkpt>
      <trkpt lat="49.95291" lon="2.36627">
        <ele>95.3</ele>
        <time>2023-01-25T13:11:38Z</time>
      </trkpt>
      <trkpt lat="49.95291" lon="2.3663">
        <ele>95.4</ele>
        <time>2023-01-25T13:11:39Z</time>
      </trkpt>
      <trkpt lat="49.95291" lon="2.36632">
        <ele>95.4</ele>
        <time>2023-01-25T13:11:41Z</time>
      </trkpt>
      <trkpt lat="49.9529" lon="2.36634">
        <ele>95.5</ele>
        <time>2023-01-25T13:11:42Z</time>
      </trkpt>
      <trkpt lat="49.95291" lon="2.36635">
        <ele>95.6</ele>
        <time>2023-01-25T13:11:43Z</time>
      </trkpt>
      <trkpt lat="49.95291" lon="2.36637">
        <ele>95.6</ele>
        <time>2023-01-25T13:11:44Z</time>
      </trkpt>
      <trkpt lat="49.95292" lon="2.36639">
        <ele>95.7</ele>
        <time>2023-01-25T13:11:45Z</time>
      </trkpt>
      <trkpt lat="49.95292" lon="2.3664">
        <ele>95.7</ele>
        <time>2023-01-25T13:11:46Z</time>
      </trkpt>
      <trkpt lat="49.95292" lon="2.36642">
        <ele>95.8</ele>
        <time>2023-01-25T13:11:48Z</time>
      </trkpt>
      <trkpt lat="49.95292" lon="2.36644">
        <ele>95.8</ele>
        <time>2023-01-25T13:11:49Z</time>
      </trkpt>
      <trkpt lat="49.95291" lon="2.36645">
        <ele>95.8</ele>
        <time>2023-01-25T13:11:50Z</time>
      </trkpt>
      <trkpt lat="49.9529" lon="2.36645">
        <ele>95.8</ele>
        <time>2023-01-25T13:11:52Z</time>
      </trkpt>
      <trkpt lat="49.9529" lon="2.36644">
        <ele>95.8</ele>
        <time>2023-01-25T13:11:53Z</time>
      </trkpt>
      <trkpt lat="49.95289" lon="2.36643">
        <ele>95.8</ele>
        <time>2023-01-25T13:11:54Z</time>
      </trkpt>
      <trkpt lat="49.95289" lon="2.36643">
        <ele>95.8</ele>
        <time>2023-01-25T13:11:56Z</time>
      </trkpt>
      <trkpt lat="49.95288" lon="2.36643">
        <ele>95.8</ele>
        <time>2023-01-25T13:11:58Z</time>
      </trkpt>
      <trkpt lat="49.95288" lon="2.36643">
        <ele>95.8</ele>
        <time>2023-01-25T13:11:59Z</time>
      </trkpt>
      <trkpt lat="49.95288" lon="2.36643">
        <ele>95.8</ele>
        <time>2023-01-25T13:12:00Z</time>
      </trkpt>
      <trkpt lat="49.95288" lon="2.36643">
        <ele>95.8</ele>
        <time>2023-01-25T13:12:02Z</time>
      </trkpt>
      <trkpt lat="49.95288" lon="2.36643">
        <ele>95.8</ele>
        <time>2023-01-25T13:12:03Z</time>
      </trkpt>
      <trkpt lat="49.95288" lon="2.36643">
        <ele>95.8</ele>
        <time>2023-01-25T13:12:04Z</time>
      </trkpt>
      <trkpt lat="49.95288" lon="2.36643">
        <ele>95.8</ele>
        <time>2023-01-25T13:12:06Z</time>
      </trkpt>
      <trkpt lat="49.95288" lon="2.36643">
        <ele>95.8</ele>
        <time>2023-01-25T13:12:07Z</time>
      </trkpt>
      <trkpt lat="49.95288" lon="2.36643">
        <ele>95.8</ele>
        <time>2023-01-25T13:12:08Z</time>
      </trkpt>
      <trkpt lat="49.95288" lon="2.36641">
        <ele>95.8</ele>
        <time>2023-01-25T13:12:09Z</time>
      </trkpt>
      <trkpt lat="49.95288" lon="2.3664">
        <ele>95.8</ele>
        <time>2023-01-25T13:12:10Z</time>
      </trkpt>
      <trkpt lat="49.95288" lon="2.3664">
        <ele>95.8</ele>
        <time>2023-01-25T13:12:11Z</time>
      </trkpt>
      <trkpt lat="49.95288" lon="2.3664">
        <ele>95.8</ele>
        <time>2023-01-25T13:12:12Z</time>
      </trkpt>
      <trkpt lat="49.95288" lon="2.36642">
        <ele>95.9</ele>
        <time>2023-01-25T13:12:14Z</time>
      </trkpt>
      <trkpt lat="49.95288" lon="2.36643">
        <ele>95.9</ele>
        <time>2023-01-25T13:12:15Z</time>
      </trkpt>
      <trkpt lat="49.95289" lon="2.36643">
        <ele>95.9</ele>
        <time>2023-01-25T13:12:16Z</time>
      </trkpt>
      <trkpt lat="49.95289" lon="2.36644">
        <ele>95.9</ele>
        <time>2023-01-25T13:12:17Z</time>
      </trkpt>
      <trkpt lat="49.9529" lon="2.36644">
        <ele>95.9</ele>
        <time>2023-01-25T13:12:18Z</time>
      </trkpt>
      <trkpt lat="49.9529" lon="2.36644">
        <ele>95.9</ele>
        <time>2023-01-25T13:12:19Z</time>
      </trkpt>
      <trkpt lat="49.95291" lon="2.36645">
        <ele>95.9</ele>
        <time>2023-01-25T13:12:21Z</time>
      </trkpt>
      <trkpt lat="49.95292" lon="2.36646">
        <ele>95.9</ele>
        <time>2023-01-25T13:12:22Z</time>
      </trkpt>
      <trkpt lat="49.95292" lon="2.36646">
        <ele>95.9</ele>
        <time>2023-01-25T13:12:23Z</time>
      </trkpt>
      <trkpt lat="49.95292" lon="2.36647">
        <ele>96</ele>
        <time>2023-01-25T13:12:24Z</time>
      </trkpt>
      <trkpt lat="49.95293" lon="2.36648">
        <ele>96</ele>
        <time>2023-01-25T13:12:26Z</time>
      </trkpt>
      <trkpt lat="49.95293" lon="2.36648">
        <ele>96</ele>
        <time>2023-01-25T13:12:27Z</time>
      </trkpt>
      <trkpt lat="49.95294" lon="2.36648">
        <ele>96</ele>
        <time>2023-01-25T13:12:29Z</time>
      </trkpt>
      <trkpt lat="49.95294" lon="2.36648">
        <ele>96</ele>
        <time>2023-01-25T13:12:30Z</time>
      </trkpt>
      <trkpt lat="49.95294" lon="2.36647">
        <ele>96</ele>
        <time>2023-01-25T13:12:31Z</time>
      </trkpt>
      <trkpt lat="49.95293" lon="2.36647">
        <ele>96</ele>
        <time>2023-01-25T13:12:33Z</time>
      </trkpt>
      <trkpt lat="49.95293" lon="2.36647">
        <ele>96</ele>
        <time>2023-01-25T13:12:34Z</time>
      </trkpt>
      <trkpt lat="49.95293" lon="2.36647">
        <ele>96</ele>
        <time>2023-01-25T13:12:36Z</time>
      </trkpt>
      <trkpt lat="49.95293" lon="2.36647">
        <ele>96</ele>
        <time>2023-01-25T13:12:37Z</time>
      </trkpt>
      <trkpt lat="49.95293" lon="2.36647">
        <ele>96</ele>
        <time>2023-01-25T13:12:38Z</time>
      </trkpt>
      <trkpt lat="49.95293" lon="2.36647">
        <ele>96</ele>
        <time>2023-01-25T13:12:40Z</time>
      </trkpt>
      <trkpt lat="49.95293" lon="2.36647">
        <ele>96</ele>
        <time>2023-01-25T13:12:41Z</time>
      </trkpt>
      <trkpt lat="49.95293" lon="2.36647">
        <ele>96</ele>
        <time>2023-01-25T13:12:42Z</time>
      </trkpt>
      <trkpt lat="49.95293" lon="2.36648">
        <ele>96</ele>
        <time>2023-01-25T13:12:43Z</time>
      </trkpt>
      <trkpt lat="49.95293" lon="2.36648">
        <ele>96</ele>
        <time>2023-01-25T13:12:44Z</time>
      </trkpt>
      <trkpt lat="49.95294" lon="2.3665">
        <ele>96.1</ele>
        <time>2023-01-25T13:12:45Z</time>
      </trkpt>
      <trkpt lat="49.95295" lon="2.3665">
        <ele>96.1</ele>
        <time>2023-01-25T13:12:46Z</time>
      </trkpt>
      <trkpt lat="49.95295" lon="2.36652">
        <ele>96.1</ele>
        <time>2023-01-25T13:12:48Z</time>
      </trkpt>
      <trkpt lat="49.95296" lon="2.36653">
        <ele>96.2</ele>
        <time>2023-01-25T13:12:49Z</time>
      </trkpt>
      <trkpt lat="49.95298" lon="2.36655">
        <ele>96.2</ele>
        <time>2023-01-25T13:12:50Z</time>
      </trkpt>
      <trkpt lat="49.95299" lon="2.36658">
        <ele>96.3</ele>
        <time>2023-01-25T13:12:51Z</time>
      </trkpt>
      <trkpt lat="49.953" lon="2.36659">
        <ele>96.3</ele>
        <time>2023-01-25T13:12:52Z</time>
      </trkpt>
      <trkpt lat="49.95301" lon="2.36661">
        <ele>96.4</ele>
        <time>2023-01-25T13:12:53Z</time>
      </trkpt>
      <trkpt lat="49.95302" lon="2.36662">
        <ele>96.4</ele>
        <time>2023-01-25T13:12:54Z</time>
      </trkpt>
      <trkpt lat="49.95303" lon="2.36664">
        <ele>96.4</ele>
        <time>2023-01-25T13:12:56Z</time>
      </trkpt>
      <trkpt lat="49.95304" lon="2.36666">
        <ele>96.5</ele>
        <time>2023-01-25T13:12:57Z</time>
      </trkpt>
      <trkpt lat="49.95305" lon="2.36667">
        <ele>96.5</ele>
        <time>2023-01-25T13:12:58Z</time>
      </trkpt>
      <trkpt lat="49.95306" lon="2.36669">
        <ele>96.6</ele>
        <time>2023-01-25T13:12:59Z</time>
      </trkpt>
      <trkpt lat="49.95307" lon="2.3667">
        <ele>96.6</ele>
        <time>2023-01-25T13:13:01Z</time>
      </trkpt>
      <trkpt lat="49.95307" lon="2.36671">
        <ele>96.6</ele>
        <time>2023-01-25T13:13:02Z</time>
      </trkpt>
      <trkpt lat="49.95309" lon="2.36673">
        <ele>96.7</ele>
        <time>2023-01-25T13:13:03Z</time>
      </trkpt>
      <trkpt lat="49.9531" lon="2.36674">
        <ele>96.7</ele>
        <time>2023-01-25T13:13:04Z</time>
      </trkpt>
      <trkpt lat="49.9531" lon="2.36675">
        <ele>96.7</ele>
        <time>2023-01-25T13:13:05Z</time>
      </trkpt>
      <trkpt lat="49.95311" lon="2.36676">
        <ele>96.8</ele>
        <time>2023-01-25T13:13:06Z</time>
      </trkpt>
      <trkpt lat="49.95311" lon="2.36677">
        <ele>96.8</ele>
        <time>2023-01-25T13:13:07Z</time>
      </trkpt>
      <trkpt lat="49.95312" lon="2.36678">
        <ele>96.8</ele>
        <time>2023-01-25T13:13:08Z</time>
      </trkpt>
      <trkpt lat="49.95313" lon="2.36679">
        <ele>96.9</ele>
        <time>2023-01-25T13:13:10Z</time>
      </trkpt>
      <trkpt lat="49.95314" lon="2.36681">
        <ele>96.9</ele>
        <time>2023-01-25T13:13:11Z</time>
      </trkpt>
      <trkpt lat="49.95315" lon="2.36683">
        <ele>96.9</ele>
        <time>2023-01-25T13:13:12Z</time>
      </trkpt>
      <trkpt lat="49.95316" lon="2.36685">
        <ele>97</ele>
        <time>2023-01-25T13:13:13Z</time>
      </trkpt>
      <trkpt lat="49.95319" lon="2.36688">
        <ele>97.1</ele>
        <time>2023-01-25T13:13:14Z</time>
      </trkpt>
      <trkpt lat="49.95319" lon="2.36689">
        <ele>97.1</ele>
        <time>2023-01-25T13:13:15Z</time>
      </trkpt>
      <trkpt lat="49.95321" lon="2.36692">
        <ele>97.2</ele>
        <time>2023-01-25T13:13:16Z</time>
      </trkpt>
      <trkpt lat="49.95322" lon="2.36693">
        <ele>97.3</ele>
        <time>2023-01-25T13:13:17Z</time>
      </trkpt>
      <trkpt lat="49.95323" lon="2.36694">
        <ele>97.3</ele>
        <time>2023-01-25T13:13:19Z</time>
      </trkpt>
      <trkpt lat="49.95324" lon="2.36696">
        <ele>97.4</ele>
        <time>2023-01-25T13:13:20Z</time>
      </trkpt>
      <trkpt lat="49.95326" lon="2.36698">
        <ele>97.5</ele>
        <time>2023-01-25T13:13:21Z</time>
      </trkpt>
      <trkpt lat="49.95326" lon="2.36699">
        <ele>97.5</ele>
        <time>2023-01-25T13:13:22Z</time>
      </trkpt>
      <trkpt lat="49.95328" lon="2.36701">
        <ele>97.6</ele>
        <time>2023-01-25T13:13:23Z</time>
      </trkpt>
      <trkpt lat="49.95329" lon="2.36701">
        <ele>97.6</ele>
        <time>2023-01-25T13:13:24Z</time>
      </trkpt>
      <trkpt lat="49.9533" lon="2.36702">
        <ele>97.7</ele>
        <time>2023-01-25T13:13:25Z</time>
      </trkpt>
      <trkpt lat="49.95331" lon="2.36703">
        <ele>97.8</ele>
        <time>2023-01-25T13:13:27Z</time>
      </trkpt>
      <trkpt lat="49.95332" lon="2.36704">
        <ele>97.8</ele>
        <time>2023-01-25T13:13:28Z</time>
      </trkpt>
      <trkpt lat="49.95334" lon="2.36706">
        <ele>97.9</ele>
        <time>2023-01-25T13:13:29Z</time>
      </trkpt>
      <trkpt lat="49.95335" lon="2.36706">
        <ele>97.9</ele>
        <time>2023-01-25T13:13:30Z</time>
      </trkpt>
      <trkpt lat="49.95335" lon="2.36707">
        <ele>98</ele>
        <time>2023-01-25T13:13:31Z</time>
      </trkpt>
      <trkpt lat="49.95336" lon="2.36708">
        <ele>98</ele>
        <time>2023-01-25T13:13:32Z</time>
      </trkpt>
      <trkpt lat="49.95337" lon="2.36709">
        <ele>98</ele>
        <time>2023-01-25T13:13:33Z</time>
      </trkpt>
      <trkpt lat="49.95338" lon="2.3671">
        <ele>98.1</ele>
        <time>2023-01-25T13:13:34Z</time>
      </trkpt>
      <trkpt lat="49.9534" lon="2.36711">
        <ele>98.2</ele>
        <time>2023-01-25T13:13:36Z</time>
      </trkpt>
      <trkpt lat="49.95341" lon="2.36711">
        <ele>98.2</ele>
        <time>2023-01-25T13:13:37Z</time>
      </trkpt>
      <trkpt lat="49.95342" lon="2.36712">
        <ele>98.2</ele>
        <time>2023-01-25T13:13:38Z</time>
      </trkpt>
      <trkpt lat="49.95344" lon="2.36713">
        <ele>98.2</ele>
        <time>2023-01-25T13:13:39Z</time>
      </trkpt>
      <trkpt lat="49.95344" lon="2.36714">
        <ele>98.3</ele>
        <time>2023-01-25T13:13:40Z</time>
      </trkpt>
      <trkpt lat="49.95345" lon="2.36714">
        <ele>98.3</ele>
        <time>2023-01-25T13:13:41Z</time>
      </trkpt>
      <trkpt lat="49.95346" lon="2.36715">
        <ele>98.3</ele>
        <time>2023-01-25T13:13:42Z</time>
      </trkpt>
      <trkpt lat="49.95347" lon="2.36716">
        <ele>98.3</ele>
        <time>2023-01-25T13:13:43Z</time>
      </trkpt>
      <trkpt lat="49.95348" lon="2.36716">
        <ele>98.4</ele>
        <time>2023-01-25T13:13:45Z</time>
      </trkpt>
      <trkpt lat="49.9535" lon="2.36717">
        <ele>98.4</ele>
        <time>2023-01-25T13:13:46Z</time>
      </trkpt>
      <trkpt lat="49.95351" lon="2.36717">
        <ele>98.4</ele>
        <time>2023-01-25T13:13:47Z</time>
      </trkpt>
      <trkpt lat="49.95352" lon="2.36718">
        <ele>98.4</ele>
        <time>2023-01-25T13:13:48Z</time>
      </trkpt>
      <trkpt lat="49.95353" lon="2.36718">
        <ele>98.4</ele>
        <time>2023-01-25T13:13:49Z</time>
      </trkpt>
      <trkpt lat="49.95354" lon="2.36719">
        <ele>98.4</ele>
        <time>2023-01-25T13:13:50Z</time>
      </trkpt>
      <trkpt lat="49.95355" lon="2.3672">
        <ele>98.4</ele>
        <time>2023-01-25T13:13:51Z</time>
      </trkpt>
      <trkpt lat="49.95356" lon="2.36721">
        <ele>98.4</ele>
        <time>2023-01-25T13:13:52Z</time>
      </trkpt>
      <trkpt lat="49.95358" lon="2.36722">
        <ele>98.4</ele>
        <time>2023-01-25T13:13:54Z</time>
      </trkpt>
      <trkpt lat="49.9536" lon="2.36723">
        <ele>98.5</ele>
        <time>2023-01-25T13:13:55Z</time>
      </trkpt>
      <trkpt lat="49.95361" lon="2.36724">
        <ele>98.5</ele>
        <time>2023-01-25T13:13:56Z</time>
      </trkpt>
      <trkpt lat="49.95361" lon="2.36724">
        <ele>98.5</ele>
        <time>2023-01-25T13:13:57Z</time>
      </trkpt>
      <trkpt lat="49.95363" lon="2.36725">
        <ele>98.5</ele>
        <time>2023-01-25T13:13:58Z</time>
      </trkpt>
      <trkpt lat="49.95364" lon="2.36725">
        <ele>98.5</ele>
        <time>2023-01-25T13:13:59Z</time>
      </trkpt>
      <trkpt lat="49.95365" lon="2.36726">
        <ele>98.5</ele>
        <time>2023-01-25T13:14:00Z</time>
      </trkpt>
      <trkpt lat="49.95366" lon="2.36727">
        <ele>98.5</ele>
        <time>2023-01-25T13:14:02Z</time>
      </trkpt>
      <trkpt lat="49.95367" lon="2.36728">
        <ele>98.5</ele>
        <time>2023-01-25T13:14:03Z</time>
      </trkpt>
      <trkpt lat="49.95368" lon="2.36728">
        <ele>98.5</ele>
        <time>2023-01-25T13:14:04Z</time>
      </trkpt>
      <trkpt lat="49.95369" lon="2.36729">
        <ele>98.5</ele>
        <time>2023-01-25T13:14:05Z</time>
      </trkpt>
      <trkpt lat="49.95371" lon="2.3673">
        <ele>98.5</ele>
        <time>2023-01-25T13:14:06Z</time>
      </trkpt>
      <trkpt lat="49.95372" lon="2.36731">
        <ele>98.6</ele>
        <time>2023-01-25T13:14:07Z</time>
      </trkpt>
      <trkpt lat="49.95372" lon="2.36731">
        <ele>98.6</ele>
        <time>2023-01-25T13:14:08Z</time>
      </trkpt>
      <trkpt lat="49.95374" lon="2.36732">
        <ele>98.6</ele>
        <time>2023-01-25T13:14:09Z</time>
      </trkpt>
      <trkpt lat="49.95375" lon="2.36732">
        <ele>98.6</ele>
        <time>2023-01-25T13:14:10Z</time>
      </trkpt>
      <trkpt lat="49.95376" lon="2.36733">
        <ele>98.6</ele>
        <time>2023-01-25T13:14:12Z</time>
      </trkpt>
      <trkpt lat="49.95378" lon="2.36735">
        <ele>98.6</ele>
        <time>2023-01-25T13:14:13Z</time>
      </trkpt>
      <trkpt lat="49.95379" lon="2.36736">
        <ele>98.6</ele>
        <time>2023-01-25T13:14:14Z</time>
      </trkpt>
      <trkpt lat="49.9538" lon="2.36737">
        <ele>98.7</ele>
        <time>2023-01-25T13:14:15Z</time>
      </trkpt>
      <trkpt lat="49.95381" lon="2.36738">
        <ele>98.7</ele>
        <time>2023-01-25T13:14:17Z</time>
      </trkpt>
      <trkpt lat="49.95382" lon="2.36739">
        <ele>98.7</ele>
        <time>2023-01-25T13:14:18Z</time>
      </trkpt>
      <trkpt lat="49.95384" lon="2.36741">
        <ele>98.8</ele>
        <time>2023-01-25T13:14:19Z</time>
      </trkpt>
      <trkpt lat="49.95385" lon="2.36742">
        <ele>98.8</ele>
        <time>2023-01-25T13:14:20Z</time>
      </trkpt>
      <trkpt lat="49.95386" lon="2.36743">
        <ele>98.8</ele>
        <time>2023-01-25T13:14:21Z</time>
      </trkpt>
      <trkpt lat="49.95387" lon="2.36744">
        <ele>98.8</ele>
        <time>2023-01-25T13:14:22Z</time>
      </trkpt>
      <trkpt lat="49.95388" lon="2.36746">
        <ele>98.9</ele>
        <time>2023-01-25T13:14:23Z</time>
      </trkpt>
      <trkpt lat="49.95389" lon="2.36747">
        <ele>98.9</ele>
        <time>2023-01-25T13:14:24Z</time>
      </trkpt>
      <trkpt lat="49.95391" lon="2.36748">
        <ele>98.9</ele>
        <time>2023-01-25T13:14:26Z</time>
      </trkpt>
      <trkpt lat="49.95392" lon="2.36749">
        <ele>99</ele>
        <time>2023-01-25T13:14:27Z</time>
      </trkpt>
      <trkpt lat="49.95393" lon="2.3675">
        <ele>99</ele>
        <time>2023-01-25T13:14:28Z</time>
      </trkpt>
      <trkpt lat="49.95394" lon="2.36751">
        <ele>99</ele>
        <time>2023-01-25T13:14:29Z</time>
      </trkpt>
      <trkpt lat="49.95395" lon="2.36752">
        <ele>99.1</ele>
        <time>2023-01-25T13:14:30Z</time>
      </trkpt>
      <trkpt lat="49.95398" lon="2.36755">
        <ele>99.1</ele>
        <time>2023-01-25T13:14:31Z</time>
      </trkpt>
      <trkpt lat="49.95399" lon="2.36756">
        <ele>99.1</ele>
        <time>2023-01-25T13:14:33Z</time>
      </trkpt>
      <trkpt lat="49.954" lon="2.36757">
        <ele>99.2</ele>
        <time>2023-01-25T13:14:34Z</time>
      </trkpt>
      <trkpt lat="49.95401" lon="2.36758">
        <ele>99.2</ele>
        <time>2023-01-25T13:14:35Z</time>
      </trkpt>
      <trkpt lat="49.95402" lon="2.36758">
        <ele>99.2</ele>
        <time>2023-01-25T13:14:36Z</time>
      </trkpt>
      <trkpt lat="49.95402" lon="2.36759">
        <ele>99.2</ele>
        <time>2023-01-25T13:14:37Z</time>
      </trkpt>
      <trkpt lat="49.95403" lon="2.3676">
        <ele>99.3</ele>
        <time>2023-01-25T13:14:38Z</time>
      </trkpt>
      <trkpt lat="49.95405" lon="2.36761">
        <ele>99.3</ele>
        <time>2023-01-25T13:14:40Z</time>
      </trkpt>
      <trkpt lat="49.95406" lon="2.36762">
        <ele>99.3</ele>
        <time>2023-01-25T13:14:41Z</time>
      </trkpt>
      <trkpt lat="49.95407" lon="2.36763">
        <ele>99.4</ele>
        <time>2023-01-25T13:14:42Z</time>
      </trkpt>
      <trkpt lat="49.95408" lon="2.36763">
        <ele>99.4</ele>
        <time>2023-01-25T13:14:43Z</time>
      </trkpt>
      <trkpt lat="49.9541" lon="2.36765">
        <ele>99.4</ele>
        <time>2023-01-25T13:14:44Z</time>
      </trkpt>
      <trkpt lat="49.95411" lon="2.36766">
        <ele>99.5</ele>
        <time>2023-01-25T13:14:45Z</time>
      </trkpt>
      <trkpt lat="49.95412" lon="2.36766">
        <ele>99.5</ele>
        <time>2023-01-25T13:14:46Z</time>
      </trkpt>
      <trkpt lat="49.95413" lon="2.36768">
        <ele>99.5</ele>
        <time>2023-01-25T13:14:47Z</time>
      </trkpt>
      <trkpt lat="49.95414" lon="2.36768">
        <ele>99.5</ele>
        <time>2023-01-25T13:14:49Z</time>
      </trkpt>
      <trkpt lat="49.95414" lon="2.36769">
        <ele>99.5</ele>
        <time>2023-01-25T13:14:50Z</time>
      </trkpt>
      <trkpt lat="49.95415" lon="2.36769">
        <ele>99.5</ele>
        <time>2023-01-25T13:14:51Z</time>
      </trkpt>
      <trkpt lat="49.95416" lon="2.36771">
        <ele>99.6</ele>
        <time>2023-01-25T13:14:52Z</time>
      </trkpt>
      <trkpt lat="49.95416" lon="2.36772">
        <ele>99.6</ele>
        <time>2023-01-25T13:14:53Z</time>
      </trkpt>
      <trkpt lat="49.95417" lon="2.36773">
        <ele>99.6</ele>
        <time>2023-01-25T13:14:54Z</time>
      </trkpt>
      <trkpt lat="49.95418" lon="2.36774">
        <ele>99.6</ele>
        <time>2023-01-25T13:14:55Z</time>
      </trkpt>
      <trkpt lat="49.95419" lon="2.36777">
        <ele>99.6</ele>
        <time>2023-01-25T13:14:57Z</time>
      </trkpt>
      <trkpt lat="49.9542" lon="2.36778">
        <ele>99.6</ele>
        <time>2023-01-25T13:14:58Z</time>
      </trkpt>
      <trkpt lat="49.95421" lon="2.36779">
        <ele>99.6</ele>
        <time>2023-01-25T13:14:59Z</time>
      </trkpt>
      <trkpt lat="49.95422" lon="2.36779">
        <ele>99.7</ele>
        <time>2023-01-25T13:15:00Z</time>
      </trkpt>
      <trkpt lat="49.95423" lon="2.3678">
        <ele>99.7</ele>
        <time>2023-01-25T13:15:01Z</time>
      </trkpt>
      <trkpt lat="49.95424" lon="2.36781">
        <ele>99.7</ele>
        <time>2023-01-25T13:15:03Z</time>
      </trkpt>
      <trkpt lat="49.95425" lon="2.36782">
        <ele>99.7</ele>
        <time>2023-01-25T13:15:04Z</time>
      </trkpt>
      <trkpt lat="49.95426" lon="2.36783">
        <ele>99.7</ele>
        <time>2023-01-25T13:15:05Z</time>
      </trkpt>
      <trkpt lat="49.95428" lon="2.36784">
        <ele>99.7</ele>
        <time>2023-01-25T13:15:06Z</time>
      </trkpt>
      <trkpt lat="49.95428" lon="2.36785">
        <ele>99.7</ele>
        <time>2023-01-25T13:15:07Z</time>
      </trkpt>
      <trkpt lat="49.95429" lon="2.36786">
        <ele>99.8</ele>
        <time>2023-01-25T13:15:08Z</time>
      </trkpt>
      <trkpt lat="49.95431" lon="2.36786">
        <ele>99.8</ele>
        <time>2023-01-25T13:15:10Z</time>
      </trkpt>
      <trkpt lat="49.95432" lon="2.36787">
        <ele>99.8</ele>
        <time>2023-01-25T13:15:11Z</time>
      </trkpt>
      <trkpt lat="49.95433" lon="2.36789">
        <ele>99.8</ele>
        <time>2023-01-25T13:15:12Z</time>
      </trkpt>
      <trkpt lat="49.95434" lon="2.36789">
        <ele>99.9</ele>
        <time>2023-01-25T13:15:13Z</time>
      </trkpt>
      <trkpt lat="49.95435" lon="2.3679">
        <ele>99.9</ele>
        <time>2023-01-25T13:15:14Z</time>
      </trkpt>
      <trkpt lat="49.95436" lon="2.36791">
        <ele>99.9</ele>
        <time>2023-01-25T13:15:15Z</time>
      </trkpt>
      <trkpt lat="49.95438" lon="2.36793">
        <ele>100</ele>
        <time>2023-01-25T13:15:16Z</time>
      </trkpt>
      <trkpt lat="49.95438" lon="2.36794">
        <ele>100</ele>
        <time>2023-01-25T13:15:17Z</time>
      </trkpt>
      <trkpt lat="49.9544" lon="2.36796">
        <ele>100</ele>
        <time>2023-01-25T13:15:18Z</time>
      </trkpt>
      <trkpt lat="49.95441" lon="2.36796">
        <ele>100.1</ele>
        <time>2023-01-25T13:15:20Z</time>
      </trkpt>
      <trkpt lat="49.95441" lon="2.36797">
        <ele>100.1</ele>
        <time>2023-01-25T13:15:21Z</time>
      </trkpt>
      <trkpt lat="49.95443" lon="2.36799">
        <ele>100.2</ele>
        <time>2023-01-25T13:15:22Z</time>
      </trkpt>
      <trkpt lat="49.95444" lon="2.36799">
        <ele>100.2</ele>
        <time>2023-01-25T13:15:23Z</time>
      </trkpt>
      <trkpt lat="49.95445" lon="2.368">
        <ele>100.2</ele>
        <time>2023-01-25T13:15:24Z</time>
      </trkpt>
      <trkpt lat="49.95446" lon="2.36801">
        <ele>100.3</ele>
        <time>2023-01-25T13:15:25Z</time>
      </trkpt>
      <trkpt lat="49.95448" lon="2.36802">
        <ele>100.3</ele>
        <time>2023-01-25T13:15:26Z</time>
      </trkpt>
      <trkpt lat="49.95449" lon="2.36804">
        <ele>100.4</ele>
        <time>2023-01-25T13:15:28Z</time>
      </trkpt>
      <trkpt lat="49.9545" lon="2.36805">
        <ele>100.4</ele>
        <time>2023-01-25T13:15:29Z</time>
      </trkpt>
      <trkpt lat="49.95451" lon="2.36805">
        <ele>100.5</ele>
        <time>2023-01-25T13:15:30Z</time>
      </trkpt>
      <trkpt lat="49.95452" lon="2.36807">
        <ele>100.5</ele>
        <time>2023-01-25T13:15:31Z</time>
      </trkpt>
      <trkpt lat="49.95454" lon="2.36808">
        <ele>100.6</ele>
        <time>2023-01-25T13:15:32Z</time>
      </trkpt>
      <trkpt lat="49.95455" lon="2.36809">
        <ele>100.6</ele>
        <time>2023-01-25T13:15:33Z</time>
      </trkpt>
      <trkpt lat="49.95456" lon="2.3681">
        <ele>100.7</ele>
        <time>2023-01-25T13:15:34Z</time>
      </trkpt>
      <trkpt lat="49.95458" lon="2.36811">
        <ele>100.8</ele>
        <time>2023-01-25T13:15:36Z</time>
      </trkpt>
      <trkpt lat="49.95459" lon="2.36812">
        <ele>100.8</ele>
        <time>2023-01-25T13:15:37Z</time>
      </trkpt>
      <trkpt lat="49.9546" lon="2.36813">
        <ele>100.9</ele>
        <time>2023-01-25T13:15:38Z</time>
      </trkpt>
      <trkpt lat="49.95461" lon="2.36814">
        <ele>100.9</ele>
        <time>2023-01-25T13:15:39Z</time>
      </trkpt>
      <trkpt lat="49.95462" lon="2.36815">
        <ele>100.9</ele>
        <time>2023-01-25T13:15:41Z</time>
      </trkpt>
      <trkpt lat="49.95463" lon="2.36816">
        <ele>101</ele>
        <time>2023-01-25T13:15:42Z</time>
      </trkpt>
      <trkpt lat="49.95463" lon="2.36817">
        <ele>101</ele>
        <time>2023-01-25T13:15:43Z</time>
      </trkpt>
      <trkpt lat="49.95465" lon="2.36818">
        <ele>101.1</ele>
        <time>2023-01-25T13:15:44Z</time>
      </trkpt>
      <trkpt lat="49.95466" lon="2.36819">
        <ele>101.1</ele>
        <time>2023-01-25T13:15:45Z</time>
      </trkpt>
      <trkpt lat="49.95467" lon="2.3682">
        <ele>101.2</ele>
        <time>2023-01-25T13:15:46Z</time>
      </trkpt>
      <trkpt lat="49.95467" lon="2.36821">
        <ele>101.2</ele>
        <time>2023-01-25T13:15:47Z</time>
      </trkpt>
      <trkpt lat="49.95468" lon="2.36822">
        <ele>101.2</ele>
        <time>2023-01-25T13:15:49Z</time>
      </trkpt>
      <trkpt lat="49.95469" lon="2.36823">
        <ele>101.3</ele>
        <time>2023-01-25T13:15:50Z</time>
      </trkpt>
      <trkpt lat="49.95469" lon="2.36824">
        <ele>101.3</ele>
        <time>2023-01-25T13:15:51Z</time>
      </trkpt>
      <trkpt lat="49.9547" lon="2.36826">
        <ele>101.4</ele>
        <time>2023-01-25T13:15:52Z</time>
      </trkpt>
      <trkpt lat="49.95471" lon="2.36827">
        <ele>101.4</ele>
        <time>2023-01-25T13:15:53Z</time>
      </trkpt>
      <trkpt lat="49.95472" lon="2.3683">
        <ele>101.5</ele>
        <time>2023-01-25T13:15:54Z</time>
      </trkpt>
      <trkpt lat="49.95473" lon="2.36831">
        <ele>101.5</ele>
        <time>2023-01-25T13:15:55Z</time>
      </trkpt>
      <trkpt lat="49.95474" lon="2.36832">
        <ele>101.6</ele>
        <time>2023-01-25T13:15:57Z</time>
      </trkpt>
      <trkpt lat="49.95475" lon="2.36833">
        <ele>101.6</ele>
        <time>2023-01-25T13:15:58Z</time>
      </trkpt>
      <trkpt lat="49.95475" lon="2.36834">
        <ele>101.7</ele>
        <time>2023-01-25T13:15:59Z</time>
      </trkpt>
      <trkpt lat="49.95476" lon="2.36835">
        <ele>101.7</ele>
        <time>2023-01-25T13:16:00Z</time>
      </trkpt>
      <trkpt lat="49.95477" lon="2.36836">
        <ele>101.8</ele>
        <time>2023-01-25T13:16:01Z</time>
      </trkpt>
      <trkpt lat="49.95478" lon="2.36837">
        <ele>101.8</ele>
        <time>2023-01-25T13:16:02Z</time>
      </trkpt>
      <trkpt lat="49.95479" lon="2.36838">
        <ele>101.8</ele>
        <time>2023-01-25T13:16:03Z</time>
      </trkpt>
      <trkpt lat="49.9548" lon="2.36838">
        <ele>101.9</ele>
        <time>2023-01-25T13:16:04Z</time>
      </trkpt>
      <trkpt lat="49.95481" lon="2.36839">
        <ele>101.9</ele>
        <time>2023-01-25T13:16:06Z</time>
      </trkpt>
      <trkpt lat="49.95482" lon="2.3684">
        <ele>102</ele>
        <time>2023-01-25T13:16:07Z</time>
      </trkpt>
      <trkpt lat="49.95483" lon="2.36842">
        <ele>102</ele>
        <time>2023-01-25T13:16:08Z</time>
      </trkpt>
      <trkpt lat="49.95484" lon="2.36843">
        <ele>102.1</ele>
        <time>2023-01-25T13:16:09Z</time>
      </trkpt>
      <trkpt lat="49.95485" lon="2.36844">
        <ele>102.2</ele>
        <time>2023-01-25T13:16:10Z</time>
      </trkpt>
      <trkpt lat="49.95485" lon="2.36845">
        <ele>102.2</ele>
        <time>2023-01-25T13:16:11Z</time>
      </trkpt>
      <trkpt lat="49.95486" lon="2.36847">
        <ele>102.3</ele>
        <time>2023-01-25T13:16:12Z</time>
      </trkpt>
      <trkpt lat="49.95486" lon="2.36848">
        <ele>102.3</ele>
        <time>2023-01-25T13:16:13Z</time>
      </trkpt>
      <trkpt lat="49.95488" lon="2.36851">
        <ele>102.4</ele>
        <time>2023-01-25T13:16:15Z</time>
      </trkpt>
      <trkpt lat="49.95488" lon="2.36852">
        <ele>102.5</ele>
        <time>2023-01-25T13:16:16Z</time>
      </trkpt>
      <trkpt lat="49.95489" lon="2.36853">
        <ele>102.5</ele>
        <time>2023-01-25T13:16:17Z</time>
      </trkpt>
      <trkpt lat="49.95489" lon="2.36854">
        <ele>102.5</ele>
        <time>2023-01-25T13:16:18Z</time>
      </trkpt>
      <trkpt lat="49.9549" lon="2.36855">
        <ele>102.6</ele>
        <time>2023-01-25T13:16:19Z</time>
      </trkpt>
      <trkpt lat="49.9549" lon="2.36856">
        <ele>102.6</ele>
        <time>2023-01-25T13:16:20Z</time>
      </trkpt>
      <trkpt lat="49.95491" lon="2.36858">
        <ele>102.7</ele>
        <time>2023-01-25T13:16:21Z</time>
      </trkpt>
      <trkpt lat="49.95492" lon="2.3686">
        <ele>102.8</ele>
        <time>2023-01-25T13:16:22Z</time>
      </trkpt>
      <trkpt lat="49.95493" lon="2.36861">
        <ele>102.8</ele>
        <time>2023-01-25T13:16:24Z</time>
      </trkpt>
      <trkpt lat="49.95493" lon="2.36862">
        <ele>102.8</ele>
        <time>2023-01-25T13:16:25Z</time>
      </trkpt>
      <trkpt lat="49.95494" lon="2.36863">
        <ele>102.9</ele>
        <time>2023-01-25T13:16:26Z</time>
      </trkpt>
      <trkpt lat="49.95495" lon="2.36865">
        <ele>102.9</ele>
        <time>2023-01-25T13:16:27Z</time>
      </trkpt>
      <trkpt lat="49.95495" lon="2.36866">
        <ele>102.9</ele>
        <time>2023-01-25T13:16:28Z</time>
      </trkpt>
      <trkpt lat="49.95496" lon="2.36868">
        <ele>103</ele>
        <time>2023-01-25T13:16:30Z</time>
      </trkpt>
      <trkpt lat="49.95497" lon="2.3687">
        <ele>103.1</ele>
        <time>2023-01-25T13:16:31Z</time>
      </trkpt>
      <trkpt lat="49.95498" lon="2.36873">
        <ele>103.1</ele>
        <time>2023-01-25T13:16:32Z</time>
      </trkpt>
      <trkpt lat="49.95498" lon="2.36874">
        <ele>103.2</ele>
        <time>2023-01-25T13:16:33Z</time>
      </trkpt>
      <trkpt lat="49.95498" lon="2.36875">
        <ele>103.2</ele>
        <time>2023-01-25T13:16:34Z</time>
      </trkpt>
      <trkpt lat="49.95499" lon="2.36876">
        <ele>103.2</ele>
        <time>2023-01-25T13:16:36Z</time>
      </trkpt>
      <trkpt lat="49.955" lon="2.36878">
        <ele>103.3</ele>
        <time>2023-01-25T13:16:37Z</time>
      </trkpt>
      <trkpt lat="49.95501" lon="2.3688">
        <ele>103.3</ele>
        <time>2023-01-25T13:16:38Z</time>
      </trkpt>
      <trkpt lat="49.95501" lon="2.36881">
        <ele>103.3</ele>
        <time>2023-01-25T13:16:39Z</time>
      </trkpt>
      <trkpt lat="49.95502" lon="2.36883">
        <ele>103.4</ele>
        <time>2023-01-25T13:16:40Z</time>
      </trkpt>
      <trkpt lat="49.95502" lon="2.36885">
        <ele>103.4</ele>
        <time>2023-01-25T13:16:41Z</time>
      </trkpt>
      <trkpt lat="49.95503" lon="2.36887">
        <ele>103.5</ele>
        <time>2023-01-25T13:16:42Z</time>
      </trkpt>
      <trkpt lat="49.95504" lon="2.3689">
        <ele>103.5</ele>
        <time>2023-01-25T13:16:43Z</time>
      </trkpt>
      <trkpt lat="49.95504" lon="2.36891">
        <ele>103.6</ele>
        <time>2023-01-25T13:16:45Z</time>
      </trkpt>
      <trkpt lat="49.95505" lon="2.36892">
        <ele>103.6</ele>
        <time>2023-01-25T13:16:46Z</time>
      </trkpt>
      <trkpt lat="49.95505" lon="2.36896">
        <ele>103.7</ele>
        <time>2023-01-25T13:16:47Z</time>
      </trkpt>
      <trkpt lat="49.95506" lon="2.36897">
        <ele>103.7</ele>
        <time>2023-01-25T13:16:48Z</time>
      </trkpt>
      <trkpt lat="49.95507" lon="2.369">
        <ele>103.8</ele>
        <time>2023-01-25T13:16:49Z</time>
      </trkpt>
      <trkpt lat="49.95507" lon="2.36901">
        <ele>103.8</ele>
        <time>2023-01-25T13:16:50Z</time>
      </trkpt>
      <trkpt lat="49.95507" lon="2.36902">
        <ele>103.8</ele>
        <time>2023-01-25T13:16:51Z</time>
      </trkpt>
      <trkpt lat="49.95509" lon="2.36905">
        <ele>103.9</ele>
        <time>2023-01-25T13:16:53Z</time>
      </trkpt>
      <trkpt lat="49.95509" lon="2.36906">
        <ele>103.9</ele>
        <time>2023-01-25T13:16:54Z</time>
      </trkpt>
      <trkpt lat="49.95509" lon="2.36907">
        <ele>103.9</ele>
        <time>2023-01-25T13:16:55Z</time>
      </trkpt>
      <trkpt lat="49.95509" lon="2.36909">
        <ele>104</ele>
        <time>2023-01-25T13:16:56Z</time>
      </trkpt>
      <trkpt lat="49.9551" lon="2.36911">
        <ele>104</ele>
        <time>2023-01-25T13:16:57Z</time>
      </trkpt>
      <trkpt lat="49.95511" lon="2.36912">
        <ele>104.1</ele>
        <time>2023-01-25T13:16:58Z</time>
      </trkpt>
      <trkpt lat="49.95511" lon="2.36913">
        <ele>104.1</ele>
        <time>2023-01-25T13:16:59Z</time>
      </trkpt>
      <trkpt lat="49.95512" lon="2.36915">
        <ele>104.1</ele>
        <time>2023-01-25T13:17:00Z</time>
      </trkpt>
      <trkpt lat="49.95512" lon="2.36917">
        <ele>104.2</ele>
        <time>2023-01-25T13:17:02Z</time>
      </trkpt>
      <trkpt lat="49.95513" lon="2.36919">
        <ele>104.2</ele>
        <time>2023-01-25T13:17:03Z</time>
      </trkpt>
      <trkpt lat="49.95514" lon="2.3692">
        <ele>104.3</ele>
        <time>2023-01-25T13:17:04Z</time>
      </trkpt>
      <trkpt lat="49.95515" lon="2.36923">
        <ele>104.3</ele>
        <time>2023-01-25T13:17:05Z</time>
      </trkpt>
      <trkpt lat="49.95516" lon="2.36924">
        <ele>104.4</ele>
        <time>2023-01-25T13:17:06Z</time>
      </trkpt>
      <trkpt lat="49.95517" lon="2.36926">
        <ele>104.4</ele>
        <time>2023-01-25T13:17:07Z</time>
      </trkpt>
      <trkpt lat="49.95517" lon="2.36927">
        <ele>104.4</ele>
        <time>2023-01-25T13:17:08Z</time>
      </trkpt>
      <trkpt lat="49.95517" lon="2.36928">
        <ele>104.5</ele>
        <time>2023-01-25T13:17:09Z</time>
      </trkpt>
      <trkpt lat="49.95518" lon="2.3693">
        <ele>104.5</ele>
        <time>2023-01-25T13:17:11Z</time>
      </trkpt>
      <trkpt lat="49.95518" lon="2.36931">
        <ele>104.5</ele>
        <time>2023-01-25T13:17:12Z</time>
      </trkpt>
      <trkpt lat="49.95519" lon="2.36934">
        <ele>104.6</ele>
        <time>2023-01-25T13:17:13Z</time>
      </trkpt>
      <trkpt lat="49.95519" lon="2.36936">
        <ele>104.7</ele>
        <time>2023-01-25T13:17:14Z</time>
      </trkpt>
      <trkpt lat="49.9552" lon="2.36937">
        <ele>104.7</ele>
        <time>2023-01-25T13:17:15Z</time>
      </trkpt>
      <trkpt lat="49.9552" lon="2.36939">
        <ele>104.7</ele>
        <time>2023-01-25T13:17:16Z</time>
      </trkpt>
      <trkpt lat="49.95521" lon="2.3694">
        <ele>104.8</ele>
        <time>2023-01-25T13:17:17Z</time>
      </trkpt>
      <trkpt lat="49.95521" lon="2.36942">
        <ele>104.8</ele>
        <time>2023-01-25T13:17:19Z</time>
      </trkpt>
      <trkpt lat="49.95521" lon="2.36943">
        <ele>104.9</ele>
        <time>2023-01-25T13:17:20Z</time>
      </trkpt>
      <trkpt lat="49.95522" lon="2.36945">
        <ele>104.9</ele>
        <time>2023-01-25T13:17:21Z</time>
      </trkpt>
      <trkpt lat="49.95522" lon="2.36947">
        <ele>105</ele>
        <time>2023-01-25T13:17:22Z</time>
      </trkpt>
      <trkpt lat="49.95522" lon="2.36949">
        <ele>105</ele>
        <time>2023-01-25T13:17:23Z</time>
      </trkpt>
      <trkpt lat="49.95523" lon="2.36951">
        <ele>105</ele>
        <time>2023-01-25T13:17:24Z</time>
      </trkpt>
      <trkpt lat="49.95523" lon="2.36952">
        <ele>105.1</ele>
        <time>2023-01-25T13:17:25Z</time>
      </trkpt>
      <trkpt lat="49.95523" lon="2.36954">
        <ele>105.1</ele>
        <time>2023-01-25T13:17:26Z</time>
      </trkpt>
      <trkpt lat="49.95524" lon="2.36956">
        <ele>105.2</ele>
        <time>2023-01-25T13:17:27Z</time>
      </trkpt>
      <trkpt lat="49.95524" lon="2.36958">
        <ele>105.2</ele>
        <time>2023-01-25T13:17:29Z</time>
      </trkpt>
      <trkpt lat="49.95525" lon="2.36961">
        <ele>105.3</ele>
        <time>2023-01-25T13:17:30Z</time>
      </trkpt>
      <trkpt lat="49.95526" lon="2.36962">
        <ele>105.3</ele>
        <time>2023-01-25T13:17:31Z</time>
      </trkpt>
      <trkpt lat="49.95526" lon="2.36963">
        <ele>105.3</ele>
        <time>2023-01-25T13:17:32Z</time>
      </trkpt>
      <trkpt lat="49.95526" lon="2.36965">
        <ele>105.3</ele>
        <time>2023-01-25T13:17:33Z</time>
      </trkpt>
      <trkpt lat="49.95527" lon="2.36966">
        <ele>105.3</ele>
        <time>2023-01-25T13:17:34Z</time>
      </trkpt>
      <trkpt lat="49.95527" lon="2.36968">
        <ele>105.4</ele>
        <time>2023-01-25T13:17:35Z</time>
      </trkpt>
      <trkpt lat="49.95527" lon="2.3697">
        <ele>105.4</ele>
        <time>2023-01-25T13:17:37Z</time>
      </trkpt>
      <trkpt lat="49.95528" lon="2.36972">
        <ele>105.4</ele>
        <time>2023-01-25T13:17:38Z</time>
      </trkpt>
      <trkpt lat="49.95528" lon="2.36973">
        <ele>105.4</ele>
        <time>2023-01-25T13:17:39Z</time>
      </trkpt>
      <trkpt lat="49.95529" lon="2.36975">
        <ele>105.5</ele>
        <time>2023-01-25T13:17:40Z</time>
      </trkpt>
      <trkpt lat="49.95529" lon="2.36977">
        <ele>105.5</ele>
        <time>2023-01-25T13:17:41Z</time>
      </trkpt>
      <trkpt lat="49.9553" lon="2.36979">
        <ele>105.5</ele>
        <time>2023-01-25T13:17:42Z</time>
      </trkpt>
      <trkpt lat="49.9553" lon="2.36981">
        <ele>105.5</ele>
        <time>2023-01-25T13:17:43Z</time>
      </trkpt>
      <trkpt lat="49.9553" lon="2.36982">
        <ele>105.5</ele>
        <time>2023-01-25T13:17:44Z</time>
      </trkpt>
      <trkpt lat="49.95531" lon="2.36986">
        <ele>105.5</ele>
        <time>2023-01-25T13:17:46Z</time>
      </trkpt>
      <trkpt lat="49.95531" lon="2.36987">
        <ele>105.6</ele>
        <time>2023-01-25T13:17:47Z</time>
      </trkpt>
      <trkpt lat="49.95532" lon="2.36988">
        <ele>105.6</ele>
        <time>2023-01-25T13:17:48Z</time>
      </trkpt>
      <trkpt lat="49.95532" lon="2.3699">
        <ele>105.6</ele>
        <time>2023-01-25T13:17:49Z</time>
      </trkpt>
      <trkpt lat="49.95533" lon="2.36991">
        <ele>105.6</ele>
        <time>2023-01-25T13:17:50Z</time>
      </trkpt>
      <trkpt lat="49.95533" lon="2.36993">
        <ele>105.6</ele>
        <time>2023-01-25T13:17:51Z</time>
      </trkpt>
      <trkpt lat="49.95534" lon="2.36996">
        <ele>105.6</ele>
        <time>2023-01-25T13:17:52Z</time>
      </trkpt>
      <trkpt lat="49.95534" lon="2.36997">
        <ele>105.6</ele>
        <time>2023-01-25T13:17:54Z</time>
      </trkpt>
      <trkpt lat="49.95535" lon="2.36999">
        <ele>105.6</ele>
        <time>2023-01-25T13:17:55Z</time>
      </trkpt>
      <trkpt lat="49.95536" lon="2.37">
        <ele>105.7</ele>
        <time>2023-01-25T13:17:56Z</time>
      </trkpt>
      <trkpt lat="49.95537" lon="2.37002">
        <ele>105.7</ele>
        <time>2023-01-25T13:17:57Z</time>
      </trkpt>
      <trkpt lat="49.95538" lon="2.37005">
        <ele>105.7</ele>
        <time>2023-01-25T13:17:59Z</time>
      </trkpt>
      <trkpt lat="49.95538" lon="2.37006">
        <ele>105.8</ele>
        <time>2023-01-25T13:18:00Z</time>
      </trkpt>
      <trkpt lat="49.95539" lon="2.37007">
        <ele>105.8</ele>
        <time>2023-01-25T13:18:01Z</time>
      </trkpt>
      <trkpt lat="49.9554" lon="2.3701">
        <ele>105.8</ele>
        <time>2023-01-25T13:18:02Z</time>
      </trkpt>
      <trkpt lat="49.9554" lon="2.37011">
        <ele>105.8</ele>
        <time>2023-01-25T13:18:03Z</time>
      </trkpt>
      <trkpt lat="49.95541" lon="2.37012">
        <ele>105.9</ele>
        <time>2023-01-25T13:18:04Z</time>
      </trkpt>
      <trkpt lat="49.95542" lon="2.37014">
        <ele>105.9</ele>
        <time>2023-01-25T13:18:05Z</time>
      </trkpt>
      <trkpt lat="49.95542" lon="2.37015">
        <ele>105.9</ele>
        <time>2023-01-25T13:18:06Z</time>
      </trkpt>
      <trkpt lat="49.95543" lon="2.37016">
        <ele>106</ele>
        <time>2023-01-25T13:18:08Z</time>
      </trkpt>
      <trkpt lat="49.95544" lon="2.37017">
        <ele>106</ele>
        <time>2023-01-25T13:18:09Z</time>
      </trkpt>
      <trkpt lat="49.95544" lon="2.37018">
        <ele>106</ele>
        <time>2023-01-25T13:18:10Z</time>
      </trkpt>
      <trkpt lat="49.95545" lon="2.3702">
        <ele>106</ele>
        <time>2023-01-25T13:18:11Z</time>
      </trkpt>
      <trkpt lat="49.95545" lon="2.3702">
        <ele>106.1</ele>
        <time>2023-01-25T13:18:12Z</time>
      </trkpt>
      <trkpt lat="49.95547" lon="2.37022">
        <ele>106.1</ele>
        <time>2023-01-25T13:18:13Z</time>
      </trkpt>
      <trkpt lat="49.95547" lon="2.37023">
        <ele>106.1</ele>
        <time>2023-01-25T13:18:14Z</time>
      </trkpt>
      <trkpt lat="49.95549" lon="2.37025">
        <ele>106.2</ele>
        <time>2023-01-25T13:18:16Z</time>
      </trkpt>
      <trkpt lat="49.95549" lon="2.37026">
        <ele>106.2</ele>
        <time>2023-01-25T13:18:17Z</time>
      </trkpt>
      <trkpt lat="49.9555" lon="2.37027">
        <ele>106.2</ele>
        <time>2023-01-25T13:18:18Z</time>
      </trkpt>
      <trkpt lat="49.95551" lon="2.37028">
        <ele>106.3</ele>
        <time>2023-01-25T13:18:19Z</time>
      </trkpt>
      <trkpt lat="49.95552" lon="2.3703">
        <ele>106.3</ele>
        <time>2023-01-25T13:18:20Z</time>
      </trkpt>
      <trkpt lat="49.95553" lon="2.37031">
        <ele>106.3</ele>
        <time>2023-01-25T13:18:21Z</time>
      </trkpt>
      <trkpt lat="49.95554" lon="2.37032">
        <ele>106.4</ele>
        <time>2023-01-25T13:18:22Z</time>
      </trkpt>
      <trkpt lat="49.95555" lon="2.37033">
        <ele>106.4</ele>
        <time>2023-01-25T13:18:24Z</time>
      </trkpt>
      <trkpt lat="49.95556" lon="2.37034">
        <ele>106.5</ele>
        <time>2023-01-25T13:18:25Z</time>
      </trkpt>
      <trkpt lat="49.95558" lon="2.37035">
        <ele>106.5</ele>
        <time>2023-01-25T13:18:26Z</time>
      </trkpt>
      <trkpt lat="49.95559" lon="2.37036">
        <ele>106.6</ele>
        <time>2023-01-25T13:18:27Z</time>
      </trkpt>
      <trkpt lat="49.9556" lon="2.37037">
        <ele>106.6</ele>
        <time>2023-01-25T13:18:28Z</time>
      </trkpt>
      <trkpt lat="49.95562" lon="2.37039">
        <ele>106.7</ele>
        <time>2023-01-25T13:18:29Z</time>
      </trkpt>
      <trkpt lat="49.95562" lon="2.3704">
        <ele>106.7</ele>
        <time>2023-01-25T13:18:30Z</time>
      </trkpt>
      <trkpt lat="49.95563" lon="2.3704">
        <ele>106.8</ele>
        <time>2023-01-25T13:18:31Z</time>
      </trkpt>
      <trkpt lat="49.95565" lon="2.37042">
        <ele>106.9</ele>
        <time>2023-01-25T13:18:33Z</time>
      </trkpt>
      <trkpt lat="49.95566" lon="2.37043">
        <ele>106.9</ele>
        <time>2023-01-25T13:18:34Z</time>
      </trkpt>
      <trkpt lat="49.95567" lon="2.37046">
        <ele>107.1</ele>
        <time>2023-01-25T13:18:35Z</time>
      </trkpt>
      <trkpt lat="49.95568" lon="2.37046">
        <ele>107.1</ele>
        <time>2023-01-25T13:18:36Z</time>
      </trkpt>
      <trkpt lat="49.95569" lon="2.37047">
        <ele>107.2</ele>
        <time>2023-01-25T13:18:37Z</time>
      </trkpt>
      <trkpt lat="49.95569" lon="2.37048">
        <ele>107.2</ele>
        <time>2023-01-25T13:18:38Z</time>
      </trkpt>
      <trkpt lat="49.9557" lon="2.37049">
        <ele>107.3</ele>
        <time>2023-01-25T13:18:39Z</time>
      </trkpt>
      <trkpt lat="49.95571" lon="2.3705">
        <ele>107.4</ele>
        <time>2023-01-25T13:18:41Z</time>
      </trkpt>
      <trkpt lat="49.95572" lon="2.37051">
        <ele>107.5</ele>
        <time>2023-01-25T13:18:42Z</time>
      </trkpt>
      <trkpt lat="49.95574" lon="2.37053">
        <ele>107.6</ele>
        <time>2023-01-25T13:18:43Z</time>
      </trkpt>
      <trkpt lat="49.95574" lon="2.37054">
        <ele>107.6</ele>
        <time>2023-01-25T13:18:44Z</time>
      </trkpt>
      <trkpt lat="49.95575" lon="2.37055">
        <ele>107.7</ele>
        <time>2023-01-25T13:18:45Z</time>
      </trkpt>
      <trkpt lat="49.95576" lon="2.37056">
        <ele>107.8</ele>
        <time>2023-01-25T13:18:46Z</time>
      </trkpt>
      <trkpt lat="49.95578" lon="2.37058">
        <ele>107.9</ele>
        <time>2023-01-25T13:18:47Z</time>
      </trkpt>
      <trkpt lat="49.95578" lon="2.37059">
        <ele>108</ele>
        <time>2023-01-25T13:18:48Z</time>
      </trkpt>
      <trkpt lat="49.95579" lon="2.3706">
        <ele>108.1</ele>
        <time>2023-01-25T13:18:50Z</time>
      </trkpt>
      <trkpt lat="49.9558" lon="2.37061">
        <ele>108.1</ele>
        <time>2023-01-25T13:18:51Z</time>
      </trkpt>
      <trkpt lat="49.95581" lon="2.37063">
        <ele>108.2</ele>
        <time>2023-01-25T13:18:52Z</time>
      </trkpt>
      <trkpt lat="49.95581" lon="2.37064">
        <ele>108.2</ele>
        <time>2023-01-25T13:18:53Z</time>
      </trkpt>
      <trkpt lat="49.95582" lon="2.37064">
        <ele>108.2</ele>
        <time>2023-01-25T13:18:54Z</time>
      </trkpt>
      <trkpt lat="49.95583" lon="2.37066">
        <ele>108.3</ele>
        <time>2023-01-25T13:18:55Z</time>
      </trkpt>
      <trkpt lat="49.95584" lon="2.37067">
        <ele>108.4</ele>
        <time>2023-01-25T13:18:57Z</time>
      </trkpt>
      <trkpt lat="49.95585" lon="2.37069">
        <ele>108.5</ele>
        <time>2023-01-25T13:18:58Z</time>
      </trkpt>
      <trkpt lat="49.95586" lon="2.37069">
        <ele>108.5</ele>
        <time>2023-01-25T13:18:59Z</time>
      </trkpt>
      <trkpt lat="49.95587" lon="2.3707">
        <ele>108.5</ele>
        <time>2023-01-25T13:19:00Z</time>
      </trkpt>
      <trkpt lat="49.95588" lon="2.37071">
        <ele>108.6</ele>
        <time>2023-01-25T13:19:01Z</time>
      </trkpt>
      <trkpt lat="49.95588" lon="2.37072">
        <ele>108.6</ele>
        <time>2023-01-25T13:19:02Z</time>
      </trkpt>
      <trkpt lat="49.9559" lon="2.37073">
        <ele>108.7</ele>
        <time>2023-01-25T13:19:04Z</time>
      </trkpt>
      <trkpt lat="49.95591" lon="2.37074">
        <ele>108.8</ele>
        <time>2023-01-25T13:19:05Z</time>
      </trkpt>
      <trkpt lat="49.95592" lon="2.37074">
        <ele>108.8</ele>
        <time>2023-01-25T13:19:06Z</time>
      </trkpt>
      <trkpt lat="49.95593" lon="2.37075">
        <ele>108.9</ele>
        <time>2023-01-25T13:19:07Z</time>
      </trkpt>
      <trkpt lat="49.95594" lon="2.37077">
        <ele>109</ele>
        <time>2023-01-25T13:19:08Z</time>
      </trkpt>
      <trkpt lat="49.95595" lon="2.37077">
        <ele>109</ele>
        <time>2023-01-25T13:19:09Z</time>
      </trkpt>
      <trkpt lat="49.95596" lon="2.37079">
        <ele>109.1</ele>
        <time>2023-01-25T13:19:11Z</time>
      </trkpt>
      <trkpt lat="49.95597" lon="2.3708">
        <ele>109.2</ele>
        <time>2023-01-25T13:19:12Z</time>
      </trkpt>
      <trkpt lat="49.95598" lon="2.37081">
        <ele>109.2</ele>
        <time>2023-01-25T13:19:13Z</time>
      </trkpt>
      <trkpt lat="49.95599" lon="2.37082">
        <ele>109.3</ele>
        <time>2023-01-25T13:19:14Z</time>
      </trkpt>
      <trkpt lat="49.956" lon="2.37082">
        <ele>109.3</ele>
        <time>2023-01-25T13:19:15Z</time>
      </trkpt>
      <trkpt lat="49.95601" lon="2.37083">
        <ele>109.4</ele>
        <time>2023-01-25T13:19:16Z</time>
      </trkpt>
      <trkpt lat="49.95603" lon="2.37085">
        <ele>109.5</ele>
        <time>2023-01-25T13:19:17Z</time>
      </trkpt>
      <trkpt lat="49.95604" lon="2.37086">
        <ele>109.6</ele>
        <time>2023-01-25T13:19:18Z</time>
      </trkpt>
      <trkpt lat="49.95604" lon="2.37087">
        <ele>109.6</ele>
        <time>2023-01-25T13:19:20Z</time>
      </trkpt>
      <trkpt lat="49.95605" lon="2.37088">
        <ele>109.7</ele>
        <time>2023-01-25T13:19:21Z</time>
      </trkpt>
      <trkpt lat="49.95606" lon="2.37089">
        <ele>109.7</ele>
        <time>2023-01-25T13:19:22Z</time>
      </trkpt>
      <trkpt lat="49.95607" lon="2.3709">
        <ele>109.8</ele>
        <time>2023-01-25T13:19:23Z</time>
      </trkpt>
      <trkpt lat="49.95609" lon="2.37092">
        <ele>109.8</ele>
        <time>2023-01-25T13:19:24Z</time>
      </trkpt>
      <trkpt lat="49.95609" lon="2.37092">
        <ele>109.9</ele>
        <time>2023-01-25T13:19:25Z</time>
      </trkpt>
      <trkpt lat="49.9561" lon="2.37093">
        <ele>109.9</ele>
        <time>2023-01-25T13:19:27Z</time>
      </trkpt>
      <trkpt lat="49.95611" lon="2.37094">
        <ele>109.9</ele>
        <time>2023-01-25T13:19:28Z</time>
      </trkpt>
      <trkpt lat="49.95612" lon="2.37095">
        <ele>110</ele>
        <time>2023-01-25T13:19:29Z</time>
      </trkpt>
      <trkpt lat="49.95613" lon="2.37096">
        <ele>110</ele>
        <time>2023-01-25T13:19:30Z</time>
      </trkpt>
      <trkpt lat="49.95614" lon="2.37097">
        <ele>110</ele>
        <time>2023-01-25T13:19:31Z</time>
      </trkpt>
      <trkpt lat="49.95615" lon="2.37098">
        <ele>110</ele>
        <time>2023-01-25T13:19:32Z</time>
      </trkpt>
      <trkpt lat="49.95615" lon="2.37099">
        <ele>110</ele>
        <time>2023-01-25T13:19:33Z</time>
      </trkpt>
      <trkpt lat="49.95617" lon="2.37101">
        <ele>110.1</ele>
        <time>2023-01-25T13:19:35Z</time>
      </trkpt>
      <trkpt lat="49.95618" lon="2.37102">
        <ele>110.1</ele>
        <time>2023-01-25T13:19:36Z</time>
      </trkpt>
      <trkpt lat="49.95619" lon="2.37102">
        <ele>110.1</ele>
        <time>2023-01-25T13:19:37Z</time>
      </trkpt>
      <trkpt lat="49.9562" lon="2.37104">
        <ele>110.1</ele>
        <time>2023-01-25T13:19:38Z</time>
      </trkpt>
      <trkpt lat="49.95621" lon="2.37105">
        <ele>110.1</ele>
        <time>2023-01-25T13:19:39Z</time>
      </trkpt>
      <trkpt lat="49.95622" lon="2.37106">
        <ele>110.2</ele>
        <time>2023-01-25T13:19:40Z</time>
      </trkpt>
      <trkpt lat="49.95623" lon="2.37107">
        <ele>110.2</ele>
        <time>2023-01-25T13:19:41Z</time>
      </trkpt>
      <trkpt lat="49.95623" lon="2.37108">
        <ele>110.2</ele>
        <time>2023-01-25T13:19:42Z</time>
      </trkpt>
      <trkpt lat="49.95625" lon="2.3711">
        <ele>110.2</ele>
        <time>2023-01-25T13:19:43Z</time>
      </trkpt>
      <trkpt lat="49.95626" lon="2.37111">
        <ele>110.2</ele>
        <time>2023-01-25T13:19:45Z</time>
      </trkpt>
      <trkpt lat="49.95626" lon="2.37111">
        <ele>110.2</ele>
        <time>2023-01-25T13:19:46Z</time>
      </trkpt>
      <trkpt lat="49.95627" lon="2.37113">
        <ele>110.2</ele>
        <time>2023-01-25T13:19:47Z</time>
      </trkpt>
      <trkpt lat="49.95629" lon="2.37114">
        <ele>110.3</ele>
        <time>2023-01-25T13:19:48Z</time>
      </trkpt>
      <trkpt lat="49.9563" lon="2.37115">
        <ele>110.3</ele>
        <time>2023-01-25T13:19:49Z</time>
      </trkpt>
      <trkpt lat="49.95631" lon="2.37117">
        <ele>110.3</ele>
        <time>2023-01-25T13:19:50Z</time>
      </trkpt>
      <trkpt lat="49.95632" lon="2.37118">
        <ele>110.3</ele>
        <time>2023-01-25T13:19:51Z</time>
      </trkpt>
      <trkpt lat="49.95633" lon="2.37119">
        <ele>110.4</ele>
        <time>2023-01-25T13:19:53Z</time>
      </trkpt>
      <trkpt lat="49.95634" lon="2.37121">
        <ele>110.4</ele>
        <time>2023-01-25T13:19:54Z</time>
      </trkpt>
      <trkpt lat="49.95636" lon="2.37123">
        <ele>110.5</ele>
        <time>2023-01-25T13:19:55Z</time>
      </trkpt>
      <trkpt lat="49.95636" lon="2.37124">
        <ele>110.5</ele>
        <time>2023-01-25T13:19:56Z</time>
      </trkpt>
      <trkpt lat="49.95637" lon="2.37125">
        <ele>110.5</ele>
        <time>2023-01-25T13:19:57Z</time>
      </trkpt>
      <trkpt lat="49.95639" lon="2.37127">
        <ele>110.6</ele>
        <time>2023-01-25T13:19:58Z</time>
      </trkpt>
      <trkpt lat="49.95639" lon="2.37128">
        <ele>110.6</ele>
        <time>2023-01-25T13:19:59Z</time>
      </trkpt>
      <trkpt lat="49.95639" lon="2.37129">
        <ele>110.6</ele>
        <time>2023-01-25T13:20:00Z</time>
      </trkpt>
      <trkpt lat="49.9564" lon="2.3713">
        <ele>110.7</ele>
        <time>2023-01-25T13:20:02Z</time>
      </trkpt>
      <trkpt lat="49.95642" lon="2.37132">
        <ele>110.7</ele>
        <time>2023-01-25T13:20:03Z</time>
      </trkpt>
      <trkpt lat="49.95643" lon="2.37132">
        <ele>110.7</ele>
        <time>2023-01-25T13:20:04Z</time>
      </trkpt>
      <trkpt lat="49.95644" lon="2.37134">
        <ele>110.8</ele>
        <time>2023-01-25T13:20:05Z</time>
      </trkpt>
      <trkpt lat="49.95645" lon="2.37135">
        <ele>110.8</ele>
        <time>2023-01-25T13:20:06Z</time>
      </trkpt>
      <trkpt lat="49.95646" lon="2.37136">
        <ele>110.9</ele>
        <time>2023-01-25T13:20:07Z</time>
      </trkpt>
      <trkpt lat="49.95647" lon="2.37137">
        <ele>110.9</ele>
        <time>2023-01-25T13:20:08Z</time>
      </trkpt>
      <trkpt lat="49.95648" lon="2.37138">
        <ele>111</ele>
        <time>2023-01-25T13:20:09Z</time>
      </trkpt>
      <trkpt lat="49.95649" lon="2.37139">
        <ele>111</ele>
        <time>2023-01-25T13:20:11Z</time>
      </trkpt>
      <trkpt lat="49.9565" lon="2.3714">
        <ele>111</ele>
        <time>2023-01-25T13:20:12Z</time>
      </trkpt>
      <trkpt lat="49.95652" lon="2.37141">
        <ele>111.1</ele>
        <time>2023-01-25T13:20:13Z</time>
      </trkpt>
      <trkpt lat="49.95653" lon="2.37142">
        <ele>111.1</ele>
        <time>2023-01-25T13:20:14Z</time>
      </trkpt>
      <trkpt lat="49.95654" lon="2.37143">
        <ele>111.1</ele>
        <time>2023-01-25T13:20:15Z</time>
      </trkpt>
      <trkpt lat="49.95655" lon="2.37144">
        <ele>111.2</ele>
        <time>2023-01-25T13:20:16Z</time>
      </trkpt>
      <trkpt lat="49.95656" lon="2.37145">
        <ele>111.2</ele>
        <time>2023-01-25T13:20:17Z</time>
      </trkpt>
      <trkpt lat="49.95657" lon="2.37147">
        <ele>111.2</ele>
        <time>2023-01-25T13:20:18Z</time>
      </trkpt>
      <trkpt lat="49.95658" lon="2.37148">
        <ele>111.3</ele>
        <time>2023-01-25T13:20:20Z</time>
      </trkpt>
      <trkpt lat="49.95659" lon="2.37148">
        <ele>111.3</ele>
        <time>2023-01-25T13:20:21Z</time>
      </trkpt>
      <trkpt lat="49.9566" lon="2.37149">
        <ele>111.3</ele>
        <time>2023-01-25T13:20:22Z</time>
      </trkpt>
      <trkpt lat="49.95661" lon="2.37151">
        <ele>111.4</ele>
        <time>2023-01-25T13:20:23Z</time>
      </trkpt>
      <trkpt lat="49.95662" lon="2.37152">
        <ele>111.4</ele>
        <time>2023-01-25T13:20:24Z</time>
      </trkpt>
      <trkpt lat="49.95663" lon="2.37153">
        <ele>111.4</ele>
        <time>2023-01-25T13:20:25Z</time>
      </trkpt>
      <trkpt lat="49.95664" lon="2.37154">
        <ele>111.4</ele>
        <time>2023-01-25T13:20:26Z</time>
      </trkpt>
      <trkpt lat="49.95665" lon="2.37155">
        <ele>111.4</ele>
        <time>2023-01-25T13:20:28Z</time>
      </trkpt>
      <trkpt lat="49.95667" lon="2.37156">
        <ele>111.5</ele>
        <time>2023-01-25T13:20:29Z</time>
      </trkpt>
      <trkpt lat="49.95668" lon="2.37157">
        <ele>111.5</ele>
        <time>2023-01-25T13:20:30Z</time>
      </trkpt>
      <trkpt lat="49.95669" lon="2.37158">
        <ele>111.5</ele>
        <time>2023-01-25T13:20:31Z</time>
      </trkpt>
      <trkpt lat="49.9567" lon="2.37158">
        <ele>111.6</ele>
        <time>2023-01-25T13:20:32Z</time>
      </trkpt>
      <trkpt lat="49.95671" lon="2.3716">
        <ele>111.6</ele>
        <time>2023-01-25T13:20:33Z</time>
      </trkpt>
      <trkpt lat="49.95672" lon="2.3716">
        <ele>111.6</ele>
        <time>2023-01-25T13:20:34Z</time>
      </trkpt>
      <trkpt lat="49.95673" lon="2.37161">
        <ele>111.6</ele>
        <time>2023-01-25T13:20:35Z</time>
      </trkpt>
      <trkpt lat="49.95675" lon="2.37163">
        <ele>111.6</ele>
        <time>2023-01-25T13:20:37Z</time>
      </trkpt>
      <trkpt lat="49.95676" lon="2.37163">
        <ele>111.7</ele>
        <time>2023-01-25T13:20:38Z</time>
      </trkpt>
      <trkpt lat="49.95677" lon="2.37164">
        <ele>111.7</ele>
        <time>2023-01-25T13:20:39Z</time>
      </trkpt>
      <trkpt lat="49.95678" lon="2.37165">
        <ele>111.7</ele>
        <time>2023-01-25T13:20:40Z</time>
      </trkpt>
      <trkpt lat="49.95679" lon="2.37166">
        <ele>111.7</ele>
        <time>2023-01-25T13:20:41Z</time>
      </trkpt>
      <trkpt lat="49.9568" lon="2.37166">
        <ele>111.7</ele>
        <time>2023-01-25T13:20:42Z</time>
      </trkpt>
      <trkpt lat="49.95682" lon="2.37167">
        <ele>111.8</ele>
        <time>2023-01-25T13:20:44Z</time>
      </trkpt>
      <trkpt lat="49.95682" lon="2.37167">
        <ele>111.8</ele>
        <time>2023-01-25T13:20:45Z</time>
      </trkpt>
      <trkpt lat="49.95684" lon="2.37168">
        <ele>111.8</ele>
        <time>2023-01-25T13:20:47Z</time>
      </trkpt>
      <trkpt lat="49.95685" lon="2.37168">
        <ele>111.8</ele>
        <time>2023-01-25T13:20:48Z</time>
      </trkpt>
      <trkpt lat="49.95685" lon="2.37168">
        <ele>111.8</ele>
        <time>2023-01-25T13:20:49Z</time>
      </trkpt>
      <trkpt lat="49.95686" lon="2.37168">
        <ele>111.8</ele>
        <time>2023-01-25T13:20:50Z</time>
      </trkpt>
      <trkpt lat="49.95687" lon="2.37167">
        <ele>111.8</ele>
        <time>2023-01-25T13:20:52Z</time>
      </trkpt>
      <trkpt lat="49.95687" lon="2.37167">
        <ele>111.8</ele>
        <time>2023-01-25T13:20:53Z</time>
      </trkpt>
      <trkpt lat="49.95687" lon="2.37167">
        <ele>111.9</ele>
        <time>2023-01-25T13:20:55Z</time>
      </trkpt>
      <trkpt lat="49.95687" lon="2.37167">
        <ele>111.9</ele>
        <time>2023-01-25T13:20:56Z</time>
      </trkpt>
      <trkpt lat="49.95687" lon="2.37167">
        <ele>111.9</ele>
        <time>2023-01-25T13:20:57Z</time>
      </trkpt>
      <trkpt lat="49.95687" lon="2.37167">
        <ele>111.9</ele>
        <time>2023-01-25T13:20:59Z</time>
      </trkpt>
      <trkpt lat="49.95687" lon="2.37167">
        <ele>111.9</ele>
        <time>2023-01-25T13:21:00Z</time>
      </trkpt>
      <trkpt lat="49.95687" lon="2.37167">
        <ele>111.9</ele>
        <time>2023-01-25T13:21:02Z</time>
      </trkpt>
      <trkpt lat="49.95687" lon="2.37167">
        <ele>111.9</ele>
        <time>2023-01-25T13:21:03Z</time>
      </trkpt>
      <trkpt lat="49.95687" lon="2.37167">
        <ele>111.9</ele>
        <time>2023-01-25T13:21:04Z</time>
      </trkpt>
      <trkpt lat="49.95687" lon="2.37167">
        <ele>111.9</ele>
        <time>2023-01-25T13:21:06Z</time>
      </trkpt>
      <trkpt lat="49.95687" lon="2.37167">
        <ele>111.9</ele>
        <time>2023-01-25T13:21:07Z</time>
      </trkpt>
      <trkpt lat="49.95686" lon="2.37167">
        <ele>111.9</ele>
        <time>2023-01-25T13:21:08Z</time>
      </trkpt>
      <trkpt lat="49.95686" lon="2.37167">
        <ele>111.9</ele>
        <time>2023-01-25T13:21:09Z</time>
      </trkpt>
      <trkpt lat="49.95686" lon="2.37167">
        <ele>111.9</ele>
        <time>2023-01-25T13:21:10Z</time>
      </trkpt>
      <trkpt lat="49.95686" lon="2.37167">
        <ele>111.9</ele>
        <time>2023-01-25T13:21:11Z</time>
      </trkpt>
      <trkpt lat="49.95686" lon="2.37167">
        <ele>111.9</ele>
        <time>2023-01-25T13:21:12Z</time>
      </trkpt>
      <trkpt lat="49.95685" lon="2.37167">
        <ele>111.9</ele>
        <time>2023-01-25T13:21:13Z</time>
      </trkpt>
      <trkpt lat="49.95685" lon="2.37167">
        <ele>111.9</ele>
        <time>2023-01-25T13:21:14Z</time>
      </trkpt>
      <trkpt lat="49.95685" lon="2.37167">
        <ele>111.9</ele>
        <time>2023-01-25T13:21:15Z</time>
      </trkpt>
      <trkpt lat="49.95685" lon="2.37167">
        <ele>111.9</ele>
        <time>2023-01-25T13:21:16Z</time>
      </trkpt>
      <trkpt lat="49.95685" lon="2.37167">
        <ele>111.9</ele>
        <time>2023-01-25T13:21:17Z</time>
      </trkpt>
      <trkpt lat="49.95685" lon="2.37167">
        <ele>111.9</ele>
        <time>2023-01-25T13:21:18Z</time>
      </trkpt>
      <trkpt lat="49.95685" lon="2.37167">
        <ele>111.9</ele>
        <time>2023-01-25T13:21:19Z</time>
      </trkpt>
      <trkpt lat="49.95685" lon="2.37167">
        <ele>111.9</ele>
        <time>2023-01-25T13:21:20Z</time>
      </trkpt>
      <trkpt lat="49.95685" lon="2.37167">
        <ele>111.9</ele>
        <time>2023-01-25T13:21:21Z</time>
      </trkpt>
      <trkpt lat="49.95685" lon="2.37167">
        <ele>111.9</ele>
        <time>2023-01-25T13:21:22Z</time>
      </trkpt>
      <trkpt lat="49.95685" lon="2.37167">
        <ele>111.9</ele>
        <time>2023-01-25T13:21:23Z</time>
      </trkpt>
      <trkpt lat="49.95685" lon="2.37167">
        <ele>111.9</ele>
        <time>2023-01-25T13:21:24Z</time>
      </trkpt>
      <trkpt lat="49.95685" lon="2.37167">
        <ele>111.9</ele>
        <time>2023-01-25T13:21:25Z</time>
      </trkpt>
      <trkpt lat="49.95685" lon="2.37167">
        <ele>111.9</ele>
        <time>2023-01-25T13:21:26Z</time>
      </trkpt>
      <trkpt lat="49.95685" lon="2.37167">
        <ele>111.9</ele>
        <time>2023-01-25T13:21:27Z</time>
      </trkpt>
      <trkpt lat="49.95685" lon="2.37167">
        <ele>111.9</ele>
        <time>2023-01-25T13:21:28Z</time>
      </trkpt>
      <trkpt lat="49.95685" lon="2.37167">
        <ele>111.9</ele>
        <time>2023-01-25T13:21:29Z</time>
      </trkpt>
      <trkpt lat="49.95685" lon="2.37167">
        <ele>111.9</ele>
        <time>2023-01-25T13:21:30Z</time>
      </trkpt>
      <trkpt lat="49.95685" lon="2.37167">
        <ele>111.9</ele>
        <time>2023-01-25T13:21:31Z</time>
      </trkpt>
      <trkpt lat="49.95685" lon="2.37167">
        <ele>111.9</ele>
        <time>2023-01-25T13:21:32Z</time>
      </trkpt>
      <trkpt lat="49.95685" lon="2.37167">
        <ele>111.9</ele>
        <time>2023-01-25T13:21:33Z</time>
      </trkpt>
      <trkpt lat="49.95685" lon="2.37167">
        <ele>111.9</ele>
        <time>2023-01-25T13:21:34Z</time>
      </trkpt>
      <trkpt lat="49.95685" lon="2.37167">
        <ele>111.9</ele>
        <time>2023-01-25T13:21:35Z</time>
      </trkpt>
      <trkpt lat="49.95685" lon="2.37167">
        <ele>111.9</ele>
        <time>2023-01-25T13:21:36Z</time>
      </trkpt>
      <trkpt lat="49.95685" lon="2.37167">
        <ele>111.9</ele>
        <time>2023-01-25T13:21:37Z</time>
      </trkpt>
      <trkpt lat="49.95685" lon="2.37167">
        <ele>111.9</ele>
        <time>2023-01-25T13:21:38Z</time>
      </trkpt>
      <trkpt lat="49.95685" lon="2.37167">
        <ele>111.9</ele>
        <time>2023-01-25T13:21:39Z</time>
      </trkpt>
      <trkpt lat="49.95685" lon="2.37167">
        <ele>111.9</ele>
        <time>2023-01-25T13:21:40Z</time>
      </trkpt>
      <trkpt lat="49.95685" lon="2.37167">
        <ele>111.9</ele>
        <time>2023-01-25T13:21:41Z</time>
      </trkpt>
      <trkpt lat="49.95685" lon="2.37167">
        <ele>111.9</ele>
        <time>2023-01-25T13:21:42Z</time>
      </trkpt>
      <trkpt lat="49.95685" lon="2.37167">
        <ele>111.9</ele>
        <time>2023-01-25T13:21:43Z</time>
      </trkpt>
      <trkpt lat="49.95685" lon="2.37167">
        <ele>111.9</ele>
        <time>2023-01-25T13:21:44Z</time>
      </trkpt>
      <trkpt lat="49.95685" lon="2.37167">
        <ele>111.9</ele>
        <time>2023-01-25T13:21:45Z</time>
      </trkpt>
      <trkpt lat="49.95685" lon="2.37167">
        <ele>111.9</ele>
        <time>2023-01-25T13:21:46Z</time>
      </trkpt>
      <trkpt lat="49.95685" lon="2.37167">
        <ele>111.9</ele>
        <time>2023-01-25T13:21:47Z</time>
      </trkpt>
      <trkpt lat="49.95685" lon="2.37167">
        <ele>111.9</ele>
        <time>2023-01-25T13:21:48Z</time>
      </trkpt>
      <trkpt lat="49.95685" lon="2.37167">
        <ele>111.9</ele>
        <time>2023-01-25T13:21:49Z</time>
      </trkpt>
      <trkpt lat="49.95685" lon="2.37167">
        <ele>111.9</ele>
        <time>2023-01-25T13:21:50Z</time>
      </trkpt>
      <trkpt lat="49.95685" lon="2.37167">
        <ele>111.9</ele>
        <time>2023-01-25T13:21:51Z</time>
      </trkpt>
      <trkpt lat="49.95685" lon="2.37167">
        <ele>111.9</ele>
        <time>2023-01-25T13:21:52Z</time>
      </trkpt>
      <trkpt lat="49.95685" lon="2.37167">
        <ele>111.9</ele>
        <time>2023-01-25T13:21:53Z</time>
      </trkpt>
      <trkpt lat="49.95685" lon="2.37167">
        <ele>111.9</ele>
        <time>2023-01-25T13:21:54Z</time>
      </trkpt>
      <trkpt lat="49.95685" lon="2.37167">
        <ele>111.9</ele>
        <time>2023-01-25T13:21:55Z</time>
      </trkpt>
      <trkpt lat="49.95685" lon="2.37167">
        <ele>111.9</ele>
        <time>2023-01-25T13:21:56Z</time>
      </trkpt>
      <trkpt lat="49.95685" lon="2.37167">
        <ele>111.9</ele>
        <time>2023-01-25T13:21:57Z</time>
      </trkpt>
      <trkpt lat="49.95685" lon="2.37167">
        <ele>111.9</ele>
        <time>2023-01-25T13:21:58Z</time>
      </trkpt>
      <trkpt lat="49.95685" lon="2.37167">
        <ele>111.9</ele>
        <time>2023-01-25T13:21:59Z</time>
      </trkpt>
      <trkpt lat="49.95685" lon="2.37167">
        <ele>111.9</ele>
        <time>2023-01-25T13:22:00Z</time>
      </trkpt>
      <trkpt lat="49.95685" lon="2.37167">
        <ele>111.9</ele>
        <time>2023-01-25T13:22:01Z</time>
      </trkpt>
      <trkpt lat="49.95685" lon="2.37167">
        <ele>111.9</ele>
        <time>2023-01-25T13:22:02Z</time>
      </trkpt>
      <trkpt lat="49.95685" lon="2.37167">
        <ele>111.9</ele>
        <time>2023-01-25T13:22:03Z</time>
      </trkpt>
      <trkpt lat="49.95685" lon="2.37167">
        <ele>111.9</ele>
        <time>2023-01-25T13:22:04Z</time>
      </trkpt>
      <trkpt lat="49.95685" lon="2.37167">
        <ele>111.9</ele>
        <time>2023-01-25T13:22:05Z</time>
      </trkpt>
      <trkpt lat="49.95685" lon="2.37167">
        <ele>111.9</ele>
        <time>2023-01-25T13:22:06Z</time>
      </trkpt>
      <trkpt lat="49.95685" lon="2.37167">
        <ele>111.9</ele>
        <time>2023-01-25T13:22:07Z</time>
      </trkpt>
      <trkpt lat="49.95685" lon="2.37167">
        <ele>111.9</ele>
        <time>2023-01-25T13:22:08Z</time>
      </trkpt>
      <trkpt lat="49.95685" lon="2.37167">
        <ele>111.9</ele>
        <time>2023-01-25T13:22:09Z</time>
      </trkpt>
      <trkpt lat="49.95685" lon="2.37167">
        <ele>111.9</ele>
        <time>2023-01-25T13:22:10Z</time>
      </trkpt>
      <trkpt lat="49.95685" lon="2.37167">
        <ele>111.9</ele>
        <time>2023-01-25T13:22:11Z</time>
      </trkpt>
      <trkpt lat="49.95685" lon="2.37167">
        <ele>111.9</ele>
        <time>2023-01-25T13:22:12Z</time>
      </trkpt>
      <trkpt lat="49.95685" lon="2.37167">
        <ele>111.9</ele>
        <time>2023-01-25T13:22:13Z</time>
      </trkpt>
      <trkpt lat="49.95685" lon="2.37167">
        <ele>111.9</ele>
        <time>2023-01-25T13:22:14Z</time>
      </trkpt>
      <trkpt lat="49.95685" lon="2.37167">
        <ele>111.9</ele>
        <time>2023-01-25T13:22:15Z</time>
      </trkpt>
      <trkpt lat="49.95685" lon="2.37167">
        <ele>111.9</ele>
        <time>2023-01-25T13:22:16Z</time>
      </trkpt>
      <trkpt lat="49.95685" lon="2.37167">
        <ele>111.9</ele>
        <time>2023-01-25T13:22:17Z</time>
      </trkpt>
      <trkpt lat="49.95685" lon="2.37167">
        <ele>111.9</ele>
        <time>2023-01-25T13:22:18Z</time>
      </trkpt>
      <trkpt lat="49.95685" lon="2.37167">
        <ele>111.9</ele>
        <time>2023-01-25T13:22:19Z</time>
      </trkpt>
      <trkpt lat="49.95685" lon="2.37167">
        <ele>111.9</ele>
        <time>2023-01-25T13:22:20Z</time>
      </trkpt>
      <trkpt lat="49.95685" lon="2.37167">
        <ele>111.9</ele>
        <time>2023-01-25T13:22:21Z</time>
      </trkpt>
      <trkpt lat="49.95685" lon="2.37167">
        <ele>111.9</ele>
        <time>2023-01-25T13:22:22Z</time>
      </trkpt>
      <trkpt lat="49.95685" lon="2.37167">
        <ele>111.9</ele>
        <time>2023-01-25T13:22:23Z</time>
      </trkpt>
      <trkpt lat="49.95685" lon="2.37167">
        <ele>111.9</ele>
        <time>2023-01-25T13:22:24Z</time>
      </trkpt>
      <trkpt lat="49.95685" lon="2.37167">
        <ele>111.9</ele>
        <time>2023-01-25T13:22:25Z</time>
      </trkpt>
      <trkpt lat="49.95685" lon="2.37167">
        <ele>111.9</ele>
        <time>2023-01-25T13:22:26Z</time>
      </trkpt>
      <trkpt lat="49.95685" lon="2.37167">
        <ele>111.9</ele>
        <time>2023-01-25T13:22:27Z</time>
      </trkpt>
      <trkpt lat="49.95685" lon="2.37167">
        <ele>111.9</ele>
        <time>2023-01-25T13:22:28Z</time>
      </trkpt>
      <trkpt lat="49.95685" lon="2.37167">
        <ele>111.9</ele>
        <time>2023-01-25T13:22:29Z</time>
      </trkpt>
      <trkpt lat="49.95684" lon="2.37167">
        <ele>111.9</ele>
        <time>2023-01-25T13:22:30Z</time>
      </trkpt>
      <trkpt lat="49.95682" lon="2.37168">
        <ele>112</ele>
        <time>2023-01-25T13:22:31Z</time>
      </trkpt>
      <trkpt lat="49.95681" lon="2.37169">
        <ele>112</ele>
        <time>2023-01-25T13:22:32Z</time>
      </trkpt>
      <trkpt lat="49.95681" lon="2.37169">
        <ele>112</ele>
        <time>2023-01-25T13:22:33Z</time>
      </trkpt>
      <trkpt lat="49.95682" lon="2.3717">
        <ele>112</ele>
        <time>2023-01-25T13:22:34Z</time>
      </trkpt>
      <trkpt lat="49.95682" lon="2.3717">
        <ele>112</ele>
        <time>2023-01-25T13:22:35Z</time>
      </trkpt>
      <trkpt lat="49.95683" lon="2.37171">
        <ele>112</ele>
        <time>2023-01-25T13:22:36Z</time>
      </trkpt>
      <trkpt lat="49.95684" lon="2.37171">
        <ele>112</ele>
        <time>2023-01-25T13:22:37Z</time>
      </trkpt>
      <trkpt lat="49.95685" lon="2.37172">
        <ele>112</ele>
        <time>2023-01-25T13:22:38Z</time>
      </trkpt>
      <trkpt lat="49.95686" lon="2.37173">
        <ele>112.1</ele>
        <time>2023-01-25T13:22:40Z</time>
      </trkpt>
      <trkpt lat="49.95687" lon="2.37174">
        <ele>112.1</ele>
        <time>2023-01-25T13:22:41Z</time>
      </trkpt>
      <trkpt lat="49.95688" lon="2.37175">
        <ele>112.1</ele>
        <time>2023-01-25T13:22:42Z</time>
      </trkpt>
      <trkpt lat="49.9569" lon="2.37177">
        <ele>112.1</ele>
        <time>2023-01-25T13:22:43Z</time>
      </trkpt>
      <trkpt lat="49.95692" lon="2.37178">
        <ele>112.1</ele>
        <time>2023-01-25T13:22:44Z</time>
      </trkpt>
      <trkpt lat="49.95692" lon="2.37179">
        <ele>112.2</ele>
        <time>2023-01-25T13:22:45Z</time>
      </trkpt>
      <trkpt lat="49.95693" lon="2.37181">
        <ele>112.2</ele>
        <time>2023-01-25T13:22:46Z</time>
      </trkpt>
      <trkpt lat="49.95694" lon="2.37182">
        <ele>112.2</ele>
        <time>2023-01-25T13:22:48Z</time>
      </trkpt>
      <trkpt lat="49.95695" lon="2.37185">
        <ele>112.2</ele>
        <time>2023-01-25T13:22:49Z</time>
      </trkpt>
      <trkpt lat="49.95696" lon="2.37186">
        <ele>112.2</ele>
        <time>2023-01-25T13:22:50Z</time>
      </trkpt>
      <trkpt lat="49.95698" lon="2.37188">
        <ele>112.2</ele>
        <time>2023-01-25T13:22:51Z</time>
      </trkpt>
      <trkpt lat="49.95698" lon="2.37189">
        <ele>112.2</ele>
        <time>2023-01-25T13:22:52Z</time>
      </trkpt>
      <trkpt lat="49.95699" lon="2.3719">
        <ele>112.2</ele>
        <time>2023-01-25T13:22:53Z</time>
      </trkpt>
      <trkpt lat="49.957" lon="2.37191">
        <ele>112.3</ele>
        <time>2023-01-25T13:22:54Z</time>
      </trkpt>
      <trkpt lat="49.95701" lon="2.37193">
        <ele>112.3</ele>
        <time>2023-01-25T13:22:55Z</time>
      </trkpt>
      <trkpt lat="49.95702" lon="2.37194">
        <ele>112.3</ele>
        <time>2023-01-25T13:22:57Z</time>
      </trkpt>
      <trkpt lat="49.95703" lon="2.37196">
        <ele>112.3</ele>
        <time>2023-01-25T13:22:58Z</time>
      </trkpt>
      <trkpt lat="49.95704" lon="2.37198">
        <ele>112.3</ele>
        <time>2023-01-25T13:22:59Z</time>
      </trkpt>
      <trkpt lat="49.95704" lon="2.37199">
        <ele>112.3</ele>
        <time>2023-01-25T13:23:00Z</time>
      </trkpt>
      <trkpt lat="49.95705" lon="2.37201">
        <ele>112.3</ele>
        <time>2023-01-25T13:23:01Z</time>
      </trkpt>
      <trkpt lat="49.95706" lon="2.37202">
        <ele>112.3</ele>
        <time>2023-01-25T13:23:02Z</time>
      </trkpt>
      <trkpt lat="49.95706" lon="2.37203">
        <ele>112.3</ele>
        <time>2023-01-25T13:23:03Z</time>
      </trkpt>
      <trkpt lat="49.95707" lon="2.37204">
        <ele>112.3</ele>
        <time>2023-01-25T13:23:04Z</time>
      </trkpt>
      <trkpt lat="49.95708" lon="2.37204">
        <ele>112.3</ele>
        <time>2023-01-25T13:23:05Z</time>
      </trkpt>
      <trkpt lat="49.95709" lon="2.37206">
        <ele>112.3</ele>
        <time>2023-01-25T13:23:06Z</time>
      </trkpt>
      <trkpt lat="49.95709" lon="2.37207">
        <ele>112.3</ele>
        <time>2023-01-25T13:23:07Z</time>
      </trkpt>
      <trkpt lat="49.9571" lon="2.37209">
        <ele>112.3</ele>
        <time>2023-01-25T13:23:09Z</time>
      </trkpt>
      <trkpt lat="49.95711" lon="2.37211">
        <ele>112.3</ele>
        <time>2023-01-25T13:23:10Z</time>
      </trkpt>
      <trkpt lat="49.95711" lon="2.37213">
        <ele>112.3</ele>
        <time>2023-01-25T13:23:11Z</time>
      </trkpt>
      <trkpt lat="49.95713" lon="2.37216">
        <ele>112.4</ele>
        <time>2023-01-25T13:23:12Z</time>
      </trkpt>
      <trkpt lat="49.95713" lon="2.37217">
        <ele>112.4</ele>
        <time>2023-01-25T13:23:13Z</time>
      </trkpt>
      <trkpt lat="49.95714" lon="2.37218">
        <ele>112.4</ele>
        <time>2023-01-25T13:23:14Z</time>
      </trkpt>
      <trkpt lat="49.95714" lon="2.3722">
        <ele>112.4</ele>
        <time>2023-01-25T13:23:16Z</time>
      </trkpt>
      <trkpt lat="49.95715" lon="2.37221">
        <ele>112.4</ele>
        <time>2023-01-25T13:23:17Z</time>
      </trkpt>
      <trkpt lat="49.95716" lon="2.37222">
        <ele>112.4</ele>
        <time>2023-01-25T13:23:18Z</time>
      </trkpt>
      <trkpt lat="49.95717" lon="2.37224">
        <ele>112.4</ele>
        <time>2023-01-25T13:23:19Z</time>
      </trkpt>
      <trkpt lat="49.95717" lon="2.37225">
        <ele>112.4</ele>
        <time>2023-01-25T13:23:20Z</time>
      </trkpt>
      <trkpt lat="49.95718" lon="2.37226">
        <ele>112.4</ele>
        <time>2023-01-25T13:23:21Z</time>
      </trkpt>
      <trkpt lat="49.95719" lon="2.37227">
        <ele>112.5</ele>
        <time>2023-01-25T13:23:22Z</time>
      </trkpt>
      <trkpt lat="49.9572" lon="2.37228">
        <ele>112.5</ele>
        <time>2023-01-25T13:23:23Z</time>
      </trkpt>
      <trkpt lat="49.95721" lon="2.3723">
        <ele>112.5</ele>
        <time>2023-01-25T13:23:25Z</time>
      </trkpt>
      <trkpt lat="49.95722" lon="2.37231">
        <ele>112.5</ele>
        <time>2023-01-25T13:23:26Z</time>
      </trkpt>
      <trkpt lat="49.95723" lon="2.37233">
        <ele>112.6</ele>
        <time>2023-01-25T13:23:27Z</time>
      </trkpt>
      <trkpt lat="49.95724" lon="2.37234">
        <ele>112.6</ele>
        <time>2023-01-25T13:23:28Z</time>
      </trkpt>
      <trkpt lat="49.95725" lon="2.37235">
        <ele>112.6</ele>
        <time>2023-01-25T13:23:29Z</time>
      </trkpt>
      <trkpt lat="49.95726" lon="2.37236">
        <ele>112.6</ele>
        <time>2023-01-25T13:23:30Z</time>
      </trkpt>
      <trkpt lat="49.95728" lon="2.37239">
        <ele>112.7</ele>
        <time>2023-01-25T13:23:32Z</time>
      </trkpt>
      <trkpt lat="49.95728" lon="2.37239">
        <ele>112.7</ele>
        <time>2023-01-25T13:23:33Z</time>
      </trkpt>
      <trkpt lat="49.95729" lon="2.3724">
        <ele>112.7</ele>
        <time>2023-01-25T13:23:34Z</time>
      </trkpt>
      <trkpt lat="49.9573" lon="2.37243">
        <ele>112.8</ele>
        <time>2023-01-25T13:23:35Z</time>
      </trkpt>
      <trkpt lat="49.95731" lon="2.37244">
        <ele>112.8</ele>
        <time>2023-01-25T13:23:36Z</time>
      </trkpt>
      <trkpt lat="49.95731" lon="2.37245">
        <ele>112.8</ele>
        <time>2023-01-25T13:23:37Z</time>
      </trkpt>
      <trkpt lat="49.95732" lon="2.37246">
        <ele>112.8</ele>
        <time>2023-01-25T13:23:38Z</time>
      </trkpt>
      <trkpt lat="49.95733" lon="2.37248">
        <ele>112.9</ele>
        <time>2023-01-25T13:23:39Z</time>
      </trkpt>
      <trkpt lat="49.95734" lon="2.37249">
        <ele>112.9</ele>
        <time>2023-01-25T13:23:40Z</time>
      </trkpt>
      <trkpt lat="49.95734" lon="2.3725">
        <ele>112.9</ele>
        <time>2023-01-25T13:23:41Z</time>
      </trkpt>
      <trkpt lat="49.95735" lon="2.37252">
        <ele>113</ele>
        <time>2023-01-25T13:23:42Z</time>
      </trkpt>
      <trkpt lat="49.95736" lon="2.37253">
        <ele>113</ele>
        <time>2023-01-25T13:23:44Z</time>
      </trkpt>
      <trkpt lat="49.95738" lon="2.37255">
        <ele>113</ele>
        <time>2023-01-25T13:23:45Z</time>
      </trkpt>
      <trkpt lat="49.95739" lon="2.37257">
        <ele>113.1</ele>
        <time>2023-01-25T13:23:46Z</time>
      </trkpt>
      <trkpt lat="49.9574" lon="2.37258">
        <ele>113.1</ele>
        <time>2023-01-25T13:23:47Z</time>
      </trkpt>
      <trkpt lat="49.9574" lon="2.37258">
        <ele>113.1</ele>
        <time>2023-01-25T13:23:48Z</time>
      </trkpt>
      <trkpt lat="49.95742" lon="2.3726">
        <ele>113.2</ele>
        <time>2023-01-25T13:23:49Z</time>
      </trkpt>
      <trkpt lat="49.95743" lon="2.37261">
        <ele>113.2</ele>
        <time>2023-01-25T13:23:50Z</time>
      </trkpt>
      <trkpt lat="49.95744" lon="2.37263">
        <ele>113.2</ele>
        <time>2023-01-25T13:23:52Z</time>
      </trkpt>
      <trkpt lat="49.95745" lon="2.37264">
        <ele>113.2</ele>
        <time>2023-01-25T13:23:53Z</time>
      </trkpt>
      <trkpt lat="49.95746" lon="2.37265">
        <ele>113.3</ele>
        <time>2023-01-25T13:23:54Z</time>
      </trkpt>
      <trkpt lat="49.95747" lon="2.37266">
        <ele>113.3</ele>
        <time>2023-01-25T13:23:55Z</time>
      </trkpt>
      <trkpt lat="49.95748" lon="2.37267">
        <ele>113.3</ele>
        <time>2023-01-25T13:23:56Z</time>
      </trkpt>
      <trkpt lat="49.95749" lon="2.37268">
        <ele>113.3</ele>
        <time>2023-01-25T13:23:57Z</time>
      </trkpt>
      <trkpt lat="49.95751" lon="2.37271">
        <ele>113.4</ele>
        <time>2023-01-25T13:23:59Z</time>
      </trkpt>
      <trkpt lat="49.95752" lon="2.37272">
        <ele>113.4</ele>
        <time>2023-01-25T13:24:00Z</time>
      </trkpt>
      <trkpt lat="49.95753" lon="2.37274">
        <ele>113.4</ele>
        <time>2023-01-25T13:24:01Z</time>
      </trkpt>
      <trkpt lat="49.95754" lon="2.37277">
        <ele>113.4</ele>
        <time>2023-01-25T13:24:02Z</time>
      </trkpt>
      <trkpt lat="49.95754" lon="2.37278">
        <ele>113.4</ele>
        <time>2023-01-25T13:24:03Z</time>
      </trkpt>
      <trkpt lat="49.95755" lon="2.37279">
        <ele>113.5</ele>
        <time>2023-01-25T13:24:04Z</time>
      </trkpt>
      <trkpt lat="49.95756" lon="2.3728">
        <ele>113.5</ele>
        <time>2023-01-25T13:24:05Z</time>
      </trkpt>
      <trkpt lat="49.95756" lon="2.37281">
        <ele>113.5</ele>
        <time>2023-01-25T13:24:06Z</time>
      </trkpt>
      <trkpt lat="49.95757" lon="2.37283">
        <ele>113.5</ele>
        <time>2023-01-25T13:24:08Z</time>
      </trkpt>
      <trkpt lat="49.95758" lon="2.37284">
        <ele>113.5</ele>
        <time>2023-01-25T13:24:09Z</time>
      </trkpt>
      <trkpt lat="49.9576" lon="2.37286">
        <ele>113.6</ele>
        <time>2023-01-25T13:24:10Z</time>
      </trkpt>
      <trkpt lat="49.9576" lon="2.37287">
        <ele>113.6</ele>
        <time>2023-01-25T13:24:11Z</time>
      </trkpt>
      <trkpt lat="49.95761" lon="2.37288">
        <ele>113.6</ele>
        <time>2023-01-25T13:24:12Z</time>
      </trkpt>
      <trkpt lat="49.95762" lon="2.37289">
        <ele>113.6</ele>
        <time>2023-01-25T13:24:13Z</time>
      </trkpt>
      <trkpt lat="49.95763" lon="2.37292">
        <ele>113.6</ele>
        <time>2023-01-25T13:24:14Z</time>
      </trkpt>
      <trkpt lat="49.95764" lon="2.37293">
        <ele>113.7</ele>
        <time>2023-01-25T13:24:15Z</time>
      </trkpt>
      <trkpt lat="49.95765" lon="2.37294">
        <ele>113.7</ele>
        <time>2023-01-25T13:24:17Z</time>
      </trkpt>
      <trkpt lat="49.95766" lon="2.37295">
        <ele>113.7</ele>
        <time>2023-01-25T13:24:18Z</time>
      </trkpt>
      <trkpt lat="49.95766" lon="2.37296">
        <ele>113.7</ele>
        <time>2023-01-25T13:24:19Z</time>
      </trkpt>
      <trkpt lat="49.95767" lon="2.37298">
        <ele>113.8</ele>
        <time>2023-01-25T13:24:20Z</time>
      </trkpt>
      <trkpt lat="49.95768" lon="2.37298">
        <ele>113.8</ele>
        <time>2023-01-25T13:24:21Z</time>
      </trkpt>
      <trkpt lat="49.95769" lon="2.37299">
        <ele>113.8</ele>
        <time>2023-01-25T13:24:22Z</time>
      </trkpt>
      <trkpt lat="49.9577" lon="2.373">
        <ele>113.8</ele>
        <time>2023-01-25T13:24:23Z</time>
      </trkpt>
      <trkpt lat="49.95771" lon="2.37303">
        <ele>113.9</ele>
        <time>2023-01-25T13:24:24Z</time>
      </trkpt>
      <trkpt lat="49.95772" lon="2.37304">
        <ele>113.9</ele>
        <time>2023-01-25T13:24:26Z</time>
      </trkpt>
      <trkpt lat="49.95772" lon="2.37304">
        <ele>113.9</ele>
        <time>2023-01-25T13:24:27Z</time>
      </trkpt>
      <trkpt lat="49.95774" lon="2.37307">
        <ele>114</ele>
        <time>2023-01-25T13:24:28Z</time>
      </trkpt>
      <trkpt lat="49.95774" lon="2.37308">
        <ele>114</ele>
        <time>2023-01-25T13:24:29Z</time>
      </trkpt>
      <trkpt lat="49.95775" lon="2.37309">
        <ele>114</ele>
        <time>2023-01-25T13:24:30Z</time>
      </trkpt>
      <trkpt lat="49.95775" lon="2.37311">
        <ele>114</ele>
        <time>2023-01-25T13:24:31Z</time>
      </trkpt>
      <trkpt lat="49.95776" lon="2.37312">
        <ele>114</ele>
        <time>2023-01-25T13:24:33Z</time>
      </trkpt>
      <trkpt lat="49.95777" lon="2.37314">
        <ele>114.1</ele>
        <time>2023-01-25T13:24:34Z</time>
      </trkpt>
      <trkpt lat="49.95777" lon="2.37315">
        <ele>114.1</ele>
        <time>2023-01-25T13:24:35Z</time>
      </trkpt>
      <trkpt lat="49.95778" lon="2.37317">
        <ele>114.1</ele>
        <time>2023-01-25T13:24:36Z</time>
      </trkpt>
      <trkpt lat="49.95778" lon="2.37318">
        <ele>114.1</ele>
        <time>2023-01-25T13:24:37Z</time>
      </trkpt>
      <trkpt lat="49.9578" lon="2.37321">
        <ele>114.2</ele>
        <time>2023-01-25T13:24:38Z</time>
      </trkpt>
      <trkpt lat="49.9578" lon="2.37322">
        <ele>114.2</ele>
        <time>2023-01-25T13:24:39Z</time>
      </trkpt>
      <trkpt lat="49.95781" lon="2.37323">
        <ele>114.2</ele>
        <time>2023-01-25T13:24:41Z</time>
      </trkpt>
      <trkpt lat="49.95782" lon="2.37324">
        <ele>114.2</ele>
        <time>2023-01-25T13:24:42Z</time>
      </trkpt>
      <trkpt lat="49.95782" lon="2.37325">
        <ele>114.2</ele>
        <time>2023-01-25T13:24:43Z</time>
      </trkpt>
      <trkpt lat="49.95783" lon="2.37327">
        <ele>114.2</ele>
        <time>2023-01-25T13:24:44Z</time>
      </trkpt>
      <trkpt lat="49.95784" lon="2.37328">
        <ele>114.3</ele>
        <time>2023-01-25T13:24:45Z</time>
      </trkpt>
      <trkpt lat="49.95785" lon="2.3733">
        <ele>114.3</ele>
        <time>2023-01-25T13:24:46Z</time>
      </trkpt>
      <trkpt lat="49.95786" lon="2.37331">
        <ele>114.3</ele>
        <time>2023-01-25T13:24:47Z</time>
      </trkpt>
      <trkpt lat="49.95787" lon="2.37332">
        <ele>114.3</ele>
        <time>2023-01-25T13:24:48Z</time>
      </trkpt>
      <trkpt lat="49.95789" lon="2.37334">
        <ele>114.3</ele>
        <time>2023-01-25T13:24:50Z</time>
      </trkpt>
      <trkpt lat="49.95789" lon="2.37335">
        <ele>114.3</ele>
        <time>2023-01-25T13:24:51Z</time>
      </trkpt>
      <trkpt lat="49.9579" lon="2.37336">
        <ele>114.3</ele>
        <time>2023-01-25T13:24:52Z</time>
      </trkpt>
      <trkpt lat="49.95791" lon="2.37337">
        <ele>114.4</ele>
        <time>2023-01-25T13:24:53Z</time>
      </trkpt>
      <trkpt lat="49.95792" lon="2.37338">
        <ele>114.4</ele>
        <time>2023-01-25T13:24:54Z</time>
      </trkpt>
      <trkpt lat="49.95793" lon="2.3734">
        <ele>114.4</ele>
        <time>2023-01-25T13:24:55Z</time>
      </trkpt>
      <trkpt lat="49.95794" lon="2.37341">
        <ele>114.4</ele>
        <time>2023-01-25T13:24:56Z</time>
      </trkpt>
      <trkpt lat="49.95795" lon="2.37342">
        <ele>114.4</ele>
        <time>2023-01-25T13:24:57Z</time>
      </trkpt>
      <trkpt lat="49.95796" lon="2.37343">
        <ele>114.4</ele>
        <time>2023-01-25T13:24:59Z</time>
      </trkpt>
      <trkpt lat="49.95797" lon="2.37344">
        <ele>114.4</ele>
        <time>2023-01-25T13:25:00Z</time>
      </trkpt>
      <trkpt lat="49.95798" lon="2.37345">
        <ele>114.5</ele>
        <time>2023-01-25T13:25:01Z</time>
      </trkpt>
      <trkpt lat="49.95799" lon="2.37346">
        <ele>114.5</ele>
        <time>2023-01-25T13:25:02Z</time>
      </trkpt>
      <trkpt lat="49.958" lon="2.37348">
        <ele>114.5</ele>
        <time>2023-01-25T13:25:04Z</time>
      </trkpt>
      <trkpt lat="49.95801" lon="2.37349">
        <ele>114.5</ele>
        <time>2023-01-25T13:25:05Z</time>
      </trkpt>
      <trkpt lat="49.95803" lon="2.37351">
        <ele>114.5</ele>
        <time>2023-01-25T13:25:06Z</time>
      </trkpt>
      <trkpt lat="49.95804" lon="2.37353">
        <ele>114.6</ele>
        <time>2023-01-25T13:25:07Z</time>
      </trkpt>
      <trkpt lat="49.95805" lon="2.37354">
        <ele>114.6</ele>
        <time>2023-01-25T13:25:08Z</time>
      </trkpt>
      <trkpt lat="49.95806" lon="2.37354">
        <ele>114.6</ele>
        <time>2023-01-25T13:25:09Z</time>
      </trkpt>
      <trkpt lat="49.95807" lon="2.37356">
        <ele>114.6</ele>
        <time>2023-01-25T13:25:10Z</time>
      </trkpt>
      <trkpt lat="49.95807" lon="2.37357">
        <ele>114.6</ele>
        <time>2023-01-25T13:25:11Z</time>
      </trkpt>
      <trkpt lat="49.95809" lon="2.37358">
        <ele>114.6</ele>
        <time>2023-01-25T13:25:13Z</time>
      </trkpt>
      <trkpt lat="49.9581" lon="2.3736">
        <ele>114.6</ele>
        <time>2023-01-25T13:25:14Z</time>
      </trkpt>
      <trkpt lat="49.95811" lon="2.37361">
        <ele>114.6</ele>
        <time>2023-01-25T13:25:15Z</time>
      </trkpt>
      <trkpt lat="49.95812" lon="2.37362">
        <ele>114.6</ele>
        <time>2023-01-25T13:25:16Z</time>
      </trkpt>
      <trkpt lat="49.95813" lon="2.37363">
        <ele>114.7</ele>
        <time>2023-01-25T13:25:17Z</time>
      </trkpt>
      <trkpt lat="49.95814" lon="2.37364">
        <ele>114.7</ele>
        <time>2023-01-25T13:25:18Z</time>
      </trkpt>
      <trkpt lat="49.95814" lon="2.37365">
        <ele>114.7</ele>
        <time>2023-01-25T13:25:19Z</time>
      </trkpt>
      <trkpt lat="49.95815" lon="2.37367">
        <ele>114.7</ele>
        <time>2023-01-25T13:25:21Z</time>
      </trkpt>
      <trkpt lat="49.95816" lon="2.37368">
        <ele>114.7</ele>
        <time>2023-01-25T13:25:22Z</time>
      </trkpt>
      <trkpt lat="49.95817" lon="2.37369">
        <ele>114.7</ele>
        <time>2023-01-25T13:25:23Z</time>
      </trkpt>
      <trkpt lat="49.95817" lon="2.3737">
        <ele>114.7</ele>
        <time>2023-01-25T13:25:24Z</time>
      </trkpt>
      <trkpt lat="49.95818" lon="2.37371">
        <ele>114.7</ele>
        <time>2023-01-25T13:25:25Z</time>
      </trkpt>
      <trkpt lat="49.95819" lon="2.37371">
        <ele>114.7</ele>
        <time>2023-01-25T13:25:26Z</time>
      </trkpt>
      <trkpt lat="49.9582" lon="2.37372">
        <ele>114.7</ele>
        <time>2023-01-25T13:25:27Z</time>
      </trkpt>
      <trkpt lat="49.95821" lon="2.37373">
        <ele>114.7</ele>
        <time>2023-01-25T13:25:28Z</time>
      </trkpt>
      <trkpt lat="49.95822" lon="2.37374">
        <ele>114.7</ele>
        <time>2023-01-25T13:25:30Z</time>
      </trkpt>
      <trkpt lat="49.95823" lon="2.37375">
        <ele>114.7</ele>
        <time>2023-01-25T13:25:31Z</time>
      </trkpt>
      <trkpt lat="49.95824" lon="2.37375">
        <ele>114.7</ele>
        <time>2023-01-25T13:25:32Z</time>
      </trkpt>
      <trkpt lat="49.95825" lon="2.37377">
        <ele>114.7</ele>
        <time>2023-01-25T13:25:33Z</time>
      </trkpt>
      <trkpt lat="49.95826" lon="2.37377">
        <ele>114.7</ele>
        <time>2023-01-25T13:25:34Z</time>
      </trkpt>
      <trkpt lat="49.95827" lon="2.37378">
        <ele>114.7</ele>
        <time>2023-01-25T13:25:35Z</time>
      </trkpt>
      <trkpt lat="49.95828" lon="2.37379">
        <ele>114.7</ele>
        <time>2023-01-25T13:25:36Z</time>
      </trkpt>
      <trkpt lat="49.95829" lon="2.37379">
        <ele>114.7</ele>
        <time>2023-01-25T13:25:37Z</time>
      </trkpt>
      <trkpt lat="49.9583" lon="2.3738">
        <ele>114.7</ele>
        <time>2023-01-25T13:25:39Z</time>
      </trkpt>
      <trkpt lat="49.95831" lon="2.3738">
        <ele>114.7</ele>
        <time>2023-01-25T13:25:40Z</time>
      </trkpt>
      <trkpt lat="49.95832" lon="2.37382">
        <ele>114.7</ele>
        <time>2023-01-25T13:25:41Z</time>
      </trkpt>
      <trkpt lat="49.95833" lon="2.37382">
        <ele>114.7</ele>
        <time>2023-01-25T13:25:42Z</time>
      </trkpt>
      <trkpt lat="49.95834" lon="2.37383">
        <ele>114.7</ele>
        <time>2023-01-25T13:25:43Z</time>
      </trkpt>
      <trkpt lat="49.95835" lon="2.37383">
        <ele>114.7</ele>
        <time>2023-01-25T13:25:45Z</time>
      </trkpt>
      <trkpt lat="49.95836" lon="2.37384">
        <ele>114.7</ele>
        <time>2023-01-25T13:25:46Z</time>
      </trkpt>
      <trkpt lat="49.95837" lon="2.37384">
        <ele>114.7</ele>
        <time>2023-01-25T13:25:47Z</time>
      </trkpt>
      <trkpt lat="49.95838" lon="2.37385">
        <ele>114.7</ele>
        <time>2023-01-25T13:25:48Z</time>
      </trkpt>
      <trkpt lat="49.95839" lon="2.37385">
        <ele>114.7</ele>
        <time>2023-01-25T13:25:49Z</time>
      </trkpt>
      <trkpt lat="49.95841" lon="2.37386">
        <ele>114.7</ele>
        <time>2023-01-25T13:25:50Z</time>
      </trkpt>
      <trkpt lat="49.95842" lon="2.37387">
        <ele>114.7</ele>
        <time>2023-01-25T13:25:51Z</time>
      </trkpt>
      <trkpt lat="49.95843" lon="2.37387">
        <ele>114.7</ele>
        <time>2023-01-25T13:25:53Z</time>
      </trkpt>
      <trkpt lat="49.95845" lon="2.37389">
        <ele>114.7</ele>
        <time>2023-01-25T13:25:54Z</time>
      </trkpt>
      <trkpt lat="49.95846" lon="2.37389">
        <ele>114.7</ele>
        <time>2023-01-25T13:25:55Z</time>
      </trkpt>
      <trkpt lat="49.95847" lon="2.3739">
        <ele>114.7</ele>
        <time>2023-01-25T13:25:56Z</time>
      </trkpt>
      <trkpt lat="49.95849" lon="2.3739">
        <ele>114.7</ele>
        <time>2023-01-25T13:25:57Z</time>
      </trkpt>
      <trkpt lat="49.9585" lon="2.3739">
        <ele>114.7</ele>
        <time>2023-01-25T13:25:58Z</time>
      </trkpt>
      <trkpt lat="49.9585" lon="2.37391">
        <ele>114.7</ele>
        <time>2023-01-25T13:25:59Z</time>
      </trkpt>
      <trkpt lat="49.95852" lon="2.37391">
        <ele>114.7</ele>
        <time>2023-01-25T13:26:00Z</time>
      </trkpt>
      <trkpt lat="49.95853" lon="2.37391">
        <ele>114.7</ele>
        <time>2023-01-25T13:26:02Z</time>
      </trkpt>
      <trkpt lat="49.95854" lon="2.37392">
        <ele>114.7</ele>
        <time>2023-01-25T13:26:03Z</time>
      </trkpt>
      <trkpt lat="49.95856" lon="2.37392">
        <ele>114.7</ele>
        <time>2023-01-25T13:26:04Z</time>
      </trkpt>
      <trkpt lat="49.95857" lon="2.37393">
        <ele>114.7</ele>
        <time>2023-01-25T13:26:05Z</time>
      </trkpt>
      <trkpt lat="49.95858" lon="2.37393">
        <ele>114.7</ele>
        <time>2023-01-25T13:26:06Z</time>
      </trkpt>
      <trkpt lat="49.95859" lon="2.37394">
        <ele>114.7</ele>
        <time>2023-01-25T13:26:07Z</time>
      </trkpt>
      <trkpt lat="49.95861" lon="2.37395">
        <ele>114.7</ele>
        <time>2023-01-25T13:26:09Z</time>
      </trkpt>
      <trkpt lat="49.95862" lon="2.37396">
        <ele>114.7</ele>
        <time>2023-01-25T13:26:10Z</time>
      </trkpt>
      <trkpt lat="49.95864" lon="2.37397">
        <ele>114.7</ele>
        <time>2023-01-25T13:26:11Z</time>
      </trkpt>
      <trkpt lat="49.95865" lon="2.37398">
        <ele>114.7</ele>
        <time>2023-01-25T13:26:12Z</time>
      </trkpt>
      <trkpt lat="49.95866" lon="2.37398">
        <ele>114.7</ele>
        <time>2023-01-25T13:26:13Z</time>
      </trkpt>
      <trkpt lat="49.95867" lon="2.374">
        <ele>114.8</ele>
        <time>2023-01-25T13:26:14Z</time>
      </trkpt>
      <trkpt lat="49.95868" lon="2.374">
        <ele>114.8</ele>
        <time>2023-01-25T13:26:15Z</time>
      </trkpt>
      <trkpt lat="49.9587" lon="2.37402">
        <ele>114.8</ele>
        <time>2023-01-25T13:26:17Z</time>
      </trkpt>
      <trkpt lat="49.95871" lon="2.37402">
        <ele>114.8</ele>
        <time>2023-01-25T13:26:18Z</time>
      </trkpt>
      <trkpt lat="49.95872" lon="2.37403">
        <ele>114.8</ele>
        <time>2023-01-25T13:26:19Z</time>
      </trkpt>
      <trkpt lat="49.95873" lon="2.37404">
        <ele>114.8</ele>
        <time>2023-01-25T13:26:20Z</time>
      </trkpt>
      <trkpt lat="49.95874" lon="2.37405">
        <ele>114.8</ele>
        <time>2023-01-25T13:26:21Z</time>
      </trkpt>
      <trkpt lat="49.95876" lon="2.37406">
        <ele>114.9</ele>
        <time>2023-01-25T13:26:22Z</time>
      </trkpt>
      <trkpt lat="49.95877" lon="2.37406">
        <ele>114.9</ele>
        <time>2023-01-25T13:26:24Z</time>
      </trkpt>
      <trkpt lat="49.95878" lon="2.37407">
        <ele>114.9</ele>
        <time>2023-01-25T13:26:25Z</time>
      </trkpt>
      <trkpt lat="49.9588" lon="2.37408">
        <ele>114.9</ele>
        <time>2023-01-25T13:26:26Z</time>
      </trkpt>
      <trkpt lat="49.9588" lon="2.37409">
        <ele>114.9</ele>
        <time>2023-01-25T13:26:27Z</time>
      </trkpt>
      <trkpt lat="49.95881" lon="2.37409">
        <ele>114.9</ele>
        <time>2023-01-25T13:26:28Z</time>
      </trkpt>
      <trkpt lat="49.95882" lon="2.3741">
        <ele>115</ele>
        <time>2023-01-25T13:26:29Z</time>
      </trkpt>
      <trkpt lat="49.95884" lon="2.37411">
        <ele>115</ele>
        <time>2023-01-25T13:26:30Z</time>
      </trkpt>
      <trkpt lat="49.95885" lon="2.37412">
        <ele>115</ele>
        <time>2023-01-25T13:26:31Z</time>
      </trkpt>
      <trkpt lat="49.95886" lon="2.37412">
        <ele>115</ele>
        <time>2023-01-25T13:26:32Z</time>
      </trkpt>
      <trkpt lat="49.95888" lon="2.37414">
        <ele>115.1</ele>
        <time>2023-01-25T13:26:34Z</time>
      </trkpt>
      <trkpt lat="49.9589" lon="2.37415">
        <ele>115.1</ele>
        <time>2023-01-25T13:26:36Z</time>
      </trkpt>
      <trkpt lat="49.9589" lon="2.37416">
        <ele>115.1</ele>
        <time>2023-01-25T13:26:37Z</time>
      </trkpt>
      <trkpt lat="49.95891" lon="2.37417">
        <ele>115.1</ele>
        <time>2023-01-25T13:26:38Z</time>
      </trkpt>
      <trkpt lat="49.95892" lon="2.37418">
        <ele>115.2</ele>
        <time>2023-01-25T13:26:39Z</time>
      </trkpt>
      <trkpt lat="49.95893" lon="2.37419">
        <ele>115.2</ele>
        <time>2023-01-25T13:26:40Z</time>
      </trkpt>
      <trkpt lat="49.95895" lon="2.3742">
        <ele>115.2</ele>
        <time>2023-01-25T13:26:41Z</time>
      </trkpt>
      <trkpt lat="49.95896" lon="2.37422">
        <ele>115.2</ele>
        <time>2023-01-25T13:26:42Z</time>
      </trkpt>
      <trkpt lat="49.95898" lon="2.37424">
        <ele>115.3</ele>
        <time>2023-01-25T13:26:43Z</time>
      </trkpt>
      <trkpt lat="49.95898" lon="2.37425">
        <ele>115.3</ele>
        <time>2023-01-25T13:26:45Z</time>
      </trkpt>
      <trkpt lat="49.95899" lon="2.37425">
        <ele>115.3</ele>
        <time>2023-01-25T13:26:46Z</time>
      </trkpt>
      <trkpt lat="49.959" lon="2.37426">
        <ele>115.3</ele>
        <time>2023-01-25T13:26:47Z</time>
      </trkpt>
      <trkpt lat="49.959" lon="2.37427">
        <ele>115.3</ele>
        <time>2023-01-25T13:26:48Z</time>
      </trkpt>
      <trkpt lat="49.95901" lon="2.37428">
        <ele>115.3</ele>
        <time>2023-01-25T13:26:49Z</time>
      </trkpt>
      <trkpt lat="49.95903" lon="2.37429">
        <ele>115.4</ele>
        <time>2023-01-25T13:26:50Z</time>
      </trkpt>
      <trkpt lat="49.95904" lon="2.3743">
        <ele>115.4</ele>
        <time>2023-01-25T13:26:51Z</time>
      </trkpt>
      <trkpt lat="49.95905" lon="2.37431">
        <ele>115.4</ele>
        <time>2023-01-25T13:26:52Z</time>
      </trkpt>
      <trkpt lat="49.95906" lon="2.37432">
        <ele>115.4</ele>
        <time>2023-01-25T13:26:54Z</time>
      </trkpt>
      <trkpt lat="49.95907" lon="2.37433">
        <ele>115.4</ele>
        <time>2023-01-25T13:26:55Z</time>
      </trkpt>
      <trkpt lat="49.95908" lon="2.37434">
        <ele>115.5</ele>
        <time>2023-01-25T13:26:56Z</time>
      </trkpt>
      <trkpt lat="49.95909" lon="2.37435">
        <ele>115.5</ele>
        <time>2023-01-25T13:26:57Z</time>
      </trkpt>
      <trkpt lat="49.9591" lon="2.37436">
        <ele>115.5</ele>
        <time>2023-01-25T13:26:58Z</time>
      </trkpt>
      <trkpt lat="49.95911" lon="2.37436">
        <ele>115.5</ele>
        <time>2023-01-25T13:26:59Z</time>
      </trkpt>
      <trkpt lat="49.95911" lon="2.37437">
        <ele>115.5</ele>
        <time>2023-01-25T13:27:00Z</time>
      </trkpt>
      <trkpt lat="49.95913" lon="2.37437">
        <ele>115.5</ele>
        <time>2023-01-25T13:27:01Z</time>
      </trkpt>
      <trkpt lat="49.95915" lon="2.37439">
        <ele>115.6</ele>
        <time>2023-01-25T13:27:03Z</time>
      </trkpt>
      <trkpt lat="49.95916" lon="2.37439">
        <ele>115.6</ele>
        <time>2023-01-25T13:27:04Z</time>
      </trkpt>
      <trkpt lat="49.95916" lon="2.3744">
        <ele>115.6</ele>
        <time>2023-01-25T13:27:05Z</time>
      </trkpt>
      <trkpt lat="49.95919" lon="2.37441">
        <ele>115.6</ele>
        <time>2023-01-25T13:27:06Z</time>
      </trkpt>
      <trkpt lat="49.95919" lon="2.37441">
        <ele>115.7</ele>
        <time>2023-01-25T13:27:07Z</time>
      </trkpt>
      <trkpt lat="49.9592" lon="2.37441">
        <ele>115.7</ele>
        <time>2023-01-25T13:27:08Z</time>
      </trkpt>
      <trkpt lat="49.95922" lon="2.37442">
        <ele>115.7</ele>
        <time>2023-01-25T13:27:10Z</time>
      </trkpt>
      <trkpt lat="49.95923" lon="2.37442">
        <ele>115.7</ele>
        <time>2023-01-25T13:27:11Z</time>
      </trkpt>
      <trkpt lat="49.95924" lon="2.37442">
        <ele>115.7</ele>
        <time>2023-01-25T13:27:12Z</time>
      </trkpt>
      <trkpt lat="49.95926" lon="2.37443">
        <ele>115.8</ele>
        <time>2023-01-25T13:27:13Z</time>
      </trkpt>
      <trkpt lat="49.95927" lon="2.37444">
        <ele>115.8</ele>
        <time>2023-01-25T13:27:14Z</time>
      </trkpt>
      <trkpt lat="49.95928" lon="2.37444">
        <ele>115.8</ele>
        <time>2023-01-25T13:27:15Z</time>
      </trkpt>
      <trkpt lat="49.95929" lon="2.37445">
        <ele>115.8</ele>
        <time>2023-01-25T13:27:16Z</time>
      </trkpt>
      <trkpt lat="49.95931" lon="2.37445">
        <ele>115.8</ele>
        <time>2023-01-25T13:27:17Z</time>
      </trkpt>
      <trkpt lat="49.95933" lon="2.37446">
        <ele>115.8</ele>
        <time>2023-01-25T13:27:19Z</time>
      </trkpt>
      <trkpt lat="49.95934" lon="2.37447">
        <ele>115.9</ele>
        <time>2023-01-25T13:27:20Z</time>
      </trkpt>
      <trkpt lat="49.95935" lon="2.37447">
        <ele>115.9</ele>
        <time>2023-01-25T13:27:21Z</time>
      </trkpt>
      <trkpt lat="49.95936" lon="2.37448">
        <ele>115.9</ele>
        <time>2023-01-25T13:27:22Z</time>
      </trkpt>
      <trkpt lat="49.95938" lon="2.37449">
        <ele>115.9</ele>
        <time>2023-01-25T13:27:24Z</time>
      </trkpt>
      <trkpt lat="49.95939" lon="2.37449">
        <ele>115.9</ele>
        <time>2023-01-25T13:27:25Z</time>
      </trkpt>
      <trkpt lat="49.9594" lon="2.3745">
        <ele>115.9</ele>
        <time>2023-01-25T13:27:26Z</time>
      </trkpt>
      <trkpt lat="49.95942" lon="2.37451">
        <ele>115.9</ele>
        <time>2023-01-25T13:27:27Z</time>
      </trkpt>
      <trkpt lat="49.95943" lon="2.37452">
        <ele>115.9</ele>
        <time>2023-01-25T13:27:28Z</time>
      </trkpt>
      <trkpt lat="49.95944" lon="2.37453">
        <ele>115.9</ele>
        <time>2023-01-25T13:27:29Z</time>
      </trkpt>
      <trkpt lat="49.95946" lon="2.37454">
        <ele>115.9</ele>
        <time>2023-01-25T13:27:30Z</time>
      </trkpt>
      <trkpt lat="49.95947" lon="2.37456">
        <ele>116</ele>
        <time>2023-01-25T13:27:31Z</time>
      </trkpt>
      <trkpt lat="49.95948" lon="2.37457">
        <ele>116</ele>
        <time>2023-01-25T13:27:33Z</time>
      </trkpt>
      <trkpt lat="49.95949" lon="2.37458">
        <ele>116</ele>
        <time>2023-01-25T13:27:34Z</time>
      </trkpt>
      <trkpt lat="49.9595" lon="2.37458">
        <ele>116</ele>
        <time>2023-01-25T13:27:35Z</time>
      </trkpt>
      <trkpt lat="49.95951" lon="2.37459">
        <ele>116</ele>
        <time>2023-01-25T13:27:36Z</time>
      </trkpt>
      <trkpt lat="49.95952" lon="2.3746">
        <ele>116</ele>
        <time>2023-01-25T13:27:37Z</time>
      </trkpt>
      <trkpt lat="49.95954" lon="2.37461">
        <ele>116</ele>
        <time>2023-01-25T13:27:38Z</time>
      </trkpt>
      <trkpt lat="49.95955" lon="2.37462">
        <ele>116</ele>
        <time>2023-01-25T13:27:40Z</time>
      </trkpt>
      <trkpt lat="49.95956" lon="2.37463">
        <ele>116</ele>
        <time>2023-01-25T13:27:41Z</time>
      </trkpt>
      <trkpt lat="49.95957" lon="2.37463">
        <ele>116</ele>
        <time>2023-01-25T13:27:42Z</time>
      </trkpt>
      <trkpt lat="49.95958" lon="2.37464">
        <ele>116.1</ele>
        <time>2023-01-25T13:27:43Z</time>
      </trkpt>
      <trkpt lat="49.95959" lon="2.37465">
        <ele>116.1</ele>
        <time>2023-01-25T13:27:44Z</time>
      </trkpt>
      <trkpt lat="49.9596" lon="2.37466">
        <ele>116.1</ele>
        <time>2023-01-25T13:27:45Z</time>
      </trkpt>
      <trkpt lat="49.95962" lon="2.37467">
        <ele>116.1</ele>
        <time>2023-01-25T13:27:46Z</time>
      </trkpt>
      <trkpt lat="49.95963" lon="2.37468">
        <ele>116.1</ele>
        <time>2023-01-25T13:27:47Z</time>
      </trkpt>
      <trkpt lat="49.95964" lon="2.37468">
        <ele>116.1</ele>
        <time>2023-01-25T13:27:49Z</time>
      </trkpt>
      <trkpt lat="49.95965" lon="2.37469">
        <ele>116.1</ele>
        <time>2023-01-25T13:27:50Z</time>
      </trkpt>
      <trkpt lat="49.95966" lon="2.3747">
        <ele>116.2</ele>
        <time>2023-01-25T13:27:51Z</time>
      </trkpt>
      <trkpt lat="49.95967" lon="2.37471">
        <ele>116.2</ele>
        <time>2023-01-25T13:27:52Z</time>
      </trkpt>
      <trkpt lat="49.95968" lon="2.37472">
        <ele>116.2</ele>
        <time>2023-01-25T13:27:53Z</time>
      </trkpt>
      <trkpt lat="49.95969" lon="2.37473">
        <ele>116.2</ele>
        <time>2023-01-25T13:27:54Z</time>
      </trkpt>
      <trkpt lat="49.95971" lon="2.37474">
        <ele>116.2</ele>
        <time>2023-01-25T13:27:55Z</time>
      </trkpt>
      <trkpt lat="49.95971" lon="2.37475">
        <ele>116.2</ele>
        <time>2023-01-25T13:27:57Z</time>
      </trkpt>
      <trkpt lat="49.95972" lon="2.37476">
        <ele>116.2</ele>
        <time>2023-01-25T13:27:58Z</time>
      </trkpt>
      <trkpt lat="49.95974" lon="2.37478">
        <ele>116.3</ele>
        <time>2023-01-25T13:27:59Z</time>
      </trkpt>
      <trkpt lat="49.95975" lon="2.37478">
        <ele>116.3</ele>
        <time>2023-01-25T13:28:00Z</time>
      </trkpt>
      <trkpt lat="49.95976" lon="2.37479">
        <ele>116.3</ele>
        <time>2023-01-25T13:28:01Z</time>
      </trkpt>
      <trkpt lat="49.95976" lon="2.3748">
        <ele>116.3</ele>
        <time>2023-01-25T13:28:02Z</time>
      </trkpt>
      <trkpt lat="49.95977" lon="2.3748">
        <ele>116.3</ele>
        <time>2023-01-25T13:28:03Z</time>
      </trkpt>
      <trkpt lat="49.95978" lon="2.37481">
        <ele>116.3</ele>
        <time>2023-01-25T13:28:04Z</time>
      </trkpt>
      <trkpt lat="49.9598" lon="2.37481">
        <ele>116.4</ele>
        <time>2023-01-25T13:28:06Z</time>
      </trkpt>
      <trkpt lat="49.95981" lon="2.37482">
        <ele>116.4</ele>
        <time>2023-01-25T13:28:07Z</time>
      </trkpt>
      <trkpt lat="49.95982" lon="2.37483">
        <ele>116.4</ele>
        <time>2023-01-25T13:28:08Z</time>
      </trkpt>
      <trkpt lat="49.95983" lon="2.37483">
        <ele>116.4</ele>
        <time>2023-01-25T13:28:09Z</time>
      </trkpt>
      <trkpt lat="49.95984" lon="2.37484">
        <ele>116.4</ele>
        <time>2023-01-25T13:28:10Z</time>
      </trkpt>
      <trkpt lat="49.95986" lon="2.37486">
        <ele>116.5</ele>
        <time>2023-01-25T13:28:11Z</time>
      </trkpt>
      <trkpt lat="49.95987" lon="2.37486">
        <ele>116.5</ele>
        <time>2023-01-25T13:28:13Z</time>
      </trkpt>
      <trkpt lat="49.95988" lon="2.37487">
        <ele>116.5</ele>
        <time>2023-01-25T13:28:14Z</time>
      </trkpt>
      <trkpt lat="49.95989" lon="2.37488">
        <ele>116.5</ele>
        <time>2023-01-25T13:28:15Z</time>
      </trkpt>
      <trkpt lat="49.95989" lon="2.37488">
        <ele>116.5</ele>
        <time>2023-01-25T13:28:16Z</time>
      </trkpt>
      <trkpt lat="49.9599" lon="2.37489">
        <ele>116.5</ele>
        <time>2023-01-25T13:28:17Z</time>
      </trkpt>
      <trkpt lat="49.95992" lon="2.3749">
        <ele>116.6</ele>
        <time>2023-01-25T13:28:18Z</time>
      </trkpt>
      <trkpt lat="49.95993" lon="2.37491">
        <ele>116.6</ele>
        <time>2023-01-25T13:28:19Z</time>
      </trkpt>
      <trkpt lat="49.95993" lon="2.37492">
        <ele>116.6</ele>
        <time>2023-01-25T13:28:20Z</time>
      </trkpt>
      <trkpt lat="49.95995" lon="2.37493">
        <ele>116.6</ele>
        <time>2023-01-25T13:28:22Z</time>
      </trkpt>
      <trkpt lat="49.95996" lon="2.37493">
        <ele>116.6</ele>
        <time>2023-01-25T13:28:23Z</time>
      </trkpt>
      <trkpt lat="49.95997" lon="2.37494">
        <ele>116.6</ele>
        <time>2023-01-25T13:28:24Z</time>
      </trkpt>
      <trkpt lat="49.95998" lon="2.37495">
        <ele>116.6</ele>
        <time>2023-01-25T13:28:25Z</time>
      </trkpt>
      <trkpt lat="49.95999" lon="2.37495">
        <ele>116.6</ele>
        <time>2023-01-25T13:28:26Z</time>
      </trkpt>
      <trkpt lat="49.96001" lon="2.37497">
        <ele>116.6</ele>
        <time>2023-01-25T13:28:27Z</time>
      </trkpt>
      <trkpt lat="49.96002" lon="2.37497">
        <ele>116.6</ele>
        <time>2023-01-25T13:28:28Z</time>
      </trkpt>
      <trkpt lat="49.96003" lon="2.37498">
        <ele>116.6</ele>
        <time>2023-01-25T13:28:30Z</time>
      </trkpt>
      <trkpt lat="49.96004" lon="2.37498">
        <ele>116.6</ele>
        <time>2023-01-25T13:28:31Z</time>
      </trkpt>
      <trkpt lat="49.96005" lon="2.37499">
        <ele>116.6</ele>
        <time>2023-01-25T13:28:32Z</time>
      </trkpt>
      <trkpt lat="49.96006" lon="2.37499">
        <ele>116.6</ele>
        <time>2023-01-25T13:28:33Z</time>
      </trkpt>
      <trkpt lat="49.96008" lon="2.37501">
        <ele>116.6</ele>
        <time>2023-01-25T13:28:34Z</time>
      </trkpt>
      <trkpt lat="49.96009" lon="2.37502">
        <ele>116.6</ele>
        <time>2023-01-25T13:28:35Z</time>
      </trkpt>
      <trkpt lat="49.96009" lon="2.37502">
        <ele>116.6</ele>
        <time>2023-01-25T13:28:36Z</time>
      </trkpt>
      <trkpt lat="49.96011" lon="2.37503">
        <ele>116.6</ele>
        <time>2023-01-25T13:28:38Z</time>
      </trkpt>
      <trkpt lat="49.96012" lon="2.37504">
        <ele>116.6</ele>
        <time>2023-01-25T13:28:39Z</time>
      </trkpt>
      <trkpt lat="49.96013" lon="2.37505">
        <ele>116.6</ele>
        <time>2023-01-25T13:28:40Z</time>
      </trkpt>
      <trkpt lat="49.96015" lon="2.37506">
        <ele>116.6</ele>
        <time>2023-01-25T13:28:41Z</time>
      </trkpt>
      <trkpt lat="49.96016" lon="2.37506">
        <ele>116.6</ele>
        <time>2023-01-25T13:28:42Z</time>
      </trkpt>
      <trkpt lat="49.96016" lon="2.37506">
        <ele>116.6</ele>
        <time>2023-01-25T13:28:43Z</time>
      </trkpt>
      <trkpt lat="49.96018" lon="2.37508">
        <ele>116.6</ele>
        <time>2023-01-25T13:28:45Z</time>
      </trkpt>
      <trkpt lat="49.96019" lon="2.37508">
        <ele>116.5</ele>
        <time>2023-01-25T13:28:46Z</time>
      </trkpt>
      <trkpt lat="49.96021" lon="2.3751">
        <ele>116.5</ele>
        <time>2023-01-25T13:28:47Z</time>
      </trkpt>
      <trkpt lat="49.96022" lon="2.37511">
        <ele>116.5</ele>
        <time>2023-01-25T13:28:48Z</time>
      </trkpt>
      <trkpt lat="49.96023" lon="2.37511">
        <ele>116.5</ele>
        <time>2023-01-25T13:28:49Z</time>
      </trkpt>
      <trkpt lat="49.96024" lon="2.37512">
        <ele>116.5</ele>
        <time>2023-01-25T13:28:50Z</time>
      </trkpt>
      <trkpt lat="49.96025" lon="2.37513">
        <ele>116.5</ele>
        <time>2023-01-25T13:28:52Z</time>
      </trkpt>
      <trkpt lat="49.96026" lon="2.37513">
        <ele>116.4</ele>
        <time>2023-01-25T13:28:53Z</time>
      </trkpt>
      <trkpt lat="49.96028" lon="2.37515">
        <ele>116.4</ele>
        <time>2023-01-25T13:28:54Z</time>
      </trkpt>
      <trkpt lat="49.96029" lon="2.37516">
        <ele>116.4</ele>
        <time>2023-01-25T13:28:55Z</time>
      </trkpt>
      <trkpt lat="49.96029" lon="2.37516">
        <ele>116.4</ele>
        <time>2023-01-25T13:28:56Z</time>
      </trkpt>
      <trkpt lat="49.9603" lon="2.37517">
        <ele>116.3</ele>
        <time>2023-01-25T13:28:57Z</time>
      </trkpt>
      <trkpt lat="49.96031" lon="2.37518">
        <ele>116.3</ele>
        <time>2023-01-25T13:28:58Z</time>
      </trkpt>
      <trkpt lat="49.96032" lon="2.37519">
        <ele>116.3</ele>
        <time>2023-01-25T13:28:59Z</time>
      </trkpt>
      <trkpt lat="49.96034" lon="2.3752">
        <ele>116.3</ele>
        <time>2023-01-25T13:29:01Z</time>
      </trkpt>
      <trkpt lat="49.96035" lon="2.37521">
        <ele>116.2</ele>
        <time>2023-01-25T13:29:02Z</time>
      </trkpt>
      <trkpt lat="49.96036" lon="2.37522">
        <ele>116.2</ele>
        <time>2023-01-25T13:29:03Z</time>
      </trkpt>
      <trkpt lat="49.96037" lon="2.37523">
        <ele>116.2</ele>
        <time>2023-01-25T13:29:04Z</time>
      </trkpt>
      <trkpt lat="49.96038" lon="2.37523">
        <ele>116.2</ele>
        <time>2023-01-25T13:29:05Z</time>
      </trkpt>
      <trkpt lat="49.96039" lon="2.37525">
        <ele>116.1</ele>
        <time>2023-01-25T13:29:07Z</time>
      </trkpt>
      <trkpt lat="49.96041" lon="2.37526">
        <ele>116.1</ele>
        <time>2023-01-25T13:29:08Z</time>
      </trkpt>
      <trkpt lat="49.96041" lon="2.37527">
        <ele>116.1</ele>
        <time>2023-01-25T13:29:09Z</time>
      </trkpt>
      <trkpt lat="49.96042" lon="2.37528">
        <ele>116</ele>
        <time>2023-01-25T13:29:10Z</time>
      </trkpt>
      <trkpt lat="49.96043" lon="2.37529">
        <ele>116</ele>
        <time>2023-01-25T13:29:11Z</time>
      </trkpt>
      <trkpt lat="49.96044" lon="2.3753">
        <ele>116</ele>
        <time>2023-01-25T13:29:12Z</time>
      </trkpt>
      <trkpt lat="49.96045" lon="2.3753">
        <ele>115.9</ele>
        <time>2023-01-25T13:29:13Z</time>
      </trkpt>
      <trkpt lat="49.96046" lon="2.37532">
        <ele>115.9</ele>
        <time>2023-01-25T13:29:15Z</time>
      </trkpt>
      <trkpt lat="49.96047" lon="2.37533">
        <ele>115.9</ele>
        <time>2023-01-25T13:29:16Z</time>
      </trkpt>
      <trkpt lat="49.96048" lon="2.37534">
        <ele>115.8</ele>
        <time>2023-01-25T13:29:17Z</time>
      </trkpt>
      <trkpt lat="49.96049" lon="2.37535">
        <ele>115.8</ele>
        <time>2023-01-25T13:29:18Z</time>
      </trkpt>
      <trkpt lat="49.9605" lon="2.37536">
        <ele>115.8</ele>
        <time>2023-01-25T13:29:19Z</time>
      </trkpt>
      <trkpt lat="49.96051" lon="2.37537">
        <ele>115.7</ele>
        <time>2023-01-25T13:29:20Z</time>
      </trkpt>
      <trkpt lat="49.96052" lon="2.37539">
        <ele>115.7</ele>
        <time>2023-01-25T13:29:21Z</time>
      </trkpt>
      <trkpt lat="49.96053" lon="2.37539">
        <ele>115.6</ele>
        <time>2023-01-25T13:29:22Z</time>
      </trkpt>
      <trkpt lat="49.96054" lon="2.3754">
        <ele>115.6</ele>
        <time>2023-01-25T13:29:24Z</time>
      </trkpt>
      <trkpt lat="49.96055" lon="2.37541">
        <ele>115.6</ele>
        <time>2023-01-25T13:29:25Z</time>
      </trkpt>
      <trkpt lat="49.96055" lon="2.37542">
        <ele>115.5</ele>
        <time>2023-01-25T13:29:26Z</time>
      </trkpt>
      <trkpt lat="49.96056" lon="2.37543">
        <ele>115.5</ele>
        <time>2023-01-25T13:29:27Z</time>
      </trkpt>
      <trkpt lat="49.96057" lon="2.37544">
        <ele>115.5</ele>
        <time>2023-01-25T13:29:28Z</time>
      </trkpt>
      <trkpt lat="49.96058" lon="2.37545">
        <ele>115.4</ele>
        <time>2023-01-25T13:29:29Z</time>
      </trkpt>
      <trkpt lat="49.96059" lon="2.37547">
        <ele>115.3</ele>
        <time>2023-01-25T13:29:31Z</time>
      </trkpt>
      <trkpt lat="49.9606" lon="2.37548">
        <ele>115.3</ele>
        <time>2023-01-25T13:29:32Z</time>
      </trkpt>
      <trkpt lat="49.96061" lon="2.37549">
        <ele>115.2</ele>
        <time>2023-01-25T13:29:33Z</time>
      </trkpt>
      <trkpt lat="49.96062" lon="2.3755">
        <ele>115.2</ele>
        <time>2023-01-25T13:29:34Z</time>
      </trkpt>
      <trkpt lat="49.96063" lon="2.37552">
        <ele>115.1</ele>
        <time>2023-01-25T13:29:35Z</time>
      </trkpt>
      <trkpt lat="49.96064" lon="2.37553">
        <ele>115.1</ele>
        <time>2023-01-25T13:29:37Z</time>
      </trkpt>
      <trkpt lat="49.96065" lon="2.37554">
        <ele>115</ele>
        <time>2023-01-25T13:29:39Z</time>
      </trkpt>
      <trkpt lat="49.96066" lon="2.37555">
        <ele>114.9</ele>
        <time>2023-01-25T13:29:40Z</time>
      </trkpt>
      <trkpt lat="49.96067" lon="2.37557">
        <ele>114.9</ele>
        <time>2023-01-25T13:29:41Z</time>
      </trkpt>
      <trkpt lat="49.96069" lon="2.37558">
        <ele>114.8</ele>
        <time>2023-01-25T13:29:42Z</time>
      </trkpt>
      <trkpt lat="49.96069" lon="2.37559">
        <ele>114.8</ele>
        <time>2023-01-25T13:29:43Z</time>
      </trkpt>
      <trkpt lat="49.9607" lon="2.37559">
        <ele>114.7</ele>
        <time>2023-01-25T13:29:44Z</time>
      </trkpt>
      <trkpt lat="49.96071" lon="2.3756">
        <ele>114.7</ele>
        <time>2023-01-25T13:29:45Z</time>
      </trkpt>
      <trkpt lat="49.96072" lon="2.37561">
        <ele>114.6</ele>
        <time>2023-01-25T13:29:46Z</time>
      </trkpt>
      <trkpt lat="49.96073" lon="2.37563">
        <ele>114.6</ele>
        <time>2023-01-25T13:29:47Z</time>
      </trkpt>
      <trkpt lat="49.96075" lon="2.37564">
        <ele>114.4</ele>
        <time>2023-01-25T13:29:48Z</time>
      </trkpt>
      <trkpt lat="49.96075" lon="2.37565">
        <ele>114.4</ele>
        <time>2023-01-25T13:29:50Z</time>
      </trkpt>
      <trkpt lat="49.96076" lon="2.37566">
        <ele>114.4</ele>
        <time>2023-01-25T13:29:51Z</time>
      </trkpt>
      <trkpt lat="49.96077" lon="2.37567">
        <ele>114.3</ele>
        <time>2023-01-25T13:29:52Z</time>
      </trkpt>
      <trkpt lat="49.96078" lon="2.37568">
        <ele>114.2</ele>
        <time>2023-01-25T13:29:53Z</time>
      </trkpt>
      <trkpt lat="49.96079" lon="2.37569">
        <ele>114.2</ele>
        <time>2023-01-25T13:29:54Z</time>
      </trkpt>
      <trkpt lat="49.9608" lon="2.3757">
        <ele>114.1</ele>
        <time>2023-01-25T13:29:55Z</time>
      </trkpt>
      <trkpt lat="49.96081" lon="2.3757">
        <ele>114</ele>
        <time>2023-01-25T13:29:56Z</time>
      </trkpt>
      <trkpt lat="49.96082" lon="2.37572">
        <ele>114</ele>
        <time>2023-01-25T13:29:57Z</time>
      </trkpt>
      <trkpt lat="49.96083" lon="2.37572">
        <ele>113.9</ele>
        <time>2023-01-25T13:29:58Z</time>
      </trkpt>
      <trkpt lat="49.96084" lon="2.37574">
        <ele>113.9</ele>
        <time>2023-01-25T13:30:00Z</time>
      </trkpt>
      <trkpt lat="49.96085" lon="2.37575">
        <ele>113.8</ele>
        <time>2023-01-25T13:30:01Z</time>
      </trkpt>
      <trkpt lat="49.96087" lon="2.37576">
        <ele>113.7</ele>
        <time>2023-01-25T13:30:02Z</time>
      </trkpt>
      <trkpt lat="49.96087" lon="2.37577">
        <ele>113.6</ele>
        <time>2023-01-25T13:30:03Z</time>
      </trkpt>
      <trkpt lat="49.96088" lon="2.37578">
        <ele>113.6</ele>
        <time>2023-01-25T13:30:04Z</time>
      </trkpt>
      <trkpt lat="49.9609" lon="2.37579">
        <ele>113.5</ele>
        <time>2023-01-25T13:30:05Z</time>
      </trkpt>
      <trkpt lat="49.96091" lon="2.37581">
        <ele>113.4</ele>
        <time>2023-01-25T13:30:06Z</time>
      </trkpt>
      <trkpt lat="49.96092" lon="2.37581">
        <ele>113.4</ele>
        <time>2023-01-25T13:30:08Z</time>
      </trkpt>
      <trkpt lat="49.96093" lon="2.37582">
        <ele>113.3</ele>
        <time>2023-01-25T13:30:09Z</time>
      </trkpt>
      <trkpt lat="49.96094" lon="2.37584">
        <ele>113.2</ele>
        <time>2023-01-25T13:30:10Z</time>
      </trkpt>
      <trkpt lat="49.96095" lon="2.37585">
        <ele>113.2</ele>
        <time>2023-01-25T13:30:11Z</time>
      </trkpt>
      <trkpt lat="49.96096" lon="2.37586">
        <ele>113.1</ele>
        <time>2023-01-25T13:30:12Z</time>
      </trkpt>
      <trkpt lat="49.96097" lon="2.37586">
        <ele>113</ele>
        <time>2023-01-25T13:30:13Z</time>
      </trkpt>
      <trkpt lat="49.96098" lon="2.37587">
        <ele>113</ele>
        <time>2023-01-25T13:30:14Z</time>
      </trkpt>
      <trkpt lat="49.96099" lon="2.37588">
        <ele>112.9</ele>
        <time>2023-01-25T13:30:15Z</time>
      </trkpt>
      <trkpt lat="49.961" lon="2.37589">
        <ele>112.8</ele>
        <time>2023-01-25T13:30:17Z</time>
      </trkpt>
      <trkpt lat="49.96101" lon="2.37591">
        <ele>112.7</ele>
        <time>2023-01-25T13:30:18Z</time>
      </trkpt>
      <trkpt lat="49.96102" lon="2.37592">
        <ele>112.7</ele>
        <time>2023-01-25T13:30:19Z</time>
      </trkpt>
      <trkpt lat="49.96103" lon="2.37593">
        <ele>112.6</ele>
        <time>2023-01-25T13:30:20Z</time>
      </trkpt>
      <trkpt lat="49.96104" lon="2.37593">
        <ele>112.5</ele>
        <time>2023-01-25T13:30:21Z</time>
      </trkpt>
      <trkpt lat="49.96106" lon="2.37595">
        <ele>112.4</ele>
        <time>2023-01-25T13:30:22Z</time>
      </trkpt>
      <trkpt lat="49.96107" lon="2.37595">
        <ele>112.4</ele>
        <time>2023-01-25T13:30:23Z</time>
      </trkpt>
      <trkpt lat="49.96108" lon="2.37597">
        <ele>112.3</ele>
        <time>2023-01-25T13:30:25Z</time>
      </trkpt>
      <trkpt lat="49.96109" lon="2.37598">
        <ele>112.2</ele>
        <time>2023-01-25T13:30:26Z</time>
      </trkpt>
      <trkpt lat="49.9611" lon="2.37599">
        <ele>112.2</ele>
        <time>2023-01-25T13:30:27Z</time>
      </trkpt>
      <trkpt lat="49.96111" lon="2.376">
        <ele>112.1</ele>
        <time>2023-01-25T13:30:28Z</time>
      </trkpt>
      <trkpt lat="49.96112" lon="2.37601">
        <ele>112.1</ele>
        <time>2023-01-25T13:30:29Z</time>
      </trkpt>
      <trkpt lat="49.96113" lon="2.37602">
        <ele>112</ele>
        <time>2023-01-25T13:30:30Z</time>
      </trkpt>
      <trkpt lat="49.96114" lon="2.37603">
        <ele>112</ele>
        <time>2023-01-25T13:30:31Z</time>
      </trkpt>
      <trkpt lat="49.96116" lon="2.37605">
        <ele>111.9</ele>
        <time>2023-01-25T13:30:32Z</time>
      </trkpt>
      <trkpt lat="49.96117" lon="2.37606">
        <ele>111.8</ele>
        <time>2023-01-25T13:30:33Z</time>
      </trkpt>
      <trkpt lat="49.96118" lon="2.37607">
        <ele>111.7</ele>
        <time>2023-01-25T13:30:35Z</time>
      </trkpt>
      <trkpt lat="49.96119" lon="2.37607">
        <ele>111.7</ele>
        <time>2023-01-25T13:30:36Z</time>
      </trkpt>
      <trkpt lat="49.96121" lon="2.37609">
        <ele>111.6</ele>
        <time>2023-01-25T13:30:37Z</time>
      </trkpt>
      <trkpt lat="49.96122" lon="2.37609">
        <ele>111.6</ele>
        <time>2023-01-25T13:30:38Z</time>
      </trkpt>
      <trkpt lat="49.96123" lon="2.3761">
        <ele>111.5</ele>
        <time>2023-01-25T13:30:39Z</time>
      </trkpt>
      <trkpt lat="49.96125" lon="2.37611">
        <ele>111.4</ele>
        <time>2023-01-25T13:30:40Z</time>
      </trkpt>
      <trkpt lat="49.96126" lon="2.37612">
        <ele>111.3</ele>
        <time>2023-01-25T13:30:41Z</time>
      </trkpt>
      <trkpt lat="49.96128" lon="2.37613">
        <ele>111.2</ele>
        <time>2023-01-25T13:30:43Z</time>
      </trkpt>
      <trkpt lat="49.96129" lon="2.37614">
        <ele>111.2</ele>
        <time>2023-01-25T13:30:44Z</time>
      </trkpt>
      <trkpt lat="49.96131" lon="2.37615">
        <ele>111.1</ele>
        <time>2023-01-25T13:30:45Z</time>
      </trkpt>
      <trkpt lat="49.96132" lon="2.37615">
        <ele>111</ele>
        <time>2023-01-25T13:30:46Z</time>
      </trkpt>
      <trkpt lat="49.96134" lon="2.37617">
        <ele>110.9</ele>
        <time>2023-01-25T13:30:47Z</time>
      </trkpt>
      <trkpt lat="49.96135" lon="2.37617">
        <ele>110.9</ele>
        <time>2023-01-25T13:30:48Z</time>
      </trkpt>
      <trkpt lat="49.96136" lon="2.37618">
        <ele>110.8</ele>
        <time>2023-01-25T13:30:49Z</time>
      </trkpt>
      <trkpt lat="49.96138" lon="2.37618">
        <ele>110.7</ele>
        <time>2023-01-25T13:30:51Z</time>
      </trkpt>
      <trkpt lat="49.9614" lon="2.3762">
        <ele>110.6</ele>
        <time>2023-01-25T13:30:52Z</time>
      </trkpt>
      <trkpt lat="49.9614" lon="2.3762">
        <ele>110.6</ele>
        <time>2023-01-25T13:30:53Z</time>
      </trkpt>
      <trkpt lat="49.96142" lon="2.37621">
        <ele>110.5</ele>
        <time>2023-01-25T13:30:54Z</time>
      </trkpt>
      <trkpt lat="49.96143" lon="2.37622">
        <ele>110.5</ele>
        <time>2023-01-25T13:30:55Z</time>
      </trkpt>
      <trkpt lat="49.96144" lon="2.37623">
        <ele>110.4</ele>
        <time>2023-01-25T13:30:56Z</time>
      </trkpt>
      <trkpt lat="49.96146" lon="2.37625">
        <ele>110.3</ele>
        <time>2023-01-25T13:30:58Z</time>
      </trkpt>
      <trkpt lat="49.96146" lon="2.37625">
        <ele>110.3</ele>
        <time>2023-01-25T13:30:59Z</time>
      </trkpt>
      <trkpt lat="49.96147" lon="2.37626">
        <ele>110.3</ele>
        <time>2023-01-25T13:31:00Z</time>
      </trkpt>
      <trkpt lat="49.96148" lon="2.37627">
        <ele>110.2</ele>
        <time>2023-01-25T13:31:01Z</time>
      </trkpt>
      <trkpt lat="49.96149" lon="2.37628">
        <ele>110.1</ele>
        <time>2023-01-25T13:31:02Z</time>
      </trkpt>
      <trkpt lat="49.9615" lon="2.37629">
        <ele>110.1</ele>
        <time>2023-01-25T13:31:03Z</time>
      </trkpt>
      <trkpt lat="49.96151" lon="2.3763">
        <ele>110.1</ele>
        <time>2023-01-25T13:31:04Z</time>
      </trkpt>
      <trkpt lat="49.96152" lon="2.37631">
        <ele>110</ele>
        <time>2023-01-25T13:31:05Z</time>
      </trkpt>
      <trkpt lat="49.96153" lon="2.37632">
        <ele>110</ele>
        <time>2023-01-25T13:31:06Z</time>
      </trkpt>
      <trkpt lat="49.96155" lon="2.37634">
        <ele>109.9</ele>
        <time>2023-01-25T13:31:08Z</time>
      </trkpt>
      <trkpt lat="49.96155" lon="2.37635">
        <ele>109.9</ele>
        <time>2023-01-25T13:31:09Z</time>
      </trkpt>
      <trkpt lat="49.96157" lon="2.37637">
        <ele>109.8</ele>
        <time>2023-01-25T13:31:10Z</time>
      </trkpt>
      <trkpt lat="49.96158" lon="2.37638">
        <ele>109.8</ele>
        <time>2023-01-25T13:31:11Z</time>
      </trkpt>
      <trkpt lat="49.96159" lon="2.37639">
        <ele>109.7</ele>
        <time>2023-01-25T13:31:12Z</time>
      </trkpt>
      <trkpt lat="49.9616" lon="2.3764">
        <ele>109.7</ele>
        <time>2023-01-25T13:31:14Z</time>
      </trkpt>
      <trkpt lat="49.96161" lon="2.37641">
        <ele>109.7</ele>
        <time>2023-01-25T13:31:15Z</time>
      </trkpt>
      <trkpt lat="49.96162" lon="2.37642">
        <ele>109.6</ele>
        <time>2023-01-25T13:31:16Z</time>
      </trkpt>
      <trkpt lat="49.96163" lon="2.37643">
        <ele>109.6</ele>
        <time>2023-01-25T13:31:17Z</time>
      </trkpt>
      <trkpt lat="49.96164" lon="2.37644">
        <ele>109.6</ele>
        <time>2023-01-25T13:31:18Z</time>
      </trkpt>
      <trkpt lat="49.96165" lon="2.37644">
        <ele>109.5</ele>
        <time>2023-01-25T13:31:19Z</time>
      </trkpt>
      <trkpt lat="49.96166" lon="2.37645">
        <ele>109.5</ele>
        <time>2023-01-25T13:31:20Z</time>
      </trkpt>
      <trkpt lat="49.96167" lon="2.37646">
        <ele>109.5</ele>
        <time>2023-01-25T13:31:21Z</time>
      </trkpt>
      <trkpt lat="49.96168" lon="2.37648">
        <ele>109.4</ele>
        <time>2023-01-25T13:31:22Z</time>
      </trkpt>
      <trkpt lat="49.96169" lon="2.37649">
        <ele>109.4</ele>
        <time>2023-01-25T13:31:24Z</time>
      </trkpt>
      <trkpt lat="49.96169" lon="2.3765">
        <ele>109.4</ele>
        <time>2023-01-25T13:31:25Z</time>
      </trkpt>
      <trkpt lat="49.96171" lon="2.37651">
        <ele>109.3</ele>
        <time>2023-01-25T13:31:26Z</time>
      </trkpt>
      <trkpt lat="49.96172" lon="2.37652">
        <ele>109.3</ele>
        <time>2023-01-25T13:31:27Z</time>
      </trkpt>
      <trkpt lat="49.96173" lon="2.37653">
        <ele>109.3</ele>
        <time>2023-01-25T13:31:28Z</time>
      </trkpt>
      <trkpt lat="49.96174" lon="2.37654">
        <ele>109.2</ele>
        <time>2023-01-25T13:31:29Z</time>
      </trkpt>
      <trkpt lat="49.96174" lon="2.37655">
        <ele>109.2</ele>
        <time>2023-01-25T13:31:30Z</time>
      </trkpt>
      <trkpt lat="49.96175" lon="2.37655">
        <ele>109.2</ele>
        <time>2023-01-25T13:31:31Z</time>
      </trkpt>
      <trkpt lat="49.96176" lon="2.37656">
        <ele>109.1</ele>
        <time>2023-01-25T13:31:32Z</time>
      </trkpt>
      <trkpt lat="49.96177" lon="2.37657">
        <ele>109.1</ele>
        <time>2023-01-25T13:31:33Z</time>
      </trkpt>
      <trkpt lat="49.96177" lon="2.37658">
        <ele>109.1</ele>
        <time>2023-01-25T13:31:35Z</time>
      </trkpt>
      <trkpt lat="49.96179" lon="2.37659">
        <ele>109</ele>
        <time>2023-01-25T13:31:36Z</time>
      </trkpt>
      <trkpt lat="49.9618" lon="2.3766">
        <ele>109</ele>
        <time>2023-01-25T13:31:37Z</time>
      </trkpt>
      <trkpt lat="49.96181" lon="2.37661">
        <ele>109</ele>
        <time>2023-01-25T13:31:38Z</time>
      </trkpt>
      <trkpt lat="49.96182" lon="2.37661">
        <ele>108.9</ele>
        <time>2023-01-25T13:31:39Z</time>
      </trkpt>
      <trkpt lat="49.96183" lon="2.37662">
        <ele>108.9</ele>
        <time>2023-01-25T13:31:40Z</time>
      </trkpt>
      <trkpt lat="49.96184" lon="2.37663">
        <ele>108.9</ele>
        <time>2023-01-25T13:31:41Z</time>
      </trkpt>
      <trkpt lat="49.96185" lon="2.37664">
        <ele>108.8</ele>
        <time>2023-01-25T13:31:42Z</time>
      </trkpt>
      <trkpt lat="49.96186" lon="2.37665">
        <ele>108.8</ele>
        <time>2023-01-25T13:31:43Z</time>
      </trkpt>
      <trkpt lat="49.96186" lon="2.37666">
        <ele>108.8</ele>
        <time>2023-01-25T13:31:44Z</time>
      </trkpt>
      <trkpt lat="49.96188" lon="2.37667">
        <ele>108.7</ele>
        <time>2023-01-25T13:31:45Z</time>
      </trkpt>
      <trkpt lat="49.96189" lon="2.37668">
        <ele>108.7</ele>
        <time>2023-01-25T13:31:47Z</time>
      </trkpt>
      <trkpt lat="49.9619" lon="2.37669">
        <ele>108.7</ele>
        <time>2023-01-25T13:31:48Z</time>
      </trkpt>
      <trkpt lat="49.96191" lon="2.3767">
        <ele>108.7</ele>
        <time>2023-01-25T13:31:49Z</time>
      </trkpt>
      <trkpt lat="49.96192" lon="2.37671">
        <ele>108.6</ele>
        <time>2023-01-25T13:31:50Z</time>
      </trkpt>
      <trkpt lat="49.96193" lon="2.37672">
        <ele>108.6</ele>
        <time>2023-01-25T13:31:51Z</time>
      </trkpt>
      <trkpt lat="49.96194" lon="2.37673">
        <ele>108.6</ele>
        <time>2023-01-25T13:31:52Z</time>
      </trkpt>
      <trkpt lat="49.96195" lon="2.37674">
        <ele>108.6</ele>
        <time>2023-01-25T13:31:53Z</time>
      </trkpt>
      <trkpt lat="49.96196" lon="2.37674">
        <ele>108.5</ele>
        <time>2023-01-25T13:31:54Z</time>
      </trkpt>
      <trkpt lat="49.96197" lon="2.37675">
        <ele>108.5</ele>
        <time>2023-01-25T13:31:56Z</time>
      </trkpt>
      <trkpt lat="49.96198" lon="2.37676">
        <ele>108.5</ele>
        <time>2023-01-25T13:31:57Z</time>
      </trkpt>
      <trkpt lat="49.962" lon="2.37678">
        <ele>108.4</ele>
        <time>2023-01-25T13:31:58Z</time>
      </trkpt>
      <trkpt lat="49.96201" lon="2.37679">
        <ele>108.4</ele>
        <time>2023-01-25T13:31:59Z</time>
      </trkpt>
      <trkpt lat="49.96202" lon="2.37679">
        <ele>108.4</ele>
        <time>2023-01-25T13:32:00Z</time>
      </trkpt>
      <trkpt lat="49.96203" lon="2.3768">
        <ele>108.3</ele>
        <time>2023-01-25T13:32:01Z</time>
      </trkpt>
      <trkpt lat="49.96204" lon="2.37682">
        <ele>108.3</ele>
        <time>2023-01-25T13:32:02Z</time>
      </trkpt>
      <trkpt lat="49.96206" lon="2.37683">
        <ele>108.2</ele>
        <time>2023-01-25T13:32:04Z</time>
      </trkpt>
      <trkpt lat="49.96207" lon="2.37683">
        <ele>108.2</ele>
        <time>2023-01-25T13:32:05Z</time>
      </trkpt>
      <trkpt lat="49.96208" lon="2.37684">
        <ele>108.2</ele>
        <time>2023-01-25T13:32:06Z</time>
      </trkpt>
      <trkpt lat="49.96209" lon="2.37684">
        <ele>108.2</ele>
        <time>2023-01-25T13:32:07Z</time>
      </trkpt>
      <trkpt lat="49.9621" lon="2.37685">
        <ele>108.1</ele>
        <time>2023-01-25T13:32:08Z</time>
      </trkpt>
      <trkpt lat="49.96211" lon="2.37686">
        <ele>108.1</ele>
        <time>2023-01-25T13:32:10Z</time>
      </trkpt>
      <trkpt lat="49.96213" lon="2.37687">
        <ele>108</ele>
        <time>2023-01-25T13:32:11Z</time>
      </trkpt>
      <trkpt lat="49.96214" lon="2.37687">
        <ele>108</ele>
        <time>2023-01-25T13:32:12Z</time>
      </trkpt>
      <trkpt lat="49.96216" lon="2.37689">
        <ele>107.9</ele>
        <time>2023-01-25T13:32:13Z</time>
      </trkpt>
      <trkpt lat="49.96217" lon="2.37689">
        <ele>107.9</ele>
        <time>2023-01-25T13:32:14Z</time>
      </trkpt>
      <trkpt lat="49.96219" lon="2.37691">
        <ele>107.8</ele>
        <time>2023-01-25T13:32:15Z</time>
      </trkpt>
      <trkpt lat="49.96219" lon="2.37691">
        <ele>107.8</ele>
        <time>2023-01-25T13:32:16Z</time>
      </trkpt>
      <trkpt lat="49.9622" lon="2.37692">
        <ele>107.8</ele>
        <time>2023-01-25T13:32:17Z</time>
      </trkpt>
      <trkpt lat="49.96221" lon="2.37693">
        <ele>107.8</ele>
        <time>2023-01-25T13:32:19Z</time>
      </trkpt>
      <trkpt lat="49.96222" lon="2.37693">
        <ele>107.7</ele>
        <time>2023-01-25T13:32:20Z</time>
      </trkpt>
      <trkpt lat="49.96223" lon="2.37694">
        <ele>107.7</ele>
        <time>2023-01-25T13:32:21Z</time>
      </trkpt>
      <trkpt lat="49.96224" lon="2.37695">
        <ele>107.6</ele>
        <time>2023-01-25T13:32:22Z</time>
      </trkpt>
      <trkpt lat="49.96226" lon="2.37696">
        <ele>107.6</ele>
        <time>2023-01-25T13:32:23Z</time>
      </trkpt>
      <trkpt lat="49.96227" lon="2.37697">
        <ele>107.6</ele>
        <time>2023-01-25T13:32:24Z</time>
      </trkpt>
      <trkpt lat="49.96228" lon="2.37697">
        <ele>107.5</ele>
        <time>2023-01-25T13:32:26Z</time>
      </trkpt>
      <trkpt lat="49.96229" lon="2.37698">
        <ele>107.5</ele>
        <time>2023-01-25T13:32:27Z</time>
      </trkpt>
      <trkpt lat="49.9623" lon="2.37699">
        <ele>107.5</ele>
        <time>2023-01-25T13:32:28Z</time>
      </trkpt>
      <trkpt lat="49.9623" lon="2.377">
        <ele>107.4</ele>
        <time>2023-01-25T13:32:29Z</time>
      </trkpt>
      <trkpt lat="49.96231" lon="2.37701">
        <ele>107.4</ele>
        <time>2023-01-25T13:32:30Z</time>
      </trkpt>
      <trkpt lat="49.96232" lon="2.37702">
        <ele>107.4</ele>
        <time>2023-01-25T13:32:31Z</time>
      </trkpt>
      <trkpt lat="49.96233" lon="2.37703">
        <ele>107.4</ele>
        <time>2023-01-25T13:32:32Z</time>
      </trkpt>
      <trkpt lat="49.96234" lon="2.37704">
        <ele>107.4</ele>
        <time>2023-01-25T13:32:34Z</time>
      </trkpt>
      <trkpt lat="49.96235" lon="2.37705">
        <ele>107.3</ele>
        <time>2023-01-25T13:32:35Z</time>
      </trkpt>
      <trkpt lat="49.96236" lon="2.37706">
        <ele>107.3</ele>
        <time>2023-01-25T13:32:36Z</time>
      </trkpt>
      <trkpt lat="49.96237" lon="2.37706">
        <ele>107.3</ele>
        <time>2023-01-25T13:32:37Z</time>
      </trkpt>
      <trkpt lat="49.96239" lon="2.37708">
        <ele>107.3</ele>
        <time>2023-01-25T13:32:38Z</time>
      </trkpt>
      <trkpt lat="49.96239" lon="2.37709">
        <ele>107.3</ele>
        <time>2023-01-25T13:32:39Z</time>
      </trkpt>
      <trkpt lat="49.9624" lon="2.3771">
        <ele>107.2</ele>
        <time>2023-01-25T13:32:40Z</time>
      </trkpt>
      <trkpt lat="49.96241" lon="2.37712">
        <ele>107.2</ele>
        <time>2023-01-25T13:32:41Z</time>
      </trkpt>
      <trkpt lat="49.96242" lon="2.37713">
        <ele>107.2</ele>
        <time>2023-01-25T13:32:42Z</time>
      </trkpt>
      <trkpt lat="49.96243" lon="2.37714">
        <ele>107.2</ele>
        <time>2023-01-25T13:32:43Z</time>
      </trkpt>
      <trkpt lat="49.96244" lon="2.37715">
        <ele>107.2</ele>
        <time>2023-01-25T13:32:45Z</time>
      </trkpt>
      <trkpt lat="49.96245" lon="2.37716">
        <ele>107.2</ele>
        <time>2023-01-25T13:32:46Z</time>
      </trkpt>
      <trkpt lat="49.96246" lon="2.37717">
        <ele>107.2</ele>
        <time>2023-01-25T13:32:47Z</time>
      </trkpt>
      <trkpt lat="49.96248" lon="2.37719">
        <ele>107.1</ele>
        <time>2023-01-25T13:32:48Z</time>
      </trkpt>
      <trkpt lat="49.96249" lon="2.37719">
        <ele>107.1</ele>
        <time>2023-01-25T13:32:50Z</time>
      </trkpt>
      <trkpt lat="49.9625" lon="2.3772">
        <ele>107.1</ele>
        <time>2023-01-25T13:32:51Z</time>
      </trkpt>
      <trkpt lat="49.96251" lon="2.37721">
        <ele>107.1</ele>
        <time>2023-01-25T13:32:52Z</time>
      </trkpt>
      <trkpt lat="49.96252" lon="2.37722">
        <ele>107.1</ele>
        <time>2023-01-25T13:32:53Z</time>
      </trkpt>
      <trkpt lat="49.96253" lon="2.37723">
        <ele>107.1</ele>
        <time>2023-01-25T13:32:54Z</time>
      </trkpt>
      <trkpt lat="49.96254" lon="2.37724">
        <ele>107</ele>
        <time>2023-01-25T13:32:55Z</time>
      </trkpt>
      <trkpt lat="49.96255" lon="2.37725">
        <ele>107</ele>
        <time>2023-01-25T13:32:57Z</time>
      </trkpt>
      <trkpt lat="49.96256" lon="2.37725">
        <ele>107</ele>
        <time>2023-01-25T13:32:58Z</time>
      </trkpt>
      <trkpt lat="49.96257" lon="2.37727">
        <ele>107</ele>
        <time>2023-01-25T13:32:59Z</time>
      </trkpt>
      <trkpt lat="49.96258" lon="2.37727">
        <ele>107</ele>
        <time>2023-01-25T13:33:00Z</time>
      </trkpt>
      <trkpt lat="49.9626" lon="2.37729">
        <ele>107</ele>
        <time>2023-01-25T13:33:01Z</time>
      </trkpt>
      <trkpt lat="49.96261" lon="2.3773">
        <ele>107</ele>
        <time>2023-01-25T13:33:02Z</time>
      </trkpt>
      <trkpt lat="49.96262" lon="2.37731">
        <ele>106.9</ele>
        <time>2023-01-25T13:33:03Z</time>
      </trkpt>
      <trkpt lat="49.96263" lon="2.37732">
        <ele>106.9</ele>
        <time>2023-01-25T13:33:04Z</time>
      </trkpt>
      <trkpt lat="49.96264" lon="2.37733">
        <ele>106.9</ele>
        <time>2023-01-25T13:33:06Z</time>
      </trkpt>
      <trkpt lat="49.96265" lon="2.37733">
        <ele>106.9</ele>
        <time>2023-01-25T13:33:07Z</time>
      </trkpt>
      <trkpt lat="49.96267" lon="2.37735">
        <ele>106.9</ele>
        <time>2023-01-25T13:33:08Z</time>
      </trkpt>
      <trkpt lat="49.96267" lon="2.37736">
        <ele>106.9</ele>
        <time>2023-01-25T13:33:09Z</time>
      </trkpt>
      <trkpt lat="49.96268" lon="2.37736">
        <ele>106.9</ele>
        <time>2023-01-25T13:33:10Z</time>
      </trkpt>
      <trkpt lat="49.96269" lon="2.37737">
        <ele>106.9</ele>
        <time>2023-01-25T13:33:11Z</time>
      </trkpt>
      <trkpt lat="49.96271" lon="2.37738">
        <ele>106.8</ele>
        <time>2023-01-25T13:33:13Z</time>
      </trkpt>
      <trkpt lat="49.96272" lon="2.37739">
        <ele>106.8</ele>
        <time>2023-01-25T13:33:14Z</time>
      </trkpt>
      <trkpt lat="49.96273" lon="2.3774">
        <ele>106.8</ele>
        <time>2023-01-25T13:33:15Z</time>
      </trkpt>
      <trkpt lat="49.96275" lon="2.37742">
        <ele>106.8</ele>
        <time>2023-01-25T13:33:16Z</time>
      </trkpt>
      <trkpt lat="49.96276" lon="2.37743">
        <ele>106.8</ele>
        <time>2023-01-25T13:33:17Z</time>
      </trkpt>
      <trkpt lat="49.96277" lon="2.37743">
        <ele>106.8</ele>
        <time>2023-01-25T13:33:18Z</time>
      </trkpt>
      <trkpt lat="49.96278" lon="2.37744">
        <ele>106.8</ele>
        <time>2023-01-25T13:33:19Z</time>
      </trkpt>
      <trkpt lat="49.96279" lon="2.37744">
        <ele>106.7</ele>
        <time>2023-01-25T13:33:20Z</time>
      </trkpt>
      <trkpt lat="49.9628" lon="2.37745">
        <ele>106.7</ele>
        <time>2023-01-25T13:33:21Z</time>
      </trkpt>
      <trkpt lat="49.96281" lon="2.37746">
        <ele>106.7</ele>
        <time>2023-01-25T13:33:22Z</time>
      </trkpt>
      <trkpt lat="49.96283" lon="2.37747">
        <ele>106.7</ele>
        <time>2023-01-25T13:33:23Z</time>
      </trkpt>
      <trkpt lat="49.96285" lon="2.37748">
        <ele>106.7</ele>
        <time>2023-01-25T13:33:24Z</time>
      </trkpt>
      <trkpt lat="49.96285" lon="2.37749">
        <ele>106.7</ele>
        <time>2023-01-25T13:33:26Z</time>
      </trkpt>
      <trkpt lat="49.96286" lon="2.3775">
        <ele>106.7</ele>
        <time>2023-01-25T13:33:27Z</time>
      </trkpt>
      <trkpt lat="49.96288" lon="2.37751">
        <ele>106.6</ele>
        <time>2023-01-25T13:33:28Z</time>
      </trkpt>
      <trkpt lat="49.96289" lon="2.37752">
        <ele>106.6</ele>
        <time>2023-01-25T13:33:29Z</time>
      </trkpt>
      <trkpt lat="49.9629" lon="2.37753">
        <ele>106.6</ele>
        <time>2023-01-25T13:33:30Z</time>
      </trkpt>
      <trkpt lat="49.96291" lon="2.37754">
        <ele>106.6</ele>
        <time>2023-01-25T13:33:31Z</time>
      </trkpt>
      <trkpt lat="49.96292" lon="2.37754">
        <ele>106.6</ele>
        <time>2023-01-25T13:33:32Z</time>
      </trkpt>
      <trkpt lat="49.96294" lon="2.37755">
        <ele>106.6</ele>
        <time>2023-01-25T13:33:33Z</time>
      </trkpt>
      <trkpt lat="49.96295" lon="2.37756">
        <ele>106.6</ele>
        <time>2023-01-25T13:33:34Z</time>
      </trkpt>
      <trkpt lat="49.96295" lon="2.37756">
        <ele>106.6</ele>
        <time>2023-01-25T13:33:35Z</time>
      </trkpt>
      <trkpt lat="49.96298" lon="2.37757">
        <ele>106.5</ele>
        <time>2023-01-25T13:33:37Z</time>
      </trkpt>
      <trkpt lat="49.96298" lon="2.37758">
        <ele>106.5</ele>
        <time>2023-01-25T13:33:38Z</time>
      </trkpt>
      <trkpt lat="49.96299" lon="2.37759">
        <ele>106.5</ele>
        <time>2023-01-25T13:33:39Z</time>
      </trkpt>
      <trkpt lat="49.963" lon="2.37759">
        <ele>106.5</ele>
        <time>2023-01-25T13:33:40Z</time>
      </trkpt>
      <trkpt lat="49.96301" lon="2.3776">
        <ele>106.5</ele>
        <time>2023-01-25T13:33:41Z</time>
      </trkpt>
      <trkpt lat="49.96302" lon="2.37761">
        <ele>106.5</ele>
        <time>2023-01-25T13:33:42Z</time>
      </trkpt>
      <trkpt lat="49.96304" lon="2.37762">
        <ele>106.5</ele>
        <time>2023-01-25T13:33:43Z</time>
      </trkpt>
      <trkpt lat="49.96305" lon="2.37763">
        <ele>106.5</ele>
        <time>2023-01-25T13:33:44Z</time>
      </trkpt>
      <trkpt lat="49.96306" lon="2.37764">
        <ele>106.5</ele>
        <time>2023-01-25T13:33:46Z</time>
      </trkpt>
      <trkpt lat="49.96307" lon="2.37764">
        <ele>106.5</ele>
        <time>2023-01-25T13:33:47Z</time>
      </trkpt>
      <trkpt lat="49.96308" lon="2.37765">
        <ele>106.5</ele>
        <time>2023-01-25T13:33:48Z</time>
      </trkpt>
      <trkpt lat="49.96309" lon="2.37766">
        <ele>106.4</ele>
        <time>2023-01-25T13:33:49Z</time>
      </trkpt>
      <trkpt lat="49.9631" lon="2.37767">
        <ele>106.4</ele>
        <time>2023-01-25T13:33:50Z</time>
      </trkpt>
      <trkpt lat="49.96311" lon="2.37768">
        <ele>106.4</ele>
        <time>2023-01-25T13:33:51Z</time>
      </trkpt>
      <trkpt lat="49.96312" lon="2.37769">
        <ele>106.4</ele>
        <time>2023-01-25T13:33:52Z</time>
      </trkpt>
      <trkpt lat="49.96314" lon="2.3777">
        <ele>106.4</ele>
        <time>2023-01-25T13:33:54Z</time>
      </trkpt>
      <trkpt lat="49.96314" lon="2.37771">
        <ele>106.4</ele>
        <time>2023-01-25T13:33:55Z</time>
      </trkpt>
      <trkpt lat="49.96315" lon="2.37771">
        <ele>106.4</ele>
        <time>2023-01-25T13:33:56Z</time>
      </trkpt>
      <trkpt lat="49.96316" lon="2.37771">
        <ele>106.4</ele>
        <time>2023-01-25T13:33:57Z</time>
      </trkpt>
      <trkpt lat="49.96318" lon="2.37772">
        <ele>106.4</ele>
        <time>2023-01-25T13:33:58Z</time>
      </trkpt>
      <trkpt lat="49.96319" lon="2.37773">
        <ele>106.4</ele>
        <time>2023-01-25T13:33:59Z</time>
      </trkpt>
      <trkpt lat="49.9632" lon="2.37773">
        <ele>106.4</ele>
        <time>2023-01-25T13:34:00Z</time>
      </trkpt>
      <trkpt lat="49.96322" lon="2.37774">
        <ele>106.4</ele>
        <time>2023-01-25T13:34:02Z</time>
      </trkpt>
      <trkpt lat="49.96323" lon="2.37775">
        <ele>106.4</ele>
        <time>2023-01-25T13:34:03Z</time>
      </trkpt>
      <trkpt lat="49.96324" lon="2.37775">
        <ele>106.4</ele>
        <time>2023-01-25T13:34:04Z</time>
      </trkpt>
      <trkpt lat="49.96326" lon="2.37776">
        <ele>106.4</ele>
        <time>2023-01-25T13:34:05Z</time>
      </trkpt>
      <trkpt lat="49.96326" lon="2.37777">
        <ele>106.4</ele>
        <time>2023-01-25T13:34:06Z</time>
      </trkpt>
      <trkpt lat="49.96327" lon="2.37778">
        <ele>106.4</ele>
        <time>2023-01-25T13:34:07Z</time>
      </trkpt>
      <trkpt lat="49.96329" lon="2.37779">
        <ele>106.3</ele>
        <time>2023-01-25T13:34:08Z</time>
      </trkpt>
      <trkpt lat="49.9633" lon="2.37779">
        <ele>106.3</ele>
        <time>2023-01-25T13:34:09Z</time>
      </trkpt>
      <trkpt lat="49.96331" lon="2.3778">
        <ele>106.3</ele>
        <time>2023-01-25T13:34:11Z</time>
      </trkpt>
      <trkpt lat="49.96333" lon="2.37781">
        <ele>106.3</ele>
        <time>2023-01-25T13:34:12Z</time>
      </trkpt>
      <trkpt lat="49.96334" lon="2.37782">
        <ele>106.3</ele>
        <time>2023-01-25T13:34:13Z</time>
      </trkpt>
      <trkpt lat="49.96335" lon="2.37782">
        <ele>106.3</ele>
        <time>2023-01-25T13:34:14Z</time>
      </trkpt>
      <trkpt lat="49.96336" lon="2.37783">
        <ele>106.3</ele>
        <time>2023-01-25T13:34:15Z</time>
      </trkpt>
      <trkpt lat="49.96337" lon="2.37784">
        <ele>106.3</ele>
        <time>2023-01-25T13:34:16Z</time>
      </trkpt>
      <trkpt lat="49.96338" lon="2.37785">
        <ele>106.3</ele>
        <time>2023-01-25T13:34:18Z</time>
      </trkpt>
      <trkpt lat="49.96339" lon="2.37786">
        <ele>106.2</ele>
        <time>2023-01-25T13:34:19Z</time>
      </trkpt>
      <trkpt lat="49.96341" lon="2.37787">
        <ele>106.2</ele>
        <time>2023-01-25T13:34:20Z</time>
      </trkpt>
      <trkpt lat="49.96342" lon="2.37789">
        <ele>106.2</ele>
        <time>2023-01-25T13:34:21Z</time>
      </trkpt>
      <trkpt lat="49.96343" lon="2.3779">
        <ele>106.2</ele>
        <time>2023-01-25T13:34:22Z</time>
      </trkpt>
      <trkpt lat="49.96344" lon="2.3779">
        <ele>106.2</ele>
        <time>2023-01-25T13:34:23Z</time>
      </trkpt>
      <trkpt lat="49.96345" lon="2.37791">
        <ele>106.2</ele>
        <time>2023-01-25T13:34:24Z</time>
      </trkpt>
      <trkpt lat="49.96346" lon="2.37792">
        <ele>106.2</ele>
        <time>2023-01-25T13:34:25Z</time>
      </trkpt>
      <trkpt lat="49.96348" lon="2.37793">
        <ele>106.2</ele>
        <time>2023-01-25T13:34:27Z</time>
      </trkpt>
      <trkpt lat="49.96349" lon="2.37794">
        <ele>106.2</ele>
        <time>2023-01-25T13:34:28Z</time>
      </trkpt>
      <trkpt lat="49.9635" lon="2.37795">
        <ele>106.2</ele>
        <time>2023-01-25T13:34:29Z</time>
      </trkpt>
      <trkpt lat="49.96351" lon="2.37796">
        <ele>106.2</ele>
        <time>2023-01-25T13:34:30Z</time>
      </trkpt>
      <trkpt lat="49.96352" lon="2.37797">
        <ele>106.2</ele>
        <time>2023-01-25T13:34:31Z</time>
      </trkpt>
      <trkpt lat="49.96353" lon="2.37798">
        <ele>106.2</ele>
        <time>2023-01-25T13:34:32Z</time>
      </trkpt>
      <trkpt lat="49.96354" lon="2.37798">
        <ele>106.2</ele>
        <time>2023-01-25T13:34:33Z</time>
      </trkpt>
      <trkpt lat="49.96355" lon="2.37799">
        <ele>106.2</ele>
        <time>2023-01-25T13:34:34Z</time>
      </trkpt>
      <trkpt lat="49.96356" lon="2.378">
        <ele>106.2</ele>
        <time>2023-01-25T13:34:36Z</time>
      </trkpt>
      <trkpt lat="49.96357" lon="2.37801">
        <ele>106.2</ele>
        <time>2023-01-25T13:34:37Z</time>
      </trkpt>
      <trkpt lat="49.96357" lon="2.37801">
        <ele>106.2</ele>
        <time>2023-01-25T13:34:38Z</time>
      </trkpt>
      <trkpt lat="49.96358" lon="2.37802">
        <ele>106.2</ele>
        <time>2023-01-25T13:34:39Z</time>
      </trkpt>
      <trkpt lat="49.96359" lon="2.37803">
        <ele>106.2</ele>
        <time>2023-01-25T13:34:40Z</time>
      </trkpt>
      <trkpt lat="49.9636" lon="2.37804">
        <ele>106.2</ele>
        <time>2023-01-25T13:34:41Z</time>
      </trkpt>
      <trkpt lat="49.96362" lon="2.37805">
        <ele>106.2</ele>
        <time>2023-01-25T13:34:42Z</time>
      </trkpt>
      <trkpt lat="49.96363" lon="2.37806">
        <ele>106.2</ele>
        <time>2023-01-25T13:34:44Z</time>
      </trkpt>
      <trkpt lat="49.96364" lon="2.37807">
        <ele>106.2</ele>
        <time>2023-01-25T13:34:45Z</time>
      </trkpt>
      <trkpt lat="49.96365" lon="2.37807">
        <ele>106.2</ele>
        <time>2023-01-25T13:34:46Z</time>
      </trkpt>
      <trkpt lat="49.96366" lon="2.37808">
        <ele>106.2</ele>
        <time>2023-01-25T13:34:47Z</time>
      </trkpt>
      <trkpt lat="49.96367" lon="2.37808">
        <ele>106.3</ele>
        <time>2023-01-25T13:34:48Z</time>
      </trkpt>
      <trkpt lat="49.96369" lon="2.37809">
        <ele>106.3</ele>
        <time>2023-01-25T13:34:49Z</time>
      </trkpt>
      <trkpt lat="49.96369" lon="2.3781">
        <ele>106.3</ele>
        <time>2023-01-25T13:34:50Z</time>
      </trkpt>
      <trkpt lat="49.9637" lon="2.37811">
        <ele>106.3</ele>
        <time>2023-01-25T13:34:51Z</time>
      </trkpt>
      <trkpt lat="49.96371" lon="2.37811">
        <ele>106.3</ele>
        <time>2023-01-25T13:34:53Z</time>
      </trkpt>
      <trkpt lat="49.96372" lon="2.37812">
        <ele>106.3</ele>
        <time>2023-01-25T13:34:54Z</time>
      </trkpt>
      <trkpt lat="49.96373" lon="2.37813">
        <ele>106.3</ele>
        <time>2023-01-25T13:34:55Z</time>
      </trkpt>
      <trkpt lat="49.96374" lon="2.37813">
        <ele>106.3</ele>
        <time>2023-01-25T13:34:56Z</time>
      </trkpt>
      <trkpt lat="49.96375" lon="2.37814">
        <ele>106.3</ele>
        <time>2023-01-25T13:34:57Z</time>
      </trkpt>
      <trkpt lat="49.96376" lon="2.37815">
        <ele>106.3</ele>
        <time>2023-01-25T13:34:59Z</time>
      </trkpt>
      <trkpt lat="49.96377" lon="2.37815">
        <ele>106.3</ele>
        <time>2023-01-25T13:35:00Z</time>
      </trkpt>
      <trkpt lat="49.96377" lon="2.37816">
        <ele>106.3</ele>
        <time>2023-01-25T13:35:01Z</time>
      </trkpt>
      <trkpt lat="49.96378" lon="2.37817">
        <ele>106.4</ele>
        <time>2023-01-25T13:35:02Z</time>
      </trkpt>
      <trkpt lat="49.96379" lon="2.37817">
        <ele>106.4</ele>
        <time>2023-01-25T13:35:03Z</time>
      </trkpt>
      <trkpt lat="49.96379" lon="2.37818">
        <ele>106.4</ele>
        <time>2023-01-25T13:35:04Z</time>
      </trkpt>
      <trkpt lat="49.9638" lon="2.37818">
        <ele>106.4</ele>
        <time>2023-01-25T13:35:05Z</time>
      </trkpt>
      <trkpt lat="49.96381" lon="2.37818">
        <ele>106.4</ele>
        <time>2023-01-25T13:35:07Z</time>
      </trkpt>
      <trkpt lat="49.96381" lon="2.37817">
        <ele>106.4</ele>
        <time>2023-01-25T13:35:08Z</time>
      </trkpt>
      <trkpt lat="49.96381" lon="2.37817">
        <ele>106.4</ele>
        <time>2023-01-25T13:35:09Z</time>
      </trkpt>
      <trkpt lat="49.96381" lon="2.37817">
        <ele>106.4</ele>
        <time>2023-01-25T13:35:11Z</time>
      </trkpt>
      <trkpt lat="49.96381" lon="2.37817">
        <ele>106.4</ele>
        <time>2023-01-25T13:35:12Z</time>
      </trkpt>
      <trkpt lat="49.96381" lon="2.37817">
        <ele>106.4</ele>
        <time>2023-01-25T13:35:13Z</time>
      </trkpt>
      <trkpt lat="49.96381" lon="2.37817">
        <ele>106.3</ele>
        <time>2023-01-25T13:35:15Z</time>
      </trkpt>
      <trkpt lat="49.96381" lon="2.37817">
        <ele>106.3</ele>
        <time>2023-01-25T13:35:16Z</time>
      </trkpt>
      <trkpt lat="49.9638" lon="2.37817">
        <ele>106.3</ele>
        <time>2023-01-25T13:35:18Z</time>
      </trkpt>
      <trkpt lat="49.9638" lon="2.37817">
        <ele>106.3</ele>
        <time>2023-01-25T13:35:19Z</time>
      </trkpt>
      <trkpt lat="49.9638" lon="2.37817">
        <ele>106.3</ele>
        <time>2023-01-25T13:35:20Z</time>
      </trkpt>
      <trkpt lat="49.9638" lon="2.37817">
        <ele>106.3</ele>
        <time>2023-01-25T13:35:22Z</time>
      </trkpt>
      <trkpt lat="49.9638" lon="2.37817">
        <ele>106.3</ele>
        <time>2023-01-25T13:35:23Z</time>
      </trkpt>
      <trkpt lat="49.96379" lon="2.37817">
        <ele>106.3</ele>
        <time>2023-01-25T13:35:24Z</time>
      </trkpt>
      <trkpt lat="49.96379" lon="2.37817">
        <ele>106.3</ele>
        <time>2023-01-25T13:35:25Z</time>
      </trkpt>
      <trkpt lat="49.96379" lon="2.37817">
        <ele>106.3</ele>
        <time>2023-01-25T13:35:26Z</time>
      </trkpt>
      <trkpt lat="49.96379" lon="2.37817">
        <ele>106.3</ele>
        <time>2023-01-25T13:35:27Z</time>
      </trkpt>
      <trkpt lat="49.96379" lon="2.37817">
        <ele>106.3</ele>
        <time>2023-01-25T13:35:28Z</time>
      </trkpt>
      <trkpt lat="49.96379" lon="2.37817">
        <ele>106.3</ele>
        <time>2023-01-25T13:35:29Z</time>
      </trkpt>
      <trkpt lat="49.96379" lon="2.37817">
        <ele>106.3</ele>
        <time>2023-01-25T13:35:30Z</time>
      </trkpt>
      <trkpt lat="49.96379" lon="2.37817">
        <ele>106.3</ele>
        <time>2023-01-25T13:35:31Z</time>
      </trkpt>
      <trkpt lat="49.96379" lon="2.37817">
        <ele>106.3</ele>
        <time>2023-01-25T13:35:32Z</time>
      </trkpt>
      <trkpt lat="49.96379" lon="2.37817">
        <ele>106.3</ele>
        <time>2023-01-25T13:35:33Z</time>
      </trkpt>
      <trkpt lat="49.96379" lon="2.37817">
        <ele>106.3</ele>
        <time>2023-01-25T13:35:34Z</time>
      </trkpt>
      <trkpt lat="49.96379" lon="2.37817">
        <ele>106.3</ele>
        <time>2023-01-25T13:35:35Z</time>
      </trkpt>
      <trkpt lat="49.96379" lon="2.37817">
        <ele>106.3</ele>
        <time>2023-01-25T13:35:36Z</time>
      </trkpt>
      <trkpt lat="49.96379" lon="2.37817">
        <ele>106.3</ele>
        <time>2023-01-25T13:35:37Z</time>
      </trkpt>
      <trkpt lat="49.96379" lon="2.37817">
        <ele>106.3</ele>
        <time>2023-01-25T13:35:38Z</time>
      </trkpt>
      <trkpt lat="49.96379" lon="2.37817">
        <ele>106.3</ele>
        <time>2023-01-25T13:35:39Z</time>
      </trkpt>
      <trkpt lat="49.96379" lon="2.37817">
        <ele>106.3</ele>
        <time>2023-01-25T13:35:40Z</time>
      </trkpt>
      <trkpt lat="49.96379" lon="2.37817">
        <ele>106.3</ele>
        <time>2023-01-25T13:35:41Z</time>
      </trkpt>
      <trkpt lat="49.96379" lon="2.37817">
        <ele>106.3</ele>
        <time>2023-01-25T13:35:42Z</time>
      </trkpt>
      <trkpt lat="49.96379" lon="2.37817">
        <ele>106.3</ele>
        <time>2023-01-25T13:35:43Z</time>
      </trkpt>
      <trkpt lat="49.96379" lon="2.37817">
        <ele>106.3</ele>
        <time>2023-01-25T13:35:44Z</time>
      </trkpt>
      <trkpt lat="49.96379" lon="2.37817">
        <ele>106.3</ele>
        <time>2023-01-25T13:35:45Z</time>
      </trkpt>
      <trkpt lat="49.96379" lon="2.37817">
        <ele>106.3</ele>
        <time>2023-01-25T13:35:46Z</time>
      </trkpt>
      <trkpt lat="49.96379" lon="2.37817">
        <ele>106.3</ele>
        <time>2023-01-25T13:35:47Z</time>
      </trkpt>
      <trkpt lat="49.96379" lon="2.37817">
        <ele>106.3</ele>
        <time>2023-01-25T13:35:48Z</time>
      </trkpt>
      <trkpt lat="49.96379" lon="2.37817">
        <ele>106.3</ele>
        <time>2023-01-25T13:35:49Z</time>
      </trkpt>
      <trkpt lat="49.96379" lon="2.37817">
        <ele>106.3</ele>
        <time>2023-01-25T13:35:50Z</time>
      </trkpt>
      <trkpt lat="49.96379" lon="2.37817">
        <ele>106.3</ele>
        <time>2023-01-25T13:35:51Z</time>
      </trkpt>
      <trkpt lat="49.96379" lon="2.37817">
        <ele>106.3</ele>
        <time>2023-01-25T13:35:52Z</time>
      </trkpt>
      <trkpt lat="49.96379" lon="2.37817">
        <ele>106.3</ele>
        <time>2023-01-25T13:35:53Z</time>
      </trkpt>
      <trkpt lat="49.96379" lon="2.37817">
        <ele>106.3</ele>
        <time>2023-01-25T13:35:54Z</time>
      </trkpt>
      <trkpt lat="49.96379" lon="2.37817">
        <ele>106.3</ele>
        <time>2023-01-25T13:35:55Z</time>
      </trkpt>
      <trkpt lat="49.96379" lon="2.37817">
        <ele>106.3</ele>
        <time>2023-01-25T13:35:56Z</time>
      </trkpt>
      <trkpt lat="49.96379" lon="2.37817">
        <ele>106.3</ele>
        <time>2023-01-25T13:35:57Z</time>
      </trkpt>
      <trkpt lat="49.96379" lon="2.37817">
        <ele>106.3</ele>
        <time>2023-01-25T13:35:58Z</time>
      </trkpt>
      <trkpt lat="49.96379" lon="2.37817">
        <ele>106.3</ele>
        <time>2023-01-25T13:35:59Z</time>
      </trkpt>
      <trkpt lat="49.96379" lon="2.37817">
        <ele>106.3</ele>
        <time>2023-01-25T13:36:00Z</time>
      </trkpt>
      <trkpt lat="49.96379" lon="2.37817">
        <ele>106.3</ele>
        <time>2023-01-25T13:36:01Z</time>
      </trkpt>
      <trkpt lat="49.96379" lon="2.37817">
        <ele>106.3</ele>
        <time>2023-01-25T13:36:02Z</time>
      </trkpt>
      <trkpt lat="49.96379" lon="2.37817">
        <ele>106.3</ele>
        <time>2023-01-25T13:36:03Z</time>
      </trkpt>
      <trkpt lat="49.96379" lon="2.37817">
        <ele>106.3</ele>
        <time>2023-01-25T13:36:04Z</time>
      </trkpt>
      <trkpt lat="49.96379" lon="2.37817">
        <ele>106.3</ele>
        <time>2023-01-25T13:36:05Z</time>
      </trkpt>
      <trkpt lat="49.96379" lon="2.37817">
        <ele>106.3</ele>
        <time>2023-01-25T13:36:06Z</time>
      </trkpt>
      <trkpt lat="49.96379" lon="2.37817">
        <ele>106.3</ele>
        <time>2023-01-25T13:36:07Z</time>
      </trkpt>
      <trkpt lat="49.96379" lon="2.37817">
        <ele>106.3</ele>
        <time>2023-01-25T13:36:08Z</time>
      </trkpt>
      <trkpt lat="49.96379" lon="2.37817">
        <ele>106.3</ele>
        <time>2023-01-25T13:36:09Z</time>
      </trkpt>
      <trkpt lat="49.96379" lon="2.37817">
        <ele>106.3</ele>
        <time>2023-01-25T13:36:10Z</time>
      </trkpt>
      <trkpt lat="49.96379" lon="2.37817">
        <ele>106.3</ele>
        <time>2023-01-25T13:36:11Z</time>
      </trkpt>
      <trkpt lat="49.96379" lon="2.37817">
        <ele>106.3</ele>
        <time>2023-01-25T13:36:12Z</time>
      </trkpt>
      <trkpt lat="49.96379" lon="2.37817">
        <ele>106.3</ele>
        <time>2023-01-25T13:36:13Z</time>
      </trkpt>
      <trkpt lat="49.96379" lon="2.37817">
        <ele>106.3</ele>
        <time>2023-01-25T13:36:14Z</time>
      </trkpt>
      <trkpt lat="49.96379" lon="2.37817">
        <ele>106.3</ele>
        <time>2023-01-25T13:36:15Z</time>
      </trkpt>
      <trkpt lat="49.96379" lon="2.37817">
        <ele>106.3</ele>
        <time>2023-01-25T13:36:16Z</time>
      </trkpt>
      <trkpt lat="49.96379" lon="2.37817">
        <ele>106.3</ele>
        <time>2023-01-25T13:36:17Z</time>
      </trkpt>
      <trkpt lat="49.96379" lon="2.37817">
        <ele>106.3</ele>
        <time>2023-01-25T13:36:18Z</time>
      </trkpt>
      <trkpt lat="49.96379" lon="2.37817">
        <ele>106.3</ele>
        <time>2023-01-25T13:36:19Z</time>
      </trkpt>
      <trkpt lat="49.96379" lon="2.37817">
        <ele>106.3</ele>
        <time>2023-01-25T13:36:20Z</time>
      </trkpt>
      <trkpt lat="49.96379" lon="2.37817">
        <ele>106.3</ele>
        <time>2023-01-25T13:36:21Z</time>
      </trkpt>
      <trkpt lat="49.96379" lon="2.37817">
        <ele>106.3</ele>
        <time>2023-01-25T13:36:22Z</time>
      </trkpt>
      <trkpt lat="49.96379" lon="2.37817">
        <ele>106.3</ele>
        <time>2023-01-25T13:36:23Z</time>
      </trkpt>
      <trkpt lat="49.96379" lon="2.37817">
        <ele>106.3</ele>
        <time>2023-01-25T13:36:24Z</time>
      </trkpt>
      <trkpt lat="49.96379" lon="2.37817">
        <ele>106.3</ele>
        <time>2023-01-25T13:36:25Z</time>
      </trkpt>
      <trkpt lat="49.96379" lon="2.37817">
        <ele>106.3</ele>
        <time>2023-01-25T13:36:26Z</time>
      </trkpt>
      <trkpt lat="49.96379" lon="2.37817">
        <ele>106.3</ele>
        <time>2023-01-25T13:36:27Z</time>
      </trkpt>
      <trkpt lat="49.96379" lon="2.37817">
        <ele>106.3</ele>
        <time>2023-01-25T13:36:28Z</time>
      </trkpt>
      <trkpt lat="49.96379" lon="2.37817">
        <ele>106.3</ele>
        <time>2023-01-25T13:36:29Z</time>
      </trkpt>
      <trkpt lat="49.96379" lon="2.37817">
        <ele>106.3</ele>
        <time>2023-01-25T13:36:30Z</time>
      </trkpt>
      <trkpt lat="49.96379" lon="2.37817">
        <ele>106.3</ele>
        <time>2023-01-25T13:36:31Z</time>
      </trkpt>
      <trkpt lat="49.96379" lon="2.37817">
        <ele>106.3</ele>
        <time>2023-01-25T13:36:32Z</time>
      </trkpt>
      <trkpt lat="49.96379" lon="2.37817">
        <ele>106.3</ele>
        <time>2023-01-25T13:36:33Z</time>
      </trkpt>
      <trkpt lat="49.96379" lon="2.37817">
        <ele>106.3</ele>
        <time>2023-01-25T13:36:34Z</time>
      </trkpt>
      <trkpt lat="49.96379" lon="2.37817">
        <ele>106.3</ele>
        <time>2023-01-25T13:36:35Z</time>
      </trkpt>
      <trkpt lat="49.96379" lon="2.37817">
        <ele>106.3</ele>
        <time>2023-01-25T13:36:36Z</time>
      </trkpt>
      <trkpt lat="49.96379" lon="2.37817">
        <ele>106.3</ele>
        <time>2023-01-25T13:36:37Z</time>
      </trkpt>
      <trkpt lat="49.96379" lon="2.37817">
        <ele>106.3</ele>
        <time>2023-01-25T13:36:38Z</time>
      </trkpt>
      <trkpt lat="49.96379" lon="2.37817">
        <ele>106.3</ele>
        <time>2023-01-25T13:36:39Z</time>
      </trkpt>
      <trkpt lat="49.96379" lon="2.37817">
        <ele>106.3</ele>
        <time>2023-01-25T13:36:40Z</time>
      </trkpt>
      <trkpt lat="49.96379" lon="2.37817">
        <ele>106.3</ele>
        <time>2023-01-25T13:36:41Z</time>
      </trkpt>
      <trkpt lat="49.96379" lon="2.37817">
        <ele>106.3</ele>
        <time>2023-01-25T13:36:42Z</time>
      </trkpt>
      <trkpt lat="49.96379" lon="2.37817">
        <ele>106.3</ele>
        <time>2023-01-25T13:36:43Z</time>
      </trkpt>
      <trkpt lat="49.96379" lon="2.37817">
        <ele>106.3</ele>
        <time>2023-01-25T13:36:44Z</time>
      </trkpt>
      <trkpt lat="49.96379" lon="2.37817">
        <ele>106.3</ele>
        <time>2023-01-25T13:36:45Z</time>
      </trkpt>
      <trkpt lat="49.96379" lon="2.37817">
        <ele>106.3</ele>
        <time>2023-01-25T13:36:46Z</time>
      </trkpt>
      <trkpt lat="49.96379" lon="2.37817">
        <ele>106.3</ele>
        <time>2023-01-25T13:36:47Z</time>
      </trkpt>
      <trkpt lat="49.96379" lon="2.37817">
        <ele>106.3</ele>
        <time>2023-01-25T13:36:48Z</time>
      </trkpt>
      <trkpt lat="49.96379" lon="2.37817">
        <ele>106.3</ele>
        <time>2023-01-25T13:36:49Z</time>
      </trkpt>
      <trkpt lat="49.96379" lon="2.37817">
        <ele>106.3</ele>
        <time>2023-01-25T13:36:50Z</time>
      </trkpt>
      <trkpt lat="49.96379" lon="2.37817">
        <ele>106.3</ele>
        <time>2023-01-25T13:36:51Z</time>
      </trkpt>
      <trkpt lat="49.96379" lon="2.37817">
        <ele>106.3</ele>
        <time>2023-01-25T13:36:52Z</time>
      </trkpt>
      <trkpt lat="49.96379" lon="2.37817">
        <ele>106.3</ele>
        <time>2023-01-25T13:36:53Z</time>
      </trkpt>
      <trkpt lat="49.96379" lon="2.37817">
        <ele>106.3</ele>
        <time>2023-01-25T13:36:54Z</time>
      </trkpt>
      <trkpt lat="49.96379" lon="2.37817">
        <ele>106.3</ele>
        <time>2023-01-25T13:36:55Z</time>
      </trkpt>
      <trkpt lat="49.96379" lon="2.37817">
        <ele>106.3</ele>
        <time>2023-01-25T13:36:56Z</time>
      </trkpt>
      <trkpt lat="49.96379" lon="2.37817">
        <ele>106.3</ele>
        <time>2023-01-25T13:36:57Z</time>
      </trkpt>
      <trkpt lat="49.96379" lon="2.37817">
        <ele>106.3</ele>
        <time>2023-01-25T13:36:58Z</time>
      </trkpt>
      <trkpt lat="49.96379" lon="2.37817">
        <ele>106.3</ele>
        <time>2023-01-25T13:36:59Z</time>
      </trkpt>
      <trkpt lat="49.96379" lon="2.37817">
        <ele>106.3</ele>
        <time>2023-01-25T13:37:00Z</time>
      </trkpt>
      <trkpt lat="49.96379" lon="2.37817">
        <ele>106.3</ele>
        <time>2023-01-25T13:37:01Z</time>
      </trkpt>
      <trkpt lat="49.96379" lon="2.37817">
        <ele>106.3</ele>
        <time>2023-01-25T13:37:02Z</time>
      </trkpt>
      <trkpt lat="49.96379" lon="2.37817">
        <ele>106.3</ele>
        <time>2023-01-25T13:37:03Z</time>
      </trkpt>
      <trkpt lat="49.96379" lon="2.37817">
        <ele>106.3</ele>
        <time>2023-01-25T13:37:04Z</time>
      </trkpt>
      <trkpt lat="49.96379" lon="2.37817">
        <ele>106.3</ele>
        <time>2023-01-25T13:37:05Z</time>
      </trkpt>
      <trkpt lat="49.96379" lon="2.37817">
        <ele>106.3</ele>
        <time>2023-01-25T13:37:06Z</time>
      </trkpt>
      <trkpt lat="49.96379" lon="2.37817">
        <ele>106.3</ele>
        <time>2023-01-25T13:37:07Z</time>
      </trkpt>
      <trkpt lat="49.96379" lon="2.37817">
        <ele>106.3</ele>
        <time>2023-01-25T13:37:08Z</time>
      </trkpt>
      <trkpt lat="49.96379" lon="2.37817">
        <ele>106.3</ele>
        <time>2023-01-25T13:37:09Z</time>
      </trkpt>
      <trkpt lat="49.96379" lon="2.37817">
        <ele>106.3</ele>
        <time>2023-01-25T13:37:10Z</time>
      </trkpt>
      <trkpt lat="49.96379" lon="2.37817">
        <ele>106.3</ele>
        <time>2023-01-25T13:37:11Z</time>
      </trkpt>
      <trkpt lat="49.96379" lon="2.37817">
        <ele>106.3</ele>
        <time>2023-01-25T13:37:12Z</time>
      </trkpt>
      <trkpt lat="49.96379" lon="2.37817">
        <ele>106.3</ele>
        <time>2023-01-25T13:37:13Z</time>
      </trkpt>
      <trkpt lat="49.96379" lon="2.37817">
        <ele>106.3</ele>
        <time>2023-01-25T13:37:14Z</time>
      </trkpt>
      <trkpt lat="49.96379" lon="2.37817">
        <ele>106.3</ele>
        <time>2023-01-25T13:37:15Z</time>
      </trkpt>
      <trkpt lat="49.96379" lon="2.37817">
        <ele>106.3</ele>
        <time>2023-01-25T13:37:16Z</time>
      </trkpt>
      <trkpt lat="49.96379" lon="2.37817">
        <ele>106.3</ele>
        <time>2023-01-25T13:37:17Z</time>
      </trkpt>
      <trkpt lat="49.96379" lon="2.37817">
        <ele>106.3</ele>
        <time>2023-01-25T13:37:18Z</time>
      </trkpt>
      <trkpt lat="49.96379" lon="2.37817">
        <ele>106.3</ele>
        <time>2023-01-25T13:37:19Z</time>
      </trkpt>
      <trkpt lat="49.96379" lon="2.37817">
        <ele>106.3</ele>
        <time>2023-01-25T13:37:20Z</time>
      </trkpt>
      <trkpt lat="49.96379" lon="2.37817">
        <ele>106.3</ele>
        <time>2023-01-25T13:37:21Z</time>
      </trkpt>
      <trkpt lat="49.96379" lon="2.37817">
        <ele>106.3</ele>
        <time>2023-01-25T13:37:22Z</time>
      </trkpt>
      <trkpt lat="49.96379" lon="2.37817">
        <ele>106.3</ele>
        <time>2023-01-25T13:37:23Z</time>
      </trkpt>
      <trkpt lat="49.96379" lon="2.37817">
        <ele>106.3</ele>
        <time>2023-01-25T13:37:24Z</time>
      </trkpt>
      <trkpt lat="49.96379" lon="2.37817">
        <ele>106.3</ele>
        <time>2023-01-25T13:37:25Z</time>
      </trkpt>
      <trkpt lat="49.96379" lon="2.37817">
        <ele>106.3</ele>
        <time>2023-01-25T13:37:26Z</time>
      </trkpt>
      <trkpt lat="49.96379" lon="2.37817">
        <ele>106.3</ele>
        <time>2023-01-25T13:37:27Z</time>
      </trkpt>
      <trkpt lat="49.96379" lon="2.37817">
        <ele>106.3</ele>
        <time>2023-01-25T13:37:28Z</time>
      </trkpt>
      <trkpt lat="49.96379" lon="2.37817">
        <ele>106.3</ele>
        <time>2023-01-25T13:37:29Z</time>
      </trkpt>
      <trkpt lat="49.96379" lon="2.37817">
        <ele>106.3</ele>
        <time>2023-01-25T13:37:30Z</time>
      </trkpt>
      <trkpt lat="49.96379" lon="2.37817">
        <ele>106.3</ele>
        <time>2023-01-25T13:37:31Z</time>
      </trkpt>
      <trkpt lat="49.96379" lon="2.37817">
        <ele>106.3</ele>
        <time>2023-01-25T13:37:32Z</time>
      </trkpt>
      <trkpt lat="49.96379" lon="2.37817">
        <ele>106.3</ele>
        <time>2023-01-25T13:37:33Z</time>
      </trkpt>
      <trkpt lat="49.96379" lon="2.37817">
        <ele>106.3</ele>
        <time>2023-01-25T13:37:34Z</time>
      </trkpt>
      <trkpt lat="49.96379" lon="2.37817">
        <ele>106.3</ele>
        <time>2023-01-25T13:37:35Z</time>
      </trkpt>
      <trkpt lat="49.96379" lon="2.37817">
        <ele>106.3</ele>
        <time>2023-01-25T13:37:36Z</time>
      </trkpt>
      <trkpt lat="49.96379" lon="2.37817">
        <ele>106.3</ele>
        <time>2023-01-25T13:37:37Z</time>
      </trkpt>
      <trkpt lat="49.96379" lon="2.37817">
        <ele>106.3</ele>
        <time>2023-01-25T13:37:38Z</time>
      </trkpt>
      <trkpt lat="49.96379" lon="2.37817">
        <ele>106.3</ele>
        <time>2023-01-25T13:37:39Z</time>
      </trkpt>
      <trkpt lat="49.96379" lon="2.37817">
        <ele>106.3</ele>
        <time>2023-01-25T13:37:40Z</time>
      </trkpt>
      <trkpt lat="49.96379" lon="2.37817">
        <ele>106.3</ele>
        <time>2023-01-25T13:37:41Z</time>
      </trkpt>
      <trkpt lat="49.96379" lon="2.37817">
        <ele>106.3</ele>
        <time>2023-01-25T13:37:42Z</time>
      </trkpt>
      <trkpt lat="49.96379" lon="2.37817">
        <ele>106.3</ele>
        <time>2023-01-25T13:37:43Z</time>
      </trkpt>
      <trkpt lat="49.96379" lon="2.37817">
        <ele>106.3</ele>
        <time>2023-01-25T13:37:44Z</time>
      </trkpt>
      <trkpt lat="49.96379" lon="2.37817">
        <ele>106.3</ele>
        <time>2023-01-25T13:37:45Z</time>
      </trkpt>
      <trkpt lat="49.96379" lon="2.37817">
        <ele>106.3</ele>
        <time>2023-01-25T13:37:46Z</time>
      </trkpt>
      <trkpt lat="49.96379" lon="2.37817">
        <ele>106.3</ele>
        <time>2023-01-25T13:37:47Z</time>
      </trkpt>
      <trkpt lat="49.96379" lon="2.37817">
        <ele>106.3</ele>
        <time>2023-01-25T13:37:48Z</time>
      </trkpt>
      <trkpt lat="49.96379" lon="2.37817">
        <ele>106.3</ele>
        <time>2023-01-25T13:37:49Z</time>
      </trkpt>
      <trkpt lat="49.96379" lon="2.37817">
        <ele>106.3</ele>
        <time>2023-01-25T13:37:50Z</time>
      </trkpt>
      <trkpt lat="49.96379" lon="2.37817">
        <ele>106.3</ele>
        <time>2023-01-25T13:37:51Z</time>
      </trkpt>
      <trkpt lat="49.96379" lon="2.37817">
        <ele>106.3</ele>
        <time>2023-01-25T13:37:52Z</time>
      </trkpt>
      <trkpt lat="49.96379" lon="2.37817">
        <ele>106.3</ele>
        <time>2023-01-25T13:37:53Z</time>
      </trkpt>
      <trkpt lat="49.96379" lon="2.37817">
        <ele>106.3</ele>
        <time>2023-01-25T13:37:54Z</time>
      </trkpt>
      <trkpt lat="49.96379" lon="2.37817">
        <ele>106.3</ele>
        <time>2023-01-25T13:37:55Z</time>
      </trkpt>
      <trkpt lat="49.96379" lon="2.37817">
        <ele>106.3</ele>
        <time>2023-01-25T13:37:56Z</time>
      </trkpt>
      <trkpt lat="49.96379" lon="2.37817">
        <ele>106.3</ele>
        <time>2023-01-25T13:37:57Z</time>
      </trkpt>
      <trkpt lat="49.96379" lon="2.37817">
        <ele>106.3</ele>
        <time>2023-01-25T13:37:58Z</time>
      </trkpt>
      <trkpt lat="49.96379" lon="2.37817">
        <ele>106.3</ele>
        <time>2023-01-25T13:37:59Z</time>
      </trkpt>
      <trkpt lat="49.96379" lon="2.37817">
        <ele>106.3</ele>
        <time>2023-01-25T13:38:00Z</time>
      </trkpt>
      <trkpt lat="49.96379" lon="2.37817">
        <ele>106.3</ele>
        <time>2023-01-25T13:38:01Z</time>
      </trkpt>
      <trkpt lat="49.96379" lon="2.37817">
        <ele>106.3</ele>
        <time>2023-01-25T13:38:02Z</time>
      </trkpt>
      <trkpt lat="49.96379" lon="2.37817">
        <ele>106.3</ele>
        <time>2023-01-25T13:38:03Z</time>
      </trkpt>
      <trkpt lat="49.96379" lon="2.37817">
        <ele>106.3</ele>
        <time>2023-01-25T13:38:04Z</time>
      </trkpt>
      <trkpt lat="49.96379" lon="2.37817">
        <ele>106.3</ele>
        <time>2023-01-25T13:38:05Z</time>
      </trkpt>
      <trkpt lat="49.96379" lon="2.37817">
        <ele>106.3</ele>
        <time>2023-01-25T13:38:06Z</time>
      </trkpt>
      <trkpt lat="49.96379" lon="2.37817">
        <ele>106.3</ele>
        <time>2023-01-25T13:38:07Z</time>
      </trkpt>
      <trkpt lat="49.96379" lon="2.37817">
        <ele>106.3</ele>
        <time>2023-01-25T13:38:08Z</time>
      </trkpt>
      <trkpt lat="49.96379" lon="2.37817">
        <ele>106.3</ele>
        <time>2023-01-25T13:38:09Z</time>
      </trkpt>
      <trkpt lat="49.96379" lon="2.37817">
        <ele>106.3</ele>
        <time>2023-01-25T13:38:10Z</time>
      </trkpt>
      <trkpt lat="49.96379" lon="2.37817">
        <ele>106.3</ele>
        <time>2023-01-25T13:38:11Z</time>
      </trkpt>
      <trkpt lat="49.96379" lon="2.37817">
        <ele>106.3</ele>
        <time>2023-01-25T13:38:12Z</time>
      </trkpt>
      <trkpt lat="49.96379" lon="2.37817">
        <ele>106.3</ele>
        <time>2023-01-25T13:38:13Z</time>
      </trkpt>
      <trkpt lat="49.96379" lon="2.37817">
        <ele>106.3</ele>
        <time>2023-01-25T13:38:14Z</time>
      </trkpt>
      <trkpt lat="49.96379" lon="2.37817">
        <ele>106.3</ele>
        <time>2023-01-25T13:38:15Z</time>
      </trkpt>
      <trkpt lat="49.96379" lon="2.37817">
        <ele>106.3</ele>
        <time>2023-01-25T13:38:16Z</time>
      </trkpt>
      <trkpt lat="49.96379" lon="2.37817">
        <ele>106.3</ele>
        <time>2023-01-25T13:38:17Z</time>
      </trkpt>
      <trkpt lat="49.96379" lon="2.37817">
        <ele>106.3</ele>
        <time>2023-01-25T13:38:18Z</time>
      </trkpt>
      <trkpt lat="49.96379" lon="2.37817">
        <ele>106.3</ele>
        <time>2023-01-25T13:38:19Z</time>
      </trkpt>
      <trkpt lat="49.96379" lon="2.37817">
        <ele>106.3</ele>
        <time>2023-01-25T13:38:20Z</time>
      </trkpt>
      <trkpt lat="49.96379" lon="2.37817">
        <ele>106.3</ele>
        <time>2023-01-25T13:38:21Z</time>
      </trkpt>
      <trkpt lat="49.96379" lon="2.37817">
        <ele>106.3</ele>
        <time>2023-01-25T13:38:22Z</time>
      </trkpt>
      <trkpt lat="49.96379" lon="2.37817">
        <ele>106.3</ele>
        <time>2023-01-25T13:38:23Z</time>
      </trkpt>
      <trkpt lat="49.96379" lon="2.37817">
        <ele>106.3</ele>
        <time>2023-01-25T13:38:24Z</time>
      </trkpt>
      <trkpt lat="49.96379" lon="2.37817">
        <ele>106.3</ele>
        <time>2023-01-25T13:38:25Z</time>
      </trkpt>
      <trkpt lat="49.96379" lon="2.37817">
        <ele>106.3</ele>
        <time>2023-01-25T13:38:26Z</time>
      </trkpt>
      <trkpt lat="49.96379" lon="2.37817">
        <ele>106.3</ele>
        <time>2023-01-25T13:38:27Z</time>
      </trkpt>
      <trkpt lat="49.96379" lon="2.37817">
        <ele>106.3</ele>
        <time>2023-01-25T13:38:28Z</time>
      </trkpt>
      <trkpt lat="49.96379" lon="2.37817">
        <ele>106.3</ele>
        <time>2023-01-25T13:38:29Z</time>
      </trkpt>
      <trkpt lat="49.96379" lon="2.37817">
        <ele>106.3</ele>
        <time>2023-01-25T13:38:30Z</time>
      </trkpt>
      <trkpt lat="49.96379" lon="2.37817">
        <ele>106.3</ele>
        <time>2023-01-25T13:38:31Z</time>
      </trkpt>
      <trkpt lat="49.96379" lon="2.37817">
        <ele>106.3</ele>
        <time>2023-01-25T13:38:32Z</time>
      </trkpt>
      <trkpt lat="49.96379" lon="2.37817">
        <ele>106.3</ele>
        <time>2023-01-25T13:38:33Z</time>
      </trkpt>
      <trkpt lat="49.96379" lon="2.37817">
        <ele>106.3</ele>
        <time>2023-01-25T13:38:34Z</time>
      </trkpt>
      <trkpt lat="49.96379" lon="2.37817">
        <ele>106.3</ele>
        <time>2023-01-25T13:38:35Z</time>
      </trkpt>
      <trkpt lat="49.96379" lon="2.37817">
        <ele>106.3</ele>
        <time>2023-01-25T13:38:36Z</time>
      </trkpt>
      <trkpt lat="49.96379" lon="2.37817">
        <ele>106.3</ele>
        <time>2023-01-25T13:38:37Z</time>
      </trkpt>
      <trkpt lat="49.96379" lon="2.37817">
        <ele>106.3</ele>
        <time>2023-01-25T13:38:38Z</time>
      </trkpt>
      <trkpt lat="49.96379" lon="2.37817">
        <ele>106.3</ele>
        <time>2023-01-25T13:38:39Z</time>
      </trkpt>
      <trkpt lat="49.96379" lon="2.37817">
        <ele>106.3</ele>
        <time>2023-01-25T13:38:40Z</time>
      </trkpt>
      <trkpt lat="49.96379" lon="2.37817">
        <ele>106.3</ele>
        <time>2023-01-25T13:38:41Z</time>
      </trkpt>
      <trkpt lat="49.96379" lon="2.37817">
        <ele>106.3</ele>
        <time>2023-01-25T13:38:42Z</time>
      </trkpt>
      <trkpt lat="49.96379" lon="2.37817">
        <ele>106.3</ele>
        <time>2023-01-25T13:38:43Z</time>
      </trkpt>
      <trkpt lat="49.96379" lon="2.37817">
        <ele>106.3</ele>
        <time>2023-01-25T13:38:44Z</time>
      </trkpt>
      <trkpt lat="49.96379" lon="2.37817">
        <ele>106.3</ele>
        <time>2023-01-25T13:38:45Z</time>
      </trkpt>
      <trkpt lat="49.96379" lon="2.37817">
        <ele>106.3</ele>
        <time>2023-01-25T13:38:46Z</time>
      </trkpt>
      <trkpt lat="49.96379" lon="2.37817">
        <ele>106.3</ele>
        <time>2023-01-25T13:38:47Z</time>
      </trkpt>
      <trkpt lat="49.96379" lon="2.37817">
        <ele>106.3</ele>
        <time>2023-01-25T13:38:48Z</time>
      </trkpt>
      <trkpt lat="49.96379" lon="2.37817">
        <ele>106.3</ele>
        <time>2023-01-25T13:38:49Z</time>
      </trkpt>
      <trkpt lat="49.96379" lon="2.37817">
        <ele>106.3</ele>
        <time>2023-01-25T13:38:50Z</time>
      </trkpt>
      <trkpt lat="49.96379" lon="2.37817">
        <ele>106.3</ele>
        <time>2023-01-25T13:38:51Z</time>
      </trkpt>
      <trkpt lat="49.96379" lon="2.37817">
        <ele>106.3</ele>
        <time>2023-01-25T13:38:52Z</time>
      </trkpt>
      <trkpt lat="49.96379" lon="2.37817">
        <ele>106.3</ele>
        <time>2023-01-25T13:38:53Z</time>
      </trkpt>
      <trkpt lat="49.96379" lon="2.37817">
        <ele>106.3</ele>
        <time>2023-01-25T13:38:54Z</time>
      </trkpt>
      <trkpt lat="49.96379" lon="2.37817">
        <ele>106.3</ele>
        <time>2023-01-25T13:38:55Z</time>
      </trkpt>
      <trkpt lat="49.96379" lon="2.37817">
        <ele>106.3</ele>
        <time>2023-01-25T13:38:56Z</time>
      </trkpt>
      <trkpt lat="49.96379" lon="2.37817">
        <ele>106.3</ele>
        <time>2023-01-25T13:38:57Z</time>
      </trkpt>
      <trkpt lat="49.96379" lon="2.37817">
        <ele>106.3</ele>
        <time>2023-01-25T13:38:58Z</time>
      </trkpt>
      <trkpt lat="49.96379" lon="2.37817">
        <ele>106.3</ele>
        <time>2023-01-25T13:38:59Z</time>
      </trkpt>
      <trkpt lat="49.96379" lon="2.37817">
        <ele>106.3</ele>
        <time>2023-01-25T13:39:00Z</time>
      </trkpt>
      <trkpt lat="49.96379" lon="2.37817">
        <ele>106.3</ele>
        <time>2023-01-25T13:39:01Z</time>
      </trkpt>
      <trkpt lat="49.96379" lon="2.37817">
        <ele>106.3</ele>
        <time>2023-01-25T13:39:02Z</time>
      </trkpt>
      <trkpt lat="49.96379" lon="2.37817">
        <ele>106.3</ele>
        <time>2023-01-25T13:39:03Z</time>
      </trkpt>
      <trkpt lat="49.96379" lon="2.37817">
        <ele>106.3</ele>
        <time>2023-01-25T13:39:04Z</time>
      </trkpt>
      <trkpt lat="49.96379" lon="2.37817">
        <ele>106.3</ele>
        <time>2023-01-25T13:39:05Z</time>
      </trkpt>
      <trkpt lat="49.96379" lon="2.37817">
        <ele>106.3</ele>
        <time>2023-01-25T13:39:06Z</time>
      </trkpt>
      <trkpt lat="49.96379" lon="2.37817">
        <ele>106.3</ele>
        <time>2023-01-25T13:39:07Z</time>
      </trkpt>
      <trkpt lat="49.96379" lon="2.37817">
        <ele>106.3</ele>
        <time>2023-01-25T13:39:08Z</time>
      </trkpt>
      <trkpt lat="49.96379" lon="2.37817">
        <ele>106.3</ele>
        <time>2023-01-25T13:39:09Z</time>
      </trkpt>
      <trkpt lat="49.96379" lon="2.37817">
        <ele>106.3</ele>
        <time>2023-01-25T13:39:10Z</time>
      </trkpt>
      <trkpt lat="49.96379" lon="2.37817">
        <ele>106.3</ele>
        <time>2023-01-25T13:39:11Z</time>
      </trkpt>
      <trkpt lat="49.96379" lon="2.37817">
        <ele>106.3</ele>
        <time>2023-01-25T13:39:12Z</time>
      </trkpt>
      <trkpt lat="49.96379" lon="2.37817">
        <ele>106.3</ele>
        <time>2023-01-25T13:39:13Z</time>
      </trkpt>
      <trkpt lat="49.96379" lon="2.37817">
        <ele>106.3</ele>
        <time>2023-01-25T13:39:14Z</time>
      </trkpt>
      <trkpt lat="49.96379" lon="2.37817">
        <ele>106.3</ele>
        <time>2023-01-25T13:39:15Z</time>
      </trkpt>
      <trkpt lat="49.96379" lon="2.37817">
        <ele>106.3</ele>
        <time>2023-01-25T13:39:16Z</time>
      </trkpt>
      <trkpt lat="49.96379" lon="2.37817">
        <ele>106.3</ele>
        <time>2023-01-25T13:39:17Z</time>
      </trkpt>
      <trkpt lat="49.96379" lon="2.37817">
        <ele>106.3</ele>
        <time>2023-01-25T13:39:18Z</time>
      </trkpt>
      <trkpt lat="49.96379" lon="2.37817">
        <ele>106.3</ele>
        <time>2023-01-25T13:39:19Z</time>
      </trkpt>
      <trkpt lat="49.96379" lon="2.37817">
        <ele>106.3</ele>
        <time>2023-01-25T13:39:20Z</time>
      </trkpt>
      <trkpt lat="49.96379" lon="2.37817">
        <ele>106.3</ele>
        <time>2023-01-25T13:39:21Z</time>
      </trkpt>
      <trkpt lat="49.96379" lon="2.37817">
        <ele>106.3</ele>
        <time>2023-01-25T13:39:22Z</time>
      </trkpt>
      <trkpt lat="49.96379" lon="2.37817">
        <ele>106.3</ele>
        <time>2023-01-25T13:39:23Z</time>
      </trkpt>
      <trkpt lat="49.96379" lon="2.37817">
        <ele>106.3</ele>
        <time>2023-01-25T13:39:24Z</time>
      </trkpt>
      <trkpt lat="49.96379" lon="2.37817">
        <ele>106.3</ele>
        <time>2023-01-25T13:39:25Z</time>
      </trkpt>
      <trkpt lat="49.96379" lon="2.37817">
        <ele>106.3</ele>
        <time>2023-01-25T13:39:26Z</time>
      </trkpt>
      <trkpt lat="49.96379" lon="2.37817">
        <ele>106.3</ele>
        <time>2023-01-25T13:39:27Z</time>
      </trkpt>
      <trkpt lat="49.96379" lon="2.37817">
        <ele>106.3</ele>
        <time>2023-01-25T13:39:28Z</time>
      </trkpt>
      <trkpt lat="49.96379" lon="2.37817">
        <ele>106.3</ele>
        <time>2023-01-25T13:39:29Z</time>
      </trkpt>
      <trkpt lat="49.96379" lon="2.37817">
        <ele>106.3</ele>
        <time>2023-01-25T13:39:30Z</time>
      </trkpt>
      <trkpt lat="49.96379" lon="2.37817">
        <ele>106.3</ele>
        <time>2023-01-25T13:39:31Z</time>
      </trkpt>
      <trkpt lat="49.96379" lon="2.37817">
        <ele>106.3</ele>
        <time>2023-01-25T13:39:32Z</time>
      </trkpt>
      <trkpt lat="49.96379" lon="2.37817">
        <ele>106.3</ele>
        <time>2023-01-25T13:39:33Z</time>
      </trkpt>
      <trkpt lat="49.96379" lon="2.37817">
        <ele>106.3</ele>
        <time>2023-01-25T13:39:34Z</time>
      </trkpt>
      <trkpt lat="49.96379" lon="2.37817">
        <ele>106.3</ele>
        <time>2023-01-25T13:39:35Z</time>
      </trkpt>
      <trkpt lat="49.96379" lon="2.37817">
        <ele>106.3</ele>
        <time>2023-01-25T13:39:36Z</time>
      </trkpt>
      <trkpt lat="49.96379" lon="2.37817">
        <ele>106.3</ele>
        <time>2023-01-25T13:39:37Z</time>
      </trkpt>
      <trkpt lat="49.96379" lon="2.37817">
        <ele>106.3</ele>
        <time>2023-01-25T13:39:38Z</time>
      </trkpt>
      <trkpt lat="49.96379" lon="2.37817">
        <ele>106.3</ele>
        <time>2023-01-25T13:39:39Z</time>
      </trkpt>
      <trkpt lat="49.96379" lon="2.37817">
        <ele>106.3</ele>
        <time>2023-01-25T13:39:40Z</time>
      </trkpt>
      <trkpt lat="49.96379" lon="2.37817">
        <ele>106.3</ele>
        <time>2023-01-25T13:39:41Z</time>
      </trkpt>
      <trkpt lat="49.96379" lon="2.37817">
        <ele>106.3</ele>
        <time>2023-01-25T13:39:42Z</time>
      </trkpt>
      <trkpt lat="49.96379" lon="2.37817">
        <ele>106.3</ele>
        <time>2023-01-25T13:39:43Z</time>
      </trkpt>
      <trkpt lat="49.96379" lon="2.37817">
        <ele>106.3</ele>
        <time>2023-01-25T13:39:44Z</time>
      </trkpt>
      <trkpt lat="49.96379" lon="2.37817">
        <ele>106.3</ele>
        <time>2023-01-25T13:39:45Z</time>
      </trkpt>
      <trkpt lat="49.96379" lon="2.37817">
        <ele>106.3</ele>
        <time>2023-01-25T13:39:46Z</time>
      </trkpt>
      <trkpt lat="49.96379" lon="2.37817">
        <ele>106.3</ele>
        <time>2023-01-25T13:39:47Z</time>
      </trkpt>
      <trkpt lat="49.96379" lon="2.37817">
        <ele>106.3</ele>
        <time>2023-01-25T13:39:48Z</time>
      </trkpt>
      <trkpt lat="49.96379" lon="2.37817">
        <ele>106.3</ele>
        <time>2023-01-25T13:39:49Z</time>
      </trkpt>
      <trkpt lat="49.96379" lon="2.37817">
        <ele>106.3</ele>
        <time>2023-01-25T13:39:50Z</time>
      </trkpt>
      <trkpt lat="49.96379" lon="2.37817">
        <ele>106.3</ele>
        <time>2023-01-25T13:39:51Z</time>
      </trkpt>
      <trkpt lat="49.96379" lon="2.37817">
        <ele>106.3</ele>
        <time>2023-01-25T13:39:52Z</time>
      </trkpt>
      <trkpt lat="49.96379" lon="2.37817">
        <ele>106.3</ele>
        <time>2023-01-25T13:39:53Z</time>
      </trkpt>
      <trkpt lat="49.96379" lon="2.37817">
        <ele>106.3</ele>
        <time>2023-01-25T13:39:54Z</time>
      </trkpt>
      <trkpt lat="49.96379" lon="2.37817">
        <ele>106.3</ele>
        <time>2023-01-25T13:39:55Z</time>
      </trkpt>
      <trkpt lat="49.96379" lon="2.37817">
        <ele>106.3</ele>
        <time>2023-01-25T13:39:56Z</time>
      </trkpt>
      <trkpt lat="49.96379" lon="2.37817">
        <ele>106.3</ele>
        <time>2023-01-25T13:39:57Z</time>
      </trkpt>
      <trkpt lat="49.96379" lon="2.37817">
        <ele>106.3</ele>
        <time>2023-01-25T13:39:58Z</time>
      </trkpt>
      <trkpt lat="49.96379" lon="2.37817">
        <ele>106.3</ele>
        <time>2023-01-25T13:39:59Z</time>
      </trkpt>
      <trkpt lat="49.96379" lon="2.37817">
        <ele>106.3</ele>
        <time>2023-01-25T13:40:00Z</time>
      </trkpt>
      <trkpt lat="49.96379" lon="2.37817">
        <ele>106.3</ele>
        <time>2023-01-25T13:40:01Z</time>
      </trkpt>
      <trkpt lat="49.96379" lon="2.37817">
        <ele>106.3</ele>
        <time>2023-01-25T13:40:02Z</time>
      </trkpt>
      <trkpt lat="49.96379" lon="2.37817">
        <ele>106.3</ele>
        <time>2023-01-25T13:40:03Z</time>
      </trkpt>
      <trkpt lat="49.96379" lon="2.37817">
        <ele>106.3</ele>
        <time>2023-01-25T13:40:04Z</time>
      </trkpt>
      <trkpt lat="49.96379" lon="2.37817">
        <ele>106.3</ele>
        <time>2023-01-25T13:40:05Z</time>
      </trkpt>
      <trkpt lat="49.96379" lon="2.37817">
        <ele>106.3</ele>
        <time>2023-01-25T13:40:06Z</time>
      </trkpt>
      <trkpt lat="49.96379" lon="2.37817">
        <ele>106.3</ele>
        <time>2023-01-25T13:40:07Z</time>
      </trkpt>
      <trkpt lat="49.96379" lon="2.37817">
        <ele>106.3</ele>
        <time>2023-01-25T13:40:08Z</time>
      </trkpt>
      <trkpt lat="49.96379" lon="2.37817">
        <ele>106.3</ele>
        <time>2023-01-25T13:40:09Z</time>
      </trkpt>
      <trkpt lat="49.96379" lon="2.37817">
        <ele>106.3</ele>
        <time>2023-01-25T13:40:10Z</time>
      </trkpt>
      <trkpt lat="49.96379" lon="2.37817">
        <ele>106.3</ele>
        <time>2023-01-25T13:40:11Z</time>
      </trkpt>
      <trkpt lat="49.96379" lon="2.37817">
        <ele>106.3</ele>
        <time>2023-01-25T13:40:12Z</time>
      </trkpt>
      <trkpt lat="49.96379" lon="2.37817">
        <ele>106.3</ele>
        <time>2023-01-25T13:40:13Z</time>
      </trkpt>
      <trkpt lat="49.96378" lon="2.37818">
        <ele>106.2</ele>
        <time>2023-01-25T13:40:14Z</time>
      </trkpt>
      <trkpt lat="49.96377" lon="2.37819">
        <ele>106.2</ele>
        <time>2023-01-25T13:40:15Z</time>
      </trkpt>
      <trkpt lat="49.96377" lon="2.37819">
        <ele>106.2</ele>
        <time>2023-01-25T13:40:16Z</time>
      </trkpt>
      <trkpt lat="49.96377" lon="2.37819">
        <ele>106.2</ele>
        <time>2023-01-25T13:40:17Z</time>
      </trkpt>
      <trkpt lat="49.96377" lon="2.3782">
        <ele>106.2</ele>
        <time>2023-01-25T13:40:18Z</time>
      </trkpt>
      <trkpt lat="49.96378" lon="2.3782">
        <ele>106.1</ele>
        <time>2023-01-25T13:40:19Z</time>
      </trkpt>
      <trkpt lat="49.96378" lon="2.3782">
        <ele>106.1</ele>
        <time>2023-01-25T13:40:20Z</time>
      </trkpt>
      <trkpt lat="49.96379" lon="2.37821">
        <ele>106.1</ele>
        <time>2023-01-25T13:40:21Z</time>
      </trkpt>
      <trkpt lat="49.96379" lon="2.37821">
        <ele>106.1</ele>
        <time>2023-01-25T13:40:22Z</time>
      </trkpt>
      <trkpt lat="49.9638" lon="2.37822">
        <ele>106.1</ele>
        <time>2023-01-25T13:40:23Z</time>
      </trkpt>
      <trkpt lat="49.9638" lon="2.37823">
        <ele>106</ele>
        <time>2023-01-25T13:40:24Z</time>
      </trkpt>
      <trkpt lat="49.9638" lon="2.37824">
        <ele>106</ele>
        <time>2023-01-25T13:40:25Z</time>
      </trkpt>
      <trkpt lat="49.96381" lon="2.37827">
        <ele>105.9</ele>
        <time>2023-01-25T13:40:26Z</time>
      </trkpt>
      <trkpt lat="49.96381" lon="2.3783">
        <ele>105.8</ele>
        <time>2023-01-25T13:40:27Z</time>
      </trkpt>
      <trkpt lat="49.96381" lon="2.37831">
        <ele>105.8</ele>
        <time>2023-01-25T13:40:28Z</time>
      </trkpt>
      <trkpt lat="49.96381" lon="2.37832">
        <ele>105.8</ele>
        <time>2023-01-25T13:40:29Z</time>
      </trkpt>
      <trkpt lat="49.9638" lon="2.37833">
        <ele>105.8</ele>
        <time>2023-01-25T13:40:30Z</time>
      </trkpt>
      <trkpt lat="49.9638" lon="2.37835">
        <ele>105.7</ele>
        <time>2023-01-25T13:40:31Z</time>
      </trkpt>
      <trkpt lat="49.9638" lon="2.37837">
        <ele>105.7</ele>
        <time>2023-01-25T13:40:32Z</time>
      </trkpt>
      <trkpt lat="49.9638" lon="2.37838">
        <ele>105.6</ele>
        <time>2023-01-25T13:40:33Z</time>
      </trkpt>
      <trkpt lat="49.96381" lon="2.37839">
        <ele>105.6</ele>
        <time>2023-01-25T13:40:34Z</time>
      </trkpt>
      <trkpt lat="49.96381" lon="2.37839">
        <ele>105.6</ele>
        <time>2023-01-25T13:40:35Z</time>
      </trkpt>
      <trkpt lat="49.96382" lon="2.3784">
        <ele>105.6</ele>
        <time>2023-01-25T13:40:36Z</time>
      </trkpt>
      <trkpt lat="49.96382" lon="2.37841">
        <ele>105.5</ele>
        <time>2023-01-25T13:40:37Z</time>
      </trkpt>
      <trkpt lat="49.96381" lon="2.37843">
        <ele>105.5</ele>
        <time>2023-01-25T13:40:38Z</time>
      </trkpt>
      <trkpt lat="49.96381" lon="2.37845">
        <ele>105.4</ele>
        <time>2023-01-25T13:40:39Z</time>
      </trkpt>
      <trkpt lat="49.96381" lon="2.37846">
        <ele>105.4</ele>
        <time>2023-01-25T13:40:40Z</time>
      </trkpt>
      <trkpt lat="49.96381" lon="2.37848">
        <ele>105.4</ele>
        <time>2023-01-25T13:40:41Z</time>
      </trkpt>
      <trkpt lat="49.96381" lon="2.37849">
        <ele>105.3</ele>
        <time>2023-01-25T13:40:42Z</time>
      </trkpt>
      <trkpt lat="49.96381" lon="2.3785">
        <ele>105.3</ele>
        <time>2023-01-25T13:40:43Z</time>
      </trkpt>
      <trkpt lat="49.9638" lon="2.37852">
        <ele>105.3</ele>
        <time>2023-01-25T13:40:44Z</time>
      </trkpt>
      <trkpt lat="49.9638" lon="2.37853">
        <ele>105.2</ele>
        <time>2023-01-25T13:40:45Z</time>
      </trkpt>
      <trkpt lat="49.9638" lon="2.37854">
        <ele>105.2</ele>
        <time>2023-01-25T13:40:46Z</time>
      </trkpt>
      <trkpt lat="49.9638" lon="2.37855">
        <ele>105.2</ele>
        <time>2023-01-25T13:40:47Z</time>
      </trkpt>
      <trkpt lat="49.9638" lon="2.37857">
        <ele>105.1</ele>
        <time>2023-01-25T13:40:48Z</time>
      </trkpt>
      <trkpt lat="49.9638" lon="2.37858">
        <ele>105.1</ele>
        <time>2023-01-25T13:40:49Z</time>
      </trkpt>
      <trkpt lat="49.9638" lon="2.37861">
        <ele>105</ele>
        <time>2023-01-25T13:40:50Z</time>
      </trkpt>
      <trkpt lat="49.9638" lon="2.37863">
        <ele>105</ele>
        <time>2023-01-25T13:40:51Z</time>
      </trkpt>
      <trkpt lat="49.9638" lon="2.37864">
        <ele>105</ele>
        <time>2023-01-25T13:40:52Z</time>
      </trkpt>
      <trkpt lat="49.9638" lon="2.37866">
        <ele>104.9</ele>
        <time>2023-01-25T13:40:54Z</time>
      </trkpt>
      <trkpt lat="49.9638" lon="2.37869">
        <ele>104.9</ele>
        <time>2023-01-25T13:40:55Z</time>
      </trkpt>
      <trkpt lat="49.9638" lon="2.37872">
        <ele>104.8</ele>
        <time>2023-01-25T13:40:56Z</time>
      </trkpt>
      <trkpt lat="49.9638" lon="2.37873">
        <ele>104.7</ele>
        <time>2023-01-25T13:40:57Z</time>
      </trkpt>
      <trkpt lat="49.9638" lon="2.37877">
        <ele>104.7</ele>
        <time>2023-01-25T13:40:58Z</time>
      </trkpt>
      <trkpt lat="49.9638" lon="2.37878">
        <ele>104.6</ele>
        <time>2023-01-25T13:40:59Z</time>
      </trkpt>
      <trkpt lat="49.9638" lon="2.37879">
        <ele>104.6</ele>
        <time>2023-01-25T13:41:00Z</time>
      </trkpt>
      <trkpt lat="49.9638" lon="2.37884">
        <ele>104.5</ele>
        <time>2023-01-25T13:41:01Z</time>
      </trkpt>
      <trkpt lat="49.9638" lon="2.37886">
        <ele>104.4</ele>
        <time>2023-01-25T13:41:03Z</time>
      </trkpt>
      <trkpt lat="49.96379" lon="2.37888">
        <ele>104.4</ele>
        <time>2023-01-25T13:41:04Z</time>
      </trkpt>
      <trkpt lat="49.96379" lon="2.3789">
        <ele>104.4</ele>
        <time>2023-01-25T13:41:05Z</time>
      </trkpt>
      <trkpt lat="49.96379" lon="2.37891">
        <ele>104.3</ele>
        <time>2023-01-25T13:41:06Z</time>
      </trkpt>
      <trkpt lat="49.96379" lon="2.37895">
        <ele>104.2</ele>
        <time>2023-01-25T13:41:07Z</time>
      </trkpt>
      <trkpt lat="49.96379" lon="2.37896">
        <ele>104.2</ele>
        <time>2023-01-25T13:41:08Z</time>
      </trkpt>
      <trkpt lat="49.96378" lon="2.37897">
        <ele>104.2</ele>
        <time>2023-01-25T13:41:09Z</time>
      </trkpt>
      <trkpt lat="49.96378" lon="2.37902">
        <ele>104.1</ele>
        <time>2023-01-25T13:41:10Z</time>
      </trkpt>
      <trkpt lat="49.96378" lon="2.37903">
        <ele>104</ele>
        <time>2023-01-25T13:41:12Z</time>
      </trkpt>
      <trkpt lat="49.96378" lon="2.37905">
        <ele>104</ele>
        <time>2023-01-25T13:41:13Z</time>
      </trkpt>
      <trkpt lat="49.96378" lon="2.37907">
        <ele>103.9</ele>
        <time>2023-01-25T13:41:14Z</time>
      </trkpt>
      <trkpt lat="49.96378" lon="2.37909">
        <ele>103.9</ele>
        <time>2023-01-25T13:41:15Z</time>
      </trkpt>
      <trkpt lat="49.96379" lon="2.37912">
        <ele>103.8</ele>
        <time>2023-01-25T13:41:16Z</time>
      </trkpt>
      <trkpt lat="49.96379" lon="2.37914">
        <ele>103.8</ele>
        <time>2023-01-25T13:41:17Z</time>
      </trkpt>
      <trkpt lat="49.96379" lon="2.37916">
        <ele>103.7</ele>
        <time>2023-01-25T13:41:18Z</time>
      </trkpt>
      <trkpt lat="49.96379" lon="2.37918">
        <ele>103.7</ele>
        <time>2023-01-25T13:41:19Z</time>
      </trkpt>
      <trkpt lat="49.9638" lon="2.37921">
        <ele>103.6</ele>
        <time>2023-01-25T13:41:21Z</time>
      </trkpt>
      <trkpt lat="49.9638" lon="2.37923">
        <ele>103.6</ele>
        <time>2023-01-25T13:41:22Z</time>
      </trkpt>
      <trkpt lat="49.9638" lon="2.37926">
        <ele>103.5</ele>
        <time>2023-01-25T13:41:23Z</time>
      </trkpt>
      <trkpt lat="49.9638" lon="2.37928">
        <ele>103.4</ele>
        <time>2023-01-25T13:41:24Z</time>
      </trkpt>
      <trkpt lat="49.9638" lon="2.37929">
        <ele>103.4</ele>
        <time>2023-01-25T13:41:25Z</time>
      </trkpt>
      <trkpt lat="49.9638" lon="2.37932">
        <ele>103.3</ele>
        <time>2023-01-25T13:41:26Z</time>
      </trkpt>
      <trkpt lat="49.9638" lon="2.37934">
        <ele>103.3</ele>
        <time>2023-01-25T13:41:27Z</time>
      </trkpt>
      <trkpt lat="49.96381" lon="2.37937">
        <ele>103.2</ele>
        <time>2023-01-25T13:41:28Z</time>
      </trkpt>
      <trkpt lat="49.96381" lon="2.37939">
        <ele>103.2</ele>
        <time>2023-01-25T13:41:30Z</time>
      </trkpt>
      <trkpt lat="49.96381" lon="2.37941">
        <ele>103.1</ele>
        <time>2023-01-25T13:41:31Z</time>
      </trkpt>
      <trkpt lat="49.96381" lon="2.37942">
        <ele>103.1</ele>
        <time>2023-01-25T13:41:32Z</time>
      </trkpt>
      <trkpt lat="49.96381" lon="2.37944">
        <ele>103</ele>
        <time>2023-01-25T13:41:33Z</time>
      </trkpt>
      <trkpt lat="49.96381" lon="2.37946">
        <ele>103</ele>
        <time>2023-01-25T13:41:34Z</time>
      </trkpt>
      <trkpt lat="49.96381" lon="2.37948">
        <ele>102.9</ele>
        <time>2023-01-25T13:41:35Z</time>
      </trkpt>
      <trkpt lat="49.96381" lon="2.37951">
        <ele>102.9</ele>
        <time>2023-01-25T13:41:36Z</time>
      </trkpt>
      <trkpt lat="49.96381" lon="2.37952">
        <ele>102.8</ele>
        <time>2023-01-25T13:41:37Z</time>
      </trkpt>
      <trkpt lat="49.96381" lon="2.37954">
        <ele>102.8</ele>
        <time>2023-01-25T13:41:38Z</time>
      </trkpt>
      <trkpt lat="49.96381" lon="2.37956">
        <ele>102.7</ele>
        <time>2023-01-25T13:41:39Z</time>
      </trkpt>
      <trkpt lat="49.96381" lon="2.37957">
        <ele>102.6</ele>
        <time>2023-01-25T13:41:40Z</time>
      </trkpt>
      <trkpt lat="49.9638" lon="2.3796">
        <ele>102.6</ele>
        <time>2023-01-25T13:41:41Z</time>
      </trkpt>
      <trkpt lat="49.9638" lon="2.37962">
        <ele>102.5</ele>
        <time>2023-01-25T13:41:43Z</time>
      </trkpt>
      <trkpt lat="49.9638" lon="2.37964">
        <ele>102.4</ele>
        <time>2023-01-25T13:41:44Z</time>
      </trkpt>
      <trkpt lat="49.9638" lon="2.37966">
        <ele>102.4</ele>
        <time>2023-01-25T13:41:45Z</time>
      </trkpt>
      <trkpt lat="49.9638" lon="2.3797">
        <ele>102.2</ele>
        <time>2023-01-25T13:41:46Z</time>
      </trkpt>
      <trkpt lat="49.96379" lon="2.37971">
        <ele>102.2</ele>
        <time>2023-01-25T13:41:47Z</time>
      </trkpt>
      <trkpt lat="49.96379" lon="2.37973">
        <ele>102.1</ele>
        <time>2023-01-25T13:41:48Z</time>
      </trkpt>
      <trkpt lat="49.96379" lon="2.37975">
        <ele>102.1</ele>
        <time>2023-01-25T13:41:49Z</time>
      </trkpt>
      <trkpt lat="49.96379" lon="2.37977">
        <ele>102</ele>
        <time>2023-01-25T13:41:51Z</time>
      </trkpt>
      <trkpt lat="49.96379" lon="2.3798">
        <ele>101.9</ele>
        <time>2023-01-25T13:41:52Z</time>
      </trkpt>
      <trkpt lat="49.96379" lon="2.37981">
        <ele>101.8</ele>
        <time>2023-01-25T13:41:53Z</time>
      </trkpt>
      <trkpt lat="49.96379" lon="2.37983">
        <ele>101.8</ele>
        <time>2023-01-25T13:41:54Z</time>
      </trkpt>
      <trkpt lat="49.9638" lon="2.37985">
        <ele>101.7</ele>
        <time>2023-01-25T13:41:55Z</time>
      </trkpt>
      <trkpt lat="49.9638" lon="2.37988">
        <ele>101.6</ele>
        <time>2023-01-25T13:41:56Z</time>
      </trkpt>
      <trkpt lat="49.9638" lon="2.37989">
        <ele>101.5</ele>
        <time>2023-01-25T13:41:57Z</time>
      </trkpt>
      <trkpt lat="49.9638" lon="2.37991">
        <ele>101.4</ele>
        <time>2023-01-25T13:41:58Z</time>
      </trkpt>
      <trkpt lat="49.9638" lon="2.37993">
        <ele>101.4</ele>
        <time>2023-01-25T13:42:00Z</time>
      </trkpt>
      <trkpt lat="49.96381" lon="2.37995">
        <ele>101.3</ele>
        <time>2023-01-25T13:42:01Z</time>
      </trkpt>
      <trkpt lat="49.96381" lon="2.37997">
        <ele>101.2</ele>
        <time>2023-01-25T13:42:02Z</time>
      </trkpt>
      <trkpt lat="49.96381" lon="2.37998">
        <ele>101.2</ele>
        <time>2023-01-25T13:42:03Z</time>
      </trkpt>
      <trkpt lat="49.96381" lon="2.38">
        <ele>101.1</ele>
        <time>2023-01-25T13:42:04Z</time>
      </trkpt>
      <trkpt lat="49.96381" lon="2.38002">
        <ele>101</ele>
        <time>2023-01-25T13:42:05Z</time>
      </trkpt>
      <trkpt lat="49.96382" lon="2.38004">
        <ele>100.9</ele>
        <time>2023-01-25T13:42:06Z</time>
      </trkpt>
      <trkpt lat="49.96382" lon="2.38006">
        <ele>100.9</ele>
        <time>2023-01-25T13:42:07Z</time>
      </trkpt>
      <trkpt lat="49.96383" lon="2.38008">
        <ele>100.8</ele>
        <time>2023-01-25T13:42:09Z</time>
      </trkpt>
      <trkpt lat="49.96383" lon="2.3801">
        <ele>100.7</ele>
        <time>2023-01-25T13:42:10Z</time>
      </trkpt>
      <trkpt lat="49.96384" lon="2.38013">
        <ele>100.6</ele>
        <time>2023-01-25T13:42:11Z</time>
      </trkpt>
      <trkpt lat="49.96384" lon="2.38016">
        <ele>100.5</ele>
        <time>2023-01-25T13:42:12Z</time>
      </trkpt>
      <trkpt lat="49.96384" lon="2.38017">
        <ele>100.4</ele>
        <time>2023-01-25T13:42:13Z</time>
      </trkpt>
      <trkpt lat="49.96384" lon="2.38019">
        <ele>100.4</ele>
        <time>2023-01-25T13:42:14Z</time>
      </trkpt>
      <trkpt lat="49.96385" lon="2.38021">
        <ele>100.3</ele>
        <time>2023-01-25T13:42:16Z</time>
      </trkpt>
      <trkpt lat="49.96385" lon="2.38023">
        <ele>100.2</ele>
        <time>2023-01-25T13:42:17Z</time>
      </trkpt>
      <trkpt lat="49.96386" lon="2.38026">
        <ele>100.1</ele>
        <time>2023-01-25T13:42:18Z</time>
      </trkpt>
      <trkpt lat="49.96386" lon="2.38027">
        <ele>100</ele>
        <time>2023-01-25T13:42:19Z</time>
      </trkpt>
      <trkpt lat="49.96386" lon="2.38029">
        <ele>100</ele>
        <time>2023-01-25T13:42:20Z</time>
      </trkpt>
      <trkpt lat="49.96387" lon="2.38031">
        <ele>99.9</ele>
        <time>2023-01-25T13:42:21Z</time>
      </trkpt>
      <trkpt lat="49.96387" lon="2.38033">
        <ele>99.9</ele>
        <time>2023-01-25T13:42:22Z</time>
      </trkpt>
      <trkpt lat="49.96387" lon="2.38034">
        <ele>99.8</ele>
        <time>2023-01-25T13:42:24Z</time>
      </trkpt>
      <trkpt lat="49.96388" lon="2.38038">
        <ele>99.7</ele>
        <time>2023-01-25T13:42:25Z</time>
      </trkpt>
      <trkpt lat="49.96388" lon="2.38039">
        <ele>99.6</ele>
        <time>2023-01-25T13:42:26Z</time>
      </trkpt>
      <trkpt lat="49.96389" lon="2.38041">
        <ele>99.6</ele>
        <time>2023-01-25T13:42:27Z</time>
      </trkpt>
      <trkpt lat="49.9639" lon="2.38044">
        <ele>99.5</ele>
        <time>2023-01-25T13:42:28Z</time>
      </trkpt>
      <trkpt lat="49.9639" lon="2.38045">
        <ele>99.4</ele>
        <time>2023-01-25T13:42:29Z</time>
      </trkpt>
      <trkpt lat="49.9639" lon="2.38047">
        <ele>99.4</ele>
        <time>2023-01-25T13:42:30Z</time>
      </trkpt>
      <trkpt lat="49.96391" lon="2.38051">
        <ele>99.2</ele>
        <time>2023-01-25T13:42:31Z</time>
      </trkpt>
      <trkpt lat="49.96392" lon="2.38053">
        <ele>99.1</ele>
        <time>2023-01-25T13:42:33Z</time>
      </trkpt>
      <trkpt lat="49.96392" lon="2.38054">
        <ele>99.1</ele>
        <time>2023-01-25T13:42:34Z</time>
      </trkpt>
      <trkpt lat="49.96392" lon="2.38056">
        <ele>99</ele>
        <time>2023-01-25T13:42:35Z</time>
      </trkpt>
      <trkpt lat="49.96392" lon="2.38057">
        <ele>99</ele>
        <time>2023-01-25T13:42:36Z</time>
      </trkpt>
      <trkpt lat="49.96393" lon="2.38059">
        <ele>98.9</ele>
        <time>2023-01-25T13:42:37Z</time>
      </trkpt>
      <trkpt lat="49.96393" lon="2.3806">
        <ele>98.9</ele>
        <time>2023-01-25T13:42:38Z</time>
      </trkpt>
      <trkpt lat="49.96394" lon="2.38062">
        <ele>98.8</ele>
        <time>2023-01-25T13:42:39Z</time>
      </trkpt>
      <trkpt lat="49.96394" lon="2.38064">
        <ele>98.7</ele>
        <time>2023-01-25T13:42:41Z</time>
      </trkpt>
      <trkpt lat="49.96395" lon="2.38067">
        <ele>98.6</ele>
        <time>2023-01-25T13:42:42Z</time>
      </trkpt>
      <trkpt lat="49.96395" lon="2.38068">
        <ele>98.6</ele>
        <time>2023-01-25T13:42:43Z</time>
      </trkpt>
      <trkpt lat="49.96395" lon="2.3807">
        <ele>98.5</ele>
        <time>2023-01-25T13:42:44Z</time>
      </trkpt>
      <trkpt lat="49.96395" lon="2.38071">
        <ele>98.5</ele>
        <time>2023-01-25T13:42:45Z</time>
      </trkpt>
      <trkpt lat="49.96396" lon="2.38075">
        <ele>98.4</ele>
        <time>2023-01-25T13:42:46Z</time>
      </trkpt>
      <trkpt lat="49.96397" lon="2.38076">
        <ele>98.3</ele>
        <time>2023-01-25T13:42:47Z</time>
      </trkpt>
      <trkpt lat="49.96397" lon="2.38077">
        <ele>98.3</ele>
        <time>2023-01-25T13:42:48Z</time>
      </trkpt>
      <trkpt lat="49.96398" lon="2.3808">
        <ele>98.1</ele>
        <time>2023-01-25T13:42:50Z</time>
      </trkpt>
      <trkpt lat="49.96398" lon="2.38081">
        <ele>98.1</ele>
        <time>2023-01-25T13:42:51Z</time>
      </trkpt>
      <trkpt lat="49.96398" lon="2.38083">
        <ele>98.1</ele>
        <time>2023-01-25T13:42:52Z</time>
      </trkpt>
      <trkpt lat="49.96399" lon="2.38086">
        <ele>97.9</ele>
        <time>2023-01-25T13:42:53Z</time>
      </trkpt>
      <trkpt lat="49.96399" lon="2.38087">
        <ele>97.9</ele>
        <time>2023-01-25T13:42:54Z</time>
      </trkpt>
      <trkpt lat="49.964" lon="2.38089">
        <ele>97.8</ele>
        <time>2023-01-25T13:42:55Z</time>
      </trkpt>
      <trkpt lat="49.964" lon="2.38091">
        <ele>97.7</ele>
        <time>2023-01-25T13:42:56Z</time>
      </trkpt>
      <trkpt lat="49.96401" lon="2.38093">
        <ele>97.7</ele>
        <time>2023-01-25T13:42:57Z</time>
      </trkpt>
      <trkpt lat="49.96401" lon="2.38095">
        <ele>97.6</ele>
        <time>2023-01-25T13:42:59Z</time>
      </trkpt>
      <trkpt lat="49.96401" lon="2.38096">
        <ele>97.6</ele>
        <time>2023-01-25T13:43:00Z</time>
      </trkpt>
      <trkpt lat="49.96401" lon="2.38098">
        <ele>97.5</ele>
        <time>2023-01-25T13:43:01Z</time>
      </trkpt>
      <trkpt lat="49.96402" lon="2.38101">
        <ele>97.4</ele>
        <time>2023-01-25T13:43:02Z</time>
      </trkpt>
      <trkpt lat="49.96402" lon="2.38103">
        <ele>97.3</ele>
        <time>2023-01-25T13:43:03Z</time>
      </trkpt>
      <trkpt lat="49.96402" lon="2.38105">
        <ele>97.2</ele>
        <time>2023-01-25T13:43:05Z</time>
      </trkpt>
      <trkpt lat="49.96402" lon="2.38107">
        <ele>97.2</ele>
        <time>2023-01-25T13:43:06Z</time>
      </trkpt>
      <trkpt lat="49.96403" lon="2.3811">
        <ele>97.1</ele>
        <time>2023-01-25T13:43:07Z</time>
      </trkpt>
      <trkpt lat="49.96403" lon="2.38112">
        <ele>97</ele>
        <time>2023-01-25T13:43:08Z</time>
      </trkpt>
      <trkpt lat="49.96404" lon="2.38114">
        <ele>96.9</ele>
        <time>2023-01-25T13:43:09Z</time>
      </trkpt>
      <trkpt lat="49.96404" lon="2.38116">
        <ele>96.8</ele>
        <time>2023-01-25T13:43:10Z</time>
      </trkpt>
      <trkpt lat="49.96405" lon="2.38118">
        <ele>96.8</ele>
        <time>2023-01-25T13:43:11Z</time>
      </trkpt>
      <trkpt lat="49.96405" lon="2.38121">
        <ele>96.7</ele>
        <time>2023-01-25T13:43:12Z</time>
      </trkpt>
      <trkpt lat="49.96406" lon="2.38124">
        <ele>96.5</ele>
        <time>2023-01-25T13:43:13Z</time>
      </trkpt>
      <trkpt lat="49.96406" lon="2.38125">
        <ele>96.5</ele>
        <time>2023-01-25T13:43:14Z</time>
      </trkpt>
      <trkpt lat="49.96406" lon="2.38127">
        <ele>96.4</ele>
        <time>2023-01-25T13:43:15Z</time>
      </trkpt>
      <trkpt lat="49.96406" lon="2.38131">
        <ele>96.3</ele>
        <time>2023-01-25T13:43:17Z</time>
      </trkpt>
      <trkpt lat="49.96406" lon="2.38132">
        <ele>96.3</ele>
        <time>2023-01-25T13:43:18Z</time>
      </trkpt>
      <trkpt lat="49.96406" lon="2.38133">
        <ele>96.2</ele>
        <time>2023-01-25T13:43:19Z</time>
      </trkpt>
      <trkpt lat="49.96406" lon="2.38136">
        <ele>96.1</ele>
        <time>2023-01-25T13:43:20Z</time>
      </trkpt>
      <trkpt lat="49.96406" lon="2.38138">
        <ele>96.1</ele>
        <time>2023-01-25T13:43:21Z</time>
      </trkpt>
      <trkpt lat="49.96406" lon="2.38139">
        <ele>96</ele>
        <time>2023-01-25T13:43:22Z</time>
      </trkpt>
      <trkpt lat="49.96406" lon="2.38143">
        <ele>95.9</ele>
        <time>2023-01-25T13:43:24Z</time>
      </trkpt>
      <trkpt lat="49.96406" lon="2.38144">
        <ele>95.8</ele>
        <time>2023-01-25T13:43:25Z</time>
      </trkpt>
      <trkpt lat="49.96406" lon="2.38146">
        <ele>95.8</ele>
        <time>2023-01-25T13:43:26Z</time>
      </trkpt>
      <trkpt lat="49.96406" lon="2.38149">
        <ele>95.7</ele>
        <time>2023-01-25T13:43:27Z</time>
      </trkpt>
      <trkpt lat="49.96406" lon="2.3815">
        <ele>95.6</ele>
        <time>2023-01-25T13:43:28Z</time>
      </trkpt>
      <trkpt lat="49.96406" lon="2.38153">
        <ele>95.5</ele>
        <time>2023-01-25T13:43:30Z</time>
      </trkpt>
      <trkpt lat="49.96406" lon="2.38155">
        <ele>95.5</ele>
        <time>2023-01-25T13:43:31Z</time>
      </trkpt>
      <trkpt lat="49.96406" lon="2.38159">
        <ele>95.3</ele>
        <time>2023-01-25T13:43:32Z</time>
      </trkpt>
      <trkpt lat="49.96405" lon="2.3816">
        <ele>95.3</ele>
        <time>2023-01-25T13:43:33Z</time>
      </trkpt>
      <trkpt lat="49.96404" lon="2.38163">
        <ele>95.2</ele>
        <time>2023-01-25T13:43:34Z</time>
      </trkpt>
      <trkpt lat="49.96404" lon="2.38164">
        <ele>95.1</ele>
        <time>2023-01-25T13:43:35Z</time>
      </trkpt>
      <trkpt lat="49.96403" lon="2.38165">
        <ele>95.1</ele>
        <time>2023-01-25T13:43:36Z</time>
      </trkpt>
      <trkpt lat="49.96403" lon="2.38168">
        <ele>95</ele>
        <time>2023-01-25T13:43:37Z</time>
      </trkpt>
      <trkpt lat="49.96403" lon="2.38169">
        <ele>94.9</ele>
        <time>2023-01-25T13:43:38Z</time>
      </trkpt>
      <trkpt lat="49.96402" lon="2.3817">
        <ele>94.9</ele>
        <time>2023-01-25T13:43:39Z</time>
      </trkpt>
      <trkpt lat="49.96402" lon="2.38173">
        <ele>94.8</ele>
        <time>2023-01-25T13:43:41Z</time>
      </trkpt>
      <trkpt lat="49.96402" lon="2.38176">
        <ele>94.7</ele>
        <time>2023-01-25T13:43:42Z</time>
      </trkpt>
      <trkpt lat="49.96401" lon="2.38177">
        <ele>94.6</ele>
        <time>2023-01-25T13:43:43Z</time>
      </trkpt>
      <trkpt lat="49.96401" lon="2.38179">
        <ele>94.6</ele>
        <time>2023-01-25T13:43:44Z</time>
      </trkpt>
      <trkpt lat="49.96401" lon="2.38181">
        <ele>94.5</ele>
        <time>2023-01-25T13:43:45Z</time>
      </trkpt>
      <trkpt lat="49.964" lon="2.38183">
        <ele>94.4</ele>
        <time>2023-01-25T13:43:46Z</time>
      </trkpt>
      <trkpt lat="49.964" lon="2.38185">
        <ele>94.3</ele>
        <time>2023-01-25T13:43:47Z</time>
      </trkpt>
      <trkpt lat="49.96399" lon="2.38188">
        <ele>94.2</ele>
        <time>2023-01-25T13:43:49Z</time>
      </trkpt>
      <trkpt lat="49.96399" lon="2.38189">
        <ele>94.2</ele>
        <time>2023-01-25T13:43:50Z</time>
      </trkpt>
      <trkpt lat="49.96398" lon="2.38191">
        <ele>94.1</ele>
        <time>2023-01-25T13:43:51Z</time>
      </trkpt>
      <trkpt lat="49.96398" lon="2.38193">
        <ele>94</ele>
        <time>2023-01-25T13:43:52Z</time>
      </trkpt>
      <trkpt lat="49.96398" lon="2.38195">
        <ele>93.9</ele>
        <time>2023-01-25T13:43:53Z</time>
      </trkpt>
      <trkpt lat="49.96397" lon="2.38196">
        <ele>93.9</ele>
        <time>2023-01-25T13:43:54Z</time>
      </trkpt>
      <trkpt lat="49.96397" lon="2.38199">
        <ele>93.8</ele>
        <time>2023-01-25T13:43:56Z</time>
      </trkpt>
      <trkpt lat="49.96397" lon="2.38201">
        <ele>93.7</ele>
        <time>2023-01-25T13:43:58Z</time>
      </trkpt>
      <trkpt lat="49.96396" lon="2.38205">
        <ele>93.6</ele>
        <time>2023-01-25T13:43:59Z</time>
      </trkpt>
      <trkpt lat="49.96396" lon="2.38206">
        <ele>93.5</ele>
        <time>2023-01-25T13:44:00Z</time>
      </trkpt>
      <trkpt lat="49.96396" lon="2.38207">
        <ele>93.5</ele>
        <time>2023-01-25T13:44:01Z</time>
      </trkpt>
      <trkpt lat="49.96396" lon="2.3821">
        <ele>93.4</ele>
        <time>2023-01-25T13:44:02Z</time>
      </trkpt>
      <trkpt lat="49.96396" lon="2.38211">
        <ele>93.3</ele>
        <time>2023-01-25T13:44:03Z</time>
      </trkpt>
      <trkpt lat="49.96396" lon="2.38214">
        <ele>93.2</ele>
        <time>2023-01-25T13:44:05Z</time>
      </trkpt>
      <trkpt lat="49.96396" lon="2.38216">
        <ele>93.2</ele>
        <time>2023-01-25T13:44:06Z</time>
      </trkpt>
      <trkpt lat="49.96395" lon="2.38219">
        <ele>93</ele>
        <time>2023-01-25T13:44:07Z</time>
      </trkpt>
      <trkpt lat="49.96395" lon="2.3822">
        <ele>93</ele>
        <time>2023-01-25T13:44:08Z</time>
      </trkpt>
      <trkpt lat="49.96395" lon="2.38222">
        <ele>92.9</ele>
        <time>2023-01-25T13:44:09Z</time>
      </trkpt>
      <trkpt lat="49.96395" lon="2.38224">
        <ele>92.8</ele>
        <time>2023-01-25T13:44:10Z</time>
      </trkpt>
      <trkpt lat="49.96395" lon="2.38226">
        <ele>92.8</ele>
        <time>2023-01-25T13:44:11Z</time>
      </trkpt>
      <trkpt lat="49.96395" lon="2.38229">
        <ele>92.7</ele>
        <time>2023-01-25T13:44:13Z</time>
      </trkpt>
      <trkpt lat="49.96394" lon="2.3823">
        <ele>92.6</ele>
        <time>2023-01-25T13:44:14Z</time>
      </trkpt>
      <trkpt lat="49.96394" lon="2.38232">
        <ele>92.6</ele>
        <time>2023-01-25T13:44:15Z</time>
      </trkpt>
      <trkpt lat="49.96394" lon="2.38234">
        <ele>92.5</ele>
        <time>2023-01-25T13:44:16Z</time>
      </trkpt>
      <trkpt lat="49.96393" lon="2.38238">
        <ele>92.3</ele>
        <time>2023-01-25T13:44:17Z</time>
      </trkpt>
      <trkpt lat="49.96392" lon="2.38239">
        <ele>92.3</ele>
        <time>2023-01-25T13:44:18Z</time>
      </trkpt>
      <trkpt lat="49.96392" lon="2.3824">
        <ele>92.3</ele>
        <time>2023-01-25T13:44:19Z</time>
      </trkpt>
      <trkpt lat="49.96392" lon="2.38242">
        <ele>92.2</ele>
        <time>2023-01-25T13:44:20Z</time>
      </trkpt>
      <trkpt lat="49.96391" lon="2.38244">
        <ele>92.1</ele>
        <time>2023-01-25T13:44:22Z</time>
      </trkpt>
      <trkpt lat="49.96391" lon="2.38247">
        <ele>92</ele>
        <time>2023-01-25T13:44:23Z</time>
      </trkpt>
      <trkpt lat="49.96391" lon="2.38249">
        <ele>91.9</ele>
        <time>2023-01-25T13:44:24Z</time>
      </trkpt>
      <trkpt lat="49.9639" lon="2.38251">
        <ele>91.8</ele>
        <time>2023-01-25T13:44:25Z</time>
      </trkpt>
      <trkpt lat="49.9639" lon="2.38253">
        <ele>91.8</ele>
        <time>2023-01-25T13:44:26Z</time>
      </trkpt>
      <trkpt lat="49.9639" lon="2.38256">
        <ele>91.6</ele>
        <time>2023-01-25T13:44:27Z</time>
      </trkpt>
      <trkpt lat="49.9639" lon="2.38258">
        <ele>91.6</ele>
        <time>2023-01-25T13:44:28Z</time>
      </trkpt>
      <trkpt lat="49.96389" lon="2.3826">
        <ele>91.5</ele>
        <time>2023-01-25T13:44:30Z</time>
      </trkpt>
      <trkpt lat="49.96389" lon="2.38261">
        <ele>91.4</ele>
        <time>2023-01-25T13:44:31Z</time>
      </trkpt>
      <trkpt lat="49.96388" lon="2.38263">
        <ele>91.4</ele>
        <time>2023-01-25T13:44:32Z</time>
      </trkpt>
      <trkpt lat="49.96388" lon="2.38266">
        <ele>91.3</ele>
        <time>2023-01-25T13:44:33Z</time>
      </trkpt>
      <trkpt lat="49.96388" lon="2.38267">
        <ele>91.2</ele>
        <time>2023-01-25T13:44:34Z</time>
      </trkpt>
      <trkpt lat="49.96387" lon="2.38271">
        <ele>91</ele>
        <time>2023-01-25T13:44:35Z</time>
      </trkpt>
      <trkpt lat="49.96387" lon="2.38273">
        <ele>91</ele>
        <time>2023-01-25T13:44:36Z</time>
      </trkpt>
      <trkpt lat="49.96387" lon="2.38274">
        <ele>90.9</ele>
        <time>2023-01-25T13:44:37Z</time>
      </trkpt>
      <trkpt lat="49.96387" lon="2.38276">
        <ele>90.8</ele>
        <time>2023-01-25T13:44:38Z</time>
      </trkpt>
      <trkpt lat="49.96387" lon="2.38278">
        <ele>90.8</ele>
        <time>2023-01-25T13:44:39Z</time>
      </trkpt>
      <trkpt lat="49.96386" lon="2.38279">
        <ele>90.7</ele>
        <time>2023-01-25T13:44:40Z</time>
      </trkpt>
      <trkpt lat="49.96386" lon="2.38282">
        <ele>90.6</ele>
        <time>2023-01-25T13:44:41Z</time>
      </trkpt>
      <trkpt lat="49.96385" lon="2.38283">
        <ele>90.5</ele>
        <time>2023-01-25T13:44:42Z</time>
      </trkpt>
      <trkpt lat="49.96385" lon="2.38285">
        <ele>90.5</ele>
        <time>2023-01-25T13:44:43Z</time>
      </trkpt>
      <trkpt lat="49.96385" lon="2.38288">
        <ele>90.3</ele>
        <time>2023-01-25T13:44:45Z</time>
      </trkpt>
      <trkpt lat="49.96384" lon="2.38289">
        <ele>90.3</ele>
        <time>2023-01-25T13:44:46Z</time>
      </trkpt>
      <trkpt lat="49.96384" lon="2.38291">
        <ele>90.2</ele>
        <time>2023-01-25T13:44:47Z</time>
      </trkpt>
      <trkpt lat="49.96384" lon="2.38292">
        <ele>90.2</ele>
        <time>2023-01-25T13:44:48Z</time>
      </trkpt>
      <trkpt lat="49.96384" lon="2.38294">
        <ele>90.1</ele>
        <time>2023-01-25T13:44:49Z</time>
      </trkpt>
      <trkpt lat="49.96384" lon="2.38296">
        <ele>90</ele>
        <time>2023-01-25T13:44:50Z</time>
      </trkpt>
      <trkpt lat="49.96384" lon="2.38297">
        <ele>90</ele>
        <time>2023-01-25T13:44:52Z</time>
      </trkpt>
      <trkpt lat="49.96383" lon="2.38301">
        <ele>89.8</ele>
        <time>2023-01-25T13:44:53Z</time>
      </trkpt>
      <trkpt lat="49.96383" lon="2.38304">
        <ele>89.7</ele>
        <time>2023-01-25T13:44:54Z</time>
      </trkpt>
      <trkpt lat="49.96383" lon="2.38305">
        <ele>89.6</ele>
        <time>2023-01-25T13:44:55Z</time>
      </trkpt>
      <trkpt lat="49.96382" lon="2.38306">
        <ele>89.6</ele>
        <time>2023-01-25T13:44:56Z</time>
      </trkpt>
      <trkpt lat="49.96382" lon="2.38309">
        <ele>89.5</ele>
        <time>2023-01-25T13:44:58Z</time>
      </trkpt>
      <trkpt lat="49.96382" lon="2.38311">
        <ele>89.4</ele>
        <time>2023-01-25T13:44:59Z</time>
      </trkpt>
      <trkpt lat="49.96382" lon="2.38314">
        <ele>89.3</ele>
        <time>2023-01-25T13:45:00Z</time>
      </trkpt>
      <trkpt lat="49.96382" lon="2.38316">
        <ele>89.2</ele>
        <time>2023-01-25T13:45:01Z</time>
      </trkpt>
      <trkpt lat="49.96382" lon="2.38318">
        <ele>89.1</ele>
        <time>2023-01-25T13:45:02Z</time>
      </trkpt>
      <trkpt lat="49.96382" lon="2.3832">
        <ele>89</ele>
        <time>2023-01-25T13:45:03Z</time>
      </trkpt>
      <trkpt lat="49.96381" lon="2.38322">
        <ele>89</ele>
        <time>2023-01-25T13:45:04Z</time>
      </trkpt>
      <trkpt lat="49.96381" lon="2.38323">
        <ele>88.9</ele>
        <time>2023-01-25T13:45:05Z</time>
      </trkpt>
      <trkpt lat="49.96381" lon="2.38325">
        <ele>88.8</ele>
        <time>2023-01-25T13:45:06Z</time>
      </trkpt>
      <trkpt lat="49.9638" lon="2.38328">
        <ele>88.7</ele>
        <time>2023-01-25T13:45:08Z</time>
      </trkpt>
      <trkpt lat="49.9638" lon="2.38329">
        <ele>88.6</ele>
        <time>2023-01-25T13:45:09Z</time>
      </trkpt>
      <trkpt lat="49.96379" lon="2.3833">
        <ele>88.6</ele>
        <time>2023-01-25T13:45:10Z</time>
      </trkpt>
      <trkpt lat="49.96379" lon="2.38333">
        <ele>88.4</ele>
        <time>2023-01-25T13:45:11Z</time>
      </trkpt>
      <trkpt lat="49.96379" lon="2.38335">
        <ele>88.4</ele>
        <time>2023-01-25T13:45:12Z</time>
      </trkpt>
      <trkpt lat="49.96379" lon="2.38336">
        <ele>88.3</ele>
        <time>2023-01-25T13:45:13Z</time>
      </trkpt>
      <trkpt lat="49.96378" lon="2.38339">
        <ele>88.2</ele>
        <time>2023-01-25T13:45:14Z</time>
      </trkpt>
      <trkpt lat="49.96378" lon="2.38341">
        <ele>88.1</ele>
        <time>2023-01-25T13:45:15Z</time>
      </trkpt>
      <trkpt lat="49.96378" lon="2.38342">
        <ele>88.1</ele>
        <time>2023-01-25T13:45:16Z</time>
      </trkpt>
      <trkpt lat="49.96378" lon="2.38344">
        <ele>88</ele>
        <time>2023-01-25T13:45:17Z</time>
      </trkpt>
      <trkpt lat="49.96378" lon="2.38346">
        <ele>87.9</ele>
        <time>2023-01-25T13:45:18Z</time>
      </trkpt>
      <trkpt lat="49.96378" lon="2.38348">
        <ele>87.8</ele>
        <time>2023-01-25T13:45:20Z</time>
      </trkpt>
      <trkpt lat="49.96378" lon="2.3835">
        <ele>87.7</ele>
        <time>2023-01-25T13:45:21Z</time>
      </trkpt>
      <trkpt lat="49.96377" lon="2.38353">
        <ele>87.6</ele>
        <time>2023-01-25T13:45:22Z</time>
      </trkpt>
      <trkpt lat="49.96377" lon="2.38355">
        <ele>87.5</ele>
        <time>2023-01-25T13:45:23Z</time>
      </trkpt>
      <trkpt lat="49.96376" lon="2.38358">
        <ele>87.4</ele>
        <time>2023-01-25T13:45:24Z</time>
      </trkpt>
      <trkpt lat="49.96376" lon="2.38359">
        <ele>87.3</ele>
        <time>2023-01-25T13:45:25Z</time>
      </trkpt>
      <trkpt lat="49.96376" lon="2.38361">
        <ele>87.3</ele>
        <time>2023-01-25T13:45:26Z</time>
      </trkpt>
      <trkpt lat="49.96375" lon="2.38363">
        <ele>87.1</ele>
        <time>2023-01-25T13:45:27Z</time>
      </trkpt>
      <trkpt lat="49.96375" lon="2.38365">
        <ele>87.1</ele>
        <time>2023-01-25T13:45:28Z</time>
      </trkpt>
      <trkpt lat="49.96375" lon="2.38366">
        <ele>87</ele>
        <time>2023-01-25T13:45:29Z</time>
      </trkpt>
      <trkpt lat="49.96375" lon="2.38369">
        <ele>86.9</ele>
        <time>2023-01-25T13:45:31Z</time>
      </trkpt>
      <trkpt lat="49.96374" lon="2.38371">
        <ele>86.9</ele>
        <time>2023-01-25T13:45:32Z</time>
      </trkpt>
      <trkpt lat="49.96374" lon="2.38373">
        <ele>86.7</ele>
        <time>2023-01-25T13:45:33Z</time>
      </trkpt>
      <trkpt lat="49.96374" lon="2.38375">
        <ele>86.7</ele>
        <time>2023-01-25T13:45:34Z</time>
      </trkpt>
      <trkpt lat="49.96374" lon="2.38377">
        <ele>86.6</ele>
        <time>2023-01-25T13:45:35Z</time>
      </trkpt>
      <trkpt lat="49.96374" lon="2.38379">
        <ele>86.5</ele>
        <time>2023-01-25T13:45:36Z</time>
      </trkpt>
      <trkpt lat="49.96373" lon="2.38383">
        <ele>86.4</ele>
        <time>2023-01-25T13:45:37Z</time>
      </trkpt>
      <trkpt lat="49.96373" lon="2.38385">
        <ele>86.3</ele>
        <time>2023-01-25T13:45:39Z</time>
      </trkpt>
      <trkpt lat="49.96373" lon="2.38387">
        <ele>86.2</ele>
        <time>2023-01-25T13:45:40Z</time>
      </trkpt>
      <trkpt lat="49.96373" lon="2.38388">
        <ele>86.2</ele>
        <time>2023-01-25T13:45:41Z</time>
      </trkpt>
      <trkpt lat="49.96373" lon="2.3839">
        <ele>86.1</ele>
        <time>2023-01-25T13:45:42Z</time>
      </trkpt>
      <trkpt lat="49.96372" lon="2.38393">
        <ele>86</ele>
        <time>2023-01-25T13:45:43Z</time>
      </trkpt>
      <trkpt lat="49.96372" lon="2.38395">
        <ele>85.9</ele>
        <time>2023-01-25T13:45:44Z</time>
      </trkpt>
      <trkpt lat="49.96371" lon="2.38396">
        <ele>85.9</ele>
        <time>2023-01-25T13:45:45Z</time>
      </trkpt>
      <trkpt lat="49.96371" lon="2.38397">
        <ele>85.8</ele>
        <time>2023-01-25T13:45:46Z</time>
      </trkpt>
      <trkpt lat="49.96371" lon="2.384">
        <ele>85.7</ele>
        <time>2023-01-25T13:45:48Z</time>
      </trkpt>
      <trkpt lat="49.9637" lon="2.38402">
        <ele>85.7</ele>
        <time>2023-01-25T13:45:49Z</time>
      </trkpt>
      <trkpt lat="49.9637" lon="2.38404">
        <ele>85.6</ele>
        <time>2023-01-25T13:45:50Z</time>
      </trkpt>
      <trkpt lat="49.9637" lon="2.38406">
        <ele>85.5</ele>
        <time>2023-01-25T13:45:52Z</time>
      </trkpt>
      <trkpt lat="49.96369" lon="2.38409">
        <ele>85.4</ele>
        <time>2023-01-25T13:45:53Z</time>
      </trkpt>
      <trkpt lat="49.96369" lon="2.3841">
        <ele>85.3</ele>
        <time>2023-01-25T13:45:54Z</time>
      </trkpt>
      <trkpt lat="49.96369" lon="2.38413">
        <ele>85.2</ele>
        <time>2023-01-25T13:45:55Z</time>
      </trkpt>
      <trkpt lat="49.96369" lon="2.38415">
        <ele>85.2</ele>
        <time>2023-01-25T13:45:56Z</time>
      </trkpt>
      <trkpt lat="49.96369" lon="2.38416">
        <ele>85.1</ele>
        <time>2023-01-25T13:45:57Z</time>
      </trkpt>
      <trkpt lat="49.96368" lon="2.38418">
        <ele>85</ele>
        <time>2023-01-25T13:45:58Z</time>
      </trkpt>
      <trkpt lat="49.96368" lon="2.38419">
        <ele>85</ele>
        <time>2023-01-25T13:45:59Z</time>
      </trkpt>
      <trkpt lat="49.96368" lon="2.3842">
        <ele>85</ele>
        <time>2023-01-25T13:46:00Z</time>
      </trkpt>
      <trkpt lat="49.96368" lon="2.38422">
        <ele>84.9</ele>
        <time>2023-01-25T13:46:01Z</time>
      </trkpt>
      <trkpt lat="49.96368" lon="2.38424">
        <ele>84.8</ele>
        <time>2023-01-25T13:46:02Z</time>
      </trkpt>
      <trkpt lat="49.96368" lon="2.38426">
        <ele>84.7</ele>
        <time>2023-01-25T13:46:03Z</time>
      </trkpt>
      <trkpt lat="49.96368" lon="2.38427">
        <ele>84.7</ele>
        <time>2023-01-25T13:46:05Z</time>
      </trkpt>
      <trkpt lat="49.96367" lon="2.38429">
        <ele>84.6</ele>
        <time>2023-01-25T13:46:06Z</time>
      </trkpt>
      <trkpt lat="49.96367" lon="2.3843">
        <ele>84.5</ele>
        <time>2023-01-25T13:46:07Z</time>
      </trkpt>
      <trkpt lat="49.96366" lon="2.38433">
        <ele>84.4</ele>
        <time>2023-01-25T13:46:08Z</time>
      </trkpt>
      <trkpt lat="49.96366" lon="2.38434">
        <ele>84.4</ele>
        <time>2023-01-25T13:46:09Z</time>
      </trkpt>
      <trkpt lat="49.96365" lon="2.38435">
        <ele>84.3</ele>
        <time>2023-01-25T13:46:10Z</time>
      </trkpt>
      <trkpt lat="49.96365" lon="2.38437">
        <ele>84.2</ele>
        <time>2023-01-25T13:46:11Z</time>
      </trkpt>
      <trkpt lat="49.96364" lon="2.3844">
        <ele>84.1</ele>
        <time>2023-01-25T13:46:13Z</time>
      </trkpt>
      <trkpt lat="49.96363" lon="2.38441">
        <ele>84</ele>
        <time>2023-01-25T13:46:14Z</time>
      </trkpt>
      <trkpt lat="49.96363" lon="2.38443">
        <ele>83.9</ele>
        <time>2023-01-25T13:46:15Z</time>
      </trkpt>
      <trkpt lat="49.96362" lon="2.38444">
        <ele>83.8</ele>
        <time>2023-01-25T13:46:16Z</time>
      </trkpt>
      <trkpt lat="49.96361" lon="2.38446">
        <ele>83.7</ele>
        <time>2023-01-25T13:46:17Z</time>
      </trkpt>
      <trkpt lat="49.96361" lon="2.38448">
        <ele>83.6</ele>
        <time>2023-01-25T13:46:18Z</time>
      </trkpt>
      <trkpt lat="49.9636" lon="2.38451">
        <ele>83.5</ele>
        <time>2023-01-25T13:46:19Z</time>
      </trkpt>
      <trkpt lat="49.96359" lon="2.38452">
        <ele>83.4</ele>
        <time>2023-01-25T13:46:21Z</time>
      </trkpt>
      <trkpt lat="49.96358" lon="2.38453">
        <ele>83.3</ele>
        <time>2023-01-25T13:46:22Z</time>
      </trkpt>
      <trkpt lat="49.96357" lon="2.38456">
        <ele>83.2</ele>
        <time>2023-01-25T13:46:23Z</time>
      </trkpt>
      <trkpt lat="49.96357" lon="2.38457">
        <ele>83.1</ele>
        <time>2023-01-25T13:46:24Z</time>
      </trkpt>
      <trkpt lat="49.96355" lon="2.3846">
        <ele>83</ele>
        <time>2023-01-25T13:46:25Z</time>
      </trkpt>
      <trkpt lat="49.96355" lon="2.38461">
        <ele>82.9</ele>
        <time>2023-01-25T13:46:26Z</time>
      </trkpt>
      <trkpt lat="49.96354" lon="2.38462">
        <ele>82.8</ele>
        <time>2023-01-25T13:46:27Z</time>
      </trkpt>
      <trkpt lat="49.96353" lon="2.38465">
        <ele>82.7</ele>
        <time>2023-01-25T13:46:28Z</time>
      </trkpt>
      <trkpt lat="49.96352" lon="2.38467">
        <ele>82.6</ele>
        <time>2023-01-25T13:46:30Z</time>
      </trkpt>
      <trkpt lat="49.96351" lon="2.38468">
        <ele>82.5</ele>
        <time>2023-01-25T13:46:31Z</time>
      </trkpt>
      <trkpt lat="49.96351" lon="2.3847">
        <ele>82.4</ele>
        <time>2023-01-25T13:46:32Z</time>
      </trkpt>
      <trkpt lat="49.9635" lon="2.38471">
        <ele>82.3</ele>
        <time>2023-01-25T13:46:33Z</time>
      </trkpt>
      <trkpt lat="49.96349" lon="2.38472">
        <ele>82.3</ele>
        <time>2023-01-25T13:46:34Z</time>
      </trkpt>
      <trkpt lat="49.96349" lon="2.38474">
        <ele>82.2</ele>
        <time>2023-01-25T13:46:35Z</time>
      </trkpt>
      <trkpt lat="49.96348" lon="2.38475">
        <ele>82.1</ele>
        <time>2023-01-25T13:46:36Z</time>
      </trkpt>
      <trkpt lat="49.96347" lon="2.38477">
        <ele>82</ele>
        <time>2023-01-25T13:46:37Z</time>
      </trkpt>
      <trkpt lat="49.96346" lon="2.38479">
        <ele>81.9</ele>
        <time>2023-01-25T13:46:39Z</time>
      </trkpt>
      <trkpt lat="49.96345" lon="2.38481">
        <ele>81.8</ele>
        <time>2023-01-25T13:46:40Z</time>
      </trkpt>
      <trkpt lat="49.96344" lon="2.38483">
        <ele>81.7</ele>
        <time>2023-01-25T13:46:41Z</time>
      </trkpt>
      <trkpt lat="49.96343" lon="2.38484">
        <ele>81.6</ele>
        <time>2023-01-25T13:46:42Z</time>
      </trkpt>
      <trkpt lat="49.96342" lon="2.38487">
        <ele>81.5</ele>
        <time>2023-01-25T13:46:43Z</time>
      </trkpt>
      <trkpt lat="49.96341" lon="2.38488">
        <ele>81.4</ele>
        <time>2023-01-25T13:46:44Z</time>
      </trkpt>
      <trkpt lat="49.9634" lon="2.3849">
        <ele>81.4</ele>
        <time>2023-01-25T13:46:45Z</time>
      </trkpt>
      <trkpt lat="49.9634" lon="2.38491">
        <ele>81.3</ele>
        <time>2023-01-25T13:46:46Z</time>
      </trkpt>
      <trkpt lat="49.96339" lon="2.38492">
        <ele>81.2</ele>
        <time>2023-01-25T13:46:47Z</time>
      </trkpt>
      <trkpt lat="49.96338" lon="2.38494">
        <ele>81.2</ele>
        <time>2023-01-25T13:46:48Z</time>
      </trkpt>
      <trkpt lat="49.96337" lon="2.38495">
        <ele>81.1</ele>
        <time>2023-01-25T13:46:49Z</time>
      </trkpt>
      <trkpt lat="49.96336" lon="2.38498">
        <ele>81</ele>
        <time>2023-01-25T13:46:51Z</time>
      </trkpt>
      <trkpt lat="49.96335" lon="2.38499">
        <ele>80.9</ele>
        <time>2023-01-25T13:46:52Z</time>
      </trkpt>
      <trkpt lat="49.96334" lon="2.38501">
        <ele>80.8</ele>
        <time>2023-01-25T13:46:53Z</time>
      </trkpt>
      <trkpt lat="49.96333" lon="2.38503">
        <ele>80.8</ele>
        <time>2023-01-25T13:46:55Z</time>
      </trkpt>
      <trkpt lat="49.96333" lon="2.38504">
        <ele>80.7</ele>
        <time>2023-01-25T13:46:56Z</time>
      </trkpt>
      <trkpt lat="49.96332" lon="2.38506">
        <ele>80.6</ele>
        <time>2023-01-25T13:46:57Z</time>
      </trkpt>
      <trkpt lat="49.9633" lon="2.38508">
        <ele>80.5</ele>
        <time>2023-01-25T13:46:58Z</time>
      </trkpt>
      <trkpt lat="49.96329" lon="2.38509">
        <ele>80.5</ele>
        <time>2023-01-25T13:46:59Z</time>
      </trkpt>
      <trkpt lat="49.96328" lon="2.38511">
        <ele>80.4</ele>
        <time>2023-01-25T13:47:00Z</time>
      </trkpt>
      <trkpt lat="49.96327" lon="2.38512">
        <ele>80.3</ele>
        <time>2023-01-25T13:47:01Z</time>
      </trkpt>
      <trkpt lat="49.96326" lon="2.38513">
        <ele>80.2</ele>
        <time>2023-01-25T13:47:02Z</time>
      </trkpt>
      <trkpt lat="49.96325" lon="2.38515">
        <ele>80.2</ele>
        <time>2023-01-25T13:47:03Z</time>
      </trkpt>
      <trkpt lat="49.96323" lon="2.38516">
        <ele>80.1</ele>
        <time>2023-01-25T13:47:05Z</time>
      </trkpt>
      <trkpt lat="49.96322" lon="2.38517">
        <ele>80</ele>
        <time>2023-01-25T13:47:06Z</time>
      </trkpt>
      <trkpt lat="49.9632" lon="2.38519">
        <ele>79.9</ele>
        <time>2023-01-25T13:47:07Z</time>
      </trkpt>
      <trkpt lat="49.96319" lon="2.38521">
        <ele>79.9</ele>
        <time>2023-01-25T13:47:09Z</time>
      </trkpt>
      <trkpt lat="49.96319" lon="2.38522">
        <ele>79.8</ele>
        <time>2023-01-25T13:47:10Z</time>
      </trkpt>
      <trkpt lat="49.96318" lon="2.38523">
        <ele>79.8</ele>
        <time>2023-01-25T13:47:11Z</time>
      </trkpt>
      <trkpt lat="49.96317" lon="2.38525">
        <ele>79.7</ele>
        <time>2023-01-25T13:47:12Z</time>
      </trkpt>
      <trkpt lat="49.96316" lon="2.38526">
        <ele>79.7</ele>
        <time>2023-01-25T13:47:13Z</time>
      </trkpt>
      <trkpt lat="49.96315" lon="2.38527">
        <ele>79.6</ele>
        <time>2023-01-25T13:47:14Z</time>
      </trkpt>
      <trkpt lat="49.96315" lon="2.38527">
        <ele>79.6</ele>
        <time>2023-01-25T13:47:15Z</time>
      </trkpt>
      <trkpt lat="49.96313" lon="2.38529">
        <ele>79.5</ele>
        <time>2023-01-25T13:47:17Z</time>
      </trkpt>
      <trkpt lat="49.96312" lon="2.3853">
        <ele>79.5</ele>
        <time>2023-01-25T13:47:18Z</time>
      </trkpt>
      <trkpt lat="49.96312" lon="2.38531">
        <ele>79.5</ele>
        <time>2023-01-25T13:47:19Z</time>
      </trkpt>
      <trkpt lat="49.96311" lon="2.38532">
        <ele>79.5</ele>
        <time>2023-01-25T13:47:20Z</time>
      </trkpt>
      <trkpt lat="49.9631" lon="2.38533">
        <ele>79.4</ele>
        <time>2023-01-25T13:47:21Z</time>
      </trkpt>
      <trkpt lat="49.96309" lon="2.38534">
        <ele>79.4</ele>
        <time>2023-01-25T13:47:22Z</time>
      </trkpt>
      <trkpt lat="49.96308" lon="2.38536">
        <ele>79.3</ele>
        <time>2023-01-25T13:47:23Z</time>
      </trkpt>
      <trkpt lat="49.96308" lon="2.38537">
        <ele>79.3</ele>
        <time>2023-01-25T13:47:24Z</time>
      </trkpt>
      <trkpt lat="49.96307" lon="2.38538">
        <ele>79.3</ele>
        <time>2023-01-25T13:47:25Z</time>
      </trkpt>
      <trkpt lat="49.96306" lon="2.3854">
        <ele>79.2</ele>
        <time>2023-01-25T13:47:26Z</time>
      </trkpt>
      <trkpt lat="49.96305" lon="2.38541">
        <ele>79.2</ele>
        <time>2023-01-25T13:47:28Z</time>
      </trkpt>
      <trkpt lat="49.96304" lon="2.38542">
        <ele>79.1</ele>
        <time>2023-01-25T13:47:29Z</time>
      </trkpt>
      <trkpt lat="49.96304" lon="2.38543">
        <ele>79.1</ele>
        <time>2023-01-25T13:47:30Z</time>
      </trkpt>
      <trkpt lat="49.96303" lon="2.38545">
        <ele>79.1</ele>
        <time>2023-01-25T13:47:32Z</time>
      </trkpt>
      <trkpt lat="49.96302" lon="2.38546">
        <ele>79</ele>
        <time>2023-01-25T13:47:33Z</time>
      </trkpt>
      <trkpt lat="49.96301" lon="2.38549">
        <ele>79</ele>
        <time>2023-01-25T13:47:34Z</time>
      </trkpt>
      <trkpt lat="49.963" lon="2.3855">
        <ele>78.9</ele>
        <time>2023-01-25T13:47:35Z</time>
      </trkpt>
      <trkpt lat="49.96299" lon="2.38553">
        <ele>78.9</ele>
        <time>2023-01-25T13:47:36Z</time>
      </trkpt>
      <trkpt lat="49.96298" lon="2.38554">
        <ele>78.8</ele>
        <time>2023-01-25T13:47:37Z</time>
      </trkpt>
      <trkpt lat="49.96298" lon="2.38555">
        <ele>78.8</ele>
        <time>2023-01-25T13:47:38Z</time>
      </trkpt>
      <trkpt lat="49.96297" lon="2.38557">
        <ele>78.8</ele>
        <time>2023-01-25T13:47:39Z</time>
      </trkpt>
      <trkpt lat="49.96297" lon="2.38558">
        <ele>78.7</ele>
        <time>2023-01-25T13:47:40Z</time>
      </trkpt>
      <trkpt lat="49.96296" lon="2.3856">
        <ele>78.7</ele>
        <time>2023-01-25T13:47:41Z</time>
      </trkpt>
      <trkpt lat="49.96295" lon="2.38561">
        <ele>78.7</ele>
        <time>2023-01-25T13:47:43Z</time>
      </trkpt>
      <trkpt lat="49.96294" lon="2.38563">
        <ele>78.6</ele>
        <time>2023-01-25T13:47:44Z</time>
      </trkpt>
      <trkpt lat="49.96293" lon="2.38566">
        <ele>78.6</ele>
        <time>2023-01-25T13:47:45Z</time>
      </trkpt>
      <trkpt lat="49.96292" lon="2.38567">
        <ele>78.5</ele>
        <time>2023-01-25T13:47:46Z</time>
      </trkpt>
      <trkpt lat="49.96292" lon="2.38568">
        <ele>78.5</ele>
        <time>2023-01-25T13:47:47Z</time>
      </trkpt>
      <trkpt lat="49.96291" lon="2.38571">
        <ele>78.5</ele>
        <time>2023-01-25T13:47:48Z</time>
      </trkpt>
      <trkpt lat="49.96291" lon="2.38572">
        <ele>78.4</ele>
        <time>2023-01-25T13:47:49Z</time>
      </trkpt>
      <trkpt lat="49.9629" lon="2.38573">
        <ele>78.5</ele>
        <time>2023-01-25T13:47:51Z</time>
      </trkpt>
      <trkpt lat="49.96289" lon="2.38576">
        <ele>78.4</ele>
        <time>2023-01-25T13:47:52Z</time>
      </trkpt>
      <trkpt lat="49.96288" lon="2.38577">
        <ele>78.4</ele>
        <time>2023-01-25T13:47:53Z</time>
      </trkpt>
      <trkpt lat="49.96288" lon="2.38578">
        <ele>78.4</ele>
        <time>2023-01-25T13:47:54Z</time>
      </trkpt>
      <trkpt lat="49.96287" lon="2.38579">
        <ele>78.4</ele>
        <time>2023-01-25T13:47:55Z</time>
      </trkpt>
      <trkpt lat="49.96286" lon="2.38581">
        <ele>78.3</ele>
        <time>2023-01-25T13:47:56Z</time>
      </trkpt>
      <trkpt lat="49.96286" lon="2.38582">
        <ele>78.3</ele>
        <time>2023-01-25T13:47:57Z</time>
      </trkpt>
      <trkpt lat="49.96285" lon="2.38584">
        <ele>78.3</ele>
        <time>2023-01-25T13:47:58Z</time>
      </trkpt>
      <trkpt lat="49.96284" lon="2.38586">
        <ele>78.2</ele>
        <time>2023-01-25T13:47:59Z</time>
      </trkpt>
      <trkpt lat="49.96284" lon="2.38587">
        <ele>78.2</ele>
        <time>2023-01-25T13:48:00Z</time>
      </trkpt>
      <trkpt lat="49.96283" lon="2.38589">
        <ele>78.2</ele>
        <time>2023-01-25T13:48:01Z</time>
      </trkpt>
      <trkpt lat="49.96282" lon="2.38591">
        <ele>78.2</ele>
        <time>2023-01-25T13:48:03Z</time>
      </trkpt>
      <trkpt lat="49.96281" lon="2.38594">
        <ele>78.1</ele>
        <time>2023-01-25T13:48:04Z</time>
      </trkpt>
      <trkpt lat="49.96281" lon="2.38595">
        <ele>78.1</ele>
        <time>2023-01-25T13:48:05Z</time>
      </trkpt>
      <trkpt lat="49.9628" lon="2.38596">
        <ele>78.1</ele>
        <time>2023-01-25T13:48:06Z</time>
      </trkpt>
      <trkpt lat="49.9628" lon="2.38598">
        <ele>78.1</ele>
        <time>2023-01-25T13:48:07Z</time>
      </trkpt>
      <trkpt lat="49.96279" lon="2.386">
        <ele>78.1</ele>
        <time>2023-01-25T13:48:08Z</time>
      </trkpt>
      <trkpt lat="49.96278" lon="2.38601">
        <ele>78.1</ele>
        <time>2023-01-25T13:48:09Z</time>
      </trkpt>
      <trkpt lat="49.96278" lon="2.38602">
        <ele>78</ele>
        <time>2023-01-25T13:48:10Z</time>
      </trkpt>
      <trkpt lat="49.96277" lon="2.38605">
        <ele>78</ele>
        <time>2023-01-25T13:48:12Z</time>
      </trkpt>
      <trkpt lat="49.96275" lon="2.38607">
        <ele>78</ele>
        <time>2023-01-25T13:48:13Z</time>
      </trkpt>
      <trkpt lat="49.96275" lon="2.38608">
        <ele>78</ele>
        <time>2023-01-25T13:48:15Z</time>
      </trkpt>
      <trkpt lat="49.96274" lon="2.38609">
        <ele>78</ele>
        <time>2023-01-25T13:48:16Z</time>
      </trkpt>
      <trkpt lat="49.96273" lon="2.38612">
        <ele>77.9</ele>
        <time>2023-01-25T13:48:17Z</time>
      </trkpt>
      <trkpt lat="49.96273" lon="2.38613">
        <ele>77.9</ele>
        <time>2023-01-25T13:48:18Z</time>
      </trkpt>
      <trkpt lat="49.96272" lon="2.38614">
        <ele>77.9</ele>
        <time>2023-01-25T13:48:19Z</time>
      </trkpt>
      <trkpt lat="49.96271" lon="2.38617">
        <ele>77.9</ele>
        <time>2023-01-25T13:48:20Z</time>
      </trkpt>
      <trkpt lat="49.9627" lon="2.38618">
        <ele>77.9</ele>
        <time>2023-01-25T13:48:21Z</time>
      </trkpt>
      <trkpt lat="49.9627" lon="2.38619">
        <ele>77.8</ele>
        <time>2023-01-25T13:48:22Z</time>
      </trkpt>
      <trkpt lat="49.96269" lon="2.38621">
        <ele>77.8</ele>
        <time>2023-01-25T13:48:24Z</time>
      </trkpt>
      <trkpt lat="49.96268" lon="2.38623">
        <ele>77.8</ele>
        <time>2023-01-25T13:48:25Z</time>
      </trkpt>
      <trkpt lat="49.96268" lon="2.38625">
        <ele>77.8</ele>
        <time>2023-01-25T13:48:26Z</time>
      </trkpt>
      <trkpt lat="49.96267" lon="2.38627">
        <ele>77.7</ele>
        <time>2023-01-25T13:48:27Z</time>
      </trkpt>
      <trkpt lat="49.96266" lon="2.38629">
        <ele>77.7</ele>
        <time>2023-01-25T13:48:29Z</time>
      </trkpt>
      <trkpt lat="49.96266" lon="2.38631">
        <ele>77.7</ele>
        <time>2023-01-25T13:48:30Z</time>
      </trkpt>
      <trkpt lat="49.96265" lon="2.38633">
        <ele>77.7</ele>
        <time>2023-01-25T13:48:31Z</time>
      </trkpt>
      <trkpt lat="49.96265" lon="2.38635">
        <ele>77.6</ele>
        <time>2023-01-25T13:48:32Z</time>
      </trkpt>
      <trkpt lat="49.96264" lon="2.38637">
        <ele>77.6</ele>
        <time>2023-01-25T13:48:33Z</time>
      </trkpt>
      <trkpt lat="49.96264" lon="2.38638">
        <ele>77.6</ele>
        <time>2023-01-25T13:48:34Z</time>
      </trkpt>
      <trkpt lat="49.96262" lon="2.38641">
        <ele>77.6</ele>
        <time>2023-01-25T13:48:35Z</time>
      </trkpt>
      <trkpt lat="49.96262" lon="2.38642">
        <ele>77.6</ele>
        <time>2023-01-25T13:48:36Z</time>
      </trkpt>
      <trkpt lat="49.96262" lon="2.38644">
        <ele>77.6</ele>
        <time>2023-01-25T13:48:37Z</time>
      </trkpt>
      <trkpt lat="49.96261" lon="2.38645">
        <ele>77.6</ele>
        <time>2023-01-25T13:48:38Z</time>
      </trkpt>
      <trkpt lat="49.9626" lon="2.38648">
        <ele>77.5</ele>
        <time>2023-01-25T13:48:39Z</time>
      </trkpt>
      <trkpt lat="49.9626" lon="2.38649">
        <ele>77.5</ele>
        <time>2023-01-25T13:48:41Z</time>
      </trkpt>
      <trkpt lat="49.96259" lon="2.3865">
        <ele>77.5</ele>
        <time>2023-01-25T13:48:42Z</time>
      </trkpt>
      <trkpt lat="49.96258" lon="2.38653">
        <ele>77.5</ele>
        <time>2023-01-25T13:48:43Z</time>
      </trkpt>
      <trkpt lat="49.96258" lon="2.38654">
        <ele>77.5</ele>
        <time>2023-01-25T13:48:44Z</time>
      </trkpt>
      <trkpt lat="49.96257" lon="2.38655">
        <ele>77.5</ele>
        <time>2023-01-25T13:48:45Z</time>
      </trkpt>
      <trkpt lat="49.96256" lon="2.38657">
        <ele>77.5</ele>
        <time>2023-01-25T13:48:46Z</time>
      </trkpt>
      <trkpt lat="49.96255" lon="2.3866">
        <ele>77.5</ele>
        <time>2023-01-25T13:48:48Z</time>
      </trkpt>
      <trkpt lat="49.96255" lon="2.38662">
        <ele>77.5</ele>
        <time>2023-01-25T13:48:49Z</time>
      </trkpt>
      <trkpt lat="49.96254" lon="2.38664">
        <ele>77.5</ele>
        <time>2023-01-25T13:48:50Z</time>
      </trkpt>
      <trkpt lat="49.96253" lon="2.38667">
        <ele>77.5</ele>
        <time>2023-01-25T13:48:51Z</time>
      </trkpt>
      <trkpt lat="49.96253" lon="2.38668">
        <ele>77.5</ele>
        <time>2023-01-25T13:48:52Z</time>
      </trkpt>
      <trkpt lat="49.96253" lon="2.38669">
        <ele>77.5</ele>
        <time>2023-01-25T13:48:53Z</time>
      </trkpt>
      <trkpt lat="49.96252" lon="2.38672">
        <ele>77.5</ele>
        <time>2023-01-25T13:48:54Z</time>
      </trkpt>
      <trkpt lat="49.96251" lon="2.38674">
        <ele>77.5</ele>
        <time>2023-01-25T13:48:55Z</time>
      </trkpt>
      <trkpt lat="49.96251" lon="2.38675">
        <ele>77.5</ele>
        <time>2023-01-25T13:48:56Z</time>
      </trkpt>
      <trkpt lat="49.96251" lon="2.38677">
        <ele>77.5</ele>
        <time>2023-01-25T13:48:57Z</time>
      </trkpt>
      <trkpt lat="49.96251" lon="2.38679">
        <ele>77.5</ele>
        <time>2023-01-25T13:48:59Z</time>
      </trkpt>
      <trkpt lat="49.9625" lon="2.38682">
        <ele>77.5</ele>
        <time>2023-01-25T13:49:00Z</time>
      </trkpt>
      <trkpt lat="49.9625" lon="2.38684">
        <ele>77.5</ele>
        <time>2023-01-25T13:49:01Z</time>
      </trkpt>
      <trkpt lat="49.9625" lon="2.38687">
        <ele>77.5</ele>
        <time>2023-01-25T13:49:02Z</time>
      </trkpt>
      <trkpt lat="49.96249" lon="2.38688">
        <ele>77.5</ele>
        <time>2023-01-25T13:49:03Z</time>
      </trkpt>
      <trkpt lat="49.96249" lon="2.3869">
        <ele>77.5</ele>
        <time>2023-01-25T13:49:04Z</time>
      </trkpt>
      <trkpt lat="49.96249" lon="2.38693">
        <ele>77.5</ele>
        <time>2023-01-25T13:49:05Z</time>
      </trkpt>
      <trkpt lat="49.96249" lon="2.38694">
        <ele>77.6</ele>
        <time>2023-01-25T13:49:06Z</time>
      </trkpt>
      <trkpt lat="49.96249" lon="2.38696">
        <ele>77.6</ele>
        <time>2023-01-25T13:49:07Z</time>
      </trkpt>
      <trkpt lat="49.96248" lon="2.38699">
        <ele>77.6</ele>
        <time>2023-01-25T13:49:08Z</time>
      </trkpt>
      <trkpt lat="49.96248" lon="2.38701">
        <ele>77.6</ele>
        <time>2023-01-25T13:49:10Z</time>
      </trkpt>
      <trkpt lat="49.96248" lon="2.38702">
        <ele>77.6</ele>
        <time>2023-01-25T13:49:11Z</time>
      </trkpt>
      <trkpt lat="49.96248" lon="2.38703">
        <ele>77.6</ele>
        <time>2023-01-25T13:49:12Z</time>
      </trkpt>
      <trkpt lat="49.96248" lon="2.38705">
        <ele>77.6</ele>
        <time>2023-01-25T13:49:13Z</time>
      </trkpt>
      <trkpt lat="49.96248" lon="2.38706">
        <ele>77.6</ele>
        <time>2023-01-25T13:49:14Z</time>
      </trkpt>
      <trkpt lat="49.96247" lon="2.38709">
        <ele>77.7</ele>
        <time>2023-01-25T13:49:15Z</time>
      </trkpt>
      <trkpt lat="49.96247" lon="2.38711">
        <ele>77.7</ele>
        <time>2023-01-25T13:49:16Z</time>
      </trkpt>
      <trkpt lat="49.96247" lon="2.38712">
        <ele>77.7</ele>
        <time>2023-01-25T13:49:17Z</time>
      </trkpt>
      <trkpt lat="49.96247" lon="2.38714">
        <ele>77.7</ele>
        <time>2023-01-25T13:49:19Z</time>
      </trkpt>
      <trkpt lat="49.96247" lon="2.38716">
        <ele>77.7</ele>
        <time>2023-01-25T13:49:20Z</time>
      </trkpt>
      <trkpt lat="49.96247" lon="2.3872">
        <ele>77.8</ele>
        <time>2023-01-25T13:49:21Z</time>
      </trkpt>
      <trkpt lat="49.96246" lon="2.38722">
        <ele>77.8</ele>
        <time>2023-01-25T13:49:22Z</time>
      </trkpt>
      <trkpt lat="49.96246" lon="2.38723">
        <ele>77.8</ele>
        <time>2023-01-25T13:49:23Z</time>
      </trkpt>
      <trkpt lat="49.96246" lon="2.38725">
        <ele>77.8</ele>
        <time>2023-01-25T13:49:24Z</time>
      </trkpt>
      <trkpt lat="49.96247" lon="2.38726">
        <ele>77.8</ele>
        <time>2023-01-25T13:49:26Z</time>
      </trkpt>
      <trkpt lat="49.96247" lon="2.38728">
        <ele>77.9</ele>
        <time>2023-01-25T13:49:27Z</time>
      </trkpt>
      <trkpt lat="49.96246" lon="2.3873">
        <ele>77.9</ele>
        <time>2023-01-25T13:49:28Z</time>
      </trkpt>
      <trkpt lat="49.96246" lon="2.38731">
        <ele>77.9</ele>
        <time>2023-01-25T13:49:29Z</time>
      </trkpt>
      <trkpt lat="49.96246" lon="2.38732">
        <ele>77.9</ele>
        <time>2023-01-25T13:49:30Z</time>
      </trkpt>
      <trkpt lat="49.96246" lon="2.38734">
        <ele>77.9</ele>
        <time>2023-01-25T13:49:31Z</time>
      </trkpt>
      <trkpt lat="49.96246" lon="2.38735">
        <ele>78</ele>
        <time>2023-01-25T13:49:32Z</time>
      </trkpt>
      <trkpt lat="49.96246" lon="2.38737">
        <ele>78</ele>
        <time>2023-01-25T13:49:33Z</time>
      </trkpt>
      <trkpt lat="49.96246" lon="2.38739">
        <ele>78</ele>
        <time>2023-01-25T13:49:35Z</time>
      </trkpt>
      <trkpt lat="49.96246" lon="2.38741">
        <ele>78</ele>
        <time>2023-01-25T13:49:36Z</time>
      </trkpt>
      <trkpt lat="49.96246" lon="2.38742">
        <ele>78.1</ele>
        <time>2023-01-25T13:49:37Z</time>
      </trkpt>
      <trkpt lat="49.96245" lon="2.38743">
        <ele>78.1</ele>
        <time>2023-01-25T13:49:38Z</time>
      </trkpt>
      <trkpt lat="49.96245" lon="2.38744">
        <ele>78.1</ele>
        <time>2023-01-25T13:49:39Z</time>
      </trkpt>
      <trkpt lat="49.96245" lon="2.38745">
        <ele>78.1</ele>
        <time>2023-01-25T13:49:40Z</time>
      </trkpt>
      <trkpt lat="49.96245" lon="2.38746">
        <ele>78.1</ele>
        <time>2023-01-25T13:49:41Z</time>
      </trkpt>
      <trkpt lat="49.96245" lon="2.38748">
        <ele>78.2</ele>
        <time>2023-01-25T13:49:43Z</time>
      </trkpt>
      <trkpt lat="49.96245" lon="2.38748">
        <ele>78.2</ele>
        <time>2023-01-25T13:49:44Z</time>
      </trkpt>
      <trkpt lat="49.96245" lon="2.38749">
        <ele>78.2</ele>
        <time>2023-01-25T13:49:46Z</time>
      </trkpt>
      <trkpt lat="49.96246" lon="2.38749">
        <ele>78.2</ele>
        <time>2023-01-25T13:49:47Z</time>
      </trkpt>
      <trkpt lat="49.96246" lon="2.38748">
        <ele>78.3</ele>
        <time>2023-01-25T13:49:48Z</time>
      </trkpt>
      <trkpt lat="49.96247" lon="2.38746">
        <ele>78.3</ele>
        <time>2023-01-25T13:49:50Z</time>
      </trkpt>
      <trkpt lat="49.96247" lon="2.38745">
        <ele>78.3</ele>
        <time>2023-01-25T13:49:51Z</time>
      </trkpt>
      <trkpt lat="49.96247" lon="2.38744">
        <ele>78.3</ele>
        <time>2023-01-25T13:49:52Z</time>
      </trkpt>
      <trkpt lat="49.96247" lon="2.38744">
        <ele>78.3</ele>
        <time>2023-01-25T13:49:53Z</time>
      </trkpt>
      <trkpt lat="49.96247" lon="2.38743">
        <ele>78.3</ele>
        <time>2023-01-25T13:49:55Z</time>
      </trkpt>
      <trkpt lat="49.96247" lon="2.38743">
        <ele>78.4</ele>
        <time>2023-01-25T13:49:56Z</time>
      </trkpt>
      <trkpt lat="49.96247" lon="2.38743">
        <ele>78.4</ele>
        <time>2023-01-25T13:49:57Z</time>
      </trkpt>
      <trkpt lat="49.96247" lon="2.38742">
        <ele>78.4</ele>
        <time>2023-01-25T13:49:59Z</time>
      </trkpt>
      <trkpt lat="49.96247" lon="2.38742">
        <ele>78.4</ele>
        <time>2023-01-25T13:50:00Z</time>
      </trkpt>
      <trkpt lat="49.96247" lon="2.38741">
        <ele>78.4</ele>
        <time>2023-01-25T13:50:01Z</time>
      </trkpt>
      <trkpt lat="49.96247" lon="2.38741">
        <ele>78.4</ele>
        <time>2023-01-25T13:50:02Z</time>
      </trkpt>
      <trkpt lat="49.96247" lon="2.38741">
        <ele>78.4</ele>
        <time>2023-01-25T13:50:03Z</time>
      </trkpt>
      <trkpt lat="49.96247" lon="2.3874">
        <ele>78.4</ele>
        <time>2023-01-25T13:50:04Z</time>
      </trkpt>
      <trkpt lat="49.96247" lon="2.3874">
        <ele>78.4</ele>
        <time>2023-01-25T13:50:05Z</time>
      </trkpt>
      <trkpt lat="49.96247" lon="2.3874">
        <ele>78.4</ele>
        <time>2023-01-25T13:50:06Z</time>
      </trkpt>
      <trkpt lat="49.96247" lon="2.3874">
        <ele>78.4</ele>
        <time>2023-01-25T13:50:07Z</time>
      </trkpt>
      <trkpt lat="49.96247" lon="2.3874">
        <ele>78.4</ele>
        <time>2023-01-25T13:50:08Z</time>
      </trkpt>
      <trkpt lat="49.96247" lon="2.3874">
        <ele>78.4</ele>
        <time>2023-01-25T13:50:09Z</time>
      </trkpt>
      <trkpt lat="49.96247" lon="2.38739">
        <ele>78.4</ele>
        <time>2023-01-25T13:50:10Z</time>
      </trkpt>
      <trkpt lat="49.96247" lon="2.38739">
        <ele>78.5</ele>
        <time>2023-01-25T13:50:11Z</time>
      </trkpt>
      <trkpt lat="49.96247" lon="2.38739">
        <ele>78.5</ele>
        <time>2023-01-25T13:50:12Z</time>
      </trkpt>
      <trkpt lat="49.96248" lon="2.38739">
        <ele>78.5</ele>
        <time>2023-01-25T13:50:13Z</time>
      </trkpt>
      <trkpt lat="49.96248" lon="2.3874">
        <ele>78.5</ele>
        <time>2023-01-25T13:50:14Z</time>
      </trkpt>
      <trkpt lat="49.96248" lon="2.38741">
        <ele>78.5</ele>
        <time>2023-01-25T13:50:15Z</time>
      </trkpt>
      <trkpt lat="49.96249" lon="2.38742">
        <ele>78.6</ele>
        <time>2023-01-25T13:50:17Z</time>
      </trkpt>
      <trkpt lat="49.96249" lon="2.38742">
        <ele>78.6</ele>
        <time>2023-01-25T13:50:18Z</time>
      </trkpt>
      <trkpt lat="49.96249" lon="2.38743">
        <ele>78.6</ele>
        <time>2023-01-25T13:50:19Z</time>
      </trkpt>
      <trkpt lat="49.96249" lon="2.38743">
        <ele>78.6</ele>
        <time>2023-01-25T13:50:21Z</time>
      </trkpt>
      <trkpt lat="49.96249" lon="2.38743">
        <ele>78.6</ele>
        <time>2023-01-25T13:50:22Z</time>
      </trkpt>
      <trkpt lat="49.96249" lon="2.38743">
        <ele>78.6</ele>
        <time>2023-01-25T13:50:23Z</time>
      </trkpt>
      <trkpt lat="49.96249" lon="2.38743">
        <ele>78.6</ele>
        <time>2023-01-25T13:50:25Z</time>
      </trkpt>
      <trkpt lat="49.96249" lon="2.38742">
        <ele>78.6</ele>
        <time>2023-01-25T13:50:26Z</time>
      </trkpt>
      <trkpt lat="49.96249" lon="2.38742">
        <ele>78.6</ele>
        <time>2023-01-25T13:50:28Z</time>
      </trkpt>
      <trkpt lat="49.96249" lon="2.38742">
        <ele>78.6</ele>
        <time>2023-01-25T13:50:29Z</time>
      </trkpt>
      <trkpt lat="49.96249" lon="2.38742">
        <ele>78.6</ele>
        <time>2023-01-25T13:50:30Z</time>
      </trkpt>
      <trkpt lat="49.96248" lon="2.38741">
        <ele>78.7</ele>
        <time>2023-01-25T13:50:31Z</time>
      </trkpt>
      <trkpt lat="49.96248" lon="2.38741">
        <ele>78.7</ele>
        <time>2023-01-25T13:50:32Z</time>
      </trkpt>
      <trkpt lat="49.96248" lon="2.38741">
        <ele>78.7</ele>
        <time>2023-01-25T13:50:33Z</time>
      </trkpt>
      <trkpt lat="49.96248" lon="2.3874">
        <ele>78.7</ele>
        <time>2023-01-25T13:50:34Z</time>
      </trkpt>
      <trkpt lat="49.96248" lon="2.3874">
        <ele>78.7</ele>
        <time>2023-01-25T13:50:35Z</time>
      </trkpt>
      <trkpt lat="49.96248" lon="2.3874">
        <ele>78.7</ele>
        <time>2023-01-25T13:50:36Z</time>
      </trkpt>
      <trkpt lat="49.96247" lon="2.38739">
        <ele>78.7</ele>
        <time>2023-01-25T13:50:37Z</time>
      </trkpt>
      <trkpt lat="49.96247" lon="2.38739">
        <ele>78.7</ele>
        <time>2023-01-25T13:50:38Z</time>
      </trkpt>
      <trkpt lat="49.96247" lon="2.38739">
        <ele>78.7</ele>
        <time>2023-01-25T13:50:39Z</time>
      </trkpt>
      <trkpt lat="49.96247" lon="2.38738">
        <ele>78.8</ele>
        <time>2023-01-25T13:50:40Z</time>
      </trkpt>
      <trkpt lat="49.96247" lon="2.38738">
        <ele>78.8</ele>
        <time>2023-01-25T13:50:41Z</time>
      </trkpt>
      <trkpt lat="49.96247" lon="2.38738">
        <ele>78.8</ele>
        <time>2023-01-25T13:50:42Z</time>
      </trkpt>
      <trkpt lat="49.96247" lon="2.38737">
        <ele>78.8</ele>
        <time>2023-01-25T13:50:43Z</time>
      </trkpt>
      <trkpt lat="49.96249" lon="2.3874">
        <ele>78.9</ele>
        <time>2023-01-25T13:50:45Z</time>
      </trkpt>
      <trkpt lat="49.9625" lon="2.3874">
        <ele>78.9</ele>
        <time>2023-01-25T13:50:46Z</time>
      </trkpt>
      <trkpt lat="49.9625" lon="2.3874">
        <ele>79</ele>
        <time>2023-01-25T13:50:47Z</time>
      </trkpt>
      <trkpt lat="49.96251" lon="2.3874">
        <ele>79</ele>
        <time>2023-01-25T13:50:48Z</time>
      </trkpt>
      <trkpt lat="49.96252" lon="2.3874">
        <ele>79</ele>
        <time>2023-01-25T13:50:49Z</time>
      </trkpt>
      <trkpt lat="49.96252" lon="2.38742">
        <ele>79.1</ele>
        <time>2023-01-25T13:50:50Z</time>
      </trkpt>
      <trkpt lat="49.96253" lon="2.38744">
        <ele>79.1</ele>
        <time>2023-01-25T13:50:51Z</time>
      </trkpt>
      <trkpt lat="49.96254" lon="2.38746">
        <ele>79.2</ele>
        <time>2023-01-25T13:50:53Z</time>
      </trkpt>
      <trkpt lat="49.96255" lon="2.38747">
        <ele>79.2</ele>
        <time>2023-01-25T13:50:54Z</time>
      </trkpt>
      <trkpt lat="49.96255" lon="2.38749">
        <ele>79.3</ele>
        <time>2023-01-25T13:50:55Z</time>
      </trkpt>
      <trkpt lat="49.96256" lon="2.38751">
        <ele>79.3</ele>
        <time>2023-01-25T13:50:57Z</time>
      </trkpt>
      <trkpt lat="49.96256" lon="2.38753">
        <ele>79.3</ele>
        <time>2023-01-25T13:50:58Z</time>
      </trkpt>
      <trkpt lat="49.96257" lon="2.38755">
        <ele>79.2</ele>
        <time>2023-01-25T13:50:59Z</time>
      </trkpt>
      <trkpt lat="49.96257" lon="2.38757">
        <ele>79.2</ele>
        <time>2023-01-25T13:51:01Z</time>
      </trkpt>
      <trkpt lat="49.96258" lon="2.38758">
        <ele>79.2</ele>
        <time>2023-01-25T13:51:02Z</time>
      </trkpt>
      <trkpt lat="49.96258" lon="2.38759">
        <ele>79.2</ele>
        <time>2023-01-25T13:51:03Z</time>
      </trkpt>
      <trkpt lat="49.96259" lon="2.38761">
        <ele>79.1</ele>
        <time>2023-01-25T13:51:04Z</time>
      </trkpt>
      <trkpt lat="49.9626" lon="2.38763">
        <ele>79.1</ele>
        <time>2023-01-25T13:51:05Z</time>
      </trkpt>
      <trkpt lat="49.9626" lon="2.38764">
        <ele>79.1</ele>
        <time>2023-01-25T13:51:07Z</time>
      </trkpt>
      <trkpt lat="49.96261" lon="2.38765">
        <ele>79</ele>
        <time>2023-01-25T13:51:08Z</time>
      </trkpt>
      <trkpt lat="49.96261" lon="2.38766">
        <ele>79</ele>
        <time>2023-01-25T13:51:09Z</time>
      </trkpt>
      <trkpt lat="49.96263" lon="2.38768">
        <ele>79</ele>
        <time>2023-01-25T13:51:10Z</time>
      </trkpt>
      <trkpt lat="49.96263" lon="2.3877">
        <ele>79</ele>
        <time>2023-01-25T13:51:11Z</time>
      </trkpt>
      <trkpt lat="49.96264" lon="2.38771">
        <ele>78.9</ele>
        <time>2023-01-25T13:51:12Z</time>
      </trkpt>
      <trkpt lat="49.96265" lon="2.38772">
        <ele>78.9</ele>
        <time>2023-01-25T13:51:13Z</time>
      </trkpt>
      <trkpt lat="49.96267" lon="2.38775">
        <ele>78.9</ele>
        <time>2023-01-25T13:51:15Z</time>
      </trkpt>
      <trkpt lat="49.96267" lon="2.38776">
        <ele>78.9</ele>
        <time>2023-01-25T13:51:16Z</time>
      </trkpt>
      <trkpt lat="49.96268" lon="2.38777">
        <ele>78.8</ele>
        <time>2023-01-25T13:51:17Z</time>
      </trkpt>
      <trkpt lat="49.96269" lon="2.3878">
        <ele>78.8</ele>
        <time>2023-01-25T13:51:18Z</time>
      </trkpt>
      <trkpt lat="49.9627" lon="2.38781">
        <ele>78.8</ele>
        <time>2023-01-25T13:51:19Z</time>
      </trkpt>
      <trkpt lat="49.9627" lon="2.38782">
        <ele>78.8</ele>
        <time>2023-01-25T13:51:20Z</time>
      </trkpt>
      <trkpt lat="49.96271" lon="2.38785">
        <ele>78.7</ele>
        <time>2023-01-25T13:51:21Z</time>
      </trkpt>
      <trkpt lat="49.96271" lon="2.38786">
        <ele>78.7</ele>
        <time>2023-01-25T13:51:22Z</time>
      </trkpt>
      <trkpt lat="49.96272" lon="2.38787">
        <ele>78.7</ele>
        <time>2023-01-25T13:51:23Z</time>
      </trkpt>
      <trkpt lat="49.96273" lon="2.38791">
        <ele>78.7</ele>
        <time>2023-01-25T13:51:25Z</time>
      </trkpt>
      <trkpt lat="49.96273" lon="2.38793">
        <ele>78.7</ele>
        <time>2023-01-25T13:51:26Z</time>
      </trkpt>
      <trkpt lat="49.96274" lon="2.38795">
        <ele>78.7</ele>
        <time>2023-01-25T13:51:27Z</time>
      </trkpt>
      <trkpt lat="49.96274" lon="2.38797">
        <ele>78.7</ele>
        <time>2023-01-25T13:51:28Z</time>
      </trkpt>
      <trkpt lat="49.96274" lon="2.38798">
        <ele>78.6</ele>
        <time>2023-01-25T13:51:29Z</time>
      </trkpt>
      <trkpt lat="49.96275" lon="2.388">
        <ele>78.6</ele>
        <time>2023-01-25T13:51:31Z</time>
      </trkpt>
      <trkpt lat="49.96275" lon="2.38802">
        <ele>78.6</ele>
        <time>2023-01-25T13:51:32Z</time>
      </trkpt>
      <trkpt lat="49.96276" lon="2.38805">
        <ele>78.6</ele>
        <time>2023-01-25T13:51:33Z</time>
      </trkpt>
      <trkpt lat="49.96277" lon="2.38806">
        <ele>78.6</ele>
        <time>2023-01-25T13:51:34Z</time>
      </trkpt>
      <trkpt lat="49.96277" lon="2.38807">
        <ele>78.6</ele>
        <time>2023-01-25T13:51:35Z</time>
      </trkpt>
      <trkpt lat="49.96277" lon="2.38809">
        <ele>78.6</ele>
        <time>2023-01-25T13:51:36Z</time>
      </trkpt>
      <trkpt lat="49.96278" lon="2.3881">
        <ele>78.6</ele>
        <time>2023-01-25T13:51:37Z</time>
      </trkpt>
      <trkpt lat="49.96278" lon="2.38812">
        <ele>78.6</ele>
        <time>2023-01-25T13:51:38Z</time>
      </trkpt>
      <trkpt lat="49.96278" lon="2.38814">
        <ele>78.6</ele>
        <time>2023-01-25T13:51:40Z</time>
      </trkpt>
      <trkpt lat="49.96278" lon="2.38816">
        <ele>78.5</ele>
        <time>2023-01-25T13:51:41Z</time>
      </trkpt>
      <trkpt lat="49.96279" lon="2.38817">
        <ele>78.5</ele>
        <time>2023-01-25T13:51:42Z</time>
      </trkpt>
      <trkpt lat="49.96279" lon="2.38819">
        <ele>78.5</ele>
        <time>2023-01-25T13:51:43Z</time>
      </trkpt>
      <trkpt lat="49.9628" lon="2.3882">
        <ele>78.5</ele>
        <time>2023-01-25T13:51:44Z</time>
      </trkpt>
      <trkpt lat="49.9628" lon="2.38822">
        <ele>78.5</ele>
        <time>2023-01-25T13:51:45Z</time>
      </trkpt>
      <trkpt lat="49.96281" lon="2.38825">
        <ele>78.5</ele>
        <time>2023-01-25T13:51:46Z</time>
      </trkpt>
      <trkpt lat="49.96281" lon="2.38826">
        <ele>78.5</ele>
        <time>2023-01-25T13:51:47Z</time>
      </trkpt>
      <trkpt lat="49.96282" lon="2.38827">
        <ele>78.5</ele>
        <time>2023-01-25T13:51:48Z</time>
      </trkpt>
      <trkpt lat="49.96283" lon="2.3883">
        <ele>78.5</ele>
        <time>2023-01-25T13:51:49Z</time>
      </trkpt>
      <trkpt lat="49.96283" lon="2.38831">
        <ele>78.5</ele>
        <time>2023-01-25T13:51:50Z</time>
      </trkpt>
      <trkpt lat="49.96283" lon="2.38832">
        <ele>78.5</ele>
        <time>2023-01-25T13:51:51Z</time>
      </trkpt>
      <trkpt lat="49.96284" lon="2.38835">
        <ele>78.5</ele>
        <time>2023-01-25T13:51:53Z</time>
      </trkpt>
      <trkpt lat="49.96285" lon="2.38837">
        <ele>78.5</ele>
        <time>2023-01-25T13:51:54Z</time>
      </trkpt>
      <trkpt lat="49.96286" lon="2.3884">
        <ele>78.5</ele>
        <time>2023-01-25T13:51:55Z</time>
      </trkpt>
      <trkpt lat="49.96286" lon="2.38841">
        <ele>78.5</ele>
        <time>2023-01-25T13:51:57Z</time>
      </trkpt>
      <trkpt lat="49.96287" lon="2.38842">
        <ele>78.5</ele>
        <time>2023-01-25T13:51:58Z</time>
      </trkpt>
      <trkpt lat="49.96287" lon="2.38844">
        <ele>78.5</ele>
        <time>2023-01-25T13:51:59Z</time>
      </trkpt>
      <trkpt lat="49.96287" lon="2.38847">
        <ele>78.5</ele>
        <time>2023-01-25T13:52:00Z</time>
      </trkpt>
      <trkpt lat="49.96288" lon="2.38849">
        <ele>78.5</ele>
        <time>2023-01-25T13:52:01Z</time>
      </trkpt>
      <trkpt lat="49.96288" lon="2.38851">
        <ele>78.5</ele>
        <time>2023-01-25T13:52:02Z</time>
      </trkpt>
      <trkpt lat="49.96289" lon="2.38853">
        <ele>78.5</ele>
        <time>2023-01-25T13:52:03Z</time>
      </trkpt>
      <trkpt lat="49.96289" lon="2.38855">
        <ele>78.5</ele>
        <time>2023-01-25T13:52:05Z</time>
      </trkpt>
      <trkpt lat="49.9629" lon="2.38858">
        <ele>78.5</ele>
        <time>2023-01-25T13:52:06Z</time>
      </trkpt>
      <trkpt lat="49.96291" lon="2.3886">
        <ele>78.5</ele>
        <time>2023-01-25T13:52:07Z</time>
      </trkpt>
      <trkpt lat="49.96292" lon="2.38863">
        <ele>78.5</ele>
        <time>2023-01-25T13:52:08Z</time>
      </trkpt>
      <trkpt lat="49.96292" lon="2.38864">
        <ele>78.5</ele>
        <time>2023-01-25T13:52:09Z</time>
      </trkpt>
      <trkpt lat="49.96292" lon="2.38865">
        <ele>78.5</ele>
        <time>2023-01-25T13:52:10Z</time>
      </trkpt>
      <trkpt lat="49.96293" lon="2.38868">
        <ele>78.5</ele>
        <time>2023-01-25T13:52:12Z</time>
      </trkpt>
      <trkpt lat="49.96293" lon="2.3887">
        <ele>78.5</ele>
        <time>2023-01-25T13:52:13Z</time>
      </trkpt>
      <trkpt lat="49.96294" lon="2.38871">
        <ele>78.5</ele>
        <time>2023-01-25T13:52:14Z</time>
      </trkpt>
      <trkpt lat="49.96294" lon="2.38874">
        <ele>78.5</ele>
        <time>2023-01-25T13:52:15Z</time>
      </trkpt>
      <trkpt lat="49.96295" lon="2.38875">
        <ele>78.5</ele>
        <time>2023-01-25T13:52:16Z</time>
      </trkpt>
      <trkpt lat="49.96295" lon="2.38877">
        <ele>78.5</ele>
        <time>2023-01-25T13:52:17Z</time>
      </trkpt>
      <trkpt lat="49.96295" lon="2.38878">
        <ele>78.5</ele>
        <time>2023-01-25T13:52:18Z</time>
      </trkpt>
      <trkpt lat="49.96296" lon="2.38881">
        <ele>78.5</ele>
        <time>2023-01-25T13:52:19Z</time>
      </trkpt>
      <trkpt lat="49.96296" lon="2.38883">
        <ele>78.5</ele>
        <time>2023-01-25T13:52:21Z</time>
      </trkpt>
      <trkpt lat="49.96296" lon="2.38885">
        <ele>78.6</ele>
        <time>2023-01-25T13:52:22Z</time>
      </trkpt>
      <trkpt lat="49.96297" lon="2.38888">
        <ele>78.6</ele>
        <time>2023-01-25T13:52:23Z</time>
      </trkpt>
      <trkpt lat="49.96297" lon="2.3889">
        <ele>78.6</ele>
        <time>2023-01-25T13:52:24Z</time>
      </trkpt>
      <trkpt lat="49.96298" lon="2.38891">
        <ele>78.6</ele>
        <time>2023-01-25T13:52:25Z</time>
      </trkpt>
      <trkpt lat="49.96298" lon="2.38893">
        <ele>78.6</ele>
        <time>2023-01-25T13:52:26Z</time>
      </trkpt>
      <trkpt lat="49.96298" lon="2.38895">
        <ele>78.6</ele>
        <time>2023-01-25T13:52:27Z</time>
      </trkpt>
      <trkpt lat="49.96299" lon="2.38897">
        <ele>78.6</ele>
        <time>2023-01-25T13:52:29Z</time>
      </trkpt>
      <trkpt lat="49.96299" lon="2.38898">
        <ele>78.6</ele>
        <time>2023-01-25T13:52:30Z</time>
      </trkpt>
      <trkpt lat="49.96299" lon="2.389">
        <ele>78.6</ele>
        <time>2023-01-25T13:52:31Z</time>
      </trkpt>
      <trkpt lat="49.96299" lon="2.38902">
        <ele>78.7</ele>
        <time>2023-01-25T13:52:32Z</time>
      </trkpt>
      <trkpt lat="49.96299" lon="2.38905">
        <ele>78.7</ele>
        <time>2023-01-25T13:52:33Z</time>
      </trkpt>
      <trkpt lat="49.96299" lon="2.38906">
        <ele>78.7</ele>
        <time>2023-01-25T13:52:35Z</time>
      </trkpt>
      <trkpt lat="49.96299" lon="2.38907">
        <ele>78.7</ele>
        <time>2023-01-25T13:52:36Z</time>
      </trkpt>
      <trkpt lat="49.963" lon="2.3891">
        <ele>78.7</ele>
        <time>2023-01-25T13:52:37Z</time>
      </trkpt>
      <trkpt lat="49.963" lon="2.38912">
        <ele>78.7</ele>
        <time>2023-01-25T13:52:38Z</time>
      </trkpt>
      <trkpt lat="49.96301" lon="2.38914">
        <ele>78.8</ele>
        <time>2023-01-25T13:52:39Z</time>
      </trkpt>
      <trkpt lat="49.96301" lon="2.38917">
        <ele>78.8</ele>
        <time>2023-01-25T13:52:40Z</time>
      </trkpt>
      <trkpt lat="49.96302" lon="2.38919">
        <ele>78.8</ele>
        <time>2023-01-25T13:52:41Z</time>
      </trkpt>
      <trkpt lat="49.96302" lon="2.38921">
        <ele>78.8</ele>
        <time>2023-01-25T13:52:42Z</time>
      </trkpt>
      <trkpt lat="49.96302" lon="2.38923">
        <ele>78.8</ele>
        <time>2023-01-25T13:52:44Z</time>
      </trkpt>
      <trkpt lat="49.96302" lon="2.38926">
        <ele>78.9</ele>
        <time>2023-01-25T13:52:45Z</time>
      </trkpt>
      <trkpt lat="49.96303" lon="2.38927">
        <ele>78.9</ele>
        <time>2023-01-25T13:52:46Z</time>
      </trkpt>
      <trkpt lat="49.96303" lon="2.38929">
        <ele>78.9</ele>
        <time>2023-01-25T13:52:47Z</time>
      </trkpt>
      <trkpt lat="49.96303" lon="2.38931">
        <ele>78.9</ele>
        <time>2023-01-25T13:52:48Z</time>
      </trkpt>
      <trkpt lat="49.96304" lon="2.38934">
        <ele>79</ele>
        <time>2023-01-25T13:52:49Z</time>
      </trkpt>
      <trkpt lat="49.96304" lon="2.38935">
        <ele>79</ele>
        <time>2023-01-25T13:52:50Z</time>
      </trkpt>
      <trkpt lat="49.96304" lon="2.38936">
        <ele>79</ele>
        <time>2023-01-25T13:52:51Z</time>
      </trkpt>
      <trkpt lat="49.96305" lon="2.38938">
        <ele>79</ele>
        <time>2023-01-25T13:52:53Z</time>
      </trkpt>
      <trkpt lat="49.96305" lon="2.38941">
        <ele>79</ele>
        <time>2023-01-25T13:52:54Z</time>
      </trkpt>
      <trkpt lat="49.96306" lon="2.38944">
        <ele>79.1</ele>
        <time>2023-01-25T13:52:55Z</time>
      </trkpt>
      <trkpt lat="49.96307" lon="2.38946">
        <ele>79.1</ele>
        <time>2023-01-25T13:52:56Z</time>
      </trkpt>
      <trkpt lat="49.96307" lon="2.38947">
        <ele>79.1</ele>
        <time>2023-01-25T13:52:57Z</time>
      </trkpt>
      <trkpt lat="49.96308" lon="2.3895">
        <ele>79.1</ele>
        <time>2023-01-25T13:52:58Z</time>
      </trkpt>
      <trkpt lat="49.96308" lon="2.38952">
        <ele>79.1</ele>
        <time>2023-01-25T13:52:59Z</time>
      </trkpt>
      <trkpt lat="49.96309" lon="2.38953">
        <ele>79.2</ele>
        <time>2023-01-25T13:53:00Z</time>
      </trkpt>
      <trkpt lat="49.96309" lon="2.38955">
        <ele>79.2</ele>
        <time>2023-01-25T13:53:01Z</time>
      </trkpt>
      <trkpt lat="49.9631" lon="2.38957">
        <ele>79.2</ele>
        <time>2023-01-25T13:53:02Z</time>
      </trkpt>
      <trkpt lat="49.9631" lon="2.38959">
        <ele>79.2</ele>
        <time>2023-01-25T13:53:04Z</time>
      </trkpt>
      <trkpt lat="49.96311" lon="2.3896">
        <ele>79.2</ele>
        <time>2023-01-25T13:53:05Z</time>
      </trkpt>
      <trkpt lat="49.96311" lon="2.38962">
        <ele>79.3</ele>
        <time>2023-01-25T13:53:06Z</time>
      </trkpt>
      <trkpt lat="49.96311" lon="2.38963">
        <ele>79.3</ele>
        <time>2023-01-25T13:53:07Z</time>
      </trkpt>
      <trkpt lat="49.96312" lon="2.38966">
        <ele>79.3</ele>
        <time>2023-01-25T13:53:08Z</time>
      </trkpt>
      <trkpt lat="49.96312" lon="2.38967">
        <ele>79.3</ele>
        <time>2023-01-25T13:53:09Z</time>
      </trkpt>
      <trkpt lat="49.96313" lon="2.3897">
        <ele>79.3</ele>
        <time>2023-01-25T13:53:11Z</time>
      </trkpt>
      <trkpt lat="49.96313" lon="2.38972">
        <ele>79.3</ele>
        <time>2023-01-25T13:53:12Z</time>
      </trkpt>
      <trkpt lat="49.96314" lon="2.38974">
        <ele>79.3</ele>
        <time>2023-01-25T13:53:13Z</time>
      </trkpt>
      <trkpt lat="49.96314" lon="2.38976">
        <ele>79.3</ele>
        <time>2023-01-25T13:53:14Z</time>
      </trkpt>
      <trkpt lat="49.96315" lon="2.38979">
        <ele>79.3</ele>
        <time>2023-01-25T13:53:15Z</time>
      </trkpt>
      <trkpt lat="49.96315" lon="2.3898">
        <ele>79.3</ele>
        <time>2023-01-25T13:53:16Z</time>
      </trkpt>
      <trkpt lat="49.96316" lon="2.38981">
        <ele>79.3</ele>
        <time>2023-01-25T13:53:17Z</time>
      </trkpt>
      <trkpt lat="49.96316" lon="2.38982">
        <ele>79.3</ele>
        <time>2023-01-25T13:53:18Z</time>
      </trkpt>
      <trkpt lat="49.96318" lon="2.38983">
        <ele>79.3</ele>
        <time>2023-01-25T13:53:20Z</time>
      </trkpt>
      <trkpt lat="49.96319" lon="2.38983">
        <ele>79</ele>
        <time>2023-01-25T13:53:21Z</time>
      </trkpt>
      <trkpt lat="49.9632" lon="2.38983">
        <ele>79</ele>
        <time>2023-01-25T13:53:22Z</time>
      </trkpt>
      <trkpt lat="49.96321" lon="2.38982">
        <ele>79</ele>
        <time>2023-01-25T13:53:23Z</time>
      </trkpt>
      <trkpt lat="49.96322" lon="2.3898">
        <ele>78.9</ele>
        <time>2023-01-25T13:53:24Z</time>
      </trkpt>
      <trkpt lat="49.96323" lon="2.38978">
        <ele>78.9</ele>
        <time>2023-01-25T13:53:26Z</time>
      </trkpt>
      <trkpt lat="49.96324" lon="2.38976">
        <ele>78.9</ele>
        <time>2023-01-25T13:53:27Z</time>
      </trkpt>
      <trkpt lat="49.96325" lon="2.38975">
        <ele>78.9</ele>
        <time>2023-01-25T13:53:28Z</time>
      </trkpt>
      <trkpt lat="49.96325" lon="2.38974">
        <ele>78.9</ele>
        <time>2023-01-25T13:53:29Z</time>
      </trkpt>
      <trkpt lat="49.96326" lon="2.38972">
        <ele>78.8</ele>
        <time>2023-01-25T13:53:30Z</time>
      </trkpt>
      <trkpt lat="49.96327" lon="2.38971">
        <ele>78.8</ele>
        <time>2023-01-25T13:53:31Z</time>
      </trkpt>
      <trkpt lat="49.96327" lon="2.3897">
        <ele>78.8</ele>
        <time>2023-01-25T13:53:32Z</time>
      </trkpt>
      <trkpt lat="49.96328" lon="2.38969">
        <ele>78.8</ele>
        <time>2023-01-25T13:53:33Z</time>
      </trkpt>
      <trkpt lat="49.96329" lon="2.38968">
        <ele>78.8</ele>
        <time>2023-01-25T13:53:35Z</time>
      </trkpt>
      <trkpt lat="49.96329" lon="2.38966">
        <ele>78.8</ele>
        <time>2023-01-25T13:53:36Z</time>
      </trkpt>
      <trkpt lat="49.96328" lon="2.38965">
        <ele>78.8</ele>
        <time>2023-01-25T13:53:38Z</time>
      </trkpt>
      <trkpt lat="49.96328" lon="2.38965">
        <ele>78.7</ele>
        <time>2023-01-25T13:53:39Z</time>
      </trkpt>
      <trkpt lat="49.96327" lon="2.38965">
        <ele>78.7</ele>
        <time>2023-01-25T13:53:40Z</time>
      </trkpt>
      <trkpt lat="49.96327" lon="2.38965">
        <ele>78.7</ele>
        <time>2023-01-25T13:53:42Z</time>
      </trkpt>
      <trkpt lat="49.96327" lon="2.38965">
        <ele>78.7</ele>
        <time>2023-01-25T13:53:43Z</time>
      </trkpt>
      <trkpt lat="49.96327" lon="2.38965">
        <ele>78.7</ele>
        <time>2023-01-25T13:53:44Z</time>
      </trkpt>
      <trkpt lat="49.96326" lon="2.38965">
        <ele>78.7</ele>
        <time>2023-01-25T13:53:46Z</time>
      </trkpt>
      <trkpt lat="49.96326" lon="2.38965">
        <ele>78.7</ele>
        <time>2023-01-25T13:53:47Z</time>
      </trkpt>
      <trkpt lat="49.96326" lon="2.38965">
        <ele>78.7</ele>
        <time>2023-01-25T13:53:49Z</time>
      </trkpt>
      <trkpt lat="49.96326" lon="2.38965">
        <ele>78.7</ele>
        <time>2023-01-25T13:53:50Z</time>
      </trkpt>
      <trkpt lat="49.96326" lon="2.38965">
        <ele>78.7</ele>
        <time>2023-01-25T13:53:51Z</time>
      </trkpt>
      <trkpt lat="49.96326" lon="2.38965">
        <ele>78.7</ele>
        <time>2023-01-25T13:53:53Z</time>
      </trkpt>
      <trkpt lat="49.96326" lon="2.38965">
        <ele>78.7</ele>
        <time>2023-01-25T13:53:54Z</time>
      </trkpt>
      <trkpt lat="49.96326" lon="2.38965">
        <ele>78.7</ele>
        <time>2023-01-25T13:53:55Z</time>
      </trkpt>
      <trkpt lat="49.96326" lon="2.38965">
        <ele>78.7</ele>
        <time>2023-01-25T13:53:56Z</time>
      </trkpt>
      <trkpt lat="49.96326" lon="2.38965">
        <ele>78.7</ele>
        <time>2023-01-25T13:53:57Z</time>
      </trkpt>
      <trkpt lat="49.96326" lon="2.38965">
        <ele>78.7</ele>
        <time>2023-01-25T13:53:58Z</time>
      </trkpt>
      <trkpt lat="49.96326" lon="2.38965">
        <ele>78.7</ele>
        <time>2023-01-25T13:53:59Z</time>
      </trkpt>
      <trkpt lat="49.96326" lon="2.38965">
        <ele>78.7</ele>
        <time>2023-01-25T13:54:00Z</time>
      </trkpt>
      <trkpt lat="49.96326" lon="2.38965">
        <ele>78.7</ele>
        <time>2023-01-25T13:54:01Z</time>
      </trkpt>
      <trkpt lat="49.96326" lon="2.38965">
        <ele>78.7</ele>
        <time>2023-01-25T13:54:02Z</time>
      </trkpt>
      <trkpt lat="49.96326" lon="2.38965">
        <ele>78.7</ele>
        <time>2023-01-25T13:54:03Z</time>
      </trkpt>
      <trkpt lat="49.96326" lon="2.38964">
        <ele>78.7</ele>
        <time>2023-01-25T13:54:04Z</time>
      </trkpt>
      <trkpt lat="49.96326" lon="2.38964">
        <ele>78.7</ele>
        <time>2023-01-25T13:54:05Z</time>
      </trkpt>
      <trkpt lat="49.96326" lon="2.38964">
        <ele>78.7</ele>
        <time>2023-01-25T13:54:06Z</time>
      </trkpt>
      <trkpt lat="49.96326" lon="2.38964">
        <ele>78.7</ele>
        <time>2023-01-25T13:54:07Z</time>
      </trkpt>
      <trkpt lat="49.96326" lon="2.38964">
        <ele>78.7</ele>
        <time>2023-01-25T13:54:08Z</time>
      </trkpt>
      <trkpt lat="49.96326" lon="2.38964">
        <ele>78.7</ele>
        <time>2023-01-25T13:54:09Z</time>
      </trkpt>
      <trkpt lat="49.96326" lon="2.38964">
        <ele>78.7</ele>
        <time>2023-01-25T13:54:10Z</time>
      </trkpt>
      <trkpt lat="49.96326" lon="2.38964">
        <ele>78.7</ele>
        <time>2023-01-25T13:54:11Z</time>
      </trkpt>
      <trkpt lat="49.96326" lon="2.38964">
        <ele>78.7</ele>
        <time>2023-01-25T13:54:12Z</time>
      </trkpt>
      <trkpt lat="49.96326" lon="2.38964">
        <ele>78.7</ele>
        <time>2023-01-25T13:54:13Z</time>
      </trkpt>
      <trkpt lat="49.96327" lon="2.38964">
        <ele>78.7</ele>
        <time>2023-01-25T13:54:14Z</time>
      </trkpt>
      <trkpt lat="49.96327" lon="2.38964">
        <ele>78.7</ele>
        <time>2023-01-25T13:54:15Z</time>
      </trkpt>
      <trkpt lat="49.96327" lon="2.38964">
        <ele>78.7</ele>
        <time>2023-01-25T13:54:16Z</time>
      </trkpt>
      <trkpt lat="49.96327" lon="2.38964">
        <ele>78.7</ele>
        <time>2023-01-25T13:54:17Z</time>
      </trkpt>
      <trkpt lat="49.96327" lon="2.38964">
        <ele>78.7</ele>
        <time>2023-01-25T13:54:18Z</time>
      </trkpt>
      <trkpt lat="49.96327" lon="2.38964">
        <ele>78.7</ele>
        <time>2023-01-25T13:54:19Z</time>
      </trkpt>
      <trkpt lat="49.96327" lon="2.38963">
        <ele>78.7</ele>
        <time>2023-01-25T13:54:20Z</time>
      </trkpt>
      <trkpt lat="49.96327" lon="2.38963">
        <ele>78.7</ele>
        <time>2023-01-25T13:54:21Z</time>
      </trkpt>
      <trkpt lat="49.96327" lon="2.38963">
        <ele>78.7</ele>
        <time>2023-01-25T13:54:22Z</time>
      </trkpt>
      <trkpt lat="49.96327" lon="2.38963">
        <ele>78.7</ele>
        <time>2023-01-25T13:54:23Z</time>
      </trkpt>
      <trkpt lat="49.96327" lon="2.38963">
        <ele>78.7</ele>
        <time>2023-01-25T13:54:24Z</time>
      </trkpt>
      <trkpt lat="49.96327" lon="2.38963">
        <ele>78.7</ele>
        <time>2023-01-25T13:54:25Z</time>
      </trkpt>
      <trkpt lat="49.96327" lon="2.38963">
        <ele>78.7</ele>
        <time>2023-01-25T13:54:26Z</time>
      </trkpt>
      <trkpt lat="49.96327" lon="2.38963">
        <ele>78.7</ele>
        <time>2023-01-25T13:54:27Z</time>
      </trkpt>
      <trkpt lat="49.96327" lon="2.38963">
        <ele>78.7</ele>
        <time>2023-01-25T13:54:28Z</time>
      </trkpt>
      <trkpt lat="49.96327" lon="2.38963">
        <ele>78.7</ele>
        <time>2023-01-25T13:54:29Z</time>
      </trkpt>
      <trkpt lat="49.96327" lon="2.38963">
        <ele>78.7</ele>
        <time>2023-01-25T13:54:30Z</time>
      </trkpt>
      <trkpt lat="49.96327" lon="2.38963">
        <ele>78.7</ele>
        <time>2023-01-25T13:54:31Z</time>
      </trkpt>
      <trkpt lat="49.96327" lon="2.38963">
        <ele>78.7</ele>
        <time>2023-01-25T13:54:32Z</time>
      </trkpt>
      <trkpt lat="49.96327" lon="2.38963">
        <ele>78.7</ele>
        <time>2023-01-25T13:54:33Z</time>
      </trkpt>
      <trkpt lat="49.96327" lon="2.38963">
        <ele>78.7</ele>
        <time>2023-01-25T13:54:34Z</time>
      </trkpt>
      <trkpt lat="49.96327" lon="2.38962">
        <ele>78.7</ele>
        <time>2023-01-25T13:54:35Z</time>
      </trkpt>
      <trkpt lat="49.96327" lon="2.38962">
        <ele>78.7</ele>
        <time>2023-01-25T13:54:36Z</time>
      </trkpt>
      <trkpt lat="49.96327" lon="2.38962">
        <ele>78.7</ele>
        <time>2023-01-25T13:54:37Z</time>
      </trkpt>
      <trkpt lat="49.96327" lon="2.38962">
        <ele>78.7</ele>
        <time>2023-01-25T13:54:38Z</time>
      </trkpt>
      <trkpt lat="49.96327" lon="2.38962">
        <ele>78.7</ele>
        <time>2023-01-25T13:54:39Z</time>
      </trkpt>
      <trkpt lat="49.96327" lon="2.38962">
        <ele>78.7</ele>
        <time>2023-01-25T13:54:40Z</time>
      </trkpt>
      <trkpt lat="49.96327" lon="2.38962">
        <ele>78.7</ele>
        <time>2023-01-25T13:54:41Z</time>
      </trkpt>
      <trkpt lat="49.96327" lon="2.38962">
        <ele>78.7</ele>
        <time>2023-01-25T13:54:42Z</time>
      </trkpt>
      <trkpt lat="49.96327" lon="2.38962">
        <ele>78.7</ele>
        <time>2023-01-25T13:54:43Z</time>
      </trkpt>
      <trkpt lat="49.96327" lon="2.38962">
        <ele>78.7</ele>
        <time>2023-01-25T13:54:44Z</time>
      </trkpt>
      <trkpt lat="49.96327" lon="2.38962">
        <ele>78.7</ele>
        <time>2023-01-25T13:54:45Z</time>
      </trkpt>
      <trkpt lat="49.96327" lon="2.38962">
        <ele>78.7</ele>
        <time>2023-01-25T13:54:46Z</time>
      </trkpt>
      <trkpt lat="49.96327" lon="2.38962">
        <ele>78.7</ele>
        <time>2023-01-25T13:54:47Z</time>
      </trkpt>
      <trkpt lat="49.96327" lon="2.38962">
        <ele>78.7</ele>
        <time>2023-01-25T13:54:48Z</time>
      </trkpt>
      <trkpt lat="49.96327" lon="2.38962">
        <ele>78.7</ele>
        <time>2023-01-25T13:54:49Z</time>
      </trkpt>
      <trkpt lat="49.96327" lon="2.38962">
        <ele>78.7</ele>
        <time>2023-01-25T13:54:50Z</time>
      </trkpt>
      <trkpt lat="49.96327" lon="2.38961">
        <ele>78.7</ele>
        <time>2023-01-25T13:54:51Z</time>
      </trkpt>
      <trkpt lat="49.96327" lon="2.38961">
        <ele>78.7</ele>
        <time>2023-01-25T13:54:52Z</time>
      </trkpt>
      <trkpt lat="49.96327" lon="2.38961">
        <ele>78.7</ele>
        <time>2023-01-25T13:54:53Z</time>
      </trkpt>
      <trkpt lat="49.96327" lon="2.38961">
        <ele>78.7</ele>
        <time>2023-01-25T13:54:54Z</time>
      </trkpt>
      <trkpt lat="49.96327" lon="2.38961">
        <ele>78.7</ele>
        <time>2023-01-25T13:54:55Z</time>
      </trkpt>
      <trkpt lat="49.96327" lon="2.38961">
        <ele>78.7</ele>
        <time>2023-01-25T13:54:56Z</time>
      </trkpt>
      <trkpt lat="49.96327" lon="2.38961">
        <ele>78.7</ele>
        <time>2023-01-25T13:54:57Z</time>
      </trkpt>
      <trkpt lat="49.96327" lon="2.38961">
        <ele>78.7</ele>
        <time>2023-01-25T13:54:58Z</time>
      </trkpt>
      <trkpt lat="49.96327" lon="2.38961">
        <ele>78.7</ele>
        <time>2023-01-25T13:54:59Z</time>
      </trkpt>
      <trkpt lat="49.96327" lon="2.38961">
        <ele>78.7</ele>
        <time>2023-01-25T13:55:00Z</time>
      </trkpt>
      <trkpt lat="49.96327" lon="2.38961">
        <ele>78.7</ele>
        <time>2023-01-25T13:55:01Z</time>
      </trkpt>
      <trkpt lat="49.96327" lon="2.38961">
        <ele>78.7</ele>
        <time>2023-01-25T13:55:02Z</time>
      </trkpt>
      <trkpt lat="49.96327" lon="2.38961">
        <ele>78.7</ele>
        <time>2023-01-25T13:55:03Z</time>
      </trkpt>
      <trkpt lat="49.96327" lon="2.38961">
        <ele>78.7</ele>
        <time>2023-01-25T13:55:04Z</time>
      </trkpt>
      <trkpt lat="49.96327" lon="2.38961">
        <ele>78.7</ele>
        <time>2023-01-25T13:55:05Z</time>
      </trkpt>
      <trkpt lat="49.96327" lon="2.3896">
        <ele>78.7</ele>
        <time>2023-01-25T13:55:06Z</time>
      </trkpt>
      <trkpt lat="49.96328" lon="2.3896">
        <ele>78.7</ele>
        <time>2023-01-25T13:55:07Z</time>
      </trkpt>
      <trkpt lat="49.96328" lon="2.3896">
        <ele>78.7</ele>
        <time>2023-01-25T13:55:08Z</time>
      </trkpt>
      <trkpt lat="49.96328" lon="2.3896">
        <ele>78.7</ele>
        <time>2023-01-25T13:55:09Z</time>
      </trkpt>
      <trkpt lat="49.96328" lon="2.3896">
        <ele>78.7</ele>
        <time>2023-01-25T13:55:10Z</time>
      </trkpt>
      <trkpt lat="49.96328" lon="2.3896">
        <ele>78.7</ele>
        <time>2023-01-25T13:55:11Z</time>
      </trkpt>
      <trkpt lat="49.96328" lon="2.3896">
        <ele>78.7</ele>
        <time>2023-01-25T13:55:12Z</time>
      </trkpt>
      <trkpt lat="49.96328" lon="2.3896">
        <ele>78.7</ele>
        <time>2023-01-25T13:55:14Z</time>
      </trkpt>
      <trkpt lat="49.96328" lon="2.3896">
        <ele>78.7</ele>
        <time>2023-01-25T13:55:15Z</time>
      </trkpt>
      <trkpt lat="49.96328" lon="2.3896">
        <ele>78.7</ele>
        <time>2023-01-25T13:55:16Z</time>
      </trkpt>
      <trkpt lat="49.96328" lon="2.3896">
        <ele>78.7</ele>
        <time>2023-01-25T13:55:17Z</time>
      </trkpt>
      <trkpt lat="49.96329" lon="2.38957">
        <ele>78.7</ele>
        <time>2023-01-25T13:55:18Z</time>
      </trkpt>
      <trkpt lat="49.96329" lon="2.38956">
        <ele>78.7</ele>
        <time>2023-01-25T13:55:19Z</time>
      </trkpt>
      <trkpt lat="49.9633" lon="2.38955">
        <ele>78.7</ele>
        <time>2023-01-25T13:55:20Z</time>
      </trkpt>
      <trkpt lat="49.96331" lon="2.38953">
        <ele>78.6</ele>
        <time>2023-01-25T13:55:21Z</time>
      </trkpt>
      <trkpt lat="49.96331" lon="2.38951">
        <ele>78.6</ele>
        <time>2023-01-25T13:55:23Z</time>
      </trkpt>
      <trkpt lat="49.96332" lon="2.3895">
        <ele>78.6</ele>
        <time>2023-01-25T13:55:24Z</time>
      </trkpt>
      <trkpt lat="49.96332" lon="2.38948">
        <ele>78.6</ele>
        <time>2023-01-25T13:55:26Z</time>
      </trkpt>
      <trkpt lat="49.96332" lon="2.38947">
        <ele>78.6</ele>
        <time>2023-01-25T13:55:27Z</time>
      </trkpt>
      <trkpt lat="49.96331" lon="2.38947">
        <ele>78.6</ele>
        <time>2023-01-25T13:55:28Z</time>
      </trkpt>
      <trkpt lat="49.96331" lon="2.38947">
        <ele>78.6</ele>
        <time>2023-01-25T13:55:30Z</time>
      </trkpt>
      <trkpt lat="49.96331" lon="2.38947">
        <ele>78.6</ele>
        <time>2023-01-25T13:55:31Z</time>
      </trkpt>
      <trkpt lat="49.96331" lon="2.38947">
        <ele>78.6</ele>
        <time>2023-01-25T13:55:32Z</time>
      </trkpt>
      <trkpt lat="49.96331" lon="2.38946">
        <ele>78.6</ele>
        <time>2023-01-25T13:55:34Z</time>
      </trkpt>
      <trkpt lat="49.96332" lon="2.38946">
        <ele>78.6</ele>
        <time>2023-01-25T13:55:35Z</time>
      </trkpt>
      <trkpt lat="49.96332" lon="2.38945">
        <ele>78.6</ele>
        <time>2023-01-25T13:55:36Z</time>
      </trkpt>
      <trkpt lat="49.96333" lon="2.38944">
        <ele>78.6</ele>
        <time>2023-01-25T13:55:37Z</time>
      </trkpt>
      <trkpt lat="49.96333" lon="2.38943">
        <ele>78.6</ele>
        <time>2023-01-25T13:55:38Z</time>
      </trkpt>
      <trkpt lat="49.96334" lon="2.38942">
        <ele>78.6</ele>
        <time>2023-01-25T13:55:39Z</time>
      </trkpt>
      <trkpt lat="49.96335" lon="2.3894">
        <ele>78.6</ele>
        <time>2023-01-25T13:55:41Z</time>
      </trkpt>
      <trkpt lat="49.96336" lon="2.38939">
        <ele>78.6</ele>
        <time>2023-01-25T13:55:42Z</time>
      </trkpt>
      <trkpt lat="49.96337" lon="2.38937">
        <ele>78.6</ele>
        <time>2023-01-25T13:55:43Z</time>
      </trkpt>
      <trkpt lat="49.96338" lon="2.38936">
        <ele>78.5</ele>
        <time>2023-01-25T13:55:44Z</time>
      </trkpt>
      <trkpt lat="49.96338" lon="2.38934">
        <ele>78.5</ele>
        <time>2023-01-25T13:55:45Z</time>
      </trkpt>
      <trkpt lat="49.96338" lon="2.38931">
        <ele>78.5</ele>
        <time>2023-01-25T13:55:46Z</time>
      </trkpt>
      <trkpt lat="49.96339" lon="2.3893">
        <ele>78.5</ele>
        <time>2023-01-25T13:55:47Z</time>
      </trkpt>
      <trkpt lat="49.9634" lon="2.38929">
        <ele>78.5</ele>
        <time>2023-01-25T13:55:49Z</time>
      </trkpt>
      <trkpt lat="49.9634" lon="2.38928">
        <ele>78.5</ele>
        <time>2023-01-25T13:55:50Z</time>
      </trkpt>
      <trkpt lat="49.96341" lon="2.38927">
        <ele>78.5</ele>
        <time>2023-01-25T13:55:51Z</time>
      </trkpt>
      <trkpt lat="49.96342" lon="2.38926">
        <ele>78.5</ele>
        <time>2023-01-25T13:55:52Z</time>
      </trkpt>
      <trkpt lat="49.96343" lon="2.38925">
        <ele>78.5</ele>
        <time>2023-01-25T13:55:53Z</time>
      </trkpt>
      <trkpt lat="49.96344" lon="2.38923">
        <ele>78.5</ele>
        <time>2023-01-25T13:55:54Z</time>
      </trkpt>
      <trkpt lat="49.96345" lon="2.38922">
        <ele>78.5</ele>
        <time>2023-01-25T13:55:55Z</time>
      </trkpt>
      <trkpt lat="49.96347" lon="2.38921">
        <ele>78.4</ele>
        <time>2023-01-25T13:55:57Z</time>
      </trkpt>
      <trkpt lat="49.96348" lon="2.38919">
        <ele>78.4</ele>
        <time>2023-01-25T13:55:58Z</time>
      </trkpt>
      <trkpt lat="49.96349" lon="2.38918">
        <ele>78.4</ele>
        <time>2023-01-25T13:55:59Z</time>
      </trkpt>
      <trkpt lat="49.96351" lon="2.38916">
        <ele>78.4</ele>
        <time>2023-01-25T13:56:00Z</time>
      </trkpt>
      <trkpt lat="49.96352" lon="2.38915">
        <ele>78.4</ele>
        <time>2023-01-25T13:56:01Z</time>
      </trkpt>
      <trkpt lat="49.96353" lon="2.38914">
        <ele>78.4</ele>
        <time>2023-01-25T13:56:02Z</time>
      </trkpt>
      <trkpt lat="49.96354" lon="2.38912">
        <ele>78.3</ele>
        <time>2023-01-25T13:56:03Z</time>
      </trkpt>
      <trkpt lat="49.96354" lon="2.3891">
        <ele>78.3</ele>
        <time>2023-01-25T13:56:05Z</time>
      </trkpt>
      <trkpt lat="49.96355" lon="2.38909">
        <ele>78.3</ele>
        <time>2023-01-25T13:56:06Z</time>
      </trkpt>
      <trkpt lat="49.96357" lon="2.38906">
        <ele>78.3</ele>
        <time>2023-01-25T13:56:07Z</time>
      </trkpt>
      <trkpt lat="49.96357" lon="2.38906">
        <ele>78.3</ele>
        <time>2023-01-25T13:56:08Z</time>
      </trkpt>
      <trkpt lat="49.96358" lon="2.38905">
        <ele>78.3</ele>
        <time>2023-01-25T13:56:09Z</time>
      </trkpt>
      <trkpt lat="49.96359" lon="2.38902">
        <ele>78.3</ele>
        <time>2023-01-25T13:56:10Z</time>
      </trkpt>
      <trkpt lat="49.9636" lon="2.38901">
        <ele>78.3</ele>
        <time>2023-01-25T13:56:11Z</time>
      </trkpt>
      <trkpt lat="49.9636" lon="2.389">
        <ele>78.3</ele>
        <time>2023-01-25T13:56:12Z</time>
      </trkpt>
      <trkpt lat="49.96361" lon="2.38898">
        <ele>78.3</ele>
        <time>2023-01-25T13:56:14Z</time>
      </trkpt>
      <trkpt lat="49.96362" lon="2.38896">
        <ele>78.3</ele>
        <time>2023-01-25T13:56:15Z</time>
      </trkpt>
      <trkpt lat="49.96362" lon="2.38895">
        <ele>78.3</ele>
        <time>2023-01-25T13:56:16Z</time>
      </trkpt>
      <trkpt lat="49.96363" lon="2.38894">
        <ele>78.3</ele>
        <time>2023-01-25T13:56:17Z</time>
      </trkpt>
      <trkpt lat="49.96364" lon="2.38892">
        <ele>78.3</ele>
        <time>2023-01-25T13:56:18Z</time>
      </trkpt>
      <trkpt lat="49.96365" lon="2.3889">
        <ele>78.3</ele>
        <time>2023-01-25T13:56:19Z</time>
      </trkpt>
      <trkpt lat="49.96366" lon="2.38889">
        <ele>78.3</ele>
        <time>2023-01-25T13:56:21Z</time>
      </trkpt>
      <trkpt lat="49.96367" lon="2.38888">
        <ele>78.3</ele>
        <time>2023-01-25T13:56:22Z</time>
      </trkpt>
      <trkpt lat="49.96368" lon="2.38885">
        <ele>78.4</ele>
        <time>2023-01-25T13:56:23Z</time>
      </trkpt>
      <trkpt lat="49.96368" lon="2.38884">
        <ele>78.4</ele>
        <time>2023-01-25T13:56:24Z</time>
      </trkpt>
      <trkpt lat="49.96369" lon="2.38883">
        <ele>78.4</ele>
        <time>2023-01-25T13:56:25Z</time>
      </trkpt>
      <trkpt lat="49.9637" lon="2.3888">
        <ele>78.4</ele>
        <time>2023-01-25T13:56:27Z</time>
      </trkpt>
      <trkpt lat="49.96371" lon="2.38879">
        <ele>78.4</ele>
        <time>2023-01-25T13:56:28Z</time>
      </trkpt>
      <trkpt lat="49.96371" lon="2.38878">
        <ele>78.4</ele>
        <time>2023-01-25T13:56:29Z</time>
      </trkpt>
      <trkpt lat="49.96373" lon="2.38876">
        <ele>78.5</ele>
        <time>2023-01-25T13:56:30Z</time>
      </trkpt>
      <trkpt lat="49.96373" lon="2.38875">
        <ele>78.5</ele>
        <time>2023-01-25T13:56:31Z</time>
      </trkpt>
      <trkpt lat="49.96374" lon="2.38874">
        <ele>78.5</ele>
        <time>2023-01-25T13:56:32Z</time>
      </trkpt>
      <trkpt lat="49.96375" lon="2.38872">
        <ele>78.5</ele>
        <time>2023-01-25T13:56:33Z</time>
      </trkpt>
      <trkpt lat="49.96376" lon="2.38871">
        <ele>78.6</ele>
        <time>2023-01-25T13:56:34Z</time>
      </trkpt>
      <trkpt lat="49.96377" lon="2.38869">
        <ele>78.6</ele>
        <time>2023-01-25T13:56:35Z</time>
      </trkpt>
      <trkpt lat="49.96378" lon="2.38867">
        <ele>78.6</ele>
        <time>2023-01-25T13:56:37Z</time>
      </trkpt>
      <trkpt lat="49.96378" lon="2.38866">
        <ele>78.7</ele>
        <time>2023-01-25T13:56:38Z</time>
      </trkpt>
      <trkpt lat="49.96379" lon="2.38864">
        <ele>78.7</ele>
        <time>2023-01-25T13:56:39Z</time>
      </trkpt>
      <trkpt lat="49.9638" lon="2.38863">
        <ele>78.7</ele>
        <time>2023-01-25T13:56:40Z</time>
      </trkpt>
      <trkpt lat="49.9638" lon="2.38861">
        <ele>78.8</ele>
        <time>2023-01-25T13:56:41Z</time>
      </trkpt>
      <trkpt lat="49.96381" lon="2.3886">
        <ele>78.8</ele>
        <time>2023-01-25T13:56:42Z</time>
      </trkpt>
      <trkpt lat="49.96382" lon="2.38859">
        <ele>78.8</ele>
        <time>2023-01-25T13:56:43Z</time>
      </trkpt>
      <trkpt lat="49.96383" lon="2.38856">
        <ele>78.8</ele>
        <time>2023-01-25T13:56:44Z</time>
      </trkpt>
      <trkpt lat="49.96384" lon="2.38855">
        <ele>78.8</ele>
        <time>2023-01-25T13:56:46Z</time>
      </trkpt>
      <trkpt lat="49.96384" lon="2.38854">
        <ele>78.9</ele>
        <time>2023-01-25T13:56:47Z</time>
      </trkpt>
      <trkpt lat="49.96386" lon="2.38852">
        <ele>78.9</ele>
        <time>2023-01-25T13:56:48Z</time>
      </trkpt>
      <trkpt lat="49.96386" lon="2.38851">
        <ele>78.9</ele>
        <time>2023-01-25T13:56:49Z</time>
      </trkpt>
      <trkpt lat="49.96387" lon="2.3885">
        <ele>78.9</ele>
        <time>2023-01-25T13:56:50Z</time>
      </trkpt>
      <trkpt lat="49.96388" lon="2.38849">
        <ele>78.9</ele>
        <time>2023-01-25T13:56:51Z</time>
      </trkpt>
      <trkpt lat="49.96388" lon="2.38848">
        <ele>78.9</ele>
        <time>2023-01-25T13:56:52Z</time>
      </trkpt>
      <trkpt lat="49.96389" lon="2.38846">
        <ele>78.9</ele>
        <time>2023-01-25T13:56:53Z</time>
      </trkpt>
      <trkpt lat="49.9639" lon="2.38845">
        <ele>78.9</ele>
        <time>2023-01-25T13:56:54Z</time>
      </trkpt>
      <trkpt lat="49.96391" lon="2.38844">
        <ele>78.9</ele>
        <time>2023-01-25T13:56:55Z</time>
      </trkpt>
      <trkpt lat="49.96392" lon="2.38842">
        <ele>78.9</ele>
        <time>2023-01-25T13:56:57Z</time>
      </trkpt>
      <trkpt lat="49.96393" lon="2.38841">
        <ele>78.9</ele>
        <time>2023-01-25T13:56:58Z</time>
      </trkpt>
      <trkpt lat="49.96394" lon="2.38839">
        <ele>78.9</ele>
        <time>2023-01-25T13:56:59Z</time>
      </trkpt>
      <trkpt lat="49.96395" lon="2.38838">
        <ele>78.9</ele>
        <time>2023-01-25T13:57:00Z</time>
      </trkpt>
      <trkpt lat="49.96395" lon="2.38837">
        <ele>78.9</ele>
        <time>2023-01-25T13:57:01Z</time>
      </trkpt>
      <trkpt lat="49.96396" lon="2.38835">
        <ele>78.9</ele>
        <time>2023-01-25T13:57:02Z</time>
      </trkpt>
      <trkpt lat="49.96397" lon="2.38834">
        <ele>78.9</ele>
        <time>2023-01-25T13:57:03Z</time>
      </trkpt>
      <trkpt lat="49.96398" lon="2.38833">
        <ele>78.9</ele>
        <time>2023-01-25T13:57:04Z</time>
      </trkpt>
      <trkpt lat="49.96398" lon="2.38832">
        <ele>78.9</ele>
        <time>2023-01-25T13:57:05Z</time>
      </trkpt>
      <trkpt lat="49.96399" lon="2.3883">
        <ele>78.9</ele>
        <time>2023-01-25T13:57:07Z</time>
      </trkpt>
      <trkpt lat="49.964" lon="2.38828">
        <ele>79</ele>
        <time>2023-01-25T13:57:08Z</time>
      </trkpt>
      <trkpt lat="49.96401" lon="2.38827">
        <ele>79</ele>
        <time>2023-01-25T13:57:09Z</time>
      </trkpt>
      <trkpt lat="49.96402" lon="2.38825">
        <ele>79</ele>
        <time>2023-01-25T13:57:10Z</time>
      </trkpt>
      <trkpt lat="49.96403" lon="2.38824">
        <ele>79</ele>
        <time>2023-01-25T13:57:12Z</time>
      </trkpt>
      <trkpt lat="49.96404" lon="2.38822">
        <ele>79</ele>
        <time>2023-01-25T13:57:13Z</time>
      </trkpt>
      <trkpt lat="49.96404" lon="2.3882">
        <ele>79</ele>
        <time>2023-01-25T13:57:14Z</time>
      </trkpt>
      <trkpt lat="49.96406" lon="2.38817">
        <ele>79</ele>
        <time>2023-01-25T13:57:15Z</time>
      </trkpt>
      <trkpt lat="49.96406" lon="2.38816">
        <ele>79</ele>
        <time>2023-01-25T13:57:16Z</time>
      </trkpt>
      <trkpt lat="49.96407" lon="2.38815">
        <ele>79</ele>
        <time>2023-01-25T13:57:17Z</time>
      </trkpt>
      <trkpt lat="49.96407" lon="2.38814">
        <ele>79</ele>
        <time>2023-01-25T13:57:18Z</time>
      </trkpt>
      <trkpt lat="49.96408" lon="2.38813">
        <ele>79</ele>
        <time>2023-01-25T13:57:19Z</time>
      </trkpt>
      <trkpt lat="49.96408" lon="2.38811">
        <ele>79</ele>
        <time>2023-01-25T13:57:20Z</time>
      </trkpt>
      <trkpt lat="49.96409" lon="2.3881">
        <ele>79</ele>
        <time>2023-01-25T13:57:21Z</time>
      </trkpt>
      <trkpt lat="49.9641" lon="2.38808">
        <ele>79</ele>
        <time>2023-01-25T13:57:22Z</time>
      </trkpt>
      <trkpt lat="49.96411" lon="2.38805">
        <ele>79</ele>
        <time>2023-01-25T13:57:24Z</time>
      </trkpt>
      <trkpt lat="49.96412" lon="2.38803">
        <ele>79.1</ele>
        <time>2023-01-25T13:57:25Z</time>
      </trkpt>
      <trkpt lat="49.96412" lon="2.38801">
        <ele>79.1</ele>
        <time>2023-01-25T13:57:26Z</time>
      </trkpt>
      <trkpt lat="49.96412" lon="2.388">
        <ele>79.1</ele>
        <time>2023-01-25T13:57:27Z</time>
      </trkpt>
      <trkpt lat="49.96413" lon="2.38797">
        <ele>79.1</ele>
        <time>2023-01-25T13:57:28Z</time>
      </trkpt>
      <trkpt lat="49.96414" lon="2.38795">
        <ele>79.1</ele>
        <time>2023-01-25T13:57:30Z</time>
      </trkpt>
      <trkpt lat="49.96414" lon="2.38794">
        <ele>79.1</ele>
        <time>2023-01-25T13:57:31Z</time>
      </trkpt>
      <trkpt lat="49.96415" lon="2.38793">
        <ele>79.1</ele>
        <time>2023-01-25T13:57:32Z</time>
      </trkpt>
      <trkpt lat="49.96415" lon="2.38791">
        <ele>79.2</ele>
        <time>2023-01-25T13:57:33Z</time>
      </trkpt>
      <trkpt lat="49.96416" lon="2.3879">
        <ele>79.2</ele>
        <time>2023-01-25T13:57:34Z</time>
      </trkpt>
      <trkpt lat="49.96417" lon="2.38788">
        <ele>79.2</ele>
        <time>2023-01-25T13:57:35Z</time>
      </trkpt>
      <trkpt lat="49.96418" lon="2.38787">
        <ele>79.2</ele>
        <time>2023-01-25T13:57:36Z</time>
      </trkpt>
      <trkpt lat="49.96419" lon="2.38785">
        <ele>79.2</ele>
        <time>2023-01-25T13:57:38Z</time>
      </trkpt>
      <trkpt lat="49.96419" lon="2.38784">
        <ele>79.2</ele>
        <time>2023-01-25T13:57:39Z</time>
      </trkpt>
      <trkpt lat="49.9642" lon="2.38783">
        <ele>79.2</ele>
        <time>2023-01-25T13:57:40Z</time>
      </trkpt>
      <trkpt lat="49.96422" lon="2.38781">
        <ele>79.3</ele>
        <time>2023-01-25T13:57:41Z</time>
      </trkpt>
      <trkpt lat="49.96422" lon="2.3878">
        <ele>79.3</ele>
        <time>2023-01-25T13:57:42Z</time>
      </trkpt>
      <trkpt lat="49.96423" lon="2.38779">
        <ele>79.3</ele>
        <time>2023-01-25T13:57:43Z</time>
      </trkpt>
      <trkpt lat="49.96425" lon="2.38777">
        <ele>79.3</ele>
        <time>2023-01-25T13:57:44Z</time>
      </trkpt>
      <trkpt lat="49.96426" lon="2.38776">
        <ele>79.2</ele>
        <time>2023-01-25T13:57:45Z</time>
      </trkpt>
      <trkpt lat="49.96426" lon="2.38776">
        <ele>79.2</ele>
        <time>2023-01-25T13:57:46Z</time>
      </trkpt>
      <trkpt lat="49.96427" lon="2.38775">
        <ele>79.2</ele>
        <time>2023-01-25T13:57:47Z</time>
      </trkpt>
      <trkpt lat="49.96429" lon="2.38774">
        <ele>79.2</ele>
        <time>2023-01-25T13:57:48Z</time>
      </trkpt>
      <trkpt lat="49.9643" lon="2.38773">
        <ele>79.2</ele>
        <time>2023-01-25T13:57:50Z</time>
      </trkpt>
      <trkpt lat="49.96432" lon="2.38771">
        <ele>79.2</ele>
        <time>2023-01-25T13:57:51Z</time>
      </trkpt>
      <trkpt lat="49.96433" lon="2.3877">
        <ele>79.2</ele>
        <time>2023-01-25T13:57:52Z</time>
      </trkpt>
      <trkpt lat="49.96434" lon="2.38768">
        <ele>79.2</ele>
        <time>2023-01-25T13:57:54Z</time>
      </trkpt>
      <trkpt lat="49.96435" lon="2.38767">
        <ele>79.2</ele>
        <time>2023-01-25T13:57:55Z</time>
      </trkpt>
      <trkpt lat="49.96436" lon="2.38765">
        <ele>79.2</ele>
        <time>2023-01-25T13:57:56Z</time>
      </trkpt>
      <trkpt lat="49.96437" lon="2.38764">
        <ele>79.2</ele>
        <time>2023-01-25T13:57:57Z</time>
      </trkpt>
      <trkpt lat="49.96438" lon="2.38762">
        <ele>79.2</ele>
        <time>2023-01-25T13:57:58Z</time>
      </trkpt>
      <trkpt lat="49.96439" lon="2.3876">
        <ele>79.2</ele>
        <time>2023-01-25T13:57:59Z</time>
      </trkpt>
      <trkpt lat="49.9644" lon="2.38758">
        <ele>79.2</ele>
        <time>2023-01-25T13:58:00Z</time>
      </trkpt>
      <trkpt lat="49.96441" lon="2.38757">
        <ele>79.2</ele>
        <time>2023-01-25T13:58:01Z</time>
      </trkpt>
      <trkpt lat="49.96441" lon="2.38756">
        <ele>79.2</ele>
        <time>2023-01-25T13:58:02Z</time>
      </trkpt>
      <trkpt lat="49.96442" lon="2.38755">
        <ele>79.2</ele>
        <time>2023-01-25T13:58:03Z</time>
      </trkpt>
      <trkpt lat="49.96444" lon="2.38754">
        <ele>79.2</ele>
        <time>2023-01-25T13:58:05Z</time>
      </trkpt>
      <trkpt lat="49.96444" lon="2.38753">
        <ele>79.2</ele>
        <time>2023-01-25T13:58:06Z</time>
      </trkpt>
      <trkpt lat="49.96446" lon="2.38751">
        <ele>79.2</ele>
        <time>2023-01-25T13:58:07Z</time>
      </trkpt>
      <trkpt lat="49.96446" lon="2.38749">
        <ele>79.1</ele>
        <time>2023-01-25T13:58:08Z</time>
      </trkpt>
      <trkpt lat="49.96448" lon="2.38746">
        <ele>79.1</ele>
        <time>2023-01-25T13:58:09Z</time>
      </trkpt>
      <trkpt lat="49.96448" lon="2.38745">
        <ele>79.1</ele>
        <time>2023-01-25T13:58:10Z</time>
      </trkpt>
      <trkpt lat="49.96449" lon="2.38744">
        <ele>79.1</ele>
        <time>2023-01-25T13:58:11Z</time>
      </trkpt>
      <trkpt lat="49.9645" lon="2.38741">
        <ele>79.1</ele>
        <time>2023-01-25T13:58:12Z</time>
      </trkpt>
      <trkpt lat="49.9645" lon="2.3874">
        <ele>79.1</ele>
        <time>2023-01-25T13:58:13Z</time>
      </trkpt>
      <trkpt lat="49.96451" lon="2.38739">
        <ele>79.1</ele>
        <time>2023-01-25T13:58:14Z</time>
      </trkpt>
      <trkpt lat="49.96451" lon="2.38736">
        <ele>79.1</ele>
        <time>2023-01-25T13:58:16Z</time>
      </trkpt>
      <trkpt lat="49.96452" lon="2.38734">
        <ele>79.1</ele>
        <time>2023-01-25T13:58:17Z</time>
      </trkpt>
      <trkpt lat="49.96453" lon="2.38731">
        <ele>79.1</ele>
        <time>2023-01-25T13:58:18Z</time>
      </trkpt>
      <trkpt lat="49.96453" lon="2.3873">
        <ele>79.1</ele>
        <time>2023-01-25T13:58:19Z</time>
      </trkpt>
      <trkpt lat="49.96453" lon="2.38728">
        <ele>79.1</ele>
        <time>2023-01-25T13:58:20Z</time>
      </trkpt>
      <trkpt lat="49.96454" lon="2.38725">
        <ele>79.1</ele>
        <time>2023-01-25T13:58:21Z</time>
      </trkpt>
      <trkpt lat="49.96455" lon="2.38724">
        <ele>79.1</ele>
        <time>2023-01-25T13:58:22Z</time>
      </trkpt>
      <trkpt lat="49.96455" lon="2.38723">
        <ele>79.1</ele>
        <time>2023-01-25T13:58:23Z</time>
      </trkpt>
      <trkpt lat="49.96456" lon="2.3872">
        <ele>79.1</ele>
        <time>2023-01-25T13:58:25Z</time>
      </trkpt>
      <trkpt lat="49.96456" lon="2.38718">
        <ele>79.1</ele>
        <time>2023-01-25T13:58:26Z</time>
      </trkpt>
      <trkpt lat="49.96456" lon="2.38716">
        <ele>79.1</ele>
        <time>2023-01-25T13:58:27Z</time>
      </trkpt>
      <trkpt lat="49.96457" lon="2.38715">
        <ele>79.1</ele>
        <time>2023-01-25T13:58:28Z</time>
      </trkpt>
      <trkpt lat="49.96457" lon="2.38713">
        <ele>79.1</ele>
        <time>2023-01-25T13:58:29Z</time>
      </trkpt>
      <trkpt lat="49.96458" lon="2.3871">
        <ele>79.1</ele>
        <time>2023-01-25T13:58:30Z</time>
      </trkpt>
      <trkpt lat="49.96458" lon="2.38708">
        <ele>79.1</ele>
        <time>2023-01-25T13:58:32Z</time>
      </trkpt>
      <trkpt lat="49.96458" lon="2.38707">
        <ele>79.1</ele>
        <time>2023-01-25T13:58:33Z</time>
      </trkpt>
      <trkpt lat="49.96458" lon="2.38706">
        <ele>79.1</ele>
        <time>2023-01-25T13:58:34Z</time>
      </trkpt>
      <trkpt lat="49.96458" lon="2.38704">
        <ele>79.1</ele>
        <time>2023-01-25T13:58:35Z</time>
      </trkpt>
      <trkpt lat="49.96459" lon="2.38702">
        <ele>79.1</ele>
        <time>2023-01-25T13:58:36Z</time>
      </trkpt>
      <trkpt lat="49.96459" lon="2.387">
        <ele>79.1</ele>
        <time>2023-01-25T13:58:37Z</time>
      </trkpt>
      <trkpt lat="49.9646" lon="2.38699">
        <ele>79.1</ele>
        <time>2023-01-25T13:58:38Z</time>
      </trkpt>
      <trkpt lat="49.9646" lon="2.38697">
        <ele>79.1</ele>
        <time>2023-01-25T13:58:39Z</time>
      </trkpt>
      <trkpt lat="49.96461" lon="2.38695">
        <ele>79.1</ele>
        <time>2023-01-25T13:58:41Z</time>
      </trkpt>
      <trkpt lat="49.96461" lon="2.38693">
        <ele>79</ele>
        <time>2023-01-25T13:58:42Z</time>
      </trkpt>
      <trkpt lat="49.96462" lon="2.38691">
        <ele>79</ele>
        <time>2023-01-25T13:58:43Z</time>
      </trkpt>
      <trkpt lat="49.96462" lon="2.38689">
        <ele>79</ele>
        <time>2023-01-25T13:58:44Z</time>
      </trkpt>
      <trkpt lat="49.96462" lon="2.38685">
        <ele>79</ele>
        <time>2023-01-25T13:58:45Z</time>
      </trkpt>
      <trkpt lat="49.96462" lon="2.38684">
        <ele>79</ele>
        <time>2023-01-25T13:58:46Z</time>
      </trkpt>
      <trkpt lat="49.96463" lon="2.38683">
        <ele>79</ele>
        <time>2023-01-25T13:58:47Z</time>
      </trkpt>
      <trkpt lat="49.96463" lon="2.38681">
        <ele>79</ele>
        <time>2023-01-25T13:58:48Z</time>
      </trkpt>
      <trkpt lat="49.96463" lon="2.3868">
        <ele>79</ele>
        <time>2023-01-25T13:58:49Z</time>
      </trkpt>
      <trkpt lat="49.96463" lon="2.38678">
        <ele>79</ele>
        <time>2023-01-25T13:58:50Z</time>
      </trkpt>
      <trkpt lat="49.96464" lon="2.38677">
        <ele>79</ele>
        <time>2023-01-25T13:58:51Z</time>
      </trkpt>
      <trkpt lat="49.96464" lon="2.38674">
        <ele>79</ele>
        <time>2023-01-25T13:58:53Z</time>
      </trkpt>
      <trkpt lat="49.96464" lon="2.38672">
        <ele>79</ele>
        <time>2023-01-25T13:58:54Z</time>
      </trkpt>
      <trkpt lat="49.96464" lon="2.3867">
        <ele>79</ele>
        <time>2023-01-25T13:58:55Z</time>
      </trkpt>
      <trkpt lat="49.96465" lon="2.38668">
        <ele>79</ele>
        <time>2023-01-25T13:58:57Z</time>
      </trkpt>
      <trkpt lat="49.96465" lon="2.38666">
        <ele>79</ele>
        <time>2023-01-25T13:58:58Z</time>
      </trkpt>
      <trkpt lat="49.96466" lon="2.38664">
        <ele>79</ele>
        <time>2023-01-25T13:58:59Z</time>
      </trkpt>
      <trkpt lat="49.96466" lon="2.38662">
        <ele>79</ele>
        <time>2023-01-25T13:59:00Z</time>
      </trkpt>
      <trkpt lat="49.96467" lon="2.3866">
        <ele>79</ele>
        <time>2023-01-25T13:59:01Z</time>
      </trkpt>
      <trkpt lat="49.96467" lon="2.38658">
        <ele>79</ele>
        <time>2023-01-25T13:59:02Z</time>
      </trkpt>
      <trkpt lat="49.96468" lon="2.38656">
        <ele>79</ele>
        <time>2023-01-25T13:59:03Z</time>
      </trkpt>
      <trkpt lat="49.96468" lon="2.38653">
        <ele>79</ele>
        <time>2023-01-25T13:59:05Z</time>
      </trkpt>
      <trkpt lat="49.96469" lon="2.38652">
        <ele>79</ele>
        <time>2023-01-25T13:59:06Z</time>
      </trkpt>
      <trkpt lat="49.96469" lon="2.38649">
        <ele>79</ele>
        <time>2023-01-25T13:59:07Z</time>
      </trkpt>
      <trkpt lat="49.96469" lon="2.38647">
        <ele>79</ele>
        <time>2023-01-25T13:59:08Z</time>
      </trkpt>
      <trkpt lat="49.9647" lon="2.38646">
        <ele>79</ele>
        <time>2023-01-25T13:59:09Z</time>
      </trkpt>
      <trkpt lat="49.9647" lon="2.38644">
        <ele>79.1</ele>
        <time>2023-01-25T13:59:10Z</time>
      </trkpt>
      <trkpt lat="49.9647" lon="2.38642">
        <ele>79.1</ele>
        <time>2023-01-25T13:59:11Z</time>
      </trkpt>
      <trkpt lat="49.96471" lon="2.3864">
        <ele>79.1</ele>
        <time>2023-01-25T13:59:13Z</time>
      </trkpt>
      <trkpt lat="49.96472" lon="2.38637">
        <ele>79.1</ele>
        <time>2023-01-25T13:59:14Z</time>
      </trkpt>
      <trkpt lat="49.96473" lon="2.38635">
        <ele>79.1</ele>
        <time>2023-01-25T13:59:15Z</time>
      </trkpt>
      <trkpt lat="49.96473" lon="2.38634">
        <ele>79.1</ele>
        <time>2023-01-25T13:59:16Z</time>
      </trkpt>
      <trkpt lat="49.96474" lon="2.38631">
        <ele>79.1</ele>
        <time>2023-01-25T13:59:17Z</time>
      </trkpt>
      <trkpt lat="49.96474" lon="2.3863">
        <ele>79.1</ele>
        <time>2023-01-25T13:59:18Z</time>
      </trkpt>
      <trkpt lat="49.96474" lon="2.38628">
        <ele>79.1</ele>
        <time>2023-01-25T13:59:19Z</time>
      </trkpt>
      <trkpt lat="49.96475" lon="2.38626">
        <ele>79.1</ele>
        <time>2023-01-25T13:59:21Z</time>
      </trkpt>
      <trkpt lat="49.96475" lon="2.38624">
        <ele>79.1</ele>
        <time>2023-01-25T13:59:22Z</time>
      </trkpt>
      <trkpt lat="49.96476" lon="2.38623">
        <ele>79.1</ele>
        <time>2023-01-25T13:59:23Z</time>
      </trkpt>
      <trkpt lat="49.96477" lon="2.38621">
        <ele>79.1</ele>
        <time>2023-01-25T13:59:24Z</time>
      </trkpt>
      <trkpt lat="49.96477" lon="2.38619">
        <ele>79.1</ele>
        <time>2023-01-25T13:59:25Z</time>
      </trkpt>
      <trkpt lat="49.96478" lon="2.38618">
        <ele>79.1</ele>
        <time>2023-01-25T13:59:26Z</time>
      </trkpt>
      <trkpt lat="49.96479" lon="2.38616">
        <ele>79.1</ele>
        <time>2023-01-25T13:59:28Z</time>
      </trkpt>
      <trkpt lat="49.9648" lon="2.38614">
        <ele>79.1</ele>
        <time>2023-01-25T13:59:29Z</time>
      </trkpt>
      <trkpt lat="49.96481" lon="2.38612">
        <ele>79.1</ele>
        <time>2023-01-25T13:59:30Z</time>
      </trkpt>
      <trkpt lat="49.96482" lon="2.3861">
        <ele>79.1</ele>
        <time>2023-01-25T13:59:31Z</time>
      </trkpt>
      <trkpt lat="49.96483" lon="2.3861">
        <ele>79.1</ele>
        <time>2023-01-25T13:59:32Z</time>
      </trkpt>
      <trkpt lat="49.96484" lon="2.38609">
        <ele>79.1</ele>
        <time>2023-01-25T13:59:33Z</time>
      </trkpt>
      <trkpt lat="49.96485" lon="2.38607">
        <ele>79.1</ele>
        <time>2023-01-25T13:59:34Z</time>
      </trkpt>
      <trkpt lat="49.96486" lon="2.38606">
        <ele>79.1</ele>
        <time>2023-01-25T13:59:35Z</time>
      </trkpt>
      <trkpt lat="49.96487" lon="2.38606">
        <ele>79.1</ele>
        <time>2023-01-25T13:59:36Z</time>
      </trkpt>
      <trkpt lat="49.96489" lon="2.38604">
        <ele>79.1</ele>
        <time>2023-01-25T13:59:37Z</time>
      </trkpt>
      <trkpt lat="49.96489" lon="2.38603">
        <ele>79.1</ele>
        <time>2023-01-25T13:59:38Z</time>
      </trkpt>
      <trkpt lat="49.9649" lon="2.38602">
        <ele>79.1</ele>
        <time>2023-01-25T13:59:39Z</time>
      </trkpt>
      <trkpt lat="49.96491" lon="2.38601">
        <ele>79.1</ele>
        <time>2023-01-25T13:59:41Z</time>
      </trkpt>
      <trkpt lat="49.96492" lon="2.386">
        <ele>79.1</ele>
        <time>2023-01-25T13:59:42Z</time>
      </trkpt>
      <trkpt lat="49.96493" lon="2.38598">
        <ele>79.1</ele>
        <time>2023-01-25T13:59:43Z</time>
      </trkpt>
      <trkpt lat="49.96494" lon="2.38597">
        <ele>79.1</ele>
        <time>2023-01-25T13:59:44Z</time>
      </trkpt>
      <trkpt lat="49.96495" lon="2.38596">
        <ele>79.1</ele>
        <time>2023-01-25T13:59:45Z</time>
      </trkpt>
      <trkpt lat="49.96495" lon="2.38595">
        <ele>79.1</ele>
        <time>2023-01-25T13:59:46Z</time>
      </trkpt>
      <trkpt lat="49.96496" lon="2.38593">
        <ele>79.1</ele>
        <time>2023-01-25T13:59:48Z</time>
      </trkpt>
      <trkpt lat="49.96497" lon="2.38592">
        <ele>79.1</ele>
        <time>2023-01-25T13:59:49Z</time>
      </trkpt>
      <trkpt lat="49.96498" lon="2.38591">
        <ele>79.1</ele>
        <time>2023-01-25T13:59:50Z</time>
      </trkpt>
      <trkpt lat="49.96499" lon="2.38589">
        <ele>79.1</ele>
        <time>2023-01-25T13:59:51Z</time>
      </trkpt>
      <trkpt lat="49.965" lon="2.38588">
        <ele>79.1</ele>
        <time>2023-01-25T13:59:52Z</time>
      </trkpt>
      <trkpt lat="49.96501" lon="2.38586">
        <ele>79.1</ele>
        <time>2023-01-25T13:59:53Z</time>
      </trkpt>
      <trkpt lat="49.96502" lon="2.38586">
        <ele>79.1</ele>
        <time>2023-01-25T13:59:54Z</time>
      </trkpt>
      <trkpt lat="49.96503" lon="2.38585">
        <ele>79.1</ele>
        <time>2023-01-25T13:59:55Z</time>
      </trkpt>
      <trkpt lat="49.96504" lon="2.38583">
        <ele>79.1</ele>
        <time>2023-01-25T13:59:56Z</time>
      </trkpt>
      <trkpt lat="49.96505" lon="2.38582">
        <ele>79.2</ele>
        <time>2023-01-25T13:59:57Z</time>
      </trkpt>
      <trkpt lat="49.96506" lon="2.38581">
        <ele>79.2</ele>
        <time>2023-01-25T13:59:59Z</time>
      </trkpt>
      <trkpt lat="49.96507" lon="2.3858">
        <ele>79.2</ele>
        <time>2023-01-25T14:00:00Z</time>
      </trkpt>
      <trkpt lat="49.96507" lon="2.38579">
        <ele>79.2</ele>
        <time>2023-01-25T14:00:01Z</time>
      </trkpt>
      <trkpt lat="49.96508" lon="2.38578">
        <ele>79.2</ele>
        <time>2023-01-25T14:00:02Z</time>
      </trkpt>
      <trkpt lat="49.9651" lon="2.38576">
        <ele>79.2</ele>
        <time>2023-01-25T14:00:03Z</time>
      </trkpt>
      <trkpt lat="49.96511" lon="2.38576">
        <ele>79.2</ele>
        <time>2023-01-25T14:00:04Z</time>
      </trkpt>
      <trkpt lat="49.96511" lon="2.38575">
        <ele>79.2</ele>
        <time>2023-01-25T14:00:05Z</time>
      </trkpt>
      <trkpt lat="49.96512" lon="2.38574">
        <ele>79.2</ele>
        <time>2023-01-25T14:00:06Z</time>
      </trkpt>
      <trkpt lat="49.96514" lon="2.38572">
        <ele>79.3</ele>
        <time>2023-01-25T14:00:07Z</time>
      </trkpt>
      <trkpt lat="49.96516" lon="2.38571">
        <ele>79.3</ele>
        <time>2023-01-25T14:00:08Z</time>
      </trkpt>
      <trkpt lat="49.96517" lon="2.3857">
        <ele>79.3</ele>
        <time>2023-01-25T14:00:10Z</time>
      </trkpt>
      <trkpt lat="49.96518" lon="2.3857">
        <ele>79.3</ele>
        <time>2023-01-25T14:00:11Z</time>
      </trkpt>
      <trkpt lat="49.96519" lon="2.38569">
        <ele>79.3</ele>
        <time>2023-01-25T14:00:12Z</time>
      </trkpt>
      <trkpt lat="49.9652" lon="2.38568">
        <ele>79.3</ele>
        <time>2023-01-25T14:00:13Z</time>
      </trkpt>
      <trkpt lat="49.96521" lon="2.38568">
        <ele>79.3</ele>
        <time>2023-01-25T14:00:14Z</time>
      </trkpt>
      <trkpt lat="49.96522" lon="2.38567">
        <ele>79.3</ele>
        <time>2023-01-25T14:00:15Z</time>
      </trkpt>
      <trkpt lat="49.96523" lon="2.38567">
        <ele>79.3</ele>
        <time>2023-01-25T14:00:16Z</time>
      </trkpt>
      <trkpt lat="49.96524" lon="2.38566">
        <ele>79.3</ele>
        <time>2023-01-25T14:00:17Z</time>
      </trkpt>
      <trkpt lat="49.96526" lon="2.38566">
        <ele>79.3</ele>
        <time>2023-01-25T14:00:18Z</time>
      </trkpt>
      <trkpt lat="49.96527" lon="2.38565">
        <ele>79.3</ele>
        <time>2023-01-25T14:00:19Z</time>
      </trkpt>
      <trkpt lat="49.96529" lon="2.38564">
        <ele>79.3</ele>
        <time>2023-01-25T14:00:21Z</time>
      </trkpt>
      <trkpt lat="49.9653" lon="2.38564">
        <ele>79.3</ele>
        <time>2023-01-25T14:00:22Z</time>
      </trkpt>
      <trkpt lat="49.96531" lon="2.38563">
        <ele>79.3</ele>
        <time>2023-01-25T14:00:23Z</time>
      </trkpt>
      <trkpt lat="49.96532" lon="2.38562">
        <ele>79.3</ele>
        <time>2023-01-25T14:00:24Z</time>
      </trkpt>
      <trkpt lat="49.96533" lon="2.38562">
        <ele>79.3</ele>
        <time>2023-01-25T14:00:26Z</time>
      </trkpt>
      <trkpt lat="49.96534" lon="2.38561">
        <ele>79.3</ele>
        <time>2023-01-25T14:00:27Z</time>
      </trkpt>
      <trkpt lat="49.96535" lon="2.3856">
        <ele>79.3</ele>
        <time>2023-01-25T14:00:28Z</time>
      </trkpt>
      <trkpt lat="49.96536" lon="2.3856">
        <ele>79.4</ele>
        <time>2023-01-25T14:00:29Z</time>
      </trkpt>
      <trkpt lat="49.96537" lon="2.38559">
        <ele>79.4</ele>
        <time>2023-01-25T14:00:30Z</time>
      </trkpt>
      <trkpt lat="49.96538" lon="2.38558">
        <ele>79.4</ele>
        <time>2023-01-25T14:00:31Z</time>
      </trkpt>
      <trkpt lat="49.96539" lon="2.38557">
        <ele>79.4</ele>
        <time>2023-01-25T14:00:32Z</time>
      </trkpt>
      <trkpt lat="49.9654" lon="2.38556">
        <ele>79.4</ele>
        <time>2023-01-25T14:00:33Z</time>
      </trkpt>
      <trkpt lat="49.96541" lon="2.38555">
        <ele>79.4</ele>
        <time>2023-01-25T14:00:34Z</time>
      </trkpt>
      <trkpt lat="49.96542" lon="2.38554">
        <ele>79.4</ele>
        <time>2023-01-25T14:00:35Z</time>
      </trkpt>
      <trkpt lat="49.96544" lon="2.38553">
        <ele>79.4</ele>
        <time>2023-01-25T14:00:36Z</time>
      </trkpt>
      <trkpt lat="49.96544" lon="2.38553">
        <ele>79.4</ele>
        <time>2023-01-25T14:00:38Z</time>
      </trkpt>
      <trkpt lat="49.96545" lon="2.38552">
        <ele>79.4</ele>
        <time>2023-01-25T14:00:39Z</time>
      </trkpt>
      <trkpt lat="49.96546" lon="2.38551">
        <ele>79.4</ele>
        <time>2023-01-25T14:00:40Z</time>
      </trkpt>
      <trkpt lat="49.96547" lon="2.38551">
        <ele>79.4</ele>
        <time>2023-01-25T14:00:41Z</time>
      </trkpt>
      <trkpt lat="49.96548" lon="2.3855">
        <ele>79.5</ele>
        <time>2023-01-25T14:00:42Z</time>
      </trkpt>
      <trkpt lat="49.9655" lon="2.38549">
        <ele>79.5</ele>
        <time>2023-01-25T14:00:43Z</time>
      </trkpt>
      <trkpt lat="49.96552" lon="2.38548">
        <ele>79.5</ele>
        <time>2023-01-25T14:00:44Z</time>
      </trkpt>
      <trkpt lat="49.96552" lon="2.38548">
        <ele>79.5</ele>
        <time>2023-01-25T14:00:45Z</time>
      </trkpt>
      <trkpt lat="49.96553" lon="2.38547">
        <ele>79.5</ele>
        <time>2023-01-25T14:00:46Z</time>
      </trkpt>
      <trkpt lat="49.96555" lon="2.38546">
        <ele>79.5</ele>
        <time>2023-01-25T14:00:47Z</time>
      </trkpt>
      <trkpt lat="49.96556" lon="2.38546">
        <ele>79.5</ele>
        <time>2023-01-25T14:00:49Z</time>
      </trkpt>
      <trkpt lat="49.96557" lon="2.38545">
        <ele>79.5</ele>
        <time>2023-01-25T14:00:50Z</time>
      </trkpt>
      <trkpt lat="49.96559" lon="2.38545">
        <ele>79.5</ele>
        <time>2023-01-25T14:00:51Z</time>
      </trkpt>
      <trkpt lat="49.9656" lon="2.38544">
        <ele>79.5</ele>
        <time>2023-01-25T14:00:52Z</time>
      </trkpt>
      <trkpt lat="49.96561" lon="2.38543">
        <ele>79.6</ele>
        <time>2023-01-25T14:00:53Z</time>
      </trkpt>
      <trkpt lat="49.96562" lon="2.38543">
        <ele>79.6</ele>
        <time>2023-01-25T14:00:54Z</time>
      </trkpt>
      <trkpt lat="49.96563" lon="2.38542">
        <ele>79.6</ele>
        <time>2023-01-25T14:00:55Z</time>
      </trkpt>
      <trkpt lat="49.96565" lon="2.38541">
        <ele>79.6</ele>
        <time>2023-01-25T14:00:56Z</time>
      </trkpt>
      <trkpt lat="49.96566" lon="2.3854">
        <ele>79.6</ele>
        <time>2023-01-25T14:00:57Z</time>
      </trkpt>
      <trkpt lat="49.96567" lon="2.3854">
        <ele>79.6</ele>
        <time>2023-01-25T14:00:58Z</time>
      </trkpt>
      <trkpt lat="49.96568" lon="2.38538">
        <ele>79.6</ele>
        <time>2023-01-25T14:00:59Z</time>
      </trkpt>
      <trkpt lat="49.96569" lon="2.38537">
        <ele>79.6</ele>
        <time>2023-01-25T14:01:01Z</time>
      </trkpt>
      <trkpt lat="49.9657" lon="2.38537">
        <ele>79.6</ele>
        <time>2023-01-25T14:01:02Z</time>
      </trkpt>
      <trkpt lat="49.96572" lon="2.38535">
        <ele>79.6</ele>
        <time>2023-01-25T14:01:03Z</time>
      </trkpt>
      <trkpt lat="49.96572" lon="2.38534">
        <ele>79.6</ele>
        <time>2023-01-25T14:01:04Z</time>
      </trkpt>
      <trkpt lat="49.96573" lon="2.38533">
        <ele>79.6</ele>
        <time>2023-01-25T14:01:05Z</time>
      </trkpt>
      <trkpt lat="49.96575" lon="2.38532">
        <ele>79.7</ele>
        <time>2023-01-25T14:01:06Z</time>
      </trkpt>
      <trkpt lat="49.96576" lon="2.38531">
        <ele>79.7</ele>
        <time>2023-01-25T14:01:07Z</time>
      </trkpt>
      <trkpt lat="49.96577" lon="2.3853">
        <ele>79.7</ele>
        <time>2023-01-25T14:01:08Z</time>
      </trkpt>
      <trkpt lat="49.96578" lon="2.38529">
        <ele>79.7</ele>
        <time>2023-01-25T14:01:09Z</time>
      </trkpt>
      <trkpt lat="49.96578" lon="2.38528">
        <ele>79.7</ele>
        <time>2023-01-25T14:01:10Z</time>
      </trkpt>
      <trkpt lat="49.9658" lon="2.38527">
        <ele>79.7</ele>
        <time>2023-01-25T14:01:11Z</time>
      </trkpt>
      <trkpt lat="49.96581" lon="2.38525">
        <ele>79.7</ele>
        <time>2023-01-25T14:01:13Z</time>
      </trkpt>
      <trkpt lat="49.96582" lon="2.38525">
        <ele>79.7</ele>
        <time>2023-01-25T14:01:14Z</time>
      </trkpt>
      <trkpt lat="49.96583" lon="2.38524">
        <ele>79.8</ele>
        <time>2023-01-25T14:01:15Z</time>
      </trkpt>
      <trkpt lat="49.96584" lon="2.38523">
        <ele>79.8</ele>
        <time>2023-01-25T14:01:16Z</time>
      </trkpt>
      <trkpt lat="49.96584" lon="2.38522">
        <ele>79.8</ele>
        <time>2023-01-25T14:01:17Z</time>
      </trkpt>
      <trkpt lat="49.96585" lon="2.38521">
        <ele>79.8</ele>
        <time>2023-01-25T14:01:18Z</time>
      </trkpt>
      <trkpt lat="49.96586" lon="2.38519">
        <ele>79.8</ele>
        <time>2023-01-25T14:01:19Z</time>
      </trkpt>
      <trkpt lat="49.96587" lon="2.38518">
        <ele>79.8</ele>
        <time>2023-01-25T14:01:20Z</time>
      </trkpt>
      <trkpt lat="49.96588" lon="2.38517">
        <ele>79.8</ele>
        <time>2023-01-25T14:01:21Z</time>
      </trkpt>
      <trkpt lat="49.9659" lon="2.38516">
        <ele>79.9</ele>
        <time>2023-01-25T14:01:22Z</time>
      </trkpt>
      <trkpt lat="49.96591" lon="2.38515">
        <ele>79.9</ele>
        <time>2023-01-25T14:01:24Z</time>
      </trkpt>
      <trkpt lat="49.96591" lon="2.38514">
        <ele>79.9</ele>
        <time>2023-01-25T14:01:25Z</time>
      </trkpt>
      <trkpt lat="49.96592" lon="2.38513">
        <ele>79.9</ele>
        <time>2023-01-25T14:01:26Z</time>
      </trkpt>
      <trkpt lat="49.96593" lon="2.38512">
        <ele>79.9</ele>
        <time>2023-01-25T14:01:27Z</time>
      </trkpt>
      <trkpt lat="49.96594" lon="2.38511">
        <ele>79.9</ele>
        <time>2023-01-25T14:01:28Z</time>
      </trkpt>
      <trkpt lat="49.96595" lon="2.3851">
        <ele>79.9</ele>
        <time>2023-01-25T14:01:29Z</time>
      </trkpt>
      <trkpt lat="49.96596" lon="2.38508">
        <ele>79.9</ele>
        <time>2023-01-25T14:01:30Z</time>
      </trkpt>
      <trkpt lat="49.96596" lon="2.38507">
        <ele>79.9</ele>
        <time>2023-01-25T14:01:31Z</time>
      </trkpt>
      <trkpt lat="49.96597" lon="2.38506">
        <ele>80</ele>
        <time>2023-01-25T14:01:32Z</time>
      </trkpt>
      <trkpt lat="49.96598" lon="2.38505">
        <ele>80</ele>
        <time>2023-01-25T14:01:34Z</time>
      </trkpt>
      <trkpt lat="49.96599" lon="2.38504">
        <ele>80</ele>
        <time>2023-01-25T14:01:35Z</time>
      </trkpt>
      <trkpt lat="49.966" lon="2.38502">
        <ele>80</ele>
        <time>2023-01-25T14:01:36Z</time>
      </trkpt>
      <trkpt lat="49.96601" lon="2.38501">
        <ele>80</ele>
        <time>2023-01-25T14:01:37Z</time>
      </trkpt>
      <trkpt lat="49.96601" lon="2.385">
        <ele>80</ele>
        <time>2023-01-25T14:01:38Z</time>
      </trkpt>
      <trkpt lat="49.96602" lon="2.38498">
        <ele>80</ele>
        <time>2023-01-25T14:01:39Z</time>
      </trkpt>
      <trkpt lat="49.96603" lon="2.38496">
        <ele>80</ele>
        <time>2023-01-25T14:01:40Z</time>
      </trkpt>
      <trkpt lat="49.96604" lon="2.38495">
        <ele>80</ele>
        <time>2023-01-25T14:01:41Z</time>
      </trkpt>
      <trkpt lat="49.96605" lon="2.38494">
        <ele>80</ele>
        <time>2023-01-25T14:01:42Z</time>
      </trkpt>
      <trkpt lat="49.96606" lon="2.38492">
        <ele>80</ele>
        <time>2023-01-25T14:01:44Z</time>
      </trkpt>
      <trkpt lat="49.96606" lon="2.38491">
        <ele>80</ele>
        <time>2023-01-25T14:01:45Z</time>
      </trkpt>
      <trkpt lat="49.96607" lon="2.38489">
        <ele>80</ele>
        <time>2023-01-25T14:01:46Z</time>
      </trkpt>
      <trkpt lat="49.96608" lon="2.38488">
        <ele>80</ele>
        <time>2023-01-25T14:01:47Z</time>
      </trkpt>
      <trkpt lat="49.96609" lon="2.38487">
        <ele>80</ele>
        <time>2023-01-25T14:01:48Z</time>
      </trkpt>
      <trkpt lat="49.9661" lon="2.38485">
        <ele>80.1</ele>
        <time>2023-01-25T14:01:49Z</time>
      </trkpt>
      <trkpt lat="49.96611" lon="2.38484">
        <ele>80.1</ele>
        <time>2023-01-25T14:01:50Z</time>
      </trkpt>
      <trkpt lat="49.96612" lon="2.38482">
        <ele>80.1</ele>
        <time>2023-01-25T14:01:51Z</time>
      </trkpt>
      <trkpt lat="49.96613" lon="2.38481">
        <ele>80.1</ele>
        <time>2023-01-25T14:01:52Z</time>
      </trkpt>
      <trkpt lat="49.96614" lon="2.38479">
        <ele>80.1</ele>
        <time>2023-01-25T14:01:53Z</time>
      </trkpt>
      <trkpt lat="49.96615" lon="2.38478">
        <ele>80.1</ele>
        <time>2023-01-25T14:01:54Z</time>
      </trkpt>
      <trkpt lat="49.96616" lon="2.38476">
        <ele>80.1</ele>
        <time>2023-01-25T14:01:56Z</time>
      </trkpt>
      <trkpt lat="49.96616" lon="2.38475">
        <ele>80.1</ele>
        <time>2023-01-25T14:01:57Z</time>
      </trkpt>
      <trkpt lat="49.96617" lon="2.38474">
        <ele>80.1</ele>
        <time>2023-01-25T14:01:58Z</time>
      </trkpt>
      <trkpt lat="49.96618" lon="2.38472">
        <ele>80.1</ele>
        <time>2023-01-25T14:01:59Z</time>
      </trkpt>
      <trkpt lat="49.96619" lon="2.38471">
        <ele>80.1</ele>
        <time>2023-01-25T14:02:00Z</time>
      </trkpt>
      <trkpt lat="49.9662" lon="2.38469">
        <ele>80.1</ele>
        <time>2023-01-25T14:02:01Z</time>
      </trkpt>
      <trkpt lat="49.96621" lon="2.38468">
        <ele>80.1</ele>
        <time>2023-01-25T14:02:02Z</time>
      </trkpt>
      <trkpt lat="49.96621" lon="2.38467">
        <ele>80.1</ele>
        <time>2023-01-25T14:02:03Z</time>
      </trkpt>
      <trkpt lat="49.96622" lon="2.38466">
        <ele>80.2</ele>
        <time>2023-01-25T14:02:04Z</time>
      </trkpt>
      <trkpt lat="49.96624" lon="2.38464">
        <ele>80.2</ele>
        <time>2023-01-25T14:02:05Z</time>
      </trkpt>
      <trkpt lat="49.96624" lon="2.38463">
        <ele>80.2</ele>
        <time>2023-01-25T14:02:07Z</time>
      </trkpt>
      <trkpt lat="49.96625" lon="2.38462">
        <ele>80.2</ele>
        <time>2023-01-25T14:02:08Z</time>
      </trkpt>
      <trkpt lat="49.96626" lon="2.38461">
        <ele>80.2</ele>
        <time>2023-01-25T14:02:09Z</time>
      </trkpt>
      <trkpt lat="49.96627" lon="2.38459">
        <ele>80.2</ele>
        <time>2023-01-25T14:02:10Z</time>
      </trkpt>
      <trkpt lat="49.96628" lon="2.38457">
        <ele>80.2</ele>
        <time>2023-01-25T14:02:11Z</time>
      </trkpt>
      <trkpt lat="49.96629" lon="2.38457">
        <ele>80.2</ele>
        <time>2023-01-25T14:02:12Z</time>
      </trkpt>
      <trkpt lat="49.96629" lon="2.38456">
        <ele>80.2</ele>
        <time>2023-01-25T14:02:13Z</time>
      </trkpt>
      <trkpt lat="49.9663" lon="2.38454">
        <ele>80.2</ele>
        <time>2023-01-25T14:02:14Z</time>
      </trkpt>
      <trkpt lat="49.96631" lon="2.38452">
        <ele>80.2</ele>
        <time>2023-01-25T14:02:16Z</time>
      </trkpt>
      <trkpt lat="49.96631" lon="2.38452">
        <ele>80.2</ele>
        <time>2023-01-25T14:02:17Z</time>
      </trkpt>
      <trkpt lat="49.96632" lon="2.38451">
        <ele>80.2</ele>
        <time>2023-01-25T14:02:18Z</time>
      </trkpt>
      <trkpt lat="49.96633" lon="2.38449">
        <ele>80.2</ele>
        <time>2023-01-25T14:02:19Z</time>
      </trkpt>
      <trkpt lat="49.96634" lon="2.38448">
        <ele>80.2</ele>
        <time>2023-01-25T14:02:20Z</time>
      </trkpt>
      <trkpt lat="49.96635" lon="2.38447">
        <ele>80.2</ele>
        <time>2023-01-25T14:02:21Z</time>
      </trkpt>
      <trkpt lat="49.96636" lon="2.38445">
        <ele>80.2</ele>
        <time>2023-01-25T14:02:22Z</time>
      </trkpt>
      <trkpt lat="49.96637" lon="2.38445">
        <ele>80.2</ele>
        <time>2023-01-25T14:02:23Z</time>
      </trkpt>
      <trkpt lat="49.96638" lon="2.38444">
        <ele>80.2</ele>
        <time>2023-01-25T14:02:25Z</time>
      </trkpt>
      <trkpt lat="49.96639" lon="2.38443">
        <ele>80.2</ele>
        <time>2023-01-25T14:02:26Z</time>
      </trkpt>
      <trkpt lat="49.9664" lon="2.38442">
        <ele>80.2</ele>
        <time>2023-01-25T14:02:27Z</time>
      </trkpt>
      <trkpt lat="49.96641" lon="2.38441">
        <ele>80.2</ele>
        <time>2023-01-25T14:02:28Z</time>
      </trkpt>
      <trkpt lat="49.96642" lon="2.38439">
        <ele>80.3</ele>
        <time>2023-01-25T14:02:29Z</time>
      </trkpt>
      <trkpt lat="49.96643" lon="2.38438">
        <ele>80.3</ele>
        <time>2023-01-25T14:02:30Z</time>
      </trkpt>
      <trkpt lat="49.96644" lon="2.38437">
        <ele>80.3</ele>
        <time>2023-01-25T14:02:31Z</time>
      </trkpt>
      <trkpt lat="49.96644" lon="2.38436">
        <ele>80.3</ele>
        <time>2023-01-25T14:02:33Z</time>
      </trkpt>
      <trkpt lat="49.96645" lon="2.38435">
        <ele>80.3</ele>
        <time>2023-01-25T14:02:34Z</time>
      </trkpt>
      <trkpt lat="49.96646" lon="2.38433">
        <ele>80.3</ele>
        <time>2023-01-25T14:02:35Z</time>
      </trkpt>
      <trkpt lat="49.96648" lon="2.38431">
        <ele>80.3</ele>
        <time>2023-01-25T14:02:36Z</time>
      </trkpt>
      <trkpt lat="49.96648" lon="2.3843">
        <ele>80.3</ele>
        <time>2023-01-25T14:02:37Z</time>
      </trkpt>
      <trkpt lat="49.96649" lon="2.38429">
        <ele>80.3</ele>
        <time>2023-01-25T14:02:38Z</time>
      </trkpt>
      <trkpt lat="49.9665" lon="2.38428">
        <ele>80.3</ele>
        <time>2023-01-25T14:02:40Z</time>
      </trkpt>
      <trkpt lat="49.96651" lon="2.38426">
        <ele>80.3</ele>
        <time>2023-01-25T14:02:41Z</time>
      </trkpt>
      <trkpt lat="49.96652" lon="2.38424">
        <ele>80.3</ele>
        <time>2023-01-25T14:02:42Z</time>
      </trkpt>
      <trkpt lat="49.96653" lon="2.38423">
        <ele>80.3</ele>
        <time>2023-01-25T14:02:43Z</time>
      </trkpt>
      <trkpt lat="49.96653" lon="2.38422">
        <ele>80.3</ele>
        <time>2023-01-25T14:02:44Z</time>
      </trkpt>
      <trkpt lat="49.96654" lon="2.3842">
        <ele>80.3</ele>
        <time>2023-01-25T14:02:45Z</time>
      </trkpt>
      <trkpt lat="49.96655" lon="2.38419">
        <ele>80.4</ele>
        <time>2023-01-25T14:02:46Z</time>
      </trkpt>
      <trkpt lat="49.96656" lon="2.38417">
        <ele>80.4</ele>
        <time>2023-01-25T14:02:48Z</time>
      </trkpt>
      <trkpt lat="49.96657" lon="2.38414">
        <ele>80.4</ele>
        <time>2023-01-25T14:02:49Z</time>
      </trkpt>
      <trkpt lat="49.96658" lon="2.38413">
        <ele>80.4</ele>
        <time>2023-01-25T14:02:50Z</time>
      </trkpt>
      <trkpt lat="49.96659" lon="2.38412">
        <ele>80.4</ele>
        <time>2023-01-25T14:02:51Z</time>
      </trkpt>
      <trkpt lat="49.96659" lon="2.38411">
        <ele>80.4</ele>
        <time>2023-01-25T14:02:52Z</time>
      </trkpt>
      <trkpt lat="49.9666" lon="2.3841">
        <ele>80.4</ele>
        <time>2023-01-25T14:02:53Z</time>
      </trkpt>
      <trkpt lat="49.96661" lon="2.38408">
        <ele>80.5</ele>
        <time>2023-01-25T14:02:54Z</time>
      </trkpt>
      <trkpt lat="49.96663" lon="2.38406">
        <ele>80.5</ele>
        <time>2023-01-25T14:02:55Z</time>
      </trkpt>
      <trkpt lat="49.96664" lon="2.38405">
        <ele>80.5</ele>
        <time>2023-01-25T14:02:57Z</time>
      </trkpt>
      <trkpt lat="49.96665" lon="2.38404">
        <ele>80.5</ele>
        <time>2023-01-25T14:02:58Z</time>
      </trkpt>
      <trkpt lat="49.96666" lon="2.38403">
        <ele>80.5</ele>
        <time>2023-01-25T14:02:59Z</time>
      </trkpt>
      <trkpt lat="49.96667" lon="2.38402">
        <ele>80.5</ele>
        <time>2023-01-25T14:03:00Z</time>
      </trkpt>
      <trkpt lat="49.96668" lon="2.38401">
        <ele>80.6</ele>
        <time>2023-01-25T14:03:01Z</time>
      </trkpt>
      <trkpt lat="49.96669" lon="2.384">
        <ele>80.6</ele>
        <time>2023-01-25T14:03:02Z</time>
      </trkpt>
      <trkpt lat="49.96671" lon="2.38398">
        <ele>80.6</ele>
        <time>2023-01-25T14:03:03Z</time>
      </trkpt>
      <trkpt lat="49.96671" lon="2.38397">
        <ele>80.6</ele>
        <time>2023-01-25T14:03:04Z</time>
      </trkpt>
      <trkpt lat="49.96672" lon="2.38396">
        <ele>80.6</ele>
        <time>2023-01-25T14:03:05Z</time>
      </trkpt>
      <trkpt lat="49.96673" lon="2.38394">
        <ele>80.6</ele>
        <time>2023-01-25T14:03:07Z</time>
      </trkpt>
      <trkpt lat="49.96674" lon="2.38393">
        <ele>80.6</ele>
        <time>2023-01-25T14:03:08Z</time>
      </trkpt>
      <trkpt lat="49.96676" lon="2.38391">
        <ele>80.6</ele>
        <time>2023-01-25T14:03:09Z</time>
      </trkpt>
      <trkpt lat="49.96676" lon="2.3839">
        <ele>80.6</ele>
        <time>2023-01-25T14:03:10Z</time>
      </trkpt>
      <trkpt lat="49.96677" lon="2.38389">
        <ele>80.6</ele>
        <time>2023-01-25T14:03:11Z</time>
      </trkpt>
      <trkpt lat="49.96678" lon="2.38388">
        <ele>80.7</ele>
        <time>2023-01-25T14:03:12Z</time>
      </trkpt>
      <trkpt lat="49.96679" lon="2.38387">
        <ele>80.7</ele>
        <time>2023-01-25T14:03:13Z</time>
      </trkpt>
      <trkpt lat="49.9668" lon="2.38386">
        <ele>80.7</ele>
        <time>2023-01-25T14:03:14Z</time>
      </trkpt>
      <trkpt lat="49.96681" lon="2.38385">
        <ele>80.7</ele>
        <time>2023-01-25T14:03:16Z</time>
      </trkpt>
      <trkpt lat="49.96683" lon="2.38383">
        <ele>80.7</ele>
        <time>2023-01-25T14:03:17Z</time>
      </trkpt>
      <trkpt lat="49.96683" lon="2.38382">
        <ele>80.7</ele>
        <time>2023-01-25T14:03:18Z</time>
      </trkpt>
      <trkpt lat="49.96684" lon="2.38381">
        <ele>80.7</ele>
        <time>2023-01-25T14:03:19Z</time>
      </trkpt>
      <trkpt lat="49.96686" lon="2.3838">
        <ele>80.7</ele>
        <time>2023-01-25T14:03:20Z</time>
      </trkpt>
      <trkpt lat="49.96687" lon="2.38378">
        <ele>80.7</ele>
        <time>2023-01-25T14:03:21Z</time>
      </trkpt>
      <trkpt lat="49.96688" lon="2.38377">
        <ele>80.7</ele>
        <time>2023-01-25T14:03:22Z</time>
      </trkpt>
      <trkpt lat="49.96689" lon="2.38376">
        <ele>80.7</ele>
        <time>2023-01-25T14:03:24Z</time>
      </trkpt>
      <trkpt lat="49.9669" lon="2.38374">
        <ele>80.7</ele>
        <time>2023-01-25T14:03:25Z</time>
      </trkpt>
      <trkpt lat="49.9669" lon="2.38373">
        <ele>80.7</ele>
        <time>2023-01-25T14:03:26Z</time>
      </trkpt>
      <trkpt lat="49.96691" lon="2.3837">
        <ele>80.8</ele>
        <time>2023-01-25T14:03:27Z</time>
      </trkpt>
      <trkpt lat="49.96693" lon="2.38368">
        <ele>80.8</ele>
        <time>2023-01-25T14:03:28Z</time>
      </trkpt>
      <trkpt lat="49.96694" lon="2.38367">
        <ele>80.8</ele>
        <time>2023-01-25T14:03:29Z</time>
      </trkpt>
      <trkpt lat="49.96694" lon="2.38366">
        <ele>80.8</ele>
        <time>2023-01-25T14:03:30Z</time>
      </trkpt>
      <trkpt lat="49.96696" lon="2.38364">
        <ele>80.8</ele>
        <time>2023-01-25T14:03:32Z</time>
      </trkpt>
      <trkpt lat="49.96697" lon="2.38363">
        <ele>80.8</ele>
        <time>2023-01-25T14:03:33Z</time>
      </trkpt>
      <trkpt lat="49.96698" lon="2.3836">
        <ele>80.9</ele>
        <time>2023-01-25T14:03:34Z</time>
      </trkpt>
      <trkpt lat="49.96699" lon="2.38359">
        <ele>80.9</ele>
        <time>2023-01-25T14:03:35Z</time>
      </trkpt>
      <trkpt lat="49.967" lon="2.38358">
        <ele>80.9</ele>
        <time>2023-01-25T14:03:36Z</time>
      </trkpt>
      <trkpt lat="49.967" lon="2.38357">
        <ele>80.9</ele>
        <time>2023-01-25T14:03:37Z</time>
      </trkpt>
      <trkpt lat="49.96701" lon="2.38355">
        <ele>80.9</ele>
        <time>2023-01-25T14:03:38Z</time>
      </trkpt>
      <trkpt lat="49.96702" lon="2.38354">
        <ele>80.9</ele>
        <time>2023-01-25T14:03:39Z</time>
      </trkpt>
      <trkpt lat="49.96703" lon="2.38353">
        <ele>80.9</ele>
        <time>2023-01-25T14:03:41Z</time>
      </trkpt>
      <trkpt lat="49.96705" lon="2.38351">
        <ele>80.9</ele>
        <time>2023-01-25T14:03:42Z</time>
      </trkpt>
      <trkpt lat="49.96705" lon="2.3835">
        <ele>81</ele>
        <time>2023-01-25T14:03:43Z</time>
      </trkpt>
      <trkpt lat="49.96706" lon="2.38349">
        <ele>81</ele>
        <time>2023-01-25T14:03:44Z</time>
      </trkpt>
      <trkpt lat="49.96707" lon="2.38348">
        <ele>81</ele>
        <time>2023-01-25T14:03:45Z</time>
      </trkpt>
      <trkpt lat="49.9671" lon="2.38347">
        <ele>81</ele>
        <time>2023-01-25T14:03:46Z</time>
      </trkpt>
      <trkpt lat="49.96711" lon="2.38346">
        <ele>81</ele>
        <time>2023-01-25T14:03:47Z</time>
      </trkpt>
      <trkpt lat="49.96711" lon="2.38346">
        <ele>81</ele>
        <time>2023-01-25T14:03:49Z</time>
      </trkpt>
      <trkpt lat="49.96712" lon="2.38345">
        <ele>81</ele>
        <time>2023-01-25T14:03:50Z</time>
      </trkpt>
      <trkpt lat="49.96713" lon="2.38345">
        <ele>81</ele>
        <time>2023-01-25T14:03:51Z</time>
      </trkpt>
      <trkpt lat="49.96714" lon="2.38344">
        <ele>81</ele>
        <time>2023-01-25T14:03:52Z</time>
      </trkpt>
      <trkpt lat="49.96715" lon="2.38344">
        <ele>81</ele>
        <time>2023-01-25T14:03:53Z</time>
      </trkpt>
      <trkpt lat="49.96716" lon="2.38343">
        <ele>81</ele>
        <time>2023-01-25T14:03:54Z</time>
      </trkpt>
      <trkpt lat="49.96717" lon="2.38342">
        <ele>81.1</ele>
        <time>2023-01-25T14:03:55Z</time>
      </trkpt>
      <trkpt lat="49.96718" lon="2.38341">
        <ele>81.1</ele>
        <time>2023-01-25T14:03:56Z</time>
      </trkpt>
      <trkpt lat="49.96719" lon="2.3834">
        <ele>81.1</ele>
        <time>2023-01-25T14:03:57Z</time>
      </trkpt>
      <trkpt lat="49.96719" lon="2.38339">
        <ele>81.1</ele>
        <time>2023-01-25T14:03:58Z</time>
      </trkpt>
      <trkpt lat="49.9672" lon="2.38336">
        <ele>81.1</ele>
        <time>2023-01-25T14:04:00Z</time>
      </trkpt>
      <trkpt lat="49.96721" lon="2.38335">
        <ele>81.1</ele>
        <time>2023-01-25T14:04:01Z</time>
      </trkpt>
      <trkpt lat="49.96721" lon="2.38333">
        <ele>81.1</ele>
        <time>2023-01-25T14:04:02Z</time>
      </trkpt>
      <trkpt lat="49.9672" lon="2.38331">
        <ele>81.1</ele>
        <time>2023-01-25T14:04:03Z</time>
      </trkpt>
      <trkpt lat="49.9672" lon="2.38329">
        <ele>81.1</ele>
        <time>2023-01-25T14:04:04Z</time>
      </trkpt>
      <trkpt lat="49.9672" lon="2.38328">
        <ele>81.1</ele>
        <time>2023-01-25T14:04:05Z</time>
      </trkpt>
      <trkpt lat="49.96719" lon="2.38326">
        <ele>81.1</ele>
        <time>2023-01-25T14:04:06Z</time>
      </trkpt>
      <trkpt lat="49.96718" lon="2.38324">
        <ele>81.1</ele>
        <time>2023-01-25T14:04:07Z</time>
      </trkpt>
      <trkpt lat="49.96716" lon="2.38322">
        <ele>81.1</ele>
        <time>2023-01-25T14:04:09Z</time>
      </trkpt>
      <trkpt lat="49.96715" lon="2.38321">
        <ele>81.1</ele>
        <time>2023-01-25T14:04:10Z</time>
      </trkpt>
      <trkpt lat="49.96715" lon="2.3832">
        <ele>81.1</ele>
        <time>2023-01-25T14:04:11Z</time>
      </trkpt>
      <trkpt lat="49.96713" lon="2.38319">
        <ele>81.1</ele>
        <time>2023-01-25T14:04:12Z</time>
      </trkpt>
      <trkpt lat="49.96712" lon="2.38319">
        <ele>81.1</ele>
        <time>2023-01-25T14:04:13Z</time>
      </trkpt>
      <trkpt lat="49.96711" lon="2.38318">
        <ele>81.2</ele>
        <time>2023-01-25T14:04:14Z</time>
      </trkpt>
      <trkpt lat="49.9671" lon="2.38317">
        <ele>81.2</ele>
        <time>2023-01-25T14:04:15Z</time>
      </trkpt>
      <trkpt lat="49.96708" lon="2.38316">
        <ele>81.2</ele>
        <time>2023-01-25T14:04:16Z</time>
      </trkpt>
      <trkpt lat="49.96707" lon="2.38315">
        <ele>81.2</ele>
        <time>2023-01-25T14:04:17Z</time>
      </trkpt>
      <trkpt lat="49.96704" lon="2.38315">
        <ele>81.2</ele>
        <time>2023-01-25T14:04:18Z</time>
      </trkpt>
      <trkpt lat="49.96704" lon="2.38314">
        <ele>81.2</ele>
        <time>2023-01-25T14:04:20Z</time>
      </trkpt>
      <trkpt lat="49.96703" lon="2.38314">
        <ele>81.2</ele>
        <time>2023-01-25T14:04:21Z</time>
      </trkpt>
      <trkpt lat="49.96701" lon="2.38313">
        <ele>81.2</ele>
        <time>2023-01-25T14:04:22Z</time>
      </trkpt>
      <trkpt lat="49.967" lon="2.38313">
        <ele>81.2</ele>
        <time>2023-01-25T14:04:23Z</time>
      </trkpt>
      <trkpt lat="49.96699" lon="2.38313">
        <ele>81.2</ele>
        <time>2023-01-25T14:04:24Z</time>
      </trkpt>
      <trkpt lat="49.96698" lon="2.38313">
        <ele>81.2</ele>
        <time>2023-01-25T14:04:25Z</time>
      </trkpt>
      <trkpt lat="49.96696" lon="2.38313">
        <ele>81.3</ele>
        <time>2023-01-25T14:04:26Z</time>
      </trkpt>
      <trkpt lat="49.96696" lon="2.38313">
        <ele>81.3</ele>
        <time>2023-01-25T14:04:27Z</time>
      </trkpt>
      <trkpt lat="49.96695" lon="2.38313">
        <ele>81.3</ele>
        <time>2023-01-25T14:04:28Z</time>
      </trkpt>
      <trkpt lat="49.96694" lon="2.38313">
        <ele>81.3</ele>
        <time>2023-01-25T14:04:30Z</time>
      </trkpt>
      <trkpt lat="49.96693" lon="2.38312">
        <ele>81.3</ele>
        <time>2023-01-25T14:04:31Z</time>
      </trkpt>
      <trkpt lat="49.96692" lon="2.38311">
        <ele>81.3</ele>
        <time>2023-01-25T14:04:32Z</time>
      </trkpt>
      <trkpt lat="49.96691" lon="2.38311">
        <ele>81.3</ele>
        <time>2023-01-25T14:04:33Z</time>
      </trkpt>
      <trkpt lat="49.96691" lon="2.3831">
        <ele>81.3</ele>
        <time>2023-01-25T14:04:34Z</time>
      </trkpt>
      <trkpt lat="49.9669" lon="2.38309">
        <ele>81.3</ele>
        <time>2023-01-25T14:04:35Z</time>
      </trkpt>
      <trkpt lat="49.9669" lon="2.38308">
        <ele>81.3</ele>
        <time>2023-01-25T14:04:36Z</time>
      </trkpt>
      <trkpt lat="49.96691" lon="2.38307">
        <ele>81.3</ele>
        <time>2023-01-25T14:04:37Z</time>
      </trkpt>
      <trkpt lat="49.96691" lon="2.38304">
        <ele>81.3</ele>
        <time>2023-01-25T14:04:39Z</time>
      </trkpt>
      <trkpt lat="49.96691" lon="2.38303">
        <ele>81.3</ele>
        <time>2023-01-25T14:04:40Z</time>
      </trkpt>
      <trkpt lat="49.96692" lon="2.38302">
        <ele>81.3</ele>
        <time>2023-01-25T14:04:41Z</time>
      </trkpt>
      <trkpt lat="49.96693" lon="2.38299">
        <ele>81.4</ele>
        <time>2023-01-25T14:04:42Z</time>
      </trkpt>
      <trkpt lat="49.96693" lon="2.38297">
        <ele>81.4</ele>
        <time>2023-01-25T14:04:43Z</time>
      </trkpt>
      <trkpt lat="49.96694" lon="2.38294">
        <ele>81.4</ele>
        <time>2023-01-25T14:04:45Z</time>
      </trkpt>
      <trkpt lat="49.96694" lon="2.38293">
        <ele>81.4</ele>
        <time>2023-01-25T14:04:46Z</time>
      </trkpt>
      <trkpt lat="49.96695" lon="2.38291">
        <ele>81.4</ele>
        <time>2023-01-25T14:04:47Z</time>
      </trkpt>
      <trkpt lat="49.96695" lon="2.38289">
        <ele>81.4</ele>
        <time>2023-01-25T14:04:48Z</time>
      </trkpt>
      <trkpt lat="49.96695" lon="2.38286">
        <ele>81.4</ele>
        <time>2023-01-25T14:04:49Z</time>
      </trkpt>
      <trkpt lat="49.96696" lon="2.38284">
        <ele>81.4</ele>
        <time>2023-01-25T14:04:50Z</time>
      </trkpt>
      <trkpt lat="49.96696" lon="2.38282">
        <ele>81.4</ele>
        <time>2023-01-25T14:04:51Z</time>
      </trkpt>
      <trkpt lat="49.96696" lon="2.38279">
        <ele>81.4</ele>
        <time>2023-01-25T14:04:52Z</time>
      </trkpt>
      <trkpt lat="49.96696" lon="2.38277">
        <ele>81.4</ele>
        <time>2023-01-25T14:04:53Z</time>
      </trkpt>
      <trkpt lat="49.96697" lon="2.38273">
        <ele>81.5</ele>
        <time>2023-01-25T14:04:54Z</time>
      </trkpt>
      <trkpt lat="49.96697" lon="2.38271">
        <ele>81.5</ele>
        <time>2023-01-25T14:04:56Z</time>
      </trkpt>
      <trkpt lat="49.96697" lon="2.38269">
        <ele>81.5</ele>
        <time>2023-01-25T14:04:57Z</time>
      </trkpt>
      <trkpt lat="49.96698" lon="2.38267">
        <ele>81.5</ele>
        <time>2023-01-25T14:04:58Z</time>
      </trkpt>
      <trkpt lat="49.96698" lon="2.38264">
        <ele>81.5</ele>
        <time>2023-01-25T14:04:59Z</time>
      </trkpt>
      <trkpt lat="49.96698" lon="2.38262">
        <ele>81.5</ele>
        <time>2023-01-25T14:05:00Z</time>
      </trkpt>
      <trkpt lat="49.96698" lon="2.38256">
        <ele>81.5</ele>
        <time>2023-01-25T14:05:02Z</time>
      </trkpt>
      <trkpt lat="49.96698" lon="2.38254">
        <ele>81.5</ele>
        <time>2023-01-25T14:05:03Z</time>
      </trkpt>
      <trkpt lat="49.96698" lon="2.38253">
        <ele>81.5</ele>
        <time>2023-01-25T14:05:04Z</time>
      </trkpt>
      <trkpt lat="49.96698" lon="2.38251">
        <ele>81.5</ele>
        <time>2023-01-25T14:05:05Z</time>
      </trkpt>
      <trkpt lat="49.96699" lon="2.38249">
        <ele>81.5</ele>
        <time>2023-01-25T14:05:06Z</time>
      </trkpt>
      <trkpt lat="49.96699" lon="2.38246">
        <ele>81.5</ele>
        <time>2023-01-25T14:05:07Z</time>
      </trkpt>
      <trkpt lat="49.967" lon="2.38243">
        <ele>81.5</ele>
        <time>2023-01-25T14:05:08Z</time>
      </trkpt>
      <trkpt lat="49.967" lon="2.38242">
        <ele>81.5</ele>
        <time>2023-01-25T14:05:09Z</time>
      </trkpt>
      <trkpt lat="49.96701" lon="2.38241">
        <ele>81.5</ele>
        <time>2023-01-25T14:05:10Z</time>
      </trkpt>
      <trkpt lat="49.96701" lon="2.38238">
        <ele>81.5</ele>
        <time>2023-01-25T14:05:12Z</time>
      </trkpt>
      <trkpt lat="49.96702" lon="2.38237">
        <ele>81.5</ele>
        <time>2023-01-25T14:05:13Z</time>
      </trkpt>
      <trkpt lat="49.96702" lon="2.38235">
        <ele>81.5</ele>
        <time>2023-01-25T14:05:14Z</time>
      </trkpt>
      <trkpt lat="49.96703" lon="2.38233">
        <ele>81.5</ele>
        <time>2023-01-25T14:05:15Z</time>
      </trkpt>
      <trkpt lat="49.96703" lon="2.38232">
        <ele>81.5</ele>
        <time>2023-01-25T14:05:16Z</time>
      </trkpt>
      <trkpt lat="49.96704" lon="2.38229">
        <ele>81.5</ele>
        <time>2023-01-25T14:05:17Z</time>
      </trkpt>
      <trkpt lat="49.96704" lon="2.38228">
        <ele>81.5</ele>
        <time>2023-01-25T14:05:18Z</time>
      </trkpt>
      <trkpt lat="49.96705" lon="2.38226">
        <ele>81.5</ele>
        <time>2023-01-25T14:05:19Z</time>
      </trkpt>
      <trkpt lat="49.96705" lon="2.38225">
        <ele>81.5</ele>
        <time>2023-01-25T14:05:20Z</time>
      </trkpt>
      <trkpt lat="49.96706" lon="2.38222">
        <ele>81.6</ele>
        <time>2023-01-25T14:05:22Z</time>
      </trkpt>
      <trkpt lat="49.96706" lon="2.3822">
        <ele>81.6</ele>
        <time>2023-01-25T14:05:23Z</time>
      </trkpt>
      <trkpt lat="49.96707" lon="2.38219">
        <ele>81.6</ele>
        <time>2023-01-25T14:05:24Z</time>
      </trkpt>
      <trkpt lat="49.96707" lon="2.38217">
        <ele>81.6</ele>
        <time>2023-01-25T14:05:25Z</time>
      </trkpt>
      <trkpt lat="49.96708" lon="2.38215">
        <ele>81.6</ele>
        <time>2023-01-25T14:05:26Z</time>
      </trkpt>
      <trkpt lat="49.96708" lon="2.38213">
        <ele>81.6</ele>
        <time>2023-01-25T14:05:27Z</time>
      </trkpt>
      <trkpt lat="49.96709" lon="2.38212">
        <ele>81.6</ele>
        <time>2023-01-25T14:05:29Z</time>
      </trkpt>
      <trkpt lat="49.96709" lon="2.3821">
        <ele>81.6</ele>
        <time>2023-01-25T14:05:30Z</time>
      </trkpt>
      <trkpt lat="49.9671" lon="2.38208">
        <ele>81.7</ele>
        <time>2023-01-25T14:05:31Z</time>
      </trkpt>
      <trkpt lat="49.96711" lon="2.38206">
        <ele>81.7</ele>
        <time>2023-01-25T14:05:32Z</time>
      </trkpt>
      <trkpt lat="49.96711" lon="2.38205">
        <ele>81.7</ele>
        <time>2023-01-25T14:05:33Z</time>
      </trkpt>
      <trkpt lat="49.96712" lon="2.38203">
        <ele>81.7</ele>
        <time>2023-01-25T14:05:34Z</time>
      </trkpt>
      <trkpt lat="49.96712" lon="2.38202">
        <ele>81.7</ele>
        <time>2023-01-25T14:05:35Z</time>
      </trkpt>
      <trkpt lat="49.96713" lon="2.38201">
        <ele>81.7</ele>
        <time>2023-01-25T14:05:37Z</time>
      </trkpt>
      <trkpt lat="49.96714" lon="2.38198">
        <ele>81.8</ele>
        <time>2023-01-25T14:05:38Z</time>
      </trkpt>
      <trkpt lat="49.96714" lon="2.38197">
        <ele>81.8</ele>
        <time>2023-01-25T14:05:39Z</time>
      </trkpt>
      <trkpt lat="49.96715" lon="2.38195">
        <ele>81.8</ele>
        <time>2023-01-25T14:05:40Z</time>
      </trkpt>
      <trkpt lat="49.96716" lon="2.38193">
        <ele>81.8</ele>
        <time>2023-01-25T14:05:41Z</time>
      </trkpt>
      <trkpt lat="49.96716" lon="2.38192">
        <ele>81.8</ele>
        <time>2023-01-25T14:05:42Z</time>
      </trkpt>
      <trkpt lat="49.96717" lon="2.38191">
        <ele>81.8</ele>
        <time>2023-01-25T14:05:44Z</time>
      </trkpt>
      <trkpt lat="49.96717" lon="2.38189">
        <ele>81.8</ele>
        <time>2023-01-25T14:05:45Z</time>
      </trkpt>
      <trkpt lat="49.96718" lon="2.38188">
        <ele>81.8</ele>
        <time>2023-01-25T14:05:46Z</time>
      </trkpt>
      <trkpt lat="49.96718" lon="2.38186">
        <ele>81.9</ele>
        <time>2023-01-25T14:05:47Z</time>
      </trkpt>
      <trkpt lat="49.96719" lon="2.38185">
        <ele>81.9</ele>
        <time>2023-01-25T14:05:48Z</time>
      </trkpt>
      <trkpt lat="49.96719" lon="2.38184">
        <ele>81.9</ele>
        <time>2023-01-25T14:05:49Z</time>
      </trkpt>
      <trkpt lat="49.9672" lon="2.38182">
        <ele>81.9</ele>
        <time>2023-01-25T14:05:50Z</time>
      </trkpt>
      <trkpt lat="49.96721" lon="2.38181">
        <ele>81.9</ele>
        <time>2023-01-25T14:05:51Z</time>
      </trkpt>
      <trkpt lat="49.96721" lon="2.3818">
        <ele>81.9</ele>
        <time>2023-01-25T14:05:52Z</time>
      </trkpt>
      <trkpt lat="49.96723" lon="2.38177">
        <ele>81.9</ele>
        <time>2023-01-25T14:05:53Z</time>
      </trkpt>
      <trkpt lat="49.96723" lon="2.38176">
        <ele>81.9</ele>
        <time>2023-01-25T14:05:55Z</time>
      </trkpt>
      <trkpt lat="49.96724" lon="2.38175">
        <ele>81.9</ele>
        <time>2023-01-25T14:05:56Z</time>
      </trkpt>
      <trkpt lat="49.96724" lon="2.38174">
        <ele>81.9</ele>
        <time>2023-01-25T14:05:57Z</time>
      </trkpt>
      <trkpt lat="49.96725" lon="2.38172">
        <ele>81.9</ele>
        <time>2023-01-25T14:05:58Z</time>
      </trkpt>
      <trkpt lat="49.96725" lon="2.38171">
        <ele>82</ele>
        <time>2023-01-25T14:05:59Z</time>
      </trkpt>
      <trkpt lat="49.96726" lon="2.38169">
        <ele>82</ele>
        <time>2023-01-25T14:06:00Z</time>
      </trkpt>
      <trkpt lat="49.96726" lon="2.38168">
        <ele>82</ele>
        <time>2023-01-25T14:06:01Z</time>
      </trkpt>
      <trkpt lat="49.96727" lon="2.38166">
        <ele>82</ele>
        <time>2023-01-25T14:06:02Z</time>
      </trkpt>
      <trkpt lat="49.96727" lon="2.38164">
        <ele>82</ele>
        <time>2023-01-25T14:06:04Z</time>
      </trkpt>
      <trkpt lat="49.96728" lon="2.38163">
        <ele>82</ele>
        <time>2023-01-25T14:06:05Z</time>
      </trkpt>
      <trkpt lat="49.96729" lon="2.38161">
        <ele>82</ele>
        <time>2023-01-25T14:06:06Z</time>
      </trkpt>
      <trkpt lat="49.96729" lon="2.38159">
        <ele>82.1</ele>
        <time>2023-01-25T14:06:07Z</time>
      </trkpt>
      <trkpt lat="49.9673" lon="2.38158">
        <ele>82.1</ele>
        <time>2023-01-25T14:06:08Z</time>
      </trkpt>
      <trkpt lat="49.9673" lon="2.38156">
        <ele>82.1</ele>
        <time>2023-01-25T14:06:09Z</time>
      </trkpt>
      <trkpt lat="49.9673" lon="2.38155">
        <ele>82.1</ele>
        <time>2023-01-25T14:06:10Z</time>
      </trkpt>
      <trkpt lat="49.9673" lon="2.38153">
        <ele>82.1</ele>
        <time>2023-01-25T14:06:12Z</time>
      </trkpt>
      <trkpt lat="49.96731" lon="2.38151">
        <ele>82.1</ele>
        <time>2023-01-25T14:06:13Z</time>
      </trkpt>
      <trkpt lat="49.96731" lon="2.3815">
        <ele>82.1</ele>
        <time>2023-01-25T14:06:14Z</time>
      </trkpt>
      <trkpt lat="49.96732" lon="2.38149">
        <ele>82.1</ele>
        <time>2023-01-25T14:06:15Z</time>
      </trkpt>
      <trkpt lat="49.96732" lon="2.38148">
        <ele>82.1</ele>
        <time>2023-01-25T14:06:16Z</time>
      </trkpt>
      <trkpt lat="49.96733" lon="2.38146">
        <ele>82.2</ele>
        <time>2023-01-25T14:06:17Z</time>
      </trkpt>
      <trkpt lat="49.96733" lon="2.38145">
        <ele>82.2</ele>
        <time>2023-01-25T14:06:18Z</time>
      </trkpt>
      <trkpt lat="49.96733" lon="2.38144">
        <ele>82.2</ele>
        <time>2023-01-25T14:06:19Z</time>
      </trkpt>
      <trkpt lat="49.96734" lon="2.38143">
        <ele>82.2</ele>
        <time>2023-01-25T14:06:21Z</time>
      </trkpt>
      <trkpt lat="49.96734" lon="2.38141">
        <ele>82.2</ele>
        <time>2023-01-25T14:06:22Z</time>
      </trkpt>
      <trkpt lat="49.96735" lon="2.3814">
        <ele>82.2</ele>
        <time>2023-01-25T14:06:23Z</time>
      </trkpt>
      <trkpt lat="49.96735" lon="2.38139">
        <ele>82.2</ele>
        <time>2023-01-25T14:06:24Z</time>
      </trkpt>
      <trkpt lat="49.96735" lon="2.38138">
        <ele>82.2</ele>
        <time>2023-01-25T14:06:25Z</time>
      </trkpt>
      <trkpt lat="49.96735" lon="2.38136">
        <ele>82.2</ele>
        <time>2023-01-25T14:06:26Z</time>
      </trkpt>
      <trkpt lat="49.96736" lon="2.38135">
        <ele>82.2</ele>
        <time>2023-01-25T14:06:27Z</time>
      </trkpt>
      <trkpt lat="49.96736" lon="2.38133">
        <ele>82.3</ele>
        <time>2023-01-25T14:06:28Z</time>
      </trkpt>
      <trkpt lat="49.96737" lon="2.38132">
        <ele>82.3</ele>
        <time>2023-01-25T14:06:29Z</time>
      </trkpt>
      <trkpt lat="49.96737" lon="2.38129">
        <ele>82.3</ele>
        <time>2023-01-25T14:06:31Z</time>
      </trkpt>
      <trkpt lat="49.96738" lon="2.38128">
        <ele>82.3</ele>
        <time>2023-01-25T14:06:32Z</time>
      </trkpt>
      <trkpt lat="49.96739" lon="2.38126">
        <ele>82.3</ele>
        <time>2023-01-25T14:06:33Z</time>
      </trkpt>
      <trkpt lat="49.96739" lon="2.38125">
        <ele>82.3</ele>
        <time>2023-01-25T14:06:34Z</time>
      </trkpt>
      <trkpt lat="49.9674" lon="2.38122">
        <ele>82.4</ele>
        <time>2023-01-25T14:06:35Z</time>
      </trkpt>
      <trkpt lat="49.96741" lon="2.3812">
        <ele>82.4</ele>
        <time>2023-01-25T14:06:37Z</time>
      </trkpt>
      <trkpt lat="49.96741" lon="2.38119">
        <ele>82.4</ele>
        <time>2023-01-25T14:06:38Z</time>
      </trkpt>
      <trkpt lat="49.96742" lon="2.38117">
        <ele>82.4</ele>
        <time>2023-01-25T14:06:39Z</time>
      </trkpt>
      <trkpt lat="49.96742" lon="2.38116">
        <ele>82.4</ele>
        <time>2023-01-25T14:06:40Z</time>
      </trkpt>
      <trkpt lat="49.96743" lon="2.38114">
        <ele>82.5</ele>
        <time>2023-01-25T14:06:41Z</time>
      </trkpt>
      <trkpt lat="49.96743" lon="2.38113">
        <ele>82.5</ele>
        <time>2023-01-25T14:06:42Z</time>
      </trkpt>
      <trkpt lat="49.96743" lon="2.38111">
        <ele>82.5</ele>
        <time>2023-01-25T14:06:43Z</time>
      </trkpt>
      <trkpt lat="49.96744" lon="2.38109">
        <ele>82.5</ele>
        <time>2023-01-25T14:06:44Z</time>
      </trkpt>
      <trkpt lat="49.96745" lon="2.38106">
        <ele>82.5</ele>
        <time>2023-01-25T14:06:46Z</time>
      </trkpt>
      <trkpt lat="49.96745" lon="2.38105">
        <ele>82.5</ele>
        <time>2023-01-25T14:06:47Z</time>
      </trkpt>
      <trkpt lat="49.96745" lon="2.38104">
        <ele>82.6</ele>
        <time>2023-01-25T14:06:48Z</time>
      </trkpt>
      <trkpt lat="49.96746" lon="2.38102">
        <ele>82.6</ele>
        <time>2023-01-25T14:06:49Z</time>
      </trkpt>
      <trkpt lat="49.96746" lon="2.38101">
        <ele>82.6</ele>
        <time>2023-01-25T14:06:50Z</time>
      </trkpt>
      <trkpt lat="49.96746" lon="2.38099">
        <ele>82.6</ele>
        <time>2023-01-25T14:06:51Z</time>
      </trkpt>
      <trkpt lat="49.96747" lon="2.38096">
        <ele>82.6</ele>
        <time>2023-01-25T14:06:52Z</time>
      </trkpt>
      <trkpt lat="49.96747" lon="2.38095">
        <ele>82.7</ele>
        <time>2023-01-25T14:06:53Z</time>
      </trkpt>
      <trkpt lat="49.96747" lon="2.38094">
        <ele>82.7</ele>
        <time>2023-01-25T14:06:54Z</time>
      </trkpt>
      <trkpt lat="49.96748" lon="2.38091">
        <ele>82.7</ele>
        <time>2023-01-25T14:06:55Z</time>
      </trkpt>
      <trkpt lat="49.96748" lon="2.38089">
        <ele>82.7</ele>
        <time>2023-01-25T14:06:57Z</time>
      </trkpt>
      <trkpt lat="49.96748" lon="2.38088">
        <ele>82.7</ele>
        <time>2023-01-25T14:06:58Z</time>
      </trkpt>
      <trkpt lat="49.96749" lon="2.38086">
        <ele>82.8</ele>
        <time>2023-01-25T14:06:59Z</time>
      </trkpt>
      <trkpt lat="49.96749" lon="2.38085">
        <ele>82.8</ele>
        <time>2023-01-25T14:07:00Z</time>
      </trkpt>
      <trkpt lat="49.9675" lon="2.38083">
        <ele>82.8</ele>
        <time>2023-01-25T14:07:01Z</time>
      </trkpt>
      <trkpt lat="49.9675" lon="2.38081">
        <ele>82.8</ele>
        <time>2023-01-25T14:07:02Z</time>
      </trkpt>
      <trkpt lat="49.96751" lon="2.38079">
        <ele>82.9</ele>
        <time>2023-01-25T14:07:03Z</time>
      </trkpt>
      <trkpt lat="49.96751" lon="2.38077">
        <ele>82.9</ele>
        <time>2023-01-25T14:07:05Z</time>
      </trkpt>
      <trkpt lat="49.96751" lon="2.38076">
        <ele>82.9</ele>
        <time>2023-01-25T14:07:06Z</time>
      </trkpt>
      <trkpt lat="49.96751" lon="2.38074">
        <ele>82.9</ele>
        <time>2023-01-25T14:07:07Z</time>
      </trkpt>
      <trkpt lat="49.96752" lon="2.38072">
        <ele>83</ele>
        <time>2023-01-25T14:07:08Z</time>
      </trkpt>
      <trkpt lat="49.96752" lon="2.3807">
        <ele>83</ele>
        <time>2023-01-25T14:07:09Z</time>
      </trkpt>
      <trkpt lat="49.96752" lon="2.38069">
        <ele>83</ele>
        <time>2023-01-25T14:07:10Z</time>
      </trkpt>
      <trkpt lat="49.96753" lon="2.38067">
        <ele>83</ele>
        <time>2023-01-25T14:07:11Z</time>
      </trkpt>
      <trkpt lat="49.96753" lon="2.38064">
        <ele>83</ele>
        <time>2023-01-25T14:07:13Z</time>
      </trkpt>
      <trkpt lat="49.96754" lon="2.38063">
        <ele>83.1</ele>
        <time>2023-01-25T14:07:14Z</time>
      </trkpt>
      <trkpt lat="49.96754" lon="2.38062">
        <ele>83.1</ele>
        <time>2023-01-25T14:07:15Z</time>
      </trkpt>
      <trkpt lat="49.96754" lon="2.3806">
        <ele>83.1</ele>
        <time>2023-01-25T14:07:16Z</time>
      </trkpt>
      <trkpt lat="49.96755" lon="2.38057">
        <ele>83.1</ele>
        <time>2023-01-25T14:07:17Z</time>
      </trkpt>
      <trkpt lat="49.96755" lon="2.38056">
        <ele>83.2</ele>
        <time>2023-01-25T14:07:18Z</time>
      </trkpt>
      <trkpt lat="49.96756" lon="2.38054">
        <ele>83.2</ele>
        <time>2023-01-25T14:07:19Z</time>
      </trkpt>
      <trkpt lat="49.96756" lon="2.38052">
        <ele>83.2</ele>
        <time>2023-01-25T14:07:20Z</time>
      </trkpt>
      <trkpt lat="49.96756" lon="2.3805">
        <ele>83.2</ele>
        <time>2023-01-25T14:07:21Z</time>
      </trkpt>
      <trkpt lat="49.96756" lon="2.38046">
        <ele>83.3</ele>
        <time>2023-01-25T14:07:22Z</time>
      </trkpt>
      <trkpt lat="49.96756" lon="2.38044">
        <ele>83.3</ele>
        <time>2023-01-25T14:07:24Z</time>
      </trkpt>
      <trkpt lat="49.96756" lon="2.38041">
        <ele>83.4</ele>
        <time>2023-01-25T14:07:25Z</time>
      </trkpt>
      <trkpt lat="49.96756" lon="2.3804">
        <ele>83.4</ele>
        <time>2023-01-25T14:07:26Z</time>
      </trkpt>
      <trkpt lat="49.96756" lon="2.38038">
        <ele>83.4</ele>
        <time>2023-01-25T14:07:27Z</time>
      </trkpt>
      <trkpt lat="49.96757" lon="2.38035">
        <ele>83.4</ele>
        <time>2023-01-25T14:07:28Z</time>
      </trkpt>
      <trkpt lat="49.96757" lon="2.38033">
        <ele>83.5</ele>
        <time>2023-01-25T14:07:30Z</time>
      </trkpt>
      <trkpt lat="49.96757" lon="2.38031">
        <ele>83.5</ele>
        <time>2023-01-25T14:07:31Z</time>
      </trkpt>
      <trkpt lat="49.96757" lon="2.38029">
        <ele>83.5</ele>
        <time>2023-01-25T14:07:32Z</time>
      </trkpt>
      <trkpt lat="49.96758" lon="2.38026">
        <ele>83.5</ele>
        <time>2023-01-25T14:07:33Z</time>
      </trkpt>
      <trkpt lat="49.96758" lon="2.38025">
        <ele>83.5</ele>
        <time>2023-01-25T14:07:34Z</time>
      </trkpt>
      <trkpt lat="49.96759" lon="2.38022">
        <ele>83.6</ele>
        <time>2023-01-25T14:07:35Z</time>
      </trkpt>
      <trkpt lat="49.96759" lon="2.3802">
        <ele>83.6</ele>
        <time>2023-01-25T14:07:36Z</time>
      </trkpt>
      <trkpt lat="49.9676" lon="2.38019">
        <ele>83.6</ele>
        <time>2023-01-25T14:07:37Z</time>
      </trkpt>
      <trkpt lat="49.9676" lon="2.38017">
        <ele>83.6</ele>
        <time>2023-01-25T14:07:39Z</time>
      </trkpt>
      <trkpt lat="49.9676" lon="2.38015">
        <ele>83.7</ele>
        <time>2023-01-25T14:07:40Z</time>
      </trkpt>
      <trkpt lat="49.96761" lon="2.38014">
        <ele>83.7</ele>
        <time>2023-01-25T14:07:41Z</time>
      </trkpt>
      <trkpt lat="49.96761" lon="2.38012">
        <ele>83.7</ele>
        <time>2023-01-25T14:07:42Z</time>
      </trkpt>
      <trkpt lat="49.96762" lon="2.38009">
        <ele>83.7</ele>
        <time>2023-01-25T14:07:43Z</time>
      </trkpt>
      <trkpt lat="49.96762" lon="2.38008">
        <ele>83.7</ele>
        <time>2023-01-25T14:07:44Z</time>
      </trkpt>
      <trkpt lat="49.96762" lon="2.38006">
        <ele>83.8</ele>
        <time>2023-01-25T14:07:46Z</time>
      </trkpt>
      <trkpt lat="49.96763" lon="2.38004">
        <ele>83.8</ele>
        <time>2023-01-25T14:07:47Z</time>
      </trkpt>
      <trkpt lat="49.96763" lon="2.38002">
        <ele>83.8</ele>
        <time>2023-01-25T14:07:48Z</time>
      </trkpt>
      <trkpt lat="49.96763" lon="2.38">
        <ele>83.8</ele>
        <time>2023-01-25T14:07:49Z</time>
      </trkpt>
      <trkpt lat="49.96764" lon="2.37999">
        <ele>83.9</ele>
        <time>2023-01-25T14:07:50Z</time>
      </trkpt>
      <trkpt lat="49.96764" lon="2.37997">
        <ele>83.9</ele>
        <time>2023-01-25T14:07:51Z</time>
      </trkpt>
      <trkpt lat="49.96765" lon="2.37996">
        <ele>83.9</ele>
        <time>2023-01-25T14:07:52Z</time>
      </trkpt>
      <trkpt lat="49.96765" lon="2.37994">
        <ele>83.9</ele>
        <time>2023-01-25T14:07:53Z</time>
      </trkpt>
      <trkpt lat="49.96766" lon="2.37992">
        <ele>84</ele>
        <time>2023-01-25T14:07:54Z</time>
      </trkpt>
      <trkpt lat="49.96767" lon="2.37991">
        <ele>84</ele>
        <time>2023-01-25T14:07:56Z</time>
      </trkpt>
      <trkpt lat="49.96767" lon="2.37989">
        <ele>84.1</ele>
        <time>2023-01-25T14:07:57Z</time>
      </trkpt>
      <trkpt lat="49.96768" lon="2.37986">
        <ele>84.1</ele>
        <time>2023-01-25T14:07:58Z</time>
      </trkpt>
      <trkpt lat="49.96768" lon="2.37985">
        <ele>84.1</ele>
        <time>2023-01-25T14:07:59Z</time>
      </trkpt>
      <trkpt lat="49.96769" lon="2.37983">
        <ele>84.2</ele>
        <time>2023-01-25T14:08:00Z</time>
      </trkpt>
      <trkpt lat="49.96769" lon="2.37981">
        <ele>84.2</ele>
        <time>2023-01-25T14:08:02Z</time>
      </trkpt>
      <trkpt lat="49.9677" lon="2.37978">
        <ele>84.3</ele>
        <time>2023-01-25T14:08:03Z</time>
      </trkpt>
      <trkpt lat="49.9677" lon="2.37976">
        <ele>84.3</ele>
        <time>2023-01-25T14:08:04Z</time>
      </trkpt>
      <trkpt lat="49.9677" lon="2.37973">
        <ele>84.4</ele>
        <time>2023-01-25T14:08:05Z</time>
      </trkpt>
      <trkpt lat="49.9677" lon="2.37972">
        <ele>84.4</ele>
        <time>2023-01-25T14:08:06Z</time>
      </trkpt>
      <trkpt lat="49.96771" lon="2.3797">
        <ele>84.4</ele>
        <time>2023-01-25T14:08:07Z</time>
      </trkpt>
      <trkpt lat="49.96771" lon="2.37968">
        <ele>84.5</ele>
        <time>2023-01-25T14:08:08Z</time>
      </trkpt>
      <trkpt lat="49.96771" lon="2.37966">
        <ele>84.5</ele>
        <time>2023-01-25T14:08:09Z</time>
      </trkpt>
      <trkpt lat="49.96772" lon="2.37965">
        <ele>84.6</ele>
        <time>2023-01-25T14:08:10Z</time>
      </trkpt>
      <trkpt lat="49.96772" lon="2.37963">
        <ele>84.6</ele>
        <time>2023-01-25T14:08:11Z</time>
      </trkpt>
      <trkpt lat="49.96772" lon="2.37961">
        <ele>84.6</ele>
        <time>2023-01-25T14:08:13Z</time>
      </trkpt>
      <trkpt lat="49.96773" lon="2.37959">
        <ele>84.7</ele>
        <time>2023-01-25T14:08:14Z</time>
      </trkpt>
      <trkpt lat="49.96773" lon="2.37957">
        <ele>84.7</ele>
        <time>2023-01-25T14:08:15Z</time>
      </trkpt>
      <trkpt lat="49.96774" lon="2.37954">
        <ele>84.8</ele>
        <time>2023-01-25T14:08:16Z</time>
      </trkpt>
      <trkpt lat="49.96774" lon="2.37952">
        <ele>84.8</ele>
        <time>2023-01-25T14:08:17Z</time>
      </trkpt>
      <trkpt lat="49.96774" lon="2.3795">
        <ele>84.8</ele>
        <time>2023-01-25T14:08:18Z</time>
      </trkpt>
      <trkpt lat="49.96774" lon="2.37949">
        <ele>84.8</ele>
        <time>2023-01-25T14:08:19Z</time>
      </trkpt>
      <trkpt lat="49.96774" lon="2.37948">
        <ele>84.8</ele>
        <time>2023-01-25T14:08:20Z</time>
      </trkpt>
      <trkpt lat="49.96774" lon="2.37946">
        <ele>84.9</ele>
        <time>2023-01-25T14:08:21Z</time>
      </trkpt>
      <trkpt lat="49.96775" lon="2.37944">
        <ele>84.9</ele>
        <time>2023-01-25T14:08:23Z</time>
      </trkpt>
      <trkpt lat="49.96775" lon="2.37942">
        <ele>84.9</ele>
        <time>2023-01-25T14:08:24Z</time>
      </trkpt>
      <trkpt lat="49.96775" lon="2.3794">
        <ele>84.9</ele>
        <time>2023-01-25T14:08:25Z</time>
      </trkpt>
      <trkpt lat="49.96776" lon="2.37939">
        <ele>85</ele>
        <time>2023-01-25T14:08:26Z</time>
      </trkpt>
      <trkpt lat="49.96776" lon="2.37937">
        <ele>85</ele>
        <time>2023-01-25T14:08:27Z</time>
      </trkpt>
      <trkpt lat="49.96776" lon="2.37934">
        <ele>85</ele>
        <time>2023-01-25T14:08:28Z</time>
      </trkpt>
      <trkpt lat="49.96777" lon="2.37933">
        <ele>85</ele>
        <time>2023-01-25T14:08:29Z</time>
      </trkpt>
      <trkpt lat="49.96777" lon="2.37932">
        <ele>85</ele>
        <time>2023-01-25T14:08:31Z</time>
      </trkpt>
      <trkpt lat="49.96777" lon="2.3793">
        <ele>85.1</ele>
        <time>2023-01-25T14:08:32Z</time>
      </trkpt>
      <trkpt lat="49.96778" lon="2.37928">
        <ele>85.1</ele>
        <time>2023-01-25T14:08:33Z</time>
      </trkpt>
      <trkpt lat="49.96778" lon="2.37927">
        <ele>85.1</ele>
        <time>2023-01-25T14:08:34Z</time>
      </trkpt>
      <trkpt lat="49.96779" lon="2.37925">
        <ele>85.1</ele>
        <time>2023-01-25T14:08:35Z</time>
      </trkpt>
      <trkpt lat="49.9678" lon="2.37924">
        <ele>85.2</ele>
        <time>2023-01-25T14:08:36Z</time>
      </trkpt>
      <trkpt lat="49.9678" lon="2.37922">
        <ele>85.2</ele>
        <time>2023-01-25T14:08:37Z</time>
      </trkpt>
      <trkpt lat="49.96781" lon="2.3792">
        <ele>85.2</ele>
        <time>2023-01-25T14:08:39Z</time>
      </trkpt>
      <trkpt lat="49.96782" lon="2.37919">
        <ele>85.2</ele>
        <time>2023-01-25T14:08:40Z</time>
      </trkpt>
      <trkpt lat="49.96782" lon="2.37918">
        <ele>85.2</ele>
        <time>2023-01-25T14:08:41Z</time>
      </trkpt>
      <trkpt lat="49.96783" lon="2.37916">
        <ele>85.3</ele>
        <time>2023-01-25T14:08:42Z</time>
      </trkpt>
      <trkpt lat="49.96784" lon="2.37914">
        <ele>85.3</ele>
        <time>2023-01-25T14:08:43Z</time>
      </trkpt>
      <trkpt lat="49.96785" lon="2.37913">
        <ele>85.3</ele>
        <time>2023-01-25T14:08:44Z</time>
      </trkpt>
      <trkpt lat="49.96785" lon="2.37912">
        <ele>85.3</ele>
        <time>2023-01-25T14:08:45Z</time>
      </trkpt>
      <trkpt lat="49.96786" lon="2.37911">
        <ele>85.4</ele>
        <time>2023-01-25T14:08:46Z</time>
      </trkpt>
      <trkpt lat="49.96786" lon="2.37909">
        <ele>85.4</ele>
        <time>2023-01-25T14:08:48Z</time>
      </trkpt>
      <trkpt lat="49.96787" lon="2.37906">
        <ele>85.4</ele>
        <time>2023-01-25T14:08:49Z</time>
      </trkpt>
      <trkpt lat="49.96788" lon="2.37904">
        <ele>85.4</ele>
        <time>2023-01-25T14:08:50Z</time>
      </trkpt>
      <trkpt lat="49.96788" lon="2.37902">
        <ele>85.5</ele>
        <time>2023-01-25T14:08:51Z</time>
      </trkpt>
      <trkpt lat="49.96788" lon="2.37901">
        <ele>85.5</ele>
        <time>2023-01-25T14:08:52Z</time>
      </trkpt>
      <trkpt lat="49.96788" lon="2.379">
        <ele>85.5</ele>
        <time>2023-01-25T14:08:53Z</time>
      </trkpt>
      <trkpt lat="49.96789" lon="2.37898">
        <ele>85.5</ele>
        <time>2023-01-25T14:08:54Z</time>
      </trkpt>
      <trkpt lat="49.96789" lon="2.37897">
        <ele>85.5</ele>
        <time>2023-01-25T14:08:55Z</time>
      </trkpt>
      <trkpt lat="49.96789" lon="2.37895">
        <ele>85.5</ele>
        <time>2023-01-25T14:08:57Z</time>
      </trkpt>
      <trkpt lat="49.96789" lon="2.37893">
        <ele>85.6</ele>
        <time>2023-01-25T14:08:58Z</time>
      </trkpt>
      <trkpt lat="49.9679" lon="2.37891">
        <ele>85.6</ele>
        <time>2023-01-25T14:08:59Z</time>
      </trkpt>
      <trkpt lat="49.96791" lon="2.37889">
        <ele>85.6</ele>
        <time>2023-01-25T14:09:00Z</time>
      </trkpt>
      <trkpt lat="49.96791" lon="2.37888">
        <ele>85.6</ele>
        <time>2023-01-25T14:09:01Z</time>
      </trkpt>
      <trkpt lat="49.96792" lon="2.37886">
        <ele>85.6</ele>
        <time>2023-01-25T14:09:02Z</time>
      </trkpt>
      <trkpt lat="49.96792" lon="2.37886">
        <ele>85.6</ele>
        <time>2023-01-25T14:09:03Z</time>
      </trkpt>
      <trkpt lat="49.96792" lon="2.37885">
        <ele>85.7</ele>
        <time>2023-01-25T14:09:04Z</time>
      </trkpt>
      <trkpt lat="49.96793" lon="2.37884">
        <ele>85.7</ele>
        <time>2023-01-25T14:09:06Z</time>
      </trkpt>
      <trkpt lat="49.96793" lon="2.37882">
        <ele>85.7</ele>
        <time>2023-01-25T14:09:07Z</time>
      </trkpt>
      <trkpt lat="49.96794" lon="2.3788">
        <ele>85.7</ele>
        <time>2023-01-25T14:09:08Z</time>
      </trkpt>
      <trkpt lat="49.96794" lon="2.37878">
        <ele>85.7</ele>
        <time>2023-01-25T14:09:09Z</time>
      </trkpt>
      <trkpt lat="49.96795" lon="2.37877">
        <ele>85.7</ele>
        <time>2023-01-25T14:09:10Z</time>
      </trkpt>
      <trkpt lat="49.96795" lon="2.37875">
        <ele>85.8</ele>
        <time>2023-01-25T14:09:11Z</time>
      </trkpt>
      <trkpt lat="49.96796" lon="2.37873">
        <ele>85.8</ele>
        <time>2023-01-25T14:09:12Z</time>
      </trkpt>
      <trkpt lat="49.96797" lon="2.37871">
        <ele>85.8</ele>
        <time>2023-01-25T14:09:14Z</time>
      </trkpt>
      <trkpt lat="49.96797" lon="2.37869">
        <ele>85.8</ele>
        <time>2023-01-25T14:09:15Z</time>
      </trkpt>
      <trkpt lat="49.96798" lon="2.37867">
        <ele>85.8</ele>
        <time>2023-01-25T14:09:16Z</time>
      </trkpt>
      <trkpt lat="49.96799" lon="2.37866">
        <ele>85.9</ele>
        <time>2023-01-25T14:09:17Z</time>
      </trkpt>
      <trkpt lat="49.968" lon="2.37863">
        <ele>85.9</ele>
        <time>2023-01-25T14:09:18Z</time>
      </trkpt>
      <trkpt lat="49.968" lon="2.37862">
        <ele>85.9</ele>
        <time>2023-01-25T14:09:19Z</time>
      </trkpt>
      <trkpt lat="49.96801" lon="2.37859">
        <ele>85.9</ele>
        <time>2023-01-25T14:09:20Z</time>
      </trkpt>
      <trkpt lat="49.96802" lon="2.37857">
        <ele>86</ele>
        <time>2023-01-25T14:09:22Z</time>
      </trkpt>
      <trkpt lat="49.96802" lon="2.37856">
        <ele>86</ele>
        <time>2023-01-25T14:09:23Z</time>
      </trkpt>
      <trkpt lat="49.96802" lon="2.37854">
        <ele>86</ele>
        <time>2023-01-25T14:09:24Z</time>
      </trkpt>
      <trkpt lat="49.96803" lon="2.37852">
        <ele>86</ele>
        <time>2023-01-25T14:09:25Z</time>
      </trkpt>
      <trkpt lat="49.96804" lon="2.3785">
        <ele>86</ele>
        <time>2023-01-25T14:09:26Z</time>
      </trkpt>
      <trkpt lat="49.96804" lon="2.37847">
        <ele>86.1</ele>
        <time>2023-01-25T14:09:28Z</time>
      </trkpt>
      <trkpt lat="49.96804" lon="2.37844">
        <ele>86.1</ele>
        <time>2023-01-25T14:09:29Z</time>
      </trkpt>
      <trkpt lat="49.96804" lon="2.37843">
        <ele>86.1</ele>
        <time>2023-01-25T14:09:30Z</time>
      </trkpt>
      <trkpt lat="49.96805" lon="2.37839">
        <ele>86.2</ele>
        <time>2023-01-25T14:09:31Z</time>
      </trkpt>
      <trkpt lat="49.96805" lon="2.37838">
        <ele>86.2</ele>
        <time>2023-01-25T14:09:32Z</time>
      </trkpt>
      <trkpt lat="49.96805" lon="2.37836">
        <ele>86.2</ele>
        <time>2023-01-25T14:09:33Z</time>
      </trkpt>
      <trkpt lat="49.96805" lon="2.37835">
        <ele>86.3</ele>
        <time>2023-01-25T14:09:35Z</time>
      </trkpt>
      <trkpt lat="49.96806" lon="2.37833">
        <ele>86.3</ele>
        <time>2023-01-25T14:09:36Z</time>
      </trkpt>
      <trkpt lat="49.96806" lon="2.37831">
        <ele>86.3</ele>
        <time>2023-01-25T14:09:37Z</time>
      </trkpt>
      <trkpt lat="49.96807" lon="2.37829">
        <ele>86.3</ele>
        <time>2023-01-25T14:09:38Z</time>
      </trkpt>
      <trkpt lat="49.96808" lon="2.37827">
        <ele>86.4</ele>
        <time>2023-01-25T14:09:39Z</time>
      </trkpt>
      <trkpt lat="49.96808" lon="2.37825">
        <ele>86.4</ele>
        <time>2023-01-25T14:09:40Z</time>
      </trkpt>
      <trkpt lat="49.96808" lon="2.37824">
        <ele>86.4</ele>
        <time>2023-01-25T14:09:41Z</time>
      </trkpt>
      <trkpt lat="49.96808" lon="2.37822">
        <ele>86.5</ele>
        <time>2023-01-25T14:09:42Z</time>
      </trkpt>
      <trkpt lat="49.96808" lon="2.37819">
        <ele>86.5</ele>
        <time>2023-01-25T14:09:44Z</time>
      </trkpt>
      <trkpt lat="49.96808" lon="2.37818">
        <ele>86.6</ele>
        <time>2023-01-25T14:09:45Z</time>
      </trkpt>
      <trkpt lat="49.96808" lon="2.37817">
        <ele>86.6</ele>
        <time>2023-01-25T14:09:46Z</time>
      </trkpt>
      <trkpt lat="49.96808" lon="2.37816">
        <ele>86.6</ele>
        <time>2023-01-25T14:09:47Z</time>
      </trkpt>
      <trkpt lat="49.96808" lon="2.37815">
        <ele>86.6</ele>
        <time>2023-01-25T14:09:48Z</time>
      </trkpt>
      <trkpt lat="49.96808" lon="2.37812">
        <ele>86.7</ele>
        <time>2023-01-25T14:09:49Z</time>
      </trkpt>
      <trkpt lat="49.96808" lon="2.37809">
        <ele>86.7</ele>
        <time>2023-01-25T14:09:51Z</time>
      </trkpt>
      <trkpt lat="49.96808" lon="2.37808">
        <ele>86.7</ele>
        <time>2023-01-25T14:09:52Z</time>
      </trkpt>
      <trkpt lat="49.96808" lon="2.37806">
        <ele>86.8</ele>
        <time>2023-01-25T14:09:53Z</time>
      </trkpt>
      <trkpt lat="49.96809" lon="2.37804">
        <ele>86.8</ele>
        <time>2023-01-25T14:09:54Z</time>
      </trkpt>
      <trkpt lat="49.96809" lon="2.37803">
        <ele>86.8</ele>
        <time>2023-01-25T14:09:55Z</time>
      </trkpt>
      <trkpt lat="49.96809" lon="2.37801">
        <ele>86.9</ele>
        <time>2023-01-25T14:09:56Z</time>
      </trkpt>
      <trkpt lat="49.96809" lon="2.37799">
        <ele>86.9</ele>
        <time>2023-01-25T14:09:57Z</time>
      </trkpt>
      <trkpt lat="49.9681" lon="2.37797">
        <ele>86.9</ele>
        <time>2023-01-25T14:09:58Z</time>
      </trkpt>
      <trkpt lat="49.9681" lon="2.37796">
        <ele>87</ele>
        <time>2023-01-25T14:10:00Z</time>
      </trkpt>
      <trkpt lat="49.96811" lon="2.37792">
        <ele>87</ele>
        <time>2023-01-25T14:10:01Z</time>
      </trkpt>
      <trkpt lat="49.96811" lon="2.37791">
        <ele>87</ele>
        <time>2023-01-25T14:10:02Z</time>
      </trkpt>
      <trkpt lat="49.96811" lon="2.3779">
        <ele>87.1</ele>
        <time>2023-01-25T14:10:03Z</time>
      </trkpt>
      <trkpt lat="49.96812" lon="2.37788">
        <ele>87.1</ele>
        <time>2023-01-25T14:10:04Z</time>
      </trkpt>
      <trkpt lat="49.96812" lon="2.37786">
        <ele>87.1</ele>
        <time>2023-01-25T14:10:05Z</time>
      </trkpt>
      <trkpt lat="49.96812" lon="2.37785">
        <ele>87.1</ele>
        <time>2023-01-25T14:10:06Z</time>
      </trkpt>
      <trkpt lat="49.96813" lon="2.37783">
        <ele>87.2</ele>
        <time>2023-01-25T14:10:08Z</time>
      </trkpt>
      <trkpt lat="49.96813" lon="2.37781">
        <ele>87.2</ele>
        <time>2023-01-25T14:10:09Z</time>
      </trkpt>
      <trkpt lat="49.96814" lon="2.3778">
        <ele>87.2</ele>
        <time>2023-01-25T14:10:10Z</time>
      </trkpt>
      <trkpt lat="49.96814" lon="2.37778">
        <ele>87.2</ele>
        <time>2023-01-25T14:10:11Z</time>
      </trkpt>
      <trkpt lat="49.96815" lon="2.37777">
        <ele>87.3</ele>
        <time>2023-01-25T14:10:12Z</time>
      </trkpt>
      <trkpt lat="49.96815" lon="2.37775">
        <ele>87.3</ele>
        <time>2023-01-25T14:10:13Z</time>
      </trkpt>
      <trkpt lat="49.96816" lon="2.37773">
        <ele>87.3</ele>
        <time>2023-01-25T14:10:14Z</time>
      </trkpt>
      <trkpt lat="49.96817" lon="2.37772">
        <ele>87.4</ele>
        <time>2023-01-25T14:10:16Z</time>
      </trkpt>
      <trkpt lat="49.96818" lon="2.37769">
        <ele>87.4</ele>
        <time>2023-01-25T14:10:17Z</time>
      </trkpt>
      <trkpt lat="49.96819" lon="2.37768">
        <ele>87.4</ele>
        <time>2023-01-25T14:10:18Z</time>
      </trkpt>
      <trkpt lat="49.96819" lon="2.37767">
        <ele>87.5</ele>
        <time>2023-01-25T14:10:19Z</time>
      </trkpt>
      <trkpt lat="49.9682" lon="2.37765">
        <ele>87.5</ele>
        <time>2023-01-25T14:10:20Z</time>
      </trkpt>
      <trkpt lat="49.96821" lon="2.37764">
        <ele>87.5</ele>
        <time>2023-01-25T14:10:21Z</time>
      </trkpt>
      <trkpt lat="49.96822" lon="2.37762">
        <ele>87.5</ele>
        <time>2023-01-25T14:10:23Z</time>
      </trkpt>
      <trkpt lat="49.96823" lon="2.3776">
        <ele>87.6</ele>
        <time>2023-01-25T14:10:24Z</time>
      </trkpt>
      <trkpt lat="49.96824" lon="2.37759">
        <ele>87.6</ele>
        <time>2023-01-25T14:10:25Z</time>
      </trkpt>
      <trkpt lat="49.96825" lon="2.37756">
        <ele>87.6</ele>
        <time>2023-01-25T14:10:26Z</time>
      </trkpt>
      <trkpt lat="49.96826" lon="2.37755">
        <ele>87.7</ele>
        <time>2023-01-25T14:10:27Z</time>
      </trkpt>
      <trkpt lat="49.96826" lon="2.37754">
        <ele>87.7</ele>
        <time>2023-01-25T14:10:28Z</time>
      </trkpt>
      <trkpt lat="49.96828" lon="2.3775">
        <ele>87.8</ele>
        <time>2023-01-25T14:10:29Z</time>
      </trkpt>
      <trkpt lat="49.96829" lon="2.37749">
        <ele>87.8</ele>
        <time>2023-01-25T14:10:31Z</time>
      </trkpt>
      <trkpt lat="49.96829" lon="2.37748">
        <ele>87.8</ele>
        <time>2023-01-25T14:10:32Z</time>
      </trkpt>
      <trkpt lat="49.9683" lon="2.37746">
        <ele>87.8</ele>
        <time>2023-01-25T14:10:33Z</time>
      </trkpt>
      <trkpt lat="49.96831" lon="2.37745">
        <ele>87.9</ele>
        <time>2023-01-25T14:10:34Z</time>
      </trkpt>
      <trkpt lat="49.96831" lon="2.37744">
        <ele>87.9</ele>
        <time>2023-01-25T14:10:35Z</time>
      </trkpt>
      <trkpt lat="49.96832" lon="2.37742">
        <ele>87.9</ele>
        <time>2023-01-25T14:10:36Z</time>
      </trkpt>
      <trkpt lat="49.96832" lon="2.37741">
        <ele>87.9</ele>
        <time>2023-01-25T14:10:37Z</time>
      </trkpt>
      <trkpt lat="49.96833" lon="2.37738">
        <ele>88</ele>
        <time>2023-01-25T14:10:39Z</time>
      </trkpt>
      <trkpt lat="49.96833" lon="2.37737">
        <ele>88</ele>
        <time>2023-01-25T14:10:40Z</time>
      </trkpt>
      <trkpt lat="49.96833" lon="2.37735">
        <ele>88</ele>
        <time>2023-01-25T14:10:41Z</time>
      </trkpt>
      <trkpt lat="49.96834" lon="2.37734">
        <ele>88.1</ele>
        <time>2023-01-25T14:10:42Z</time>
      </trkpt>
      <trkpt lat="49.96834" lon="2.37732">
        <ele>88.1</ele>
        <time>2023-01-25T14:10:43Z</time>
      </trkpt>
      <trkpt lat="49.96835" lon="2.37731">
        <ele>88.1</ele>
        <time>2023-01-25T14:10:44Z</time>
      </trkpt>
      <trkpt lat="49.96835" lon="2.3773">
        <ele>88.2</ele>
        <time>2023-01-25T14:10:45Z</time>
      </trkpt>
      <trkpt lat="49.96836" lon="2.37728">
        <ele>88.2</ele>
        <time>2023-01-25T14:10:47Z</time>
      </trkpt>
      <trkpt lat="49.96837" lon="2.37727">
        <ele>88.2</ele>
        <time>2023-01-25T14:10:48Z</time>
      </trkpt>
      <trkpt lat="49.96837" lon="2.37725">
        <ele>88.2</ele>
        <time>2023-01-25T14:10:49Z</time>
      </trkpt>
      <trkpt lat="49.96838" lon="2.37725">
        <ele>88.2</ele>
        <time>2023-01-25T14:10:50Z</time>
      </trkpt>
      <trkpt lat="49.96838" lon="2.37723">
        <ele>88.3</ele>
        <time>2023-01-25T14:10:51Z</time>
      </trkpt>
      <trkpt lat="49.96838" lon="2.37722">
        <ele>88.3</ele>
        <time>2023-01-25T14:10:52Z</time>
      </trkpt>
      <trkpt lat="49.96838" lon="2.37722">
        <ele>88.3</ele>
        <time>2023-01-25T14:10:53Z</time>
      </trkpt>
      <trkpt lat="49.96839" lon="2.37723">
        <ele>88.3</ele>
        <time>2023-01-25T14:10:55Z</time>
      </trkpt>
      <trkpt lat="49.96839" lon="2.37724">
        <ele>88.3</ele>
        <time>2023-01-25T14:10:56Z</time>
      </trkpt>
      <trkpt lat="49.9684" lon="2.37724">
        <ele>88.3</ele>
        <time>2023-01-25T14:10:57Z</time>
      </trkpt>
      <trkpt lat="49.9684" lon="2.37724">
        <ele>88.3</ele>
        <time>2023-01-25T14:10:59Z</time>
      </trkpt>
      <trkpt lat="49.9684" lon="2.37722">
        <ele>88.4</ele>
        <time>2023-01-25T14:11:00Z</time>
      </trkpt>
      <trkpt lat="49.9684" lon="2.37721">
        <ele>88.4</ele>
        <time>2023-01-25T14:11:01Z</time>
      </trkpt>
      <trkpt lat="49.9684" lon="2.37721">
        <ele>88.4</ele>
        <time>2023-01-25T14:11:02Z</time>
      </trkpt>
      <trkpt lat="49.9684" lon="2.3772">
        <ele>88.4</ele>
        <time>2023-01-25T14:11:03Z</time>
      </trkpt>
      <trkpt lat="49.9684" lon="2.37719">
        <ele>88.4</ele>
        <time>2023-01-25T14:11:04Z</time>
      </trkpt>
      <trkpt lat="49.96841" lon="2.37718">
        <ele>88.4</ele>
        <time>2023-01-25T14:11:06Z</time>
      </trkpt>
      <trkpt lat="49.96841" lon="2.37717">
        <ele>88.4</ele>
        <time>2023-01-25T14:11:07Z</time>
      </trkpt>
      <trkpt lat="49.96841" lon="2.37717">
        <ele>88.4</ele>
        <time>2023-01-25T14:11:08Z</time>
      </trkpt>
      <trkpt lat="49.96841" lon="2.37716">
        <ele>88.5</ele>
        <time>2023-01-25T14:11:09Z</time>
      </trkpt>
      <trkpt lat="49.96841" lon="2.37716">
        <ele>88.5</ele>
        <time>2023-01-25T14:11:10Z</time>
      </trkpt>
      <trkpt lat="49.96841" lon="2.37715">
        <ele>88.5</ele>
        <time>2023-01-25T14:11:11Z</time>
      </trkpt>
      <trkpt lat="49.96842" lon="2.37713">
        <ele>88.5</ele>
        <time>2023-01-25T14:11:12Z</time>
      </trkpt>
      <trkpt lat="49.96842" lon="2.37712">
        <ele>88.5</ele>
        <time>2023-01-25T14:11:13Z</time>
      </trkpt>
      <trkpt lat="49.96842" lon="2.3771">
        <ele>88.6</ele>
        <time>2023-01-25T14:11:15Z</time>
      </trkpt>
      <trkpt lat="49.96842" lon="2.37709">
        <ele>88.6</ele>
        <time>2023-01-25T14:11:16Z</time>
      </trkpt>
      <trkpt lat="49.96842" lon="2.37707">
        <ele>88.6</ele>
        <time>2023-01-25T14:11:17Z</time>
      </trkpt>
      <trkpt lat="49.96843" lon="2.37705">
        <ele>88.7</ele>
        <time>2023-01-25T14:11:18Z</time>
      </trkpt>
      <trkpt lat="49.96843" lon="2.37703">
        <ele>88.7</ele>
        <time>2023-01-25T14:11:19Z</time>
      </trkpt>
      <trkpt lat="49.96844" lon="2.37702">
        <ele>88.7</ele>
        <time>2023-01-25T14:11:20Z</time>
      </trkpt>
      <trkpt lat="49.96844" lon="2.377">
        <ele>88.8</ele>
        <time>2023-01-25T14:11:22Z</time>
      </trkpt>
      <trkpt lat="49.96845" lon="2.37697">
        <ele>88.8</ele>
        <time>2023-01-25T14:11:23Z</time>
      </trkpt>
      <trkpt lat="49.96846" lon="2.37693">
        <ele>88.9</ele>
        <time>2023-01-25T14:11:24Z</time>
      </trkpt>
      <trkpt lat="49.96846" lon="2.37691">
        <ele>88.9</ele>
        <time>2023-01-25T14:11:25Z</time>
      </trkpt>
      <trkpt lat="49.96846" lon="2.37689">
        <ele>89</ele>
        <time>2023-01-25T14:11:26Z</time>
      </trkpt>
      <trkpt lat="49.96847" lon="2.37687">
        <ele>89</ele>
        <time>2023-01-25T14:11:27Z</time>
      </trkpt>
      <trkpt lat="49.96848" lon="2.37685">
        <ele>89</ele>
        <time>2023-01-25T14:11:28Z</time>
      </trkpt>
      <trkpt lat="49.96848" lon="2.37682">
        <ele>89.1</ele>
        <time>2023-01-25T14:11:30Z</time>
      </trkpt>
      <trkpt lat="49.96849" lon="2.3768">
        <ele>89.1</ele>
        <time>2023-01-25T14:11:31Z</time>
      </trkpt>
      <trkpt lat="49.96849" lon="2.37678">
        <ele>89.1</ele>
        <time>2023-01-25T14:11:32Z</time>
      </trkpt>
      <trkpt lat="49.9685" lon="2.37676">
        <ele>89.1</ele>
        <time>2023-01-25T14:11:33Z</time>
      </trkpt>
      <trkpt lat="49.9685" lon="2.37673">
        <ele>89.1</ele>
        <time>2023-01-25T14:11:34Z</time>
      </trkpt>
      <trkpt lat="49.9685" lon="2.37672">
        <ele>89.1</ele>
        <time>2023-01-25T14:11:35Z</time>
      </trkpt>
      <trkpt lat="49.96851" lon="2.3767">
        <ele>89.2</ele>
        <time>2023-01-25T14:11:36Z</time>
      </trkpt>
      <trkpt lat="49.96851" lon="2.37668">
        <ele>89.2</ele>
        <time>2023-01-25T14:11:38Z</time>
      </trkpt>
      <trkpt lat="49.96852" lon="2.37666">
        <ele>89.2</ele>
        <time>2023-01-25T14:11:39Z</time>
      </trkpt>
      <trkpt lat="49.96853" lon="2.37664">
        <ele>89.2</ele>
        <time>2023-01-25T14:11:40Z</time>
      </trkpt>
      <trkpt lat="49.96854" lon="2.37663">
        <ele>89.2</ele>
        <time>2023-01-25T14:11:41Z</time>
      </trkpt>
      <trkpt lat="49.96854" lon="2.37661">
        <ele>89.2</ele>
        <time>2023-01-25T14:11:42Z</time>
      </trkpt>
      <trkpt lat="49.96855" lon="2.3766">
        <ele>89.2</ele>
        <time>2023-01-25T14:11:43Z</time>
      </trkpt>
      <trkpt lat="49.96855" lon="2.37659">
        <ele>89.2</ele>
        <time>2023-01-25T14:11:44Z</time>
      </trkpt>
      <trkpt lat="49.96856" lon="2.37658">
        <ele>89.3</ele>
        <time>2023-01-25T14:11:46Z</time>
      </trkpt>
      <trkpt lat="49.96857" lon="2.37656">
        <ele>89.3</ele>
        <time>2023-01-25T14:11:47Z</time>
      </trkpt>
      <trkpt lat="49.96858" lon="2.37655">
        <ele>89.3</ele>
        <time>2023-01-25T14:11:48Z</time>
      </trkpt>
      <trkpt lat="49.96859" lon="2.37653">
        <ele>89.3</ele>
        <time>2023-01-25T14:11:49Z</time>
      </trkpt>
      <trkpt lat="49.9686" lon="2.37652">
        <ele>89.3</ele>
        <time>2023-01-25T14:11:50Z</time>
      </trkpt>
      <trkpt lat="49.9686" lon="2.37651">
        <ele>89.4</ele>
        <time>2023-01-25T14:11:51Z</time>
      </trkpt>
      <trkpt lat="49.96861" lon="2.37649">
        <ele>89.4</ele>
        <time>2023-01-25T14:11:53Z</time>
      </trkpt>
      <trkpt lat="49.96862" lon="2.37648">
        <ele>89.4</ele>
        <time>2023-01-25T14:11:54Z</time>
      </trkpt>
      <trkpt lat="49.96863" lon="2.37646">
        <ele>89.5</ele>
        <time>2023-01-25T14:11:55Z</time>
      </trkpt>
      <trkpt lat="49.96863" lon="2.37644">
        <ele>89.5</ele>
        <time>2023-01-25T14:11:56Z</time>
      </trkpt>
      <trkpt lat="49.96864" lon="2.37643">
        <ele>89.5</ele>
        <time>2023-01-25T14:11:57Z</time>
      </trkpt>
      <trkpt lat="49.96864" lon="2.37641">
        <ele>89.5</ele>
        <time>2023-01-25T14:11:58Z</time>
      </trkpt>
      <trkpt lat="49.96865" lon="2.37639">
        <ele>89.6</ele>
        <time>2023-01-25T14:11:59Z</time>
      </trkpt>
      <trkpt lat="49.96865" lon="2.37637">
        <ele>89.6</ele>
        <time>2023-01-25T14:12:00Z</time>
      </trkpt>
      <trkpt lat="49.96865" lon="2.37635">
        <ele>89.6</ele>
        <time>2023-01-25T14:12:02Z</time>
      </trkpt>
      <trkpt lat="49.96865" lon="2.37631">
        <ele>89.7</ele>
        <time>2023-01-25T14:12:03Z</time>
      </trkpt>
      <trkpt lat="49.96865" lon="2.3763">
        <ele>89.7</ele>
        <time>2023-01-25T14:12:04Z</time>
      </trkpt>
      <trkpt lat="49.96865" lon="2.37628">
        <ele>89.7</ele>
        <time>2023-01-25T14:12:05Z</time>
      </trkpt>
      <trkpt lat="49.96865" lon="2.37626">
        <ele>89.8</ele>
        <time>2023-01-25T14:12:06Z</time>
      </trkpt>
      <trkpt lat="49.96866" lon="2.37624">
        <ele>89.8</ele>
        <time>2023-01-25T14:12:07Z</time>
      </trkpt>
      <trkpt lat="49.96866" lon="2.37623">
        <ele>89.8</ele>
        <time>2023-01-25T14:12:09Z</time>
      </trkpt>
      <trkpt lat="49.96866" lon="2.37619">
        <ele>89.9</ele>
        <time>2023-01-25T14:12:10Z</time>
      </trkpt>
      <trkpt lat="49.96866" lon="2.37618">
        <ele>89.9</ele>
        <time>2023-01-25T14:12:11Z</time>
      </trkpt>
      <trkpt lat="49.96867" lon="2.37617">
        <ele>89.9</ele>
        <time>2023-01-25T14:12:12Z</time>
      </trkpt>
      <trkpt lat="49.96867" lon="2.37615">
        <ele>89.9</ele>
        <time>2023-01-25T14:12:13Z</time>
      </trkpt>
      <trkpt lat="49.96868" lon="2.37612">
        <ele>90</ele>
        <time>2023-01-25T14:12:14Z</time>
      </trkpt>
      <trkpt lat="49.96868" lon="2.3761">
        <ele>90</ele>
        <time>2023-01-25T14:12:15Z</time>
      </trkpt>
      <trkpt lat="49.96868" lon="2.37609">
        <ele>90</ele>
        <time>2023-01-25T14:12:16Z</time>
      </trkpt>
      <trkpt lat="49.96868" lon="2.37607">
        <ele>90</ele>
        <time>2023-01-25T14:12:18Z</time>
      </trkpt>
      <trkpt lat="49.96869" lon="2.37606">
        <ele>90</ele>
        <time>2023-01-25T14:12:19Z</time>
      </trkpt>
      <trkpt lat="49.96869" lon="2.37604">
        <ele>90.1</ele>
        <time>2023-01-25T14:12:20Z</time>
      </trkpt>
      <trkpt lat="49.96869" lon="2.37603">
        <ele>90.1</ele>
        <time>2023-01-25T14:12:21Z</time>
      </trkpt>
      <trkpt lat="49.9687" lon="2.37601">
        <ele>90.1</ele>
        <time>2023-01-25T14:12:22Z</time>
      </trkpt>
      <trkpt lat="49.9687" lon="2.37599">
        <ele>90.1</ele>
        <time>2023-01-25T14:12:23Z</time>
      </trkpt>
      <trkpt lat="49.96871" lon="2.37598">
        <ele>90.1</ele>
        <time>2023-01-25T14:12:24Z</time>
      </trkpt>
      <trkpt lat="49.96871" lon="2.37596">
        <ele>90.2</ele>
        <time>2023-01-25T14:12:26Z</time>
      </trkpt>
      <trkpt lat="49.96872" lon="2.37594">
        <ele>90.2</ele>
        <time>2023-01-25T14:12:27Z</time>
      </trkpt>
      <trkpt lat="49.96872" lon="2.37593">
        <ele>90.2</ele>
        <time>2023-01-25T14:12:28Z</time>
      </trkpt>
      <trkpt lat="49.96872" lon="2.37591">
        <ele>90.2</ele>
        <time>2023-01-25T14:12:29Z</time>
      </trkpt>
      <trkpt lat="49.96873" lon="2.3759">
        <ele>90.3</ele>
        <time>2023-01-25T14:12:30Z</time>
      </trkpt>
      <trkpt lat="49.96873" lon="2.37589">
        <ele>90.3</ele>
        <time>2023-01-25T14:12:31Z</time>
      </trkpt>
      <trkpt lat="49.96874" lon="2.37587">
        <ele>90.3</ele>
        <time>2023-01-25T14:12:33Z</time>
      </trkpt>
      <trkpt lat="49.96874" lon="2.37586">
        <ele>90.3</ele>
        <time>2023-01-25T14:12:34Z</time>
      </trkpt>
      <trkpt lat="49.96874" lon="2.37584">
        <ele>90.3</ele>
        <time>2023-01-25T14:12:35Z</time>
      </trkpt>
      <trkpt lat="49.96875" lon="2.37582">
        <ele>90.4</ele>
        <time>2023-01-25T14:12:36Z</time>
      </trkpt>
      <trkpt lat="49.96875" lon="2.37581">
        <ele>90.4</ele>
        <time>2023-01-25T14:12:37Z</time>
      </trkpt>
      <trkpt lat="49.96876" lon="2.37579">
        <ele>90.4</ele>
        <time>2023-01-25T14:12:38Z</time>
      </trkpt>
      <trkpt lat="49.96876" lon="2.37578">
        <ele>90.4</ele>
        <time>2023-01-25T14:12:39Z</time>
      </trkpt>
      <trkpt lat="49.96876" lon="2.37577">
        <ele>90.5</ele>
        <time>2023-01-25T14:12:40Z</time>
      </trkpt>
      <trkpt lat="49.96877" lon="2.37575">
        <ele>90.5</ele>
        <time>2023-01-25T14:12:42Z</time>
      </trkpt>
      <trkpt lat="49.96878" lon="2.37574">
        <ele>90.5</ele>
        <time>2023-01-25T14:12:43Z</time>
      </trkpt>
      <trkpt lat="49.96879" lon="2.37572">
        <ele>90.5</ele>
        <time>2023-01-25T14:12:44Z</time>
      </trkpt>
      <trkpt lat="49.96879" lon="2.37571">
        <ele>90.6</ele>
        <time>2023-01-25T14:12:45Z</time>
      </trkpt>
      <trkpt lat="49.96879" lon="2.3757">
        <ele>90.6</ele>
        <time>2023-01-25T14:12:46Z</time>
      </trkpt>
      <trkpt lat="49.96878" lon="2.37568">
        <ele>90.6</ele>
        <time>2023-01-25T14:12:47Z</time>
      </trkpt>
      <trkpt lat="49.96877" lon="2.37567">
        <ele>90.7</ele>
        <time>2023-01-25T14:12:48Z</time>
      </trkpt>
      <trkpt lat="49.96876" lon="2.37564">
        <ele>90.7</ele>
        <time>2023-01-25T14:12:50Z</time>
      </trkpt>
      <trkpt lat="49.96877" lon="2.37563">
        <ele>90.7</ele>
        <time>2023-01-25T14:12:51Z</time>
      </trkpt>
      <trkpt lat="49.96877" lon="2.37561">
        <ele>90.7</ele>
        <time>2023-01-25T14:12:52Z</time>
      </trkpt>
      <trkpt lat="49.96877" lon="2.3756">
        <ele>90.8</ele>
        <time>2023-01-25T14:12:53Z</time>
      </trkpt>
      <trkpt lat="49.96877" lon="2.37558">
        <ele>90.8</ele>
        <time>2023-01-25T14:12:54Z</time>
      </trkpt>
      <trkpt lat="49.96877" lon="2.37557">
        <ele>90.8</ele>
        <time>2023-01-25T14:12:56Z</time>
      </trkpt>
      <trkpt lat="49.96878" lon="2.37557">
        <ele>90.8</ele>
        <time>2023-01-25T14:12:57Z</time>
      </trkpt>
      <trkpt lat="49.96879" lon="2.37557">
        <ele>90.8</ele>
        <time>2023-01-25T14:12:58Z</time>
      </trkpt>
      <trkpt lat="49.9688" lon="2.37557">
        <ele>90.8</ele>
        <time>2023-01-25T14:12:59Z</time>
      </trkpt>
      <trkpt lat="49.96881" lon="2.37559">
        <ele>90.9</ele>
        <time>2023-01-25T14:13:01Z</time>
      </trkpt>
      <trkpt lat="49.96881" lon="2.3756">
        <ele>90.9</ele>
        <time>2023-01-25T14:13:02Z</time>
      </trkpt>
      <trkpt lat="49.96881" lon="2.37561">
        <ele>90.9</ele>
        <time>2023-01-25T14:13:03Z</time>
      </trkpt>
      <trkpt lat="49.96882" lon="2.37562">
        <ele>90.9</ele>
        <time>2023-01-25T14:13:05Z</time>
      </trkpt>
      <trkpt lat="49.96882" lon="2.37562">
        <ele>90.9</ele>
        <time>2023-01-25T14:13:06Z</time>
      </trkpt>
      <trkpt lat="49.96882" lon="2.37562">
        <ele>90.9</ele>
        <time>2023-01-25T14:13:07Z</time>
      </trkpt>
      <trkpt lat="49.96882" lon="2.37563">
        <ele>90.9</ele>
        <time>2023-01-25T14:13:09Z</time>
      </trkpt>
      <trkpt lat="49.96882" lon="2.37563">
        <ele>90.9</ele>
        <time>2023-01-25T14:13:10Z</time>
      </trkpt>
      <trkpt lat="49.96882" lon="2.37563">
        <ele>90.9</ele>
        <time>2023-01-25T14:13:11Z</time>
      </trkpt>
      <trkpt lat="49.96882" lon="2.37563">
        <ele>90.9</ele>
        <time>2023-01-25T14:13:13Z</time>
      </trkpt>
      <trkpt lat="49.96882" lon="2.37563">
        <ele>90.9</ele>
        <time>2023-01-25T14:13:14Z</time>
      </trkpt>
      <trkpt lat="49.96882" lon="2.37563">
        <ele>90.9</ele>
        <time>2023-01-25T14:13:15Z</time>
      </trkpt>
      <trkpt lat="49.96882" lon="2.37564">
        <ele>90.9</ele>
        <time>2023-01-25T14:13:17Z</time>
      </trkpt>
      <trkpt lat="49.96882" lon="2.37564">
        <ele>90.9</ele>
        <time>2023-01-25T14:13:18Z</time>
      </trkpt>
      <trkpt lat="49.96882" lon="2.37564">
        <ele>90.9</ele>
        <time>2023-01-25T14:13:19Z</time>
      </trkpt>
      <trkpt lat="49.96882" lon="2.37564">
        <ele>90.9</ele>
        <time>2023-01-25T14:13:20Z</time>
      </trkpt>
      <trkpt lat="49.96882" lon="2.37564">
        <ele>90.9</ele>
        <time>2023-01-25T14:13:21Z</time>
      </trkpt>
      <trkpt lat="49.96882" lon="2.37564">
        <ele>90.9</ele>
        <time>2023-01-25T14:13:22Z</time>
      </trkpt>
      <trkpt lat="49.96882" lon="2.37564">
        <ele>90.9</ele>
        <time>2023-01-25T14:13:23Z</time>
      </trkpt>
      <trkpt lat="49.96882" lon="2.37564">
        <ele>90.9</ele>
        <time>2023-01-25T14:13:24Z</time>
      </trkpt>
      <trkpt lat="49.96882" lon="2.37564">
        <ele>90.9</ele>
        <time>2023-01-25T14:13:25Z</time>
      </trkpt>
      <trkpt lat="49.96882" lon="2.37564">
        <ele>90.9</ele>
        <time>2023-01-25T14:13:26Z</time>
      </trkpt>
      <trkpt lat="49.96882" lon="2.37564">
        <ele>90.9</ele>
        <time>2023-01-25T14:13:27Z</time>
      </trkpt>
      <trkpt lat="49.96882" lon="2.37564">
        <ele>90.9</ele>
        <time>2023-01-25T14:13:28Z</time>
      </trkpt>
      <trkpt lat="49.96882" lon="2.37564">
        <ele>90.9</ele>
        <time>2023-01-25T14:13:29Z</time>
      </trkpt>
      <trkpt lat="49.96882" lon="2.37564">
        <ele>90.9</ele>
        <time>2023-01-25T14:13:30Z</time>
      </trkpt>
      <trkpt lat="49.96882" lon="2.37564">
        <ele>90.9</ele>
        <time>2023-01-25T14:13:31Z</time>
      </trkpt>
      <trkpt lat="49.96882" lon="2.37564">
        <ele>90.9</ele>
        <time>2023-01-25T14:13:32Z</time>
      </trkpt>
      <trkpt lat="49.96882" lon="2.37564">
        <ele>90.9</ele>
        <time>2023-01-25T14:13:33Z</time>
      </trkpt>
      <trkpt lat="49.96882" lon="2.37564">
        <ele>90.9</ele>
        <time>2023-01-25T14:13:34Z</time>
      </trkpt>
      <trkpt lat="49.96882" lon="2.37564">
        <ele>90.9</ele>
        <time>2023-01-25T14:13:35Z</time>
      </trkpt>
      <trkpt lat="49.96882" lon="2.37564">
        <ele>90.9</ele>
        <time>2023-01-25T14:13:36Z</time>
      </trkpt>
      <trkpt lat="49.96882" lon="2.37564">
        <ele>90.9</ele>
        <time>2023-01-25T14:13:37Z</time>
      </trkpt>
      <trkpt lat="49.96882" lon="2.37564">
        <ele>90.9</ele>
        <time>2023-01-25T14:13:38Z</time>
      </trkpt>
      <trkpt lat="49.96882" lon="2.37564">
        <ele>90.9</ele>
        <time>2023-01-25T14:13:39Z</time>
      </trkpt>
      <trkpt lat="49.96882" lon="2.37564">
        <ele>90.9</ele>
        <time>2023-01-25T14:13:40Z</time>
      </trkpt>
      <trkpt lat="49.96882" lon="2.37564">
        <ele>90.9</ele>
        <time>2023-01-25T14:13:41Z</time>
      </trkpt>
      <trkpt lat="49.96882" lon="2.37564">
        <ele>90.9</ele>
        <time>2023-01-25T14:13:42Z</time>
      </trkpt>
      <trkpt lat="49.96882" lon="2.37564">
        <ele>90.9</ele>
        <time>2023-01-25T14:13:43Z</time>
      </trkpt>
      <trkpt lat="49.96882" lon="2.37564">
        <ele>90.9</ele>
        <time>2023-01-25T14:13:44Z</time>
      </trkpt>
      <trkpt lat="49.96882" lon="2.37564">
        <ele>90.9</ele>
        <time>2023-01-25T14:13:45Z</time>
      </trkpt>
      <trkpt lat="49.96882" lon="2.37564">
        <ele>90.9</ele>
        <time>2023-01-25T14:13:46Z</time>
      </trkpt>
      <trkpt lat="49.96882" lon="2.37564">
        <ele>90.9</ele>
        <time>2023-01-25T14:13:47Z</time>
      </trkpt>
      <trkpt lat="49.96882" lon="2.37564">
        <ele>90.9</ele>
        <time>2023-01-25T14:13:48Z</time>
      </trkpt>
      <trkpt lat="49.96882" lon="2.37564">
        <ele>90.9</ele>
        <time>2023-01-25T14:13:49Z</time>
      </trkpt>
      <trkpt lat="49.96882" lon="2.37564">
        <ele>90.9</ele>
        <time>2023-01-25T14:13:50Z</time>
      </trkpt>
      <trkpt lat="49.96882" lon="2.37564">
        <ele>90.9</ele>
        <time>2023-01-25T14:13:51Z</time>
      </trkpt>
      <trkpt lat="49.96882" lon="2.37564">
        <ele>90.9</ele>
        <time>2023-01-25T14:13:52Z</time>
      </trkpt>
      <trkpt lat="49.96882" lon="2.37564">
        <ele>90.9</ele>
        <time>2023-01-25T14:13:53Z</time>
      </trkpt>
      <trkpt lat="49.96882" lon="2.37564">
        <ele>90.9</ele>
        <time>2023-01-25T14:13:54Z</time>
      </trkpt>
      <trkpt lat="49.96882" lon="2.37564">
        <ele>90.9</ele>
        <time>2023-01-25T14:13:55Z</time>
      </trkpt>
      <trkpt lat="49.96882" lon="2.37564">
        <ele>90.9</ele>
        <time>2023-01-25T14:13:56Z</time>
      </trkpt>
      <trkpt lat="49.96882" lon="2.37564">
        <ele>90.9</ele>
        <time>2023-01-25T14:13:57Z</time>
      </trkpt>
      <trkpt lat="49.96882" lon="2.37564">
        <ele>90.9</ele>
        <time>2023-01-25T14:13:58Z</time>
      </trkpt>
      <trkpt lat="49.96882" lon="2.37564">
        <ele>90.9</ele>
        <time>2023-01-25T14:13:59Z</time>
      </trkpt>
      <trkpt lat="49.96882" lon="2.37564">
        <ele>90.9</ele>
        <time>2023-01-25T14:14:00Z</time>
      </trkpt>
      <trkpt lat="49.96882" lon="2.37564">
        <ele>90.9</ele>
        <time>2023-01-25T14:14:01Z</time>
      </trkpt>
      <trkpt lat="49.96882" lon="2.37564">
        <ele>90.9</ele>
        <time>2023-01-25T14:14:02Z</time>
      </trkpt>
      <trkpt lat="49.96882" lon="2.37564">
        <ele>90.9</ele>
        <time>2023-01-25T14:14:03Z</time>
      </trkpt>
      <trkpt lat="49.96882" lon="2.37564">
        <ele>90.9</ele>
        <time>2023-01-25T14:14:04Z</time>
      </trkpt>
      <trkpt lat="49.96882" lon="2.37564">
        <ele>90.9</ele>
        <time>2023-01-25T14:14:05Z</time>
      </trkpt>
      <trkpt lat="49.96882" lon="2.37564">
        <ele>90.9</ele>
        <time>2023-01-25T14:14:06Z</time>
      </trkpt>
      <trkpt lat="49.96882" lon="2.37564">
        <ele>90.9</ele>
        <time>2023-01-25T14:14:07Z</time>
      </trkpt>
      <trkpt lat="49.96882" lon="2.37564">
        <ele>90.9</ele>
        <time>2023-01-25T14:14:08Z</time>
      </trkpt>
      <trkpt lat="49.96882" lon="2.37564">
        <ele>90.9</ele>
        <time>2023-01-25T14:14:09Z</time>
      </trkpt>
      <trkpt lat="49.96882" lon="2.37564">
        <ele>90.9</ele>
        <time>2023-01-25T14:14:10Z</time>
      </trkpt>
      <trkpt lat="49.96882" lon="2.37564">
        <ele>90.9</ele>
        <time>2023-01-25T14:14:11Z</time>
      </trkpt>
      <trkpt lat="49.96882" lon="2.37564">
        <ele>90.9</ele>
        <time>2023-01-25T14:14:12Z</time>
      </trkpt>
      <trkpt lat="49.96882" lon="2.37564">
        <ele>90.9</ele>
        <time>2023-01-25T14:14:13Z</time>
      </trkpt>
      <trkpt lat="49.96882" lon="2.37564">
        <ele>90.9</ele>
        <time>2023-01-25T14:14:14Z</time>
      </trkpt>
      <trkpt lat="49.96882" lon="2.37564">
        <ele>90.9</ele>
        <time>2023-01-25T14:14:15Z</time>
      </trkpt>
      <trkpt lat="49.96882" lon="2.37564">
        <ele>90.9</ele>
        <time>2023-01-25T14:14:16Z</time>
      </trkpt>
      <trkpt lat="49.96882" lon="2.37564">
        <ele>90.9</ele>
        <time>2023-01-25T14:14:17Z</time>
      </trkpt>
      <trkpt lat="49.96882" lon="2.37564">
        <ele>90.9</ele>
        <time>2023-01-25T14:14:18Z</time>
      </trkpt>
      <trkpt lat="49.96882" lon="2.37564">
        <ele>90.9</ele>
        <time>2023-01-25T14:14:19Z</time>
      </trkpt>
      <trkpt lat="49.96882" lon="2.37564">
        <ele>90.9</ele>
        <time>2023-01-25T14:14:20Z</time>
      </trkpt>
      <trkpt lat="49.96882" lon="2.37564">
        <ele>90.9</ele>
        <time>2023-01-25T14:14:21Z</time>
      </trkpt>
      <trkpt lat="49.96882" lon="2.37564">
        <ele>90.9</ele>
        <time>2023-01-25T14:14:22Z</time>
      </trkpt>
      <trkpt lat="49.96882" lon="2.37564">
        <ele>90.9</ele>
        <time>2023-01-25T14:14:23Z</time>
      </trkpt>
      <trkpt lat="49.96882" lon="2.37564">
        <ele>90.9</ele>
        <time>2023-01-25T14:14:24Z</time>
      </trkpt>
      <trkpt lat="49.96882" lon="2.37564">
        <ele>90.9</ele>
        <time>2023-01-25T14:14:25Z</time>
      </trkpt>
      <trkpt lat="49.96882" lon="2.37564">
        <ele>90.9</ele>
        <time>2023-01-25T14:14:26Z</time>
      </trkpt>
      <trkpt lat="49.96882" lon="2.37564">
        <ele>90.9</ele>
        <time>2023-01-25T14:14:27Z</time>
      </trkpt>
      <trkpt lat="49.96882" lon="2.37564">
        <ele>90.9</ele>
        <time>2023-01-25T14:14:28Z</time>
      </trkpt>
      <trkpt lat="49.96882" lon="2.37564">
        <ele>90.9</ele>
        <time>2023-01-25T14:14:29Z</time>
      </trkpt>
      <trkpt lat="49.96882" lon="2.37564">
        <ele>90.9</ele>
        <time>2023-01-25T14:14:30Z</time>
      </trkpt>
      <trkpt lat="49.96882" lon="2.37564">
        <ele>90.9</ele>
        <time>2023-01-25T14:14:31Z</time>
      </trkpt>
      <trkpt lat="49.96882" lon="2.37564">
        <ele>90.9</ele>
        <time>2023-01-25T14:14:32Z</time>
      </trkpt>
      <trkpt lat="49.96882" lon="2.37564">
        <ele>90.9</ele>
        <time>2023-01-25T14:14:33Z</time>
      </trkpt>
      <trkpt lat="49.96882" lon="2.37564">
        <ele>90.9</ele>
        <time>2023-01-25T14:14:34Z</time>
      </trkpt>
      <trkpt lat="49.96882" lon="2.37564">
        <ele>90.9</ele>
        <time>2023-01-25T14:14:35Z</time>
      </trkpt>
      <trkpt lat="49.96882" lon="2.37564">
        <ele>90.9</ele>
        <time>2023-01-25T14:14:36Z</time>
      </trkpt>
      <trkpt lat="49.96882" lon="2.37564">
        <ele>90.9</ele>
        <time>2023-01-25T14:14:37Z</time>
      </trkpt>
      <trkpt lat="49.96882" lon="2.37564">
        <ele>90.9</ele>
        <time>2023-01-25T14:14:38Z</time>
      </trkpt>
      <trkpt lat="49.96882" lon="2.37564">
        <ele>90.9</ele>
        <time>2023-01-25T14:14:39Z</time>
      </trkpt>
      <trkpt lat="49.96882" lon="2.37564">
        <ele>90.9</ele>
        <time>2023-01-25T14:14:40Z</time>
      </trkpt>
      <trkpt lat="49.96882" lon="2.37564">
        <ele>90.9</ele>
        <time>2023-01-25T14:14:41Z</time>
      </trkpt>
      <trkpt lat="49.96882" lon="2.37564">
        <ele>90.9</ele>
        <time>2023-01-25T14:14:42Z</time>
      </trkpt>
      <trkpt lat="49.96882" lon="2.37564">
        <ele>90.9</ele>
        <time>2023-01-25T14:14:43Z</time>
      </trkpt>
      <trkpt lat="49.96882" lon="2.37564">
        <ele>90.9</ele>
        <time>2023-01-25T14:14:44Z</time>
      </trkpt>
      <trkpt lat="49.96882" lon="2.37564">
        <ele>90.9</ele>
        <time>2023-01-25T14:14:45Z</time>
      </trkpt>
      <trkpt lat="49.96882" lon="2.37564">
        <ele>90.9</ele>
        <time>2023-01-25T14:14:46Z</time>
      </trkpt>
      <trkpt lat="49.96882" lon="2.37564">
        <ele>90.9</ele>
        <time>2023-01-25T14:14:47Z</time>
      </trkpt>
      <trkpt lat="49.96882" lon="2.37564">
        <ele>90.9</ele>
        <time>2023-01-25T14:14:48Z</time>
      </trkpt>
      <trkpt lat="49.96882" lon="2.37564">
        <ele>90.9</ele>
        <time>2023-01-25T14:14:49Z</time>
      </trkpt>
      <trkpt lat="49.96882" lon="2.37564">
        <ele>90.9</ele>
        <time>2023-01-25T14:14:50Z</time>
      </trkpt>
      <trkpt lat="49.96882" lon="2.37564">
        <ele>90.9</ele>
        <time>2023-01-25T14:14:51Z</time>
      </trkpt>
      <trkpt lat="49.96882" lon="2.37564">
        <ele>90.9</ele>
        <time>2023-01-25T14:14:52Z</time>
      </trkpt>
      <trkpt lat="49.96882" lon="2.37564">
        <ele>90.9</ele>
        <time>2023-01-25T14:14:53Z</time>
      </trkpt>
      <trkpt lat="49.96882" lon="2.37564">
        <ele>90.9</ele>
        <time>2023-01-25T14:14:54Z</time>
      </trkpt>
      <trkpt lat="49.96882" lon="2.37564">
        <ele>90.9</ele>
        <time>2023-01-25T14:14:55Z</time>
      </trkpt>
      <trkpt lat="49.96882" lon="2.37564">
        <ele>90.9</ele>
        <time>2023-01-25T14:14:56Z</time>
      </trkpt>
      <trkpt lat="49.96882" lon="2.37564">
        <ele>90.9</ele>
        <time>2023-01-25T14:14:57Z</time>
      </trkpt>
      <trkpt lat="49.96882" lon="2.37564">
        <ele>90.9</ele>
        <time>2023-01-25T14:14:58Z</time>
      </trkpt>
      <trkpt lat="49.96882" lon="2.37564">
        <ele>90.9</ele>
        <time>2023-01-25T14:14:59Z</time>
      </trkpt>
      <trkpt lat="49.96882" lon="2.37564">
        <ele>90.9</ele>
        <time>2023-01-25T14:15:00Z</time>
      </trkpt>
      <trkpt lat="49.96882" lon="2.37564">
        <ele>90.9</ele>
        <time>2023-01-25T14:15:01Z</time>
      </trkpt>
      <trkpt lat="49.96882" lon="2.37564">
        <ele>90.9</ele>
        <time>2023-01-25T14:15:02Z</time>
      </trkpt>
      <trkpt lat="49.96882" lon="2.37564">
        <ele>90.9</ele>
        <time>2023-01-25T14:15:03Z</time>
      </trkpt>
      <trkpt lat="49.96882" lon="2.37564">
        <ele>90.9</ele>
        <time>2023-01-25T14:15:04Z</time>
      </trkpt>
      <trkpt lat="49.96882" lon="2.37564">
        <ele>90.9</ele>
        <time>2023-01-25T14:15:05Z</time>
      </trkpt>
      <trkpt lat="49.96882" lon="2.37564">
        <ele>90.9</ele>
        <time>2023-01-25T14:15:06Z</time>
      </trkpt>
      <trkpt lat="49.96882" lon="2.37564">
        <ele>90.9</ele>
        <time>2023-01-25T14:15:07Z</time>
      </trkpt>
      <trkpt lat="49.96882" lon="2.37564">
        <ele>90.9</ele>
        <time>2023-01-25T14:15:08Z</time>
      </trkpt>
      <trkpt lat="49.96882" lon="2.37564">
        <ele>90.9</ele>
        <time>2023-01-25T14:15:09Z</time>
      </trkpt>
      <trkpt lat="49.96882" lon="2.37564">
        <ele>90.9</ele>
        <time>2023-01-25T14:15:10Z</time>
      </trkpt>
      <trkpt lat="49.96882" lon="2.37565">
        <ele>90.9</ele>
        <time>2023-01-25T14:15:11Z</time>
      </trkpt>
      <trkpt lat="49.96881" lon="2.37565">
        <ele>90.9</ele>
        <time>2023-01-25T14:15:12Z</time>
      </trkpt>
      <trkpt lat="49.96881" lon="2.37564">
        <ele>91</ele>
        <time>2023-01-25T14:15:13Z</time>
      </trkpt>
      <trkpt lat="49.96881" lon="2.37563">
        <ele>91</ele>
        <time>2023-01-25T14:15:14Z</time>
      </trkpt>
      <trkpt lat="49.96881" lon="2.37561">
        <ele>91</ele>
        <time>2023-01-25T14:15:15Z</time>
      </trkpt>
      <trkpt lat="49.96881" lon="2.3756">
        <ele>91</ele>
        <time>2023-01-25T14:15:16Z</time>
      </trkpt>
      <trkpt lat="49.96881" lon="2.37558">
        <ele>91</ele>
        <time>2023-01-25T14:15:17Z</time>
      </trkpt>
      <trkpt lat="49.96881" lon="2.37555">
        <ele>91</ele>
        <time>2023-01-25T14:15:18Z</time>
      </trkpt>
      <trkpt lat="49.96881" lon="2.37553">
        <ele>91.1</ele>
        <time>2023-01-25T14:15:19Z</time>
      </trkpt>
      <trkpt lat="49.96882" lon="2.37552">
        <ele>91.1</ele>
        <time>2023-01-25T14:15:20Z</time>
      </trkpt>
      <trkpt lat="49.96882" lon="2.3755">
        <ele>91.1</ele>
        <time>2023-01-25T14:15:21Z</time>
      </trkpt>
      <trkpt lat="49.96882" lon="2.37548">
        <ele>91.1</ele>
        <time>2023-01-25T14:15:22Z</time>
      </trkpt>
      <trkpt lat="49.96882" lon="2.37547">
        <ele>91.1</ele>
        <time>2023-01-25T14:15:23Z</time>
      </trkpt>
      <trkpt lat="49.96882" lon="2.37546">
        <ele>91.1</ele>
        <time>2023-01-25T14:15:24Z</time>
      </trkpt>
      <trkpt lat="49.96883" lon="2.37543">
        <ele>91.2</ele>
        <time>2023-01-25T14:15:25Z</time>
      </trkpt>
      <trkpt lat="49.96883" lon="2.37542">
        <ele>91.2</ele>
        <time>2023-01-25T14:15:26Z</time>
      </trkpt>
      <trkpt lat="49.96884" lon="2.37539">
        <ele>91.2</ele>
        <time>2023-01-25T14:15:27Z</time>
      </trkpt>
      <trkpt lat="49.96884" lon="2.37538">
        <ele>91.3</ele>
        <time>2023-01-25T14:15:28Z</time>
      </trkpt>
      <trkpt lat="49.96885" lon="2.37536">
        <ele>91.3</ele>
        <time>2023-01-25T14:15:29Z</time>
      </trkpt>
      <trkpt lat="49.96885" lon="2.37535">
        <ele>91.3</ele>
        <time>2023-01-25T14:15:30Z</time>
      </trkpt>
      <trkpt lat="49.96886" lon="2.37532">
        <ele>91.3</ele>
        <time>2023-01-25T14:15:31Z</time>
      </trkpt>
      <trkpt lat="49.96887" lon="2.37531">
        <ele>91.3</ele>
        <time>2023-01-25T14:15:32Z</time>
      </trkpt>
      <trkpt lat="49.96887" lon="2.3753">
        <ele>91.4</ele>
        <time>2023-01-25T14:15:33Z</time>
      </trkpt>
      <trkpt lat="49.96888" lon="2.37528">
        <ele>91.4</ele>
        <time>2023-01-25T14:15:34Z</time>
      </trkpt>
      <trkpt lat="49.96888" lon="2.37527">
        <ele>91.4</ele>
        <time>2023-01-25T14:15:35Z</time>
      </trkpt>
      <trkpt lat="49.96889" lon="2.37524">
        <ele>91.4</ele>
        <time>2023-01-25T14:15:36Z</time>
      </trkpt>
      <trkpt lat="49.96889" lon="2.37523">
        <ele>91.5</ele>
        <time>2023-01-25T14:15:37Z</time>
      </trkpt>
      <trkpt lat="49.9689" lon="2.37521">
        <ele>91.5</ele>
        <time>2023-01-25T14:15:38Z</time>
      </trkpt>
      <trkpt lat="49.9689" lon="2.37519">
        <ele>91.5</ele>
        <time>2023-01-25T14:15:39Z</time>
      </trkpt>
      <trkpt lat="49.96891" lon="2.37518">
        <ele>91.5</ele>
        <time>2023-01-25T14:15:40Z</time>
      </trkpt>
      <trkpt lat="49.96892" lon="2.37514">
        <ele>91.5</ele>
        <time>2023-01-25T14:15:42Z</time>
      </trkpt>
      <trkpt lat="49.96893" lon="2.37511">
        <ele>91.6</ele>
        <time>2023-01-25T14:15:43Z</time>
      </trkpt>
      <trkpt lat="49.96894" lon="2.3751">
        <ele>91.6</ele>
        <time>2023-01-25T14:15:44Z</time>
      </trkpt>
      <trkpt lat="49.96894" lon="2.37509">
        <ele>91.6</ele>
        <time>2023-01-25T14:15:45Z</time>
      </trkpt>
      <trkpt lat="49.96895" lon="2.37506">
        <ele>91.6</ele>
        <time>2023-01-25T14:15:46Z</time>
      </trkpt>
      <trkpt lat="49.96895" lon="2.37505">
        <ele>91.6</ele>
        <time>2023-01-25T14:15:47Z</time>
      </trkpt>
      <trkpt lat="49.96896" lon="2.37502">
        <ele>91.6</ele>
        <time>2023-01-25T14:15:49Z</time>
      </trkpt>
      <trkpt lat="49.96897" lon="2.375">
        <ele>91.6</ele>
        <time>2023-01-25T14:15:50Z</time>
      </trkpt>
      <trkpt lat="49.96898" lon="2.37499">
        <ele>91.7</ele>
        <time>2023-01-25T14:15:51Z</time>
      </trkpt>
      <trkpt lat="49.96898" lon="2.37498">
        <ele>91.7</ele>
        <time>2023-01-25T14:15:52Z</time>
      </trkpt>
      <trkpt lat="49.96899" lon="2.37497">
        <ele>91.7</ele>
        <time>2023-01-25T14:15:53Z</time>
      </trkpt>
      <trkpt lat="49.969" lon="2.37496">
        <ele>91.7</ele>
        <time>2023-01-25T14:15:54Z</time>
      </trkpt>
      <trkpt lat="49.96901" lon="2.37494">
        <ele>91.7</ele>
        <time>2023-01-25T14:15:55Z</time>
      </trkpt>
      <trkpt lat="49.96902" lon="2.37493">
        <ele>91.7</ele>
        <time>2023-01-25T14:15:56Z</time>
      </trkpt>
      <trkpt lat="49.96902" lon="2.37492">
        <ele>91.7</ele>
        <time>2023-01-25T14:15:57Z</time>
      </trkpt>
      <trkpt lat="49.96903" lon="2.3749">
        <ele>91.7</ele>
        <time>2023-01-25T14:15:59Z</time>
      </trkpt>
      <trkpt lat="49.96904" lon="2.37488">
        <ele>91.8</ele>
        <time>2023-01-25T14:16:00Z</time>
      </trkpt>
      <trkpt lat="49.96905" lon="2.37485">
        <ele>91.8</ele>
        <time>2023-01-25T14:16:01Z</time>
      </trkpt>
      <trkpt lat="49.96905" lon="2.37484">
        <ele>91.8</ele>
        <time>2023-01-25T14:16:02Z</time>
      </trkpt>
      <trkpt lat="49.96906" lon="2.37483">
        <ele>91.8</ele>
        <time>2023-01-25T14:16:03Z</time>
      </trkpt>
      <trkpt lat="49.96906" lon="2.37481">
        <ele>91.8</ele>
        <time>2023-01-25T14:16:04Z</time>
      </trkpt>
      <trkpt lat="49.96907" lon="2.37478">
        <ele>91.9</ele>
        <time>2023-01-25T14:16:05Z</time>
      </trkpt>
      <trkpt lat="49.96908" lon="2.37475">
        <ele>91.9</ele>
        <time>2023-01-25T14:16:07Z</time>
      </trkpt>
      <trkpt lat="49.96909" lon="2.37474">
        <ele>91.9</ele>
        <time>2023-01-25T14:16:08Z</time>
      </trkpt>
      <trkpt lat="49.96909" lon="2.37473">
        <ele>91.9</ele>
        <time>2023-01-25T14:16:09Z</time>
      </trkpt>
      <trkpt lat="49.96909" lon="2.37472">
        <ele>92</ele>
        <time>2023-01-25T14:16:10Z</time>
      </trkpt>
      <trkpt lat="49.9691" lon="2.37469">
        <ele>92</ele>
        <time>2023-01-25T14:16:11Z</time>
      </trkpt>
      <trkpt lat="49.9691" lon="2.37468">
        <ele>92</ele>
        <time>2023-01-25T14:16:12Z</time>
      </trkpt>
      <trkpt lat="49.96911" lon="2.37466">
        <ele>92</ele>
        <time>2023-01-25T14:16:13Z</time>
      </trkpt>
      <trkpt lat="49.96912" lon="2.37464">
        <ele>92.1</ele>
        <time>2023-01-25T14:16:15Z</time>
      </trkpt>
      <trkpt lat="49.96913" lon="2.37461">
        <ele>92.1</ele>
        <time>2023-01-25T14:16:16Z</time>
      </trkpt>
      <trkpt lat="49.96913" lon="2.3746">
        <ele>92.1</ele>
        <time>2023-01-25T14:16:17Z</time>
      </trkpt>
      <trkpt lat="49.96913" lon="2.37458">
        <ele>92.1</ele>
        <time>2023-01-25T14:16:18Z</time>
      </trkpt>
      <trkpt lat="49.96914" lon="2.37457">
        <ele>92.2</ele>
        <time>2023-01-25T14:16:19Z</time>
      </trkpt>
      <trkpt lat="49.96914" lon="2.37455">
        <ele>92.2</ele>
        <time>2023-01-25T14:16:20Z</time>
      </trkpt>
      <trkpt lat="49.96914" lon="2.37454">
        <ele>92.2</ele>
        <time>2023-01-25T14:16:21Z</time>
      </trkpt>
      <trkpt lat="49.96915" lon="2.37452">
        <ele>92.2</ele>
        <time>2023-01-25T14:16:22Z</time>
      </trkpt>
      <trkpt lat="49.96915" lon="2.37451">
        <ele>92.2</ele>
        <time>2023-01-25T14:16:23Z</time>
      </trkpt>
      <trkpt lat="49.96916" lon="2.37449">
        <ele>92.3</ele>
        <time>2023-01-25T14:16:25Z</time>
      </trkpt>
      <trkpt lat="49.96916" lon="2.37448">
        <ele>92.3</ele>
        <time>2023-01-25T14:16:26Z</time>
      </trkpt>
      <trkpt lat="49.96917" lon="2.37446">
        <ele>92.3</ele>
        <time>2023-01-25T14:16:27Z</time>
      </trkpt>
      <trkpt lat="49.96918" lon="2.37444">
        <ele>92.3</ele>
        <time>2023-01-25T14:16:28Z</time>
      </trkpt>
      <trkpt lat="49.96919" lon="2.37442">
        <ele>92.4</ele>
        <time>2023-01-25T14:16:29Z</time>
      </trkpt>
      <trkpt lat="49.96919" lon="2.37441">
        <ele>92.4</ele>
        <time>2023-01-25T14:16:30Z</time>
      </trkpt>
      <trkpt lat="49.9692" lon="2.3744">
        <ele>92.4</ele>
        <time>2023-01-25T14:16:31Z</time>
      </trkpt>
      <trkpt lat="49.9692" lon="2.37438">
        <ele>92.4</ele>
        <time>2023-01-25T14:16:32Z</time>
      </trkpt>
      <trkpt lat="49.96921" lon="2.37437">
        <ele>92.4</ele>
        <time>2023-01-25T14:16:33Z</time>
      </trkpt>
      <trkpt lat="49.96921" lon="2.37436">
        <ele>92.4</ele>
        <time>2023-01-25T14:16:34Z</time>
      </trkpt>
      <trkpt lat="49.96922" lon="2.37435">
        <ele>92.5</ele>
        <time>2023-01-25T14:16:36Z</time>
      </trkpt>
      <trkpt lat="49.96923" lon="2.37433">
        <ele>92.5</ele>
        <time>2023-01-25T14:16:37Z</time>
      </trkpt>
      <trkpt lat="49.96923" lon="2.37431">
        <ele>92.5</ele>
        <time>2023-01-25T14:16:38Z</time>
      </trkpt>
      <trkpt lat="49.96924" lon="2.3743">
        <ele>92.5</ele>
        <time>2023-01-25T14:16:39Z</time>
      </trkpt>
      <trkpt lat="49.96924" lon="2.37428">
        <ele>92.6</ele>
        <time>2023-01-25T14:16:40Z</time>
      </trkpt>
      <trkpt lat="49.96925" lon="2.37425">
        <ele>92.6</ele>
        <time>2023-01-25T14:16:41Z</time>
      </trkpt>
      <trkpt lat="49.96925" lon="2.37425">
        <ele>92.6</ele>
        <time>2023-01-25T14:16:42Z</time>
      </trkpt>
      <trkpt lat="49.96925" lon="2.37423">
        <ele>92.6</ele>
        <time>2023-01-25T14:16:43Z</time>
      </trkpt>
      <trkpt lat="49.96926" lon="2.37421">
        <ele>92.6</ele>
        <time>2023-01-25T14:16:44Z</time>
      </trkpt>
      <trkpt lat="49.96926" lon="2.37419">
        <ele>92.7</ele>
        <time>2023-01-25T14:16:46Z</time>
      </trkpt>
      <trkpt lat="49.96927" lon="2.37416">
        <ele>92.7</ele>
        <time>2023-01-25T14:16:47Z</time>
      </trkpt>
      <trkpt lat="49.96927" lon="2.37414">
        <ele>92.7</ele>
        <time>2023-01-25T14:16:48Z</time>
      </trkpt>
      <trkpt lat="49.96928" lon="2.37411">
        <ele>92.8</ele>
        <time>2023-01-25T14:16:49Z</time>
      </trkpt>
      <trkpt lat="49.96928" lon="2.3741">
        <ele>92.8</ele>
        <time>2023-01-25T14:16:50Z</time>
      </trkpt>
      <trkpt lat="49.96928" lon="2.37409">
        <ele>92.8</ele>
        <time>2023-01-25T14:16:51Z</time>
      </trkpt>
      <trkpt lat="49.96929" lon="2.37408">
        <ele>92.8</ele>
        <time>2023-01-25T14:16:52Z</time>
      </trkpt>
      <trkpt lat="49.96929" lon="2.37406">
        <ele>92.9</ele>
        <time>2023-01-25T14:16:53Z</time>
      </trkpt>
      <trkpt lat="49.9693" lon="2.37405">
        <ele>92.9</ele>
        <time>2023-01-25T14:16:54Z</time>
      </trkpt>
      <trkpt lat="49.9693" lon="2.37403">
        <ele>92.9</ele>
        <time>2023-01-25T14:16:56Z</time>
      </trkpt>
      <trkpt lat="49.96931" lon="2.37401">
        <ele>92.9</ele>
        <time>2023-01-25T14:16:57Z</time>
      </trkpt>
      <trkpt lat="49.96932" lon="2.37399">
        <ele>93</ele>
        <time>2023-01-25T14:16:58Z</time>
      </trkpt>
      <trkpt lat="49.96932" lon="2.37398">
        <ele>93</ele>
        <time>2023-01-25T14:16:59Z</time>
      </trkpt>
      <trkpt lat="49.96933" lon="2.37396">
        <ele>93</ele>
        <time>2023-01-25T14:17:00Z</time>
      </trkpt>
      <trkpt lat="49.96933" lon="2.37392">
        <ele>93.1</ele>
        <time>2023-01-25T14:17:01Z</time>
      </trkpt>
      <trkpt lat="49.96933" lon="2.37391">
        <ele>93.1</ele>
        <time>2023-01-25T14:17:02Z</time>
      </trkpt>
      <trkpt lat="49.96933" lon="2.3739">
        <ele>93.1</ele>
        <time>2023-01-25T14:17:03Z</time>
      </trkpt>
      <trkpt lat="49.96934" lon="2.37387">
        <ele>93.1</ele>
        <time>2023-01-25T14:17:04Z</time>
      </trkpt>
      <trkpt lat="49.96934" lon="2.37386">
        <ele>93.1</ele>
        <time>2023-01-25T14:17:06Z</time>
      </trkpt>
      <trkpt lat="49.96934" lon="2.37384">
        <ele>93.2</ele>
        <time>2023-01-25T14:17:07Z</time>
      </trkpt>
      <trkpt lat="49.96935" lon="2.37383">
        <ele>93.2</ele>
        <time>2023-01-25T14:17:08Z</time>
      </trkpt>
      <trkpt lat="49.96935" lon="2.37381">
        <ele>93.2</ele>
        <time>2023-01-25T14:17:09Z</time>
      </trkpt>
      <trkpt lat="49.96935" lon="2.37379">
        <ele>93.2</ele>
        <time>2023-01-25T14:17:10Z</time>
      </trkpt>
      <trkpt lat="49.96936" lon="2.37378">
        <ele>93.2</ele>
        <time>2023-01-25T14:17:11Z</time>
      </trkpt>
      <trkpt lat="49.96936" lon="2.37376">
        <ele>93.3</ele>
        <time>2023-01-25T14:17:12Z</time>
      </trkpt>
      <trkpt lat="49.96936" lon="2.37374">
        <ele>93.3</ele>
        <time>2023-01-25T14:17:13Z</time>
      </trkpt>
      <trkpt lat="49.96936" lon="2.37372">
        <ele>93.3</ele>
        <time>2023-01-25T14:17:14Z</time>
      </trkpt>
      <trkpt lat="49.96937" lon="2.37371">
        <ele>93.3</ele>
        <time>2023-01-25T14:17:15Z</time>
      </trkpt>
      <trkpt lat="49.96937" lon="2.37369">
        <ele>93.3</ele>
        <time>2023-01-25T14:17:17Z</time>
      </trkpt>
      <trkpt lat="49.96937" lon="2.37367">
        <ele>93.4</ele>
        <time>2023-01-25T14:17:18Z</time>
      </trkpt>
      <trkpt lat="49.96938" lon="2.37365">
        <ele>93.4</ele>
        <time>2023-01-25T14:17:19Z</time>
      </trkpt>
      <trkpt lat="49.96938" lon="2.37363">
        <ele>93.4</ele>
        <time>2023-01-25T14:17:20Z</time>
      </trkpt>
      <trkpt lat="49.96938" lon="2.37361">
        <ele>93.4</ele>
        <time>2023-01-25T14:17:21Z</time>
      </trkpt>
      <trkpt lat="49.96939" lon="2.37359">
        <ele>93.5</ele>
        <time>2023-01-25T14:17:22Z</time>
      </trkpt>
      <trkpt lat="49.96939" lon="2.37358">
        <ele>93.5</ele>
        <time>2023-01-25T14:17:23Z</time>
      </trkpt>
      <trkpt lat="49.9694" lon="2.37356">
        <ele>93.5</ele>
        <time>2023-01-25T14:17:24Z</time>
      </trkpt>
      <trkpt lat="49.9694" lon="2.37354">
        <ele>93.5</ele>
        <time>2023-01-25T14:17:25Z</time>
      </trkpt>
      <trkpt lat="49.96941" lon="2.37352">
        <ele>93.6</ele>
        <time>2023-01-25T14:17:27Z</time>
      </trkpt>
      <trkpt lat="49.96942" lon="2.3735">
        <ele>93.6</ele>
        <time>2023-01-25T14:17:28Z</time>
      </trkpt>
      <trkpt lat="49.96942" lon="2.37349">
        <ele>93.6</ele>
        <time>2023-01-25T14:17:29Z</time>
      </trkpt>
      <trkpt lat="49.96943" lon="2.37346">
        <ele>93.6</ele>
        <time>2023-01-25T14:17:30Z</time>
      </trkpt>
      <trkpt lat="49.96943" lon="2.37345">
        <ele>93.6</ele>
        <time>2023-01-25T14:17:31Z</time>
      </trkpt>
      <trkpt lat="49.96944" lon="2.37344">
        <ele>93.7</ele>
        <time>2023-01-25T14:17:32Z</time>
      </trkpt>
      <trkpt lat="49.96944" lon="2.37342">
        <ele>93.7</ele>
        <time>2023-01-25T14:17:33Z</time>
      </trkpt>
      <trkpt lat="49.96944" lon="2.37341">
        <ele>93.7</ele>
        <time>2023-01-25T14:17:34Z</time>
      </trkpt>
      <trkpt lat="49.96945" lon="2.37339">
        <ele>93.7</ele>
        <time>2023-01-25T14:17:35Z</time>
      </trkpt>
      <trkpt lat="49.96946" lon="2.37336">
        <ele>93.8</ele>
        <time>2023-01-25T14:17:36Z</time>
      </trkpt>
      <trkpt lat="49.96946" lon="2.37335">
        <ele>93.8</ele>
        <time>2023-01-25T14:17:38Z</time>
      </trkpt>
      <trkpt lat="49.96946" lon="2.37334">
        <ele>93.8</ele>
        <time>2023-01-25T14:17:39Z</time>
      </trkpt>
      <trkpt lat="49.96947" lon="2.37331">
        <ele>93.8</ele>
        <time>2023-01-25T14:17:40Z</time>
      </trkpt>
      <trkpt lat="49.96947" lon="2.3733">
        <ele>93.8</ele>
        <time>2023-01-25T14:17:41Z</time>
      </trkpt>
      <trkpt lat="49.96947" lon="2.37328">
        <ele>93.8</ele>
        <time>2023-01-25T14:17:42Z</time>
      </trkpt>
      <trkpt lat="49.96948" lon="2.37327">
        <ele>93.9</ele>
        <time>2023-01-25T14:17:43Z</time>
      </trkpt>
      <trkpt lat="49.96948" lon="2.37325">
        <ele>93.9</ele>
        <time>2023-01-25T14:17:44Z</time>
      </trkpt>
      <trkpt lat="49.96948" lon="2.37323">
        <ele>93.9</ele>
        <time>2023-01-25T14:17:45Z</time>
      </trkpt>
      <trkpt lat="49.96949" lon="2.37322">
        <ele>93.9</ele>
        <time>2023-01-25T14:17:46Z</time>
      </trkpt>
      <trkpt lat="49.96949" lon="2.3732">
        <ele>93.9</ele>
        <time>2023-01-25T14:17:47Z</time>
      </trkpt>
      <trkpt lat="49.9695" lon="2.37318">
        <ele>94</ele>
        <time>2023-01-25T14:17:48Z</time>
      </trkpt>
      <trkpt lat="49.9695" lon="2.37317">
        <ele>94</ele>
        <time>2023-01-25T14:17:50Z</time>
      </trkpt>
      <trkpt lat="49.96951" lon="2.37315">
        <ele>94</ele>
        <time>2023-01-25T14:17:51Z</time>
      </trkpt>
      <trkpt lat="49.96951" lon="2.37313">
        <ele>94</ele>
        <time>2023-01-25T14:17:52Z</time>
      </trkpt>
      <trkpt lat="49.96952" lon="2.3731">
        <ele>94.1</ele>
        <time>2023-01-25T14:17:53Z</time>
      </trkpt>
      <trkpt lat="49.96952" lon="2.37309">
        <ele>94.1</ele>
        <time>2023-01-25T14:17:54Z</time>
      </trkpt>
      <trkpt lat="49.96953" lon="2.37308">
        <ele>94.1</ele>
        <time>2023-01-25T14:17:55Z</time>
      </trkpt>
      <trkpt lat="49.96953" lon="2.37306">
        <ele>94.1</ele>
        <time>2023-01-25T14:17:56Z</time>
      </trkpt>
      <trkpt lat="49.96953" lon="2.37304">
        <ele>94.1</ele>
        <time>2023-01-25T14:17:57Z</time>
      </trkpt>
      <trkpt lat="49.96953" lon="2.37303">
        <ele>94.2</ele>
        <time>2023-01-25T14:17:58Z</time>
      </trkpt>
      <trkpt lat="49.96954" lon="2.373">
        <ele>94.2</ele>
        <time>2023-01-25T14:17:59Z</time>
      </trkpt>
      <trkpt lat="49.96954" lon="2.37299">
        <ele>94.2</ele>
        <time>2023-01-25T14:18:01Z</time>
      </trkpt>
      <trkpt lat="49.96955" lon="2.37297">
        <ele>94.2</ele>
        <time>2023-01-25T14:18:02Z</time>
      </trkpt>
      <trkpt lat="49.96955" lon="2.37294">
        <ele>94.3</ele>
        <time>2023-01-25T14:18:03Z</time>
      </trkpt>
      <trkpt lat="49.96956" lon="2.37293">
        <ele>94.3</ele>
        <time>2023-01-25T14:18:04Z</time>
      </trkpt>
      <trkpt lat="49.96956" lon="2.37291">
        <ele>94.3</ele>
        <time>2023-01-25T14:18:05Z</time>
      </trkpt>
      <trkpt lat="49.96957" lon="2.37289">
        <ele>94.3</ele>
        <time>2023-01-25T14:18:06Z</time>
      </trkpt>
      <trkpt lat="49.96957" lon="2.37287">
        <ele>94.4</ele>
        <time>2023-01-25T14:18:07Z</time>
      </trkpt>
      <trkpt lat="49.96958" lon="2.37283">
        <ele>94.4</ele>
        <time>2023-01-25T14:18:08Z</time>
      </trkpt>
      <trkpt lat="49.96959" lon="2.37282">
        <ele>94.4</ele>
        <time>2023-01-25T14:18:10Z</time>
      </trkpt>
      <trkpt lat="49.96959" lon="2.3728">
        <ele>94.5</ele>
        <time>2023-01-25T14:18:11Z</time>
      </trkpt>
      <trkpt lat="49.9696" lon="2.37279">
        <ele>94.5</ele>
        <time>2023-01-25T14:18:12Z</time>
      </trkpt>
      <trkpt lat="49.9696" lon="2.37277">
        <ele>94.5</ele>
        <time>2023-01-25T14:18:13Z</time>
      </trkpt>
      <trkpt lat="49.96961" lon="2.37275">
        <ele>94.5</ele>
        <time>2023-01-25T14:18:14Z</time>
      </trkpt>
      <trkpt lat="49.96962" lon="2.37273">
        <ele>94.6</ele>
        <time>2023-01-25T14:18:16Z</time>
      </trkpt>
      <trkpt lat="49.96963" lon="2.3727">
        <ele>94.6</ele>
        <time>2023-01-25T14:18:17Z</time>
      </trkpt>
      <trkpt lat="49.96963" lon="2.37269">
        <ele>94.6</ele>
        <time>2023-01-25T14:18:18Z</time>
      </trkpt>
      <trkpt lat="49.96963" lon="2.37267">
        <ele>94.6</ele>
        <time>2023-01-25T14:18:19Z</time>
      </trkpt>
      <trkpt lat="49.96963" lon="2.37265">
        <ele>94.7</ele>
        <time>2023-01-25T14:18:21Z</time>
      </trkpt>
      <trkpt lat="49.96963" lon="2.37262">
        <ele>94.7</ele>
        <time>2023-01-25T14:18:22Z</time>
      </trkpt>
      <trkpt lat="49.96962" lon="2.37261">
        <ele>94.7</ele>
        <time>2023-01-25T14:18:23Z</time>
      </trkpt>
      <trkpt lat="49.96962" lon="2.37259">
        <ele>94.7</ele>
        <time>2023-01-25T14:18:24Z</time>
      </trkpt>
      <trkpt lat="49.96961" lon="2.37258">
        <ele>94.8</ele>
        <time>2023-01-25T14:18:25Z</time>
      </trkpt>
      <trkpt lat="49.96961" lon="2.37256">
        <ele>94.8</ele>
        <time>2023-01-25T14:18:26Z</time>
      </trkpt>
      <trkpt lat="49.96959" lon="2.37255">
        <ele>94.8</ele>
        <time>2023-01-25T14:18:27Z</time>
      </trkpt>
      <trkpt lat="49.96958" lon="2.37255">
        <ele>94.8</ele>
        <time>2023-01-25T14:18:28Z</time>
      </trkpt>
      <trkpt lat="49.96957" lon="2.37256">
        <ele>94.9</ele>
        <time>2023-01-25T14:18:30Z</time>
      </trkpt>
      <trkpt lat="49.96957" lon="2.37257">
        <ele>94.9</ele>
        <time>2023-01-25T14:18:31Z</time>
      </trkpt>
      <trkpt lat="49.96957" lon="2.37258">
        <ele>94.9</ele>
        <time>2023-01-25T14:18:32Z</time>
      </trkpt>
      <trkpt lat="49.96957" lon="2.37258">
        <ele>94.9</ele>
        <time>2023-01-25T14:18:34Z</time>
      </trkpt>
      <trkpt lat="49.96957" lon="2.37258">
        <ele>94.9</ele>
        <time>2023-01-25T14:18:35Z</time>
      </trkpt>
      <trkpt lat="49.96957" lon="2.37258">
        <ele>94.9</ele>
        <time>2023-01-25T14:18:36Z</time>
      </trkpt>
      <trkpt lat="49.96956" lon="2.37258">
        <ele>94.9</ele>
        <time>2023-01-25T14:18:37Z</time>
      </trkpt>
      <trkpt lat="49.96956" lon="2.37258">
        <ele>94.9</ele>
        <time>2023-01-25T14:18:39Z</time>
      </trkpt>
      <trkpt lat="49.96956" lon="2.37258">
        <ele>94.9</ele>
        <time>2023-01-25T14:18:40Z</time>
      </trkpt>
      <trkpt lat="49.96956" lon="2.37258">
        <ele>94.9</ele>
        <time>2023-01-25T14:18:41Z</time>
      </trkpt>
      <trkpt lat="49.96956" lon="2.37258">
        <ele>94.9</ele>
        <time>2023-01-25T14:18:42Z</time>
      </trkpt>
      <trkpt lat="49.96956" lon="2.37258">
        <ele>94.9</ele>
        <time>2023-01-25T14:18:44Z</time>
      </trkpt>
      <trkpt lat="49.96955" lon="2.37259">
        <ele>94.9</ele>
        <time>2023-01-25T14:18:45Z</time>
      </trkpt>
      <trkpt lat="49.96955" lon="2.37259">
        <ele>94.9</ele>
        <time>2023-01-25T14:18:46Z</time>
      </trkpt>
      <trkpt lat="49.96955" lon="2.37259">
        <ele>94.9</ele>
        <time>2023-01-25T14:18:48Z</time>
      </trkpt>
      <trkpt lat="49.96955" lon="2.37259">
        <ele>94.9</ele>
        <time>2023-01-25T14:18:49Z</time>
      </trkpt>
      <trkpt lat="49.96955" lon="2.37259">
        <ele>94.9</ele>
        <time>2023-01-25T14:18:51Z</time>
      </trkpt>
      <trkpt lat="49.96956" lon="2.3726">
        <ele>95</ele>
        <time>2023-01-25T14:18:53Z</time>
      </trkpt>
      <trkpt lat="49.96957" lon="2.3726">
        <ele>95</ele>
        <time>2023-01-25T14:18:55Z</time>
      </trkpt>
      <trkpt lat="49.96959" lon="2.3726">
        <ele>95</ele>
        <time>2023-01-25T14:18:59Z</time>
      </trkpt>
      <trkpt lat="49.96962" lon="2.3726">
        <ele>95.1</ele>
        <time>2023-01-25T14:19:01Z</time>
      </trkpt>
      <trkpt lat="49.96961" lon="2.3726">
        <ele>95.1</ele>
        <time>2023-01-25T14:19:02Z</time>
      </trkpt>
      <trkpt lat="49.96961" lon="2.3726">
        <ele>95.1</ele>
        <time>2023-01-25T14:19:03Z</time>
      </trkpt>
      <trkpt lat="49.96961" lon="2.3726">
        <ele>95.1</ele>
        <time>2023-01-25T14:19:04Z</time>
      </trkpt>
      <trkpt lat="49.96961" lon="2.3726">
        <ele>95.1</ele>
        <time>2023-01-25T14:19:06Z</time>
      </trkpt>
      <trkpt lat="49.96961" lon="2.3726">
        <ele>95.1</ele>
        <time>2023-01-25T14:19:07Z</time>
      </trkpt>
      <trkpt lat="49.96963" lon="2.3726">
        <ele>95.1</ele>
        <time>2023-01-25T14:19:08Z</time>
      </trkpt>
      <trkpt lat="49.96963" lon="2.3726">
        <ele>95.1</ele>
        <time>2023-01-25T14:19:09Z</time>
      </trkpt>
      <trkpt lat="49.96964" lon="2.3726">
        <ele>95.2</ele>
        <time>2023-01-25T14:19:10Z</time>
      </trkpt>
      <trkpt lat="49.96965" lon="2.37259">
        <ele>95.2</ele>
        <time>2023-01-25T14:19:11Z</time>
      </trkpt>
      <trkpt lat="49.96966" lon="2.37257">
        <ele>95.2</ele>
        <time>2023-01-25T14:19:12Z</time>
      </trkpt>
      <trkpt lat="49.96967" lon="2.37254">
        <ele>95.2</ele>
        <time>2023-01-25T14:19:13Z</time>
      </trkpt>
      <trkpt lat="49.96968" lon="2.37251">
        <ele>95.3</ele>
        <time>2023-01-25T14:19:14Z</time>
      </trkpt>
      <trkpt lat="49.96968" lon="2.37249">
        <ele>95.3</ele>
        <time>2023-01-25T14:19:16Z</time>
      </trkpt>
      <trkpt lat="49.96969" lon="2.37247">
        <ele>95.4</ele>
        <time>2023-01-25T14:19:17Z</time>
      </trkpt>
      <trkpt lat="49.9697" lon="2.37245">
        <ele>95.4</ele>
        <time>2023-01-25T14:19:18Z</time>
      </trkpt>
      <trkpt lat="49.96971" lon="2.37244">
        <ele>95.4</ele>
        <time>2023-01-25T14:19:19Z</time>
      </trkpt>
      <trkpt lat="49.96971" lon="2.37242">
        <ele>95.4</ele>
        <time>2023-01-25T14:19:20Z</time>
      </trkpt>
      <trkpt lat="49.96972" lon="2.37241">
        <ele>95.5</ele>
        <time>2023-01-25T14:19:21Z</time>
      </trkpt>
      <trkpt lat="49.96972" lon="2.37239">
        <ele>95.5</ele>
        <time>2023-01-25T14:19:22Z</time>
      </trkpt>
      <trkpt lat="49.96972" lon="2.37238">
        <ele>95.5</ele>
        <time>2023-01-25T14:19:23Z</time>
      </trkpt>
      <trkpt lat="49.96972" lon="2.37237">
        <ele>95.5</ele>
        <time>2023-01-25T14:19:25Z</time>
      </trkpt>
      <trkpt lat="49.96971" lon="2.37236">
        <ele>95.5</ele>
        <time>2023-01-25T14:19:26Z</time>
      </trkpt>
      <trkpt lat="49.96971" lon="2.37232">
        <ele>95.6</ele>
        <time>2023-01-25T14:19:27Z</time>
      </trkpt>
      <trkpt lat="49.96971" lon="2.3723">
        <ele>95.6</ele>
        <time>2023-01-25T14:19:28Z</time>
      </trkpt>
      <trkpt lat="49.96971" lon="2.37228">
        <ele>95.7</ele>
        <time>2023-01-25T14:19:29Z</time>
      </trkpt>
      <trkpt lat="49.96972" lon="2.37225">
        <ele>95.7</ele>
        <time>2023-01-25T14:19:30Z</time>
      </trkpt>
      <trkpt lat="49.96972" lon="2.37223">
        <ele>95.7</ele>
        <time>2023-01-25T14:19:31Z</time>
      </trkpt>
      <trkpt lat="49.96972" lon="2.37222">
        <ele>95.7</ele>
        <time>2023-01-25T14:19:32Z</time>
      </trkpt>
      <trkpt lat="49.96973" lon="2.37221">
        <ele>95.8</ele>
        <time>2023-01-25T14:19:34Z</time>
      </trkpt>
      <trkpt lat="49.96973" lon="2.3722">
        <ele>95.8</ele>
        <time>2023-01-25T14:19:35Z</time>
      </trkpt>
      <trkpt lat="49.96973" lon="2.37218">
        <ele>95.8</ele>
        <time>2023-01-25T14:19:36Z</time>
      </trkpt>
      <trkpt lat="49.96973" lon="2.37217">
        <ele>95.8</ele>
        <time>2023-01-25T14:19:37Z</time>
      </trkpt>
      <trkpt lat="49.96974" lon="2.37215">
        <ele>95.8</ele>
        <time>2023-01-25T14:19:38Z</time>
      </trkpt>
      <trkpt lat="49.96974" lon="2.37214">
        <ele>95.9</ele>
        <time>2023-01-25T14:19:39Z</time>
      </trkpt>
      <trkpt lat="49.96975" lon="2.37213">
        <ele>95.9</ele>
        <time>2023-01-25T14:19:40Z</time>
      </trkpt>
      <trkpt lat="49.96975" lon="2.37212">
        <ele>95.9</ele>
        <time>2023-01-25T14:19:41Z</time>
      </trkpt>
      <trkpt lat="49.96976" lon="2.3721">
        <ele>95.9</ele>
        <time>2023-01-25T14:19:42Z</time>
      </trkpt>
      <trkpt lat="49.96976" lon="2.37207">
        <ele>96</ele>
        <time>2023-01-25T14:19:44Z</time>
      </trkpt>
      <trkpt lat="49.96977" lon="2.37205">
        <ele>96</ele>
        <time>2023-01-25T14:19:45Z</time>
      </trkpt>
      <trkpt lat="49.96978" lon="2.37202">
        <ele>96</ele>
        <time>2023-01-25T14:19:46Z</time>
      </trkpt>
      <trkpt lat="49.96978" lon="2.372">
        <ele>96.1</ele>
        <time>2023-01-25T14:19:47Z</time>
      </trkpt>
      <trkpt lat="49.96978" lon="2.37198">
        <ele>96.1</ele>
        <time>2023-01-25T14:19:48Z</time>
      </trkpt>
      <trkpt lat="49.96979" lon="2.37196">
        <ele>96.1</ele>
        <time>2023-01-25T14:19:49Z</time>
      </trkpt>
      <trkpt lat="49.96979" lon="2.37193">
        <ele>96.2</ele>
        <time>2023-01-25T14:19:51Z</time>
      </trkpt>
      <trkpt lat="49.9698" lon="2.3719">
        <ele>96.2</ele>
        <time>2023-01-25T14:19:52Z</time>
      </trkpt>
      <trkpt lat="49.9698" lon="2.37189">
        <ele>96.3</ele>
        <time>2023-01-25T14:19:53Z</time>
      </trkpt>
      <trkpt lat="49.96981" lon="2.37185">
        <ele>96.3</ele>
        <time>2023-01-25T14:19:54Z</time>
      </trkpt>
      <trkpt lat="49.96981" lon="2.37184">
        <ele>96.3</ele>
        <time>2023-01-25T14:19:55Z</time>
      </trkpt>
      <trkpt lat="49.96982" lon="2.37183">
        <ele>96.4</ele>
        <time>2023-01-25T14:19:56Z</time>
      </trkpt>
      <trkpt lat="49.96982" lon="2.3718">
        <ele>96.4</ele>
        <time>2023-01-25T14:19:57Z</time>
      </trkpt>
      <trkpt lat="49.96983" lon="2.37179">
        <ele>96.4</ele>
        <time>2023-01-25T14:19:58Z</time>
      </trkpt>
      <trkpt lat="49.96983" lon="2.37176">
        <ele>96.5</ele>
        <time>2023-01-25T14:19:59Z</time>
      </trkpt>
      <trkpt lat="49.96983" lon="2.37174">
        <ele>96.5</ele>
        <time>2023-01-25T14:20:01Z</time>
      </trkpt>
      <trkpt lat="49.96984" lon="2.37173">
        <ele>96.5</ele>
        <time>2023-01-25T14:20:02Z</time>
      </trkpt>
      <trkpt lat="49.96984" lon="2.37172">
        <ele>96.5</ele>
        <time>2023-01-25T14:20:03Z</time>
      </trkpt>
      <trkpt lat="49.96984" lon="2.3717">
        <ele>96.6</ele>
        <time>2023-01-25T14:20:04Z</time>
      </trkpt>
      <trkpt lat="49.96985" lon="2.37169">
        <ele>96.6</ele>
        <time>2023-01-25T14:20:05Z</time>
      </trkpt>
      <trkpt lat="49.96986" lon="2.37166">
        <ele>96.7</ele>
        <time>2023-01-25T14:20:06Z</time>
      </trkpt>
      <trkpt lat="49.96986" lon="2.37164">
        <ele>96.7</ele>
        <time>2023-01-25T14:20:07Z</time>
      </trkpt>
      <trkpt lat="49.96987" lon="2.37163">
        <ele>96.7</ele>
        <time>2023-01-25T14:20:09Z</time>
      </trkpt>
      <trkpt lat="49.96987" lon="2.37161">
        <ele>96.7</ele>
        <time>2023-01-25T14:20:10Z</time>
      </trkpt>
      <trkpt lat="49.96988" lon="2.3716">
        <ele>96.8</ele>
        <time>2023-01-25T14:20:11Z</time>
      </trkpt>
      <trkpt lat="49.96988" lon="2.37158">
        <ele>96.8</ele>
        <time>2023-01-25T14:20:12Z</time>
      </trkpt>
      <trkpt lat="49.96989" lon="2.37156">
        <ele>96.8</ele>
        <time>2023-01-25T14:20:13Z</time>
      </trkpt>
      <trkpt lat="49.96989" lon="2.37155">
        <ele>96.8</ele>
        <time>2023-01-25T14:20:15Z</time>
      </trkpt>
      <trkpt lat="49.96989" lon="2.37153">
        <ele>96.8</ele>
        <time>2023-01-25T14:20:16Z</time>
      </trkpt>
      <trkpt lat="49.9699" lon="2.3715">
        <ele>96.9</ele>
        <time>2023-01-25T14:20:17Z</time>
      </trkpt>
      <trkpt lat="49.9699" lon="2.37149">
        <ele>96.9</ele>
        <time>2023-01-25T14:20:18Z</time>
      </trkpt>
      <trkpt lat="49.96991" lon="2.37148">
        <ele>96.9</ele>
        <time>2023-01-25T14:20:19Z</time>
      </trkpt>
      <trkpt lat="49.96991" lon="2.37146">
        <ele>96.9</ele>
        <time>2023-01-25T14:20:20Z</time>
      </trkpt>
      <trkpt lat="49.96991" lon="2.37145">
        <ele>97</ele>
        <time>2023-01-25T14:20:21Z</time>
      </trkpt>
      <trkpt lat="49.96991" lon="2.37143">
        <ele>97</ele>
        <time>2023-01-25T14:20:23Z</time>
      </trkpt>
      <trkpt lat="49.96992" lon="2.37141">
        <ele>97</ele>
        <time>2023-01-25T14:20:24Z</time>
      </trkpt>
      <trkpt lat="49.96992" lon="2.3714">
        <ele>97</ele>
        <time>2023-01-25T14:20:25Z</time>
      </trkpt>
      <trkpt lat="49.96992" lon="2.37138">
        <ele>97</ele>
        <time>2023-01-25T14:20:26Z</time>
      </trkpt>
      <trkpt lat="49.96993" lon="2.37136">
        <ele>97.1</ele>
        <time>2023-01-25T14:20:27Z</time>
      </trkpt>
      <trkpt lat="49.96993" lon="2.37134">
        <ele>97.1</ele>
        <time>2023-01-25T14:20:28Z</time>
      </trkpt>
      <trkpt lat="49.96993" lon="2.37133">
        <ele>97.1</ele>
        <time>2023-01-25T14:20:29Z</time>
      </trkpt>
      <trkpt lat="49.96994" lon="2.37131">
        <ele>97.1</ele>
        <time>2023-01-25T14:20:30Z</time>
      </trkpt>
      <trkpt lat="49.96995" lon="2.37129">
        <ele>97.2</ele>
        <time>2023-01-25T14:20:32Z</time>
      </trkpt>
      <trkpt lat="49.96995" lon="2.37127">
        <ele>97.2</ele>
        <time>2023-01-25T14:20:33Z</time>
      </trkpt>
      <trkpt lat="49.96996" lon="2.37125">
        <ele>97.2</ele>
        <time>2023-01-25T14:20:34Z</time>
      </trkpt>
      <trkpt lat="49.96996" lon="2.37124">
        <ele>97.2</ele>
        <time>2023-01-25T14:20:35Z</time>
      </trkpt>
      <trkpt lat="49.96997" lon="2.37121">
        <ele>97.3</ele>
        <time>2023-01-25T14:20:36Z</time>
      </trkpt>
      <trkpt lat="49.96997" lon="2.37119">
        <ele>97.3</ele>
        <time>2023-01-25T14:20:37Z</time>
      </trkpt>
      <trkpt lat="49.96998" lon="2.37118">
        <ele>97.3</ele>
        <time>2023-01-25T14:20:39Z</time>
      </trkpt>
      <trkpt lat="49.96998" lon="2.37116">
        <ele>97.4</ele>
        <time>2023-01-25T14:20:40Z</time>
      </trkpt>
      <trkpt lat="49.96999" lon="2.37115">
        <ele>97.4</ele>
        <time>2023-01-25T14:20:41Z</time>
      </trkpt>
      <trkpt lat="49.96999" lon="2.37113">
        <ele>97.4</ele>
        <time>2023-01-25T14:20:42Z</time>
      </trkpt>
      <trkpt lat="49.96999" lon="2.37112">
        <ele>97.4</ele>
        <time>2023-01-25T14:20:43Z</time>
      </trkpt>
      <trkpt lat="49.96999" lon="2.37111">
        <ele>97.4</ele>
        <time>2023-01-25T14:20:44Z</time>
      </trkpt>
      <trkpt lat="49.97" lon="2.37109">
        <ele>97.5</ele>
        <time>2023-01-25T14:20:46Z</time>
      </trkpt>
      <trkpt lat="49.97" lon="2.37108">
        <ele>97.5</ele>
        <time>2023-01-25T14:20:47Z</time>
      </trkpt>
      <trkpt lat="49.97001" lon="2.37105">
        <ele>97.5</ele>
        <time>2023-01-25T14:20:48Z</time>
      </trkpt>
      <trkpt lat="49.97001" lon="2.37104">
        <ele>97.6</ele>
        <time>2023-01-25T14:20:49Z</time>
      </trkpt>
      <trkpt lat="49.97001" lon="2.37102">
        <ele>97.6</ele>
        <time>2023-01-25T14:20:50Z</time>
      </trkpt>
      <trkpt lat="49.97002" lon="2.371">
        <ele>97.6</ele>
        <time>2023-01-25T14:20:51Z</time>
      </trkpt>
      <trkpt lat="49.97002" lon="2.37099">
        <ele>97.6</ele>
        <time>2023-01-25T14:20:52Z</time>
      </trkpt>
      <trkpt lat="49.97002" lon="2.37097">
        <ele>97.7</ele>
        <time>2023-01-25T14:20:54Z</time>
      </trkpt>
      <trkpt lat="49.97003" lon="2.37095">
        <ele>97.7</ele>
        <time>2023-01-25T14:20:55Z</time>
      </trkpt>
      <trkpt lat="49.97003" lon="2.37093">
        <ele>97.7</ele>
        <time>2023-01-25T14:20:56Z</time>
      </trkpt>
      <trkpt lat="49.97004" lon="2.37091">
        <ele>97.8</ele>
        <time>2023-01-25T14:20:57Z</time>
      </trkpt>
      <trkpt lat="49.97004" lon="2.37089">
        <ele>97.8</ele>
        <time>2023-01-25T14:20:58Z</time>
      </trkpt>
      <trkpt lat="49.97004" lon="2.37087">
        <ele>97.8</ele>
        <time>2023-01-25T14:20:59Z</time>
      </trkpt>
      <trkpt lat="49.97005" lon="2.37086">
        <ele>97.8</ele>
        <time>2023-01-25T14:21:00Z</time>
      </trkpt>
      <trkpt lat="49.97005" lon="2.37085">
        <ele>97.9</ele>
        <time>2023-01-25T14:21:01Z</time>
      </trkpt>
      <trkpt lat="49.97005" lon="2.37083">
        <ele>97.9</ele>
        <time>2023-01-25T14:21:03Z</time>
      </trkpt>
      <trkpt lat="49.97006" lon="2.37081">
        <ele>97.9</ele>
        <time>2023-01-25T14:21:04Z</time>
      </trkpt>
      <trkpt lat="49.97006" lon="2.3708">
        <ele>98</ele>
        <time>2023-01-25T14:21:05Z</time>
      </trkpt>
      <trkpt lat="49.97006" lon="2.37078">
        <ele>98</ele>
        <time>2023-01-25T14:21:06Z</time>
      </trkpt>
      <trkpt lat="49.97007" lon="2.37076">
        <ele>98</ele>
        <time>2023-01-25T14:21:07Z</time>
      </trkpt>
      <trkpt lat="49.97007" lon="2.37074">
        <ele>98.1</ele>
        <time>2023-01-25T14:21:08Z</time>
      </trkpt>
      <trkpt lat="49.97008" lon="2.37073">
        <ele>98.1</ele>
        <time>2023-01-25T14:21:10Z</time>
      </trkpt>
      <trkpt lat="49.97008" lon="2.37071">
        <ele>98.1</ele>
        <time>2023-01-25T14:21:11Z</time>
      </trkpt>
      <trkpt lat="49.97009" lon="2.37068">
        <ele>98.2</ele>
        <time>2023-01-25T14:21:12Z</time>
      </trkpt>
      <trkpt lat="49.97009" lon="2.37066">
        <ele>98.2</ele>
        <time>2023-01-25T14:21:13Z</time>
      </trkpt>
      <trkpt lat="49.97009" lon="2.37065">
        <ele>98.2</ele>
        <time>2023-01-25T14:21:14Z</time>
      </trkpt>
      <trkpt lat="49.97009" lon="2.37063">
        <ele>98.2</ele>
        <time>2023-01-25T14:21:15Z</time>
      </trkpt>
      <trkpt lat="49.9701" lon="2.37062">
        <ele>98.3</ele>
        <time>2023-01-25T14:21:17Z</time>
      </trkpt>
      <trkpt lat="49.9701" lon="2.3706">
        <ele>98.3</ele>
        <time>2023-01-25T14:21:18Z</time>
      </trkpt>
      <trkpt lat="49.9701" lon="2.37058">
        <ele>98.3</ele>
        <time>2023-01-25T14:21:19Z</time>
      </trkpt>
      <trkpt lat="49.9701" lon="2.37057">
        <ele>98.4</ele>
        <time>2023-01-25T14:21:20Z</time>
      </trkpt>
      <trkpt lat="49.97011" lon="2.37055">
        <ele>98.4</ele>
        <time>2023-01-25T14:21:21Z</time>
      </trkpt>
      <trkpt lat="49.97011" lon="2.37054">
        <ele>98.4</ele>
        <time>2023-01-25T14:21:22Z</time>
      </trkpt>
      <trkpt lat="49.97011" lon="2.37052">
        <ele>98.5</ele>
        <time>2023-01-25T14:21:23Z</time>
      </trkpt>
      <trkpt lat="49.97012" lon="2.3705">
        <ele>98.5</ele>
        <time>2023-01-25T14:21:25Z</time>
      </trkpt>
      <trkpt lat="49.97012" lon="2.37049">
        <ele>98.5</ele>
        <time>2023-01-25T14:21:26Z</time>
      </trkpt>
      <trkpt lat="49.97012" lon="2.37047">
        <ele>98.5</ele>
        <time>2023-01-25T14:21:27Z</time>
      </trkpt>
      <trkpt lat="49.97012" lon="2.37046">
        <ele>98.6</ele>
        <time>2023-01-25T14:21:28Z</time>
      </trkpt>
      <trkpt lat="49.97013" lon="2.37042">
        <ele>98.6</ele>
        <time>2023-01-25T14:21:29Z</time>
      </trkpt>
      <trkpt lat="49.97013" lon="2.37041">
        <ele>98.6</ele>
        <time>2023-01-25T14:21:30Z</time>
      </trkpt>
      <trkpt lat="49.97013" lon="2.3704">
        <ele>98.7</ele>
        <time>2023-01-25T14:21:32Z</time>
      </trkpt>
      <trkpt lat="49.97013" lon="2.37038">
        <ele>98.7</ele>
        <time>2023-01-25T14:21:33Z</time>
      </trkpt>
      <trkpt lat="49.97014" lon="2.37037">
        <ele>98.7</ele>
        <time>2023-01-25T14:21:34Z</time>
      </trkpt>
      <trkpt lat="49.97014" lon="2.37035">
        <ele>98.7</ele>
        <time>2023-01-25T14:21:35Z</time>
      </trkpt>
      <trkpt lat="49.97015" lon="2.37032">
        <ele>98.8</ele>
        <time>2023-01-25T14:21:36Z</time>
      </trkpt>
      <trkpt lat="49.97015" lon="2.3703">
        <ele>98.8</ele>
        <time>2023-01-25T14:21:38Z</time>
      </trkpt>
      <trkpt lat="49.97015" lon="2.37029">
        <ele>98.8</ele>
        <time>2023-01-25T14:21:39Z</time>
      </trkpt>
      <trkpt lat="49.97016" lon="2.37028">
        <ele>98.8</ele>
        <time>2023-01-25T14:21:40Z</time>
      </trkpt>
      <trkpt lat="49.97016" lon="2.37026">
        <ele>98.9</ele>
        <time>2023-01-25T14:21:41Z</time>
      </trkpt>
      <trkpt lat="49.97016" lon="2.37025">
        <ele>98.9</ele>
        <time>2023-01-25T14:21:42Z</time>
      </trkpt>
      <trkpt lat="49.97016" lon="2.37023">
        <ele>98.9</ele>
        <time>2023-01-25T14:21:43Z</time>
      </trkpt>
      <trkpt lat="49.97017" lon="2.37021">
        <ele>98.9</ele>
        <time>2023-01-25T14:21:45Z</time>
      </trkpt>
      <trkpt lat="49.97017" lon="2.37019">
        <ele>98.9</ele>
        <time>2023-01-25T14:21:46Z</time>
      </trkpt>
      <trkpt lat="49.97018" lon="2.37016">
        <ele>99</ele>
        <time>2023-01-25T14:21:47Z</time>
      </trkpt>
      <trkpt lat="49.97019" lon="2.37015">
        <ele>99</ele>
        <time>2023-01-25T14:21:48Z</time>
      </trkpt>
      <trkpt lat="49.97019" lon="2.37014">
        <ele>99</ele>
        <time>2023-01-25T14:21:49Z</time>
      </trkpt>
      <trkpt lat="49.9702" lon="2.37012">
        <ele>99</ele>
        <time>2023-01-25T14:21:51Z</time>
      </trkpt>
      <trkpt lat="49.9702" lon="2.37011">
        <ele>99.1</ele>
        <time>2023-01-25T14:21:52Z</time>
      </trkpt>
      <trkpt lat="49.97021" lon="2.37009">
        <ele>99.1</ele>
        <time>2023-01-25T14:21:53Z</time>
      </trkpt>
      <trkpt lat="49.97021" lon="2.37007">
        <ele>99.1</ele>
        <time>2023-01-25T14:21:54Z</time>
      </trkpt>
      <trkpt lat="49.97022" lon="2.37006">
        <ele>99.1</ele>
        <time>2023-01-25T14:21:55Z</time>
      </trkpt>
      <trkpt lat="49.97022" lon="2.37005">
        <ele>99.1</ele>
        <time>2023-01-25T14:21:56Z</time>
      </trkpt>
      <trkpt lat="49.97022" lon="2.37003">
        <ele>99.2</ele>
        <time>2023-01-25T14:21:58Z</time>
      </trkpt>
      <trkpt lat="49.97023" lon="2.37001">
        <ele>99.2</ele>
        <time>2023-01-25T14:21:59Z</time>
      </trkpt>
      <trkpt lat="49.97023" lon="2.36999">
        <ele>99.2</ele>
        <time>2023-01-25T14:22:00Z</time>
      </trkpt>
      <trkpt lat="49.97024" lon="2.36998">
        <ele>99.2</ele>
        <time>2023-01-25T14:22:01Z</time>
      </trkpt>
      <trkpt lat="49.97024" lon="2.36996">
        <ele>99.3</ele>
        <time>2023-01-25T14:22:02Z</time>
      </trkpt>
      <trkpt lat="49.97025" lon="2.36994">
        <ele>99.3</ele>
        <time>2023-01-25T14:22:04Z</time>
      </trkpt>
      <trkpt lat="49.97025" lon="2.36993">
        <ele>99.3</ele>
        <time>2023-01-25T14:22:05Z</time>
      </trkpt>
      <trkpt lat="49.97026" lon="2.36991">
        <ele>99.3</ele>
        <time>2023-01-25T14:22:06Z</time>
      </trkpt>
      <trkpt lat="49.97026" lon="2.36988">
        <ele>99.4</ele>
        <time>2023-01-25T14:22:07Z</time>
      </trkpt>
      <trkpt lat="49.97027" lon="2.36987">
        <ele>99.4</ele>
        <time>2023-01-25T14:22:08Z</time>
      </trkpt>
      <trkpt lat="49.97027" lon="2.36986">
        <ele>99.4</ele>
        <time>2023-01-25T14:22:09Z</time>
      </trkpt>
      <trkpt lat="49.97028" lon="2.36983">
        <ele>99.4</ele>
        <time>2023-01-25T14:22:11Z</time>
      </trkpt>
      <trkpt lat="49.97028" lon="2.36981">
        <ele>99.5</ele>
        <time>2023-01-25T14:22:12Z</time>
      </trkpt>
      <trkpt lat="49.97028" lon="2.3698">
        <ele>99.5</ele>
        <time>2023-01-25T14:22:13Z</time>
      </trkpt>
      <trkpt lat="49.97029" lon="2.36977">
        <ele>99.5</ele>
        <time>2023-01-25T14:22:14Z</time>
      </trkpt>
      <trkpt lat="49.97029" lon="2.36976">
        <ele>99.6</ele>
        <time>2023-01-25T14:22:15Z</time>
      </trkpt>
      <trkpt lat="49.97029" lon="2.36975">
        <ele>99.6</ele>
        <time>2023-01-25T14:22:16Z</time>
      </trkpt>
      <trkpt lat="49.97029" lon="2.36973">
        <ele>99.6</ele>
        <time>2023-01-25T14:22:18Z</time>
      </trkpt>
      <trkpt lat="49.97029" lon="2.36971">
        <ele>99.6</ele>
        <time>2023-01-25T14:22:19Z</time>
      </trkpt>
      <trkpt lat="49.97029" lon="2.36969">
        <ele>99.7</ele>
        <time>2023-01-25T14:22:20Z</time>
      </trkpt>
      <trkpt lat="49.97029" lon="2.36968">
        <ele>99.7</ele>
        <time>2023-01-25T14:22:21Z</time>
      </trkpt>
      <trkpt lat="49.97029" lon="2.36966">
        <ele>99.7</ele>
        <time>2023-01-25T14:22:22Z</time>
      </trkpt>
      <trkpt lat="49.97029" lon="2.36964">
        <ele>99.7</ele>
        <time>2023-01-25T14:22:23Z</time>
      </trkpt>
      <trkpt lat="49.9703" lon="2.36961">
        <ele>99.8</ele>
        <time>2023-01-25T14:22:25Z</time>
      </trkpt>
      <trkpt lat="49.9703" lon="2.3696">
        <ele>99.8</ele>
        <time>2023-01-25T14:22:26Z</time>
      </trkpt>
      <trkpt lat="49.9703" lon="2.36957">
        <ele>99.9</ele>
        <time>2023-01-25T14:22:27Z</time>
      </trkpt>
      <trkpt lat="49.9703" lon="2.36955">
        <ele>99.9</ele>
        <time>2023-01-25T14:22:28Z</time>
      </trkpt>
      <trkpt lat="49.9703" lon="2.36954">
        <ele>99.9</ele>
        <time>2023-01-25T14:22:29Z</time>
      </trkpt>
      <trkpt lat="49.9703" lon="2.36952">
        <ele>99.9</ele>
        <time>2023-01-25T14:22:30Z</time>
      </trkpt>
      <trkpt lat="49.9703" lon="2.36951">
        <ele>100</ele>
        <time>2023-01-25T14:22:31Z</time>
      </trkpt>
      <trkpt lat="49.97031" lon="2.36949">
        <ele>100</ele>
        <time>2023-01-25T14:22:33Z</time>
      </trkpt>
      <trkpt lat="49.97031" lon="2.36946">
        <ele>100</ele>
        <time>2023-01-25T14:22:34Z</time>
      </trkpt>
      <trkpt lat="49.97031" lon="2.36945">
        <ele>100.1</ele>
        <time>2023-01-25T14:22:35Z</time>
      </trkpt>
      <trkpt lat="49.97032" lon="2.36943">
        <ele>100.1</ele>
        <time>2023-01-25T14:22:36Z</time>
      </trkpt>
      <trkpt lat="49.97032" lon="2.36941">
        <ele>100.1</ele>
        <time>2023-01-25T14:22:37Z</time>
      </trkpt>
      <trkpt lat="49.97033" lon="2.3694">
        <ele>100.1</ele>
        <time>2023-01-25T14:22:38Z</time>
      </trkpt>
      <trkpt lat="49.97033" lon="2.36937">
        <ele>100.2</ele>
        <time>2023-01-25T14:22:40Z</time>
      </trkpt>
      <trkpt lat="49.97034" lon="2.36934">
        <ele>100.2</ele>
        <time>2023-01-25T14:22:41Z</time>
      </trkpt>
      <trkpt lat="49.97034" lon="2.36933">
        <ele>100.3</ele>
        <time>2023-01-25T14:22:42Z</time>
      </trkpt>
      <trkpt lat="49.97034" lon="2.36932">
        <ele>100.3</ele>
        <time>2023-01-25T14:22:43Z</time>
      </trkpt>
      <trkpt lat="49.97035" lon="2.36929">
        <ele>100.3</ele>
        <time>2023-01-25T14:22:44Z</time>
      </trkpt>
      <trkpt lat="49.97035" lon="2.36928">
        <ele>100.3</ele>
        <time>2023-01-25T14:22:45Z</time>
      </trkpt>
      <trkpt lat="49.97036" lon="2.36926">
        <ele>100.3</ele>
        <time>2023-01-25T14:22:47Z</time>
      </trkpt>
      <trkpt lat="49.97036" lon="2.36924">
        <ele>100.4</ele>
        <time>2023-01-25T14:22:48Z</time>
      </trkpt>
      <trkpt lat="49.97037" lon="2.36922">
        <ele>100.4</ele>
        <time>2023-01-25T14:22:49Z</time>
      </trkpt>
      <trkpt lat="49.97037" lon="2.36921">
        <ele>100.4</ele>
        <time>2023-01-25T14:22:50Z</time>
      </trkpt>
      <trkpt lat="49.97038" lon="2.36919">
        <ele>100.4</ele>
        <time>2023-01-25T14:22:51Z</time>
      </trkpt>
      <trkpt lat="49.97038" lon="2.36918">
        <ele>100.5</ele>
        <time>2023-01-25T14:22:53Z</time>
      </trkpt>
      <trkpt lat="49.97039" lon="2.36916">
        <ele>100.5</ele>
        <time>2023-01-25T14:22:54Z</time>
      </trkpt>
      <trkpt lat="49.97039" lon="2.36914">
        <ele>100.5</ele>
        <time>2023-01-25T14:22:55Z</time>
      </trkpt>
      <trkpt lat="49.97039" lon="2.36913">
        <ele>100.5</ele>
        <time>2023-01-25T14:22:56Z</time>
      </trkpt>
      <trkpt lat="49.9704" lon="2.36912">
        <ele>100.5</ele>
        <time>2023-01-25T14:22:57Z</time>
      </trkpt>
      <trkpt lat="49.9704" lon="2.3691">
        <ele>100.6</ele>
        <time>2023-01-25T14:22:58Z</time>
      </trkpt>
      <trkpt lat="49.97041" lon="2.36909">
        <ele>100.6</ele>
        <time>2023-01-25T14:22:59Z</time>
      </trkpt>
      <trkpt lat="49.97042" lon="2.36907">
        <ele>100.6</ele>
        <time>2023-01-25T14:23:01Z</time>
      </trkpt>
      <trkpt lat="49.97042" lon="2.36905">
        <ele>100.6</ele>
        <time>2023-01-25T14:23:02Z</time>
      </trkpt>
      <trkpt lat="49.97043" lon="2.36904">
        <ele>100.7</ele>
        <time>2023-01-25T14:23:03Z</time>
      </trkpt>
      <trkpt lat="49.97043" lon="2.36903">
        <ele>100.7</ele>
        <time>2023-01-25T14:23:04Z</time>
      </trkpt>
      <trkpt lat="49.97043" lon="2.36901">
        <ele>100.7</ele>
        <time>2023-01-25T14:23:05Z</time>
      </trkpt>
      <trkpt lat="49.97044" lon="2.36899">
        <ele>100.7</ele>
        <time>2023-01-25T14:23:06Z</time>
      </trkpt>
      <trkpt lat="49.97044" lon="2.36897">
        <ele>100.8</ele>
        <time>2023-01-25T14:23:07Z</time>
      </trkpt>
      <trkpt lat="49.97045" lon="2.36896">
        <ele>100.8</ele>
        <time>2023-01-25T14:23:08Z</time>
      </trkpt>
      <trkpt lat="49.97045" lon="2.36894">
        <ele>100.8</ele>
        <time>2023-01-25T14:23:10Z</time>
      </trkpt>
      <trkpt lat="49.97045" lon="2.36892">
        <ele>100.8</ele>
        <time>2023-01-25T14:23:11Z</time>
      </trkpt>
      <trkpt lat="49.97046" lon="2.36891">
        <ele>100.9</ele>
        <time>2023-01-25T14:23:12Z</time>
      </trkpt>
      <trkpt lat="49.97046" lon="2.36889">
        <ele>100.9</ele>
        <time>2023-01-25T14:23:13Z</time>
      </trkpt>
      <trkpt lat="49.97047" lon="2.36885">
        <ele>101</ele>
        <time>2023-01-25T14:23:14Z</time>
      </trkpt>
      <trkpt lat="49.97047" lon="2.36884">
        <ele>101</ele>
        <time>2023-01-25T14:23:15Z</time>
      </trkpt>
      <trkpt lat="49.97047" lon="2.36883">
        <ele>101</ele>
        <time>2023-01-25T14:23:17Z</time>
      </trkpt>
      <trkpt lat="49.97047" lon="2.36881">
        <ele>101.1</ele>
        <time>2023-01-25T14:23:18Z</time>
      </trkpt>
      <trkpt lat="49.97048" lon="2.3688">
        <ele>101.1</ele>
        <time>2023-01-25T14:23:19Z</time>
      </trkpt>
      <trkpt lat="49.97048" lon="2.36878">
        <ele>101.1</ele>
        <time>2023-01-25T14:23:20Z</time>
      </trkpt>
      <trkpt lat="49.97048" lon="2.36877">
        <ele>101.1</ele>
        <time>2023-01-25T14:23:21Z</time>
      </trkpt>
      <trkpt lat="49.97048" lon="2.36875">
        <ele>101.2</ele>
        <time>2023-01-25T14:23:22Z</time>
      </trkpt>
      <trkpt lat="49.97049" lon="2.36872">
        <ele>101.2</ele>
        <time>2023-01-25T14:23:24Z</time>
      </trkpt>
      <trkpt lat="49.97049" lon="2.36871">
        <ele>101.3</ele>
        <time>2023-01-25T14:23:26Z</time>
      </trkpt>
      <trkpt lat="49.9705" lon="2.36869">
        <ele>101.3</ele>
        <time>2023-01-25T14:23:27Z</time>
      </trkpt>
      <trkpt lat="49.9705" lon="2.36868">
        <ele>101.3</ele>
        <time>2023-01-25T14:23:28Z</time>
      </trkpt>
      <trkpt lat="49.9705" lon="2.36867">
        <ele>101.4</ele>
        <time>2023-01-25T14:23:29Z</time>
      </trkpt>
      <trkpt lat="49.97051" lon="2.36865">
        <ele>101.4</ele>
        <time>2023-01-25T14:23:30Z</time>
      </trkpt>
      <trkpt lat="49.97051" lon="2.36864">
        <ele>101.4</ele>
        <time>2023-01-25T14:23:32Z</time>
      </trkpt>
      <trkpt lat="49.97052" lon="2.36862">
        <ele>101.5</ele>
        <time>2023-01-25T14:23:33Z</time>
      </trkpt>
      <trkpt lat="49.97052" lon="2.36861">
        <ele>101.5</ele>
        <time>2023-01-25T14:23:34Z</time>
      </trkpt>
      <trkpt lat="49.97052" lon="2.36859">
        <ele>101.6</ele>
        <time>2023-01-25T14:23:35Z</time>
      </trkpt>
      <trkpt lat="49.97052" lon="2.36858">
        <ele>101.6</ele>
        <time>2023-01-25T14:23:36Z</time>
      </trkpt>
      <trkpt lat="49.97053" lon="2.36856">
        <ele>101.7</ele>
        <time>2023-01-25T14:23:37Z</time>
      </trkpt>
      <trkpt lat="49.97053" lon="2.36855">
        <ele>101.7</ele>
        <time>2023-01-25T14:23:38Z</time>
      </trkpt>
      <trkpt lat="49.97053" lon="2.36853">
        <ele>101.8</ele>
        <time>2023-01-25T14:23:40Z</time>
      </trkpt>
      <trkpt lat="49.97053" lon="2.36851">
        <ele>101.8</ele>
        <time>2023-01-25T14:23:41Z</time>
      </trkpt>
      <trkpt lat="49.97054" lon="2.36849">
        <ele>101.9</ele>
        <time>2023-01-25T14:23:42Z</time>
      </trkpt>
      <trkpt lat="49.97053" lon="2.36847">
        <ele>101.9</ele>
        <time>2023-01-25T14:23:43Z</time>
      </trkpt>
      <trkpt lat="49.97053" lon="2.36846">
        <ele>101.9</ele>
        <time>2023-01-25T14:23:44Z</time>
      </trkpt>
      <trkpt lat="49.97053" lon="2.36844">
        <ele>102</ele>
        <time>2023-01-25T14:23:45Z</time>
      </trkpt>
      <trkpt lat="49.97053" lon="2.36842">
        <ele>102.1</ele>
        <time>2023-01-25T14:23:46Z</time>
      </trkpt>
      <trkpt lat="49.97053" lon="2.3684">
        <ele>102.1</ele>
        <time>2023-01-25T14:23:47Z</time>
      </trkpt>
      <trkpt lat="49.97053" lon="2.36838">
        <ele>102.2</ele>
        <time>2023-01-25T14:23:49Z</time>
      </trkpt>
      <trkpt lat="49.97053" lon="2.36836">
        <ele>102.2</ele>
        <time>2023-01-25T14:23:50Z</time>
      </trkpt>
      <trkpt lat="49.97053" lon="2.36835">
        <ele>102.3</ele>
        <time>2023-01-25T14:23:51Z</time>
      </trkpt>
      <trkpt lat="49.97054" lon="2.36833">
        <ele>102.3</ele>
        <time>2023-01-25T14:23:52Z</time>
      </trkpt>
      <trkpt lat="49.97054" lon="2.36832">
        <ele>102.3</ele>
        <time>2023-01-25T14:23:53Z</time>
      </trkpt>
      <trkpt lat="49.97054" lon="2.3683">
        <ele>102.4</ele>
        <time>2023-01-25T14:23:54Z</time>
      </trkpt>
      <trkpt lat="49.97054" lon="2.36829">
        <ele>102.4</ele>
        <time>2023-01-25T14:23:55Z</time>
      </trkpt>
      <trkpt lat="49.97054" lon="2.36827">
        <ele>102.5</ele>
        <time>2023-01-25T14:23:57Z</time>
      </trkpt>
      <trkpt lat="49.97054" lon="2.36825">
        <ele>102.5</ele>
        <time>2023-01-25T14:23:58Z</time>
      </trkpt>
      <trkpt lat="49.97054" lon="2.36824">
        <ele>102.6</ele>
        <time>2023-01-25T14:23:59Z</time>
      </trkpt>
      <trkpt lat="49.97055" lon="2.36822">
        <ele>102.6</ele>
        <time>2023-01-25T14:24:00Z</time>
      </trkpt>
      <trkpt lat="49.97055" lon="2.36821">
        <ele>102.6</ele>
        <time>2023-01-25T14:24:01Z</time>
      </trkpt>
      <trkpt lat="49.97056" lon="2.3682">
        <ele>102.7</ele>
        <time>2023-01-25T14:24:02Z</time>
      </trkpt>
      <trkpt lat="49.97056" lon="2.36818">
        <ele>102.7</ele>
        <time>2023-01-25T14:24:04Z</time>
      </trkpt>
      <trkpt lat="49.97056" lon="2.36816">
        <ele>102.8</ele>
        <time>2023-01-25T14:24:05Z</time>
      </trkpt>
      <trkpt lat="49.97057" lon="2.36814">
        <ele>102.8</ele>
        <time>2023-01-25T14:24:06Z</time>
      </trkpt>
      <trkpt lat="49.97057" lon="2.36813">
        <ele>102.9</ele>
        <time>2023-01-25T14:24:07Z</time>
      </trkpt>
      <trkpt lat="49.97057" lon="2.36812">
        <ele>102.9</ele>
        <time>2023-01-25T14:24:08Z</time>
      </trkpt>
      <trkpt lat="49.97057" lon="2.3681">
        <ele>102.9</ele>
        <time>2023-01-25T14:24:09Z</time>
      </trkpt>
      <trkpt lat="49.97058" lon="2.36808">
        <ele>103</ele>
        <time>2023-01-25T14:24:10Z</time>
      </trkpt>
      <trkpt lat="49.97058" lon="2.36807">
        <ele>103</ele>
        <time>2023-01-25T14:24:11Z</time>
      </trkpt>
      <trkpt lat="49.97058" lon="2.36805">
        <ele>103.1</ele>
        <time>2023-01-25T14:24:13Z</time>
      </trkpt>
      <trkpt lat="49.97059" lon="2.36804">
        <ele>103.1</ele>
        <time>2023-01-25T14:24:14Z</time>
      </trkpt>
      <trkpt lat="49.97059" lon="2.36802">
        <ele>103.2</ele>
        <time>2023-01-25T14:24:15Z</time>
      </trkpt>
      <trkpt lat="49.97059" lon="2.36801">
        <ele>103.2</ele>
        <time>2023-01-25T14:24:16Z</time>
      </trkpt>
      <trkpt lat="49.97059" lon="2.36799">
        <ele>103.2</ele>
        <time>2023-01-25T14:24:18Z</time>
      </trkpt>
      <trkpt lat="49.97059" lon="2.36797">
        <ele>103.3</ele>
        <time>2023-01-25T14:24:19Z</time>
      </trkpt>
      <trkpt lat="49.9706" lon="2.36795">
        <ele>103.3</ele>
        <time>2023-01-25T14:24:20Z</time>
      </trkpt>
      <trkpt lat="49.9706" lon="2.36794">
        <ele>103.4</ele>
        <time>2023-01-25T14:24:21Z</time>
      </trkpt>
      <trkpt lat="49.9706" lon="2.36793">
        <ele>103.4</ele>
        <time>2023-01-25T14:24:22Z</time>
      </trkpt>
      <trkpt lat="49.9706" lon="2.36791">
        <ele>103.5</ele>
        <time>2023-01-25T14:24:24Z</time>
      </trkpt>
      <trkpt lat="49.9706" lon="2.36789">
        <ele>103.5</ele>
        <time>2023-01-25T14:24:25Z</time>
      </trkpt>
      <trkpt lat="49.97061" lon="2.36787">
        <ele>103.5</ele>
        <time>2023-01-25T14:24:26Z</time>
      </trkpt>
      <trkpt lat="49.97061" lon="2.36785">
        <ele>103.6</ele>
        <time>2023-01-25T14:24:27Z</time>
      </trkpt>
      <trkpt lat="49.97061" lon="2.36784">
        <ele>103.6</ele>
        <time>2023-01-25T14:24:28Z</time>
      </trkpt>
      <trkpt lat="49.97062" lon="2.36782">
        <ele>103.7</ele>
        <time>2023-01-25T14:24:29Z</time>
      </trkpt>
      <trkpt lat="49.97062" lon="2.3678">
        <ele>103.7</ele>
        <time>2023-01-25T14:24:30Z</time>
      </trkpt>
      <trkpt lat="49.97062" lon="2.36779">
        <ele>103.7</ele>
        <time>2023-01-25T14:24:31Z</time>
      </trkpt>
      <trkpt lat="49.97063" lon="2.36778">
        <ele>103.8</ele>
        <time>2023-01-25T14:24:33Z</time>
      </trkpt>
      <trkpt lat="49.97063" lon="2.36776">
        <ele>103.8</ele>
        <time>2023-01-25T14:24:34Z</time>
      </trkpt>
      <trkpt lat="49.97064" lon="2.36774">
        <ele>103.9</ele>
        <time>2023-01-25T14:24:35Z</time>
      </trkpt>
      <trkpt lat="49.97065" lon="2.36772">
        <ele>103.9</ele>
        <time>2023-01-25T14:24:36Z</time>
      </trkpt>
      <trkpt lat="49.97065" lon="2.3677">
        <ele>104</ele>
        <time>2023-01-25T14:24:37Z</time>
      </trkpt>
      <trkpt lat="49.97065" lon="2.36769">
        <ele>104</ele>
        <time>2023-01-25T14:24:39Z</time>
      </trkpt>
      <trkpt lat="49.97066" lon="2.36768">
        <ele>104</ele>
        <time>2023-01-25T14:24:40Z</time>
      </trkpt>
      <trkpt lat="49.97066" lon="2.36766">
        <ele>104.1</ele>
        <time>2023-01-25T14:24:41Z</time>
      </trkpt>
      <trkpt lat="49.97066" lon="2.36765">
        <ele>104.1</ele>
        <time>2023-01-25T14:24:42Z</time>
      </trkpt>
      <trkpt lat="49.97067" lon="2.36762">
        <ele>104.2</ele>
        <time>2023-01-25T14:24:43Z</time>
      </trkpt>
      <trkpt lat="49.97067" lon="2.3676">
        <ele>104.2</ele>
        <time>2023-01-25T14:24:44Z</time>
      </trkpt>
      <trkpt lat="49.97067" lon="2.36759">
        <ele>104.2</ele>
        <time>2023-01-25T14:24:45Z</time>
      </trkpt>
      <trkpt lat="49.97068" lon="2.36758">
        <ele>104.3</ele>
        <time>2023-01-25T14:24:47Z</time>
      </trkpt>
      <trkpt lat="49.97068" lon="2.36756">
        <ele>104.3</ele>
        <time>2023-01-25T14:24:48Z</time>
      </trkpt>
      <trkpt lat="49.97069" lon="2.36754">
        <ele>104.4</ele>
        <time>2023-01-25T14:24:49Z</time>
      </trkpt>
      <trkpt lat="49.9707" lon="2.3675">
        <ele>104.4</ele>
        <time>2023-01-25T14:24:50Z</time>
      </trkpt>
      <trkpt lat="49.9707" lon="2.36749">
        <ele>104.5</ele>
        <time>2023-01-25T14:24:51Z</time>
      </trkpt>
      <trkpt lat="49.9707" lon="2.36748">
        <ele>104.5</ele>
        <time>2023-01-25T14:24:52Z</time>
      </trkpt>
      <trkpt lat="49.9707" lon="2.36747">
        <ele>104.5</ele>
        <time>2023-01-25T14:24:53Z</time>
      </trkpt>
      <trkpt lat="49.97071" lon="2.36745">
        <ele>104.6</ele>
        <time>2023-01-25T14:24:54Z</time>
      </trkpt>
      <trkpt lat="49.97071" lon="2.36743">
        <ele>104.6</ele>
        <time>2023-01-25T14:24:56Z</time>
      </trkpt>
      <trkpt lat="49.97071" lon="2.36741">
        <ele>104.7</ele>
        <time>2023-01-25T14:24:57Z</time>
      </trkpt>
      <trkpt lat="49.97072" lon="2.36738">
        <ele>104.7</ele>
        <time>2023-01-25T14:24:58Z</time>
      </trkpt>
      <trkpt lat="49.97072" lon="2.36735">
        <ele>104.8</ele>
        <time>2023-01-25T14:24:59Z</time>
      </trkpt>
      <trkpt lat="49.97072" lon="2.36734">
        <ele>104.8</ele>
        <time>2023-01-25T14:25:00Z</time>
      </trkpt>
      <trkpt lat="49.97072" lon="2.36733">
        <ele>104.8</ele>
        <time>2023-01-25T14:25:01Z</time>
      </trkpt>
      <trkpt lat="49.97073" lon="2.36731">
        <ele>104.9</ele>
        <time>2023-01-25T14:25:03Z</time>
      </trkpt>
      <trkpt lat="49.97073" lon="2.36728">
        <ele>104.9</ele>
        <time>2023-01-25T14:25:04Z</time>
      </trkpt>
      <trkpt lat="49.97073" lon="2.36726">
        <ele>104.9</ele>
        <time>2023-01-25T14:25:05Z</time>
      </trkpt>
      <trkpt lat="49.97074" lon="2.36724">
        <ele>105</ele>
        <time>2023-01-25T14:25:06Z</time>
      </trkpt>
      <trkpt lat="49.97074" lon="2.36722">
        <ele>105</ele>
        <time>2023-01-25T14:25:07Z</time>
      </trkpt>
      <trkpt lat="49.97074" lon="2.3672">
        <ele>105</ele>
        <time>2023-01-25T14:25:08Z</time>
      </trkpt>
      <trkpt lat="49.97074" lon="2.36719">
        <ele>105.1</ele>
        <time>2023-01-25T14:25:09Z</time>
      </trkpt>
      <trkpt lat="49.97075" lon="2.36716">
        <ele>105.1</ele>
        <time>2023-01-25T14:25:11Z</time>
      </trkpt>
      <trkpt lat="49.97075" lon="2.36714">
        <ele>105.1</ele>
        <time>2023-01-25T14:25:12Z</time>
      </trkpt>
      <trkpt lat="49.97076" lon="2.36713">
        <ele>105.2</ele>
        <time>2023-01-25T14:25:13Z</time>
      </trkpt>
      <trkpt lat="49.97076" lon="2.36712">
        <ele>105.2</ele>
        <time>2023-01-25T14:25:14Z</time>
      </trkpt>
      <trkpt lat="49.97077" lon="2.3671">
        <ele>105.2</ele>
        <time>2023-01-25T14:25:15Z</time>
      </trkpt>
      <trkpt lat="49.97077" lon="2.36709">
        <ele>105.2</ele>
        <time>2023-01-25T14:25:16Z</time>
      </trkpt>
      <trkpt lat="49.97078" lon="2.36706">
        <ele>105.3</ele>
        <time>2023-01-25T14:25:18Z</time>
      </trkpt>
      <trkpt lat="49.97078" lon="2.36705">
        <ele>105.3</ele>
        <time>2023-01-25T14:25:19Z</time>
      </trkpt>
      <trkpt lat="49.97078" lon="2.36704">
        <ele>105.3</ele>
        <time>2023-01-25T14:25:20Z</time>
      </trkpt>
      <trkpt lat="49.97079" lon="2.367">
        <ele>105.4</ele>
        <time>2023-01-25T14:25:21Z</time>
      </trkpt>
      <trkpt lat="49.97079" lon="2.36699">
        <ele>105.4</ele>
        <time>2023-01-25T14:25:22Z</time>
      </trkpt>
      <trkpt lat="49.9708" lon="2.36698">
        <ele>105.4</ele>
        <time>2023-01-25T14:25:23Z</time>
      </trkpt>
      <trkpt lat="49.9708" lon="2.36696">
        <ele>105.5</ele>
        <time>2023-01-25T14:25:24Z</time>
      </trkpt>
      <trkpt lat="49.9708" lon="2.36694">
        <ele>105.5</ele>
        <time>2023-01-25T14:25:26Z</time>
      </trkpt>
      <trkpt lat="49.97081" lon="2.36693">
        <ele>105.6</ele>
        <time>2023-01-25T14:25:27Z</time>
      </trkpt>
      <trkpt lat="49.97082" lon="2.36689">
        <ele>105.6</ele>
        <time>2023-01-25T14:25:28Z</time>
      </trkpt>
      <trkpt lat="49.97082" lon="2.36688">
        <ele>105.7</ele>
        <time>2023-01-25T14:25:29Z</time>
      </trkpt>
      <trkpt lat="49.97082" lon="2.36687">
        <ele>105.7</ele>
        <time>2023-01-25T14:25:30Z</time>
      </trkpt>
      <trkpt lat="49.97082" lon="2.36685">
        <ele>105.7</ele>
        <time>2023-01-25T14:25:31Z</time>
      </trkpt>
      <trkpt lat="49.97082" lon="2.36684">
        <ele>105.8</ele>
        <time>2023-01-25T14:25:33Z</time>
      </trkpt>
      <trkpt lat="49.97082" lon="2.36682">
        <ele>105.8</ele>
        <time>2023-01-25T14:25:34Z</time>
      </trkpt>
      <trkpt lat="49.97082" lon="2.36678">
        <ele>105.9</ele>
        <time>2023-01-25T14:25:35Z</time>
      </trkpt>
      <trkpt lat="49.97082" lon="2.36677">
        <ele>105.9</ele>
        <time>2023-01-25T14:25:36Z</time>
      </trkpt>
      <trkpt lat="49.97083" lon="2.36676">
        <ele>105.9</ele>
        <time>2023-01-25T14:25:37Z</time>
      </trkpt>
      <trkpt lat="49.97083" lon="2.36674">
        <ele>106</ele>
        <time>2023-01-25T14:25:38Z</time>
      </trkpt>
      <trkpt lat="49.97083" lon="2.36672">
        <ele>106</ele>
        <time>2023-01-25T14:25:39Z</time>
      </trkpt>
      <trkpt lat="49.97084" lon="2.36671">
        <ele>106</ele>
        <time>2023-01-25T14:25:40Z</time>
      </trkpt>
      <trkpt lat="49.97084" lon="2.36668">
        <ele>106.1</ele>
        <time>2023-01-25T14:25:41Z</time>
      </trkpt>
      <trkpt lat="49.97084" lon="2.36666">
        <ele>106.1</ele>
        <time>2023-01-25T14:25:43Z</time>
      </trkpt>
      <trkpt lat="49.97084" lon="2.36665">
        <ele>106.1</ele>
        <time>2023-01-25T14:25:44Z</time>
      </trkpt>
      <trkpt lat="49.97085" lon="2.36661">
        <ele>106.2</ele>
        <time>2023-01-25T14:25:45Z</time>
      </trkpt>
      <trkpt lat="49.97085" lon="2.3666">
        <ele>106.3</ele>
        <time>2023-01-25T14:25:46Z</time>
      </trkpt>
      <trkpt lat="49.97085" lon="2.36659">
        <ele>106.3</ele>
        <time>2023-01-25T14:25:47Z</time>
      </trkpt>
      <trkpt lat="49.97085" lon="2.36658">
        <ele>106.3</ele>
        <time>2023-01-25T14:25:48Z</time>
      </trkpt>
      <trkpt lat="49.97085" lon="2.36656">
        <ele>106.3</ele>
        <time>2023-01-25T14:25:50Z</time>
      </trkpt>
      <trkpt lat="49.97086" lon="2.36654">
        <ele>106.4</ele>
        <time>2023-01-25T14:25:51Z</time>
      </trkpt>
      <trkpt lat="49.97086" lon="2.36653">
        <ele>106.4</ele>
        <time>2023-01-25T14:25:52Z</time>
      </trkpt>
      <trkpt lat="49.97086" lon="2.36651">
        <ele>106.5</ele>
        <time>2023-01-25T14:25:53Z</time>
      </trkpt>
      <trkpt lat="49.97087" lon="2.36649">
        <ele>106.5</ele>
        <time>2023-01-25T14:25:54Z</time>
      </trkpt>
      <trkpt lat="49.97088" lon="2.36646">
        <ele>106.6</ele>
        <time>2023-01-25T14:25:55Z</time>
      </trkpt>
      <trkpt lat="49.97088" lon="2.36644">
        <ele>106.6</ele>
        <time>2023-01-25T14:25:56Z</time>
      </trkpt>
      <trkpt lat="49.97088" lon="2.36643">
        <ele>106.7</ele>
        <time>2023-01-25T14:25:58Z</time>
      </trkpt>
      <trkpt lat="49.97089" lon="2.36642">
        <ele>106.7</ele>
        <time>2023-01-25T14:25:59Z</time>
      </trkpt>
      <trkpt lat="49.97089" lon="2.3664">
        <ele>106.8</ele>
        <time>2023-01-25T14:26:00Z</time>
      </trkpt>
      <trkpt lat="49.9709" lon="2.36639">
        <ele>106.8</ele>
        <time>2023-01-25T14:26:01Z</time>
      </trkpt>
      <trkpt lat="49.9709" lon="2.36638">
        <ele>106.9</ele>
        <time>2023-01-25T14:26:02Z</time>
      </trkpt>
      <trkpt lat="49.9709" lon="2.36636">
        <ele>106.9</ele>
        <time>2023-01-25T14:26:03Z</time>
      </trkpt>
      <trkpt lat="49.97091" lon="2.36635">
        <ele>106.9</ele>
        <time>2023-01-25T14:26:04Z</time>
      </trkpt>
      <trkpt lat="49.97091" lon="2.36631">
        <ele>107</ele>
        <time>2023-01-25T14:26:06Z</time>
      </trkpt>
      <trkpt lat="49.97091" lon="2.3663">
        <ele>107.1</ele>
        <time>2023-01-25T14:26:07Z</time>
      </trkpt>
      <trkpt lat="49.97091" lon="2.36629">
        <ele>107.1</ele>
        <time>2023-01-25T14:26:08Z</time>
      </trkpt>
      <trkpt lat="49.97091" lon="2.36628">
        <ele>107.1</ele>
        <time>2023-01-25T14:26:09Z</time>
      </trkpt>
      <trkpt lat="49.97092" lon="2.36626">
        <ele>107.2</ele>
        <time>2023-01-25T14:26:10Z</time>
      </trkpt>
      <trkpt lat="49.97092" lon="2.36624">
        <ele>107.2</ele>
        <time>2023-01-25T14:26:11Z</time>
      </trkpt>
      <trkpt lat="49.97092" lon="2.36623">
        <ele>107.3</ele>
        <time>2023-01-25T14:26:12Z</time>
      </trkpt>
      <trkpt lat="49.97092" lon="2.36621">
        <ele>107.3</ele>
        <time>2023-01-25T14:26:13Z</time>
      </trkpt>
      <trkpt lat="49.97093" lon="2.36619">
        <ele>107.4</ele>
        <time>2023-01-25T14:26:15Z</time>
      </trkpt>
      <trkpt lat="49.97093" lon="2.36617">
        <ele>107.4</ele>
        <time>2023-01-25T14:26:16Z</time>
      </trkpt>
      <trkpt lat="49.97094" lon="2.36616">
        <ele>107.5</ele>
        <time>2023-01-25T14:26:17Z</time>
      </trkpt>
      <trkpt lat="49.97094" lon="2.36614">
        <ele>107.5</ele>
        <time>2023-01-25T14:26:18Z</time>
      </trkpt>
      <trkpt lat="49.97094" lon="2.36613">
        <ele>107.5</ele>
        <time>2023-01-25T14:26:19Z</time>
      </trkpt>
      <trkpt lat="49.97095" lon="2.36611">
        <ele>107.6</ele>
        <time>2023-01-25T14:26:20Z</time>
      </trkpt>
      <trkpt lat="49.97095" lon="2.36609">
        <ele>107.6</ele>
        <time>2023-01-25T14:26:21Z</time>
      </trkpt>
      <trkpt lat="49.97096" lon="2.36606">
        <ele>107.7</ele>
        <time>2023-01-25T14:26:23Z</time>
      </trkpt>
      <trkpt lat="49.97096" lon="2.36605">
        <ele>107.7</ele>
        <time>2023-01-25T14:26:24Z</time>
      </trkpt>
      <trkpt lat="49.97097" lon="2.36604">
        <ele>107.7</ele>
        <time>2023-01-25T14:26:25Z</time>
      </trkpt>
      <trkpt lat="49.97097" lon="2.36601">
        <ele>107.8</ele>
        <time>2023-01-25T14:26:26Z</time>
      </trkpt>
      <trkpt lat="49.97098" lon="2.366">
        <ele>107.8</ele>
        <time>2023-01-25T14:26:27Z</time>
      </trkpt>
      <trkpt lat="49.97098" lon="2.36599">
        <ele>107.9</ele>
        <time>2023-01-25T14:26:28Z</time>
      </trkpt>
      <trkpt lat="49.97099" lon="2.36596">
        <ele>107.9</ele>
        <time>2023-01-25T14:26:30Z</time>
      </trkpt>
      <trkpt lat="49.97099" lon="2.36594">
        <ele>108</ele>
        <time>2023-01-25T14:26:31Z</time>
      </trkpt>
      <trkpt lat="49.97099" lon="2.36593">
        <ele>108</ele>
        <time>2023-01-25T14:26:32Z</time>
      </trkpt>
      <trkpt lat="49.971" lon="2.36591">
        <ele>108</ele>
        <time>2023-01-25T14:26:33Z</time>
      </trkpt>
      <trkpt lat="49.971" lon="2.36589">
        <ele>108.1</ele>
        <time>2023-01-25T14:26:34Z</time>
      </trkpt>
      <trkpt lat="49.97101" lon="2.36587">
        <ele>108.1</ele>
        <time>2023-01-25T14:26:35Z</time>
      </trkpt>
      <trkpt lat="49.97101" lon="2.36586">
        <ele>108.2</ele>
        <time>2023-01-25T14:26:36Z</time>
      </trkpt>
      <trkpt lat="49.97102" lon="2.36585">
        <ele>108.2</ele>
        <time>2023-01-25T14:26:38Z</time>
      </trkpt>
      <trkpt lat="49.97102" lon="2.36583">
        <ele>108.2</ele>
        <time>2023-01-25T14:26:39Z</time>
      </trkpt>
      <trkpt lat="49.97102" lon="2.36581">
        <ele>108.3</ele>
        <time>2023-01-25T14:26:40Z</time>
      </trkpt>
      <trkpt lat="49.97103" lon="2.36579">
        <ele>108.3</ele>
        <time>2023-01-25T14:26:41Z</time>
      </trkpt>
      <trkpt lat="49.97103" lon="2.36576">
        <ele>108.4</ele>
        <time>2023-01-25T14:26:42Z</time>
      </trkpt>
      <trkpt lat="49.97104" lon="2.36575">
        <ele>108.4</ele>
        <time>2023-01-25T14:26:43Z</time>
      </trkpt>
      <trkpt lat="49.97104" lon="2.36573">
        <ele>108.5</ele>
        <time>2023-01-25T14:26:45Z</time>
      </trkpt>
      <trkpt lat="49.97104" lon="2.36572">
        <ele>108.5</ele>
        <time>2023-01-25T14:26:46Z</time>
      </trkpt>
      <trkpt lat="49.97104" lon="2.3657">
        <ele>108.6</ele>
        <time>2023-01-25T14:26:47Z</time>
      </trkpt>
      <trkpt lat="49.97104" lon="2.36569">
        <ele>108.6</ele>
        <time>2023-01-25T14:26:48Z</time>
      </trkpt>
      <trkpt lat="49.97105" lon="2.36568">
        <ele>108.6</ele>
        <time>2023-01-25T14:26:49Z</time>
      </trkpt>
      <trkpt lat="49.97105" lon="2.36566">
        <ele>108.7</ele>
        <time>2023-01-25T14:26:50Z</time>
      </trkpt>
      <trkpt lat="49.97105" lon="2.36564">
        <ele>108.7</ele>
        <time>2023-01-25T14:26:51Z</time>
      </trkpt>
      <trkpt lat="49.97105" lon="2.36563">
        <ele>108.8</ele>
        <time>2023-01-25T14:26:52Z</time>
      </trkpt>
      <trkpt lat="49.97106" lon="2.36561">
        <ele>108.8</ele>
        <time>2023-01-25T14:26:53Z</time>
      </trkpt>
      <trkpt lat="49.97106" lon="2.36559">
        <ele>108.9</ele>
        <time>2023-01-25T14:26:55Z</time>
      </trkpt>
      <trkpt lat="49.97106" lon="2.36557">
        <ele>108.9</ele>
        <time>2023-01-25T14:26:56Z</time>
      </trkpt>
      <trkpt lat="49.97107" lon="2.36556">
        <ele>109</ele>
        <time>2023-01-25T14:26:57Z</time>
      </trkpt>
      <trkpt lat="49.97107" lon="2.36554">
        <ele>109</ele>
        <time>2023-01-25T14:26:58Z</time>
      </trkpt>
      <trkpt lat="49.97107" lon="2.36553">
        <ele>109.1</ele>
        <time>2023-01-25T14:26:59Z</time>
      </trkpt>
      <trkpt lat="49.97108" lon="2.36551">
        <ele>109.1</ele>
        <time>2023-01-25T14:27:01Z</time>
      </trkpt>
      <trkpt lat="49.97108" lon="2.36549">
        <ele>109.2</ele>
        <time>2023-01-25T14:27:02Z</time>
      </trkpt>
      <trkpt lat="49.97109" lon="2.36547">
        <ele>109.2</ele>
        <time>2023-01-25T14:27:03Z</time>
      </trkpt>
      <trkpt lat="49.97109" lon="2.36546">
        <ele>109.3</ele>
        <time>2023-01-25T14:27:04Z</time>
      </trkpt>
      <trkpt lat="49.9711" lon="2.36545">
        <ele>109.3</ele>
        <time>2023-01-25T14:27:05Z</time>
      </trkpt>
      <trkpt lat="49.97111" lon="2.36543">
        <ele>109.4</ele>
        <time>2023-01-25T14:27:06Z</time>
      </trkpt>
      <trkpt lat="49.97111" lon="2.36541">
        <ele>109.4</ele>
        <time>2023-01-25T14:27:07Z</time>
      </trkpt>
      <trkpt lat="49.97111" lon="2.3654">
        <ele>109.4</ele>
        <time>2023-01-25T14:27:08Z</time>
      </trkpt>
      <trkpt lat="49.97112" lon="2.36538">
        <ele>109.5</ele>
        <time>2023-01-25T14:27:09Z</time>
      </trkpt>
      <trkpt lat="49.97113" lon="2.36536">
        <ele>109.6</ele>
        <time>2023-01-25T14:27:11Z</time>
      </trkpt>
      <trkpt lat="49.97113" lon="2.36534">
        <ele>109.6</ele>
        <time>2023-01-25T14:27:12Z</time>
      </trkpt>
      <trkpt lat="49.97113" lon="2.36533">
        <ele>109.6</ele>
        <time>2023-01-25T14:27:13Z</time>
      </trkpt>
      <trkpt lat="49.97113" lon="2.36531">
        <ele>109.7</ele>
        <time>2023-01-25T14:27:14Z</time>
      </trkpt>
      <trkpt lat="49.97114" lon="2.36528">
        <ele>109.8</ele>
        <time>2023-01-25T14:27:15Z</time>
      </trkpt>
      <trkpt lat="49.97115" lon="2.36527">
        <ele>109.8</ele>
        <time>2023-01-25T14:27:16Z</time>
      </trkpt>
      <trkpt lat="49.97115" lon="2.36525">
        <ele>109.9</ele>
        <time>2023-01-25T14:27:18Z</time>
      </trkpt>
      <trkpt lat="49.97115" lon="2.36524">
        <ele>109.9</ele>
        <time>2023-01-25T14:27:19Z</time>
      </trkpt>
      <trkpt lat="49.97116" lon="2.36523">
        <ele>110</ele>
        <time>2023-01-25T14:27:20Z</time>
      </trkpt>
      <trkpt lat="49.97116" lon="2.36521">
        <ele>110</ele>
        <time>2023-01-25T14:27:21Z</time>
      </trkpt>
      <trkpt lat="49.97117" lon="2.36519">
        <ele>110.1</ele>
        <time>2023-01-25T14:27:22Z</time>
      </trkpt>
      <trkpt lat="49.97117" lon="2.36518">
        <ele>110.1</ele>
        <time>2023-01-25T14:27:23Z</time>
      </trkpt>
      <trkpt lat="49.97118" lon="2.36517">
        <ele>110.2</ele>
        <time>2023-01-25T14:27:24Z</time>
      </trkpt>
      <trkpt lat="49.97118" lon="2.36516">
        <ele>110.2</ele>
        <time>2023-01-25T14:27:25Z</time>
      </trkpt>
      <trkpt lat="49.97119" lon="2.36515">
        <ele>110.2</ele>
        <time>2023-01-25T14:27:26Z</time>
      </trkpt>
      <trkpt lat="49.9712" lon="2.36513">
        <ele>110.3</ele>
        <time>2023-01-25T14:27:28Z</time>
      </trkpt>
      <trkpt lat="49.97121" lon="2.36512">
        <ele>110.4</ele>
        <time>2023-01-25T14:27:29Z</time>
      </trkpt>
      <trkpt lat="49.97121" lon="2.3651">
        <ele>110.4</ele>
        <time>2023-01-25T14:27:30Z</time>
      </trkpt>
      <trkpt lat="49.97122" lon="2.36508">
        <ele>110.5</ele>
        <time>2023-01-25T14:27:31Z</time>
      </trkpt>
      <trkpt lat="49.97122" lon="2.36507">
        <ele>110.5</ele>
        <time>2023-01-25T14:27:32Z</time>
      </trkpt>
      <trkpt lat="49.97122" lon="2.36506">
        <ele>110.6</ele>
        <time>2023-01-25T14:27:33Z</time>
      </trkpt>
      <trkpt lat="49.97123" lon="2.36504">
        <ele>110.6</ele>
        <time>2023-01-25T14:27:35Z</time>
      </trkpt>
      <trkpt lat="49.97123" lon="2.36503">
        <ele>110.7</ele>
        <time>2023-01-25T14:27:36Z</time>
      </trkpt>
      <trkpt lat="49.97124" lon="2.365">
        <ele>110.8</ele>
        <time>2023-01-25T14:27:37Z</time>
      </trkpt>
      <trkpt lat="49.97125" lon="2.36499">
        <ele>110.8</ele>
        <time>2023-01-25T14:27:38Z</time>
      </trkpt>
      <trkpt lat="49.97125" lon="2.36498">
        <ele>110.8</ele>
        <time>2023-01-25T14:27:39Z</time>
      </trkpt>
      <trkpt lat="49.97125" lon="2.36496">
        <ele>110.9</ele>
        <time>2023-01-25T14:27:40Z</time>
      </trkpt>
      <trkpt lat="49.97125" lon="2.36494">
        <ele>111</ele>
        <time>2023-01-25T14:27:41Z</time>
      </trkpt>
      <trkpt lat="49.97126" lon="2.36493">
        <ele>111</ele>
        <time>2023-01-25T14:27:42Z</time>
      </trkpt>
      <trkpt lat="49.97126" lon="2.36492">
        <ele>111.1</ele>
        <time>2023-01-25T14:27:44Z</time>
      </trkpt>
      <trkpt lat="49.97126" lon="2.3649">
        <ele>111.1</ele>
        <time>2023-01-25T14:27:45Z</time>
      </trkpt>
      <trkpt lat="49.97126" lon="2.36488">
        <ele>111.2</ele>
        <time>2023-01-25T14:27:46Z</time>
      </trkpt>
      <trkpt lat="49.97127" lon="2.36488">
        <ele>111.2</ele>
        <time>2023-01-25T14:27:47Z</time>
      </trkpt>
      <trkpt lat="49.97127" lon="2.36487">
        <ele>111.2</ele>
        <time>2023-01-25T14:27:48Z</time>
      </trkpt>
      <trkpt lat="49.97127" lon="2.36486">
        <ele>111.3</ele>
        <time>2023-01-25T14:27:49Z</time>
      </trkpt>
      <trkpt lat="49.97127" lon="2.36485">
        <ele>111.3</ele>
        <time>2023-01-25T14:27:50Z</time>
      </trkpt>
      <trkpt lat="49.97128" lon="2.36483">
        <ele>111.4</ele>
        <time>2023-01-25T14:27:52Z</time>
      </trkpt>
      <trkpt lat="49.97127" lon="2.36482">
        <ele>111.4</ele>
        <time>2023-01-25T14:27:53Z</time>
      </trkpt>
      <trkpt lat="49.97126" lon="2.36482">
        <ele>111.5</ele>
        <time>2023-01-25T14:27:55Z</time>
      </trkpt>
      <trkpt lat="49.97126" lon="2.36482">
        <ele>111.5</ele>
        <time>2023-01-25T14:27:56Z</time>
      </trkpt>
      <trkpt lat="49.97126" lon="2.36482">
        <ele>111.5</ele>
        <time>2023-01-25T14:27:57Z</time>
      </trkpt>
      <trkpt lat="49.97126" lon="2.36481">
        <ele>111.5</ele>
        <time>2023-01-25T14:27:58Z</time>
      </trkpt>
      <trkpt lat="49.97126" lon="2.36481">
        <ele>111.5</ele>
        <time>2023-01-25T14:28:00Z</time>
      </trkpt>
      <trkpt lat="49.97125" lon="2.36481">
        <ele>111.5</ele>
        <time>2023-01-25T14:28:01Z</time>
      </trkpt>
      <trkpt lat="49.97125" lon="2.36481">
        <ele>111.5</ele>
        <time>2023-01-25T14:28:02Z</time>
      </trkpt>
      <trkpt lat="49.97125" lon="2.36481">
        <ele>111.5</ele>
        <time>2023-01-25T14:28:04Z</time>
      </trkpt>
      <trkpt lat="49.97125" lon="2.36482">
        <ele>111.5</ele>
        <time>2023-01-25T14:28:05Z</time>
      </trkpt>
      <trkpt lat="49.97125" lon="2.36482">
        <ele>111.6</ele>
        <time>2023-01-25T14:28:06Z</time>
      </trkpt>
      <trkpt lat="49.97125" lon="2.36482">
        <ele>111.6</ele>
        <time>2023-01-25T14:28:08Z</time>
      </trkpt>
      <trkpt lat="49.97125" lon="2.36482">
        <ele>111.6</ele>
        <time>2023-01-25T14:28:09Z</time>
      </trkpt>
      <trkpt lat="49.97125" lon="2.36482">
        <ele>111.6</ele>
        <time>2023-01-25T14:28:10Z</time>
      </trkpt>
      <trkpt lat="49.97125" lon="2.36482">
        <ele>111.6</ele>
        <time>2023-01-25T14:28:11Z</time>
      </trkpt>
      <trkpt lat="49.97125" lon="2.36482">
        <ele>111.6</ele>
        <time>2023-01-25T14:28:12Z</time>
      </trkpt>
      <trkpt lat="49.97125" lon="2.36482">
        <ele>111.6</ele>
        <time>2023-01-25T14:28:13Z</time>
      </trkpt>
      <trkpt lat="49.97125" lon="2.36482">
        <ele>111.6</ele>
        <time>2023-01-25T14:28:14Z</time>
      </trkpt>
      <trkpt lat="49.97125" lon="2.36482">
        <ele>111.6</ele>
        <time>2023-01-25T14:28:15Z</time>
      </trkpt>
      <trkpt lat="49.97125" lon="2.36482">
        <ele>111.6</ele>
        <time>2023-01-25T14:28:16Z</time>
      </trkpt>
      <trkpt lat="49.97125" lon="2.36482">
        <ele>111.6</ele>
        <time>2023-01-25T14:28:17Z</time>
      </trkpt>
      <trkpt lat="49.97125" lon="2.36482">
        <ele>111.6</ele>
        <time>2023-01-25T14:28:18Z</time>
      </trkpt>
      <trkpt lat="49.97125" lon="2.36482">
        <ele>111.6</ele>
        <time>2023-01-25T14:28:19Z</time>
      </trkpt>
      <trkpt lat="49.97125" lon="2.36482">
        <ele>111.6</ele>
        <time>2023-01-25T14:28:20Z</time>
      </trkpt>
      <trkpt lat="49.97125" lon="2.36482">
        <ele>111.6</ele>
        <time>2023-01-25T14:28:21Z</time>
      </trkpt>
      <trkpt lat="49.97125" lon="2.36482">
        <ele>111.6</ele>
        <time>2023-01-25T14:28:22Z</time>
      </trkpt>
      <trkpt lat="49.97125" lon="2.36482">
        <ele>111.6</ele>
        <time>2023-01-25T14:28:23Z</time>
      </trkpt>
      <trkpt lat="49.97125" lon="2.36482">
        <ele>111.6</ele>
        <time>2023-01-25T14:28:24Z</time>
      </trkpt>
      <trkpt lat="49.97125" lon="2.36482">
        <ele>111.6</ele>
        <time>2023-01-25T14:28:25Z</time>
      </trkpt>
      <trkpt lat="49.97125" lon="2.36482">
        <ele>111.6</ele>
        <time>2023-01-25T14:28:26Z</time>
      </trkpt>
      <trkpt lat="49.97125" lon="2.36482">
        <ele>111.6</ele>
        <time>2023-01-25T14:28:27Z</time>
      </trkpt>
      <trkpt lat="49.97125" lon="2.36482">
        <ele>111.6</ele>
        <time>2023-01-25T14:28:28Z</time>
      </trkpt>
      <trkpt lat="49.97125" lon="2.36482">
        <ele>111.6</ele>
        <time>2023-01-25T14:28:29Z</time>
      </trkpt>
      <trkpt lat="49.97125" lon="2.36482">
        <ele>111.6</ele>
        <time>2023-01-25T14:28:30Z</time>
      </trkpt>
      <trkpt lat="49.97125" lon="2.36482">
        <ele>111.6</ele>
        <time>2023-01-25T14:28:31Z</time>
      </trkpt>
      <trkpt lat="49.97125" lon="2.36481">
        <ele>111.6</ele>
        <time>2023-01-25T14:28:32Z</time>
      </trkpt>
      <trkpt lat="49.97125" lon="2.36481">
        <ele>111.6</ele>
        <time>2023-01-25T14:28:33Z</time>
      </trkpt>
      <trkpt lat="49.97126" lon="2.36481">
        <ele>111.6</ele>
        <time>2023-01-25T14:28:34Z</time>
      </trkpt>
      <trkpt lat="49.97126" lon="2.36481">
        <ele>111.6</ele>
        <time>2023-01-25T14:28:35Z</time>
      </trkpt>
      <trkpt lat="49.97126" lon="2.36481">
        <ele>111.6</ele>
        <time>2023-01-25T14:28:36Z</time>
      </trkpt>
      <trkpt lat="49.97126" lon="2.36481">
        <ele>111.6</ele>
        <time>2023-01-25T14:28:37Z</time>
      </trkpt>
      <trkpt lat="49.97126" lon="2.36481">
        <ele>111.6</ele>
        <time>2023-01-25T14:28:38Z</time>
      </trkpt>
      <trkpt lat="49.97126" lon="2.36481">
        <ele>111.6</ele>
        <time>2023-01-25T14:28:39Z</time>
      </trkpt>
      <trkpt lat="49.97126" lon="2.36481">
        <ele>111.6</ele>
        <time>2023-01-25T14:28:40Z</time>
      </trkpt>
      <trkpt lat="49.97126" lon="2.36481">
        <ele>111.6</ele>
        <time>2023-01-25T14:28:41Z</time>
      </trkpt>
      <trkpt lat="49.97126" lon="2.36481">
        <ele>111.6</ele>
        <time>2023-01-25T14:28:42Z</time>
      </trkpt>
      <trkpt lat="49.97126" lon="2.36481">
        <ele>111.6</ele>
        <time>2023-01-25T14:28:43Z</time>
      </trkpt>
      <trkpt lat="49.97126" lon="2.36481">
        <ele>111.6</ele>
        <time>2023-01-25T14:28:44Z</time>
      </trkpt>
      <trkpt lat="49.97126" lon="2.36481">
        <ele>111.6</ele>
        <time>2023-01-25T14:28:45Z</time>
      </trkpt>
      <trkpt lat="49.97126" lon="2.36481">
        <ele>111.6</ele>
        <time>2023-01-25T14:28:46Z</time>
      </trkpt>
      <trkpt lat="49.97126" lon="2.36481">
        <ele>111.6</ele>
        <time>2023-01-25T14:28:47Z</time>
      </trkpt>
      <trkpt lat="49.97126" lon="2.36481">
        <ele>111.6</ele>
        <time>2023-01-25T14:28:48Z</time>
      </trkpt>
      <trkpt lat="49.97126" lon="2.36481">
        <ele>111.6</ele>
        <time>2023-01-25T14:28:49Z</time>
      </trkpt>
      <trkpt lat="49.97126" lon="2.36481">
        <ele>111.6</ele>
        <time>2023-01-25T14:28:50Z</time>
      </trkpt>
      <trkpt lat="49.97126" lon="2.36481">
        <ele>111.6</ele>
        <time>2023-01-25T14:28:51Z</time>
      </trkpt>
      <trkpt lat="49.97126" lon="2.36481">
        <ele>111.6</ele>
        <time>2023-01-25T14:28:52Z</time>
      </trkpt>
      <trkpt lat="49.97126" lon="2.36481">
        <ele>111.6</ele>
        <time>2023-01-25T14:28:53Z</time>
      </trkpt>
      <trkpt lat="49.97126" lon="2.36481">
        <ele>111.6</ele>
        <time>2023-01-25T14:28:54Z</time>
      </trkpt>
      <trkpt lat="49.97126" lon="2.36481">
        <ele>111.6</ele>
        <time>2023-01-25T14:28:55Z</time>
      </trkpt>
      <trkpt lat="49.97126" lon="2.36481">
        <ele>111.7</ele>
        <time>2023-01-25T14:28:56Z</time>
      </trkpt>
      <trkpt lat="49.97126" lon="2.36481">
        <ele>111.7</ele>
        <time>2023-01-25T14:28:57Z</time>
      </trkpt>
      <trkpt lat="49.97126" lon="2.36481">
        <ele>111.7</ele>
        <time>2023-01-25T14:28:58Z</time>
      </trkpt>
      <trkpt lat="49.97126" lon="2.36481">
        <ele>111.7</ele>
        <time>2023-01-25T14:28:59Z</time>
      </trkpt>
      <trkpt lat="49.97126" lon="2.36481">
        <ele>111.7</ele>
        <time>2023-01-25T14:29:00Z</time>
      </trkpt>
      <trkpt lat="49.97126" lon="2.36481">
        <ele>111.7</ele>
        <time>2023-01-25T14:29:01Z</time>
      </trkpt>
      <trkpt lat="49.97126" lon="2.36481">
        <ele>111.7</ele>
        <time>2023-01-25T14:29:02Z</time>
      </trkpt>
      <trkpt lat="49.97126" lon="2.36481">
        <ele>111.7</ele>
        <time>2023-01-25T14:29:03Z</time>
      </trkpt>
      <trkpt lat="49.97126" lon="2.36481">
        <ele>111.7</ele>
        <time>2023-01-25T14:29:04Z</time>
      </trkpt>
      <trkpt lat="49.97126" lon="2.36481">
        <ele>111.7</ele>
        <time>2023-01-25T14:29:05Z</time>
      </trkpt>
      <trkpt lat="49.97126" lon="2.36481">
        <ele>111.7</ele>
        <time>2023-01-25T14:29:06Z</time>
      </trkpt>
      <trkpt lat="49.97126" lon="2.36481">
        <ele>111.7</ele>
        <time>2023-01-25T14:29:07Z</time>
      </trkpt>
      <trkpt lat="49.97126" lon="2.36481">
        <ele>111.7</ele>
        <time>2023-01-25T14:29:08Z</time>
      </trkpt>
      <trkpt lat="49.97126" lon="2.36481">
        <ele>111.7</ele>
        <time>2023-01-25T14:29:09Z</time>
      </trkpt>
      <trkpt lat="49.97126" lon="2.36481">
        <ele>111.7</ele>
        <time>2023-01-25T14:29:10Z</time>
      </trkpt>
      <trkpt lat="49.97126" lon="2.36481">
        <ele>111.7</ele>
        <time>2023-01-25T14:29:11Z</time>
      </trkpt>
      <trkpt lat="49.97126" lon="2.36481">
        <ele>111.7</ele>
        <time>2023-01-25T14:29:12Z</time>
      </trkpt>
      <trkpt lat="49.97126" lon="2.36481">
        <ele>111.7</ele>
        <time>2023-01-25T14:29:13Z</time>
      </trkpt>
      <trkpt lat="49.97126" lon="2.36481">
        <ele>111.7</ele>
        <time>2023-01-25T14:29:14Z</time>
      </trkpt>
      <trkpt lat="49.97126" lon="2.36481">
        <ele>111.7</ele>
        <time>2023-01-25T14:29:15Z</time>
      </trkpt>
      <trkpt lat="49.97126" lon="2.36481">
        <ele>111.7</ele>
        <time>2023-01-25T14:29:16Z</time>
      </trkpt>
      <trkpt lat="49.97126" lon="2.36481">
        <ele>111.7</ele>
        <time>2023-01-25T14:29:17Z</time>
      </trkpt>
      <trkpt lat="49.97126" lon="2.36481">
        <ele>111.7</ele>
        <time>2023-01-25T14:29:18Z</time>
      </trkpt>
      <trkpt lat="49.97127" lon="2.36481">
        <ele>111.7</ele>
        <time>2023-01-25T14:29:19Z</time>
      </trkpt>
      <trkpt lat="49.97127" lon="2.36481">
        <ele>111.7</ele>
        <time>2023-01-25T14:29:20Z</time>
      </trkpt>
      <trkpt lat="49.97127" lon="2.36481">
        <ele>111.7</ele>
        <time>2023-01-25T14:29:21Z</time>
      </trkpt>
      <trkpt lat="49.97127" lon="2.36481">
        <ele>111.7</ele>
        <time>2023-01-25T14:29:22Z</time>
      </trkpt>
      <trkpt lat="49.97127" lon="2.36481">
        <ele>111.7</ele>
        <time>2023-01-25T14:29:23Z</time>
      </trkpt>
      <trkpt lat="49.97127" lon="2.36481">
        <ele>111.7</ele>
        <time>2023-01-25T14:29:24Z</time>
      </trkpt>
      <trkpt lat="49.97127" lon="2.36481">
        <ele>111.7</ele>
        <time>2023-01-25T14:29:25Z</time>
      </trkpt>
      <trkpt lat="49.97127" lon="2.36481">
        <ele>111.7</ele>
        <time>2023-01-25T14:29:26Z</time>
      </trkpt>
      <trkpt lat="49.97127" lon="2.36481">
        <ele>111.7</ele>
        <time>2023-01-25T14:29:28Z</time>
      </trkpt>
      <trkpt lat="49.97127" lon="2.36481">
        <ele>111.7</ele>
        <time>2023-01-25T14:29:30Z</time>
      </trkpt>
      <trkpt lat="49.97127" lon="2.36481">
        <ele>111.7</ele>
        <time>2023-01-25T14:29:31Z</time>
      </trkpt>
      <trkpt lat="49.97127" lon="2.36481">
        <ele>111.7</ele>
        <time>2023-01-25T14:29:32Z</time>
      </trkpt>
      <trkpt lat="49.97127" lon="2.36481">
        <ele>111.7</ele>
        <time>2023-01-25T14:29:33Z</time>
      </trkpt>
      <trkpt lat="49.97127" lon="2.36481">
        <ele>111.7</ele>
        <time>2023-01-25T14:29:34Z</time>
      </trkpt>
      <trkpt lat="49.97127" lon="2.36481">
        <ele>111.7</ele>
        <time>2023-01-25T14:29:35Z</time>
      </trkpt>
      <trkpt lat="49.97127" lon="2.36481">
        <ele>111.7</ele>
        <time>2023-01-25T14:29:36Z</time>
      </trkpt>
      <trkpt lat="49.97127" lon="2.36481">
        <ele>111.7</ele>
        <time>2023-01-25T14:29:37Z</time>
      </trkpt>
      <trkpt lat="49.97127" lon="2.36481">
        <ele>111.7</ele>
        <time>2023-01-25T14:29:38Z</time>
      </trkpt>
      <trkpt lat="49.97127" lon="2.36481">
        <ele>111.7</ele>
        <time>2023-01-25T14:29:39Z</time>
      </trkpt>
      <trkpt lat="49.97127" lon="2.36481">
        <ele>111.7</ele>
        <time>2023-01-25T14:29:40Z</time>
      </trkpt>
      <trkpt lat="49.97127" lon="2.36481">
        <ele>111.7</ele>
        <time>2023-01-25T14:29:41Z</time>
      </trkpt>
      <trkpt lat="49.97127" lon="2.36481">
        <ele>111.7</ele>
        <time>2023-01-25T14:29:42Z</time>
      </trkpt>
      <trkpt lat="49.97127" lon="2.36481">
        <ele>111.7</ele>
        <time>2023-01-25T14:29:43Z</time>
      </trkpt>
      <trkpt lat="49.97127" lon="2.36481">
        <ele>111.7</ele>
        <time>2023-01-25T14:29:44Z</time>
      </trkpt>
      <trkpt lat="49.97127" lon="2.36481">
        <ele>111.7</ele>
        <time>2023-01-25T14:29:45Z</time>
      </trkpt>
      <trkpt lat="49.97127" lon="2.36481">
        <ele>111.7</ele>
        <time>2023-01-25T14:29:46Z</time>
      </trkpt>
      <trkpt lat="49.97127" lon="2.36481">
        <ele>111.7</ele>
        <time>2023-01-25T14:29:47Z</time>
      </trkpt>
      <trkpt lat="49.97127" lon="2.36481">
        <ele>111.7</ele>
        <time>2023-01-25T14:29:48Z</time>
      </trkpt>
      <trkpt lat="49.97127" lon="2.36481">
        <ele>111.7</ele>
        <time>2023-01-25T14:29:49Z</time>
      </trkpt>
      <trkpt lat="49.97127" lon="2.3648">
        <ele>111.7</ele>
        <time>2023-01-25T14:29:50Z</time>
      </trkpt>
      <trkpt lat="49.97127" lon="2.3648">
        <ele>111.7</ele>
        <time>2023-01-25T14:29:51Z</time>
      </trkpt>
      <trkpt lat="49.97127" lon="2.3648">
        <ele>111.7</ele>
        <time>2023-01-25T14:29:52Z</time>
      </trkpt>
      <trkpt lat="49.97127" lon="2.3648">
        <ele>111.7</ele>
        <time>2023-01-25T14:29:53Z</time>
      </trkpt>
      <trkpt lat="49.97127" lon="2.3648">
        <ele>111.7</ele>
        <time>2023-01-25T14:29:54Z</time>
      </trkpt>
      <trkpt lat="49.97127" lon="2.3648">
        <ele>111.7</ele>
        <time>2023-01-25T14:29:55Z</time>
      </trkpt>
      <trkpt lat="49.97127" lon="2.3648">
        <ele>111.7</ele>
        <time>2023-01-25T14:29:56Z</time>
      </trkpt>
      <trkpt lat="49.97127" lon="2.3648">
        <ele>111.7</ele>
        <time>2023-01-25T14:29:57Z</time>
      </trkpt>
      <trkpt lat="49.97127" lon="2.3648">
        <ele>111.8</ele>
        <time>2023-01-25T14:29:58Z</time>
      </trkpt>
      <trkpt lat="49.97127" lon="2.3648">
        <ele>111.8</ele>
        <time>2023-01-25T14:29:59Z</time>
      </trkpt>
      <trkpt lat="49.97127" lon="2.3648">
        <ele>111.8</ele>
        <time>2023-01-25T14:30:00Z</time>
      </trkpt>
      <trkpt lat="49.97127" lon="2.3648">
        <ele>111.8</ele>
        <time>2023-01-25T14:30:01Z</time>
      </trkpt>
      <trkpt lat="49.97127" lon="2.3648">
        <ele>111.8</ele>
        <time>2023-01-25T14:30:02Z</time>
      </trkpt>
      <trkpt lat="49.97127" lon="2.3648">
        <ele>111.8</ele>
        <time>2023-01-25T14:30:03Z</time>
      </trkpt>
      <trkpt lat="49.97127" lon="2.3648">
        <ele>111.8</ele>
        <time>2023-01-25T14:30:04Z</time>
      </trkpt>
      <trkpt lat="49.97128" lon="2.3648">
        <ele>111.8</ele>
        <time>2023-01-25T14:30:05Z</time>
      </trkpt>
      <trkpt lat="49.97128" lon="2.3648">
        <ele>111.8</ele>
        <time>2023-01-25T14:30:06Z</time>
      </trkpt>
      <trkpt lat="49.97128" lon="2.3648">
        <ele>111.8</ele>
        <time>2023-01-25T14:30:07Z</time>
      </trkpt>
      <trkpt lat="49.97128" lon="2.3648">
        <ele>111.8</ele>
        <time>2023-01-25T14:30:08Z</time>
      </trkpt>
      <trkpt lat="49.97128" lon="2.3648">
        <ele>111.8</ele>
        <time>2023-01-25T14:30:09Z</time>
      </trkpt>
      <trkpt lat="49.97128" lon="2.3648">
        <ele>111.8</ele>
        <time>2023-01-25T14:30:10Z</time>
      </trkpt>
      <trkpt lat="49.97128" lon="2.3648">
        <ele>111.8</ele>
        <time>2023-01-25T14:30:11Z</time>
      </trkpt>
      <trkpt lat="49.97128" lon="2.3648">
        <ele>111.8</ele>
        <time>2023-01-25T14:30:12Z</time>
      </trkpt>
      <trkpt lat="49.97128" lon="2.3648">
        <ele>111.8</ele>
        <time>2023-01-25T14:30:13Z</time>
      </trkpt>
      <trkpt lat="49.97128" lon="2.3648">
        <ele>111.8</ele>
        <time>2023-01-25T14:30:14Z</time>
      </trkpt>
      <trkpt lat="49.97128" lon="2.3648">
        <ele>111.8</ele>
        <time>2023-01-25T14:30:15Z</time>
      </trkpt>
      <trkpt lat="49.97128" lon="2.3648">
        <ele>111.8</ele>
        <time>2023-01-25T14:30:16Z</time>
      </trkpt>
      <trkpt lat="49.97128" lon="2.3648">
        <ele>111.8</ele>
        <time>2023-01-25T14:30:17Z</time>
      </trkpt>
      <trkpt lat="49.97128" lon="2.3648">
        <ele>111.8</ele>
        <time>2023-01-25T14:30:18Z</time>
      </trkpt>
      <trkpt lat="49.97128" lon="2.3648">
        <ele>111.8</ele>
        <time>2023-01-25T14:30:19Z</time>
      </trkpt>
      <trkpt lat="49.97128" lon="2.3648">
        <ele>111.8</ele>
        <time>2023-01-25T14:30:20Z</time>
      </trkpt>
      <trkpt lat="49.97128" lon="2.3648">
        <ele>111.8</ele>
        <time>2023-01-25T14:30:21Z</time>
      </trkpt>
      <trkpt lat="49.97128" lon="2.3648">
        <ele>111.8</ele>
        <time>2023-01-25T14:30:22Z</time>
      </trkpt>
      <trkpt lat="49.97128" lon="2.3648">
        <ele>111.8</ele>
        <time>2023-01-25T14:30:23Z</time>
      </trkpt>
      <trkpt lat="49.97128" lon="2.3648">
        <ele>111.8</ele>
        <time>2023-01-25T14:30:24Z</time>
      </trkpt>
      <trkpt lat="49.97128" lon="2.3648">
        <ele>111.8</ele>
        <time>2023-01-25T14:30:25Z</time>
      </trkpt>
      <trkpt lat="49.97128" lon="2.3648">
        <ele>111.8</ele>
        <time>2023-01-25T14:30:26Z</time>
      </trkpt>
      <trkpt lat="49.97128" lon="2.3648">
        <ele>111.8</ele>
        <time>2023-01-25T14:30:27Z</time>
      </trkpt>
      <trkpt lat="49.97128" lon="2.3648">
        <ele>111.8</ele>
        <time>2023-01-25T14:30:28Z</time>
      </trkpt>
      <trkpt lat="49.97128" lon="2.3648">
        <ele>111.8</ele>
        <time>2023-01-25T14:30:29Z</time>
      </trkpt>
      <trkpt lat="49.97128" lon="2.3648">
        <ele>111.8</ele>
        <time>2023-01-25T14:30:30Z</time>
      </trkpt>
      <trkpt lat="49.97128" lon="2.3648">
        <ele>111.8</ele>
        <time>2023-01-25T14:30:31Z</time>
      </trkpt>
      <trkpt lat="49.97128" lon="2.3648">
        <ele>111.8</ele>
        <time>2023-01-25T14:30:32Z</time>
      </trkpt>
      <trkpt lat="49.97128" lon="2.3648">
        <ele>111.8</ele>
        <time>2023-01-25T14:30:33Z</time>
      </trkpt>
      <trkpt lat="49.97128" lon="2.3648">
        <ele>111.8</ele>
        <time>2023-01-25T14:30:34Z</time>
      </trkpt>
      <trkpt lat="49.97128" lon="2.3648">
        <ele>111.8</ele>
        <time>2023-01-25T14:30:35Z</time>
      </trkpt>
      <trkpt lat="49.97128" lon="2.3648">
        <ele>111.8</ele>
        <time>2023-01-25T14:30:36Z</time>
      </trkpt>
      <trkpt lat="49.97128" lon="2.3648">
        <ele>111.8</ele>
        <time>2023-01-25T14:30:37Z</time>
      </trkpt>
      <trkpt lat="49.97128" lon="2.3648">
        <ele>111.8</ele>
        <time>2023-01-25T14:30:38Z</time>
      </trkpt>
      <trkpt lat="49.97128" lon="2.3648">
        <ele>111.8</ele>
        <time>2023-01-25T14:30:39Z</time>
      </trkpt>
      <trkpt lat="49.97128" lon="2.3648">
        <ele>111.8</ele>
        <time>2023-01-25T14:30:40Z</time>
      </trkpt>
      <trkpt lat="49.97128" lon="2.3648">
        <ele>111.8</ele>
        <time>2023-01-25T14:30:41Z</time>
      </trkpt>
      <trkpt lat="49.97128" lon="2.3648">
        <ele>111.8</ele>
        <time>2023-01-25T14:30:42Z</time>
      </trkpt>
      <trkpt lat="49.97128" lon="2.3648">
        <ele>111.8</ele>
        <time>2023-01-25T14:30:43Z</time>
      </trkpt>
      <trkpt lat="49.97128" lon="2.3648">
        <ele>111.8</ele>
        <time>2023-01-25T14:30:44Z</time>
      </trkpt>
      <trkpt lat="49.97128" lon="2.3648">
        <ele>111.8</ele>
        <time>2023-01-25T14:30:45Z</time>
      </trkpt>
      <trkpt lat="49.97128" lon="2.3648">
        <ele>111.8</ele>
        <time>2023-01-25T14:30:46Z</time>
      </trkpt>
      <trkpt lat="49.97128" lon="2.3648">
        <ele>111.8</ele>
        <time>2023-01-25T14:30:47Z</time>
      </trkpt>
      <trkpt lat="49.97128" lon="2.3648">
        <ele>111.8</ele>
        <time>2023-01-25T14:30:48Z</time>
      </trkpt>
      <trkpt lat="49.97129" lon="2.3648">
        <ele>111.8</ele>
        <time>2023-01-25T14:30:49Z</time>
      </trkpt>
      <trkpt lat="49.97129" lon="2.3648">
        <ele>111.8</ele>
        <time>2023-01-25T14:30:50Z</time>
      </trkpt>
      <trkpt lat="49.97129" lon="2.3648">
        <ele>111.8</ele>
        <time>2023-01-25T14:30:51Z</time>
      </trkpt>
      <trkpt lat="49.97129" lon="2.3648">
        <ele>111.8</ele>
        <time>2023-01-25T14:30:52Z</time>
      </trkpt>
      <trkpt lat="49.97129" lon="2.3648">
        <ele>111.8</ele>
        <time>2023-01-25T14:30:53Z</time>
      </trkpt>
      <trkpt lat="49.97129" lon="2.3648">
        <ele>111.8</ele>
        <time>2023-01-25T14:30:54Z</time>
      </trkpt>
      <trkpt lat="49.97129" lon="2.3648">
        <ele>111.8</ele>
        <time>2023-01-25T14:30:55Z</time>
      </trkpt>
      <trkpt lat="49.97129" lon="2.3648">
        <ele>111.8</ele>
        <time>2023-01-25T14:30:56Z</time>
      </trkpt>
      <trkpt lat="49.97129" lon="2.3648">
        <ele>111.8</ele>
        <time>2023-01-25T14:30:57Z</time>
      </trkpt>
      <trkpt lat="49.97129" lon="2.3648">
        <ele>111.8</ele>
        <time>2023-01-25T14:30:58Z</time>
      </trkpt>
      <trkpt lat="49.97129" lon="2.3648">
        <ele>111.9</ele>
        <time>2023-01-25T14:30:59Z</time>
      </trkpt>
      <trkpt lat="49.97129" lon="2.3648">
        <ele>111.9</ele>
        <time>2023-01-25T14:31:00Z</time>
      </trkpt>
      <trkpt lat="49.97129" lon="2.3648">
        <ele>111.9</ele>
        <time>2023-01-25T14:31:01Z</time>
      </trkpt>
      <trkpt lat="49.97129" lon="2.3648">
        <ele>111.9</ele>
        <time>2023-01-25T14:31:02Z</time>
      </trkpt>
      <trkpt lat="49.97129" lon="2.3648">
        <ele>111.9</ele>
        <time>2023-01-25T14:31:03Z</time>
      </trkpt>
      <trkpt lat="49.97129" lon="2.3648">
        <ele>111.9</ele>
        <time>2023-01-25T14:31:04Z</time>
      </trkpt>
      <trkpt lat="49.97129" lon="2.3648">
        <ele>111.9</ele>
        <time>2023-01-25T14:31:05Z</time>
      </trkpt>
      <trkpt lat="49.97129" lon="2.3648">
        <ele>111.9</ele>
        <time>2023-01-25T14:31:06Z</time>
      </trkpt>
      <trkpt lat="49.97129" lon="2.36479">
        <ele>111.9</ele>
        <time>2023-01-25T14:31:07Z</time>
      </trkpt>
      <trkpt lat="49.97129" lon="2.36479">
        <ele>111.9</ele>
        <time>2023-01-25T14:31:08Z</time>
      </trkpt>
      <trkpt lat="49.97129" lon="2.36479">
        <ele>111.9</ele>
        <time>2023-01-25T14:31:09Z</time>
      </trkpt>
      <trkpt lat="49.97129" lon="2.36479">
        <ele>111.9</ele>
        <time>2023-01-25T14:31:10Z</time>
      </trkpt>
      <trkpt lat="49.97129" lon="2.36479">
        <ele>111.9</ele>
        <time>2023-01-25T14:31:11Z</time>
      </trkpt>
      <trkpt lat="49.97129" lon="2.36479">
        <ele>111.9</ele>
        <time>2023-01-25T14:31:12Z</time>
      </trkpt>
      <trkpt lat="49.97129" lon="2.36479">
        <ele>111.9</ele>
        <time>2023-01-25T14:31:13Z</time>
      </trkpt>
      <trkpt lat="49.97129" lon="2.36479">
        <ele>111.9</ele>
        <time>2023-01-25T14:31:14Z</time>
      </trkpt>
      <trkpt lat="49.97129" lon="2.36479">
        <ele>111.9</ele>
        <time>2023-01-25T14:31:15Z</time>
      </trkpt>
      <trkpt lat="49.97129" lon="2.36479">
        <ele>111.9</ele>
        <time>2023-01-25T14:31:16Z</time>
      </trkpt>
      <trkpt lat="49.97129" lon="2.36479">
        <ele>111.9</ele>
        <time>2023-01-25T14:31:17Z</time>
      </trkpt>
      <trkpt lat="49.97129" lon="2.36479">
        <ele>111.9</ele>
        <time>2023-01-25T14:31:18Z</time>
      </trkpt>
      <trkpt lat="49.97129" lon="2.36479">
        <ele>111.9</ele>
        <time>2023-01-25T14:31:19Z</time>
      </trkpt>
      <trkpt lat="49.97129" lon="2.36479">
        <ele>111.9</ele>
        <time>2023-01-25T14:31:20Z</time>
      </trkpt>
      <trkpt lat="49.97129" lon="2.36479">
        <ele>111.9</ele>
        <time>2023-01-25T14:31:21Z</time>
      </trkpt>
      <trkpt lat="49.97129" lon="2.36479">
        <ele>111.9</ele>
        <time>2023-01-25T14:31:22Z</time>
      </trkpt>
      <trkpt lat="49.97129" lon="2.36479">
        <ele>111.9</ele>
        <time>2023-01-25T14:31:23Z</time>
      </trkpt>
      <trkpt lat="49.97129" lon="2.36479">
        <ele>111.9</ele>
        <time>2023-01-25T14:31:24Z</time>
      </trkpt>
      <trkpt lat="49.97129" lon="2.36479">
        <ele>111.9</ele>
        <time>2023-01-25T14:31:25Z</time>
      </trkpt>
      <trkpt lat="49.97129" lon="2.36479">
        <ele>111.9</ele>
        <time>2023-01-25T14:31:26Z</time>
      </trkpt>
      <trkpt lat="49.97129" lon="2.36479">
        <ele>111.9</ele>
        <time>2023-01-25T14:31:27Z</time>
      </trkpt>
      <trkpt lat="49.97129" lon="2.36479">
        <ele>111.9</ele>
        <time>2023-01-25T14:31:28Z</time>
      </trkpt>
      <trkpt lat="49.97129" lon="2.36479">
        <ele>111.9</ele>
        <time>2023-01-25T14:31:29Z</time>
      </trkpt>
      <trkpt lat="49.97129" lon="2.36479">
        <ele>111.9</ele>
        <time>2023-01-25T14:31:30Z</time>
      </trkpt>
      <trkpt lat="49.97129" lon="2.36479">
        <ele>111.9</ele>
        <time>2023-01-25T14:31:31Z</time>
      </trkpt>
      <trkpt lat="49.97129" lon="2.36479">
        <ele>111.9</ele>
        <time>2023-01-25T14:31:32Z</time>
      </trkpt>
      <trkpt lat="49.9713" lon="2.36479">
        <ele>111.9</ele>
        <time>2023-01-25T14:31:33Z</time>
      </trkpt>
      <trkpt lat="49.9713" lon="2.36479">
        <ele>111.9</ele>
        <time>2023-01-25T14:31:34Z</time>
      </trkpt>
      <trkpt lat="49.9713" lon="2.36479">
        <ele>111.9</ele>
        <time>2023-01-25T14:31:35Z</time>
      </trkpt>
      <trkpt lat="49.9713" lon="2.36479">
        <ele>111.9</ele>
        <time>2023-01-25T14:31:36Z</time>
      </trkpt>
      <trkpt lat="49.9713" lon="2.36479">
        <ele>111.9</ele>
        <time>2023-01-25T14:31:37Z</time>
      </trkpt>
      <trkpt lat="49.9713" lon="2.36479">
        <ele>111.9</ele>
        <time>2023-01-25T14:31:38Z</time>
      </trkpt>
      <trkpt lat="49.9713" lon="2.36479">
        <ele>111.9</ele>
        <time>2023-01-25T14:31:39Z</time>
      </trkpt>
      <trkpt lat="49.9713" lon="2.36479">
        <ele>111.9</ele>
        <time>2023-01-25T14:31:40Z</time>
      </trkpt>
      <trkpt lat="49.9713" lon="2.36479">
        <ele>111.9</ele>
        <time>2023-01-25T14:31:41Z</time>
      </trkpt>
      <trkpt lat="49.9713" lon="2.36479">
        <ele>111.9</ele>
        <time>2023-01-25T14:31:42Z</time>
      </trkpt>
      <trkpt lat="49.9713" lon="2.36479">
        <ele>111.9</ele>
        <time>2023-01-25T14:31:43Z</time>
      </trkpt>
      <trkpt lat="49.9713" lon="2.36479">
        <ele>111.9</ele>
        <time>2023-01-25T14:31:44Z</time>
      </trkpt>
      <trkpt lat="49.9713" lon="2.36479">
        <ele>111.9</ele>
        <time>2023-01-25T14:31:45Z</time>
      </trkpt>
      <trkpt lat="49.9713" lon="2.36479">
        <ele>111.9</ele>
        <time>2023-01-25T14:31:46Z</time>
      </trkpt>
      <trkpt lat="49.9713" lon="2.36479">
        <ele>111.9</ele>
        <time>2023-01-25T14:31:47Z</time>
      </trkpt>
      <trkpt lat="49.9713" lon="2.36479">
        <ele>111.9</ele>
        <time>2023-01-25T14:31:48Z</time>
      </trkpt>
      <trkpt lat="49.9713" lon="2.36479">
        <ele>111.9</ele>
        <time>2023-01-25T14:31:49Z</time>
      </trkpt>
      <trkpt lat="49.9713" lon="2.36479">
        <ele>111.9</ele>
        <time>2023-01-25T14:31:50Z</time>
      </trkpt>
      <trkpt lat="49.9713" lon="2.36479">
        <ele>111.9</ele>
        <time>2023-01-25T14:31:51Z</time>
      </trkpt>
      <trkpt lat="49.9713" lon="2.36479">
        <ele>111.9</ele>
        <time>2023-01-25T14:31:52Z</time>
      </trkpt>
      <trkpt lat="49.9713" lon="2.36479">
        <ele>111.9</ele>
        <time>2023-01-25T14:31:53Z</time>
      </trkpt>
      <trkpt lat="49.9713" lon="2.36479">
        <ele>111.9</ele>
        <time>2023-01-25T14:31:54Z</time>
      </trkpt>
      <trkpt lat="49.9713" lon="2.36479">
        <ele>111.9</ele>
        <time>2023-01-25T14:31:55Z</time>
      </trkpt>
      <trkpt lat="49.9713" lon="2.36479">
        <ele>111.9</ele>
        <time>2023-01-25T14:31:56Z</time>
      </trkpt>
      <trkpt lat="49.9713" lon="2.36479">
        <ele>111.9</ele>
        <time>2023-01-25T14:31:57Z</time>
      </trkpt>
      <trkpt lat="49.9713" lon="2.36479">
        <ele>111.9</ele>
        <time>2023-01-25T14:31:58Z</time>
      </trkpt>
      <trkpt lat="49.9713" lon="2.36479">
        <ele>112</ele>
        <time>2023-01-25T14:31:59Z</time>
      </trkpt>
      <trkpt lat="49.9713" lon="2.36479">
        <ele>112</ele>
        <time>2023-01-25T14:32:00Z</time>
      </trkpt>
      <trkpt lat="49.9713" lon="2.36479">
        <ele>112</ele>
        <time>2023-01-25T14:32:01Z</time>
      </trkpt>
      <trkpt lat="49.9713" lon="2.36479">
        <ele>112</ele>
        <time>2023-01-25T14:32:02Z</time>
      </trkpt>
      <trkpt lat="49.9713" lon="2.36479">
        <ele>112</ele>
        <time>2023-01-25T14:32:03Z</time>
      </trkpt>
      <trkpt lat="49.9713" lon="2.36479">
        <ele>112</ele>
        <time>2023-01-25T14:32:04Z</time>
      </trkpt>
      <trkpt lat="49.9713" lon="2.36479">
        <ele>112</ele>
        <time>2023-01-25T14:32:05Z</time>
      </trkpt>
      <trkpt lat="49.9713" lon="2.36479">
        <ele>112</ele>
        <time>2023-01-25T14:32:06Z</time>
      </trkpt>
      <trkpt lat="49.9713" lon="2.36479">
        <ele>112</ele>
        <time>2023-01-25T14:32:07Z</time>
      </trkpt>
      <trkpt lat="49.9713" lon="2.36479">
        <ele>112</ele>
        <time>2023-01-25T14:32:08Z</time>
      </trkpt>
      <trkpt lat="49.9713" lon="2.36479">
        <ele>112</ele>
        <time>2023-01-25T14:32:09Z</time>
      </trkpt>
      <trkpt lat="49.9713" lon="2.36479">
        <ele>112</ele>
        <time>2023-01-25T14:32:10Z</time>
      </trkpt>
      <trkpt lat="49.9713" lon="2.36479">
        <ele>112</ele>
        <time>2023-01-25T14:32:11Z</time>
      </trkpt>
      <trkpt lat="49.9713" lon="2.36479">
        <ele>112</ele>
        <time>2023-01-25T14:32:12Z</time>
      </trkpt>
      <trkpt lat="49.9713" lon="2.36479">
        <ele>112</ele>
        <time>2023-01-25T14:32:13Z</time>
      </trkpt>
      <trkpt lat="49.9713" lon="2.36479">
        <ele>112</ele>
        <time>2023-01-25T14:32:14Z</time>
      </trkpt>
      <trkpt lat="49.9713" lon="2.36479">
        <ele>112</ele>
        <time>2023-01-25T14:32:15Z</time>
      </trkpt>
      <trkpt lat="49.9713" lon="2.36479">
        <ele>112</ele>
        <time>2023-01-25T14:32:16Z</time>
      </trkpt>
      <trkpt lat="49.97131" lon="2.36479">
        <ele>112</ele>
        <time>2023-01-25T14:32:17Z</time>
      </trkpt>
      <trkpt lat="49.97131" lon="2.36479">
        <ele>112</ele>
        <time>2023-01-25T14:32:18Z</time>
      </trkpt>
      <trkpt lat="49.97131" lon="2.36479">
        <ele>112</ele>
        <time>2023-01-25T14:32:19Z</time>
      </trkpt>
      <trkpt lat="49.97131" lon="2.36479">
        <ele>112</ele>
        <time>2023-01-25T14:32:20Z</time>
      </trkpt>
      <trkpt lat="49.97131" lon="2.36479">
        <ele>112</ele>
        <time>2023-01-25T14:32:21Z</time>
      </trkpt>
      <trkpt lat="49.97131" lon="2.36479">
        <ele>112</ele>
        <time>2023-01-25T14:32:22Z</time>
      </trkpt>
      <trkpt lat="49.97131" lon="2.36478">
        <ele>112</ele>
        <time>2023-01-25T14:32:23Z</time>
      </trkpt>
      <trkpt lat="49.97131" lon="2.36478">
        <ele>112</ele>
        <time>2023-01-25T14:32:24Z</time>
      </trkpt>
      <trkpt lat="49.97131" lon="2.36478">
        <ele>112</ele>
        <time>2023-01-25T14:32:25Z</time>
      </trkpt>
      <trkpt lat="49.97131" lon="2.36478">
        <ele>112</ele>
        <time>2023-01-25T14:32:26Z</time>
      </trkpt>
      <trkpt lat="49.97131" lon="2.36478">
        <ele>112</ele>
        <time>2023-01-25T14:32:27Z</time>
      </trkpt>
      <trkpt lat="49.97131" lon="2.36478">
        <ele>112</ele>
        <time>2023-01-25T14:32:28Z</time>
      </trkpt>
      <trkpt lat="49.97131" lon="2.36478">
        <ele>112</ele>
        <time>2023-01-25T14:32:29Z</time>
      </trkpt>
      <trkpt lat="49.97131" lon="2.36478">
        <ele>112</ele>
        <time>2023-01-25T14:32:30Z</time>
      </trkpt>
      <trkpt lat="49.97131" lon="2.36478">
        <ele>112</ele>
        <time>2023-01-25T14:32:31Z</time>
      </trkpt>
      <trkpt lat="49.97131" lon="2.36478">
        <ele>112</ele>
        <time>2023-01-25T14:32:32Z</time>
      </trkpt>
      <trkpt lat="49.97131" lon="2.36478">
        <ele>112</ele>
        <time>2023-01-25T14:32:33Z</time>
      </trkpt>
      <trkpt lat="49.97131" lon="2.36478">
        <ele>112</ele>
        <time>2023-01-25T14:32:34Z</time>
      </trkpt>
      <trkpt lat="49.97131" lon="2.36478">
        <ele>112</ele>
        <time>2023-01-25T14:32:35Z</time>
      </trkpt>
      <trkpt lat="49.97131" lon="2.36478">
        <ele>112</ele>
        <time>2023-01-25T14:32:36Z</time>
      </trkpt>
      <trkpt lat="49.97131" lon="2.36478">
        <ele>112</ele>
        <time>2023-01-25T14:32:37Z</time>
      </trkpt>
      <trkpt lat="49.97131" lon="2.36478">
        <ele>112</ele>
        <time>2023-01-25T14:32:38Z</time>
      </trkpt>
      <trkpt lat="49.97131" lon="2.36478">
        <ele>112</ele>
        <time>2023-01-25T14:32:39Z</time>
      </trkpt>
      <trkpt lat="49.97131" lon="2.36478">
        <ele>112</ele>
        <time>2023-01-25T14:32:40Z</time>
      </trkpt>
      <trkpt lat="49.97131" lon="2.36478">
        <ele>112</ele>
        <time>2023-01-25T14:32:42Z</time>
      </trkpt>
      <trkpt lat="49.97131" lon="2.36478">
        <ele>112</ele>
        <time>2023-01-25T14:32:43Z</time>
      </trkpt>
      <trkpt lat="49.97131" lon="2.36478">
        <ele>112</ele>
        <time>2023-01-25T14:32:44Z</time>
      </trkpt>
      <trkpt lat="49.97131" lon="2.36478">
        <ele>112</ele>
        <time>2023-01-25T14:32:45Z</time>
      </trkpt>
      <trkpt lat="49.97131" lon="2.36478">
        <ele>112</ele>
        <time>2023-01-25T14:32:46Z</time>
      </trkpt>
      <trkpt lat="49.97132" lon="2.36478">
        <ele>112.1</ele>
        <time>2023-01-25T14:32:47Z</time>
      </trkpt>
      <trkpt lat="49.97134" lon="2.36479">
        <ele>112.2</ele>
        <time>2023-01-25T14:32:49Z</time>
      </trkpt>
      <trkpt lat="49.97135" lon="2.36478">
        <ele>112.3</ele>
        <time>2023-01-25T14:32:50Z</time>
      </trkpt>
      <trkpt lat="49.97136" lon="2.36478">
        <ele>112.3</ele>
        <time>2023-01-25T14:32:51Z</time>
      </trkpt>
      <trkpt lat="49.97137" lon="2.36477">
        <ele>112.4</ele>
        <time>2023-01-25T14:32:52Z</time>
      </trkpt>
      <trkpt lat="49.97139" lon="2.36477">
        <ele>112.4</ele>
        <time>2023-01-25T14:32:54Z</time>
      </trkpt>
      <trkpt lat="49.9714" lon="2.36477">
        <ele>112.4</ele>
        <time>2023-01-25T14:32:55Z</time>
      </trkpt>
      <trkpt lat="49.97141" lon="2.36477">
        <ele>112.4</ele>
        <time>2023-01-25T14:32:56Z</time>
      </trkpt>
      <trkpt lat="49.97143" lon="2.36478">
        <ele>112.4</ele>
        <time>2023-01-25T14:32:57Z</time>
      </trkpt>
      <trkpt lat="49.97144" lon="2.36479">
        <ele>112.5</ele>
        <time>2023-01-25T14:32:59Z</time>
      </trkpt>
      <trkpt lat="49.97145" lon="2.3648">
        <ele>112.5</ele>
        <time>2023-01-25T14:33:00Z</time>
      </trkpt>
      <trkpt lat="49.97147" lon="2.36481">
        <ele>112.5</ele>
        <time>2023-01-25T14:33:01Z</time>
      </trkpt>
      <trkpt lat="49.97148" lon="2.36482">
        <ele>112.5</ele>
        <time>2023-01-25T14:33:02Z</time>
      </trkpt>
      <trkpt lat="49.97149" lon="2.36483">
        <ele>112.5</ele>
        <time>2023-01-25T14:33:03Z</time>
      </trkpt>
      <trkpt lat="49.9715" lon="2.36484">
        <ele>112.6</ele>
        <time>2023-01-25T14:33:04Z</time>
      </trkpt>
      <trkpt lat="49.97151" lon="2.36485">
        <ele>112.6</ele>
        <time>2023-01-25T14:33:05Z</time>
      </trkpt>
      <trkpt lat="49.97152" lon="2.36486">
        <ele>112.6</ele>
        <time>2023-01-25T14:33:06Z</time>
      </trkpt>
      <trkpt lat="49.97153" lon="2.36487">
        <ele>112.6</ele>
        <time>2023-01-25T14:33:08Z</time>
      </trkpt>
      <trkpt lat="49.97154" lon="2.36488">
        <ele>112.6</ele>
        <time>2023-01-25T14:33:09Z</time>
      </trkpt>
      <trkpt lat="49.97155" lon="2.36489">
        <ele>112.7</ele>
        <time>2023-01-25T14:33:10Z</time>
      </trkpt>
      <trkpt lat="49.97156" lon="2.36489">
        <ele>112.7</ele>
        <time>2023-01-25T14:33:11Z</time>
      </trkpt>
      <trkpt lat="49.97157" lon="2.3649">
        <ele>112.7</ele>
        <time>2023-01-25T14:33:12Z</time>
      </trkpt>
      <trkpt lat="49.97158" lon="2.36491">
        <ele>112.7</ele>
        <time>2023-01-25T14:33:13Z</time>
      </trkpt>
      <trkpt lat="49.97159" lon="2.36492">
        <ele>112.7</ele>
        <time>2023-01-25T14:33:14Z</time>
      </trkpt>
      <trkpt lat="49.9716" lon="2.36493">
        <ele>112.8</ele>
        <time>2023-01-25T14:33:15Z</time>
      </trkpt>
      <trkpt lat="49.97161" lon="2.36494">
        <ele>112.8</ele>
        <time>2023-01-25T14:33:17Z</time>
      </trkpt>
      <trkpt lat="49.97162" lon="2.36495">
        <ele>112.8</ele>
        <time>2023-01-25T14:33:18Z</time>
      </trkpt>
      <trkpt lat="49.97163" lon="2.36496">
        <ele>112.8</ele>
        <time>2023-01-25T14:33:19Z</time>
      </trkpt>
      <trkpt lat="49.97164" lon="2.36496">
        <ele>112.8</ele>
        <time>2023-01-25T14:33:20Z</time>
      </trkpt>
      <trkpt lat="49.97165" lon="2.36498">
        <ele>112.8</ele>
        <time>2023-01-25T14:33:21Z</time>
      </trkpt>
      <trkpt lat="49.97166" lon="2.36498">
        <ele>112.9</ele>
        <time>2023-01-25T14:33:22Z</time>
      </trkpt>
      <trkpt lat="49.97167" lon="2.36499">
        <ele>112.9</ele>
        <time>2023-01-25T14:33:24Z</time>
      </trkpt>
      <trkpt lat="49.97168" lon="2.365">
        <ele>112.9</ele>
        <time>2023-01-25T14:33:25Z</time>
      </trkpt>
      <trkpt lat="49.97169" lon="2.36502">
        <ele>112.9</ele>
        <time>2023-01-25T14:33:26Z</time>
      </trkpt>
      <trkpt lat="49.9717" lon="2.36503">
        <ele>113</ele>
        <time>2023-01-25T14:33:27Z</time>
      </trkpt>
      <trkpt lat="49.97171" lon="2.36503">
        <ele>113</ele>
        <time>2023-01-25T14:33:28Z</time>
      </trkpt>
      <trkpt lat="49.97171" lon="2.36504">
        <ele>113</ele>
        <time>2023-01-25T14:33:29Z</time>
      </trkpt>
      <trkpt lat="49.97172" lon="2.36505">
        <ele>113</ele>
        <time>2023-01-25T14:33:30Z</time>
      </trkpt>
      <trkpt lat="49.97173" lon="2.36505">
        <ele>113</ele>
        <time>2023-01-25T14:33:32Z</time>
      </trkpt>
      <trkpt lat="49.97174" lon="2.36506">
        <ele>113</ele>
        <time>2023-01-25T14:33:33Z</time>
      </trkpt>
      <trkpt lat="49.97176" lon="2.36508">
        <ele>113.1</ele>
        <time>2023-01-25T14:33:34Z</time>
      </trkpt>
      <trkpt lat="49.97176" lon="2.36508">
        <ele>113.1</ele>
        <time>2023-01-25T14:33:35Z</time>
      </trkpt>
      <trkpt lat="49.97177" lon="2.36509">
        <ele>113.1</ele>
        <time>2023-01-25T14:33:36Z</time>
      </trkpt>
      <trkpt lat="49.97178" lon="2.36509">
        <ele>113.1</ele>
        <time>2023-01-25T14:33:37Z</time>
      </trkpt>
      <trkpt lat="49.97179" lon="2.3651">
        <ele>113.1</ele>
        <time>2023-01-25T14:33:38Z</time>
      </trkpt>
      <trkpt lat="49.9718" lon="2.36511">
        <ele>113.2</ele>
        <time>2023-01-25T14:33:40Z</time>
      </trkpt>
      <trkpt lat="49.97181" lon="2.36511">
        <ele>113.2</ele>
        <time>2023-01-25T14:33:41Z</time>
      </trkpt>
      <trkpt lat="49.97182" lon="2.36512">
        <ele>113.2</ele>
        <time>2023-01-25T14:33:42Z</time>
      </trkpt>
      <trkpt lat="49.97183" lon="2.36513">
        <ele>113.2</ele>
        <time>2023-01-25T14:33:43Z</time>
      </trkpt>
      <trkpt lat="49.97185" lon="2.36514">
        <ele>113.3</ele>
        <time>2023-01-25T14:33:44Z</time>
      </trkpt>
      <trkpt lat="49.97186" lon="2.36514">
        <ele>113.3</ele>
        <time>2023-01-25T14:33:46Z</time>
      </trkpt>
      <trkpt lat="49.97187" lon="2.36515">
        <ele>113.3</ele>
        <time>2023-01-25T14:33:47Z</time>
      </trkpt>
      <trkpt lat="49.97188" lon="2.36515">
        <ele>113.3</ele>
        <time>2023-01-25T14:33:48Z</time>
      </trkpt>
      <trkpt lat="49.97189" lon="2.36516">
        <ele>113.4</ele>
        <time>2023-01-25T14:33:49Z</time>
      </trkpt>
      <trkpt lat="49.9719" lon="2.36516">
        <ele>113.4</ele>
        <time>2023-01-25T14:33:50Z</time>
      </trkpt>
      <trkpt lat="49.97192" lon="2.36517">
        <ele>113.4</ele>
        <time>2023-01-25T14:33:51Z</time>
      </trkpt>
      <trkpt lat="49.97193" lon="2.36518">
        <ele>113.5</ele>
        <time>2023-01-25T14:33:52Z</time>
      </trkpt>
      <trkpt lat="49.97194" lon="2.36518">
        <ele>113.5</ele>
        <time>2023-01-25T14:33:53Z</time>
      </trkpt>
      <trkpt lat="49.97194" lon="2.36519">
        <ele>113.5</ele>
        <time>2023-01-25T14:33:54Z</time>
      </trkpt>
      <trkpt lat="49.97195" lon="2.36519">
        <ele>113.5</ele>
        <time>2023-01-25T14:33:56Z</time>
      </trkpt>
      <trkpt lat="49.97196" lon="2.3652">
        <ele>113.6</ele>
        <time>2023-01-25T14:33:57Z</time>
      </trkpt>
      <trkpt lat="49.97198" lon="2.36521">
        <ele>113.6</ele>
        <time>2023-01-25T14:33:58Z</time>
      </trkpt>
      <trkpt lat="49.97199" lon="2.36521">
        <ele>113.7</ele>
        <time>2023-01-25T14:33:59Z</time>
      </trkpt>
      <trkpt lat="49.972" lon="2.36522">
        <ele>113.7</ele>
        <time>2023-01-25T14:34:00Z</time>
      </trkpt>
      <trkpt lat="49.97201" lon="2.36522">
        <ele>113.7</ele>
        <time>2023-01-25T14:34:01Z</time>
      </trkpt>
      <trkpt lat="49.97202" lon="2.36523">
        <ele>113.7</ele>
        <time>2023-01-25T14:34:02Z</time>
      </trkpt>
      <trkpt lat="49.97203" lon="2.36523">
        <ele>113.8</ele>
        <time>2023-01-25T14:34:04Z</time>
      </trkpt>
      <trkpt lat="49.97205" lon="2.36524">
        <ele>113.8</ele>
        <time>2023-01-25T14:34:05Z</time>
      </trkpt>
      <trkpt lat="49.97206" lon="2.36524">
        <ele>113.8</ele>
        <time>2023-01-25T14:34:06Z</time>
      </trkpt>
      <trkpt lat="49.97207" lon="2.36525">
        <ele>113.8</ele>
        <time>2023-01-25T14:34:07Z</time>
      </trkpt>
      <trkpt lat="49.97209" lon="2.36526">
        <ele>113.9</ele>
        <time>2023-01-25T14:34:08Z</time>
      </trkpt>
      <trkpt lat="49.9721" lon="2.36526">
        <ele>113.9</ele>
        <time>2023-01-25T14:34:09Z</time>
      </trkpt>
      <trkpt lat="49.9721" lon="2.36526">
        <ele>113.9</ele>
        <time>2023-01-25T14:34:10Z</time>
      </trkpt>
      <trkpt lat="49.97212" lon="2.36528">
        <ele>114</ele>
        <time>2023-01-25T14:34:12Z</time>
      </trkpt>
      <trkpt lat="49.97213" lon="2.36528">
        <ele>114</ele>
        <time>2023-01-25T14:34:13Z</time>
      </trkpt>
      <trkpt lat="49.97214" lon="2.36529">
        <ele>114</ele>
        <time>2023-01-25T14:34:14Z</time>
      </trkpt>
      <trkpt lat="49.97214" lon="2.36529">
        <ele>114</ele>
        <time>2023-01-25T14:34:15Z</time>
      </trkpt>
      <trkpt lat="49.97216" lon="2.3653">
        <ele>114.1</ele>
        <time>2023-01-25T14:34:16Z</time>
      </trkpt>
      <trkpt lat="49.97217" lon="2.36531">
        <ele>114.1</ele>
        <time>2023-01-25T14:34:17Z</time>
      </trkpt>
      <trkpt lat="49.97219" lon="2.36532">
        <ele>114.2</ele>
        <time>2023-01-25T14:34:18Z</time>
      </trkpt>
      <trkpt lat="49.97219" lon="2.36533">
        <ele>114.2</ele>
        <time>2023-01-25T14:34:20Z</time>
      </trkpt>
      <trkpt lat="49.9722" lon="2.36534">
        <ele>114.2</ele>
        <time>2023-01-25T14:34:21Z</time>
      </trkpt>
      <trkpt lat="49.97222" lon="2.36535">
        <ele>114.3</ele>
        <time>2023-01-25T14:34:22Z</time>
      </trkpt>
      <trkpt lat="49.97223" lon="2.36536">
        <ele>114.3</ele>
        <time>2023-01-25T14:34:23Z</time>
      </trkpt>
      <trkpt lat="49.97224" lon="2.36536">
        <ele>114.3</ele>
        <time>2023-01-25T14:34:24Z</time>
      </trkpt>
      <trkpt lat="49.97225" lon="2.36537">
        <ele>114.3</ele>
        <time>2023-01-25T14:34:25Z</time>
      </trkpt>
      <trkpt lat="49.97226" lon="2.36538">
        <ele>114.4</ele>
        <time>2023-01-25T14:34:26Z</time>
      </trkpt>
      <trkpt lat="49.97227" lon="2.36538">
        <ele>114.4</ele>
        <time>2023-01-25T14:34:27Z</time>
      </trkpt>
      <trkpt lat="49.97229" lon="2.36538">
        <ele>114.5</ele>
        <time>2023-01-25T14:34:28Z</time>
      </trkpt>
      <trkpt lat="49.9723" lon="2.36539">
        <ele>114.5</ele>
        <time>2023-01-25T14:34:30Z</time>
      </trkpt>
      <trkpt lat="49.9723" lon="2.36539">
        <ele>114.5</ele>
        <time>2023-01-25T14:34:31Z</time>
      </trkpt>
      <trkpt lat="49.97232" lon="2.36539">
        <ele>114.5</ele>
        <time>2023-01-25T14:34:32Z</time>
      </trkpt>
      <trkpt lat="49.97233" lon="2.36539">
        <ele>114.6</ele>
        <time>2023-01-25T14:34:33Z</time>
      </trkpt>
      <trkpt lat="49.97234" lon="2.36539">
        <ele>114.6</ele>
        <time>2023-01-25T14:34:34Z</time>
      </trkpt>
      <trkpt lat="49.97235" lon="2.3654">
        <ele>114.6</ele>
        <time>2023-01-25T14:34:35Z</time>
      </trkpt>
      <trkpt lat="49.97236" lon="2.3654">
        <ele>114.6</ele>
        <time>2023-01-25T14:34:36Z</time>
      </trkpt>
      <trkpt lat="49.97238" lon="2.36541">
        <ele>114.7</ele>
        <time>2023-01-25T14:34:38Z</time>
      </trkpt>
      <trkpt lat="49.97239" lon="2.36541">
        <ele>114.7</ele>
        <time>2023-01-25T14:34:39Z</time>
      </trkpt>
      <trkpt lat="49.9724" lon="2.36541">
        <ele>114.7</ele>
        <time>2023-01-25T14:34:40Z</time>
      </trkpt>
      <trkpt lat="49.97241" lon="2.36541">
        <ele>114.8</ele>
        <time>2023-01-25T14:34:41Z</time>
      </trkpt>
      <trkpt lat="49.97242" lon="2.36541">
        <ele>114.8</ele>
        <time>2023-01-25T14:34:42Z</time>
      </trkpt>
      <trkpt lat="49.97243" lon="2.36541">
        <ele>114.8</ele>
        <time>2023-01-25T14:34:43Z</time>
      </trkpt>
      <trkpt lat="49.97244" lon="2.36541">
        <ele>114.8</ele>
        <time>2023-01-25T14:34:44Z</time>
      </trkpt>
      <trkpt lat="49.97246" lon="2.36541">
        <ele>114.9</ele>
        <time>2023-01-25T14:34:45Z</time>
      </trkpt>
      <trkpt lat="49.97247" lon="2.36541">
        <ele>114.9</ele>
        <time>2023-01-25T14:34:47Z</time>
      </trkpt>
      <trkpt lat="49.97248" lon="2.3654">
        <ele>114.9</ele>
        <time>2023-01-25T14:34:48Z</time>
      </trkpt>
      <trkpt lat="49.97249" lon="2.36538">
        <ele>114.9</ele>
        <time>2023-01-25T14:34:49Z</time>
      </trkpt>
      <trkpt lat="49.97249" lon="2.36537">
        <ele>115</ele>
        <time>2023-01-25T14:34:50Z</time>
      </trkpt>
      <trkpt lat="49.9725" lon="2.36536">
        <ele>115</ele>
        <time>2023-01-25T14:34:51Z</time>
      </trkpt>
      <trkpt lat="49.9725" lon="2.36534">
        <ele>115</ele>
        <time>2023-01-25T14:34:52Z</time>
      </trkpt>
      <trkpt lat="49.97251" lon="2.36533">
        <ele>115</ele>
        <time>2023-01-25T14:34:53Z</time>
      </trkpt>
      <trkpt lat="49.97251" lon="2.36531">
        <ele>115</ele>
        <time>2023-01-25T14:34:54Z</time>
      </trkpt>
      <trkpt lat="49.97251" lon="2.36527">
        <ele>115.1</ele>
        <time>2023-01-25T14:34:56Z</time>
      </trkpt>
      <trkpt lat="49.97251" lon="2.36526">
        <ele>115.1</ele>
        <time>2023-01-25T14:34:57Z</time>
      </trkpt>
      <trkpt lat="49.97251" lon="2.36525">
        <ele>115.1</ele>
        <time>2023-01-25T14:34:58Z</time>
      </trkpt>
      <trkpt lat="49.97251" lon="2.36523">
        <ele>115.1</ele>
        <time>2023-01-25T14:34:59Z</time>
      </trkpt>
      <trkpt lat="49.97251" lon="2.36522">
        <ele>115.2</ele>
        <time>2023-01-25T14:35:00Z</time>
      </trkpt>
      <trkpt lat="49.97251" lon="2.3652">
        <ele>115.2</ele>
        <time>2023-01-25T14:35:01Z</time>
      </trkpt>
      <trkpt lat="49.97251" lon="2.36518">
        <ele>115.2</ele>
        <time>2023-01-25T14:35:02Z</time>
      </trkpt>
      <trkpt lat="49.97252" lon="2.36515">
        <ele>115.2</ele>
        <time>2023-01-25T14:35:03Z</time>
      </trkpt>
      <trkpt lat="49.97252" lon="2.36514">
        <ele>115.2</ele>
        <time>2023-01-25T14:35:04Z</time>
      </trkpt>
      <trkpt lat="49.97252" lon="2.36513">
        <ele>115.3</ele>
        <time>2023-01-25T14:35:06Z</time>
      </trkpt>
      <trkpt lat="49.97253" lon="2.36511">
        <ele>115.3</ele>
        <time>2023-01-25T14:35:07Z</time>
      </trkpt>
      <trkpt lat="49.97253" lon="2.3651">
        <ele>115.3</ele>
        <time>2023-01-25T14:35:08Z</time>
      </trkpt>
      <trkpt lat="49.97254" lon="2.36508">
        <ele>115.3</ele>
        <time>2023-01-25T14:35:09Z</time>
      </trkpt>
      <trkpt lat="49.97254" lon="2.36507">
        <ele>115.3</ele>
        <time>2023-01-25T14:35:10Z</time>
      </trkpt>
      <trkpt lat="49.97256" lon="2.36504">
        <ele>115.4</ele>
        <time>2023-01-25T14:35:12Z</time>
      </trkpt>
      <trkpt lat="49.97256" lon="2.36502">
        <ele>115.4</ele>
        <time>2023-01-25T14:35:13Z</time>
      </trkpt>
      <trkpt lat="49.97257" lon="2.36501">
        <ele>115.4</ele>
        <time>2023-01-25T14:35:14Z</time>
      </trkpt>
      <trkpt lat="49.97257" lon="2.365">
        <ele>115.5</ele>
        <time>2023-01-25T14:35:15Z</time>
      </trkpt>
      <trkpt lat="49.97257" lon="2.36498">
        <ele>115.5</ele>
        <time>2023-01-25T14:35:16Z</time>
      </trkpt>
      <trkpt lat="49.97258" lon="2.36497">
        <ele>115.5</ele>
        <time>2023-01-25T14:35:17Z</time>
      </trkpt>
      <trkpt lat="49.97258" lon="2.36495">
        <ele>115.5</ele>
        <time>2023-01-25T14:35:18Z</time>
      </trkpt>
      <trkpt lat="49.97259" lon="2.36493">
        <ele>115.5</ele>
        <time>2023-01-25T14:35:19Z</time>
      </trkpt>
      <trkpt lat="49.97259" lon="2.36491">
        <ele>115.6</ele>
        <time>2023-01-25T14:35:21Z</time>
      </trkpt>
      <trkpt lat="49.9726" lon="2.36489">
        <ele>115.6</ele>
        <time>2023-01-25T14:35:22Z</time>
      </trkpt>
      <trkpt lat="49.9726" lon="2.36487">
        <ele>115.6</ele>
        <time>2023-01-25T14:35:23Z</time>
      </trkpt>
      <trkpt lat="49.97261" lon="2.36485">
        <ele>115.7</ele>
        <time>2023-01-25T14:35:25Z</time>
      </trkpt>
      <trkpt lat="49.97262" lon="2.36484">
        <ele>115.7</ele>
        <time>2023-01-25T14:35:26Z</time>
      </trkpt>
      <trkpt lat="49.97262" lon="2.36482">
        <ele>115.7</ele>
        <time>2023-01-25T14:35:27Z</time>
      </trkpt>
      <trkpt lat="49.97263" lon="2.36481">
        <ele>115.7</ele>
        <time>2023-01-25T14:35:28Z</time>
      </trkpt>
      <trkpt lat="49.97263" lon="2.36477">
        <ele>115.8</ele>
        <time>2023-01-25T14:35:29Z</time>
      </trkpt>
      <trkpt lat="49.97264" lon="2.36477">
        <ele>115.8</ele>
        <time>2023-01-25T14:35:30Z</time>
      </trkpt>
      <trkpt lat="49.97264" lon="2.36475">
        <ele>115.8</ele>
        <time>2023-01-25T14:35:31Z</time>
      </trkpt>
      <trkpt lat="49.97264" lon="2.36473">
        <ele>115.9</ele>
        <time>2023-01-25T14:35:32Z</time>
      </trkpt>
      <trkpt lat="49.97265" lon="2.36471">
        <ele>115.9</ele>
        <time>2023-01-25T14:35:33Z</time>
      </trkpt>
      <trkpt lat="49.97266" lon="2.36468">
        <ele>116</ele>
        <time>2023-01-25T14:35:34Z</time>
      </trkpt>
      <trkpt lat="49.97266" lon="2.36467">
        <ele>116</ele>
        <time>2023-01-25T14:35:36Z</time>
      </trkpt>
      <trkpt lat="49.97266" lon="2.36466">
        <ele>116</ele>
        <time>2023-01-25T14:35:37Z</time>
      </trkpt>
      <trkpt lat="49.97267" lon="2.36465">
        <ele>116</ele>
        <time>2023-01-25T14:35:38Z</time>
      </trkpt>
      <trkpt lat="49.97267" lon="2.36462">
        <ele>116.1</ele>
        <time>2023-01-25T14:35:39Z</time>
      </trkpt>
      <trkpt lat="49.97267" lon="2.36461">
        <ele>116.1</ele>
        <time>2023-01-25T14:35:40Z</time>
      </trkpt>
      <trkpt lat="49.97268" lon="2.36459">
        <ele>116.1</ele>
        <time>2023-01-25T14:35:41Z</time>
      </trkpt>
      <trkpt lat="49.97268" lon="2.36457">
        <ele>116.1</ele>
        <time>2023-01-25T14:35:42Z</time>
      </trkpt>
      <trkpt lat="49.97268" lon="2.36456">
        <ele>116.2</ele>
        <time>2023-01-25T14:35:43Z</time>
      </trkpt>
      <trkpt lat="49.97268" lon="2.36453">
        <ele>116.2</ele>
        <time>2023-01-25T14:35:44Z</time>
      </trkpt>
      <trkpt lat="49.97269" lon="2.36452">
        <ele>116.2</ele>
        <time>2023-01-25T14:35:46Z</time>
      </trkpt>
      <trkpt lat="49.97269" lon="2.3645">
        <ele>116.3</ele>
        <time>2023-01-25T14:35:47Z</time>
      </trkpt>
      <trkpt lat="49.97269" lon="2.36449">
        <ele>116.3</ele>
        <time>2023-01-25T14:35:48Z</time>
      </trkpt>
      <trkpt lat="49.9727" lon="2.36445">
        <ele>116.4</ele>
        <time>2023-01-25T14:35:49Z</time>
      </trkpt>
      <trkpt lat="49.9727" lon="2.36444">
        <ele>116.4</ele>
        <time>2023-01-25T14:35:50Z</time>
      </trkpt>
      <trkpt lat="49.97271" lon="2.36443">
        <ele>116.4</ele>
        <time>2023-01-25T14:35:51Z</time>
      </trkpt>
      <trkpt lat="49.97271" lon="2.3644">
        <ele>116.5</ele>
        <time>2023-01-25T14:35:52Z</time>
      </trkpt>
      <trkpt lat="49.97271" lon="2.36438">
        <ele>116.5</ele>
        <time>2023-01-25T14:35:53Z</time>
      </trkpt>
      <trkpt lat="49.97271" lon="2.36437">
        <ele>116.5</ele>
        <time>2023-01-25T14:35:54Z</time>
      </trkpt>
      <trkpt lat="49.97271" lon="2.36435">
        <ele>116.5</ele>
        <time>2023-01-25T14:35:56Z</time>
      </trkpt>
      <trkpt lat="49.97272" lon="2.36434">
        <ele>116.6</ele>
        <time>2023-01-25T14:35:57Z</time>
      </trkpt>
      <trkpt lat="49.97272" lon="2.36432">
        <ele>116.6</ele>
        <time>2023-01-25T14:35:58Z</time>
      </trkpt>
      <trkpt lat="49.97273" lon="2.3643">
        <ele>116.6</ele>
        <time>2023-01-25T14:35:59Z</time>
      </trkpt>
      <trkpt lat="49.97273" lon="2.36429">
        <ele>116.6</ele>
        <time>2023-01-25T14:36:00Z</time>
      </trkpt>
      <trkpt lat="49.97274" lon="2.36428">
        <ele>116.7</ele>
        <time>2023-01-25T14:36:01Z</time>
      </trkpt>
      <trkpt lat="49.97274" lon="2.36426">
        <ele>116.7</ele>
        <time>2023-01-25T14:36:02Z</time>
      </trkpt>
      <trkpt lat="49.97275" lon="2.36424">
        <ele>116.7</ele>
        <time>2023-01-25T14:36:03Z</time>
      </trkpt>
      <trkpt lat="49.97275" lon="2.36422">
        <ele>116.8</ele>
        <time>2023-01-25T14:36:05Z</time>
      </trkpt>
      <trkpt lat="49.97276" lon="2.3642">
        <ele>116.8</ele>
        <time>2023-01-25T14:36:06Z</time>
      </trkpt>
      <trkpt lat="49.97276" lon="2.36419">
        <ele>116.8</ele>
        <time>2023-01-25T14:36:07Z</time>
      </trkpt>
      <trkpt lat="49.97276" lon="2.36417">
        <ele>116.9</ele>
        <time>2023-01-25T14:36:08Z</time>
      </trkpt>
      <trkpt lat="49.97277" lon="2.36413">
        <ele>117</ele>
        <time>2023-01-25T14:36:09Z</time>
      </trkpt>
      <trkpt lat="49.97277" lon="2.36412">
        <ele>117</ele>
        <time>2023-01-25T14:36:10Z</time>
      </trkpt>
      <trkpt lat="49.97277" lon="2.36412">
        <ele>117</ele>
        <time>2023-01-25T14:36:11Z</time>
      </trkpt>
      <trkpt lat="49.97278" lon="2.3641">
        <ele>117</ele>
        <time>2023-01-25T14:36:12Z</time>
      </trkpt>
      <trkpt lat="49.97278" lon="2.36408">
        <ele>117.1</ele>
        <time>2023-01-25T14:36:13Z</time>
      </trkpt>
      <trkpt lat="49.97279" lon="2.36406">
        <ele>117.1</ele>
        <time>2023-01-25T14:36:15Z</time>
      </trkpt>
      <trkpt lat="49.97279" lon="2.36404">
        <ele>117.1</ele>
        <time>2023-01-25T14:36:16Z</time>
      </trkpt>
      <trkpt lat="49.9728" lon="2.36403">
        <ele>117.2</ele>
        <time>2023-01-25T14:36:17Z</time>
      </trkpt>
      <trkpt lat="49.9728" lon="2.36402">
        <ele>117.2</ele>
        <time>2023-01-25T14:36:18Z</time>
      </trkpt>
      <trkpt lat="49.97281" lon="2.36399">
        <ele>117.3</ele>
        <time>2023-01-25T14:36:19Z</time>
      </trkpt>
      <trkpt lat="49.97281" lon="2.36398">
        <ele>117.3</ele>
        <time>2023-01-25T14:36:20Z</time>
      </trkpt>
      <trkpt lat="49.97282" lon="2.36397">
        <ele>117.3</ele>
        <time>2023-01-25T14:36:21Z</time>
      </trkpt>
      <trkpt lat="49.97282" lon="2.36394">
        <ele>117.4</ele>
        <time>2023-01-25T14:36:22Z</time>
      </trkpt>
      <trkpt lat="49.97283" lon="2.36393">
        <ele>117.4</ele>
        <time>2023-01-25T14:36:24Z</time>
      </trkpt>
      <trkpt lat="49.97283" lon="2.36391">
        <ele>117.4</ele>
        <time>2023-01-25T14:36:25Z</time>
      </trkpt>
      <trkpt lat="49.97283" lon="2.3639">
        <ele>117.4</ele>
        <time>2023-01-25T14:36:26Z</time>
      </trkpt>
      <trkpt lat="49.97284" lon="2.36389">
        <ele>117.5</ele>
        <time>2023-01-25T14:36:27Z</time>
      </trkpt>
      <trkpt lat="49.97284" lon="2.36387">
        <ele>117.5</ele>
        <time>2023-01-25T14:36:28Z</time>
      </trkpt>
      <trkpt lat="49.97285" lon="2.36383">
        <ele>117.6</ele>
        <time>2023-01-25T14:36:29Z</time>
      </trkpt>
      <trkpt lat="49.97284" lon="2.36382">
        <ele>117.6</ele>
        <time>2023-01-25T14:36:30Z</time>
      </trkpt>
      <trkpt lat="49.97285" lon="2.36381">
        <ele>117.6</ele>
        <time>2023-01-25T14:36:31Z</time>
      </trkpt>
      <trkpt lat="49.97285" lon="2.36379">
        <ele>117.7</ele>
        <time>2023-01-25T14:36:32Z</time>
      </trkpt>
      <trkpt lat="49.97286" lon="2.36377">
        <ele>117.7</ele>
        <time>2023-01-25T14:36:34Z</time>
      </trkpt>
      <trkpt lat="49.97286" lon="2.36373">
        <ele>117.8</ele>
        <time>2023-01-25T14:36:35Z</time>
      </trkpt>
      <trkpt lat="49.97286" lon="2.36372">
        <ele>117.8</ele>
        <time>2023-01-25T14:36:36Z</time>
      </trkpt>
      <trkpt lat="49.97286" lon="2.36371">
        <ele>117.8</ele>
        <time>2023-01-25T14:36:37Z</time>
      </trkpt>
      <trkpt lat="49.97286" lon="2.3637">
        <ele>117.9</ele>
        <time>2023-01-25T14:36:38Z</time>
      </trkpt>
      <trkpt lat="49.97287" lon="2.36367">
        <ele>117.9</ele>
        <time>2023-01-25T14:36:39Z</time>
      </trkpt>
      <trkpt lat="49.97287" lon="2.36366">
        <ele>118</ele>
        <time>2023-01-25T14:36:40Z</time>
      </trkpt>
      <trkpt lat="49.97287" lon="2.36364">
        <ele>118</ele>
        <time>2023-01-25T14:36:41Z</time>
      </trkpt>
      <trkpt lat="49.97288" lon="2.36363">
        <ele>118</ele>
        <time>2023-01-25T14:36:42Z</time>
      </trkpt>
      <trkpt lat="49.97289" lon="2.36361">
        <ele>118.1</ele>
        <time>2023-01-25T14:36:44Z</time>
      </trkpt>
      <trkpt lat="49.97289" lon="2.36359">
        <ele>118.1</ele>
        <time>2023-01-25T14:36:45Z</time>
      </trkpt>
      <trkpt lat="49.9729" lon="2.36358">
        <ele>118.2</ele>
        <time>2023-01-25T14:36:46Z</time>
      </trkpt>
      <trkpt lat="49.97291" lon="2.36356">
        <ele>118.2</ele>
        <time>2023-01-25T14:36:47Z</time>
      </trkpt>
      <trkpt lat="49.97291" lon="2.36355">
        <ele>118.2</ele>
        <time>2023-01-25T14:36:48Z</time>
      </trkpt>
      <trkpt lat="49.97292" lon="2.36351">
        <ele>118.3</ele>
        <time>2023-01-25T14:36:49Z</time>
      </trkpt>
      <trkpt lat="49.97292" lon="2.3635">
        <ele>118.3</ele>
        <time>2023-01-25T14:36:50Z</time>
      </trkpt>
      <trkpt lat="49.97293" lon="2.36349">
        <ele>118.3</ele>
        <time>2023-01-25T14:36:51Z</time>
      </trkpt>
      <trkpt lat="49.97293" lon="2.36347">
        <ele>118.4</ele>
        <time>2023-01-25T14:36:53Z</time>
      </trkpt>
      <trkpt lat="49.97294" lon="2.36345">
        <ele>118.4</ele>
        <time>2023-01-25T14:36:54Z</time>
      </trkpt>
      <trkpt lat="49.97294" lon="2.36344">
        <ele>118.5</ele>
        <time>2023-01-25T14:36:55Z</time>
      </trkpt>
      <trkpt lat="49.97294" lon="2.36343">
        <ele>118.5</ele>
        <time>2023-01-25T14:36:56Z</time>
      </trkpt>
      <trkpt lat="49.97295" lon="2.36341">
        <ele>118.5</ele>
        <time>2023-01-25T14:36:57Z</time>
      </trkpt>
      <trkpt lat="49.97295" lon="2.3634">
        <ele>118.6</ele>
        <time>2023-01-25T14:36:58Z</time>
      </trkpt>
      <trkpt lat="49.97297" lon="2.36336">
        <ele>118.7</ele>
        <time>2023-01-25T14:36:59Z</time>
      </trkpt>
      <trkpt lat="49.97297" lon="2.36335">
        <ele>118.7</ele>
        <time>2023-01-25T14:37:00Z</time>
      </trkpt>
      <trkpt lat="49.97297" lon="2.36334">
        <ele>118.7</ele>
        <time>2023-01-25T14:37:01Z</time>
      </trkpt>
      <trkpt lat="49.97297" lon="2.36332">
        <ele>118.7</ele>
        <time>2023-01-25T14:37:02Z</time>
      </trkpt>
      <trkpt lat="49.97298" lon="2.3633">
        <ele>118.7</ele>
        <time>2023-01-25T14:37:04Z</time>
      </trkpt>
      <trkpt lat="49.97298" lon="2.36328">
        <ele>118.8</ele>
        <time>2023-01-25T14:37:05Z</time>
      </trkpt>
      <trkpt lat="49.97299" lon="2.36327">
        <ele>118.8</ele>
        <time>2023-01-25T14:37:06Z</time>
      </trkpt>
      <trkpt lat="49.97299" lon="2.36325">
        <ele>118.8</ele>
        <time>2023-01-25T14:37:07Z</time>
      </trkpt>
      <trkpt lat="49.973" lon="2.36324">
        <ele>118.9</ele>
        <time>2023-01-25T14:37:08Z</time>
      </trkpt>
      <trkpt lat="49.97301" lon="2.3632">
        <ele>118.9</ele>
        <time>2023-01-25T14:37:09Z</time>
      </trkpt>
      <trkpt lat="49.97301" lon="2.3632">
        <ele>118.9</ele>
        <time>2023-01-25T14:37:10Z</time>
      </trkpt>
      <trkpt lat="49.97301" lon="2.36318">
        <ele>119</ele>
        <time>2023-01-25T14:37:11Z</time>
      </trkpt>
      <trkpt lat="49.97301" lon="2.36316">
        <ele>119</ele>
        <time>2023-01-25T14:37:13Z</time>
      </trkpt>
      <trkpt lat="49.97302" lon="2.36315">
        <ele>119</ele>
        <time>2023-01-25T14:37:14Z</time>
      </trkpt>
      <trkpt lat="49.97302" lon="2.36313">
        <ele>119.1</ele>
        <time>2023-01-25T14:37:15Z</time>
      </trkpt>
      <trkpt lat="49.97303" lon="2.36311">
        <ele>119.1</ele>
        <time>2023-01-25T14:37:16Z</time>
      </trkpt>
      <trkpt lat="49.97303" lon="2.36309">
        <ele>119.1</ele>
        <time>2023-01-25T14:37:17Z</time>
      </trkpt>
      <trkpt lat="49.97304" lon="2.36307">
        <ele>119.2</ele>
        <time>2023-01-25T14:37:18Z</time>
      </trkpt>
      <trkpt lat="49.97304" lon="2.36306">
        <ele>119.2</ele>
        <time>2023-01-25T14:37:19Z</time>
      </trkpt>
      <trkpt lat="49.97304" lon="2.36305">
        <ele>119.2</ele>
        <time>2023-01-25T14:37:20Z</time>
      </trkpt>
      <trkpt lat="49.97305" lon="2.36303">
        <ele>119.2</ele>
        <time>2023-01-25T14:37:21Z</time>
      </trkpt>
      <trkpt lat="49.97306" lon="2.36302">
        <ele>119.2</ele>
        <time>2023-01-25T14:37:22Z</time>
      </trkpt>
      <trkpt lat="49.97307" lon="2.36299">
        <ele>119.3</ele>
        <time>2023-01-25T14:37:24Z</time>
      </trkpt>
      <trkpt lat="49.97307" lon="2.36298">
        <ele>119.3</ele>
        <time>2023-01-25T14:37:25Z</time>
      </trkpt>
      <trkpt lat="49.97307" lon="2.36297">
        <ele>119.3</ele>
        <time>2023-01-25T14:37:26Z</time>
      </trkpt>
      <trkpt lat="49.97308" lon="2.36294">
        <ele>119.4</ele>
        <time>2023-01-25T14:37:27Z</time>
      </trkpt>
      <trkpt lat="49.97309" lon="2.36293">
        <ele>119.4</ele>
        <time>2023-01-25T14:37:28Z</time>
      </trkpt>
      <trkpt lat="49.97309" lon="2.36291">
        <ele>119.4</ele>
        <time>2023-01-25T14:37:29Z</time>
      </trkpt>
      <trkpt lat="49.9731" lon="2.36289">
        <ele>119.5</ele>
        <time>2023-01-25T14:37:30Z</time>
      </trkpt>
      <trkpt lat="49.97311" lon="2.36287">
        <ele>119.5</ele>
        <time>2023-01-25T14:37:31Z</time>
      </trkpt>
      <trkpt lat="49.97311" lon="2.36285">
        <ele>119.6</ele>
        <time>2023-01-25T14:37:33Z</time>
      </trkpt>
      <trkpt lat="49.97312" lon="2.36283">
        <ele>119.6</ele>
        <time>2023-01-25T14:37:34Z</time>
      </trkpt>
      <trkpt lat="49.97313" lon="2.36281">
        <ele>119.6</ele>
        <time>2023-01-25T14:37:35Z</time>
      </trkpt>
      <trkpt lat="49.97313" lon="2.3628">
        <ele>119.6</ele>
        <time>2023-01-25T14:37:36Z</time>
      </trkpt>
      <trkpt lat="49.97313" lon="2.36279">
        <ele>119.7</ele>
        <time>2023-01-25T14:37:37Z</time>
      </trkpt>
      <trkpt lat="49.97313" lon="2.36278">
        <ele>119.7</ele>
        <time>2023-01-25T14:37:38Z</time>
      </trkpt>
      <trkpt lat="49.97314" lon="2.36277">
        <ele>119.7</ele>
        <time>2023-01-25T14:37:39Z</time>
      </trkpt>
      <trkpt lat="49.97314" lon="2.36275">
        <ele>119.7</ele>
        <time>2023-01-25T14:37:40Z</time>
      </trkpt>
      <trkpt lat="49.97315" lon="2.36273">
        <ele>119.8</ele>
        <time>2023-01-25T14:37:42Z</time>
      </trkpt>
      <trkpt lat="49.97315" lon="2.36271">
        <ele>119.8</ele>
        <time>2023-01-25T14:37:43Z</time>
      </trkpt>
      <trkpt lat="49.97316" lon="2.36269">
        <ele>119.8</ele>
        <time>2023-01-25T14:37:44Z</time>
      </trkpt>
      <trkpt lat="49.97316" lon="2.36267">
        <ele>119.8</ele>
        <time>2023-01-25T14:37:45Z</time>
      </trkpt>
      <trkpt lat="49.97316" lon="2.36265">
        <ele>119.9</ele>
        <time>2023-01-25T14:37:46Z</time>
      </trkpt>
      <trkpt lat="49.97317" lon="2.36263">
        <ele>119.9</ele>
        <time>2023-01-25T14:37:48Z</time>
      </trkpt>
      <trkpt lat="49.97317" lon="2.36261">
        <ele>119.9</ele>
        <time>2023-01-25T14:37:49Z</time>
      </trkpt>
      <trkpt lat="49.97318" lon="2.36259">
        <ele>119.9</ele>
        <time>2023-01-25T14:37:50Z</time>
      </trkpt>
      <trkpt lat="49.97318" lon="2.36257">
        <ele>120</ele>
        <time>2023-01-25T14:37:51Z</time>
      </trkpt>
      <trkpt lat="49.97319" lon="2.36253">
        <ele>120</ele>
        <time>2023-01-25T14:37:52Z</time>
      </trkpt>
      <trkpt lat="49.97319" lon="2.36252">
        <ele>120</ele>
        <time>2023-01-25T14:37:53Z</time>
      </trkpt>
      <trkpt lat="49.97319" lon="2.36251">
        <ele>120</ele>
        <time>2023-01-25T14:37:54Z</time>
      </trkpt>
      <trkpt lat="49.97319" lon="2.36249">
        <ele>120.1</ele>
        <time>2023-01-25T14:37:55Z</time>
      </trkpt>
      <trkpt lat="49.97319" lon="2.36248">
        <ele>120.1</ele>
        <time>2023-01-25T14:37:56Z</time>
      </trkpt>
      <trkpt lat="49.9732" lon="2.36247">
        <ele>120.1</ele>
        <time>2023-01-25T14:37:57Z</time>
      </trkpt>
      <trkpt lat="49.9732" lon="2.36246">
        <ele>120.1</ele>
        <time>2023-01-25T14:37:59Z</time>
      </trkpt>
      <trkpt lat="49.97321" lon="2.36243">
        <ele>120.1</ele>
        <time>2023-01-25T14:38:00Z</time>
      </trkpt>
      <trkpt lat="49.97321" lon="2.36242">
        <ele>120.2</ele>
        <time>2023-01-25T14:38:01Z</time>
      </trkpt>
      <trkpt lat="49.97321" lon="2.36241">
        <ele>120.2</ele>
        <time>2023-01-25T14:38:02Z</time>
      </trkpt>
      <trkpt lat="49.97322" lon="2.36238">
        <ele>120.2</ele>
        <time>2023-01-25T14:38:03Z</time>
      </trkpt>
      <trkpt lat="49.97323" lon="2.36237">
        <ele>120.2</ele>
        <time>2023-01-25T14:38:04Z</time>
      </trkpt>
      <trkpt lat="49.97323" lon="2.36235">
        <ele>120.2</ele>
        <time>2023-01-25T14:38:05Z</time>
      </trkpt>
      <trkpt lat="49.97323" lon="2.36234">
        <ele>120.3</ele>
        <time>2023-01-25T14:38:06Z</time>
      </trkpt>
      <trkpt lat="49.97324" lon="2.36232">
        <ele>120.3</ele>
        <time>2023-01-25T14:38:07Z</time>
      </trkpt>
      <trkpt lat="49.97325" lon="2.3623">
        <ele>120.3</ele>
        <time>2023-01-25T14:38:09Z</time>
      </trkpt>
      <trkpt lat="49.97326" lon="2.36227">
        <ele>120.4</ele>
        <time>2023-01-25T14:38:10Z</time>
      </trkpt>
      <trkpt lat="49.97326" lon="2.36226">
        <ele>120.4</ele>
        <time>2023-01-25T14:38:11Z</time>
      </trkpt>
      <trkpt lat="49.97326" lon="2.36225">
        <ele>120.4</ele>
        <time>2023-01-25T14:38:12Z</time>
      </trkpt>
      <trkpt lat="49.97326" lon="2.36224">
        <ele>120.4</ele>
        <time>2023-01-25T14:38:13Z</time>
      </trkpt>
      <trkpt lat="49.97326" lon="2.36222">
        <ele>120.4</ele>
        <time>2023-01-25T14:38:14Z</time>
      </trkpt>
      <trkpt lat="49.97327" lon="2.3622">
        <ele>120.5</ele>
        <time>2023-01-25T14:38:15Z</time>
      </trkpt>
      <trkpt lat="49.97327" lon="2.36219">
        <ele>120.5</ele>
        <time>2023-01-25T14:38:16Z</time>
      </trkpt>
      <trkpt lat="49.97327" lon="2.36218">
        <ele>120.5</ele>
        <time>2023-01-25T14:38:17Z</time>
      </trkpt>
      <trkpt lat="49.97328" lon="2.36216">
        <ele>120.5</ele>
        <time>2023-01-25T14:38:18Z</time>
      </trkpt>
      <trkpt lat="49.97328" lon="2.36213">
        <ele>120.6</ele>
        <time>2023-01-25T14:38:19Z</time>
      </trkpt>
      <trkpt lat="49.97328" lon="2.36212">
        <ele>120.6</ele>
        <time>2023-01-25T14:38:21Z</time>
      </trkpt>
      <trkpt lat="49.97329" lon="2.36211">
        <ele>120.6</ele>
        <time>2023-01-25T14:38:22Z</time>
      </trkpt>
      <trkpt lat="49.9733" lon="2.36208">
        <ele>120.6</ele>
        <time>2023-01-25T14:38:23Z</time>
      </trkpt>
      <trkpt lat="49.9733" lon="2.36207">
        <ele>120.7</ele>
        <time>2023-01-25T14:38:24Z</time>
      </trkpt>
      <trkpt lat="49.97331" lon="2.36205">
        <ele>120.7</ele>
        <time>2023-01-25T14:38:25Z</time>
      </trkpt>
      <trkpt lat="49.97331" lon="2.36203">
        <ele>120.7</ele>
        <time>2023-01-25T14:38:26Z</time>
      </trkpt>
      <trkpt lat="49.97331" lon="2.36202">
        <ele>120.7</ele>
        <time>2023-01-25T14:38:27Z</time>
      </trkpt>
      <trkpt lat="49.97331" lon="2.36201">
        <ele>120.7</ele>
        <time>2023-01-25T14:38:28Z</time>
      </trkpt>
      <trkpt lat="49.97332" lon="2.362">
        <ele>120.8</ele>
        <time>2023-01-25T14:38:29Z</time>
      </trkpt>
      <trkpt lat="49.97332" lon="2.36198">
        <ele>120.8</ele>
        <time>2023-01-25T14:38:31Z</time>
      </trkpt>
      <trkpt lat="49.97333" lon="2.36196">
        <ele>120.8</ele>
        <time>2023-01-25T14:38:32Z</time>
      </trkpt>
      <trkpt lat="49.97333" lon="2.36195">
        <ele>120.8</ele>
        <time>2023-01-25T14:38:33Z</time>
      </trkpt>
      <trkpt lat="49.97334" lon="2.36193">
        <ele>120.9</ele>
        <time>2023-01-25T14:38:34Z</time>
      </trkpt>
      <trkpt lat="49.97335" lon="2.3619">
        <ele>120.9</ele>
        <time>2023-01-25T14:38:35Z</time>
      </trkpt>
      <trkpt lat="49.97335" lon="2.3619">
        <ele>120.9</ele>
        <time>2023-01-25T14:38:36Z</time>
      </trkpt>
      <trkpt lat="49.97335" lon="2.36188">
        <ele>120.9</ele>
        <time>2023-01-25T14:38:37Z</time>
      </trkpt>
      <trkpt lat="49.97336" lon="2.36187">
        <ele>121</ele>
        <time>2023-01-25T14:38:38Z</time>
      </trkpt>
      <trkpt lat="49.97338" lon="2.36184">
        <ele>121</ele>
        <time>2023-01-25T14:38:39Z</time>
      </trkpt>
      <trkpt lat="49.97338" lon="2.36183">
        <ele>121</ele>
        <time>2023-01-25T14:38:41Z</time>
      </trkpt>
      <trkpt lat="49.97339" lon="2.36181">
        <ele>121.1</ele>
        <time>2023-01-25T14:38:42Z</time>
      </trkpt>
      <trkpt lat="49.9734" lon="2.3618">
        <ele>121.1</ele>
        <time>2023-01-25T14:38:43Z</time>
      </trkpt>
      <trkpt lat="49.9734" lon="2.36179">
        <ele>121.1</ele>
        <time>2023-01-25T14:38:44Z</time>
      </trkpt>
      <trkpt lat="49.9734" lon="2.36175">
        <ele>121.1</ele>
        <time>2023-01-25T14:38:45Z</time>
      </trkpt>
      <trkpt lat="49.97341" lon="2.36174">
        <ele>121.2</ele>
        <time>2023-01-25T14:38:46Z</time>
      </trkpt>
      <trkpt lat="49.97341" lon="2.36172">
        <ele>121.2</ele>
        <time>2023-01-25T14:38:47Z</time>
      </trkpt>
      <trkpt lat="49.97341" lon="2.3617">
        <ele>121.2</ele>
        <time>2023-01-25T14:38:48Z</time>
      </trkpt>
      <trkpt lat="49.97341" lon="2.36168">
        <ele>121.2</ele>
        <time>2023-01-25T14:38:49Z</time>
      </trkpt>
      <trkpt lat="49.97341" lon="2.36166">
        <ele>121.3</ele>
        <time>2023-01-25T14:38:50Z</time>
      </trkpt>
      <trkpt lat="49.97342" lon="2.36163">
        <ele>121.3</ele>
        <time>2023-01-25T14:38:52Z</time>
      </trkpt>
      <trkpt lat="49.97343" lon="2.36161">
        <ele>121.3</ele>
        <time>2023-01-25T14:38:53Z</time>
      </trkpt>
      <trkpt lat="49.97343" lon="2.3616">
        <ele>121.3</ele>
        <time>2023-01-25T14:38:54Z</time>
      </trkpt>
      <trkpt lat="49.97343" lon="2.36159">
        <ele>121.3</ele>
        <time>2023-01-25T14:38:55Z</time>
      </trkpt>
      <trkpt lat="49.97344" lon="2.36157">
        <ele>121.4</ele>
        <time>2023-01-25T14:38:56Z</time>
      </trkpt>
      <trkpt lat="49.97345" lon="2.36156">
        <ele>121.4</ele>
        <time>2023-01-25T14:38:57Z</time>
      </trkpt>
      <trkpt lat="49.97345" lon="2.36153">
        <ele>121.4</ele>
        <time>2023-01-25T14:38:58Z</time>
      </trkpt>
      <trkpt lat="49.97345" lon="2.36151">
        <ele>121.4</ele>
        <time>2023-01-25T14:39:00Z</time>
      </trkpt>
      <trkpt lat="49.97345" lon="2.36149">
        <ele>121.5</ele>
        <time>2023-01-25T14:39:01Z</time>
      </trkpt>
      <trkpt lat="49.97345" lon="2.36148">
        <ele>121.5</ele>
        <time>2023-01-25T14:39:02Z</time>
      </trkpt>
      <trkpt lat="49.97345" lon="2.36146">
        <ele>121.5</ele>
        <time>2023-01-25T14:39:03Z</time>
      </trkpt>
      <trkpt lat="49.97345" lon="2.36144">
        <ele>121.5</ele>
        <time>2023-01-25T14:39:04Z</time>
      </trkpt>
      <trkpt lat="49.97346" lon="2.36143">
        <ele>121.5</ele>
        <time>2023-01-25T14:39:05Z</time>
      </trkpt>
      <trkpt lat="49.97346" lon="2.36141">
        <ele>121.6</ele>
        <time>2023-01-25T14:39:06Z</time>
      </trkpt>
      <trkpt lat="49.97347" lon="2.3614">
        <ele>121.6</ele>
        <time>2023-01-25T14:39:07Z</time>
      </trkpt>
      <trkpt lat="49.97347" lon="2.36136">
        <ele>121.6</ele>
        <time>2023-01-25T14:39:08Z</time>
      </trkpt>
      <trkpt lat="49.97347" lon="2.36135">
        <ele>121.7</ele>
        <time>2023-01-25T14:39:09Z</time>
      </trkpt>
      <trkpt lat="49.97347" lon="2.36134">
        <ele>121.7</ele>
        <time>2023-01-25T14:39:10Z</time>
      </trkpt>
      <trkpt lat="49.97347" lon="2.3613">
        <ele>121.7</ele>
        <time>2023-01-25T14:39:11Z</time>
      </trkpt>
      <trkpt lat="49.97347" lon="2.36128">
        <ele>121.7</ele>
        <time>2023-01-25T14:39:13Z</time>
      </trkpt>
      <trkpt lat="49.97347" lon="2.36127">
        <ele>121.8</ele>
        <time>2023-01-25T14:39:14Z</time>
      </trkpt>
      <trkpt lat="49.97347" lon="2.36124">
        <ele>121.8</ele>
        <time>2023-01-25T14:39:15Z</time>
      </trkpt>
      <trkpt lat="49.97347" lon="2.36123">
        <ele>121.8</ele>
        <time>2023-01-25T14:39:16Z</time>
      </trkpt>
      <trkpt lat="49.97347" lon="2.36122">
        <ele>121.8</ele>
        <time>2023-01-25T14:39:17Z</time>
      </trkpt>
      <trkpt lat="49.97348" lon="2.36118">
        <ele>121.9</ele>
        <time>2023-01-25T14:39:18Z</time>
      </trkpt>
      <trkpt lat="49.97348" lon="2.36117">
        <ele>121.9</ele>
        <time>2023-01-25T14:39:20Z</time>
      </trkpt>
      <trkpt lat="49.97348" lon="2.36116">
        <ele>121.9</ele>
        <time>2023-01-25T14:39:21Z</time>
      </trkpt>
      <trkpt lat="49.97349" lon="2.36115">
        <ele>122</ele>
        <time>2023-01-25T14:39:22Z</time>
      </trkpt>
      <trkpt lat="49.97349" lon="2.36113">
        <ele>122</ele>
        <time>2023-01-25T14:39:23Z</time>
      </trkpt>
      <trkpt lat="49.97349" lon="2.36111">
        <ele>122</ele>
        <time>2023-01-25T14:39:24Z</time>
      </trkpt>
      <trkpt lat="49.97349" lon="2.3611">
        <ele>122</ele>
        <time>2023-01-25T14:39:25Z</time>
      </trkpt>
      <trkpt lat="49.9735" lon="2.36108">
        <ele>122</ele>
        <time>2023-01-25T14:39:26Z</time>
      </trkpt>
      <trkpt lat="49.9735" lon="2.36107">
        <ele>122.1</ele>
        <time>2023-01-25T14:39:27Z</time>
      </trkpt>
      <trkpt lat="49.9735" lon="2.36104">
        <ele>122.1</ele>
        <time>2023-01-25T14:39:28Z</time>
      </trkpt>
      <trkpt lat="49.97351" lon="2.36103">
        <ele>122.1</ele>
        <time>2023-01-25T14:39:30Z</time>
      </trkpt>
      <trkpt lat="49.97351" lon="2.36101">
        <ele>122.1</ele>
        <time>2023-01-25T14:39:31Z</time>
      </trkpt>
      <trkpt lat="49.9735" lon="2.361">
        <ele>122.2</ele>
        <time>2023-01-25T14:39:32Z</time>
      </trkpt>
      <trkpt lat="49.9735" lon="2.36098">
        <ele>122.2</ele>
        <time>2023-01-25T14:39:33Z</time>
      </trkpt>
      <trkpt lat="49.9735" lon="2.36096">
        <ele>122.2</ele>
        <time>2023-01-25T14:39:34Z</time>
      </trkpt>
      <trkpt lat="49.9735" lon="2.36094">
        <ele>122.2</ele>
        <time>2023-01-25T14:39:35Z</time>
      </trkpt>
      <trkpt lat="49.97349" lon="2.36092">
        <ele>122.2</ele>
        <time>2023-01-25T14:39:36Z</time>
      </trkpt>
      <trkpt lat="49.97349" lon="2.36091">
        <ele>122.3</ele>
        <time>2023-01-25T14:39:37Z</time>
      </trkpt>
      <trkpt lat="49.97349" lon="2.36089">
        <ele>122.3</ele>
        <time>2023-01-25T14:39:38Z</time>
      </trkpt>
      <trkpt lat="49.97349" lon="2.36088">
        <ele>122.3</ele>
        <time>2023-01-25T14:39:39Z</time>
      </trkpt>
      <trkpt lat="49.97348" lon="2.36086">
        <ele>122.3</ele>
        <time>2023-01-25T14:39:41Z</time>
      </trkpt>
      <trkpt lat="49.97348" lon="2.36084">
        <ele>122.3</ele>
        <time>2023-01-25T14:39:42Z</time>
      </trkpt>
      <trkpt lat="49.97348" lon="2.36083">
        <ele>122.4</ele>
        <time>2023-01-25T14:39:43Z</time>
      </trkpt>
      <trkpt lat="49.97348" lon="2.36081">
        <ele>122.4</ele>
        <time>2023-01-25T14:39:44Z</time>
      </trkpt>
      <trkpt lat="49.97347" lon="2.3608">
        <ele>122.4</ele>
        <time>2023-01-25T14:39:45Z</time>
      </trkpt>
      <trkpt lat="49.97347" lon="2.36078">
        <ele>122.4</ele>
        <time>2023-01-25T14:39:46Z</time>
      </trkpt>
      <trkpt lat="49.97346" lon="2.36077">
        <ele>122.4</ele>
        <time>2023-01-25T14:39:47Z</time>
      </trkpt>
      <trkpt lat="49.97345" lon="2.36074">
        <ele>122.4</ele>
        <time>2023-01-25T14:39:49Z</time>
      </trkpt>
      <trkpt lat="49.97345" lon="2.36072">
        <ele>122.5</ele>
        <time>2023-01-25T14:39:50Z</time>
      </trkpt>
      <trkpt lat="49.97345" lon="2.36071">
        <ele>122.5</ele>
        <time>2023-01-25T14:39:51Z</time>
      </trkpt>
      <trkpt lat="49.97344" lon="2.3607">
        <ele>122.5</ele>
        <time>2023-01-25T14:39:52Z</time>
      </trkpt>
      <trkpt lat="49.97344" lon="2.36068">
        <ele>122.5</ele>
        <time>2023-01-25T14:39:53Z</time>
      </trkpt>
      <trkpt lat="49.97344" lon="2.36066">
        <ele>122.5</ele>
        <time>2023-01-25T14:39:54Z</time>
      </trkpt>
      <trkpt lat="49.97344" lon="2.36063">
        <ele>122.5</ele>
        <time>2023-01-25T14:39:55Z</time>
      </trkpt>
      <trkpt lat="49.97344" lon="2.36062">
        <ele>122.6</ele>
        <time>2023-01-25T14:39:57Z</time>
      </trkpt>
      <trkpt lat="49.97344" lon="2.3606">
        <ele>122.6</ele>
        <time>2023-01-25T14:39:58Z</time>
      </trkpt>
      <trkpt lat="49.97344" lon="2.36059">
        <ele>122.6</ele>
        <time>2023-01-25T14:39:59Z</time>
      </trkpt>
      <trkpt lat="49.97344" lon="2.36057">
        <ele>122.6</ele>
        <time>2023-01-25T14:40:00Z</time>
      </trkpt>
      <trkpt lat="49.97343" lon="2.36055">
        <ele>122.6</ele>
        <time>2023-01-25T14:40:01Z</time>
      </trkpt>
      <trkpt lat="49.97343" lon="2.36054">
        <ele>122.6</ele>
        <time>2023-01-25T14:40:02Z</time>
      </trkpt>
      <trkpt lat="49.97343" lon="2.36052">
        <ele>122.6</ele>
        <time>2023-01-25T14:40:03Z</time>
      </trkpt>
      <trkpt lat="49.97343" lon="2.3605">
        <ele>122.7</ele>
        <time>2023-01-25T14:40:04Z</time>
      </trkpt>
      <trkpt lat="49.97342" lon="2.36049">
        <ele>122.7</ele>
        <time>2023-01-25T14:40:05Z</time>
      </trkpt>
      <trkpt lat="49.97342" lon="2.36047">
        <ele>122.7</ele>
        <time>2023-01-25T14:40:06Z</time>
      </trkpt>
      <trkpt lat="49.97342" lon="2.36046">
        <ele>122.7</ele>
        <time>2023-01-25T14:40:08Z</time>
      </trkpt>
      <trkpt lat="49.97341" lon="2.36044">
        <ele>122.7</ele>
        <time>2023-01-25T14:40:09Z</time>
      </trkpt>
      <trkpt lat="49.97341" lon="2.36043">
        <ele>122.7</ele>
        <time>2023-01-25T14:40:10Z</time>
      </trkpt>
      <trkpt lat="49.97341" lon="2.36041">
        <ele>122.8</ele>
        <time>2023-01-25T14:40:11Z</time>
      </trkpt>
      <trkpt lat="49.97341" lon="2.3604">
        <ele>122.8</ele>
        <time>2023-01-25T14:40:12Z</time>
      </trkpt>
      <trkpt lat="49.97341" lon="2.36039">
        <ele>122.8</ele>
        <time>2023-01-25T14:40:13Z</time>
      </trkpt>
      <trkpt lat="49.97341" lon="2.36038">
        <ele>122.8</ele>
        <time>2023-01-25T14:40:14Z</time>
      </trkpt>
      <trkpt lat="49.97342" lon="2.36036">
        <ele>122.8</ele>
        <time>2023-01-25T14:40:15Z</time>
      </trkpt>
      <trkpt lat="49.97343" lon="2.36035">
        <ele>122.8</ele>
        <time>2023-01-25T14:40:16Z</time>
      </trkpt>
      <trkpt lat="49.97343" lon="2.36033">
        <ele>122.8</ele>
        <time>2023-01-25T14:40:17Z</time>
      </trkpt>
      <trkpt lat="49.97343" lon="2.36031">
        <ele>122.9</ele>
        <time>2023-01-25T14:40:18Z</time>
      </trkpt>
      <trkpt lat="49.97342" lon="2.36027">
        <ele>122.9</ele>
        <time>2023-01-25T14:40:19Z</time>
      </trkpt>
      <trkpt lat="49.97342" lon="2.36025">
        <ele>122.9</ele>
        <time>2023-01-25T14:40:20Z</time>
      </trkpt>
      <trkpt lat="49.97342" lon="2.36022">
        <ele>123</ele>
        <time>2023-01-25T14:40:22Z</time>
      </trkpt>
      <trkpt lat="49.97342" lon="2.36021">
        <ele>123</ele>
        <time>2023-01-25T14:40:23Z</time>
      </trkpt>
      <trkpt lat="49.97341" lon="2.36019">
        <ele>123</ele>
        <time>2023-01-25T14:40:24Z</time>
      </trkpt>
      <trkpt lat="49.97341" lon="2.36018">
        <ele>123</ele>
        <time>2023-01-25T14:40:25Z</time>
      </trkpt>
      <trkpt lat="49.97341" lon="2.36015">
        <ele>123.1</ele>
        <time>2023-01-25T14:40:26Z</time>
      </trkpt>
      <trkpt lat="49.9734" lon="2.36013">
        <ele>123.1</ele>
        <time>2023-01-25T14:40:27Z</time>
      </trkpt>
      <trkpt lat="49.9734" lon="2.36011">
        <ele>123.1</ele>
        <time>2023-01-25T14:40:29Z</time>
      </trkpt>
      <trkpt lat="49.9734" lon="2.36009">
        <ele>123.1</ele>
        <time>2023-01-25T14:40:30Z</time>
      </trkpt>
      <trkpt lat="49.9734" lon="2.36007">
        <ele>123.2</ele>
        <time>2023-01-25T14:40:31Z</time>
      </trkpt>
      <trkpt lat="49.97339" lon="2.36004">
        <ele>123.2</ele>
        <time>2023-01-25T14:40:32Z</time>
      </trkpt>
      <trkpt lat="49.97339" lon="2.36003">
        <ele>123.2</ele>
        <time>2023-01-25T14:40:33Z</time>
      </trkpt>
      <trkpt lat="49.97338" lon="2.36">
        <ele>123.3</ele>
        <time>2023-01-25T14:40:34Z</time>
      </trkpt>
      <trkpt lat="49.97338" lon="2.35998">
        <ele>123.3</ele>
        <time>2023-01-25T14:40:35Z</time>
      </trkpt>
      <trkpt lat="49.97337" lon="2.35997">
        <ele>123.3</ele>
        <time>2023-01-25T14:40:36Z</time>
      </trkpt>
      <trkpt lat="49.97337" lon="2.35994">
        <ele>123.3</ele>
        <time>2023-01-25T14:40:37Z</time>
      </trkpt>
      <trkpt lat="49.97337" lon="2.35993">
        <ele>123.3</ele>
        <time>2023-01-25T14:40:38Z</time>
      </trkpt>
      <trkpt lat="49.97337" lon="2.35992">
        <ele>123.3</ele>
        <time>2023-01-25T14:40:39Z</time>
      </trkpt>
      <trkpt lat="49.97337" lon="2.35988">
        <ele>123.4</ele>
        <time>2023-01-25T14:40:41Z</time>
      </trkpt>
      <trkpt lat="49.97336" lon="2.35987">
        <ele>123.4</ele>
        <time>2023-01-25T14:40:42Z</time>
      </trkpt>
      <trkpt lat="49.97336" lon="2.35986">
        <ele>123.4</ele>
        <time>2023-01-25T14:40:43Z</time>
      </trkpt>
      <trkpt lat="49.97336" lon="2.35984">
        <ele>123.4</ele>
        <time>2023-01-25T14:40:44Z</time>
      </trkpt>
      <trkpt lat="49.97335" lon="2.35982">
        <ele>123.5</ele>
        <time>2023-01-25T14:40:45Z</time>
      </trkpt>
      <trkpt lat="49.97335" lon="2.35979">
        <ele>123.5</ele>
        <time>2023-01-25T14:40:46Z</time>
      </trkpt>
      <trkpt lat="49.97335" lon="2.35978">
        <ele>123.5</ele>
        <time>2023-01-25T14:40:47Z</time>
      </trkpt>
      <trkpt lat="49.97334" lon="2.35977">
        <ele>123.5</ele>
        <time>2023-01-25T14:40:48Z</time>
      </trkpt>
      <trkpt lat="49.97334" lon="2.35974">
        <ele>123.6</ele>
        <time>2023-01-25T14:40:50Z</time>
      </trkpt>
      <trkpt lat="49.97333" lon="2.35972">
        <ele>123.6</ele>
        <time>2023-01-25T14:40:51Z</time>
      </trkpt>
      <trkpt lat="49.97333" lon="2.3597">
        <ele>123.6</ele>
        <time>2023-01-25T14:40:52Z</time>
      </trkpt>
      <trkpt lat="49.97333" lon="2.35968">
        <ele>123.6</ele>
        <time>2023-01-25T14:40:53Z</time>
      </trkpt>
      <trkpt lat="49.97332" lon="2.35966">
        <ele>123.7</ele>
        <time>2023-01-25T14:40:54Z</time>
      </trkpt>
      <trkpt lat="49.97331" lon="2.35963">
        <ele>123.7</ele>
        <time>2023-01-25T14:40:56Z</time>
      </trkpt>
      <trkpt lat="49.97331" lon="2.35963">
        <ele>123.7</ele>
        <time>2023-01-25T14:40:57Z</time>
      </trkpt>
      <trkpt lat="49.9733" lon="2.35961">
        <ele>123.7</ele>
        <time>2023-01-25T14:40:58Z</time>
      </trkpt>
      <trkpt lat="49.9733" lon="2.3596">
        <ele>123.7</ele>
        <time>2023-01-25T14:40:59Z</time>
      </trkpt>
      <trkpt lat="49.9733" lon="2.35959">
        <ele>123.7</ele>
        <time>2023-01-25T14:41:00Z</time>
      </trkpt>
      <trkpt lat="49.97329" lon="2.35956">
        <ele>123.8</ele>
        <time>2023-01-25T14:41:01Z</time>
      </trkpt>
      <trkpt lat="49.97328" lon="2.35954">
        <ele>123.8</ele>
        <time>2023-01-25T14:41:02Z</time>
      </trkpt>
      <trkpt lat="49.97328" lon="2.35953">
        <ele>123.8</ele>
        <time>2023-01-25T14:41:04Z</time>
      </trkpt>
      <trkpt lat="49.97328" lon="2.35952">
        <ele>123.8</ele>
        <time>2023-01-25T14:41:05Z</time>
      </trkpt>
      <trkpt lat="49.97327" lon="2.35951">
        <ele>123.8</ele>
        <time>2023-01-25T14:41:06Z</time>
      </trkpt>
      <trkpt lat="49.97326" lon="2.35949">
        <ele>123.9</ele>
        <time>2023-01-25T14:41:07Z</time>
      </trkpt>
      <trkpt lat="49.97325" lon="2.35948">
        <ele>123.9</ele>
        <time>2023-01-25T14:41:08Z</time>
      </trkpt>
      <trkpt lat="49.97325" lon="2.35947">
        <ele>123.9</ele>
        <time>2023-01-25T14:41:09Z</time>
      </trkpt>
      <trkpt lat="49.97324" lon="2.35946">
        <ele>123.9</ele>
        <time>2023-01-25T14:41:10Z</time>
      </trkpt>
      <trkpt lat="49.97322" lon="2.35945">
        <ele>123.9</ele>
        <time>2023-01-25T14:41:11Z</time>
      </trkpt>
      <trkpt lat="49.97321" lon="2.35943">
        <ele>123.9</ele>
        <time>2023-01-25T14:41:12Z</time>
      </trkpt>
      <trkpt lat="49.97321" lon="2.35942">
        <ele>123.9</ele>
        <time>2023-01-25T14:41:13Z</time>
      </trkpt>
      <trkpt lat="49.9732" lon="2.35941">
        <ele>124</ele>
        <time>2023-01-25T14:41:14Z</time>
      </trkpt>
      <trkpt lat="49.97319" lon="2.3594">
        <ele>124</ele>
        <time>2023-01-25T14:41:15Z</time>
      </trkpt>
      <trkpt lat="49.97318" lon="2.35938">
        <ele>124</ele>
        <time>2023-01-25T14:41:17Z</time>
      </trkpt>
      <trkpt lat="49.97317" lon="2.35937">
        <ele>124</ele>
        <time>2023-01-25T14:41:18Z</time>
      </trkpt>
      <trkpt lat="49.97316" lon="2.35936">
        <ele>124</ele>
        <time>2023-01-25T14:41:19Z</time>
      </trkpt>
      <trkpt lat="49.97315" lon="2.35934">
        <ele>124</ele>
        <time>2023-01-25T14:41:20Z</time>
      </trkpt>
      <trkpt lat="49.97314" lon="2.35931">
        <ele>124.1</ele>
        <time>2023-01-25T14:41:21Z</time>
      </trkpt>
      <trkpt lat="49.97313" lon="2.35931">
        <ele>124.1</ele>
        <time>2023-01-25T14:41:22Z</time>
      </trkpt>
      <trkpt lat="49.97313" lon="2.3593">
        <ele>124.1</ele>
        <time>2023-01-25T14:41:23Z</time>
      </trkpt>
      <trkpt lat="49.97311" lon="2.35928">
        <ele>124.1</ele>
        <time>2023-01-25T14:41:24Z</time>
      </trkpt>
      <trkpt lat="49.97311" lon="2.35927">
        <ele>124.1</ele>
        <time>2023-01-25T14:41:25Z</time>
      </trkpt>
      <trkpt lat="49.9731" lon="2.35926">
        <ele>124.1</ele>
        <time>2023-01-25T14:41:26Z</time>
      </trkpt>
      <trkpt lat="49.97309" lon="2.35925">
        <ele>124.1</ele>
        <time>2023-01-25T14:41:27Z</time>
      </trkpt>
      <trkpt lat="49.97309" lon="2.35924">
        <ele>124.1</ele>
        <time>2023-01-25T14:41:28Z</time>
      </trkpt>
      <trkpt lat="49.97308" lon="2.35923">
        <ele>124.1</ele>
        <time>2023-01-25T14:41:29Z</time>
      </trkpt>
      <trkpt lat="49.97307" lon="2.35921">
        <ele>124.1</ele>
        <time>2023-01-25T14:41:31Z</time>
      </trkpt>
      <trkpt lat="49.97306" lon="2.3592">
        <ele>124.1</ele>
        <time>2023-01-25T14:41:32Z</time>
      </trkpt>
      <trkpt lat="49.97305" lon="2.35919">
        <ele>124.1</ele>
        <time>2023-01-25T14:41:33Z</time>
      </trkpt>
      <trkpt lat="49.97305" lon="2.35918">
        <ele>124.1</ele>
        <time>2023-01-25T14:41:34Z</time>
      </trkpt>
      <trkpt lat="49.97302" lon="2.35915">
        <ele>124.2</ele>
        <time>2023-01-25T14:41:35Z</time>
      </trkpt>
      <trkpt lat="49.97301" lon="2.35914">
        <ele>124.2</ele>
        <time>2023-01-25T14:41:36Z</time>
      </trkpt>
      <trkpt lat="49.97301" lon="2.35914">
        <ele>124.2</ele>
        <time>2023-01-25T14:41:37Z</time>
      </trkpt>
      <trkpt lat="49.973" lon="2.35912">
        <ele>124.2</ele>
        <time>2023-01-25T14:41:38Z</time>
      </trkpt>
      <trkpt lat="49.97299" lon="2.3591">
        <ele>124.2</ele>
        <time>2023-01-25T14:41:40Z</time>
      </trkpt>
      <trkpt lat="49.97298" lon="2.35909">
        <ele>124.2</ele>
        <time>2023-01-25T14:41:41Z</time>
      </trkpt>
      <trkpt lat="49.97297" lon="2.35908">
        <ele>124.2</ele>
        <time>2023-01-25T14:41:42Z</time>
      </trkpt>
      <trkpt lat="49.97295" lon="2.35906">
        <ele>124.2</ele>
        <time>2023-01-25T14:41:43Z</time>
      </trkpt>
      <trkpt lat="49.97294" lon="2.35905">
        <ele>124.2</ele>
        <time>2023-01-25T14:41:44Z</time>
      </trkpt>
      <trkpt lat="49.97292" lon="2.35903">
        <ele>124.2</ele>
        <time>2023-01-25T14:41:45Z</time>
      </trkpt>
      <trkpt lat="49.9729" lon="2.35901">
        <ele>124.2</ele>
        <time>2023-01-25T14:41:46Z</time>
      </trkpt>
      <trkpt lat="49.9729" lon="2.359">
        <ele>124.2</ele>
        <time>2023-01-25T14:41:47Z</time>
      </trkpt>
      <trkpt lat="49.97289" lon="2.35899">
        <ele>124.2</ele>
        <time>2023-01-25T14:41:48Z</time>
      </trkpt>
      <trkpt lat="49.97289" lon="2.35897">
        <ele>124.2</ele>
        <time>2023-01-25T14:41:49Z</time>
      </trkpt>
      <trkpt lat="49.97288" lon="2.35896">
        <ele>124.2</ele>
        <time>2023-01-25T14:41:50Z</time>
      </trkpt>
      <trkpt lat="49.97288" lon="2.35894">
        <ele>124.2</ele>
        <time>2023-01-25T14:41:51Z</time>
      </trkpt>
      <trkpt lat="49.97288" lon="2.35892">
        <ele>124.2</ele>
        <time>2023-01-25T14:41:52Z</time>
      </trkpt>
      <trkpt lat="49.97287" lon="2.3589">
        <ele>124.2</ele>
        <time>2023-01-25T14:41:54Z</time>
      </trkpt>
      <trkpt lat="49.97287" lon="2.35888">
        <ele>124.2</ele>
        <time>2023-01-25T14:41:55Z</time>
      </trkpt>
      <trkpt lat="49.97287" lon="2.35886">
        <ele>124.2</ele>
        <time>2023-01-25T14:41:56Z</time>
      </trkpt>
      <trkpt lat="49.97287" lon="2.35886">
        <ele>124.2</ele>
        <time>2023-01-25T14:41:57Z</time>
      </trkpt>
      <trkpt lat="49.97286" lon="2.35885">
        <ele>124.2</ele>
        <time>2023-01-25T14:41:58Z</time>
      </trkpt>
      <trkpt lat="49.97285" lon="2.35884">
        <ele>124.2</ele>
        <time>2023-01-25T14:41:59Z</time>
      </trkpt>
      <trkpt lat="49.97284" lon="2.35882">
        <ele>124.2</ele>
        <time>2023-01-25T14:42:01Z</time>
      </trkpt>
      <trkpt lat="49.97283" lon="2.3588">
        <ele>124.2</ele>
        <time>2023-01-25T14:42:02Z</time>
      </trkpt>
      <trkpt lat="49.97282" lon="2.35879">
        <ele>124.2</ele>
        <time>2023-01-25T14:42:03Z</time>
      </trkpt>
      <trkpt lat="49.97282" lon="2.35877">
        <ele>124.2</ele>
        <time>2023-01-25T14:42:04Z</time>
      </trkpt>
      <trkpt lat="49.9728" lon="2.35876">
        <ele>124.2</ele>
        <time>2023-01-25T14:42:05Z</time>
      </trkpt>
      <trkpt lat="49.97279" lon="2.35874">
        <ele>124.2</ele>
        <time>2023-01-25T14:42:06Z</time>
      </trkpt>
      <trkpt lat="49.97278" lon="2.35873">
        <ele>124.2</ele>
        <time>2023-01-25T14:42:07Z</time>
      </trkpt>
      <trkpt lat="49.97277" lon="2.35871">
        <ele>124.2</ele>
        <time>2023-01-25T14:42:08Z</time>
      </trkpt>
      <trkpt lat="49.97277" lon="2.3587">
        <ele>124.2</ele>
        <time>2023-01-25T14:42:09Z</time>
      </trkpt>
      <trkpt lat="49.97275" lon="2.35869">
        <ele>124.2</ele>
        <time>2023-01-25T14:42:11Z</time>
      </trkpt>
      <trkpt lat="49.97274" lon="2.35867">
        <ele>124.2</ele>
        <time>2023-01-25T14:42:12Z</time>
      </trkpt>
      <trkpt lat="49.97273" lon="2.35866">
        <ele>124.2</ele>
        <time>2023-01-25T14:42:13Z</time>
      </trkpt>
      <trkpt lat="49.97272" lon="2.35865">
        <ele>124.2</ele>
        <time>2023-01-25T14:42:14Z</time>
      </trkpt>
      <trkpt lat="49.97272" lon="2.35864">
        <ele>124.2</ele>
        <time>2023-01-25T14:42:15Z</time>
      </trkpt>
      <trkpt lat="49.9727" lon="2.35861">
        <ele>124.2</ele>
        <time>2023-01-25T14:42:17Z</time>
      </trkpt>
      <trkpt lat="49.97269" lon="2.3586">
        <ele>124.2</ele>
        <time>2023-01-25T14:42:18Z</time>
      </trkpt>
      <trkpt lat="49.97268" lon="2.35858">
        <ele>124.2</ele>
        <time>2023-01-25T14:42:19Z</time>
      </trkpt>
      <trkpt lat="49.97266" lon="2.35855">
        <ele>124.2</ele>
        <time>2023-01-25T14:42:20Z</time>
      </trkpt>
      <trkpt lat="49.97265" lon="2.35853">
        <ele>124.2</ele>
        <time>2023-01-25T14:42:21Z</time>
      </trkpt>
      <trkpt lat="49.97265" lon="2.35853">
        <ele>124.2</ele>
        <time>2023-01-25T14:42:22Z</time>
      </trkpt>
      <trkpt lat="49.97264" lon="2.35852">
        <ele>124.2</ele>
        <time>2023-01-25T14:42:24Z</time>
      </trkpt>
      <trkpt lat="49.97264" lon="2.35851">
        <ele>124.2</ele>
        <time>2023-01-25T14:42:25Z</time>
      </trkpt>
      <trkpt lat="49.97263" lon="2.35849">
        <ele>124.2</ele>
        <time>2023-01-25T14:42:26Z</time>
      </trkpt>
      <trkpt lat="49.97262" lon="2.35846">
        <ele>124.2</ele>
        <time>2023-01-25T14:42:27Z</time>
      </trkpt>
      <trkpt lat="49.97261" lon="2.35845">
        <ele>124.2</ele>
        <time>2023-01-25T14:42:28Z</time>
      </trkpt>
      <trkpt lat="49.97261" lon="2.35843">
        <ele>124.2</ele>
        <time>2023-01-25T14:42:29Z</time>
      </trkpt>
      <trkpt lat="49.9726" lon="2.35841">
        <ele>124.2</ele>
        <time>2023-01-25T14:42:30Z</time>
      </trkpt>
      <trkpt lat="49.97258" lon="2.35838">
        <ele>124.2</ele>
        <time>2023-01-25T14:42:32Z</time>
      </trkpt>
      <trkpt lat="49.97258" lon="2.35836">
        <ele>124.2</ele>
        <time>2023-01-25T14:42:33Z</time>
      </trkpt>
      <trkpt lat="49.97257" lon="2.35835">
        <ele>124.2</ele>
        <time>2023-01-25T14:42:34Z</time>
      </trkpt>
      <trkpt lat="49.97256" lon="2.35833">
        <ele>124.2</ele>
        <time>2023-01-25T14:42:35Z</time>
      </trkpt>
      <trkpt lat="49.97255" lon="2.35831">
        <ele>124.2</ele>
        <time>2023-01-25T14:42:36Z</time>
      </trkpt>
      <trkpt lat="49.97255" lon="2.35829">
        <ele>124.2</ele>
        <time>2023-01-25T14:42:37Z</time>
      </trkpt>
      <trkpt lat="49.97254" lon="2.35827">
        <ele>124.2</ele>
        <time>2023-01-25T14:42:38Z</time>
      </trkpt>
      <trkpt lat="49.97253" lon="2.35825">
        <ele>124.2</ele>
        <time>2023-01-25T14:42:40Z</time>
      </trkpt>
      <trkpt lat="49.97252" lon="2.35823">
        <ele>124.2</ele>
        <time>2023-01-25T14:42:41Z</time>
      </trkpt>
      <trkpt lat="49.97251" lon="2.35821">
        <ele>124.2</ele>
        <time>2023-01-25T14:42:42Z</time>
      </trkpt>
      <trkpt lat="49.97249" lon="2.35818">
        <ele>124.2</ele>
        <time>2023-01-25T14:42:44Z</time>
      </trkpt>
      <trkpt lat="49.97249" lon="2.35817">
        <ele>124.2</ele>
        <time>2023-01-25T14:42:45Z</time>
      </trkpt>
      <trkpt lat="49.97248" lon="2.35816">
        <ele>124.2</ele>
        <time>2023-01-25T14:42:46Z</time>
      </trkpt>
      <trkpt lat="49.97247" lon="2.35813">
        <ele>124.2</ele>
        <time>2023-01-25T14:42:47Z</time>
      </trkpt>
      <trkpt lat="49.97246" lon="2.35812">
        <ele>124.2</ele>
        <time>2023-01-25T14:42:48Z</time>
      </trkpt>
      <trkpt lat="49.97246" lon="2.35811">
        <ele>124.2</ele>
        <time>2023-01-25T14:42:49Z</time>
      </trkpt>
      <trkpt lat="49.97245" lon="2.3581">
        <ele>124.2</ele>
        <time>2023-01-25T14:42:50Z</time>
      </trkpt>
      <trkpt lat="49.97243" lon="2.35808">
        <ele>124.1</ele>
        <time>2023-01-25T14:42:52Z</time>
      </trkpt>
      <trkpt lat="49.97242" lon="2.35807">
        <ele>124.1</ele>
        <time>2023-01-25T14:42:53Z</time>
      </trkpt>
      <trkpt lat="49.97241" lon="2.35806">
        <ele>124.1</ele>
        <time>2023-01-25T14:42:54Z</time>
      </trkpt>
      <trkpt lat="49.9724" lon="2.35804">
        <ele>124.1</ele>
        <time>2023-01-25T14:42:55Z</time>
      </trkpt>
      <trkpt lat="49.97239" lon="2.35804">
        <ele>124.1</ele>
        <time>2023-01-25T14:42:56Z</time>
      </trkpt>
      <trkpt lat="49.97238" lon="2.35802">
        <ele>124.1</ele>
        <time>2023-01-25T14:42:57Z</time>
      </trkpt>
      <trkpt lat="49.97237" lon="2.35801">
        <ele>124.1</ele>
        <time>2023-01-25T14:42:58Z</time>
      </trkpt>
      <trkpt lat="49.97236" lon="2.35799">
        <ele>124.1</ele>
        <time>2023-01-25T14:42:59Z</time>
      </trkpt>
      <trkpt lat="49.97236" lon="2.35798">
        <ele>124.1</ele>
        <time>2023-01-25T14:43:01Z</time>
      </trkpt>
      <trkpt lat="49.97235" lon="2.35796">
        <ele>124.1</ele>
        <time>2023-01-25T14:43:02Z</time>
      </trkpt>
      <trkpt lat="49.97235" lon="2.35796">
        <ele>124.1</ele>
        <time>2023-01-25T14:43:03Z</time>
      </trkpt>
      <trkpt lat="49.97234" lon="2.35794">
        <ele>124.1</ele>
        <time>2023-01-25T14:43:04Z</time>
      </trkpt>
      <trkpt lat="49.97233" lon="2.35793">
        <ele>124.1</ele>
        <time>2023-01-25T14:43:05Z</time>
      </trkpt>
      <trkpt lat="49.97232" lon="2.35793">
        <ele>124.1</ele>
        <time>2023-01-25T14:43:06Z</time>
      </trkpt>
      <trkpt lat="49.97231" lon="2.35791">
        <ele>124</ele>
        <time>2023-01-25T14:43:07Z</time>
      </trkpt>
      <trkpt lat="49.97231" lon="2.3579">
        <ele>124</ele>
        <time>2023-01-25T14:43:08Z</time>
      </trkpt>
      <trkpt lat="49.9723" lon="2.35789">
        <ele>124</ele>
        <time>2023-01-25T14:43:09Z</time>
      </trkpt>
      <trkpt lat="49.97229" lon="2.35786">
        <ele>124</ele>
        <time>2023-01-25T14:43:11Z</time>
      </trkpt>
      <trkpt lat="49.97227" lon="2.35786">
        <ele>124</ele>
        <time>2023-01-25T14:43:12Z</time>
      </trkpt>
      <trkpt lat="49.97226" lon="2.35785">
        <ele>124</ele>
        <time>2023-01-25T14:43:13Z</time>
      </trkpt>
      <trkpt lat="49.97225" lon="2.35782">
        <ele>124</ele>
        <time>2023-01-25T14:43:14Z</time>
      </trkpt>
      <trkpt lat="49.97225" lon="2.35781">
        <ele>124</ele>
        <time>2023-01-25T14:43:15Z</time>
      </trkpt>
      <trkpt lat="49.97224" lon="2.3578">
        <ele>124</ele>
        <time>2023-01-25T14:43:16Z</time>
      </trkpt>
      <trkpt lat="49.97223" lon="2.35779">
        <ele>124</ele>
        <time>2023-01-25T14:43:17Z</time>
      </trkpt>
      <trkpt lat="49.97223" lon="2.35778">
        <ele>124</ele>
        <time>2023-01-25T14:43:18Z</time>
      </trkpt>
      <trkpt lat="49.97222" lon="2.35776">
        <ele>124</ele>
        <time>2023-01-25T14:43:20Z</time>
      </trkpt>
      <trkpt lat="49.97221" lon="2.35775">
        <ele>124</ele>
        <time>2023-01-25T14:43:21Z</time>
      </trkpt>
      <trkpt lat="49.9722" lon="2.35775">
        <ele>123.9</ele>
        <time>2023-01-25T14:43:22Z</time>
      </trkpt>
      <trkpt lat="49.97219" lon="2.35774">
        <ele>123.9</ele>
        <time>2023-01-25T14:43:23Z</time>
      </trkpt>
      <trkpt lat="49.97218" lon="2.35771">
        <ele>123.9</ele>
        <time>2023-01-25T14:43:24Z</time>
      </trkpt>
      <trkpt lat="49.97217" lon="2.3577">
        <ele>123.9</ele>
        <time>2023-01-25T14:43:25Z</time>
      </trkpt>
      <trkpt lat="49.97217" lon="2.35769">
        <ele>123.9</ele>
        <time>2023-01-25T14:43:26Z</time>
      </trkpt>
      <trkpt lat="49.97215" lon="2.35767">
        <ele>123.9</ele>
        <time>2023-01-25T14:43:28Z</time>
      </trkpt>
      <trkpt lat="49.97215" lon="2.35766">
        <ele>123.9</ele>
        <time>2023-01-25T14:43:29Z</time>
      </trkpt>
      <trkpt lat="49.97214" lon="2.35765">
        <ele>123.9</ele>
        <time>2023-01-25T14:43:30Z</time>
      </trkpt>
      <trkpt lat="49.97213" lon="2.35764">
        <ele>123.9</ele>
        <time>2023-01-25T14:43:31Z</time>
      </trkpt>
      <trkpt lat="49.97213" lon="2.35763">
        <ele>123.9</ele>
        <time>2023-01-25T14:43:32Z</time>
      </trkpt>
      <trkpt lat="49.97212" lon="2.35761">
        <ele>123.9</ele>
        <time>2023-01-25T14:43:33Z</time>
      </trkpt>
      <trkpt lat="49.97212" lon="2.3576">
        <ele>123.9</ele>
        <time>2023-01-25T14:43:34Z</time>
      </trkpt>
      <trkpt lat="49.97211" lon="2.35759">
        <ele>123.9</ele>
        <time>2023-01-25T14:43:35Z</time>
      </trkpt>
      <trkpt lat="49.9721" lon="2.35758">
        <ele>123.9</ele>
        <time>2023-01-25T14:43:36Z</time>
      </trkpt>
      <trkpt lat="49.9721" lon="2.35756">
        <ele>123.9</ele>
        <time>2023-01-25T14:43:37Z</time>
      </trkpt>
      <trkpt lat="49.97209" lon="2.35755">
        <ele>123.9</ele>
        <time>2023-01-25T14:43:38Z</time>
      </trkpt>
      <trkpt lat="49.97208" lon="2.35753">
        <ele>123.9</ele>
        <time>2023-01-25T14:43:40Z</time>
      </trkpt>
      <trkpt lat="49.97207" lon="2.35752">
        <ele>123.9</ele>
        <time>2023-01-25T14:43:41Z</time>
      </trkpt>
      <trkpt lat="49.97205" lon="2.3575">
        <ele>123.9</ele>
        <time>2023-01-25T14:43:42Z</time>
      </trkpt>
      <trkpt lat="49.97204" lon="2.35748">
        <ele>123.9</ele>
        <time>2023-01-25T14:43:43Z</time>
      </trkpt>
      <trkpt lat="49.97203" lon="2.35747">
        <ele>123.9</ele>
        <time>2023-01-25T14:43:44Z</time>
      </trkpt>
      <trkpt lat="49.97202" lon="2.35746">
        <ele>123.9</ele>
        <time>2023-01-25T14:43:45Z</time>
      </trkpt>
      <trkpt lat="49.97199" lon="2.35743">
        <ele>123.9</ele>
        <time>2023-01-25T14:43:46Z</time>
      </trkpt>
      <trkpt lat="49.97199" lon="2.35743">
        <ele>123.8</ele>
        <time>2023-01-25T14:43:48Z</time>
      </trkpt>
      <trkpt lat="49.97198" lon="2.35741">
        <ele>123.8</ele>
        <time>2023-01-25T14:43:49Z</time>
      </trkpt>
      <trkpt lat="49.97197" lon="2.3574">
        <ele>123.8</ele>
        <time>2023-01-25T14:43:50Z</time>
      </trkpt>
      <trkpt lat="49.97196" lon="2.35738">
        <ele>123.8</ele>
        <time>2023-01-25T14:43:51Z</time>
      </trkpt>
      <trkpt lat="49.97194" lon="2.35737">
        <ele>123.8</ele>
        <time>2023-01-25T14:43:52Z</time>
      </trkpt>
      <trkpt lat="49.97193" lon="2.35735">
        <ele>123.8</ele>
        <time>2023-01-25T14:43:53Z</time>
      </trkpt>
      <trkpt lat="49.97192" lon="2.35734">
        <ele>123.8</ele>
        <time>2023-01-25T14:43:55Z</time>
      </trkpt>
      <trkpt lat="49.97192" lon="2.35732">
        <ele>123.7</ele>
        <time>2023-01-25T14:43:56Z</time>
      </trkpt>
      <trkpt lat="49.97189" lon="2.35732">
        <ele>123.7</ele>
        <time>2023-01-25T14:43:57Z</time>
      </trkpt>
      <trkpt lat="49.97189" lon="2.35731">
        <ele>123.7</ele>
        <time>2023-01-25T14:43:58Z</time>
      </trkpt>
      <trkpt lat="49.97189" lon="2.3573">
        <ele>123.7</ele>
        <time>2023-01-25T14:43:59Z</time>
      </trkpt>
      <trkpt lat="49.97188" lon="2.35727">
        <ele>123.7</ele>
        <time>2023-01-25T14:44:00Z</time>
      </trkpt>
      <trkpt lat="49.97185" lon="2.35727">
        <ele>123.7</ele>
        <time>2023-01-25T14:44:02Z</time>
      </trkpt>
      <trkpt lat="49.97185" lon="2.35726">
        <ele>123.7</ele>
        <time>2023-01-25T14:44:03Z</time>
      </trkpt>
      <trkpt lat="49.97184" lon="2.35725">
        <ele>123.7</ele>
        <time>2023-01-25T14:44:04Z</time>
      </trkpt>
      <trkpt lat="49.97184" lon="2.35723">
        <ele>123.6</ele>
        <time>2023-01-25T14:44:05Z</time>
      </trkpt>
      <trkpt lat="49.97183" lon="2.35721">
        <ele>123.6</ele>
        <time>2023-01-25T14:44:06Z</time>
      </trkpt>
      <trkpt lat="49.97182" lon="2.35722">
        <ele>123.6</ele>
        <time>2023-01-25T14:44:07Z</time>
      </trkpt>
      <trkpt lat="49.97182" lon="2.35721">
        <ele>123.6</ele>
        <time>2023-01-25T14:44:08Z</time>
      </trkpt>
      <trkpt lat="49.97181" lon="2.35718">
        <ele>123.6</ele>
        <time>2023-01-25T14:44:10Z</time>
      </trkpt>
      <trkpt lat="49.97181" lon="2.35716">
        <ele>123.6</ele>
        <time>2023-01-25T14:44:11Z</time>
      </trkpt>
      <trkpt lat="49.97181" lon="2.35714">
        <ele>123.6</ele>
        <time>2023-01-25T14:44:13Z</time>
      </trkpt>
      <trkpt lat="49.97181" lon="2.35713">
        <ele>123.6</ele>
        <time>2023-01-25T14:44:14Z</time>
      </trkpt>
      <trkpt lat="49.9718" lon="2.35711">
        <ele>123.5</ele>
        <time>2023-01-25T14:44:15Z</time>
      </trkpt>
      <trkpt lat="49.9718" lon="2.35709">
        <ele>123.5</ele>
        <time>2023-01-25T14:44:16Z</time>
      </trkpt>
      <trkpt lat="49.9718" lon="2.35704">
        <ele>123.5</ele>
        <time>2023-01-25T14:44:17Z</time>
      </trkpt>
      <trkpt lat="49.9718" lon="2.35703">
        <ele>123.5</ele>
        <time>2023-01-25T14:44:18Z</time>
      </trkpt>
      <trkpt lat="49.9718" lon="2.35703">
        <ele>123.5</ele>
        <time>2023-01-25T14:44:19Z</time>
      </trkpt>
      <trkpt lat="49.97179" lon="2.357">
        <ele>123.5</ele>
        <time>2023-01-25T14:44:20Z</time>
      </trkpt>
      <trkpt lat="49.97179" lon="2.35698">
        <ele>123.5</ele>
        <time>2023-01-25T14:44:22Z</time>
      </trkpt>
      <trkpt lat="49.97179" lon="2.35697">
        <ele>123.5</ele>
        <time>2023-01-25T14:44:23Z</time>
      </trkpt>
      <trkpt lat="49.97178" lon="2.35696">
        <ele>123.5</ele>
        <time>2023-01-25T14:44:24Z</time>
      </trkpt>
      <trkpt lat="49.97177" lon="2.35697">
        <ele>123.5</ele>
        <time>2023-01-25T14:44:25Z</time>
      </trkpt>
      <trkpt lat="49.97176" lon="2.35696">
        <ele>123.5</ele>
        <time>2023-01-25T14:44:26Z</time>
      </trkpt>
      <trkpt lat="49.97175" lon="2.35696">
        <ele>123.4</ele>
        <time>2023-01-25T14:44:27Z</time>
      </trkpt>
      <trkpt lat="49.97174" lon="2.35696">
        <ele>123.4</ele>
        <time>2023-01-25T14:44:29Z</time>
      </trkpt>
      <trkpt lat="49.97173" lon="2.35696">
        <ele>123.4</ele>
        <time>2023-01-25T14:44:30Z</time>
      </trkpt>
      <trkpt lat="49.97172" lon="2.35697">
        <ele>123.4</ele>
        <time>2023-01-25T14:44:31Z</time>
      </trkpt>
      <trkpt lat="49.97172" lon="2.35699">
        <ele>123.4</ele>
        <time>2023-01-25T14:44:33Z</time>
      </trkpt>
      <trkpt lat="49.97172" lon="2.357">
        <ele>123.4</ele>
        <time>2023-01-25T14:44:34Z</time>
      </trkpt>
      <trkpt lat="49.97172" lon="2.357">
        <ele>123.4</ele>
        <time>2023-01-25T14:44:36Z</time>
      </trkpt>
      <trkpt lat="49.97172" lon="2.357">
        <ele>123.4</ele>
        <time>2023-01-25T14:44:37Z</time>
      </trkpt>
      <trkpt lat="49.97172" lon="2.357">
        <ele>123.4</ele>
        <time>2023-01-25T14:44:38Z</time>
      </trkpt>
      <trkpt lat="49.97172" lon="2.35701">
        <ele>123.4</ele>
        <time>2023-01-25T14:44:40Z</time>
      </trkpt>
      <trkpt lat="49.97172" lon="2.35701">
        <ele>123.4</ele>
        <time>2023-01-25T14:44:41Z</time>
      </trkpt>
      <trkpt lat="49.97172" lon="2.35701">
        <ele>123.4</ele>
        <time>2023-01-25T14:44:42Z</time>
      </trkpt>
      <trkpt lat="49.97172" lon="2.35701">
        <ele>123.4</ele>
        <time>2023-01-25T14:44:44Z</time>
      </trkpt>
      <trkpt lat="49.97172" lon="2.35701">
        <ele>123.4</ele>
        <time>2023-01-25T14:44:45Z</time>
      </trkpt>
      <trkpt lat="49.97173" lon="2.35702">
        <ele>123.4</ele>
        <time>2023-01-25T14:44:46Z</time>
      </trkpt>
      <trkpt lat="49.97174" lon="2.35702">
        <ele>123.4</ele>
        <time>2023-01-25T14:44:47Z</time>
      </trkpt>
      <trkpt lat="49.97174" lon="2.35703">
        <ele>123.4</ele>
        <time>2023-01-25T14:44:48Z</time>
      </trkpt>
      <trkpt lat="49.97174" lon="2.35703">
        <ele>123.4</ele>
        <time>2023-01-25T14:44:49Z</time>
      </trkpt>
      <trkpt lat="49.97175" lon="2.35704">
        <ele>123.4</ele>
        <time>2023-01-25T14:44:50Z</time>
      </trkpt>
      <trkpt lat="49.97175" lon="2.35704">
        <ele>123.4</ele>
        <time>2023-01-25T14:44:51Z</time>
      </trkpt>
      <trkpt lat="49.97175" lon="2.35704">
        <ele>123.4</ele>
        <time>2023-01-25T14:44:52Z</time>
      </trkpt>
      <trkpt lat="49.97175" lon="2.35704">
        <ele>123.4</ele>
        <time>2023-01-25T14:44:53Z</time>
      </trkpt>
      <trkpt lat="49.97175" lon="2.35704">
        <ele>123.4</ele>
        <time>2023-01-25T14:44:54Z</time>
      </trkpt>
      <trkpt lat="49.97175" lon="2.35704">
        <ele>123.4</ele>
        <time>2023-01-25T14:44:55Z</time>
      </trkpt>
      <trkpt lat="49.97175" lon="2.35705">
        <ele>123.4</ele>
        <time>2023-01-25T14:44:56Z</time>
      </trkpt>
      <trkpt lat="49.97176" lon="2.35704">
        <ele>123.4</ele>
        <time>2023-01-25T14:44:57Z</time>
      </trkpt>
      <trkpt lat="49.97176" lon="2.35704">
        <ele>123.4</ele>
        <time>2023-01-25T14:44:58Z</time>
      </trkpt>
      <trkpt lat="49.97176" lon="2.35704">
        <ele>123.4</ele>
        <time>2023-01-25T14:44:59Z</time>
      </trkpt>
      <trkpt lat="49.97176" lon="2.35704">
        <ele>123.4</ele>
        <time>2023-01-25T14:45:00Z</time>
      </trkpt>
      <trkpt lat="49.97176" lon="2.35704">
        <ele>123.4</ele>
        <time>2023-01-25T14:45:01Z</time>
      </trkpt>
      <trkpt lat="49.97176" lon="2.35704">
        <ele>123.4</ele>
        <time>2023-01-25T14:45:02Z</time>
      </trkpt>
      <trkpt lat="49.97176" lon="2.35704">
        <ele>123.4</ele>
        <time>2023-01-25T14:45:03Z</time>
      </trkpt>
      <trkpt lat="49.97176" lon="2.35704">
        <ele>123.4</ele>
        <time>2023-01-25T14:45:04Z</time>
      </trkpt>
      <trkpt lat="49.97176" lon="2.35704">
        <ele>123.4</ele>
        <time>2023-01-25T14:45:05Z</time>
      </trkpt>
      <trkpt lat="49.97176" lon="2.35704">
        <ele>123.4</ele>
        <time>2023-01-25T14:45:06Z</time>
      </trkpt>
      <trkpt lat="49.97176" lon="2.35704">
        <ele>123.4</ele>
        <time>2023-01-25T14:45:07Z</time>
      </trkpt>
      <trkpt lat="49.97176" lon="2.35704">
        <ele>123.4</ele>
        <time>2023-01-25T14:45:08Z</time>
      </trkpt>
      <trkpt lat="49.97176" lon="2.35704">
        <ele>123.4</ele>
        <time>2023-01-25T14:45:09Z</time>
      </trkpt>
      <trkpt lat="49.97176" lon="2.35705">
        <ele>123.4</ele>
        <time>2023-01-25T14:45:10Z</time>
      </trkpt>
      <trkpt lat="49.97176" lon="2.35705">
        <ele>123.4</ele>
        <time>2023-01-25T14:45:11Z</time>
      </trkpt>
      <trkpt lat="49.97176" lon="2.35703">
        <ele>123.4</ele>
        <time>2023-01-25T14:45:12Z</time>
      </trkpt>
      <trkpt lat="49.97176" lon="2.35703">
        <ele>123.4</ele>
        <time>2023-01-25T14:45:13Z</time>
      </trkpt>
      <trkpt lat="49.97177" lon="2.35702">
        <ele>123.4</ele>
        <time>2023-01-25T14:45:14Z</time>
      </trkpt>
      <trkpt lat="49.97177" lon="2.35701">
        <ele>123.4</ele>
        <time>2023-01-25T14:45:15Z</time>
      </trkpt>
      <trkpt lat="49.97177" lon="2.357">
        <ele>123.4</ele>
        <time>2023-01-25T14:45:16Z</time>
      </trkpt>
      <trkpt lat="49.97177" lon="2.35699">
        <ele>123.4</ele>
        <time>2023-01-25T14:45:17Z</time>
      </trkpt>
      <trkpt lat="49.97177" lon="2.35699">
        <ele>123.4</ele>
        <time>2023-01-25T14:45:18Z</time>
      </trkpt>
      <trkpt lat="49.97177" lon="2.35698">
        <ele>123.4</ele>
        <time>2023-01-25T14:45:19Z</time>
      </trkpt>
      <trkpt lat="49.97177" lon="2.35698">
        <ele>123.4</ele>
        <time>2023-01-25T14:45:20Z</time>
      </trkpt>
      <trkpt lat="49.97177" lon="2.35698">
        <ele>123.4</ele>
        <time>2023-01-25T14:45:21Z</time>
      </trkpt>
      <trkpt lat="49.97177" lon="2.35698">
        <ele>123.4</ele>
        <time>2023-01-25T14:45:22Z</time>
      </trkpt>
      <trkpt lat="49.97177" lon="2.35698">
        <ele>123.4</ele>
        <time>2023-01-25T14:45:23Z</time>
      </trkpt>
      <trkpt lat="49.97177" lon="2.35698">
        <ele>123.4</ele>
        <time>2023-01-25T14:45:24Z</time>
      </trkpt>
      <trkpt lat="49.97177" lon="2.35698">
        <ele>123.4</ele>
        <time>2023-01-25T14:45:25Z</time>
      </trkpt>
      <trkpt lat="49.97177" lon="2.35698">
        <ele>123.4</ele>
        <time>2023-01-25T14:45:26Z</time>
      </trkpt>
      <trkpt lat="49.97177" lon="2.35698">
        <ele>123.4</ele>
        <time>2023-01-25T14:45:27Z</time>
      </trkpt>
      <trkpt lat="49.97177" lon="2.35698">
        <ele>123.4</ele>
        <time>2023-01-25T14:45:28Z</time>
      </trkpt>
      <trkpt lat="49.97177" lon="2.35698">
        <ele>123.4</ele>
        <time>2023-01-25T14:45:29Z</time>
      </trkpt>
      <trkpt lat="49.97177" lon="2.35698">
        <ele>123.4</ele>
        <time>2023-01-25T14:45:30Z</time>
      </trkpt>
      <trkpt lat="49.97177" lon="2.35698">
        <ele>123.4</ele>
        <time>2023-01-25T14:45:31Z</time>
      </trkpt>
      <trkpt lat="49.97177" lon="2.35698">
        <ele>123.4</ele>
        <time>2023-01-25T14:45:32Z</time>
      </trkpt>
      <trkpt lat="49.97177" lon="2.35698">
        <ele>123.4</ele>
        <time>2023-01-25T14:45:33Z</time>
      </trkpt>
      <trkpt lat="49.97177" lon="2.35698">
        <ele>123.4</ele>
        <time>2023-01-25T14:45:34Z</time>
      </trkpt>
      <trkpt lat="49.97177" lon="2.35698">
        <ele>123.4</ele>
        <time>2023-01-25T14:45:35Z</time>
      </trkpt>
      <trkpt lat="49.97177" lon="2.35698">
        <ele>123.4</ele>
        <time>2023-01-25T14:45:36Z</time>
      </trkpt>
      <trkpt lat="49.97177" lon="2.35698">
        <ele>123.4</ele>
        <time>2023-01-25T14:45:37Z</time>
      </trkpt>
      <trkpt lat="49.97177" lon="2.35698">
        <ele>123.4</ele>
        <time>2023-01-25T14:45:38Z</time>
      </trkpt>
      <trkpt lat="49.97177" lon="2.35698">
        <ele>123.4</ele>
        <time>2023-01-25T14:45:39Z</time>
      </trkpt>
      <trkpt lat="49.97177" lon="2.35698">
        <ele>123.4</ele>
        <time>2023-01-25T14:45:40Z</time>
      </trkpt>
      <trkpt lat="49.97177" lon="2.35698">
        <ele>123.4</ele>
        <time>2023-01-25T14:45:41Z</time>
      </trkpt>
      <trkpt lat="49.97177" lon="2.35698">
        <ele>123.4</ele>
        <time>2023-01-25T14:45:42Z</time>
      </trkpt>
      <trkpt lat="49.97177" lon="2.35698">
        <ele>123.4</ele>
        <time>2023-01-25T14:45:43Z</time>
      </trkpt>
      <trkpt lat="49.97177" lon="2.35698">
        <ele>123.4</ele>
        <time>2023-01-25T14:45:44Z</time>
      </trkpt>
      <trkpt lat="49.97177" lon="2.35698">
        <ele>123.4</ele>
        <time>2023-01-25T14:45:45Z</time>
      </trkpt>
      <trkpt lat="49.97177" lon="2.35698">
        <ele>123.4</ele>
        <time>2023-01-25T14:45:46Z</time>
      </trkpt>
      <trkpt lat="49.97177" lon="2.35698">
        <ele>123.4</ele>
        <time>2023-01-25T14:45:47Z</time>
      </trkpt>
      <trkpt lat="49.97177" lon="2.35698">
        <ele>123.4</ele>
        <time>2023-01-25T14:45:48Z</time>
      </trkpt>
      <trkpt lat="49.97177" lon="2.35698">
        <ele>123.4</ele>
        <time>2023-01-25T14:45:49Z</time>
      </trkpt>
      <trkpt lat="49.97177" lon="2.35698">
        <ele>123.4</ele>
        <time>2023-01-25T14:45:50Z</time>
      </trkpt>
      <trkpt lat="49.97177" lon="2.35698">
        <ele>123.4</ele>
        <time>2023-01-25T14:45:51Z</time>
      </trkpt>
      <trkpt lat="49.97177" lon="2.35698">
        <ele>123.4</ele>
        <time>2023-01-25T14:45:52Z</time>
      </trkpt>
      <trkpt lat="49.97177" lon="2.35698">
        <ele>123.4</ele>
        <time>2023-01-25T14:45:53Z</time>
      </trkpt>
      <trkpt lat="49.97177" lon="2.35698">
        <ele>123.4</ele>
        <time>2023-01-25T14:45:54Z</time>
      </trkpt>
      <trkpt lat="49.97177" lon="2.35698">
        <ele>123.4</ele>
        <time>2023-01-25T14:45:55Z</time>
      </trkpt>
      <trkpt lat="49.97177" lon="2.35698">
        <ele>123.4</ele>
        <time>2023-01-25T14:45:56Z</time>
      </trkpt>
      <trkpt lat="49.97177" lon="2.35698">
        <ele>123.4</ele>
        <time>2023-01-25T14:45:57Z</time>
      </trkpt>
      <trkpt lat="49.97177" lon="2.35698">
        <ele>123.4</ele>
        <time>2023-01-25T14:45:58Z</time>
      </trkpt>
      <trkpt lat="49.97177" lon="2.35698">
        <ele>123.4</ele>
        <time>2023-01-25T14:45:59Z</time>
      </trkpt>
      <trkpt lat="49.97177" lon="2.35698">
        <ele>123.4</ele>
        <time>2023-01-25T14:46:00Z</time>
      </trkpt>
      <trkpt lat="49.97177" lon="2.35698">
        <ele>123.4</ele>
        <time>2023-01-25T14:46:01Z</time>
      </trkpt>
      <trkpt lat="49.97177" lon="2.35698">
        <ele>123.4</ele>
        <time>2023-01-25T14:46:02Z</time>
      </trkpt>
      <trkpt lat="49.97177" lon="2.35698">
        <ele>123.4</ele>
        <time>2023-01-25T14:46:03Z</time>
      </trkpt>
      <trkpt lat="49.97177" lon="2.35698">
        <ele>123.4</ele>
        <time>2023-01-25T14:46:04Z</time>
      </trkpt>
      <trkpt lat="49.97177" lon="2.35698">
        <ele>123.4</ele>
        <time>2023-01-25T14:46:05Z</time>
      </trkpt>
      <trkpt lat="49.97177" lon="2.35698">
        <ele>123.4</ele>
        <time>2023-01-25T14:46:06Z</time>
      </trkpt>
      <trkpt lat="49.97177" lon="2.35698">
        <ele>123.4</ele>
        <time>2023-01-25T14:46:07Z</time>
      </trkpt>
      <trkpt lat="49.97177" lon="2.35698">
        <ele>123.4</ele>
        <time>2023-01-25T14:46:08Z</time>
      </trkpt>
      <trkpt lat="49.97177" lon="2.35698">
        <ele>123.4</ele>
        <time>2023-01-25T14:46:09Z</time>
      </trkpt>
      <trkpt lat="49.97177" lon="2.35698">
        <ele>123.4</ele>
        <time>2023-01-25T14:46:10Z</time>
      </trkpt>
      <trkpt lat="49.97177" lon="2.35698">
        <ele>123.4</ele>
        <time>2023-01-25T14:46:11Z</time>
      </trkpt>
      <trkpt lat="49.97177" lon="2.35698">
        <ele>123.4</ele>
        <time>2023-01-25T14:46:12Z</time>
      </trkpt>
      <trkpt lat="49.97177" lon="2.35698">
        <ele>123.4</ele>
        <time>2023-01-25T14:46:13Z</time>
      </trkpt>
      <trkpt lat="49.97177" lon="2.35698">
        <ele>123.4</ele>
        <time>2023-01-25T14:46:14Z</time>
      </trkpt>
      <trkpt lat="49.97177" lon="2.35698">
        <ele>123.4</ele>
        <time>2023-01-25T14:46:15Z</time>
      </trkpt>
      <trkpt lat="49.97177" lon="2.35698">
        <ele>123.4</ele>
        <time>2023-01-25T14:46:16Z</time>
      </trkpt>
      <trkpt lat="49.97177" lon="2.35698">
        <ele>123.4</ele>
        <time>2023-01-25T14:46:17Z</time>
      </trkpt>
      <trkpt lat="49.97177" lon="2.35698">
        <ele>123.4</ele>
        <time>2023-01-25T14:46:18Z</time>
      </trkpt>
      <trkpt lat="49.97177" lon="2.35698">
        <ele>123.4</ele>
        <time>2023-01-25T14:46:19Z</time>
      </trkpt>
      <trkpt lat="49.97177" lon="2.35698">
        <ele>123.4</ele>
        <time>2023-01-25T14:46:20Z</time>
      </trkpt>
      <trkpt lat="49.97177" lon="2.35698">
        <ele>123.4</ele>
        <time>2023-01-25T14:46:21Z</time>
      </trkpt>
      <trkpt lat="49.97177" lon="2.35698">
        <ele>123.4</ele>
        <time>2023-01-25T14:46:22Z</time>
      </trkpt>
      <trkpt lat="49.97177" lon="2.35698">
        <ele>123.4</ele>
        <time>2023-01-25T14:46:23Z</time>
      </trkpt>
      <trkpt lat="49.97177" lon="2.35698">
        <ele>123.4</ele>
        <time>2023-01-25T14:46:24Z</time>
      </trkpt>
      <trkpt lat="49.97177" lon="2.35698">
        <ele>123.4</ele>
        <time>2023-01-25T14:46:25Z</time>
      </trkpt>
      <trkpt lat="49.97177" lon="2.35698">
        <ele>123.4</ele>
        <time>2023-01-25T14:46:26Z</time>
      </trkpt>
      <trkpt lat="49.97177" lon="2.35698">
        <ele>123.4</ele>
        <time>2023-01-25T14:46:27Z</time>
      </trkpt>
      <trkpt lat="49.97177" lon="2.35698">
        <ele>123.4</ele>
        <time>2023-01-25T14:46:28Z</time>
      </trkpt>
      <trkpt lat="49.97177" lon="2.35698">
        <ele>123.4</ele>
        <time>2023-01-25T14:46:29Z</time>
      </trkpt>
      <trkpt lat="49.97177" lon="2.35698">
        <ele>123.4</ele>
        <time>2023-01-25T14:46:30Z</time>
      </trkpt>
      <trkpt lat="49.97177" lon="2.35698">
        <ele>123.4</ele>
        <time>2023-01-25T14:46:31Z</time>
      </trkpt>
      <trkpt lat="49.97177" lon="2.35698">
        <ele>123.4</ele>
        <time>2023-01-25T14:46:32Z</time>
      </trkpt>
      <trkpt lat="49.97177" lon="2.35698">
        <ele>123.4</ele>
        <time>2023-01-25T14:46:33Z</time>
      </trkpt>
      <trkpt lat="49.97177" lon="2.35698">
        <ele>123.4</ele>
        <time>2023-01-25T14:46:34Z</time>
      </trkpt>
      <trkpt lat="49.97177" lon="2.35698">
        <ele>123.4</ele>
        <time>2023-01-25T14:46:35Z</time>
      </trkpt>
      <trkpt lat="49.97177" lon="2.35698">
        <ele>123.4</ele>
        <time>2023-01-25T14:46:36Z</time>
      </trkpt>
      <trkpt lat="49.97177" lon="2.35698">
        <ele>123.4</ele>
        <time>2023-01-25T14:46:37Z</time>
      </trkpt>
      <trkpt lat="49.97177" lon="2.35698">
        <ele>123.4</ele>
        <time>2023-01-25T14:46:38Z</time>
      </trkpt>
      <trkpt lat="49.97177" lon="2.35698">
        <ele>123.4</ele>
        <time>2023-01-25T14:46:39Z</time>
      </trkpt>
      <trkpt lat="49.97177" lon="2.35698">
        <ele>123.4</ele>
        <time>2023-01-25T14:46:40Z</time>
      </trkpt>
      <trkpt lat="49.97177" lon="2.35698">
        <ele>123.4</ele>
        <time>2023-01-25T14:46:41Z</time>
      </trkpt>
      <trkpt lat="49.97177" lon="2.35698">
        <ele>123.4</ele>
        <time>2023-01-25T14:46:42Z</time>
      </trkpt>
      <trkpt lat="49.97177" lon="2.35698">
        <ele>123.4</ele>
        <time>2023-01-25T14:46:43Z</time>
      </trkpt>
      <trkpt lat="49.97177" lon="2.35698">
        <ele>123.4</ele>
        <time>2023-01-25T14:46:44Z</time>
      </trkpt>
      <trkpt lat="49.97177" lon="2.35698">
        <ele>123.4</ele>
        <time>2023-01-25T14:46:45Z</time>
      </trkpt>
      <trkpt lat="49.97177" lon="2.35698">
        <ele>123.4</ele>
        <time>2023-01-25T14:46:46Z</time>
      </trkpt>
      <trkpt lat="49.97177" lon="2.35698">
        <ele>123.4</ele>
        <time>2023-01-25T14:46:47Z</time>
      </trkpt>
      <trkpt lat="49.97177" lon="2.35698">
        <ele>123.4</ele>
        <time>2023-01-25T14:46:48Z</time>
      </trkpt>
      <trkpt lat="49.97177" lon="2.35698">
        <ele>123.4</ele>
        <time>2023-01-25T14:46:49Z</time>
      </trkpt>
      <trkpt lat="49.97177" lon="2.35698">
        <ele>123.4</ele>
        <time>2023-01-25T14:46:50Z</time>
      </trkpt>
      <trkpt lat="49.97177" lon="2.35698">
        <ele>123.4</ele>
        <time>2023-01-25T14:46:51Z</time>
      </trkpt>
      <trkpt lat="49.97177" lon="2.35698">
        <ele>123.4</ele>
        <time>2023-01-25T14:46:52Z</time>
      </trkpt>
      <trkpt lat="49.97177" lon="2.35698">
        <ele>123.4</ele>
        <time>2023-01-25T14:46:53Z</time>
      </trkpt>
      <trkpt lat="49.97177" lon="2.35698">
        <ele>123.4</ele>
        <time>2023-01-25T14:46:54Z</time>
      </trkpt>
      <trkpt lat="49.97177" lon="2.35698">
        <ele>123.4</ele>
        <time>2023-01-25T14:46:55Z</time>
      </trkpt>
      <trkpt lat="49.97177" lon="2.35698">
        <ele>123.4</ele>
        <time>2023-01-25T14:46:56Z</time>
      </trkpt>
      <trkpt lat="49.97177" lon="2.35698">
        <ele>123.4</ele>
        <time>2023-01-25T14:46:57Z</time>
      </trkpt>
      <trkpt lat="49.97177" lon="2.35698">
        <ele>123.4</ele>
        <time>2023-01-25T14:46:58Z</time>
      </trkpt>
      <trkpt lat="49.97177" lon="2.35698">
        <ele>123.4</ele>
        <time>2023-01-25T14:46:59Z</time>
      </trkpt>
      <trkpt lat="49.97177" lon="2.35698">
        <ele>123.4</ele>
        <time>2023-01-25T14:47:00Z</time>
      </trkpt>
      <trkpt lat="49.97177" lon="2.35698">
        <ele>123.4</ele>
        <time>2023-01-25T14:47:01Z</time>
      </trkpt>
      <trkpt lat="49.97177" lon="2.35698">
        <ele>123.4</ele>
        <time>2023-01-25T14:47:02Z</time>
      </trkpt>
      <trkpt lat="49.97177" lon="2.35698">
        <ele>123.4</ele>
        <time>2023-01-25T14:47:03Z</time>
      </trkpt>
      <trkpt lat="49.97177" lon="2.35698">
        <ele>123.4</ele>
        <time>2023-01-25T14:47:04Z</time>
      </trkpt>
      <trkpt lat="49.97177" lon="2.35698">
        <ele>123.4</ele>
        <time>2023-01-25T14:47:05Z</time>
      </trkpt>
      <trkpt lat="49.97177" lon="2.35698">
        <ele>123.4</ele>
        <time>2023-01-25T14:47:06Z</time>
      </trkpt>
      <trkpt lat="49.97177" lon="2.35698">
        <ele>123.4</ele>
        <time>2023-01-25T14:47:07Z</time>
      </trkpt>
      <trkpt lat="49.97177" lon="2.35698">
        <ele>123.4</ele>
        <time>2023-01-25T14:47:08Z</time>
      </trkpt>
      <trkpt lat="49.97177" lon="2.35698">
        <ele>123.4</ele>
        <time>2023-01-25T14:47:09Z</time>
      </trkpt>
      <trkpt lat="49.97177" lon="2.35698">
        <ele>123.4</ele>
        <time>2023-01-25T14:47:10Z</time>
      </trkpt>
      <trkpt lat="49.97177" lon="2.35698">
        <ele>123.4</ele>
        <time>2023-01-25T14:47:11Z</time>
      </trkpt>
      <trkpt lat="49.97177" lon="2.35698">
        <ele>123.4</ele>
        <time>2023-01-25T14:47:12Z</time>
      </trkpt>
      <trkpt lat="49.97177" lon="2.35698">
        <ele>123.4</ele>
        <time>2023-01-25T14:47:13Z</time>
      </trkpt>
      <trkpt lat="49.97177" lon="2.35698">
        <ele>123.4</ele>
        <time>2023-01-25T14:47:14Z</time>
      </trkpt>
      <trkpt lat="49.97177" lon="2.35698">
        <ele>123.4</ele>
        <time>2023-01-25T14:47:15Z</time>
      </trkpt>
      <trkpt lat="49.97177" lon="2.35698">
        <ele>123.4</ele>
        <time>2023-01-25T14:47:16Z</time>
      </trkpt>
      <trkpt lat="49.97177" lon="2.35699">
        <ele>123.4</ele>
        <time>2023-01-25T14:47:17Z</time>
      </trkpt>
      <trkpt lat="49.97177" lon="2.35699">
        <ele>123.4</ele>
        <time>2023-01-25T14:47:18Z</time>
      </trkpt>
      <trkpt lat="49.97176" lon="2.35698">
        <ele>123.3</ele>
        <time>2023-01-25T14:47:19Z</time>
      </trkpt>
      <trkpt lat="49.97175" lon="2.35696">
        <ele>123.3</ele>
        <time>2023-01-25T14:47:20Z</time>
      </trkpt>
      <trkpt lat="49.97174" lon="2.35695">
        <ele>123.3</ele>
        <time>2023-01-25T14:47:21Z</time>
      </trkpt>
      <trkpt lat="49.97174" lon="2.35695">
        <ele>123.3</ele>
        <time>2023-01-25T14:47:22Z</time>
      </trkpt>
      <trkpt lat="49.97173" lon="2.35694">
        <ele>123.3</ele>
        <time>2023-01-25T14:47:24Z</time>
      </trkpt>
      <trkpt lat="49.97173" lon="2.35693">
        <ele>123.3</ele>
        <time>2023-01-25T14:47:25Z</time>
      </trkpt>
      <trkpt lat="49.97172" lon="2.35693">
        <ele>123.3</ele>
        <time>2023-01-25T14:47:26Z</time>
      </trkpt>
      <trkpt lat="49.97169" lon="2.35692">
        <ele>123.3</ele>
        <time>2023-01-25T14:47:27Z</time>
      </trkpt>
      <trkpt lat="49.97167" lon="2.35692">
        <ele>123.3</ele>
        <time>2023-01-25T14:47:28Z</time>
      </trkpt>
      <trkpt lat="49.97167" lon="2.35692">
        <ele>123.3</ele>
        <time>2023-01-25T14:47:29Z</time>
      </trkpt>
      <trkpt lat="49.97165" lon="2.35692">
        <ele>123.3</ele>
        <time>2023-01-25T14:47:30Z</time>
      </trkpt>
      <trkpt lat="49.97164" lon="2.35692">
        <ele>123.3</ele>
        <time>2023-01-25T14:47:32Z</time>
      </trkpt>
      <trkpt lat="49.97163" lon="2.35691">
        <ele>123.3</ele>
        <time>2023-01-25T14:47:33Z</time>
      </trkpt>
      <trkpt lat="49.97162" lon="2.3569">
        <ele>123.3</ele>
        <time>2023-01-25T14:47:34Z</time>
      </trkpt>
      <trkpt lat="49.97161" lon="2.35689">
        <ele>123.3</ele>
        <time>2023-01-25T14:47:35Z</time>
      </trkpt>
      <trkpt lat="49.9716" lon="2.35689">
        <ele>123.3</ele>
        <time>2023-01-25T14:47:36Z</time>
      </trkpt>
      <trkpt lat="49.97159" lon="2.35689">
        <ele>123.3</ele>
        <time>2023-01-25T14:47:37Z</time>
      </trkpt>
      <trkpt lat="49.97157" lon="2.35688">
        <ele>123.3</ele>
        <time>2023-01-25T14:47:39Z</time>
      </trkpt>
      <trkpt lat="49.97156" lon="2.35688">
        <ele>123.3</ele>
        <time>2023-01-25T14:47:40Z</time>
      </trkpt>
      <trkpt lat="49.97155" lon="2.35688">
        <ele>123.3</ele>
        <time>2023-01-25T14:47:41Z</time>
      </trkpt>
      <trkpt lat="49.97154" lon="2.35688">
        <ele>123.3</ele>
        <time>2023-01-25T14:47:42Z</time>
      </trkpt>
      <trkpt lat="49.97153" lon="2.3569">
        <ele>123.3</ele>
        <time>2023-01-25T14:47:43Z</time>
      </trkpt>
      <trkpt lat="49.97152" lon="2.3569">
        <ele>123.3</ele>
        <time>2023-01-25T14:47:44Z</time>
      </trkpt>
      <trkpt lat="49.97152" lon="2.35691">
        <ele>123.3</ele>
        <time>2023-01-25T14:47:46Z</time>
      </trkpt>
      <trkpt lat="49.97151" lon="2.35691">
        <ele>123.3</ele>
        <time>2023-01-25T14:47:47Z</time>
      </trkpt>
      <trkpt lat="49.9715" lon="2.35693">
        <ele>123.3</ele>
        <time>2023-01-25T14:47:48Z</time>
      </trkpt>
      <trkpt lat="49.9715" lon="2.35693">
        <ele>123.3</ele>
        <time>2023-01-25T14:47:49Z</time>
      </trkpt>
      <trkpt lat="49.97149" lon="2.35694">
        <ele>123.3</ele>
        <time>2023-01-25T14:47:50Z</time>
      </trkpt>
      <trkpt lat="49.97148" lon="2.35695">
        <ele>123.2</ele>
        <time>2023-01-25T14:47:52Z</time>
      </trkpt>
      <trkpt lat="49.97148" lon="2.35696">
        <ele>123.2</ele>
        <time>2023-01-25T14:47:53Z</time>
      </trkpt>
      <trkpt lat="49.97147" lon="2.35697">
        <ele>123.2</ele>
        <time>2023-01-25T14:47:54Z</time>
      </trkpt>
      <trkpt lat="49.97146" lon="2.35698">
        <ele>123.2</ele>
        <time>2023-01-25T14:47:55Z</time>
      </trkpt>
      <trkpt lat="49.97145" lon="2.357">
        <ele>123.2</ele>
        <time>2023-01-25T14:47:56Z</time>
      </trkpt>
      <trkpt lat="49.97144" lon="2.35701">
        <ele>123.2</ele>
        <time>2023-01-25T14:47:57Z</time>
      </trkpt>
      <trkpt lat="49.97143" lon="2.35702">
        <ele>123.2</ele>
        <time>2023-01-25T14:47:58Z</time>
      </trkpt>
      <trkpt lat="49.97142" lon="2.35704">
        <ele>123.2</ele>
        <time>2023-01-25T14:48:00Z</time>
      </trkpt>
      <trkpt lat="49.97141" lon="2.35704">
        <ele>123.2</ele>
        <time>2023-01-25T14:48:01Z</time>
      </trkpt>
      <trkpt lat="49.9714" lon="2.35705">
        <ele>123.2</ele>
        <time>2023-01-25T14:48:02Z</time>
      </trkpt>
      <trkpt lat="49.9714" lon="2.35706">
        <ele>123.2</ele>
        <time>2023-01-25T14:48:03Z</time>
      </trkpt>
      <trkpt lat="49.97139" lon="2.35709">
        <ele>123.2</ele>
        <time>2023-01-25T14:48:04Z</time>
      </trkpt>
      <trkpt lat="49.97139" lon="2.3571">
        <ele>123.2</ele>
        <time>2023-01-25T14:48:05Z</time>
      </trkpt>
      <trkpt lat="49.97137" lon="2.35712">
        <ele>123.2</ele>
        <time>2023-01-25T14:48:06Z</time>
      </trkpt>
      <trkpt lat="49.97136" lon="2.35712">
        <ele>123.2</ele>
        <time>2023-01-25T14:48:08Z</time>
      </trkpt>
      <trkpt lat="49.97135" lon="2.35712">
        <ele>123.2</ele>
        <time>2023-01-25T14:48:09Z</time>
      </trkpt>
      <trkpt lat="49.97134" lon="2.35713">
        <ele>123.2</ele>
        <time>2023-01-25T14:48:10Z</time>
      </trkpt>
      <trkpt lat="49.97133" lon="2.35713">
        <ele>123.2</ele>
        <time>2023-01-25T14:48:11Z</time>
      </trkpt>
      <trkpt lat="49.97132" lon="2.35713">
        <ele>123.2</ele>
        <time>2023-01-25T14:48:12Z</time>
      </trkpt>
      <trkpt lat="49.9713" lon="2.35713">
        <ele>123.2</ele>
        <time>2023-01-25T14:48:13Z</time>
      </trkpt>
      <trkpt lat="49.97128" lon="2.35714">
        <ele>123.2</ele>
        <time>2023-01-25T14:48:15Z</time>
      </trkpt>
      <trkpt lat="49.97128" lon="2.35714">
        <ele>123.2</ele>
        <time>2023-01-25T14:48:16Z</time>
      </trkpt>
      <trkpt lat="49.97127" lon="2.35714">
        <ele>123.2</ele>
        <time>2023-01-25T14:48:17Z</time>
      </trkpt>
      <trkpt lat="49.97125" lon="2.35715">
        <ele>123.1</ele>
        <time>2023-01-25T14:48:18Z</time>
      </trkpt>
      <trkpt lat="49.97124" lon="2.35716">
        <ele>123.1</ele>
        <time>2023-01-25T14:48:19Z</time>
      </trkpt>
      <trkpt lat="49.97123" lon="2.35716">
        <ele>123.1</ele>
        <time>2023-01-25T14:48:20Z</time>
      </trkpt>
      <trkpt lat="49.97121" lon="2.35717">
        <ele>123.1</ele>
        <time>2023-01-25T14:48:21Z</time>
      </trkpt>
      <trkpt lat="49.9712" lon="2.35718">
        <ele>123.1</ele>
        <time>2023-01-25T14:48:22Z</time>
      </trkpt>
      <trkpt lat="49.9712" lon="2.35719">
        <ele>123.1</ele>
        <time>2023-01-25T14:48:23Z</time>
      </trkpt>
      <trkpt lat="49.97119" lon="2.3572">
        <ele>123.1</ele>
        <time>2023-01-25T14:48:24Z</time>
      </trkpt>
      <trkpt lat="49.97117" lon="2.35721">
        <ele>123.1</ele>
        <time>2023-01-25T14:48:25Z</time>
      </trkpt>
      <trkpt lat="49.97116" lon="2.35722">
        <ele>123.1</ele>
        <time>2023-01-25T14:48:27Z</time>
      </trkpt>
      <trkpt lat="49.97115" lon="2.35723">
        <ele>123.1</ele>
        <time>2023-01-25T14:48:28Z</time>
      </trkpt>
      <trkpt lat="49.97114" lon="2.35724">
        <ele>123.1</ele>
        <time>2023-01-25T14:48:29Z</time>
      </trkpt>
      <trkpt lat="49.97113" lon="2.35725">
        <ele>123.1</ele>
        <time>2023-01-25T14:48:30Z</time>
      </trkpt>
      <trkpt lat="49.97112" lon="2.35726">
        <ele>123.1</ele>
        <time>2023-01-25T14:48:31Z</time>
      </trkpt>
      <trkpt lat="49.97112" lon="2.35728">
        <ele>123.1</ele>
        <time>2023-01-25T14:48:32Z</time>
      </trkpt>
      <trkpt lat="49.97111" lon="2.35729">
        <ele>123.1</ele>
        <time>2023-01-25T14:48:33Z</time>
      </trkpt>
      <trkpt lat="49.9711" lon="2.3573">
        <ele>123.1</ele>
        <time>2023-01-25T14:48:34Z</time>
      </trkpt>
      <trkpt lat="49.97109" lon="2.35731">
        <ele>123.1</ele>
        <time>2023-01-25T14:48:35Z</time>
      </trkpt>
      <trkpt lat="49.97108" lon="2.35732">
        <ele>123.1</ele>
        <time>2023-01-25T14:48:36Z</time>
      </trkpt>
      <trkpt lat="49.97108" lon="2.35733">
        <ele>123</ele>
        <time>2023-01-25T14:48:37Z</time>
      </trkpt>
      <trkpt lat="49.97107" lon="2.35734">
        <ele>123</ele>
        <time>2023-01-25T14:48:38Z</time>
      </trkpt>
      <trkpt lat="49.97106" lon="2.35736">
        <ele>123</ele>
        <time>2023-01-25T14:48:40Z</time>
      </trkpt>
      <trkpt lat="49.97105" lon="2.35737">
        <ele>123</ele>
        <time>2023-01-25T14:48:41Z</time>
      </trkpt>
      <trkpt lat="49.97104" lon="2.35738">
        <ele>123</ele>
        <time>2023-01-25T14:48:42Z</time>
      </trkpt>
      <trkpt lat="49.97104" lon="2.35739">
        <ele>123</ele>
        <time>2023-01-25T14:48:43Z</time>
      </trkpt>
      <trkpt lat="49.97103" lon="2.3574">
        <ele>123</ele>
        <time>2023-01-25T14:48:44Z</time>
      </trkpt>
      <trkpt lat="49.97102" lon="2.35742">
        <ele>123</ele>
        <time>2023-01-25T14:48:45Z</time>
      </trkpt>
      <trkpt lat="49.97102" lon="2.35743">
        <ele>123</ele>
        <time>2023-01-25T14:48:46Z</time>
      </trkpt>
      <trkpt lat="49.97101" lon="2.35744">
        <ele>123</ele>
        <time>2023-01-25T14:48:47Z</time>
      </trkpt>
      <trkpt lat="49.971" lon="2.35745">
        <ele>123</ele>
        <time>2023-01-25T14:48:48Z</time>
      </trkpt>
      <trkpt lat="49.97099" lon="2.35747">
        <ele>123</ele>
        <time>2023-01-25T14:48:49Z</time>
      </trkpt>
      <trkpt lat="49.97098" lon="2.35748">
        <ele>123</ele>
        <time>2023-01-25T14:48:51Z</time>
      </trkpt>
      <trkpt lat="49.97098" lon="2.35749">
        <ele>123</ele>
        <time>2023-01-25T14:48:52Z</time>
      </trkpt>
      <trkpt lat="49.97096" lon="2.35752">
        <ele>123</ele>
        <time>2023-01-25T14:48:53Z</time>
      </trkpt>
      <trkpt lat="49.97096" lon="2.35752">
        <ele>123</ele>
        <time>2023-01-25T14:48:54Z</time>
      </trkpt>
      <trkpt lat="49.97095" lon="2.35753">
        <ele>123</ele>
        <time>2023-01-25T14:48:55Z</time>
      </trkpt>
      <trkpt lat="49.97094" lon="2.35755">
        <ele>123</ele>
        <time>2023-01-25T14:48:56Z</time>
      </trkpt>
      <trkpt lat="49.97093" lon="2.35756">
        <ele>123</ele>
        <time>2023-01-25T14:48:57Z</time>
      </trkpt>
      <trkpt lat="49.97092" lon="2.35756">
        <ele>123</ele>
        <time>2023-01-25T14:48:58Z</time>
      </trkpt>
      <trkpt lat="49.97091" lon="2.35757">
        <ele>123</ele>
        <time>2023-01-25T14:48:59Z</time>
      </trkpt>
      <trkpt lat="49.9709" lon="2.35758">
        <ele>123</ele>
        <time>2023-01-25T14:49:01Z</time>
      </trkpt>
      <trkpt lat="49.97088" lon="2.3576">
        <ele>123</ele>
        <time>2023-01-25T14:49:02Z</time>
      </trkpt>
      <trkpt lat="49.97087" lon="2.35761">
        <ele>123</ele>
        <time>2023-01-25T14:49:03Z</time>
      </trkpt>
      <trkpt lat="49.97086" lon="2.35763">
        <ele>123</ele>
        <time>2023-01-25T14:49:04Z</time>
      </trkpt>
      <trkpt lat="49.97085" lon="2.35764">
        <ele>123</ele>
        <time>2023-01-25T14:49:05Z</time>
      </trkpt>
      <trkpt lat="49.97085" lon="2.35765">
        <ele>122.9</ele>
        <time>2023-01-25T14:49:06Z</time>
      </trkpt>
      <trkpt lat="49.97083" lon="2.35767">
        <ele>122.9</ele>
        <time>2023-01-25T14:49:07Z</time>
      </trkpt>
      <trkpt lat="49.97082" lon="2.35768">
        <ele>122.9</ele>
        <time>2023-01-25T14:49:08Z</time>
      </trkpt>
      <trkpt lat="49.97082" lon="2.35768">
        <ele>122.9</ele>
        <time>2023-01-25T14:49:09Z</time>
      </trkpt>
      <trkpt lat="49.9708" lon="2.3577">
        <ele>122.9</ele>
        <time>2023-01-25T14:49:10Z</time>
      </trkpt>
      <trkpt lat="49.97079" lon="2.35771">
        <ele>122.9</ele>
        <time>2023-01-25T14:49:12Z</time>
      </trkpt>
      <trkpt lat="49.97079" lon="2.35772">
        <ele>122.9</ele>
        <time>2023-01-25T14:49:13Z</time>
      </trkpt>
      <trkpt lat="49.97078" lon="2.35773">
        <ele>122.9</ele>
        <time>2023-01-25T14:49:14Z</time>
      </trkpt>
      <trkpt lat="49.97077" lon="2.35774">
        <ele>122.9</ele>
        <time>2023-01-25T14:49:15Z</time>
      </trkpt>
      <trkpt lat="49.97076" lon="2.35775">
        <ele>122.9</ele>
        <time>2023-01-25T14:49:16Z</time>
      </trkpt>
      <trkpt lat="49.97075" lon="2.35776">
        <ele>122.9</ele>
        <time>2023-01-25T14:49:17Z</time>
      </trkpt>
      <trkpt lat="49.97074" lon="2.35777">
        <ele>122.9</ele>
        <time>2023-01-25T14:49:18Z</time>
      </trkpt>
      <trkpt lat="49.97073" lon="2.35778">
        <ele>122.9</ele>
        <time>2023-01-25T14:49:19Z</time>
      </trkpt>
      <trkpt lat="49.97072" lon="2.3578">
        <ele>122.8</ele>
        <time>2023-01-25T14:49:20Z</time>
      </trkpt>
      <trkpt lat="49.97071" lon="2.35781">
        <ele>122.8</ele>
        <time>2023-01-25T14:49:21Z</time>
      </trkpt>
      <trkpt lat="49.9707" lon="2.35782">
        <ele>122.8</ele>
        <time>2023-01-25T14:49:23Z</time>
      </trkpt>
      <trkpt lat="49.97069" lon="2.35783">
        <ele>122.8</ele>
        <time>2023-01-25T14:49:24Z</time>
      </trkpt>
      <trkpt lat="49.97068" lon="2.35784">
        <ele>122.8</ele>
        <time>2023-01-25T14:49:25Z</time>
      </trkpt>
      <trkpt lat="49.97068" lon="2.35785">
        <ele>122.8</ele>
        <time>2023-01-25T14:49:26Z</time>
      </trkpt>
      <trkpt lat="49.97067" lon="2.35786">
        <ele>122.8</ele>
        <time>2023-01-25T14:49:27Z</time>
      </trkpt>
      <trkpt lat="49.97066" lon="2.35788">
        <ele>122.7</ele>
        <time>2023-01-25T14:49:29Z</time>
      </trkpt>
      <trkpt lat="49.97065" lon="2.35789">
        <ele>122.7</ele>
        <time>2023-01-25T14:49:30Z</time>
      </trkpt>
      <trkpt lat="49.97064" lon="2.3579">
        <ele>122.7</ele>
        <time>2023-01-25T14:49:31Z</time>
      </trkpt>
      <trkpt lat="49.97063" lon="2.35792">
        <ele>122.7</ele>
        <time>2023-01-25T14:49:32Z</time>
      </trkpt>
      <trkpt lat="49.97062" lon="2.35793">
        <ele>122.7</ele>
        <time>2023-01-25T14:49:33Z</time>
      </trkpt>
      <trkpt lat="49.97062" lon="2.35794">
        <ele>122.7</ele>
        <time>2023-01-25T14:49:34Z</time>
      </trkpt>
      <trkpt lat="49.97062" lon="2.35794">
        <ele>122.7</ele>
        <time>2023-01-25T14:49:35Z</time>
      </trkpt>
      <trkpt lat="49.97061" lon="2.35795">
        <ele>122.7</ele>
        <time>2023-01-25T14:49:36Z</time>
      </trkpt>
      <trkpt lat="49.97061" lon="2.35796">
        <ele>122.7</ele>
        <time>2023-01-25T14:49:38Z</time>
      </trkpt>
      <trkpt lat="49.9706" lon="2.35797">
        <ele>122.6</ele>
        <time>2023-01-25T14:49:39Z</time>
      </trkpt>
      <trkpt lat="49.9706" lon="2.35798">
        <ele>122.6</ele>
        <time>2023-01-25T14:49:40Z</time>
      </trkpt>
      <trkpt lat="49.97059" lon="2.35799">
        <ele>122.6</ele>
        <time>2023-01-25T14:49:41Z</time>
      </trkpt>
      <trkpt lat="49.97059" lon="2.35801">
        <ele>122.6</ele>
        <time>2023-01-25T14:49:42Z</time>
      </trkpt>
      <trkpt lat="49.97058" lon="2.35802">
        <ele>122.6</ele>
        <time>2023-01-25T14:49:43Z</time>
      </trkpt>
      <trkpt lat="49.97058" lon="2.35803">
        <ele>122.6</ele>
        <time>2023-01-25T14:49:44Z</time>
      </trkpt>
      <trkpt lat="49.97056" lon="2.35805">
        <ele>122.6</ele>
        <time>2023-01-25T14:49:45Z</time>
      </trkpt>
      <trkpt lat="49.97055" lon="2.35806">
        <ele>122.6</ele>
        <time>2023-01-25T14:49:47Z</time>
      </trkpt>
      <trkpt lat="49.97055" lon="2.35808">
        <ele>122.5</ele>
        <time>2023-01-25T14:49:48Z</time>
      </trkpt>
      <trkpt lat="49.97054" lon="2.35809">
        <ele>122.5</ele>
        <time>2023-01-25T14:49:49Z</time>
      </trkpt>
      <trkpt lat="49.97053" lon="2.35811">
        <ele>122.5</ele>
        <time>2023-01-25T14:49:50Z</time>
      </trkpt>
      <trkpt lat="49.97052" lon="2.35812">
        <ele>122.5</ele>
        <time>2023-01-25T14:49:52Z</time>
      </trkpt>
      <trkpt lat="49.97051" lon="2.35814">
        <ele>122.5</ele>
        <time>2023-01-25T14:49:53Z</time>
      </trkpt>
      <trkpt lat="49.9705" lon="2.35817">
        <ele>122.5</ele>
        <time>2023-01-25T14:49:54Z</time>
      </trkpt>
      <trkpt lat="49.97049" lon="2.35818">
        <ele>122.4</ele>
        <time>2023-01-25T14:49:55Z</time>
      </trkpt>
      <trkpt lat="49.97049" lon="2.35819">
        <ele>122.4</ele>
        <time>2023-01-25T14:49:56Z</time>
      </trkpt>
      <trkpt lat="49.97048" lon="2.35821">
        <ele>122.4</ele>
        <time>2023-01-25T14:49:57Z</time>
      </trkpt>
      <trkpt lat="49.97047" lon="2.35823">
        <ele>122.4</ele>
        <time>2023-01-25T14:49:58Z</time>
      </trkpt>
      <trkpt lat="49.97047" lon="2.35824">
        <ele>122.4</ele>
        <time>2023-01-25T14:49:59Z</time>
      </trkpt>
      <trkpt lat="49.97046" lon="2.35825">
        <ele>122.4</ele>
        <time>2023-01-25T14:50:00Z</time>
      </trkpt>
      <trkpt lat="49.97045" lon="2.35826">
        <ele>122.4</ele>
        <time>2023-01-25T14:50:01Z</time>
      </trkpt>
      <trkpt lat="49.97044" lon="2.35827">
        <ele>122.4</ele>
        <time>2023-01-25T14:50:03Z</time>
      </trkpt>
      <trkpt lat="49.97044" lon="2.35828">
        <ele>122.3</ele>
        <time>2023-01-25T14:50:04Z</time>
      </trkpt>
      <trkpt lat="49.97043" lon="2.3583">
        <ele>122.3</ele>
        <time>2023-01-25T14:50:05Z</time>
      </trkpt>
      <trkpt lat="49.97043" lon="2.35831">
        <ele>122.3</ele>
        <time>2023-01-25T14:50:06Z</time>
      </trkpt>
      <trkpt lat="49.97042" lon="2.35833">
        <ele>122.3</ele>
        <time>2023-01-25T14:50:07Z</time>
      </trkpt>
      <trkpt lat="49.97041" lon="2.35835">
        <ele>122.3</ele>
        <time>2023-01-25T14:50:08Z</time>
      </trkpt>
      <trkpt lat="49.97041" lon="2.35836">
        <ele>122.3</ele>
        <time>2023-01-25T14:50:09Z</time>
      </trkpt>
      <trkpt lat="49.9704" lon="2.35838">
        <ele>122.3</ele>
        <time>2023-01-25T14:50:10Z</time>
      </trkpt>
      <trkpt lat="49.97039" lon="2.3584">
        <ele>122.2</ele>
        <time>2023-01-25T14:50:11Z</time>
      </trkpt>
      <trkpt lat="49.97038" lon="2.35842">
        <ele>122.2</ele>
        <time>2023-01-25T14:50:12Z</time>
      </trkpt>
      <trkpt lat="49.97038" lon="2.35844">
        <ele>122.2</ele>
        <time>2023-01-25T14:50:14Z</time>
      </trkpt>
      <trkpt lat="49.97037" lon="2.35846">
        <ele>122.2</ele>
        <time>2023-01-25T14:50:15Z</time>
      </trkpt>
      <trkpt lat="49.97036" lon="2.35848">
        <ele>122.2</ele>
        <time>2023-01-25T14:50:16Z</time>
      </trkpt>
      <trkpt lat="49.97036" lon="2.35849">
        <ele>122.2</ele>
        <time>2023-01-25T14:50:17Z</time>
      </trkpt>
      <trkpt lat="49.97035" lon="2.3585">
        <ele>122.2</ele>
        <time>2023-01-25T14:50:18Z</time>
      </trkpt>
      <trkpt lat="49.97034" lon="2.35852">
        <ele>122.1</ele>
        <time>2023-01-25T14:50:19Z</time>
      </trkpt>
      <trkpt lat="49.97034" lon="2.35853">
        <ele>122.1</ele>
        <time>2023-01-25T14:50:21Z</time>
      </trkpt>
      <trkpt lat="49.97033" lon="2.35855">
        <ele>122.1</ele>
        <time>2023-01-25T14:50:22Z</time>
      </trkpt>
      <trkpt lat="49.97033" lon="2.35856">
        <ele>122.1</ele>
        <time>2023-01-25T14:50:23Z</time>
      </trkpt>
      <trkpt lat="49.97032" lon="2.35858">
        <ele>122.1</ele>
        <time>2023-01-25T14:50:24Z</time>
      </trkpt>
      <trkpt lat="49.97032" lon="2.35859">
        <ele>122.1</ele>
        <time>2023-01-25T14:50:25Z</time>
      </trkpt>
      <trkpt lat="49.97031" lon="2.35861">
        <ele>122.1</ele>
        <time>2023-01-25T14:50:26Z</time>
      </trkpt>
      <trkpt lat="49.9703" lon="2.35863">
        <ele>122.1</ele>
        <time>2023-01-25T14:50:27Z</time>
      </trkpt>
      <trkpt lat="49.9703" lon="2.35864">
        <ele>122.1</ele>
        <time>2023-01-25T14:50:28Z</time>
      </trkpt>
      <trkpt lat="49.9703" lon="2.35865">
        <ele>122.1</ele>
        <time>2023-01-25T14:50:29Z</time>
      </trkpt>
      <trkpt lat="49.97029" lon="2.35867">
        <ele>122.1</ele>
        <time>2023-01-25T14:50:30Z</time>
      </trkpt>
      <trkpt lat="49.97029" lon="2.35868">
        <ele>122.1</ele>
        <time>2023-01-25T14:50:32Z</time>
      </trkpt>
      <trkpt lat="49.97029" lon="2.35871">
        <ele>122</ele>
        <time>2023-01-25T14:50:33Z</time>
      </trkpt>
      <trkpt lat="49.97028" lon="2.35872">
        <ele>122</ele>
        <time>2023-01-25T14:50:34Z</time>
      </trkpt>
      <trkpt lat="49.97028" lon="2.35874">
        <ele>122</ele>
        <time>2023-01-25T14:50:35Z</time>
      </trkpt>
      <trkpt lat="49.97028" lon="2.35876">
        <ele>122</ele>
        <time>2023-01-25T14:50:37Z</time>
      </trkpt>
      <trkpt lat="49.97027" lon="2.35878">
        <ele>122</ele>
        <time>2023-01-25T14:50:38Z</time>
      </trkpt>
      <trkpt lat="49.97027" lon="2.3588">
        <ele>122</ele>
        <time>2023-01-25T14:50:39Z</time>
      </trkpt>
      <trkpt lat="49.97026" lon="2.35882">
        <ele>122</ele>
        <time>2023-01-25T14:50:40Z</time>
      </trkpt>
      <trkpt lat="49.97025" lon="2.35885">
        <ele>122</ele>
        <time>2023-01-25T14:50:41Z</time>
      </trkpt>
      <trkpt lat="49.97024" lon="2.35886">
        <ele>122</ele>
        <time>2023-01-25T14:50:43Z</time>
      </trkpt>
      <trkpt lat="49.97024" lon="2.35887">
        <ele>122</ele>
        <time>2023-01-25T14:50:44Z</time>
      </trkpt>
      <trkpt lat="49.97023" lon="2.35888">
        <ele>122</ele>
        <time>2023-01-25T14:50:45Z</time>
      </trkpt>
      <trkpt lat="49.97021" lon="2.35889">
        <ele>121.9</ele>
        <time>2023-01-25T14:50:46Z</time>
      </trkpt>
      <trkpt lat="49.97021" lon="2.3589">
        <ele>121.9</ele>
        <time>2023-01-25T14:50:47Z</time>
      </trkpt>
      <trkpt lat="49.97019" lon="2.35892">
        <ele>121.9</ele>
        <time>2023-01-25T14:50:48Z</time>
      </trkpt>
      <trkpt lat="49.97018" lon="2.35893">
        <ele>121.9</ele>
        <time>2023-01-25T14:50:49Z</time>
      </trkpt>
      <trkpt lat="49.97018" lon="2.35894">
        <ele>121.9</ele>
        <time>2023-01-25T14:50:50Z</time>
      </trkpt>
      <trkpt lat="49.97016" lon="2.35896">
        <ele>121.9</ele>
        <time>2023-01-25T14:50:51Z</time>
      </trkpt>
      <trkpt lat="49.97016" lon="2.35897">
        <ele>121.9</ele>
        <time>2023-01-25T14:50:52Z</time>
      </trkpt>
      <trkpt lat="49.97015" lon="2.35898">
        <ele>121.9</ele>
        <time>2023-01-25T14:50:53Z</time>
      </trkpt>
      <trkpt lat="49.97014" lon="2.35901">
        <ele>121.8</ele>
        <time>2023-01-25T14:50:54Z</time>
      </trkpt>
      <trkpt lat="49.97013" lon="2.35902">
        <ele>121.8</ele>
        <time>2023-01-25T14:50:56Z</time>
      </trkpt>
      <trkpt lat="49.97013" lon="2.35904">
        <ele>121.8</ele>
        <time>2023-01-25T14:50:57Z</time>
      </trkpt>
      <trkpt lat="49.97012" lon="2.35905">
        <ele>121.8</ele>
        <time>2023-01-25T14:50:58Z</time>
      </trkpt>
      <trkpt lat="49.97011" lon="2.35907">
        <ele>121.8</ele>
        <time>2023-01-25T14:50:59Z</time>
      </trkpt>
      <trkpt lat="49.97011" lon="2.35908">
        <ele>121.8</ele>
        <time>2023-01-25T14:51:00Z</time>
      </trkpt>
      <trkpt lat="49.9701" lon="2.3591">
        <ele>121.8</ele>
        <time>2023-01-25T14:51:01Z</time>
      </trkpt>
      <trkpt lat="49.97009" lon="2.35912">
        <ele>121.8</ele>
        <time>2023-01-25T14:51:03Z</time>
      </trkpt>
      <trkpt lat="49.97009" lon="2.35914">
        <ele>121.8</ele>
        <time>2023-01-25T14:51:04Z</time>
      </trkpt>
      <trkpt lat="49.97008" lon="2.35915">
        <ele>121.7</ele>
        <time>2023-01-25T14:51:05Z</time>
      </trkpt>
      <trkpt lat="49.97008" lon="2.35917">
        <ele>121.7</ele>
        <time>2023-01-25T14:51:06Z</time>
      </trkpt>
      <trkpt lat="49.97007" lon="2.3592">
        <ele>121.7</ele>
        <time>2023-01-25T14:51:07Z</time>
      </trkpt>
      <trkpt lat="49.97006" lon="2.35921">
        <ele>121.7</ele>
        <time>2023-01-25T14:51:08Z</time>
      </trkpt>
      <trkpt lat="49.97006" lon="2.35922">
        <ele>121.7</ele>
        <time>2023-01-25T14:51:10Z</time>
      </trkpt>
      <trkpt lat="49.97005" lon="2.35924">
        <ele>121.7</ele>
        <time>2023-01-25T14:51:11Z</time>
      </trkpt>
      <trkpt lat="49.97004" lon="2.35925">
        <ele>121.7</ele>
        <time>2023-01-25T14:51:12Z</time>
      </trkpt>
      <trkpt lat="49.97004" lon="2.35926">
        <ele>121.7</ele>
        <time>2023-01-25T14:51:13Z</time>
      </trkpt>
      <trkpt lat="49.97003" lon="2.35928">
        <ele>121.7</ele>
        <time>2023-01-25T14:51:14Z</time>
      </trkpt>
      <trkpt lat="49.97003" lon="2.3593">
        <ele>121.6</ele>
        <time>2023-01-25T14:51:15Z</time>
      </trkpt>
      <trkpt lat="49.97002" lon="2.35932">
        <ele>121.6</ele>
        <time>2023-01-25T14:51:16Z</time>
      </trkpt>
      <trkpt lat="49.97001" lon="2.35934">
        <ele>121.6</ele>
        <time>2023-01-25T14:51:17Z</time>
      </trkpt>
      <trkpt lat="49.97" lon="2.35936">
        <ele>121.6</ele>
        <time>2023-01-25T14:51:19Z</time>
      </trkpt>
      <trkpt lat="49.97" lon="2.35938">
        <ele>121.6</ele>
        <time>2023-01-25T14:51:20Z</time>
      </trkpt>
      <trkpt lat="49.96999" lon="2.35941">
        <ele>121.6</ele>
        <time>2023-01-25T14:51:21Z</time>
      </trkpt>
      <trkpt lat="49.96998" lon="2.35942">
        <ele>121.6</ele>
        <time>2023-01-25T14:51:22Z</time>
      </trkpt>
      <trkpt lat="49.96998" lon="2.35943">
        <ele>121.6</ele>
        <time>2023-01-25T14:51:23Z</time>
      </trkpt>
      <trkpt lat="49.96997" lon="2.35944">
        <ele>121.6</ele>
        <time>2023-01-25T14:51:24Z</time>
      </trkpt>
      <trkpt lat="49.96996" lon="2.35946">
        <ele>121.5</ele>
        <time>2023-01-25T14:51:26Z</time>
      </trkpt>
      <trkpt lat="49.96995" lon="2.35948">
        <ele>121.5</ele>
        <time>2023-01-25T14:51:27Z</time>
      </trkpt>
      <trkpt lat="49.96994" lon="2.3595">
        <ele>121.5</ele>
        <time>2023-01-25T14:51:28Z</time>
      </trkpt>
      <trkpt lat="49.96993" lon="2.3595">
        <ele>121.5</ele>
        <time>2023-01-25T14:51:29Z</time>
      </trkpt>
      <trkpt lat="49.96992" lon="2.35951">
        <ele>121.5</ele>
        <time>2023-01-25T14:51:30Z</time>
      </trkpt>
      <trkpt lat="49.96991" lon="2.35952">
        <ele>121.5</ele>
        <time>2023-01-25T14:51:31Z</time>
      </trkpt>
      <trkpt lat="49.96989" lon="2.35955">
        <ele>121.5</ele>
        <time>2023-01-25T14:51:32Z</time>
      </trkpt>
      <trkpt lat="49.96989" lon="2.35957">
        <ele>121.5</ele>
        <time>2023-01-25T14:51:34Z</time>
      </trkpt>
      <trkpt lat="49.96988" lon="2.35958">
        <ele>121.4</ele>
        <time>2023-01-25T14:51:35Z</time>
      </trkpt>
      <trkpt lat="49.96987" lon="2.35959">
        <ele>121.4</ele>
        <time>2023-01-25T14:51:36Z</time>
      </trkpt>
      <trkpt lat="49.96987" lon="2.3596">
        <ele>121.4</ele>
        <time>2023-01-25T14:51:37Z</time>
      </trkpt>
      <trkpt lat="49.96985" lon="2.35963">
        <ele>121.4</ele>
        <time>2023-01-25T14:51:38Z</time>
      </trkpt>
      <trkpt lat="49.96985" lon="2.35964">
        <ele>121.4</ele>
        <time>2023-01-25T14:51:39Z</time>
      </trkpt>
      <trkpt lat="49.96984" lon="2.35965">
        <ele>121.4</ele>
        <time>2023-01-25T14:51:40Z</time>
      </trkpt>
      <trkpt lat="49.96983" lon="2.35967">
        <ele>121.3</ele>
        <time>2023-01-25T14:51:41Z</time>
      </trkpt>
      <trkpt lat="49.96982" lon="2.35968">
        <ele>121.3</ele>
        <time>2023-01-25T14:51:42Z</time>
      </trkpt>
      <trkpt lat="49.96981" lon="2.35971">
        <ele>121.3</ele>
        <time>2023-01-25T14:51:44Z</time>
      </trkpt>
      <trkpt lat="49.9698" lon="2.35973">
        <ele>121.2</ele>
        <time>2023-01-25T14:51:45Z</time>
      </trkpt>
      <trkpt lat="49.96979" lon="2.35975">
        <ele>121.2</ele>
        <time>2023-01-25T14:51:46Z</time>
      </trkpt>
      <trkpt lat="49.96978" lon="2.35976">
        <ele>121.2</ele>
        <time>2023-01-25T14:51:47Z</time>
      </trkpt>
      <trkpt lat="49.96978" lon="2.35977">
        <ele>121.2</ele>
        <time>2023-01-25T14:51:48Z</time>
      </trkpt>
      <trkpt lat="49.96977" lon="2.35979">
        <ele>121.2</ele>
        <time>2023-01-25T14:51:49Z</time>
      </trkpt>
      <trkpt lat="49.96976" lon="2.35981">
        <ele>121.1</ele>
        <time>2023-01-25T14:51:50Z</time>
      </trkpt>
      <trkpt lat="49.96975" lon="2.35983">
        <ele>121.1</ele>
        <time>2023-01-25T14:51:52Z</time>
      </trkpt>
      <trkpt lat="49.96975" lon="2.35986">
        <ele>121.1</ele>
        <time>2023-01-25T14:51:53Z</time>
      </trkpt>
      <trkpt lat="49.96975" lon="2.35988">
        <ele>121</ele>
        <time>2023-01-25T14:51:54Z</time>
      </trkpt>
      <trkpt lat="49.96974" lon="2.3599">
        <ele>121</ele>
        <time>2023-01-25T14:51:55Z</time>
      </trkpt>
      <trkpt lat="49.96973" lon="2.35991">
        <ele>121</ele>
        <time>2023-01-25T14:51:56Z</time>
      </trkpt>
      <trkpt lat="49.96972" lon="2.35992">
        <ele>121</ele>
        <time>2023-01-25T14:51:57Z</time>
      </trkpt>
      <trkpt lat="49.96971" lon="2.35993">
        <ele>121</ele>
        <time>2023-01-25T14:51:58Z</time>
      </trkpt>
      <trkpt lat="49.9697" lon="2.35994">
        <ele>120.9</ele>
        <time>2023-01-25T14:51:59Z</time>
      </trkpt>
      <trkpt lat="49.96968" lon="2.35996">
        <ele>120.9</ele>
        <time>2023-01-25T14:52:01Z</time>
      </trkpt>
      <trkpt lat="49.96967" lon="2.35997">
        <ele>120.9</ele>
        <time>2023-01-25T14:52:02Z</time>
      </trkpt>
      <trkpt lat="49.96966" lon="2.35997">
        <ele>120.9</ele>
        <time>2023-01-25T14:52:03Z</time>
      </trkpt>
      <trkpt lat="49.96964" lon="2.35998">
        <ele>120.8</ele>
        <time>2023-01-25T14:52:05Z</time>
      </trkpt>
      <trkpt lat="49.96964" lon="2.35999">
        <ele>120.8</ele>
        <time>2023-01-25T14:52:06Z</time>
      </trkpt>
      <trkpt lat="49.96963" lon="2.36">
        <ele>120.8</ele>
        <time>2023-01-25T14:52:07Z</time>
      </trkpt>
      <trkpt lat="49.96961" lon="2.36003">
        <ele>120.8</ele>
        <time>2023-01-25T14:52:08Z</time>
      </trkpt>
      <trkpt lat="49.96961" lon="2.36004">
        <ele>120.7</ele>
        <time>2023-01-25T14:52:09Z</time>
      </trkpt>
      <trkpt lat="49.9696" lon="2.36005">
        <ele>120.7</ele>
        <time>2023-01-25T14:52:10Z</time>
      </trkpt>
      <trkpt lat="49.96959" lon="2.36008">
        <ele>120.7</ele>
        <time>2023-01-25T14:52:11Z</time>
      </trkpt>
      <trkpt lat="49.96958" lon="2.36009">
        <ele>120.7</ele>
        <time>2023-01-25T14:52:13Z</time>
      </trkpt>
      <trkpt lat="49.96957" lon="2.3601">
        <ele>120.7</ele>
        <time>2023-01-25T14:52:14Z</time>
      </trkpt>
      <trkpt lat="49.96956" lon="2.36012">
        <ele>120.6</ele>
        <time>2023-01-25T14:52:15Z</time>
      </trkpt>
      <trkpt lat="49.96956" lon="2.36013">
        <ele>120.6</ele>
        <time>2023-01-25T14:52:16Z</time>
      </trkpt>
      <trkpt lat="49.96955" lon="2.36014">
        <ele>120.6</ele>
        <time>2023-01-25T14:52:17Z</time>
      </trkpt>
      <trkpt lat="49.96954" lon="2.36015">
        <ele>120.6</ele>
        <time>2023-01-25T14:52:18Z</time>
      </trkpt>
      <trkpt lat="49.96953" lon="2.36016">
        <ele>120.6</ele>
        <time>2023-01-25T14:52:19Z</time>
      </trkpt>
      <trkpt lat="49.96952" lon="2.36018">
        <ele>120.5</ele>
        <time>2023-01-25T14:52:21Z</time>
      </trkpt>
      <trkpt lat="49.96951" lon="2.36019">
        <ele>120.5</ele>
        <time>2023-01-25T14:52:22Z</time>
      </trkpt>
      <trkpt lat="49.96951" lon="2.3602">
        <ele>120.5</ele>
        <time>2023-01-25T14:52:23Z</time>
      </trkpt>
      <trkpt lat="49.96949" lon="2.36023">
        <ele>120.5</ele>
        <time>2023-01-25T14:52:24Z</time>
      </trkpt>
      <trkpt lat="49.96949" lon="2.36024">
        <ele>120.4</ele>
        <time>2023-01-25T14:52:25Z</time>
      </trkpt>
      <trkpt lat="49.96948" lon="2.36025">
        <ele>120.4</ele>
        <time>2023-01-25T14:52:26Z</time>
      </trkpt>
      <trkpt lat="49.96947" lon="2.36027">
        <ele>120.4</ele>
        <time>2023-01-25T14:52:27Z</time>
      </trkpt>
      <trkpt lat="49.96946" lon="2.36028">
        <ele>120.4</ele>
        <time>2023-01-25T14:52:28Z</time>
      </trkpt>
      <trkpt lat="49.96946" lon="2.36029">
        <ele>120.3</ele>
        <time>2023-01-25T14:52:29Z</time>
      </trkpt>
      <trkpt lat="49.96945" lon="2.3603">
        <ele>120.3</ele>
        <time>2023-01-25T14:52:30Z</time>
      </trkpt>
      <trkpt lat="49.96944" lon="2.36031">
        <ele>120.3</ele>
        <time>2023-01-25T14:52:31Z</time>
      </trkpt>
      <trkpt lat="49.96943" lon="2.36033">
        <ele>120.3</ele>
        <time>2023-01-25T14:52:33Z</time>
      </trkpt>
      <trkpt lat="49.96942" lon="2.36035">
        <ele>120.2</ele>
        <time>2023-01-25T14:52:34Z</time>
      </trkpt>
      <trkpt lat="49.96941" lon="2.36036">
        <ele>120.2</ele>
        <time>2023-01-25T14:52:35Z</time>
      </trkpt>
      <trkpt lat="49.96941" lon="2.36038">
        <ele>120.2</ele>
        <time>2023-01-25T14:52:36Z</time>
      </trkpt>
      <trkpt lat="49.9694" lon="2.3604">
        <ele>120.1</ele>
        <time>2023-01-25T14:52:37Z</time>
      </trkpt>
      <trkpt lat="49.96939" lon="2.36041">
        <ele>120.1</ele>
        <time>2023-01-25T14:52:38Z</time>
      </trkpt>
      <trkpt lat="49.96938" lon="2.36043">
        <ele>120.1</ele>
        <time>2023-01-25T14:52:39Z</time>
      </trkpt>
      <trkpt lat="49.96937" lon="2.36045">
        <ele>120</ele>
        <time>2023-01-25T14:52:41Z</time>
      </trkpt>
      <trkpt lat="49.96936" lon="2.36047">
        <ele>120</ele>
        <time>2023-01-25T14:52:42Z</time>
      </trkpt>
      <trkpt lat="49.96935" lon="2.36048">
        <ele>119.9</ele>
        <time>2023-01-25T14:52:43Z</time>
      </trkpt>
      <trkpt lat="49.96934" lon="2.3605">
        <ele>119.9</ele>
        <time>2023-01-25T14:52:44Z</time>
      </trkpt>
      <trkpt lat="49.96933" lon="2.36053">
        <ele>119.9</ele>
        <time>2023-01-25T14:52:45Z</time>
      </trkpt>
      <trkpt lat="49.96932" lon="2.36054">
        <ele>119.8</ele>
        <time>2023-01-25T14:52:46Z</time>
      </trkpt>
      <trkpt lat="49.96931" lon="2.36056">
        <ele>119.8</ele>
        <time>2023-01-25T14:52:48Z</time>
      </trkpt>
      <trkpt lat="49.96929" lon="2.36057">
        <ele>119.7</ele>
        <time>2023-01-25T14:52:49Z</time>
      </trkpt>
      <trkpt lat="49.96928" lon="2.36059">
        <ele>119.7</ele>
        <time>2023-01-25T14:52:50Z</time>
      </trkpt>
      <trkpt lat="49.96927" lon="2.3606">
        <ele>119.7</ele>
        <time>2023-01-25T14:52:51Z</time>
      </trkpt>
      <trkpt lat="49.96925" lon="2.3606">
        <ele>119.6</ele>
        <time>2023-01-25T14:52:52Z</time>
      </trkpt>
      <trkpt lat="49.96924" lon="2.36063">
        <ele>119.6</ele>
        <time>2023-01-25T14:52:53Z</time>
      </trkpt>
      <trkpt lat="49.96924" lon="2.36064">
        <ele>119.6</ele>
        <time>2023-01-25T14:52:54Z</time>
      </trkpt>
      <trkpt lat="49.96924" lon="2.36066">
        <ele>119.5</ele>
        <time>2023-01-25T14:52:55Z</time>
      </trkpt>
      <trkpt lat="49.96923" lon="2.36067">
        <ele>119.5</ele>
        <time>2023-01-25T14:52:56Z</time>
      </trkpt>
      <trkpt lat="49.96922" lon="2.36069">
        <ele>119.5</ele>
        <time>2023-01-25T14:52:58Z</time>
      </trkpt>
      <trkpt lat="49.96921" lon="2.3607">
        <ele>119.4</ele>
        <time>2023-01-25T14:52:59Z</time>
      </trkpt>
      <trkpt lat="49.96919" lon="2.36072">
        <ele>119.4</ele>
        <time>2023-01-25T14:53:00Z</time>
      </trkpt>
      <trkpt lat="49.96918" lon="2.36073">
        <ele>119.4</ele>
        <time>2023-01-25T14:53:01Z</time>
      </trkpt>
      <trkpt lat="49.96917" lon="2.36075">
        <ele>119.3</ele>
        <time>2023-01-25T14:53:02Z</time>
      </trkpt>
      <trkpt lat="49.96917" lon="2.36075">
        <ele>119.3</ele>
        <time>2023-01-25T14:53:03Z</time>
      </trkpt>
      <trkpt lat="49.96915" lon="2.36076">
        <ele>119.3</ele>
        <time>2023-01-25T14:53:05Z</time>
      </trkpt>
      <trkpt lat="49.96915" lon="2.36076">
        <ele>119.3</ele>
        <time>2023-01-25T14:53:06Z</time>
      </trkpt>
      <trkpt lat="49.96914" lon="2.36076">
        <ele>119.3</ele>
        <time>2023-01-25T14:53:07Z</time>
      </trkpt>
      <trkpt lat="49.96913" lon="2.36077">
        <ele>119.2</ele>
        <time>2023-01-25T14:53:08Z</time>
      </trkpt>
      <trkpt lat="49.96913" lon="2.36078">
        <ele>119.2</ele>
        <time>2023-01-25T14:53:09Z</time>
      </trkpt>
      <trkpt lat="49.96912" lon="2.36079">
        <ele>119.2</ele>
        <time>2023-01-25T14:53:10Z</time>
      </trkpt>
      <trkpt lat="49.96911" lon="2.3608">
        <ele>119.2</ele>
        <time>2023-01-25T14:53:11Z</time>
      </trkpt>
      <trkpt lat="49.9691" lon="2.36082">
        <ele>119.1</ele>
        <time>2023-01-25T14:53:12Z</time>
      </trkpt>
      <trkpt lat="49.9691" lon="2.36083">
        <ele>119.1</ele>
        <time>2023-01-25T14:53:13Z</time>
      </trkpt>
      <trkpt lat="49.96909" lon="2.36085">
        <ele>119.1</ele>
        <time>2023-01-25T14:53:15Z</time>
      </trkpt>
      <trkpt lat="49.96909" lon="2.36086">
        <ele>119.1</ele>
        <time>2023-01-25T14:53:16Z</time>
      </trkpt>
      <trkpt lat="49.96908" lon="2.36087">
        <ele>119.1</ele>
        <time>2023-01-25T14:53:17Z</time>
      </trkpt>
      <trkpt lat="49.96908" lon="2.36088">
        <ele>119</ele>
        <time>2023-01-25T14:53:18Z</time>
      </trkpt>
      <trkpt lat="49.96907" lon="2.36089">
        <ele>119</ele>
        <time>2023-01-25T14:53:19Z</time>
      </trkpt>
      <trkpt lat="49.96906" lon="2.3609">
        <ele>119</ele>
        <time>2023-01-25T14:53:20Z</time>
      </trkpt>
      <trkpt lat="49.96905" lon="2.36091">
        <ele>119</ele>
        <time>2023-01-25T14:53:21Z</time>
      </trkpt>
      <trkpt lat="49.96905" lon="2.36092">
        <ele>119</ele>
        <time>2023-01-25T14:53:22Z</time>
      </trkpt>
      <trkpt lat="49.96904" lon="2.36093">
        <ele>119</ele>
        <time>2023-01-25T14:53:23Z</time>
      </trkpt>
      <trkpt lat="49.96904" lon="2.36095">
        <ele>118.9</ele>
        <time>2023-01-25T14:53:24Z</time>
      </trkpt>
      <trkpt lat="49.96903" lon="2.36096">
        <ele>118.9</ele>
        <time>2023-01-25T14:53:25Z</time>
      </trkpt>
      <trkpt lat="49.96902" lon="2.36098">
        <ele>118.9</ele>
        <time>2023-01-25T14:53:27Z</time>
      </trkpt>
      <trkpt lat="49.96902" lon="2.361">
        <ele>118.9</ele>
        <time>2023-01-25T14:53:28Z</time>
      </trkpt>
      <trkpt lat="49.96901" lon="2.36101">
        <ele>118.9</ele>
        <time>2023-01-25T14:53:29Z</time>
      </trkpt>
      <trkpt lat="49.969" lon="2.36102">
        <ele>118.8</ele>
        <time>2023-01-25T14:53:30Z</time>
      </trkpt>
      <trkpt lat="49.96899" lon="2.36103">
        <ele>118.8</ele>
        <time>2023-01-25T14:53:31Z</time>
      </trkpt>
      <trkpt lat="49.96898" lon="2.36104">
        <ele>118.8</ele>
        <time>2023-01-25T14:53:32Z</time>
      </trkpt>
      <trkpt lat="49.96897" lon="2.36104">
        <ele>118.8</ele>
        <time>2023-01-25T14:53:33Z</time>
      </trkpt>
      <trkpt lat="49.96896" lon="2.36105">
        <ele>118.8</ele>
        <time>2023-01-25T14:53:34Z</time>
      </trkpt>
      <trkpt lat="49.96895" lon="2.36106">
        <ele>118.8</ele>
        <time>2023-01-25T14:53:35Z</time>
      </trkpt>
      <trkpt lat="49.96895" lon="2.36107">
        <ele>118.8</ele>
        <time>2023-01-25T14:53:36Z</time>
      </trkpt>
      <trkpt lat="49.96894" lon="2.36108">
        <ele>118.7</ele>
        <time>2023-01-25T14:53:38Z</time>
      </trkpt>
      <trkpt lat="49.96893" lon="2.36109">
        <ele>118.7</ele>
        <time>2023-01-25T14:53:39Z</time>
      </trkpt>
      <trkpt lat="49.96892" lon="2.36111">
        <ele>118.7</ele>
        <time>2023-01-25T14:53:40Z</time>
      </trkpt>
      <trkpt lat="49.96892" lon="2.36112">
        <ele>118.7</ele>
        <time>2023-01-25T14:53:41Z</time>
      </trkpt>
      <trkpt lat="49.96891" lon="2.36114">
        <ele>118.7</ele>
        <time>2023-01-25T14:53:42Z</time>
      </trkpt>
      <trkpt lat="49.9689" lon="2.36115">
        <ele>118.7</ele>
        <time>2023-01-25T14:53:43Z</time>
      </trkpt>
      <trkpt lat="49.96889" lon="2.36117">
        <ele>118.6</ele>
        <time>2023-01-25T14:53:44Z</time>
      </trkpt>
      <trkpt lat="49.96889" lon="2.36118">
        <ele>118.6</ele>
        <time>2023-01-25T14:53:45Z</time>
      </trkpt>
      <trkpt lat="49.96888" lon="2.36121">
        <ele>118.6</ele>
        <time>2023-01-25T14:53:47Z</time>
      </trkpt>
      <trkpt lat="49.96887" lon="2.36122">
        <ele>118.6</ele>
        <time>2023-01-25T14:53:48Z</time>
      </trkpt>
      <trkpt lat="49.96886" lon="2.36124">
        <ele>118.6</ele>
        <time>2023-01-25T14:53:49Z</time>
      </trkpt>
      <trkpt lat="49.96885" lon="2.36127">
        <ele>118.5</ele>
        <time>2023-01-25T14:53:50Z</time>
      </trkpt>
      <trkpt lat="49.96885" lon="2.36128">
        <ele>118.5</ele>
        <time>2023-01-25T14:53:51Z</time>
      </trkpt>
      <trkpt lat="49.96884" lon="2.36129">
        <ele>118.5</ele>
        <time>2023-01-25T14:53:52Z</time>
      </trkpt>
      <trkpt lat="49.96883" lon="2.36132">
        <ele>118.5</ele>
        <time>2023-01-25T14:53:53Z</time>
      </trkpt>
      <trkpt lat="49.96882" lon="2.36133">
        <ele>118.5</ele>
        <time>2023-01-25T14:53:55Z</time>
      </trkpt>
      <trkpt lat="49.96881" lon="2.36135">
        <ele>118.5</ele>
        <time>2023-01-25T14:53:56Z</time>
      </trkpt>
      <trkpt lat="49.96881" lon="2.36136">
        <ele>118.5</ele>
        <time>2023-01-25T14:53:57Z</time>
      </trkpt>
      <trkpt lat="49.9688" lon="2.36138">
        <ele>118.4</ele>
        <time>2023-01-25T14:53:58Z</time>
      </trkpt>
      <trkpt lat="49.96878" lon="2.36141">
        <ele>118.4</ele>
        <time>2023-01-25T14:53:59Z</time>
      </trkpt>
      <trkpt lat="49.96878" lon="2.36142">
        <ele>118.4</ele>
        <time>2023-01-25T14:54:01Z</time>
      </trkpt>
      <trkpt lat="49.96877" lon="2.36143">
        <ele>118.4</ele>
        <time>2023-01-25T14:54:02Z</time>
      </trkpt>
      <trkpt lat="49.96876" lon="2.36145">
        <ele>118.4</ele>
        <time>2023-01-25T14:54:03Z</time>
      </trkpt>
      <trkpt lat="49.96875" lon="2.36146">
        <ele>118.4</ele>
        <time>2023-01-25T14:54:04Z</time>
      </trkpt>
      <trkpt lat="49.96874" lon="2.36148">
        <ele>118.4</ele>
        <time>2023-01-25T14:54:05Z</time>
      </trkpt>
      <trkpt lat="49.96874" lon="2.36149">
        <ele>118.4</ele>
        <time>2023-01-25T14:54:06Z</time>
      </trkpt>
      <trkpt lat="49.96873" lon="2.3615">
        <ele>118.4</ele>
        <time>2023-01-25T14:54:07Z</time>
      </trkpt>
      <trkpt lat="49.96872" lon="2.36152">
        <ele>118.4</ele>
        <time>2023-01-25T14:54:08Z</time>
      </trkpt>
      <trkpt lat="49.96871" lon="2.36154">
        <ele>118.3</ele>
        <time>2023-01-25T14:54:09Z</time>
      </trkpt>
      <trkpt lat="49.9687" lon="2.36156">
        <ele>118.3</ele>
        <time>2023-01-25T14:54:10Z</time>
      </trkpt>
      <trkpt lat="49.96869" lon="2.36158">
        <ele>118.3</ele>
        <time>2023-01-25T14:54:12Z</time>
      </trkpt>
      <trkpt lat="49.96869" lon="2.36159">
        <ele>118.3</ele>
        <time>2023-01-25T14:54:13Z</time>
      </trkpt>
      <trkpt lat="49.96868" lon="2.3616">
        <ele>118.3</ele>
        <time>2023-01-25T14:54:14Z</time>
      </trkpt>
      <trkpt lat="49.96867" lon="2.36162">
        <ele>118.3</ele>
        <time>2023-01-25T14:54:15Z</time>
      </trkpt>
      <trkpt lat="49.96866" lon="2.36163">
        <ele>118.3</ele>
        <time>2023-01-25T14:54:16Z</time>
      </trkpt>
      <trkpt lat="49.96866" lon="2.36164">
        <ele>118.3</ele>
        <time>2023-01-25T14:54:17Z</time>
      </trkpt>
      <trkpt lat="49.96865" lon="2.36166">
        <ele>118.3</ele>
        <time>2023-01-25T14:54:18Z</time>
      </trkpt>
      <trkpt lat="49.96864" lon="2.36167">
        <ele>118.3</ele>
        <time>2023-01-25T14:54:19Z</time>
      </trkpt>
      <trkpt lat="49.96863" lon="2.36169">
        <ele>118.3</ele>
        <time>2023-01-25T14:54:20Z</time>
      </trkpt>
      <trkpt lat="49.96862" lon="2.3617">
        <ele>118.3</ele>
        <time>2023-01-25T14:54:22Z</time>
      </trkpt>
      <trkpt lat="49.96861" lon="2.36173">
        <ele>118.3</ele>
        <time>2023-01-25T14:54:23Z</time>
      </trkpt>
      <trkpt lat="49.9686" lon="2.36174">
        <ele>118.3</ele>
        <time>2023-01-25T14:54:24Z</time>
      </trkpt>
      <trkpt lat="49.9686" lon="2.36175">
        <ele>118.3</ele>
        <time>2023-01-25T14:54:25Z</time>
      </trkpt>
      <trkpt lat="49.96859" lon="2.36176">
        <ele>118.3</ele>
        <time>2023-01-25T14:54:26Z</time>
      </trkpt>
      <trkpt lat="49.96859" lon="2.36177">
        <ele>118.3</ele>
        <time>2023-01-25T14:54:27Z</time>
      </trkpt>
      <trkpt lat="49.96859" lon="2.36178">
        <ele>118.3</ele>
        <time>2023-01-25T14:54:28Z</time>
      </trkpt>
      <trkpt lat="49.96858" lon="2.36179">
        <ele>118.3</ele>
        <time>2023-01-25T14:54:29Z</time>
      </trkpt>
      <trkpt lat="49.96858" lon="2.3618">
        <ele>118.3</ele>
        <time>2023-01-25T14:54:31Z</time>
      </trkpt>
      <trkpt lat="49.96857" lon="2.36182">
        <ele>118.3</ele>
        <time>2023-01-25T14:54:32Z</time>
      </trkpt>
      <trkpt lat="49.96856" lon="2.36183">
        <ele>118.3</ele>
        <time>2023-01-25T14:54:33Z</time>
      </trkpt>
      <trkpt lat="49.96856" lon="2.36185">
        <ele>118.3</ele>
        <time>2023-01-25T14:54:34Z</time>
      </trkpt>
      <trkpt lat="49.96855" lon="2.36186">
        <ele>118.3</ele>
        <time>2023-01-25T14:54:35Z</time>
      </trkpt>
      <trkpt lat="49.96854" lon="2.36187">
        <ele>118.3</ele>
        <time>2023-01-25T14:54:36Z</time>
      </trkpt>
      <trkpt lat="49.96853" lon="2.36188">
        <ele>118.3</ele>
        <time>2023-01-25T14:54:37Z</time>
      </trkpt>
      <trkpt lat="49.96853" lon="2.36189">
        <ele>118.3</ele>
        <time>2023-01-25T14:54:38Z</time>
      </trkpt>
      <trkpt lat="49.96852" lon="2.36191">
        <ele>118.3</ele>
        <time>2023-01-25T14:54:40Z</time>
      </trkpt>
      <trkpt lat="49.96851" lon="2.36193">
        <ele>118.3</ele>
        <time>2023-01-25T14:54:41Z</time>
      </trkpt>
      <trkpt lat="49.9685" lon="2.36194">
        <ele>118.4</ele>
        <time>2023-01-25T14:54:42Z</time>
      </trkpt>
      <trkpt lat="49.96848" lon="2.36195">
        <ele>118.4</ele>
        <time>2023-01-25T14:54:43Z</time>
      </trkpt>
      <trkpt lat="49.96847" lon="2.36196">
        <ele>118.4</ele>
        <time>2023-01-25T14:54:44Z</time>
      </trkpt>
      <trkpt lat="49.96846" lon="2.36196">
        <ele>118.4</ele>
        <time>2023-01-25T14:54:45Z</time>
      </trkpt>
      <trkpt lat="49.96845" lon="2.36196">
        <ele>118.4</ele>
        <time>2023-01-25T14:54:47Z</time>
      </trkpt>
      <trkpt lat="49.96844" lon="2.36196">
        <ele>118.5</ele>
        <time>2023-01-25T14:54:48Z</time>
      </trkpt>
      <trkpt lat="49.96842" lon="2.36195">
        <ele>118.5</ele>
        <time>2023-01-25T14:54:49Z</time>
      </trkpt>
      <trkpt lat="49.96841" lon="2.36193">
        <ele>118.5</ele>
        <time>2023-01-25T14:54:50Z</time>
      </trkpt>
      <trkpt lat="49.9684" lon="2.36192">
        <ele>118.6</ele>
        <time>2023-01-25T14:54:51Z</time>
      </trkpt>
      <trkpt lat="49.96839" lon="2.36191">
        <ele>118.6</ele>
        <time>2023-01-25T14:54:52Z</time>
      </trkpt>
      <trkpt lat="49.96838" lon="2.3619">
        <ele>118.6</ele>
        <time>2023-01-25T14:54:54Z</time>
      </trkpt>
      <trkpt lat="49.96836" lon="2.36188">
        <ele>118.6</ele>
        <time>2023-01-25T14:54:55Z</time>
      </trkpt>
      <trkpt lat="49.96836" lon="2.36187">
        <ele>118.7</ele>
        <time>2023-01-25T14:54:56Z</time>
      </trkpt>
      <trkpt lat="49.96835" lon="2.36186">
        <ele>118.7</ele>
        <time>2023-01-25T14:54:57Z</time>
      </trkpt>
      <trkpt lat="49.96833" lon="2.36185">
        <ele>118.7</ele>
        <time>2023-01-25T14:54:58Z</time>
      </trkpt>
      <trkpt lat="49.96833" lon="2.36184">
        <ele>118.7</ele>
        <time>2023-01-25T14:54:59Z</time>
      </trkpt>
      <trkpt lat="49.96832" lon="2.36183">
        <ele>118.8</ele>
        <time>2023-01-25T14:55:00Z</time>
      </trkpt>
      <trkpt lat="49.9683" lon="2.36181">
        <ele>118.8</ele>
        <time>2023-01-25T14:55:01Z</time>
      </trkpt>
      <trkpt lat="49.9683" lon="2.36181">
        <ele>118.8</ele>
        <time>2023-01-25T14:55:03Z</time>
      </trkpt>
      <trkpt lat="49.96829" lon="2.3618">
        <ele>118.8</ele>
        <time>2023-01-25T14:55:04Z</time>
      </trkpt>
      <trkpt lat="49.96827" lon="2.36178">
        <ele>118.9</ele>
        <time>2023-01-25T14:55:05Z</time>
      </trkpt>
      <trkpt lat="49.96827" lon="2.36177">
        <ele>118.9</ele>
        <time>2023-01-25T14:55:06Z</time>
      </trkpt>
      <trkpt lat="49.96826" lon="2.36176">
        <ele>118.9</ele>
        <time>2023-01-25T14:55:07Z</time>
      </trkpt>
      <trkpt lat="49.96825" lon="2.36175">
        <ele>118.9</ele>
        <time>2023-01-25T14:55:09Z</time>
      </trkpt>
      <trkpt lat="49.96823" lon="2.36174">
        <ele>119</ele>
        <time>2023-01-25T14:55:10Z</time>
      </trkpt>
      <trkpt lat="49.96821" lon="2.36173">
        <ele>119</ele>
        <time>2023-01-25T14:55:11Z</time>
      </trkpt>
      <trkpt lat="49.96821" lon="2.36172">
        <ele>119</ele>
        <time>2023-01-25T14:55:13Z</time>
      </trkpt>
      <trkpt lat="49.9682" lon="2.36172">
        <ele>119</ele>
        <time>2023-01-25T14:55:14Z</time>
      </trkpt>
      <trkpt lat="49.96818" lon="2.3617">
        <ele>119.1</ele>
        <time>2023-01-25T14:55:15Z</time>
      </trkpt>
      <trkpt lat="49.96817" lon="2.36169">
        <ele>119.1</ele>
        <time>2023-01-25T14:55:16Z</time>
      </trkpt>
      <trkpt lat="49.96817" lon="2.36169">
        <ele>119.1</ele>
        <time>2023-01-25T14:55:17Z</time>
      </trkpt>
      <trkpt lat="49.96815" lon="2.36167">
        <ele>119.1</ele>
        <time>2023-01-25T14:55:18Z</time>
      </trkpt>
      <trkpt lat="49.96814" lon="2.36167">
        <ele>119.1</ele>
        <time>2023-01-25T14:55:19Z</time>
      </trkpt>
      <trkpt lat="49.96813" lon="2.36166">
        <ele>119.2</ele>
        <time>2023-01-25T14:55:20Z</time>
      </trkpt>
      <trkpt lat="49.96811" lon="2.36165">
        <ele>119.2</ele>
        <time>2023-01-25T14:55:22Z</time>
      </trkpt>
      <trkpt lat="49.96811" lon="2.36164">
        <ele>119.2</ele>
        <time>2023-01-25T14:55:23Z</time>
      </trkpt>
      <trkpt lat="49.9681" lon="2.36164">
        <ele>119.2</ele>
        <time>2023-01-25T14:55:24Z</time>
      </trkpt>
      <trkpt lat="49.96809" lon="2.36163">
        <ele>119.2</ele>
        <time>2023-01-25T14:55:25Z</time>
      </trkpt>
      <trkpt lat="49.96808" lon="2.36162">
        <ele>119.3</ele>
        <time>2023-01-25T14:55:26Z</time>
      </trkpt>
      <trkpt lat="49.96807" lon="2.36162">
        <ele>119.3</ele>
        <time>2023-01-25T14:55:27Z</time>
      </trkpt>
      <trkpt lat="49.96806" lon="2.36161">
        <ele>119.3</ele>
        <time>2023-01-25T14:55:28Z</time>
      </trkpt>
      <trkpt lat="49.96806" lon="2.3616">
        <ele>119.3</ele>
        <time>2023-01-25T14:55:29Z</time>
      </trkpt>
      <trkpt lat="49.96804" lon="2.36159">
        <ele>119.3</ele>
        <time>2023-01-25T14:55:31Z</time>
      </trkpt>
      <trkpt lat="49.96804" lon="2.36158">
        <ele>119.3</ele>
        <time>2023-01-25T14:55:32Z</time>
      </trkpt>
      <trkpt lat="49.96803" lon="2.36157">
        <ele>119.4</ele>
        <time>2023-01-25T14:55:33Z</time>
      </trkpt>
      <trkpt lat="49.96802" lon="2.36157">
        <ele>119.4</ele>
        <time>2023-01-25T14:55:34Z</time>
      </trkpt>
      <trkpt lat="49.96801" lon="2.36156">
        <ele>119.4</ele>
        <time>2023-01-25T14:55:35Z</time>
      </trkpt>
      <trkpt lat="49.968" lon="2.36155">
        <ele>119.4</ele>
        <time>2023-01-25T14:55:36Z</time>
      </trkpt>
      <trkpt lat="49.96799" lon="2.36154">
        <ele>119.4</ele>
        <time>2023-01-25T14:55:37Z</time>
      </trkpt>
      <trkpt lat="49.96798" lon="2.36154">
        <ele>119.5</ele>
        <time>2023-01-25T14:55:39Z</time>
      </trkpt>
      <trkpt lat="49.96797" lon="2.36153">
        <ele>119.5</ele>
        <time>2023-01-25T14:55:40Z</time>
      </trkpt>
      <trkpt lat="49.96796" lon="2.36152">
        <ele>119.5</ele>
        <time>2023-01-25T14:55:41Z</time>
      </trkpt>
      <trkpt lat="49.96795" lon="2.36152">
        <ele>119.5</ele>
        <time>2023-01-25T14:55:42Z</time>
      </trkpt>
      <trkpt lat="49.96794" lon="2.36151">
        <ele>119.5</ele>
        <time>2023-01-25T14:55:43Z</time>
      </trkpt>
      <trkpt lat="49.96793" lon="2.36151">
        <ele>119.6</ele>
        <time>2023-01-25T14:55:44Z</time>
      </trkpt>
      <trkpt lat="49.96792" lon="2.36151">
        <ele>119.6</ele>
        <time>2023-01-25T14:55:45Z</time>
      </trkpt>
      <trkpt lat="49.96791" lon="2.3615">
        <ele>119.6</ele>
        <time>2023-01-25T14:55:47Z</time>
      </trkpt>
      <trkpt lat="49.9679" lon="2.3615">
        <ele>119.6</ele>
        <time>2023-01-25T14:55:48Z</time>
      </trkpt>
      <trkpt lat="49.96789" lon="2.36149">
        <ele>119.6</ele>
        <time>2023-01-25T14:55:49Z</time>
      </trkpt>
      <trkpt lat="49.96788" lon="2.36149">
        <ele>119.7</ele>
        <time>2023-01-25T14:55:50Z</time>
      </trkpt>
      <trkpt lat="49.96787" lon="2.36149">
        <ele>119.7</ele>
        <time>2023-01-25T14:55:51Z</time>
      </trkpt>
      <trkpt lat="49.96786" lon="2.36148">
        <ele>119.7</ele>
        <time>2023-01-25T14:55:52Z</time>
      </trkpt>
      <trkpt lat="49.96785" lon="2.36148">
        <ele>119.7</ele>
        <time>2023-01-25T14:55:54Z</time>
      </trkpt>
      <trkpt lat="49.96783" lon="2.36148">
        <ele>119.7</ele>
        <time>2023-01-25T14:55:55Z</time>
      </trkpt>
      <trkpt lat="49.96782" lon="2.36148">
        <ele>119.8</ele>
        <time>2023-01-25T14:55:56Z</time>
      </trkpt>
      <trkpt lat="49.96781" lon="2.36148">
        <ele>119.8</ele>
        <time>2023-01-25T14:55:57Z</time>
      </trkpt>
      <trkpt lat="49.9678" lon="2.36148">
        <ele>119.8</ele>
        <time>2023-01-25T14:55:58Z</time>
      </trkpt>
      <trkpt lat="49.96778" lon="2.36148">
        <ele>119.9</ele>
        <time>2023-01-25T14:55:59Z</time>
      </trkpt>
      <trkpt lat="49.96777" lon="2.36148">
        <ele>119.9</ele>
        <time>2023-01-25T14:56:01Z</time>
      </trkpt>
      <trkpt lat="49.96776" lon="2.36148">
        <ele>119.9</ele>
        <time>2023-01-25T14:56:02Z</time>
      </trkpt>
      <trkpt lat="49.96775" lon="2.36148">
        <ele>119.9</ele>
        <time>2023-01-25T14:56:03Z</time>
      </trkpt>
      <trkpt lat="49.96774" lon="2.36148">
        <ele>119.9</ele>
        <time>2023-01-25T14:56:04Z</time>
      </trkpt>
      <trkpt lat="49.96773" lon="2.36148">
        <ele>120</ele>
        <time>2023-01-25T14:56:05Z</time>
      </trkpt>
      <trkpt lat="49.96771" lon="2.36147">
        <ele>120</ele>
        <time>2023-01-25T14:56:06Z</time>
      </trkpt>
      <trkpt lat="49.9677" lon="2.36147">
        <ele>120</ele>
        <time>2023-01-25T14:56:08Z</time>
      </trkpt>
      <trkpt lat="49.96769" lon="2.36147">
        <ele>120</ele>
        <time>2023-01-25T14:56:09Z</time>
      </trkpt>
      <trkpt lat="49.96768" lon="2.36147">
        <ele>120.1</ele>
        <time>2023-01-25T14:56:10Z</time>
      </trkpt>
      <trkpt lat="49.96767" lon="2.36147">
        <ele>120.1</ele>
        <time>2023-01-25T14:56:11Z</time>
      </trkpt>
      <trkpt lat="49.96766" lon="2.36147">
        <ele>120.1</ele>
        <time>2023-01-25T14:56:12Z</time>
      </trkpt>
      <trkpt lat="49.96765" lon="2.36147">
        <ele>120.1</ele>
        <time>2023-01-25T14:56:13Z</time>
      </trkpt>
      <trkpt lat="49.96764" lon="2.36147">
        <ele>120.2</ele>
        <time>2023-01-25T14:56:14Z</time>
      </trkpt>
      <trkpt lat="49.96763" lon="2.36147">
        <ele>120.2</ele>
        <time>2023-01-25T14:56:15Z</time>
      </trkpt>
      <trkpt lat="49.9676" lon="2.36147">
        <ele>120.2</ele>
        <time>2023-01-25T14:56:16Z</time>
      </trkpt>
      <trkpt lat="49.9676" lon="2.36147">
        <ele>120.3</ele>
        <time>2023-01-25T14:56:18Z</time>
      </trkpt>
      <trkpt lat="49.96759" lon="2.36147">
        <ele>120.3</ele>
        <time>2023-01-25T14:56:19Z</time>
      </trkpt>
      <trkpt lat="49.96757" lon="2.36147">
        <ele>120.3</ele>
        <time>2023-01-25T14:56:20Z</time>
      </trkpt>
      <trkpt lat="49.96756" lon="2.36147">
        <ele>120.3</ele>
        <time>2023-01-25T14:56:21Z</time>
      </trkpt>
      <trkpt lat="49.96755" lon="2.36147">
        <ele>120.3</ele>
        <time>2023-01-25T14:56:22Z</time>
      </trkpt>
      <trkpt lat="49.96754" lon="2.36147">
        <ele>120.3</ele>
        <time>2023-01-25T14:56:23Z</time>
      </trkpt>
      <trkpt lat="49.96753" lon="2.36147">
        <ele>120.4</ele>
        <time>2023-01-25T14:56:24Z</time>
      </trkpt>
      <trkpt lat="49.96752" lon="2.36147">
        <ele>120.4</ele>
        <time>2023-01-25T14:56:26Z</time>
      </trkpt>
      <trkpt lat="49.96751" lon="2.36147">
        <ele>120.4</ele>
        <time>2023-01-25T14:56:27Z</time>
      </trkpt>
      <trkpt lat="49.9675" lon="2.36147">
        <ele>120.4</ele>
        <time>2023-01-25T14:56:28Z</time>
      </trkpt>
      <trkpt lat="49.96749" lon="2.36147">
        <ele>120.4</ele>
        <time>2023-01-25T14:56:29Z</time>
      </trkpt>
      <trkpt lat="49.96748" lon="2.36146">
        <ele>120.4</ele>
        <time>2023-01-25T14:56:30Z</time>
      </trkpt>
      <trkpt lat="49.96747" lon="2.36145">
        <ele>120.4</ele>
        <time>2023-01-25T14:56:31Z</time>
      </trkpt>
      <trkpt lat="49.96745" lon="2.36143">
        <ele>120.5</ele>
        <time>2023-01-25T14:56:33Z</time>
      </trkpt>
      <trkpt lat="49.96744" lon="2.36142">
        <ele>120.5</ele>
        <time>2023-01-25T14:56:34Z</time>
      </trkpt>
      <trkpt lat="49.96743" lon="2.36142">
        <ele>120.5</ele>
        <time>2023-01-25T14:56:35Z</time>
      </trkpt>
      <trkpt lat="49.96743" lon="2.36141">
        <ele>120.5</ele>
        <time>2023-01-25T14:56:36Z</time>
      </trkpt>
      <trkpt lat="49.96741" lon="2.36141">
        <ele>120.5</ele>
        <time>2023-01-25T14:56:37Z</time>
      </trkpt>
      <trkpt lat="49.9674" lon="2.36141">
        <ele>120.5</ele>
        <time>2023-01-25T14:56:38Z</time>
      </trkpt>
      <trkpt lat="49.96739" lon="2.36141">
        <ele>120.5</ele>
        <time>2023-01-25T14:56:40Z</time>
      </trkpt>
      <trkpt lat="49.96737" lon="2.3614">
        <ele>120.5</ele>
        <time>2023-01-25T14:56:41Z</time>
      </trkpt>
      <trkpt lat="49.96736" lon="2.3614">
        <ele>120.5</ele>
        <time>2023-01-25T14:56:42Z</time>
      </trkpt>
      <trkpt lat="49.96735" lon="2.3614">
        <ele>120.5</ele>
        <time>2023-01-25T14:56:43Z</time>
      </trkpt>
      <trkpt lat="49.96733" lon="2.3614">
        <ele>120.4</ele>
        <time>2023-01-25T14:56:44Z</time>
      </trkpt>
      <trkpt lat="49.96732" lon="2.3614">
        <ele>120.4</ele>
        <time>2023-01-25T14:56:46Z</time>
      </trkpt>
      <trkpt lat="49.96731" lon="2.3614">
        <ele>120.4</ele>
        <time>2023-01-25T14:56:47Z</time>
      </trkpt>
      <trkpt lat="49.96731" lon="2.36139">
        <ele>120.4</ele>
        <time>2023-01-25T14:56:48Z</time>
      </trkpt>
      <trkpt lat="49.96731" lon="2.36137">
        <ele>120.4</ele>
        <time>2023-01-25T14:56:49Z</time>
      </trkpt>
      <trkpt lat="49.96731" lon="2.36136">
        <ele>120.4</ele>
        <time>2023-01-25T14:56:50Z</time>
      </trkpt>
      <trkpt lat="49.96732" lon="2.36135">
        <ele>120.4</ele>
        <time>2023-01-25T14:56:51Z</time>
      </trkpt>
      <trkpt lat="49.96732" lon="2.36135">
        <ele>120.4</ele>
        <time>2023-01-25T14:56:52Z</time>
      </trkpt>
      <trkpt lat="49.96733" lon="2.36135">
        <ele>120.4</ele>
        <time>2023-01-25T14:56:54Z</time>
      </trkpt>
      <trkpt lat="49.96733" lon="2.36135">
        <ele>120.4</ele>
        <time>2023-01-25T14:56:55Z</time>
      </trkpt>
      <trkpt lat="49.96733" lon="2.36135">
        <ele>120.4</ele>
        <time>2023-01-25T14:56:56Z</time>
      </trkpt>
      <trkpt lat="49.96733" lon="2.36135">
        <ele>120.4</ele>
        <time>2023-01-25T14:56:58Z</time>
      </trkpt>
      <trkpt lat="49.96733" lon="2.36135">
        <ele>120.4</ele>
        <time>2023-01-25T14:56:59Z</time>
      </trkpt>
      <trkpt lat="49.96733" lon="2.36135">
        <ele>120.4</ele>
        <time>2023-01-25T14:57:00Z</time>
      </trkpt>
      <trkpt lat="49.96733" lon="2.36135">
        <ele>120.4</ele>
        <time>2023-01-25T14:57:02Z</time>
      </trkpt>
      <trkpt lat="49.96733" lon="2.36135">
        <ele>120.4</ele>
        <time>2023-01-25T14:57:03Z</time>
      </trkpt>
      <trkpt lat="49.96733" lon="2.36135">
        <ele>120.4</ele>
        <time>2023-01-25T14:57:04Z</time>
      </trkpt>
      <trkpt lat="49.96733" lon="2.36135">
        <ele>120.4</ele>
        <time>2023-01-25T14:57:06Z</time>
      </trkpt>
      <trkpt lat="49.96733" lon="2.36135">
        <ele>120.4</ele>
        <time>2023-01-25T14:57:07Z</time>
      </trkpt>
      <trkpt lat="49.96734" lon="2.36135">
        <ele>120.4</ele>
        <time>2023-01-25T14:57:08Z</time>
      </trkpt>
      <trkpt lat="49.96734" lon="2.36136">
        <ele>120.4</ele>
        <time>2023-01-25T14:57:09Z</time>
      </trkpt>
      <trkpt lat="49.96734" lon="2.36136">
        <ele>120.4</ele>
        <time>2023-01-25T14:57:10Z</time>
      </trkpt>
      <trkpt lat="49.96734" lon="2.36136">
        <ele>120.4</ele>
        <time>2023-01-25T14:57:11Z</time>
      </trkpt>
      <trkpt lat="49.96735" lon="2.36136">
        <ele>120.4</ele>
        <time>2023-01-25T14:57:12Z</time>
      </trkpt>
      <trkpt lat="49.96735" lon="2.36136">
        <ele>120.4</ele>
        <time>2023-01-25T14:57:13Z</time>
      </trkpt>
      <trkpt lat="49.96735" lon="2.36136">
        <ele>120.4</ele>
        <time>2023-01-25T14:57:14Z</time>
      </trkpt>
      <trkpt lat="49.96735" lon="2.36136">
        <ele>120.4</ele>
        <time>2023-01-25T14:57:15Z</time>
      </trkpt>
      <trkpt lat="49.96735" lon="2.36136">
        <ele>120.4</ele>
        <time>2023-01-25T14:57:16Z</time>
      </trkpt>
      <trkpt lat="49.96735" lon="2.36136">
        <ele>120.4</ele>
        <time>2023-01-25T14:57:17Z</time>
      </trkpt>
      <trkpt lat="49.96735" lon="2.36136">
        <ele>120.4</ele>
        <time>2023-01-25T14:57:18Z</time>
      </trkpt>
      <trkpt lat="49.96735" lon="2.36136">
        <ele>120.4</ele>
        <time>2023-01-25T14:57:19Z</time>
      </trkpt>
      <trkpt lat="49.96735" lon="2.36136">
        <ele>120.4</ele>
        <time>2023-01-25T14:57:20Z</time>
      </trkpt>
      <trkpt lat="49.96735" lon="2.36136">
        <ele>120.4</ele>
        <time>2023-01-25T14:57:21Z</time>
      </trkpt>
      <trkpt lat="49.96735" lon="2.36136">
        <ele>120.4</ele>
        <time>2023-01-25T14:57:22Z</time>
      </trkpt>
      <trkpt lat="49.96735" lon="2.36136">
        <ele>120.4</ele>
        <time>2023-01-25T14:57:23Z</time>
      </trkpt>
      <trkpt lat="49.96735" lon="2.36136">
        <ele>120.4</ele>
        <time>2023-01-25T14:57:24Z</time>
      </trkpt>
      <trkpt lat="49.96735" lon="2.36136">
        <ele>120.4</ele>
        <time>2023-01-25T14:57:25Z</time>
      </trkpt>
      <trkpt lat="49.96735" lon="2.36136">
        <ele>120.4</ele>
        <time>2023-01-25T14:57:26Z</time>
      </trkpt>
      <trkpt lat="49.96735" lon="2.36136">
        <ele>120.4</ele>
        <time>2023-01-25T14:57:27Z</time>
      </trkpt>
      <trkpt lat="49.96735" lon="2.36136">
        <ele>120.4</ele>
        <time>2023-01-25T14:57:28Z</time>
      </trkpt>
      <trkpt lat="49.96735" lon="2.36136">
        <ele>120.4</ele>
        <time>2023-01-25T14:57:29Z</time>
      </trkpt>
      <trkpt lat="49.96735" lon="2.36136">
        <ele>120.4</ele>
        <time>2023-01-25T14:57:30Z</time>
      </trkpt>
      <trkpt lat="49.96735" lon="2.36136">
        <ele>120.4</ele>
        <time>2023-01-25T14:57:31Z</time>
      </trkpt>
      <trkpt lat="49.96735" lon="2.36136">
        <ele>120.4</ele>
        <time>2023-01-25T14:57:32Z</time>
      </trkpt>
      <trkpt lat="49.96735" lon="2.36136">
        <ele>120.4</ele>
        <time>2023-01-25T14:57:33Z</time>
      </trkpt>
      <trkpt lat="49.96735" lon="2.36136">
        <ele>120.4</ele>
        <time>2023-01-25T14:57:34Z</time>
      </trkpt>
      <trkpt lat="49.96735" lon="2.36136">
        <ele>120.4</ele>
        <time>2023-01-25T14:57:35Z</time>
      </trkpt>
      <trkpt lat="49.96735" lon="2.36136">
        <ele>120.4</ele>
        <time>2023-01-25T14:57:36Z</time>
      </trkpt>
      <trkpt lat="49.96735" lon="2.36136">
        <ele>120.4</ele>
        <time>2023-01-25T14:57:37Z</time>
      </trkpt>
      <trkpt lat="49.96735" lon="2.36136">
        <ele>120.4</ele>
        <time>2023-01-25T14:57:38Z</time>
      </trkpt>
      <trkpt lat="49.96735" lon="2.36136">
        <ele>120.4</ele>
        <time>2023-01-25T14:57:39Z</time>
      </trkpt>
      <trkpt lat="49.96735" lon="2.36136">
        <ele>120.4</ele>
        <time>2023-01-25T14:57:40Z</time>
      </trkpt>
      <trkpt lat="49.96735" lon="2.36136">
        <ele>120.4</ele>
        <time>2023-01-25T14:57:41Z</time>
      </trkpt>
      <trkpt lat="49.96735" lon="2.36136">
        <ele>120.4</ele>
        <time>2023-01-25T14:57:42Z</time>
      </trkpt>
      <trkpt lat="49.96735" lon="2.36138">
        <ele>120.4</ele>
        <time>2023-01-25T14:57:43Z</time>
      </trkpt>
      <trkpt lat="49.96735" lon="2.3614">
        <ele>120.4</ele>
        <time>2023-01-25T14:57:44Z</time>
      </trkpt>
      <trkpt lat="49.96735" lon="2.36141">
        <ele>120.4</ele>
        <time>2023-01-25T14:57:45Z</time>
      </trkpt>
      <trkpt lat="49.96733" lon="2.36139">
        <ele>120.4</ele>
        <time>2023-01-25T14:57:47Z</time>
      </trkpt>
      <trkpt lat="49.96733" lon="2.3614">
        <ele>120.4</ele>
        <time>2023-01-25T14:57:48Z</time>
      </trkpt>
      <trkpt lat="49.96732" lon="2.36141">
        <ele>120.4</ele>
        <time>2023-01-25T14:57:49Z</time>
      </trkpt>
      <trkpt lat="49.96732" lon="2.36141">
        <ele>120.4</ele>
        <time>2023-01-25T14:57:50Z</time>
      </trkpt>
      <trkpt lat="49.96731" lon="2.36141">
        <ele>120.4</ele>
        <time>2023-01-25T14:57:51Z</time>
      </trkpt>
      <trkpt lat="49.96731" lon="2.36141">
        <ele>120.4</ele>
        <time>2023-01-25T14:57:52Z</time>
      </trkpt>
      <trkpt lat="49.9673" lon="2.3614">
        <ele>120.4</ele>
        <time>2023-01-25T14:57:54Z</time>
      </trkpt>
      <trkpt lat="49.9673" lon="2.3614">
        <ele>120.4</ele>
        <time>2023-01-25T14:57:55Z</time>
      </trkpt>
      <trkpt lat="49.9673" lon="2.3614">
        <ele>120.4</ele>
        <time>2023-01-25T14:57:56Z</time>
      </trkpt>
      <trkpt lat="49.9673" lon="2.3614">
        <ele>120.4</ele>
        <time>2023-01-25T14:57:58Z</time>
      </trkpt>
      <trkpt lat="49.9673" lon="2.3614">
        <ele>120.4</ele>
        <time>2023-01-25T14:57:59Z</time>
      </trkpt>
      <trkpt lat="49.9673" lon="2.3614">
        <ele>120.4</ele>
        <time>2023-01-25T14:58:00Z</time>
      </trkpt>
      <trkpt lat="49.9673" lon="2.3614">
        <ele>120.4</ele>
        <time>2023-01-25T14:58:01Z</time>
      </trkpt>
      <trkpt lat="49.9673" lon="2.3614">
        <ele>120.4</ele>
        <time>2023-01-25T14:58:03Z</time>
      </trkpt>
      <trkpt lat="49.96729" lon="2.3614">
        <ele>120.4</ele>
        <time>2023-01-25T14:58:05Z</time>
      </trkpt>
      <trkpt lat="49.96729" lon="2.3614">
        <ele>120.4</ele>
        <time>2023-01-25T14:58:06Z</time>
      </trkpt>
      <trkpt lat="49.96728" lon="2.36141">
        <ele>120.4</ele>
        <time>2023-01-25T14:58:07Z</time>
      </trkpt>
      <trkpt lat="49.96728" lon="2.36141">
        <ele>120.4</ele>
        <time>2023-01-25T14:58:08Z</time>
      </trkpt>
      <trkpt lat="49.96727" lon="2.36142">
        <ele>120.4</ele>
        <time>2023-01-25T14:58:09Z</time>
      </trkpt>
      <trkpt lat="49.96727" lon="2.36142">
        <ele>120.4</ele>
        <time>2023-01-25T14:58:11Z</time>
      </trkpt>
      <trkpt lat="49.96727" lon="2.36143">
        <ele>120.3</ele>
        <time>2023-01-25T14:58:12Z</time>
      </trkpt>
      <trkpt lat="49.96726" lon="2.36143">
        <ele>120.3</ele>
        <time>2023-01-25T14:58:13Z</time>
      </trkpt>
      <trkpt lat="49.96726" lon="2.36142">
        <ele>120.3</ele>
        <time>2023-01-25T14:58:14Z</time>
      </trkpt>
      <trkpt lat="49.96725" lon="2.36141">
        <ele>120.3</ele>
        <time>2023-01-25T14:58:16Z</time>
      </trkpt>
      <trkpt lat="49.96725" lon="2.36141">
        <ele>120.3</ele>
        <time>2023-01-25T14:58:17Z</time>
      </trkpt>
      <trkpt lat="49.96724" lon="2.36141">
        <ele>120.3</ele>
        <time>2023-01-25T14:58:18Z</time>
      </trkpt>
      <trkpt lat="49.96724" lon="2.36141">
        <ele>120.3</ele>
        <time>2023-01-25T14:58:20Z</time>
      </trkpt>
      <trkpt lat="49.96723" lon="2.36141">
        <ele>120.3</ele>
        <time>2023-01-25T14:58:21Z</time>
      </trkpt>
      <trkpt lat="49.96722" lon="2.36141">
        <ele>120.3</ele>
        <time>2023-01-25T14:58:22Z</time>
      </trkpt>
      <trkpt lat="49.96722" lon="2.36141">
        <ele>120.3</ele>
        <time>2023-01-25T14:58:23Z</time>
      </trkpt>
      <trkpt lat="49.96721" lon="2.36142">
        <ele>120.3</ele>
        <time>2023-01-25T14:58:25Z</time>
      </trkpt>
      <trkpt lat="49.9672" lon="2.36142">
        <ele>120.3</ele>
        <time>2023-01-25T14:58:26Z</time>
      </trkpt>
      <trkpt lat="49.96719" lon="2.36142">
        <ele>120.3</ele>
        <time>2023-01-25T14:58:27Z</time>
      </trkpt>
      <trkpt lat="49.96719" lon="2.36142">
        <ele>120.3</ele>
        <time>2023-01-25T14:58:28Z</time>
      </trkpt>
      <trkpt lat="49.96718" lon="2.36143">
        <ele>120.3</ele>
        <time>2023-01-25T14:58:29Z</time>
      </trkpt>
      <trkpt lat="49.96717" lon="2.36143">
        <ele>120.3</ele>
        <time>2023-01-25T14:58:30Z</time>
      </trkpt>
      <trkpt lat="49.96717" lon="2.36143">
        <ele>120.3</ele>
        <time>2023-01-25T14:58:31Z</time>
      </trkpt>
      <trkpt lat="49.96716" lon="2.36143">
        <ele>120.3</ele>
        <time>2023-01-25T14:58:33Z</time>
      </trkpt>
      <trkpt lat="49.96715" lon="2.36144">
        <ele>120.3</ele>
        <time>2023-01-25T14:58:34Z</time>
      </trkpt>
      <trkpt lat="49.96714" lon="2.36143">
        <ele>120.3</ele>
        <time>2023-01-25T14:58:35Z</time>
      </trkpt>
      <trkpt lat="49.96713" lon="2.36143">
        <ele>120.3</ele>
        <time>2023-01-25T14:58:37Z</time>
      </trkpt>
      <trkpt lat="49.96712" lon="2.36144">
        <ele>120.3</ele>
        <time>2023-01-25T14:58:38Z</time>
      </trkpt>
      <trkpt lat="49.96712" lon="2.36144">
        <ele>120.3</ele>
        <time>2023-01-25T14:58:39Z</time>
      </trkpt>
      <trkpt lat="49.96711" lon="2.36143">
        <ele>120.2</ele>
        <time>2023-01-25T14:58:40Z</time>
      </trkpt>
      <trkpt lat="49.9671" lon="2.36143">
        <ele>120.2</ele>
        <time>2023-01-25T14:58:41Z</time>
      </trkpt>
      <trkpt lat="49.96709" lon="2.36142">
        <ele>120.2</ele>
        <time>2023-01-25T14:58:42Z</time>
      </trkpt>
      <trkpt lat="49.96708" lon="2.36141">
        <ele>120.2</ele>
        <time>2023-01-25T14:58:44Z</time>
      </trkpt>
      <trkpt lat="49.96707" lon="2.3614">
        <ele>120.2</ele>
        <time>2023-01-25T14:58:46Z</time>
      </trkpt>
      <trkpt lat="49.96706" lon="2.36139">
        <ele>120.2</ele>
        <time>2023-01-25T14:58:47Z</time>
      </trkpt>
      <trkpt lat="49.96705" lon="2.36138">
        <ele>120.2</ele>
        <time>2023-01-25T14:58:48Z</time>
      </trkpt>
      <trkpt lat="49.96704" lon="2.36138">
        <ele>120.2</ele>
        <time>2023-01-25T14:58:49Z</time>
      </trkpt>
      <trkpt lat="49.96704" lon="2.36138">
        <ele>120.2</ele>
        <time>2023-01-25T14:58:50Z</time>
      </trkpt>
      <trkpt lat="49.96703" lon="2.36137">
        <ele>120.2</ele>
        <time>2023-01-25T14:58:51Z</time>
      </trkpt>
      <trkpt lat="49.96702" lon="2.36136">
        <ele>120.2</ele>
        <time>2023-01-25T14:58:53Z</time>
      </trkpt>
      <trkpt lat="49.96701" lon="2.36134">
        <ele>120.2</ele>
        <time>2023-01-25T14:58:54Z</time>
      </trkpt>
      <trkpt lat="49.96701" lon="2.36133">
        <ele>120.1</ele>
        <time>2023-01-25T14:58:56Z</time>
      </trkpt>
      <trkpt lat="49.96701" lon="2.36133">
        <ele>120.1</ele>
        <time>2023-01-25T14:58:57Z</time>
      </trkpt>
      <trkpt lat="49.96699" lon="2.36134">
        <ele>120.1</ele>
        <time>2023-01-25T14:58:58Z</time>
      </trkpt>
      <trkpt lat="49.96698" lon="2.36134">
        <ele>120.1</ele>
        <time>2023-01-25T14:58:59Z</time>
      </trkpt>
      <trkpt lat="49.96696" lon="2.36134">
        <ele>120.1</ele>
        <time>2023-01-25T14:59:00Z</time>
      </trkpt>
      <trkpt lat="49.96695" lon="2.36134">
        <ele>120.1</ele>
        <time>2023-01-25T14:59:01Z</time>
      </trkpt>
      <trkpt lat="49.96694" lon="2.36135">
        <ele>120</ele>
        <time>2023-01-25T14:59:02Z</time>
      </trkpt>
      <trkpt lat="49.96693" lon="2.36135">
        <ele>120</ele>
        <time>2023-01-25T14:59:04Z</time>
      </trkpt>
      <trkpt lat="49.96691" lon="2.36135">
        <ele>120</ele>
        <time>2023-01-25T14:59:05Z</time>
      </trkpt>
      <trkpt lat="49.9669" lon="2.36135">
        <ele>120</ele>
        <time>2023-01-25T14:59:06Z</time>
      </trkpt>
      <trkpt lat="49.96689" lon="2.36136">
        <ele>120</ele>
        <time>2023-01-25T14:59:07Z</time>
      </trkpt>
      <trkpt lat="49.96688" lon="2.36136">
        <ele>120</ele>
        <time>2023-01-25T14:59:08Z</time>
      </trkpt>
      <trkpt lat="49.96687" lon="2.36136">
        <ele>119.9</ele>
        <time>2023-01-25T14:59:09Z</time>
      </trkpt>
      <trkpt lat="49.96686" lon="2.36136">
        <ele>119.9</ele>
        <time>2023-01-25T14:59:10Z</time>
      </trkpt>
      <trkpt lat="49.96684" lon="2.36136">
        <ele>119.9</ele>
        <time>2023-01-25T14:59:12Z</time>
      </trkpt>
      <trkpt lat="49.96683" lon="2.36136">
        <ele>119.9</ele>
        <time>2023-01-25T14:59:13Z</time>
      </trkpt>
      <trkpt lat="49.96682" lon="2.36136">
        <ele>119.9</ele>
        <time>2023-01-25T14:59:14Z</time>
      </trkpt>
      <trkpt lat="49.96681" lon="2.36136">
        <ele>119.8</ele>
        <time>2023-01-25T14:59:15Z</time>
      </trkpt>
      <trkpt lat="49.96679" lon="2.36135">
        <ele>119.8</ele>
        <time>2023-01-25T14:59:17Z</time>
      </trkpt>
      <trkpt lat="49.96678" lon="2.36135">
        <ele>119.8</ele>
        <time>2023-01-25T14:59:18Z</time>
      </trkpt>
      <trkpt lat="49.96677" lon="2.36135">
        <ele>119.8</ele>
        <time>2023-01-25T14:59:19Z</time>
      </trkpt>
      <trkpt lat="49.96676" lon="2.36134">
        <ele>119.8</ele>
        <time>2023-01-25T14:59:20Z</time>
      </trkpt>
      <trkpt lat="49.96675" lon="2.36134">
        <ele>119.8</ele>
        <time>2023-01-25T14:59:21Z</time>
      </trkpt>
      <trkpt lat="49.96674" lon="2.36134">
        <ele>119.7</ele>
        <time>2023-01-25T14:59:22Z</time>
      </trkpt>
      <trkpt lat="49.96673" lon="2.36133">
        <ele>119.7</ele>
        <time>2023-01-25T14:59:23Z</time>
      </trkpt>
      <trkpt lat="49.96671" lon="2.36132">
        <ele>119.7</ele>
        <time>2023-01-25T14:59:25Z</time>
      </trkpt>
      <trkpt lat="49.9667" lon="2.36132">
        <ele>119.7</ele>
        <time>2023-01-25T14:59:26Z</time>
      </trkpt>
      <trkpt lat="49.96669" lon="2.36131">
        <ele>119.7</ele>
        <time>2023-01-25T14:59:27Z</time>
      </trkpt>
      <trkpt lat="49.96668" lon="2.3613">
        <ele>119.7</ele>
        <time>2023-01-25T14:59:28Z</time>
      </trkpt>
      <trkpt lat="49.96667" lon="2.3613">
        <ele>119.6</ele>
        <time>2023-01-25T14:59:29Z</time>
      </trkpt>
      <trkpt lat="49.96666" lon="2.3613">
        <ele>119.6</ele>
        <time>2023-01-25T14:59:30Z</time>
      </trkpt>
      <trkpt lat="49.96665" lon="2.3613">
        <ele>119.6</ele>
        <time>2023-01-25T14:59:31Z</time>
      </trkpt>
      <trkpt lat="49.96664" lon="2.3613">
        <ele>119.6</ele>
        <time>2023-01-25T14:59:32Z</time>
      </trkpt>
      <trkpt lat="49.96663" lon="2.3613">
        <ele>119.6</ele>
        <time>2023-01-25T14:59:34Z</time>
      </trkpt>
      <trkpt lat="49.96662" lon="2.36129">
        <ele>119.6</ele>
        <time>2023-01-25T14:59:35Z</time>
      </trkpt>
      <trkpt lat="49.96661" lon="2.36128">
        <ele>119.6</ele>
        <time>2023-01-25T14:59:36Z</time>
      </trkpt>
      <trkpt lat="49.96661" lon="2.36127">
        <ele>119.6</ele>
        <time>2023-01-25T14:59:37Z</time>
      </trkpt>
      <trkpt lat="49.9666" lon="2.36126">
        <ele>119.5</ele>
        <time>2023-01-25T14:59:38Z</time>
      </trkpt>
      <trkpt lat="49.96659" lon="2.36126">
        <ele>119.5</ele>
        <time>2023-01-25T14:59:40Z</time>
      </trkpt>
      <trkpt lat="49.96658" lon="2.36125">
        <ele>119.5</ele>
        <time>2023-01-25T14:59:41Z</time>
      </trkpt>
      <trkpt lat="49.96657" lon="2.36126">
        <ele>119.5</ele>
        <time>2023-01-25T14:59:42Z</time>
      </trkpt>
      <trkpt lat="49.96656" lon="2.36125">
        <ele>119.5</ele>
        <time>2023-01-25T14:59:44Z</time>
      </trkpt>
      <trkpt lat="49.96655" lon="2.36125">
        <ele>119.5</ele>
        <time>2023-01-25T14:59:45Z</time>
      </trkpt>
      <trkpt lat="49.96654" lon="2.36126">
        <ele>119.5</ele>
        <time>2023-01-25T14:59:46Z</time>
      </trkpt>
      <trkpt lat="49.96653" lon="2.36127">
        <ele>119.5</ele>
        <time>2023-01-25T14:59:48Z</time>
      </trkpt>
      <trkpt lat="49.96652" lon="2.36127">
        <ele>119.5</ele>
        <time>2023-01-25T14:59:49Z</time>
      </trkpt>
      <trkpt lat="49.96651" lon="2.36127">
        <ele>119.4</ele>
        <time>2023-01-25T14:59:50Z</time>
      </trkpt>
      <trkpt lat="49.9665" lon="2.36126">
        <ele>119.4</ele>
        <time>2023-01-25T14:59:52Z</time>
      </trkpt>
      <trkpt lat="49.9665" lon="2.36126">
        <ele>119.4</ele>
        <time>2023-01-25T14:59:53Z</time>
      </trkpt>
      <trkpt lat="49.96649" lon="2.36125">
        <ele>119.4</ele>
        <time>2023-01-25T14:59:54Z</time>
      </trkpt>
      <trkpt lat="49.96648" lon="2.36125">
        <ele>119.4</ele>
        <time>2023-01-25T14:59:56Z</time>
      </trkpt>
      <trkpt lat="49.96647" lon="2.36124">
        <ele>119.4</ele>
        <time>2023-01-25T14:59:57Z</time>
      </trkpt>
      <trkpt lat="49.96646" lon="2.36124">
        <ele>119.4</ele>
        <time>2023-01-25T14:59:58Z</time>
      </trkpt>
      <trkpt lat="49.96646" lon="2.36124">
        <ele>119.4</ele>
        <time>2023-01-25T14:59:59Z</time>
      </trkpt>
      <trkpt lat="49.96646" lon="2.36124">
        <ele>119.4</ele>
        <time>2023-01-25T15:00:00Z</time>
      </trkpt>
      <trkpt lat="49.96646" lon="2.36124">
        <ele>119.4</ele>
        <time>2023-01-25T15:00:02Z</time>
      </trkpt>
      <trkpt lat="49.96646" lon="2.36124">
        <ele>119.4</ele>
        <time>2023-01-25T15:00:03Z</time>
      </trkpt>
      <trkpt lat="49.96646" lon="2.36124">
        <ele>119.4</ele>
        <time>2023-01-25T15:00:04Z</time>
      </trkpt>
      <trkpt lat="49.96646" lon="2.36124">
        <ele>119.4</ele>
        <time>2023-01-25T15:00:06Z</time>
      </trkpt>
      <trkpt lat="49.96646" lon="2.36124">
        <ele>119.4</ele>
        <time>2023-01-25T15:00:07Z</time>
      </trkpt>
      <trkpt lat="49.96646" lon="2.36124">
        <ele>119.4</ele>
        <time>2023-01-25T15:00:08Z</time>
      </trkpt>
      <trkpt lat="49.96646" lon="2.36124">
        <ele>119.4</ele>
        <time>2023-01-25T15:00:10Z</time>
      </trkpt>
      <trkpt lat="49.96646" lon="2.36124">
        <ele>119.4</ele>
        <time>2023-01-25T15:00:11Z</time>
      </trkpt>
      <trkpt lat="49.96646" lon="2.36124">
        <ele>119.4</ele>
        <time>2023-01-25T15:00:12Z</time>
      </trkpt>
      <trkpt lat="49.96646" lon="2.36124">
        <ele>119.4</ele>
        <time>2023-01-25T15:00:14Z</time>
      </trkpt>
      <trkpt lat="49.96646" lon="2.36124">
        <ele>119.4</ele>
        <time>2023-01-25T15:00:15Z</time>
      </trkpt>
      <trkpt lat="49.96646" lon="2.36124">
        <ele>119.4</ele>
        <time>2023-01-25T15:00:17Z</time>
      </trkpt>
      <trkpt lat="49.96646" lon="2.36124">
        <ele>119.4</ele>
        <time>2023-01-25T15:00:18Z</time>
      </trkpt>
      <trkpt lat="49.96645" lon="2.36124">
        <ele>119.4</ele>
        <time>2023-01-25T15:00:19Z</time>
      </trkpt>
      <trkpt lat="49.96645" lon="2.36124">
        <ele>119.4</ele>
        <time>2023-01-25T15:00:20Z</time>
      </trkpt>
      <trkpt lat="49.96645" lon="2.36124">
        <ele>119.4</ele>
        <time>2023-01-25T15:00:21Z</time>
      </trkpt>
      <trkpt lat="49.96645" lon="2.36123">
        <ele>119.4</ele>
        <time>2023-01-25T15:00:22Z</time>
      </trkpt>
      <trkpt lat="49.96645" lon="2.36123">
        <ele>119.4</ele>
        <time>2023-01-25T15:00:23Z</time>
      </trkpt>
      <trkpt lat="49.96645" lon="2.36123">
        <ele>119.4</ele>
        <time>2023-01-25T15:00:24Z</time>
      </trkpt>
      <trkpt lat="49.96645" lon="2.36123">
        <ele>119.4</ele>
        <time>2023-01-25T15:00:25Z</time>
      </trkpt>
      <trkpt lat="49.96645" lon="2.36123">
        <ele>119.4</ele>
        <time>2023-01-25T15:00:26Z</time>
      </trkpt>
      <trkpt lat="49.96645" lon="2.36123">
        <ele>119.4</ele>
        <time>2023-01-25T15:00:27Z</time>
      </trkpt>
      <trkpt lat="49.96645" lon="2.36123">
        <ele>119.4</ele>
        <time>2023-01-25T15:00:28Z</time>
      </trkpt>
      <trkpt lat="49.96645" lon="2.36123">
        <ele>119.4</ele>
        <time>2023-01-25T15:00:29Z</time>
      </trkpt>
      <trkpt lat="49.96645" lon="2.36123">
        <ele>119.4</ele>
        <time>2023-01-25T15:00:30Z</time>
      </trkpt>
      <trkpt lat="49.96645" lon="2.36123">
        <ele>119.4</ele>
        <time>2023-01-25T15:00:31Z</time>
      </trkpt>
      <trkpt lat="49.96645" lon="2.36123">
        <ele>119.4</ele>
        <time>2023-01-25T15:00:32Z</time>
      </trkpt>
      <trkpt lat="49.96645" lon="2.36123">
        <ele>119.4</ele>
        <time>2023-01-25T15:00:33Z</time>
      </trkpt>
      <trkpt lat="49.96645" lon="2.36123">
        <ele>119.4</ele>
        <time>2023-01-25T15:00:34Z</time>
      </trkpt>
      <trkpt lat="49.96645" lon="2.36123">
        <ele>119.4</ele>
        <time>2023-01-25T15:00:35Z</time>
      </trkpt>
      <trkpt lat="49.96645" lon="2.36123">
        <ele>119.4</ele>
        <time>2023-01-25T15:00:36Z</time>
      </trkpt>
      <trkpt lat="49.96644" lon="2.36123">
        <ele>119.4</ele>
        <time>2023-01-25T15:00:37Z</time>
      </trkpt>
      <trkpt lat="49.96644" lon="2.36123">
        <ele>119.4</ele>
        <time>2023-01-25T15:00:38Z</time>
      </trkpt>
      <trkpt lat="49.96644" lon="2.36123">
        <ele>119.4</ele>
        <time>2023-01-25T15:00:39Z</time>
      </trkpt>
      <trkpt lat="49.96644" lon="2.36123">
        <ele>119.4</ele>
        <time>2023-01-25T15:00:40Z</time>
      </trkpt>
      <trkpt lat="49.96644" lon="2.36123">
        <ele>119.4</ele>
        <time>2023-01-25T15:00:41Z</time>
      </trkpt>
      <trkpt lat="49.96644" lon="2.36123">
        <ele>119.4</ele>
        <time>2023-01-25T15:00:42Z</time>
      </trkpt>
      <trkpt lat="49.96644" lon="2.36123">
        <ele>119.4</ele>
        <time>2023-01-25T15:00:43Z</time>
      </trkpt>
      <trkpt lat="49.96644" lon="2.36123">
        <ele>119.4</ele>
        <time>2023-01-25T15:00:44Z</time>
      </trkpt>
      <trkpt lat="49.96644" lon="2.36123">
        <ele>119.4</ele>
        <time>2023-01-25T15:00:45Z</time>
      </trkpt>
      <trkpt lat="49.96644" lon="2.36123">
        <ele>119.4</ele>
        <time>2023-01-25T15:00:46Z</time>
      </trkpt>
      <trkpt lat="49.96644" lon="2.36123">
        <ele>119.4</ele>
        <time>2023-01-25T15:00:47Z</time>
      </trkpt>
      <trkpt lat="49.96644" lon="2.36123">
        <ele>119.4</ele>
        <time>2023-01-25T15:00:48Z</time>
      </trkpt>
      <trkpt lat="49.96644" lon="2.36123">
        <ele>119.4</ele>
        <time>2023-01-25T15:00:49Z</time>
      </trkpt>
      <trkpt lat="49.96644" lon="2.36123">
        <ele>119.4</ele>
        <time>2023-01-25T15:00:50Z</time>
      </trkpt>
      <trkpt lat="49.96644" lon="2.36123">
        <ele>119.4</ele>
        <time>2023-01-25T15:00:51Z</time>
      </trkpt>
      <trkpt lat="49.96644" lon="2.36123">
        <ele>119.4</ele>
        <time>2023-01-25T15:00:52Z</time>
      </trkpt>
      <trkpt lat="49.96644" lon="2.36123">
        <ele>119.3</ele>
        <time>2023-01-25T15:00:53Z</time>
      </trkpt>
      <trkpt lat="49.96644" lon="2.36123">
        <ele>119.3</ele>
        <time>2023-01-25T15:00:54Z</time>
      </trkpt>
      <trkpt lat="49.96643" lon="2.36123">
        <ele>119.3</ele>
        <time>2023-01-25T15:00:55Z</time>
      </trkpt>
      <trkpt lat="49.96643" lon="2.36123">
        <ele>119.3</ele>
        <time>2023-01-25T15:00:56Z</time>
      </trkpt>
      <trkpt lat="49.96643" lon="2.36122">
        <ele>119.3</ele>
        <time>2023-01-25T15:00:57Z</time>
      </trkpt>
      <trkpt lat="49.96643" lon="2.36122">
        <ele>119.3</ele>
        <time>2023-01-25T15:00:59Z</time>
      </trkpt>
      <trkpt lat="49.96643" lon="2.36122">
        <ele>119.3</ele>
        <time>2023-01-25T15:01:00Z</time>
      </trkpt>
      <trkpt lat="49.96643" lon="2.36122">
        <ele>119.3</ele>
        <time>2023-01-25T15:01:01Z</time>
      </trkpt>
      <trkpt lat="49.96641" lon="2.36122">
        <ele>119.3</ele>
        <time>2023-01-25T15:01:02Z</time>
      </trkpt>
      <trkpt lat="49.9664" lon="2.36122">
        <ele>119.3</ele>
        <time>2023-01-25T15:01:03Z</time>
      </trkpt>
      <trkpt lat="49.96638" lon="2.36122">
        <ele>119.3</ele>
        <time>2023-01-25T15:01:05Z</time>
      </trkpt>
      <trkpt lat="49.96637" lon="2.36122">
        <ele>119.3</ele>
        <time>2023-01-25T15:01:06Z</time>
      </trkpt>
      <trkpt lat="49.96636" lon="2.36122">
        <ele>119.2</ele>
        <time>2023-01-25T15:01:07Z</time>
      </trkpt>
      <trkpt lat="49.96634" lon="2.36121">
        <ele>119.2</ele>
        <time>2023-01-25T15:01:08Z</time>
      </trkpt>
      <trkpt lat="49.96634" lon="2.3612">
        <ele>119.2</ele>
        <time>2023-01-25T15:01:09Z</time>
      </trkpt>
      <trkpt lat="49.96633" lon="2.36118">
        <ele>119.2</ele>
        <time>2023-01-25T15:01:11Z</time>
      </trkpt>
      <trkpt lat="49.96632" lon="2.36117">
        <ele>119.2</ele>
        <time>2023-01-25T15:01:12Z</time>
      </trkpt>
      <trkpt lat="49.9663" lon="2.36116">
        <ele>119.2</ele>
        <time>2023-01-25T15:01:13Z</time>
      </trkpt>
      <trkpt lat="49.96629" lon="2.36115">
        <ele>119.1</ele>
        <time>2023-01-25T15:01:14Z</time>
      </trkpt>
      <trkpt lat="49.96628" lon="2.36115">
        <ele>119.1</ele>
        <time>2023-01-25T15:01:15Z</time>
      </trkpt>
      <trkpt lat="49.96627" lon="2.36114">
        <ele>119.1</ele>
        <time>2023-01-25T15:01:17Z</time>
      </trkpt>
      <trkpt lat="49.96626" lon="2.36114">
        <ele>119.1</ele>
        <time>2023-01-25T15:01:18Z</time>
      </trkpt>
      <trkpt lat="49.96625" lon="2.36114">
        <ele>119.1</ele>
        <time>2023-01-25T15:01:19Z</time>
      </trkpt>
      <trkpt lat="49.96625" lon="2.36114">
        <ele>119.1</ele>
        <time>2023-01-25T15:01:20Z</time>
      </trkpt>
      <trkpt lat="49.96623" lon="2.36113">
        <ele>119.1</ele>
        <time>2023-01-25T15:01:21Z</time>
      </trkpt>
      <trkpt lat="49.96622" lon="2.36113">
        <ele>119.1</ele>
        <time>2023-01-25T15:01:22Z</time>
      </trkpt>
      <trkpt lat="49.96621" lon="2.36113">
        <ele>119</ele>
        <time>2023-01-25T15:01:23Z</time>
      </trkpt>
      <trkpt lat="49.9662" lon="2.36113">
        <ele>119</ele>
        <time>2023-01-25T15:01:24Z</time>
      </trkpt>
      <trkpt lat="49.96619" lon="2.36113">
        <ele>119</ele>
        <time>2023-01-25T15:01:25Z</time>
      </trkpt>
      <trkpt lat="49.96617" lon="2.36113">
        <ele>119</ele>
        <time>2023-01-25T15:01:27Z</time>
      </trkpt>
      <trkpt lat="49.96616" lon="2.36113">
        <ele>119</ele>
        <time>2023-01-25T15:01:28Z</time>
      </trkpt>
      <trkpt lat="49.96615" lon="2.36113">
        <ele>119</ele>
        <time>2023-01-25T15:01:29Z</time>
      </trkpt>
      <trkpt lat="49.96613" lon="2.36113">
        <ele>119</ele>
        <time>2023-01-25T15:01:30Z</time>
      </trkpt>
      <trkpt lat="49.96612" lon="2.36113">
        <ele>119</ele>
        <time>2023-01-25T15:01:31Z</time>
      </trkpt>
      <trkpt lat="49.9661" lon="2.36112">
        <ele>119</ele>
        <time>2023-01-25T15:01:33Z</time>
      </trkpt>
      <trkpt lat="49.96609" lon="2.36112">
        <ele>119</ele>
        <time>2023-01-25T15:01:34Z</time>
      </trkpt>
      <trkpt lat="49.96608" lon="2.36111">
        <ele>119</ele>
        <time>2023-01-25T15:01:35Z</time>
      </trkpt>
      <trkpt lat="49.96607" lon="2.3611">
        <ele>119</ele>
        <time>2023-01-25T15:01:36Z</time>
      </trkpt>
      <trkpt lat="49.96605" lon="2.36109">
        <ele>119</ele>
        <time>2023-01-25T15:01:37Z</time>
      </trkpt>
      <trkpt lat="49.96604" lon="2.36108">
        <ele>119</ele>
        <time>2023-01-25T15:01:38Z</time>
      </trkpt>
      <trkpt lat="49.96603" lon="2.36108">
        <ele>118.9</ele>
        <time>2023-01-25T15:01:39Z</time>
      </trkpt>
      <trkpt lat="49.96601" lon="2.36107">
        <ele>118.9</ele>
        <time>2023-01-25T15:01:41Z</time>
      </trkpt>
      <trkpt lat="49.966" lon="2.36107">
        <ele>118.9</ele>
        <time>2023-01-25T15:01:42Z</time>
      </trkpt>
      <trkpt lat="49.96599" lon="2.36107">
        <ele>118.9</ele>
        <time>2023-01-25T15:01:43Z</time>
      </trkpt>
      <trkpt lat="49.96597" lon="2.36107">
        <ele>118.9</ele>
        <time>2023-01-25T15:01:44Z</time>
      </trkpt>
      <trkpt lat="49.96596" lon="2.36107">
        <ele>118.9</ele>
        <time>2023-01-25T15:01:45Z</time>
      </trkpt>
      <trkpt lat="49.96595" lon="2.36107">
        <ele>118.9</ele>
        <time>2023-01-25T15:01:46Z</time>
      </trkpt>
      <trkpt lat="49.96594" lon="2.36106">
        <ele>118.9</ele>
        <time>2023-01-25T15:01:47Z</time>
      </trkpt>
      <trkpt lat="49.96593" lon="2.36106">
        <ele>118.9</ele>
        <time>2023-01-25T15:01:48Z</time>
      </trkpt>
      <trkpt lat="49.96592" lon="2.36106">
        <ele>118.9</ele>
        <time>2023-01-25T15:01:49Z</time>
      </trkpt>
      <trkpt lat="49.96591" lon="2.36106">
        <ele>118.9</ele>
        <time>2023-01-25T15:01:51Z</time>
      </trkpt>
      <trkpt lat="49.9659" lon="2.36106">
        <ele>118.9</ele>
        <time>2023-01-25T15:01:52Z</time>
      </trkpt>
      <trkpt lat="49.96589" lon="2.36106">
        <ele>118.9</ele>
        <time>2023-01-25T15:01:53Z</time>
      </trkpt>
      <trkpt lat="49.96588" lon="2.36105">
        <ele>118.9</ele>
        <time>2023-01-25T15:01:54Z</time>
      </trkpt>
      <trkpt lat="49.96588" lon="2.36104">
        <ele>118.8</ele>
        <time>2023-01-25T15:01:55Z</time>
      </trkpt>
      <trkpt lat="49.96586" lon="2.36103">
        <ele>118.8</ele>
        <time>2023-01-25T15:01:56Z</time>
      </trkpt>
      <trkpt lat="49.96586" lon="2.36102">
        <ele>118.8</ele>
        <time>2023-01-25T15:01:57Z</time>
      </trkpt>
      <trkpt lat="49.96585" lon="2.36102">
        <ele>118.8</ele>
        <time>2023-01-25T15:01:58Z</time>
      </trkpt>
      <trkpt lat="49.96583" lon="2.36101">
        <ele>118.8</ele>
        <time>2023-01-25T15:01:59Z</time>
      </trkpt>
      <trkpt lat="49.96582" lon="2.36101">
        <ele>118.8</ele>
        <time>2023-01-25T15:02:00Z</time>
      </trkpt>
      <trkpt lat="49.96581" lon="2.36101">
        <ele>118.8</ele>
        <time>2023-01-25T15:02:02Z</time>
      </trkpt>
      <trkpt lat="49.9658" lon="2.36101">
        <ele>118.8</ele>
        <time>2023-01-25T15:02:03Z</time>
      </trkpt>
      <trkpt lat="49.96579" lon="2.36101">
        <ele>118.8</ele>
        <time>2023-01-25T15:02:04Z</time>
      </trkpt>
      <trkpt lat="49.96578" lon="2.36101">
        <ele>118.8</ele>
        <time>2023-01-25T15:02:05Z</time>
      </trkpt>
      <trkpt lat="49.96577" lon="2.361">
        <ele>118.8</ele>
        <time>2023-01-25T15:02:06Z</time>
      </trkpt>
      <trkpt lat="49.96575" lon="2.361">
        <ele>118.8</ele>
        <time>2023-01-25T15:02:07Z</time>
      </trkpt>
      <trkpt lat="49.96574" lon="2.36099">
        <ele>118.8</ele>
        <time>2023-01-25T15:02:09Z</time>
      </trkpt>
      <trkpt lat="49.96573" lon="2.36099">
        <ele>118.7</ele>
        <time>2023-01-25T15:02:10Z</time>
      </trkpt>
      <trkpt lat="49.96571" lon="2.36098">
        <ele>118.7</ele>
        <time>2023-01-25T15:02:11Z</time>
      </trkpt>
      <trkpt lat="49.9657" lon="2.36098">
        <ele>118.7</ele>
        <time>2023-01-25T15:02:12Z</time>
      </trkpt>
      <trkpt lat="49.96568" lon="2.36097">
        <ele>118.7</ele>
        <time>2023-01-25T15:02:13Z</time>
      </trkpt>
      <trkpt lat="49.96567" lon="2.36096">
        <ele>118.7</ele>
        <time>2023-01-25T15:02:14Z</time>
      </trkpt>
      <trkpt lat="49.96566" lon="2.36096">
        <ele>118.7</ele>
        <time>2023-01-25T15:02:15Z</time>
      </trkpt>
      <trkpt lat="49.96565" lon="2.36095">
        <ele>118.7</ele>
        <time>2023-01-25T15:02:16Z</time>
      </trkpt>
      <trkpt lat="49.96564" lon="2.36094">
        <ele>118.7</ele>
        <time>2023-01-25T15:02:17Z</time>
      </trkpt>
      <trkpt lat="49.96563" lon="2.36093">
        <ele>118.7</ele>
        <time>2023-01-25T15:02:18Z</time>
      </trkpt>
      <trkpt lat="49.96562" lon="2.36092">
        <ele>118.6</ele>
        <time>2023-01-25T15:02:19Z</time>
      </trkpt>
      <trkpt lat="49.9656" lon="2.36091">
        <ele>118.6</ele>
        <time>2023-01-25T15:02:21Z</time>
      </trkpt>
      <trkpt lat="49.96559" lon="2.36091">
        <ele>118.6</ele>
        <time>2023-01-25T15:02:22Z</time>
      </trkpt>
      <trkpt lat="49.96558" lon="2.3609">
        <ele>118.6</ele>
        <time>2023-01-25T15:02:23Z</time>
      </trkpt>
      <trkpt lat="49.96557" lon="2.3609">
        <ele>118.6</ele>
        <time>2023-01-25T15:02:24Z</time>
      </trkpt>
      <trkpt lat="49.96556" lon="2.3609">
        <ele>118.6</ele>
        <time>2023-01-25T15:02:25Z</time>
      </trkpt>
      <trkpt lat="49.96554" lon="2.36089">
        <ele>118.6</ele>
        <time>2023-01-25T15:02:26Z</time>
      </trkpt>
      <trkpt lat="49.96552" lon="2.36089">
        <ele>118.6</ele>
        <time>2023-01-25T15:02:28Z</time>
      </trkpt>
      <trkpt lat="49.96551" lon="2.36089">
        <ele>118.5</ele>
        <time>2023-01-25T15:02:29Z</time>
      </trkpt>
      <trkpt lat="49.9655" lon="2.36089">
        <ele>118.5</ele>
        <time>2023-01-25T15:02:30Z</time>
      </trkpt>
      <trkpt lat="49.96548" lon="2.36088">
        <ele>118.5</ele>
        <time>2023-01-25T15:02:31Z</time>
      </trkpt>
      <trkpt lat="49.96547" lon="2.36088">
        <ele>118.5</ele>
        <time>2023-01-25T15:02:32Z</time>
      </trkpt>
      <trkpt lat="49.96546" lon="2.36088">
        <ele>118.5</ele>
        <time>2023-01-25T15:02:33Z</time>
      </trkpt>
      <trkpt lat="49.96544" lon="2.36087">
        <ele>118.5</ele>
        <time>2023-01-25T15:02:35Z</time>
      </trkpt>
      <trkpt lat="49.96542" lon="2.36087">
        <ele>118.5</ele>
        <time>2023-01-25T15:02:36Z</time>
      </trkpt>
      <trkpt lat="49.96542" lon="2.36087">
        <ele>118.4</ele>
        <time>2023-01-25T15:02:37Z</time>
      </trkpt>
      <trkpt lat="49.96541" lon="2.36087">
        <ele>118.4</ele>
        <time>2023-01-25T15:02:38Z</time>
      </trkpt>
      <trkpt lat="49.9654" lon="2.36087">
        <ele>118.4</ele>
        <time>2023-01-25T15:02:40Z</time>
      </trkpt>
      <trkpt lat="49.96539" lon="2.36086">
        <ele>118.4</ele>
        <time>2023-01-25T15:02:41Z</time>
      </trkpt>
      <trkpt lat="49.96537" lon="2.36086">
        <ele>118.4</ele>
        <time>2023-01-25T15:02:42Z</time>
      </trkpt>
      <trkpt lat="49.96536" lon="2.36086">
        <ele>118.4</ele>
        <time>2023-01-25T15:02:43Z</time>
      </trkpt>
      <trkpt lat="49.96535" lon="2.36086">
        <ele>118.4</ele>
        <time>2023-01-25T15:02:44Z</time>
      </trkpt>
      <trkpt lat="49.96534" lon="2.36085">
        <ele>118.4</ele>
        <time>2023-01-25T15:02:45Z</time>
      </trkpt>
      <trkpt lat="49.96532" lon="2.36085">
        <ele>118.4</ele>
        <time>2023-01-25T15:02:46Z</time>
      </trkpt>
      <trkpt lat="49.96531" lon="2.36085">
        <ele>118.4</ele>
        <time>2023-01-25T15:02:47Z</time>
      </trkpt>
      <trkpt lat="49.9653" lon="2.36084">
        <ele>118.4</ele>
        <time>2023-01-25T15:02:48Z</time>
      </trkpt>
      <trkpt lat="49.96528" lon="2.36084">
        <ele>118.3</ele>
        <time>2023-01-25T15:02:49Z</time>
      </trkpt>
      <trkpt lat="49.96526" lon="2.36083">
        <ele>118.3</ele>
        <time>2023-01-25T15:02:51Z</time>
      </trkpt>
      <trkpt lat="49.96526" lon="2.36083">
        <ele>118.3</ele>
        <time>2023-01-25T15:02:52Z</time>
      </trkpt>
      <trkpt lat="49.96525" lon="2.36082">
        <ele>118.3</ele>
        <time>2023-01-25T15:02:53Z</time>
      </trkpt>
      <trkpt lat="49.96523" lon="2.36082">
        <ele>118.3</ele>
        <time>2023-01-25T15:02:54Z</time>
      </trkpt>
      <trkpt lat="49.96522" lon="2.36082">
        <ele>118.3</ele>
        <time>2023-01-25T15:02:55Z</time>
      </trkpt>
      <trkpt lat="49.9652" lon="2.36081">
        <ele>118.3</ele>
        <time>2023-01-25T15:02:56Z</time>
      </trkpt>
      <trkpt lat="49.96519" lon="2.36081">
        <ele>118.3</ele>
        <time>2023-01-25T15:02:57Z</time>
      </trkpt>
      <trkpt lat="49.96517" lon="2.36081">
        <ele>118.3</ele>
        <time>2023-01-25T15:02:59Z</time>
      </trkpt>
      <trkpt lat="49.96516" lon="2.3608">
        <ele>118.3</ele>
        <time>2023-01-25T15:03:00Z</time>
      </trkpt>
      <trkpt lat="49.96515" lon="2.3608">
        <ele>118.3</ele>
        <time>2023-01-25T15:03:01Z</time>
      </trkpt>
      <trkpt lat="49.96513" lon="2.36079">
        <ele>118.2</ele>
        <time>2023-01-25T15:03:02Z</time>
      </trkpt>
      <trkpt lat="49.96511" lon="2.36079">
        <ele>118.2</ele>
        <time>2023-01-25T15:03:03Z</time>
      </trkpt>
      <trkpt lat="49.96509" lon="2.36079">
        <ele>118.2</ele>
        <time>2023-01-25T15:03:04Z</time>
      </trkpt>
      <trkpt lat="49.96508" lon="2.36078">
        <ele>118.2</ele>
        <time>2023-01-25T15:03:05Z</time>
      </trkpt>
      <trkpt lat="49.96507" lon="2.36078">
        <ele>118.2</ele>
        <time>2023-01-25T15:03:06Z</time>
      </trkpt>
      <trkpt lat="49.96506" lon="2.36078">
        <ele>118.2</ele>
        <time>2023-01-25T15:03:07Z</time>
      </trkpt>
      <trkpt lat="49.96505" lon="2.36077">
        <ele>118.1</ele>
        <time>2023-01-25T15:03:09Z</time>
      </trkpt>
      <trkpt lat="49.96504" lon="2.36077">
        <ele>118.1</ele>
        <time>2023-01-25T15:03:10Z</time>
      </trkpt>
      <trkpt lat="49.96502" lon="2.36075">
        <ele>118.1</ele>
        <time>2023-01-25T15:03:11Z</time>
      </trkpt>
      <trkpt lat="49.96501" lon="2.36075">
        <ele>118.1</ele>
        <time>2023-01-25T15:03:12Z</time>
      </trkpt>
      <trkpt lat="49.96501" lon="2.36075">
        <ele>118.1</ele>
        <time>2023-01-25T15:03:13Z</time>
      </trkpt>
      <trkpt lat="49.96499" lon="2.36073">
        <ele>118</ele>
        <time>2023-01-25T15:03:14Z</time>
      </trkpt>
      <trkpt lat="49.96498" lon="2.36073">
        <ele>118</ele>
        <time>2023-01-25T15:03:16Z</time>
      </trkpt>
      <trkpt lat="49.96497" lon="2.36072">
        <ele>118</ele>
        <time>2023-01-25T15:03:17Z</time>
      </trkpt>
      <trkpt lat="49.96495" lon="2.36072">
        <ele>118</ele>
        <time>2023-01-25T15:03:18Z</time>
      </trkpt>
      <trkpt lat="49.96494" lon="2.36072">
        <ele>118</ele>
        <time>2023-01-25T15:03:19Z</time>
      </trkpt>
      <trkpt lat="49.96493" lon="2.36072">
        <ele>118</ele>
        <time>2023-01-25T15:03:20Z</time>
      </trkpt>
      <trkpt lat="49.96491" lon="2.36071">
        <ele>117.9</ele>
        <time>2023-01-25T15:03:21Z</time>
      </trkpt>
      <trkpt lat="49.9649" lon="2.36071">
        <ele>117.9</ele>
        <time>2023-01-25T15:03:22Z</time>
      </trkpt>
      <trkpt lat="49.9649" lon="2.3607">
        <ele>117.9</ele>
        <time>2023-01-25T15:03:23Z</time>
      </trkpt>
      <trkpt lat="49.96489" lon="2.3607">
        <ele>117.9</ele>
        <time>2023-01-25T15:03:24Z</time>
      </trkpt>
      <trkpt lat="49.96488" lon="2.36069">
        <ele>117.9</ele>
        <time>2023-01-25T15:03:25Z</time>
      </trkpt>
      <trkpt lat="49.96486" lon="2.36069">
        <ele>117.9</ele>
        <time>2023-01-25T15:03:27Z</time>
      </trkpt>
      <trkpt lat="49.96485" lon="2.36069">
        <ele>117.9</ele>
        <time>2023-01-25T15:03:28Z</time>
      </trkpt>
      <trkpt lat="49.96484" lon="2.36068">
        <ele>117.8</ele>
        <time>2023-01-25T15:03:29Z</time>
      </trkpt>
      <trkpt lat="49.96483" lon="2.36068">
        <ele>117.8</ele>
        <time>2023-01-25T15:03:30Z</time>
      </trkpt>
      <trkpt lat="49.96482" lon="2.36068">
        <ele>117.8</ele>
        <time>2023-01-25T15:03:31Z</time>
      </trkpt>
      <trkpt lat="49.96481" lon="2.36067">
        <ele>117.8</ele>
        <time>2023-01-25T15:03:32Z</time>
      </trkpt>
      <trkpt lat="49.9648" lon="2.36067">
        <ele>117.8</ele>
        <time>2023-01-25T15:03:33Z</time>
      </trkpt>
      <trkpt lat="49.96477" lon="2.36067">
        <ele>117.8</ele>
        <time>2023-01-25T15:03:35Z</time>
      </trkpt>
      <trkpt lat="49.96476" lon="2.36066">
        <ele>117.8</ele>
        <time>2023-01-25T15:03:36Z</time>
      </trkpt>
      <trkpt lat="49.96475" lon="2.36066">
        <ele>117.8</ele>
        <time>2023-01-25T15:03:37Z</time>
      </trkpt>
      <trkpt lat="49.96474" lon="2.36066">
        <ele>117.8</ele>
        <time>2023-01-25T15:03:38Z</time>
      </trkpt>
      <trkpt lat="49.96473" lon="2.36066">
        <ele>117.8</ele>
        <time>2023-01-25T15:03:39Z</time>
      </trkpt>
      <trkpt lat="49.96472" lon="2.36066">
        <ele>117.8</ele>
        <time>2023-01-25T15:03:40Z</time>
      </trkpt>
      <trkpt lat="49.9647" lon="2.36065">
        <ele>117.7</ele>
        <time>2023-01-25T15:03:41Z</time>
      </trkpt>
      <trkpt lat="49.96469" lon="2.36065">
        <ele>117.7</ele>
        <time>2023-01-25T15:03:42Z</time>
      </trkpt>
      <trkpt lat="49.96468" lon="2.36065">
        <ele>117.7</ele>
        <time>2023-01-25T15:03:44Z</time>
      </trkpt>
      <trkpt lat="49.96466" lon="2.36064">
        <ele>117.7</ele>
        <time>2023-01-25T15:03:45Z</time>
      </trkpt>
      <trkpt lat="49.96465" lon="2.36064">
        <ele>117.7</ele>
        <time>2023-01-25T15:03:46Z</time>
      </trkpt>
      <trkpt lat="49.96464" lon="2.36063">
        <ele>117.7</ele>
        <time>2023-01-25T15:03:47Z</time>
      </trkpt>
      <trkpt lat="49.96463" lon="2.36063">
        <ele>117.7</ele>
        <time>2023-01-25T15:03:48Z</time>
      </trkpt>
      <trkpt lat="49.96462" lon="2.36062">
        <ele>117.7</ele>
        <time>2023-01-25T15:03:49Z</time>
      </trkpt>
      <trkpt lat="49.9646" lon="2.36061">
        <ele>117.7</ele>
        <time>2023-01-25T15:03:51Z</time>
      </trkpt>
      <trkpt lat="49.96459" lon="2.36061">
        <ele>117.7</ele>
        <time>2023-01-25T15:03:53Z</time>
      </trkpt>
      <trkpt lat="49.96457" lon="2.3606">
        <ele>117.7</ele>
        <time>2023-01-25T15:03:54Z</time>
      </trkpt>
      <trkpt lat="49.96456" lon="2.3606">
        <ele>117.6</ele>
        <time>2023-01-25T15:03:55Z</time>
      </trkpt>
      <trkpt lat="49.96455" lon="2.3606">
        <ele>117.6</ele>
        <time>2023-01-25T15:03:56Z</time>
      </trkpt>
      <trkpt lat="49.96454" lon="2.3606">
        <ele>117.6</ele>
        <time>2023-01-25T15:03:57Z</time>
      </trkpt>
      <trkpt lat="49.96452" lon="2.36059">
        <ele>117.6</ele>
        <time>2023-01-25T15:03:58Z</time>
      </trkpt>
      <trkpt lat="49.96451" lon="2.36059">
        <ele>117.6</ele>
        <time>2023-01-25T15:03:59Z</time>
      </trkpt>
      <trkpt lat="49.9645" lon="2.36059">
        <ele>117.6</ele>
        <time>2023-01-25T15:04:00Z</time>
      </trkpt>
      <trkpt lat="49.96449" lon="2.36058">
        <ele>117.6</ele>
        <time>2023-01-25T15:04:01Z</time>
      </trkpt>
      <trkpt lat="49.96448" lon="2.36058">
        <ele>117.6</ele>
        <time>2023-01-25T15:04:03Z</time>
      </trkpt>
      <trkpt lat="49.96446" lon="2.36057">
        <ele>117.5</ele>
        <time>2023-01-25T15:04:04Z</time>
      </trkpt>
      <trkpt lat="49.96445" lon="2.36057">
        <ele>117.5</ele>
        <time>2023-01-25T15:04:05Z</time>
      </trkpt>
      <trkpt lat="49.96444" lon="2.36057">
        <ele>117.5</ele>
        <time>2023-01-25T15:04:06Z</time>
      </trkpt>
      <trkpt lat="49.96442" lon="2.36057">
        <ele>117.5</ele>
        <time>2023-01-25T15:04:07Z</time>
      </trkpt>
      <trkpt lat="49.96441" lon="2.36057">
        <ele>117.5</ele>
        <time>2023-01-25T15:04:08Z</time>
      </trkpt>
      <trkpt lat="49.96439" lon="2.36057">
        <ele>117.4</ele>
        <time>2023-01-25T15:04:10Z</time>
      </trkpt>
      <trkpt lat="49.96438" lon="2.36057">
        <ele>117.4</ele>
        <time>2023-01-25T15:04:11Z</time>
      </trkpt>
      <trkpt lat="49.96437" lon="2.36057">
        <ele>117.4</ele>
        <time>2023-01-25T15:04:12Z</time>
      </trkpt>
      <trkpt lat="49.96436" lon="2.36057">
        <ele>117.4</ele>
        <time>2023-01-25T15:04:13Z</time>
      </trkpt>
      <trkpt lat="49.96435" lon="2.36056">
        <ele>117.4</ele>
        <time>2023-01-25T15:04:14Z</time>
      </trkpt>
      <trkpt lat="49.96433" lon="2.36056">
        <ele>117.3</ele>
        <time>2023-01-25T15:04:15Z</time>
      </trkpt>
      <trkpt lat="49.96432" lon="2.36056">
        <ele>117.3</ele>
        <time>2023-01-25T15:04:16Z</time>
      </trkpt>
      <trkpt lat="49.96431" lon="2.36055">
        <ele>117.3</ele>
        <time>2023-01-25T15:04:18Z</time>
      </trkpt>
      <trkpt lat="49.9643" lon="2.36055">
        <ele>117.3</ele>
        <time>2023-01-25T15:04:19Z</time>
      </trkpt>
      <trkpt lat="49.96428" lon="2.36054">
        <ele>117.3</ele>
        <time>2023-01-25T15:04:20Z</time>
      </trkpt>
      <trkpt lat="49.96427" lon="2.36054">
        <ele>117.2</ele>
        <time>2023-01-25T15:04:21Z</time>
      </trkpt>
      <trkpt lat="49.96426" lon="2.36053">
        <ele>117.2</ele>
        <time>2023-01-25T15:04:22Z</time>
      </trkpt>
      <trkpt lat="49.96425" lon="2.36053">
        <ele>117.2</ele>
        <time>2023-01-25T15:04:23Z</time>
      </trkpt>
      <trkpt lat="49.96424" lon="2.36052">
        <ele>117.2</ele>
        <time>2023-01-25T15:04:24Z</time>
      </trkpt>
      <trkpt lat="49.96422" lon="2.36052">
        <ele>117.2</ele>
        <time>2023-01-25T15:04:25Z</time>
      </trkpt>
      <trkpt lat="49.96421" lon="2.36052">
        <ele>117.1</ele>
        <time>2023-01-25T15:04:26Z</time>
      </trkpt>
      <trkpt lat="49.96419" lon="2.36051">
        <ele>117.1</ele>
        <time>2023-01-25T15:04:27Z</time>
      </trkpt>
      <trkpt lat="49.96418" lon="2.36051">
        <ele>117.1</ele>
        <time>2023-01-25T15:04:29Z</time>
      </trkpt>
      <trkpt lat="49.96417" lon="2.3605">
        <ele>117.1</ele>
        <time>2023-01-25T15:04:30Z</time>
      </trkpt>
      <trkpt lat="49.96415" lon="2.3605">
        <ele>117</ele>
        <time>2023-01-25T15:04:31Z</time>
      </trkpt>
      <trkpt lat="49.96414" lon="2.36049">
        <ele>117</ele>
        <time>2023-01-25T15:04:32Z</time>
      </trkpt>
      <trkpt lat="49.96413" lon="2.36049">
        <ele>117</ele>
        <time>2023-01-25T15:04:33Z</time>
      </trkpt>
      <trkpt lat="49.96412" lon="2.36048">
        <ele>117</ele>
        <time>2023-01-25T15:04:34Z</time>
      </trkpt>
      <trkpt lat="49.9641" lon="2.36047">
        <ele>117</ele>
        <time>2023-01-25T15:04:35Z</time>
      </trkpt>
      <trkpt lat="49.96409" lon="2.36047">
        <ele>117</ele>
        <time>2023-01-25T15:04:37Z</time>
      </trkpt>
      <trkpt lat="49.96408" lon="2.36047">
        <ele>116.9</ele>
        <time>2023-01-25T15:04:38Z</time>
      </trkpt>
      <trkpt lat="49.96407" lon="2.36046">
        <ele>116.9</ele>
        <time>2023-01-25T15:04:39Z</time>
      </trkpt>
      <trkpt lat="49.96405" lon="2.36046">
        <ele>116.9</ele>
        <time>2023-01-25T15:04:40Z</time>
      </trkpt>
      <trkpt lat="49.96404" lon="2.36046">
        <ele>116.9</ele>
        <time>2023-01-25T15:04:41Z</time>
      </trkpt>
      <trkpt lat="49.96403" lon="2.36046">
        <ele>116.9</ele>
        <time>2023-01-25T15:04:42Z</time>
      </trkpt>
      <trkpt lat="49.96402" lon="2.36045">
        <ele>116.8</ele>
        <time>2023-01-25T15:04:43Z</time>
      </trkpt>
      <trkpt lat="49.964" lon="2.36045">
        <ele>116.8</ele>
        <time>2023-01-25T15:04:45Z</time>
      </trkpt>
      <trkpt lat="49.96398" lon="2.36045">
        <ele>116.8</ele>
        <time>2023-01-25T15:04:46Z</time>
      </trkpt>
      <trkpt lat="49.96397" lon="2.36045">
        <ele>116.8</ele>
        <time>2023-01-25T15:04:47Z</time>
      </trkpt>
      <trkpt lat="49.96396" lon="2.36044">
        <ele>116.7</ele>
        <time>2023-01-25T15:04:48Z</time>
      </trkpt>
      <trkpt lat="49.96395" lon="2.36044">
        <ele>116.7</ele>
        <time>2023-01-25T15:04:49Z</time>
      </trkpt>
      <trkpt lat="49.96394" lon="2.36043">
        <ele>116.7</ele>
        <time>2023-01-25T15:04:50Z</time>
      </trkpt>
      <trkpt lat="49.96393" lon="2.36043">
        <ele>116.7</ele>
        <time>2023-01-25T15:04:51Z</time>
      </trkpt>
      <trkpt lat="49.96392" lon="2.36042">
        <ele>116.7</ele>
        <time>2023-01-25T15:04:52Z</time>
      </trkpt>
      <trkpt lat="49.96391" lon="2.36041">
        <ele>116.7</ele>
        <time>2023-01-25T15:04:53Z</time>
      </trkpt>
      <trkpt lat="49.96389" lon="2.3604">
        <ele>116.6</ele>
        <time>2023-01-25T15:04:55Z</time>
      </trkpt>
      <trkpt lat="49.96388" lon="2.36039">
        <ele>116.6</ele>
        <time>2023-01-25T15:04:56Z</time>
      </trkpt>
      <trkpt lat="49.96387" lon="2.36039">
        <ele>116.6</ele>
        <time>2023-01-25T15:04:57Z</time>
      </trkpt>
      <trkpt lat="49.96387" lon="2.36039">
        <ele>116.6</ele>
        <time>2023-01-25T15:04:58Z</time>
      </trkpt>
      <trkpt lat="49.96385" lon="2.36039">
        <ele>116.6</ele>
        <time>2023-01-25T15:04:59Z</time>
      </trkpt>
      <trkpt lat="49.96384" lon="2.36038">
        <ele>116.6</ele>
        <time>2023-01-25T15:05:00Z</time>
      </trkpt>
      <trkpt lat="49.96383" lon="2.36038">
        <ele>116.5</ele>
        <time>2023-01-25T15:05:01Z</time>
      </trkpt>
      <trkpt lat="49.96382" lon="2.36037">
        <ele>116.5</ele>
        <time>2023-01-25T15:05:02Z</time>
      </trkpt>
      <trkpt lat="49.96381" lon="2.36037">
        <ele>116.5</ele>
        <time>2023-01-25T15:05:03Z</time>
      </trkpt>
      <trkpt lat="49.96381" lon="2.36037">
        <ele>116.5</ele>
        <time>2023-01-25T15:05:04Z</time>
      </trkpt>
      <trkpt lat="49.96379" lon="2.36036">
        <ele>116.5</ele>
        <time>2023-01-25T15:05:05Z</time>
      </trkpt>
      <trkpt lat="49.96377" lon="2.36036">
        <ele>116.4</ele>
        <time>2023-01-25T15:05:07Z</time>
      </trkpt>
      <trkpt lat="49.96377" lon="2.36035">
        <ele>116.4</ele>
        <time>2023-01-25T15:05:08Z</time>
      </trkpt>
      <trkpt lat="49.96375" lon="2.36035">
        <ele>116.4</ele>
        <time>2023-01-25T15:05:09Z</time>
      </trkpt>
      <trkpt lat="49.96374" lon="2.36035">
        <ele>116.4</ele>
        <time>2023-01-25T15:05:10Z</time>
      </trkpt>
      <trkpt lat="49.96373" lon="2.36035">
        <ele>116.4</ele>
        <time>2023-01-25T15:05:11Z</time>
      </trkpt>
      <trkpt lat="49.96371" lon="2.36035">
        <ele>116.3</ele>
        <time>2023-01-25T15:05:12Z</time>
      </trkpt>
      <trkpt lat="49.9637" lon="2.36035">
        <ele>116.3</ele>
        <time>2023-01-25T15:05:13Z</time>
      </trkpt>
      <trkpt lat="49.96369" lon="2.36035">
        <ele>116.3</ele>
        <time>2023-01-25T15:05:14Z</time>
      </trkpt>
      <trkpt lat="49.96368" lon="2.36034">
        <ele>116.3</ele>
        <time>2023-01-25T15:05:16Z</time>
      </trkpt>
      <trkpt lat="49.96367" lon="2.36034">
        <ele>116.3</ele>
        <time>2023-01-25T15:05:17Z</time>
      </trkpt>
      <trkpt lat="49.96366" lon="2.36034">
        <ele>116.3</ele>
        <time>2023-01-25T15:05:18Z</time>
      </trkpt>
      <trkpt lat="49.96365" lon="2.36034">
        <ele>116.2</ele>
        <time>2023-01-25T15:05:19Z</time>
      </trkpt>
      <trkpt lat="49.96363" lon="2.36034">
        <ele>116.2</ele>
        <time>2023-01-25T15:05:20Z</time>
      </trkpt>
      <trkpt lat="49.96362" lon="2.36033">
        <ele>116.2</ele>
        <time>2023-01-25T15:05:21Z</time>
      </trkpt>
      <trkpt lat="49.96361" lon="2.36033">
        <ele>116.2</ele>
        <time>2023-01-25T15:05:22Z</time>
      </trkpt>
      <trkpt lat="49.9636" lon="2.36033">
        <ele>116.2</ele>
        <time>2023-01-25T15:05:24Z</time>
      </trkpt>
      <trkpt lat="49.96359" lon="2.36033">
        <ele>116.1</ele>
        <time>2023-01-25T15:05:25Z</time>
      </trkpt>
      <trkpt lat="49.96357" lon="2.36033">
        <ele>116.1</ele>
        <time>2023-01-25T15:05:26Z</time>
      </trkpt>
      <trkpt lat="49.96356" lon="2.36032">
        <ele>116.1</ele>
        <time>2023-01-25T15:05:27Z</time>
      </trkpt>
      <trkpt lat="49.96355" lon="2.36032">
        <ele>116.1</ele>
        <time>2023-01-25T15:05:28Z</time>
      </trkpt>
      <trkpt lat="49.96353" lon="2.36031">
        <ele>116.1</ele>
        <time>2023-01-25T15:05:29Z</time>
      </trkpt>
      <trkpt lat="49.96352" lon="2.36031">
        <ele>116.1</ele>
        <time>2023-01-25T15:05:30Z</time>
      </trkpt>
      <trkpt lat="49.96351" lon="2.3603">
        <ele>116</ele>
        <time>2023-01-25T15:05:31Z</time>
      </trkpt>
      <trkpt lat="49.96349" lon="2.3603">
        <ele>116</ele>
        <time>2023-01-25T15:05:33Z</time>
      </trkpt>
      <trkpt lat="49.96348" lon="2.36029">
        <ele>116</ele>
        <time>2023-01-25T15:05:34Z</time>
      </trkpt>
      <trkpt lat="49.96346" lon="2.36029">
        <ele>116</ele>
        <time>2023-01-25T15:05:35Z</time>
      </trkpt>
      <trkpt lat="49.96346" lon="2.36028">
        <ele>116</ele>
        <time>2023-01-25T15:05:36Z</time>
      </trkpt>
      <trkpt lat="49.96345" lon="2.36028">
        <ele>116</ele>
        <time>2023-01-25T15:05:37Z</time>
      </trkpt>
      <trkpt lat="49.96343" lon="2.36028">
        <ele>116</ele>
        <time>2023-01-25T15:05:39Z</time>
      </trkpt>
      <trkpt lat="49.96342" lon="2.36027">
        <ele>115.9</ele>
        <time>2023-01-25T15:05:40Z</time>
      </trkpt>
      <trkpt lat="49.96341" lon="2.36027">
        <ele>115.9</ele>
        <time>2023-01-25T15:05:41Z</time>
      </trkpt>
      <trkpt lat="49.96339" lon="2.36027">
        <ele>115.9</ele>
        <time>2023-01-25T15:05:42Z</time>
      </trkpt>
      <trkpt lat="49.96338" lon="2.36026">
        <ele>115.9</ele>
        <time>2023-01-25T15:05:43Z</time>
      </trkpt>
      <trkpt lat="49.96337" lon="2.36026">
        <ele>115.9</ele>
        <time>2023-01-25T15:05:45Z</time>
      </trkpt>
      <trkpt lat="49.96336" lon="2.36025">
        <ele>115.9</ele>
        <time>2023-01-25T15:05:46Z</time>
      </trkpt>
      <trkpt lat="49.96333" lon="2.36025">
        <ele>115.9</ele>
        <time>2023-01-25T15:05:47Z</time>
      </trkpt>
      <trkpt lat="49.96333" lon="2.36024">
        <ele>115.9</ele>
        <time>2023-01-25T15:05:48Z</time>
      </trkpt>
      <trkpt lat="49.96332" lon="2.36024">
        <ele>115.9</ele>
        <time>2023-01-25T15:05:49Z</time>
      </trkpt>
      <trkpt lat="49.96331" lon="2.36024">
        <ele>115.9</ele>
        <time>2023-01-25T15:05:50Z</time>
      </trkpt>
      <trkpt lat="49.9633" lon="2.36023">
        <ele>115.9</ele>
        <time>2023-01-25T15:05:51Z</time>
      </trkpt>
      <trkpt lat="49.96328" lon="2.36023">
        <ele>115.9</ele>
        <time>2023-01-25T15:05:53Z</time>
      </trkpt>
      <trkpt lat="49.96326" lon="2.36023">
        <ele>115.9</ele>
        <time>2023-01-25T15:05:54Z</time>
      </trkpt>
      <trkpt lat="49.96325" lon="2.36022">
        <ele>115.9</ele>
        <time>2023-01-25T15:05:55Z</time>
      </trkpt>
      <trkpt lat="49.96324" lon="2.36021">
        <ele>115.8</ele>
        <time>2023-01-25T15:05:56Z</time>
      </trkpt>
      <trkpt lat="49.96322" lon="2.3602">
        <ele>115.8</ele>
        <time>2023-01-25T15:05:57Z</time>
      </trkpt>
      <trkpt lat="49.96321" lon="2.3602">
        <ele>115.8</ele>
        <time>2023-01-25T15:05:58Z</time>
      </trkpt>
      <trkpt lat="49.9632" lon="2.36019">
        <ele>115.8</ele>
        <time>2023-01-25T15:05:59Z</time>
      </trkpt>
      <trkpt lat="49.96319" lon="2.36018">
        <ele>115.8</ele>
        <time>2023-01-25T15:06:00Z</time>
      </trkpt>
      <trkpt lat="49.96318" lon="2.36018">
        <ele>115.8</ele>
        <time>2023-01-25T15:06:02Z</time>
      </trkpt>
      <trkpt lat="49.96317" lon="2.36018">
        <ele>115.8</ele>
        <time>2023-01-25T15:06:03Z</time>
      </trkpt>
      <trkpt lat="49.96316" lon="2.36018">
        <ele>115.8</ele>
        <time>2023-01-25T15:06:04Z</time>
      </trkpt>
      <trkpt lat="49.96314" lon="2.36017">
        <ele>115.8</ele>
        <time>2023-01-25T15:06:05Z</time>
      </trkpt>
      <trkpt lat="49.96313" lon="2.36017">
        <ele>115.8</ele>
        <time>2023-01-25T15:06:06Z</time>
      </trkpt>
      <trkpt lat="49.96312" lon="2.36017">
        <ele>115.7</ele>
        <time>2023-01-25T15:06:07Z</time>
      </trkpt>
      <trkpt lat="49.96311" lon="2.36017">
        <ele>115.7</ele>
        <time>2023-01-25T15:06:08Z</time>
      </trkpt>
      <trkpt lat="49.9631" lon="2.36016">
        <ele>115.7</ele>
        <time>2023-01-25T15:06:09Z</time>
      </trkpt>
      <trkpt lat="49.96309" lon="2.36016">
        <ele>115.7</ele>
        <time>2023-01-25T15:06:10Z</time>
      </trkpt>
      <trkpt lat="49.96308" lon="2.36016">
        <ele>115.7</ele>
        <time>2023-01-25T15:06:11Z</time>
      </trkpt>
      <trkpt lat="49.96306" lon="2.36016">
        <ele>115.7</ele>
        <time>2023-01-25T15:06:12Z</time>
      </trkpt>
      <trkpt lat="49.96306" lon="2.36016">
        <ele>115.6</ele>
        <time>2023-01-25T15:06:13Z</time>
      </trkpt>
      <trkpt lat="49.96304" lon="2.36016">
        <ele>115.6</ele>
        <time>2023-01-25T15:06:14Z</time>
      </trkpt>
      <trkpt lat="49.96303" lon="2.36016">
        <ele>115.6</ele>
        <time>2023-01-25T15:06:16Z</time>
      </trkpt>
      <trkpt lat="49.96302" lon="2.36016">
        <ele>115.6</ele>
        <time>2023-01-25T15:06:17Z</time>
      </trkpt>
      <trkpt lat="49.963" lon="2.36015">
        <ele>115.6</ele>
        <time>2023-01-25T15:06:18Z</time>
      </trkpt>
      <trkpt lat="49.96299" lon="2.36015">
        <ele>115.5</ele>
        <time>2023-01-25T15:06:19Z</time>
      </trkpt>
      <trkpt lat="49.96298" lon="2.36015">
        <ele>115.5</ele>
        <time>2023-01-25T15:06:20Z</time>
      </trkpt>
      <trkpt lat="49.96297" lon="2.36014">
        <ele>115.5</ele>
        <time>2023-01-25T15:06:21Z</time>
      </trkpt>
      <trkpt lat="49.96295" lon="2.36014">
        <ele>115.5</ele>
        <time>2023-01-25T15:06:22Z</time>
      </trkpt>
      <trkpt lat="49.96295" lon="2.36013">
        <ele>115.5</ele>
        <time>2023-01-25T15:06:23Z</time>
      </trkpt>
      <trkpt lat="49.96294" lon="2.36012">
        <ele>115.5</ele>
        <time>2023-01-25T15:06:24Z</time>
      </trkpt>
      <trkpt lat="49.96293" lon="2.36012">
        <ele>115.4</ele>
        <time>2023-01-25T15:06:25Z</time>
      </trkpt>
      <trkpt lat="49.96292" lon="2.36012">
        <ele>115.4</ele>
        <time>2023-01-25T15:06:26Z</time>
      </trkpt>
      <trkpt lat="49.9629" lon="2.36011">
        <ele>115.4</ele>
        <time>2023-01-25T15:06:27Z</time>
      </trkpt>
      <trkpt lat="49.96289" lon="2.36011">
        <ele>115.4</ele>
        <time>2023-01-25T15:06:29Z</time>
      </trkpt>
      <trkpt lat="49.96287" lon="2.3601">
        <ele>115.4</ele>
        <time>2023-01-25T15:06:30Z</time>
      </trkpt>
      <trkpt lat="49.96286" lon="2.3601">
        <ele>115.3</ele>
        <time>2023-01-25T15:06:31Z</time>
      </trkpt>
      <trkpt lat="49.96286" lon="2.3601">
        <ele>115.3</ele>
        <time>2023-01-25T15:06:32Z</time>
      </trkpt>
      <trkpt lat="49.96283" lon="2.36009">
        <ele>115.3</ele>
        <time>2023-01-25T15:06:33Z</time>
      </trkpt>
      <trkpt lat="49.96283" lon="2.36009">
        <ele>115.3</ele>
        <time>2023-01-25T15:06:34Z</time>
      </trkpt>
      <trkpt lat="49.96282" lon="2.36009">
        <ele>115.3</ele>
        <time>2023-01-25T15:06:35Z</time>
      </trkpt>
      <trkpt lat="49.96281" lon="2.36009">
        <ele>115.2</ele>
        <time>2023-01-25T15:06:36Z</time>
      </trkpt>
      <trkpt lat="49.96279" lon="2.3601">
        <ele>115.2</ele>
        <time>2023-01-25T15:06:37Z</time>
      </trkpt>
      <trkpt lat="49.96278" lon="2.3601">
        <ele>115.2</ele>
        <time>2023-01-25T15:06:39Z</time>
      </trkpt>
      <trkpt lat="49.96277" lon="2.36009">
        <ele>115.2</ele>
        <time>2023-01-25T15:06:40Z</time>
      </trkpt>
      <trkpt lat="49.96276" lon="2.36009">
        <ele>115.1</ele>
        <time>2023-01-25T15:06:41Z</time>
      </trkpt>
      <trkpt lat="49.96275" lon="2.36009">
        <ele>115.1</ele>
        <time>2023-01-25T15:06:42Z</time>
      </trkpt>
      <trkpt lat="49.96274" lon="2.36009">
        <ele>115.1</ele>
        <time>2023-01-25T15:06:43Z</time>
      </trkpt>
      <trkpt lat="49.96273" lon="2.36008">
        <ele>115.1</ele>
        <time>2023-01-25T15:06:44Z</time>
      </trkpt>
      <trkpt lat="49.96272" lon="2.36008">
        <ele>115.1</ele>
        <time>2023-01-25T15:06:45Z</time>
      </trkpt>
      <trkpt lat="49.96271" lon="2.36007">
        <ele>115</ele>
        <time>2023-01-25T15:06:47Z</time>
      </trkpt>
      <trkpt lat="49.9627" lon="2.36007">
        <ele>115</ele>
        <time>2023-01-25T15:06:48Z</time>
      </trkpt>
      <trkpt lat="49.96269" lon="2.36006">
        <ele>115</ele>
        <time>2023-01-25T15:06:49Z</time>
      </trkpt>
      <trkpt lat="49.96268" lon="2.36006">
        <ele>115</ele>
        <time>2023-01-25T15:06:50Z</time>
      </trkpt>
      <trkpt lat="49.96267" lon="2.36005">
        <ele>115</ele>
        <time>2023-01-25T15:06:51Z</time>
      </trkpt>
      <trkpt lat="49.96266" lon="2.36005">
        <ele>114.9</ele>
        <time>2023-01-25T15:06:52Z</time>
      </trkpt>
      <trkpt lat="49.96265" lon="2.36005">
        <ele>114.9</ele>
        <time>2023-01-25T15:06:54Z</time>
      </trkpt>
      <trkpt lat="49.96264" lon="2.36004">
        <ele>114.9</ele>
        <time>2023-01-25T15:06:55Z</time>
      </trkpt>
      <trkpt lat="49.96263" lon="2.36004">
        <ele>114.9</ele>
        <time>2023-01-25T15:06:56Z</time>
      </trkpt>
      <trkpt lat="49.96262" lon="2.36004">
        <ele>114.9</ele>
        <time>2023-01-25T15:06:57Z</time>
      </trkpt>
      <trkpt lat="49.96261" lon="2.36004">
        <ele>114.9</ele>
        <time>2023-01-25T15:06:58Z</time>
      </trkpt>
      <trkpt lat="49.9626" lon="2.36004">
        <ele>114.9</ele>
        <time>2023-01-25T15:06:59Z</time>
      </trkpt>
      <trkpt lat="49.96259" lon="2.36003">
        <ele>114.9</ele>
        <time>2023-01-25T15:07:00Z</time>
      </trkpt>
      <trkpt lat="49.96258" lon="2.36003">
        <ele>114.8</ele>
        <time>2023-01-25T15:07:01Z</time>
      </trkpt>
      <trkpt lat="49.96257" lon="2.36003">
        <ele>114.8</ele>
        <time>2023-01-25T15:07:02Z</time>
      </trkpt>
      <trkpt lat="49.96256" lon="2.36003">
        <ele>114.8</ele>
        <time>2023-01-25T15:07:04Z</time>
      </trkpt>
      <trkpt lat="49.96255" lon="2.36003">
        <ele>114.8</ele>
        <time>2023-01-25T15:07:05Z</time>
      </trkpt>
      <trkpt lat="49.96254" lon="2.36002">
        <ele>114.8</ele>
        <time>2023-01-25T15:07:06Z</time>
      </trkpt>
      <trkpt lat="49.96254" lon="2.36002">
        <ele>114.8</ele>
        <time>2023-01-25T15:07:07Z</time>
      </trkpt>
      <trkpt lat="49.96252" lon="2.36002">
        <ele>114.8</ele>
        <time>2023-01-25T15:07:08Z</time>
      </trkpt>
      <trkpt lat="49.96251" lon="2.36003">
        <ele>114.7</ele>
        <time>2023-01-25T15:07:09Z</time>
      </trkpt>
      <trkpt lat="49.9625" lon="2.36003">
        <ele>114.7</ele>
        <time>2023-01-25T15:07:10Z</time>
      </trkpt>
      <trkpt lat="49.96249" lon="2.36002">
        <ele>114.7</ele>
        <time>2023-01-25T15:07:12Z</time>
      </trkpt>
      <trkpt lat="49.96247" lon="2.36002">
        <ele>114.7</ele>
        <time>2023-01-25T15:07:13Z</time>
      </trkpt>
      <trkpt lat="49.96248" lon="2.35999">
        <ele>114.7</ele>
        <time>2023-01-25T15:07:14Z</time>
      </trkpt>
      <trkpt lat="49.96249" lon="2.35998">
        <ele>114.7</ele>
        <time>2023-01-25T15:07:16Z</time>
      </trkpt>
      <trkpt lat="49.96249" lon="2.35997">
        <ele>114.7</ele>
        <time>2023-01-25T15:07:17Z</time>
      </trkpt>
      <trkpt lat="49.9625" lon="2.35995">
        <ele>114.7</ele>
        <time>2023-01-25T15:07:19Z</time>
      </trkpt>
      <trkpt lat="49.9625" lon="2.35994">
        <ele>114.7</ele>
        <time>2023-01-25T15:07:20Z</time>
      </trkpt>
      <trkpt lat="49.96249" lon="2.35994">
        <ele>114.7</ele>
        <time>2023-01-25T15:07:21Z</time>
      </trkpt>
      <trkpt lat="49.96249" lon="2.35995">
        <ele>114.7</ele>
        <time>2023-01-25T15:07:23Z</time>
      </trkpt>
      <trkpt lat="49.96249" lon="2.35997">
        <ele>114.7</ele>
        <time>2023-01-25T15:07:24Z</time>
      </trkpt>
      <trkpt lat="49.96249" lon="2.35998">
        <ele>114.7</ele>
        <time>2023-01-25T15:07:26Z</time>
      </trkpt>
      <trkpt lat="49.96249" lon="2.35999">
        <ele>114.7</ele>
        <time>2023-01-25T15:07:27Z</time>
      </trkpt>
      <trkpt lat="49.96249" lon="2.35999">
        <ele>114.7</ele>
        <time>2023-01-25T15:07:28Z</time>
      </trkpt>
      <trkpt lat="49.96249" lon="2.36">
        <ele>114.7</ele>
        <time>2023-01-25T15:07:30Z</time>
      </trkpt>
      <trkpt lat="49.9625" lon="2.36">
        <ele>114.7</ele>
        <time>2023-01-25T15:07:31Z</time>
      </trkpt>
      <trkpt lat="49.9625" lon="2.36">
        <ele>114.7</ele>
        <time>2023-01-25T15:07:32Z</time>
      </trkpt>
      <trkpt lat="49.9625" lon="2.36001">
        <ele>114.7</ele>
        <time>2023-01-25T15:07:34Z</time>
      </trkpt>
      <trkpt lat="49.9625" lon="2.36001">
        <ele>114.7</ele>
        <time>2023-01-25T15:07:35Z</time>
      </trkpt>
      <trkpt lat="49.9625" lon="2.36001">
        <ele>114.7</ele>
        <time>2023-01-25T15:07:36Z</time>
      </trkpt>
      <trkpt lat="49.9625" lon="2.36002">
        <ele>114.7</ele>
        <time>2023-01-25T15:07:37Z</time>
      </trkpt>
      <trkpt lat="49.9625" lon="2.36003">
        <ele>114.7</ele>
        <time>2023-01-25T15:07:39Z</time>
      </trkpt>
      <trkpt lat="49.9625" lon="2.36003">
        <ele>114.7</ele>
        <time>2023-01-25T15:07:40Z</time>
      </trkpt>
      <trkpt lat="49.9625" lon="2.36004">
        <ele>114.7</ele>
        <time>2023-01-25T15:07:41Z</time>
      </trkpt>
      <trkpt lat="49.9625" lon="2.36005">
        <ele>114.7</ele>
        <time>2023-01-25T15:07:42Z</time>
      </trkpt>
      <trkpt lat="49.96251" lon="2.36006">
        <ele>114.7</ele>
        <time>2023-01-25T15:07:44Z</time>
      </trkpt>
      <trkpt lat="49.96251" lon="2.36006">
        <ele>114.7</ele>
        <time>2023-01-25T15:07:45Z</time>
      </trkpt>
      <trkpt lat="49.96251" lon="2.36007">
        <ele>114.7</ele>
        <time>2023-01-25T15:07:46Z</time>
      </trkpt>
      <trkpt lat="49.96251" lon="2.36007">
        <ele>114.7</ele>
        <time>2023-01-25T15:07:48Z</time>
      </trkpt>
      <trkpt lat="49.96251" lon="2.36007">
        <ele>114.7</ele>
        <time>2023-01-25T15:07:49Z</time>
      </trkpt>
      <trkpt lat="49.96251" lon="2.36007">
        <ele>114.7</ele>
        <time>2023-01-25T15:07:51Z</time>
      </trkpt>
      <trkpt lat="49.96252" lon="2.36007">
        <ele>114.6</ele>
        <time>2023-01-25T15:07:52Z</time>
      </trkpt>
      <trkpt lat="49.96252" lon="2.36006">
        <ele>114.6</ele>
        <time>2023-01-25T15:07:53Z</time>
      </trkpt>
      <trkpt lat="49.96252" lon="2.36006">
        <ele>114.6</ele>
        <time>2023-01-25T15:07:54Z</time>
      </trkpt>
      <trkpt lat="49.96252" lon="2.36005">
        <ele>114.6</ele>
        <time>2023-01-25T15:07:56Z</time>
      </trkpt>
      <trkpt lat="49.96252" lon="2.36005">
        <ele>114.6</ele>
        <time>2023-01-25T15:07:57Z</time>
      </trkpt>
      <trkpt lat="49.96252" lon="2.36004">
        <ele>114.6</ele>
        <time>2023-01-25T15:07:58Z</time>
      </trkpt>
      <trkpt lat="49.96251" lon="2.36004">
        <ele>114.6</ele>
        <time>2023-01-25T15:08:00Z</time>
      </trkpt>
      <trkpt lat="49.9625" lon="2.36002">
        <ele>114.6</ele>
        <time>2023-01-25T15:08:02Z</time>
      </trkpt>
      <trkpt lat="49.9625" lon="2.36001">
        <ele>114.6</ele>
        <time>2023-01-25T15:08:03Z</time>
      </trkpt>
      <trkpt lat="49.9625" lon="2.36001">
        <ele>114.6</ele>
        <time>2023-01-25T15:08:04Z</time>
      </trkpt>
      <trkpt lat="49.9625" lon="2.36001">
        <ele>114.6</ele>
        <time>2023-01-25T15:08:05Z</time>
      </trkpt>
      <trkpt lat="49.9625" lon="2.36001">
        <ele>114.6</ele>
        <time>2023-01-25T15:08:07Z</time>
      </trkpt>
      <trkpt lat="49.9625" lon="2.36001">
        <ele>114.6</ele>
        <time>2023-01-25T15:08:08Z</time>
      </trkpt>
      <trkpt lat="49.9625" lon="2.36001">
        <ele>114.6</ele>
        <time>2023-01-25T15:08:09Z</time>
      </trkpt>
      <trkpt lat="49.96249" lon="2.36001">
        <ele>114.6</ele>
        <time>2023-01-25T15:08:10Z</time>
      </trkpt>
      <trkpt lat="49.96249" lon="2.36001">
        <ele>114.6</ele>
        <time>2023-01-25T15:08:11Z</time>
      </trkpt>
      <trkpt lat="49.96249" lon="2.36001">
        <ele>114.6</ele>
        <time>2023-01-25T15:08:13Z</time>
      </trkpt>
      <trkpt lat="49.96249" lon="2.36001">
        <ele>114.6</ele>
        <time>2023-01-25T15:08:14Z</time>
      </trkpt>
      <trkpt lat="49.96249" lon="2.36">
        <ele>114.6</ele>
        <time>2023-01-25T15:08:15Z</time>
      </trkpt>
      <trkpt lat="49.96249" lon="2.36">
        <ele>114.6</ele>
        <time>2023-01-25T15:08:16Z</time>
      </trkpt>
      <trkpt lat="49.96249" lon="2.36">
        <ele>114.6</ele>
        <time>2023-01-25T15:08:17Z</time>
      </trkpt>
      <trkpt lat="49.96249" lon="2.36">
        <ele>114.6</ele>
        <time>2023-01-25T15:08:18Z</time>
      </trkpt>
      <trkpt lat="49.96249" lon="2.36">
        <ele>114.6</ele>
        <time>2023-01-25T15:08:19Z</time>
      </trkpt>
      <trkpt lat="49.96248" lon="2.36">
        <ele>114.6</ele>
        <time>2023-01-25T15:08:20Z</time>
      </trkpt>
      <trkpt lat="49.96248" lon="2.36">
        <ele>114.6</ele>
        <time>2023-01-25T15:08:22Z</time>
      </trkpt>
      <trkpt lat="49.96248" lon="2.36">
        <ele>114.6</ele>
        <time>2023-01-25T15:08:23Z</time>
      </trkpt>
      <trkpt lat="49.96248" lon="2.36">
        <ele>114.6</ele>
        <time>2023-01-25T15:08:24Z</time>
      </trkpt>
      <trkpt lat="49.96248" lon="2.36">
        <ele>114.6</ele>
        <time>2023-01-25T15:08:25Z</time>
      </trkpt>
      <trkpt lat="49.96248" lon="2.36">
        <ele>114.6</ele>
        <time>2023-01-25T15:08:26Z</time>
      </trkpt>
      <trkpt lat="49.96248" lon="2.36">
        <ele>114.6</ele>
        <time>2023-01-25T15:08:27Z</time>
      </trkpt>
      <trkpt lat="49.96248" lon="2.36">
        <ele>114.6</ele>
        <time>2023-01-25T15:08:28Z</time>
      </trkpt>
      <trkpt lat="49.96247" lon="2.36">
        <ele>114.6</ele>
        <time>2023-01-25T15:08:29Z</time>
      </trkpt>
      <trkpt lat="49.96247" lon="2.36">
        <ele>114.6</ele>
        <time>2023-01-25T15:08:31Z</time>
      </trkpt>
      <trkpt lat="49.96247" lon="2.36">
        <ele>114.6</ele>
        <time>2023-01-25T15:08:32Z</time>
      </trkpt>
      <trkpt lat="49.96247" lon="2.36">
        <ele>114.6</ele>
        <time>2023-01-25T15:08:33Z</time>
      </trkpt>
      <trkpt lat="49.96247" lon="2.36">
        <ele>114.6</ele>
        <time>2023-01-25T15:08:35Z</time>
      </trkpt>
      <trkpt lat="49.96247" lon="2.35999">
        <ele>114.6</ele>
        <time>2023-01-25T15:08:36Z</time>
      </trkpt>
      <trkpt lat="49.96247" lon="2.35999">
        <ele>114.6</ele>
        <time>2023-01-25T15:08:37Z</time>
      </trkpt>
      <trkpt lat="49.96247" lon="2.35999">
        <ele>114.6</ele>
        <time>2023-01-25T15:08:38Z</time>
      </trkpt>
      <trkpt lat="49.96246" lon="2.35998">
        <ele>114.6</ele>
        <time>2023-01-25T15:08:39Z</time>
      </trkpt>
      <trkpt lat="49.96245" lon="2.35997">
        <ele>114.5</ele>
        <time>2023-01-25T15:08:41Z</time>
      </trkpt>
      <trkpt lat="49.96245" lon="2.35997">
        <ele>114.5</ele>
        <time>2023-01-25T15:08:42Z</time>
      </trkpt>
      <trkpt lat="49.96245" lon="2.35996">
        <ele>114.5</ele>
        <time>2023-01-25T15:08:43Z</time>
      </trkpt>
      <trkpt lat="49.96245" lon="2.35995">
        <ele>114.5</ele>
        <time>2023-01-25T15:08:45Z</time>
      </trkpt>
      <trkpt lat="49.96245" lon="2.35995">
        <ele>114.5</ele>
        <time>2023-01-25T15:08:46Z</time>
      </trkpt>
      <trkpt lat="49.96246" lon="2.35996">
        <ele>114.5</ele>
        <time>2023-01-25T15:08:48Z</time>
      </trkpt>
      <trkpt lat="49.96246" lon="2.35996">
        <ele>114.5</ele>
        <time>2023-01-25T15:08:49Z</time>
      </trkpt>
      <trkpt lat="49.96246" lon="2.35996">
        <ele>114.5</ele>
        <time>2023-01-25T15:08:50Z</time>
      </trkpt>
      <trkpt lat="49.96246" lon="2.35996">
        <ele>114.5</ele>
        <time>2023-01-25T15:08:52Z</time>
      </trkpt>
      <trkpt lat="49.96246" lon="2.35996">
        <ele>114.5</ele>
        <time>2023-01-25T15:08:53Z</time>
      </trkpt>
      <trkpt lat="49.96246" lon="2.35996">
        <ele>114.5</ele>
        <time>2023-01-25T15:08:55Z</time>
      </trkpt>
      <trkpt lat="49.96247" lon="2.35997">
        <ele>114.5</ele>
        <time>2023-01-25T15:08:56Z</time>
      </trkpt>
      <trkpt lat="49.96247" lon="2.35997">
        <ele>114.5</ele>
        <time>2023-01-25T15:08:57Z</time>
      </trkpt>
      <trkpt lat="49.96248" lon="2.35997">
        <ele>114.5</ele>
        <time>2023-01-25T15:08:58Z</time>
      </trkpt>
      <trkpt lat="49.96248" lon="2.35997">
        <ele>114.5</ele>
        <time>2023-01-25T15:08:59Z</time>
      </trkpt>
      <trkpt lat="49.96247" lon="2.35997">
        <ele>114.5</ele>
        <time>2023-01-25T15:09:00Z</time>
      </trkpt>
      <trkpt lat="49.96247" lon="2.35997">
        <ele>114.5</ele>
        <time>2023-01-25T15:09:01Z</time>
      </trkpt>
      <trkpt lat="49.96247" lon="2.35997">
        <ele>114.5</ele>
        <time>2023-01-25T15:09:02Z</time>
      </trkpt>
      <trkpt lat="49.96247" lon="2.35997">
        <ele>114.5</ele>
        <time>2023-01-25T15:09:03Z</time>
      </trkpt>
      <trkpt lat="49.96247" lon="2.35997">
        <ele>114.5</ele>
        <time>2023-01-25T15:09:04Z</time>
      </trkpt>
      <trkpt lat="49.96247" lon="2.35997">
        <ele>114.5</ele>
        <time>2023-01-25T15:09:05Z</time>
      </trkpt>
      <trkpt lat="49.96247" lon="2.35997">
        <ele>114.5</ele>
        <time>2023-01-25T15:09:06Z</time>
      </trkpt>
      <trkpt lat="49.96247" lon="2.35997">
        <ele>114.5</ele>
        <time>2023-01-25T15:09:07Z</time>
      </trkpt>
      <trkpt lat="49.96247" lon="2.35997">
        <ele>114.5</ele>
        <time>2023-01-25T15:09:08Z</time>
      </trkpt>
      <trkpt lat="49.96247" lon="2.35996">
        <ele>114.5</ele>
        <time>2023-01-25T15:09:09Z</time>
      </trkpt>
      <trkpt lat="49.96247" lon="2.35996">
        <ele>114.5</ele>
        <time>2023-01-25T15:09:10Z</time>
      </trkpt>
      <trkpt lat="49.96247" lon="2.35996">
        <ele>114.5</ele>
        <time>2023-01-25T15:09:11Z</time>
      </trkpt>
      <trkpt lat="49.96247" lon="2.35996">
        <ele>114.5</ele>
        <time>2023-01-25T15:09:12Z</time>
      </trkpt>
      <trkpt lat="49.96247" lon="2.35996">
        <ele>114.5</ele>
        <time>2023-01-25T15:09:13Z</time>
      </trkpt>
      <trkpt lat="49.96247" lon="2.35996">
        <ele>114.5</ele>
        <time>2023-01-25T15:09:14Z</time>
      </trkpt>
      <trkpt lat="49.96247" lon="2.35996">
        <ele>114.5</ele>
        <time>2023-01-25T15:09:15Z</time>
      </trkpt>
      <trkpt lat="49.96247" lon="2.35996">
        <ele>114.5</ele>
        <time>2023-01-25T15:09:16Z</time>
      </trkpt>
      <trkpt lat="49.96247" lon="2.35996">
        <ele>114.5</ele>
        <time>2023-01-25T15:09:17Z</time>
      </trkpt>
      <trkpt lat="49.96247" lon="2.35996">
        <ele>114.5</ele>
        <time>2023-01-25T15:09:18Z</time>
      </trkpt>
      <trkpt lat="49.96247" lon="2.35996">
        <ele>114.5</ele>
        <time>2023-01-25T15:09:19Z</time>
      </trkpt>
      <trkpt lat="49.96247" lon="2.35996">
        <ele>114.5</ele>
        <time>2023-01-25T15:09:20Z</time>
      </trkpt>
      <trkpt lat="49.96247" lon="2.35996">
        <ele>114.5</ele>
        <time>2023-01-25T15:09:21Z</time>
      </trkpt>
      <trkpt lat="49.96247" lon="2.35996">
        <ele>114.5</ele>
        <time>2023-01-25T15:09:22Z</time>
      </trkpt>
      <trkpt lat="49.96247" lon="2.35996">
        <ele>114.5</ele>
        <time>2023-01-25T15:09:23Z</time>
      </trkpt>
      <trkpt lat="49.96247" lon="2.35996">
        <ele>114.5</ele>
        <time>2023-01-25T15:09:24Z</time>
      </trkpt>
      <trkpt lat="49.96247" lon="2.35996">
        <ele>114.5</ele>
        <time>2023-01-25T15:09:25Z</time>
      </trkpt>
      <trkpt lat="49.96247" lon="2.35996">
        <ele>114.5</ele>
        <time>2023-01-25T15:09:26Z</time>
      </trkpt>
      <trkpt lat="49.96247" lon="2.35996">
        <ele>114.5</ele>
        <time>2023-01-25T15:09:27Z</time>
      </trkpt>
      <trkpt lat="49.96247" lon="2.35996">
        <ele>114.5</ele>
        <time>2023-01-25T15:09:28Z</time>
      </trkpt>
      <trkpt lat="49.96247" lon="2.35996">
        <ele>114.5</ele>
        <time>2023-01-25T15:09:29Z</time>
      </trkpt>
      <trkpt lat="49.96247" lon="2.35996">
        <ele>114.5</ele>
        <time>2023-01-25T15:09:30Z</time>
      </trkpt>
      <trkpt lat="49.96247" lon="2.35996">
        <ele>114.5</ele>
        <time>2023-01-25T15:09:31Z</time>
      </trkpt>
      <trkpt lat="49.96247" lon="2.35996">
        <ele>114.5</ele>
        <time>2023-01-25T15:09:32Z</time>
      </trkpt>
      <trkpt lat="49.96247" lon="2.35996">
        <ele>114.5</ele>
        <time>2023-01-25T15:09:33Z</time>
      </trkpt>
      <trkpt lat="49.96247" lon="2.35996">
        <ele>114.5</ele>
        <time>2023-01-25T15:09:34Z</time>
      </trkpt>
      <trkpt lat="49.96247" lon="2.35996">
        <ele>114.5</ele>
        <time>2023-01-25T15:09:35Z</time>
      </trkpt>
      <trkpt lat="49.96247" lon="2.35996">
        <ele>114.5</ele>
        <time>2023-01-25T15:09:36Z</time>
      </trkpt>
      <trkpt lat="49.96246" lon="2.35996">
        <ele>114.5</ele>
        <time>2023-01-25T15:09:37Z</time>
      </trkpt>
      <trkpt lat="49.96246" lon="2.35996">
        <ele>114.5</ele>
        <time>2023-01-25T15:09:38Z</time>
      </trkpt>
      <trkpt lat="49.96246" lon="2.35996">
        <ele>114.5</ele>
        <time>2023-01-25T15:09:39Z</time>
      </trkpt>
      <trkpt lat="49.96246" lon="2.35996">
        <ele>114.5</ele>
        <time>2023-01-25T15:09:40Z</time>
      </trkpt>
      <trkpt lat="49.96246" lon="2.35996">
        <ele>114.5</ele>
        <time>2023-01-25T15:09:41Z</time>
      </trkpt>
      <trkpt lat="49.96246" lon="2.35996">
        <ele>114.5</ele>
        <time>2023-01-25T15:09:42Z</time>
      </trkpt>
      <trkpt lat="49.96246" lon="2.35996">
        <ele>114.5</ele>
        <time>2023-01-25T15:09:43Z</time>
      </trkpt>
      <trkpt lat="49.96246" lon="2.35995">
        <ele>114.5</ele>
        <time>2023-01-25T15:09:44Z</time>
      </trkpt>
      <trkpt lat="49.96246" lon="2.35995">
        <ele>114.5</ele>
        <time>2023-01-25T15:09:45Z</time>
      </trkpt>
      <trkpt lat="49.96246" lon="2.35995">
        <ele>114.5</ele>
        <time>2023-01-25T15:09:46Z</time>
      </trkpt>
      <trkpt lat="49.96246" lon="2.35995">
        <ele>114.5</ele>
        <time>2023-01-25T15:09:47Z</time>
      </trkpt>
      <trkpt lat="49.96246" lon="2.35995">
        <ele>114.5</ele>
        <time>2023-01-25T15:09:48Z</time>
      </trkpt>
      <trkpt lat="49.96246" lon="2.35995">
        <ele>114.5</ele>
        <time>2023-01-25T15:09:49Z</time>
      </trkpt>
      <trkpt lat="49.96246" lon="2.35995">
        <ele>114.5</ele>
        <time>2023-01-25T15:09:50Z</time>
      </trkpt>
      <trkpt lat="49.96246" lon="2.35995">
        <ele>114.5</ele>
        <time>2023-01-25T15:09:51Z</time>
      </trkpt>
      <trkpt lat="49.96246" lon="2.35995">
        <ele>114.5</ele>
        <time>2023-01-25T15:09:52Z</time>
      </trkpt>
      <trkpt lat="49.96246" lon="2.35995">
        <ele>114.5</ele>
        <time>2023-01-25T15:09:53Z</time>
      </trkpt>
      <trkpt lat="49.96246" lon="2.35995">
        <ele>114.5</ele>
        <time>2023-01-25T15:09:54Z</time>
      </trkpt>
      <trkpt lat="49.96246" lon="2.35995">
        <ele>114.5</ele>
        <time>2023-01-25T15:09:55Z</time>
      </trkpt>
      <trkpt lat="49.96246" lon="2.35995">
        <ele>114.5</ele>
        <time>2023-01-25T15:09:56Z</time>
      </trkpt>
      <trkpt lat="49.96246" lon="2.35995">
        <ele>114.5</ele>
        <time>2023-01-25T15:09:57Z</time>
      </trkpt>
      <trkpt lat="49.96246" lon="2.35995">
        <ele>114.5</ele>
        <time>2023-01-25T15:09:58Z</time>
      </trkpt>
      <trkpt lat="49.96246" lon="2.35995">
        <ele>114.5</ele>
        <time>2023-01-25T15:09:59Z</time>
      </trkpt>
      <trkpt lat="49.96246" lon="2.35995">
        <ele>114.5</ele>
        <time>2023-01-25T15:10:00Z</time>
      </trkpt>
      <trkpt lat="49.96246" lon="2.35995">
        <ele>114.5</ele>
        <time>2023-01-25T15:10:01Z</time>
      </trkpt>
      <trkpt lat="49.96246" lon="2.35995">
        <ele>114.5</ele>
        <time>2023-01-25T15:10:02Z</time>
      </trkpt>
      <trkpt lat="49.96246" lon="2.35995">
        <ele>114.5</ele>
        <time>2023-01-25T15:10:03Z</time>
      </trkpt>
      <trkpt lat="49.96246" lon="2.35995">
        <ele>114.5</ele>
        <time>2023-01-25T15:10:04Z</time>
      </trkpt>
      <trkpt lat="49.96246" lon="2.35995">
        <ele>114.5</ele>
        <time>2023-01-25T15:10:05Z</time>
      </trkpt>
      <trkpt lat="49.96246" lon="2.35995">
        <ele>114.5</ele>
        <time>2023-01-25T15:10:06Z</time>
      </trkpt>
      <trkpt lat="49.96246" lon="2.35995">
        <ele>114.5</ele>
        <time>2023-01-25T15:10:07Z</time>
      </trkpt>
      <trkpt lat="49.96246" lon="2.35995">
        <ele>114.5</ele>
        <time>2023-01-25T15:10:08Z</time>
      </trkpt>
      <trkpt lat="49.96246" lon="2.35995">
        <ele>114.5</ele>
        <time>2023-01-25T15:10:09Z</time>
      </trkpt>
      <trkpt lat="49.96246" lon="2.35995">
        <ele>114.5</ele>
        <time>2023-01-25T15:10:10Z</time>
      </trkpt>
      <trkpt lat="49.96246" lon="2.35995">
        <ele>114.5</ele>
        <time>2023-01-25T15:10:11Z</time>
      </trkpt>
      <trkpt lat="49.96246" lon="2.35995">
        <ele>114.5</ele>
        <time>2023-01-25T15:10:12Z</time>
      </trkpt>
      <trkpt lat="49.96246" lon="2.35995">
        <ele>114.5</ele>
        <time>2023-01-25T15:10:13Z</time>
      </trkpt>
      <trkpt lat="49.96245" lon="2.35995">
        <ele>114.5</ele>
        <time>2023-01-25T15:10:15Z</time>
      </trkpt>
      <trkpt lat="49.96245" lon="2.35995">
        <ele>114.5</ele>
        <time>2023-01-25T15:10:16Z</time>
      </trkpt>
      <trkpt lat="49.96245" lon="2.35995">
        <ele>114.5</ele>
        <time>2023-01-25T15:10:18Z</time>
      </trkpt>
      <trkpt lat="49.96245" lon="2.35995">
        <ele>114.5</ele>
        <time>2023-01-25T15:10:19Z</time>
      </trkpt>
      <trkpt lat="49.96245" lon="2.35995">
        <ele>114.5</ele>
        <time>2023-01-25T15:10:21Z</time>
      </trkpt>
      <trkpt lat="49.96245" lon="2.35994">
        <ele>114.5</ele>
        <time>2023-01-25T15:10:22Z</time>
      </trkpt>
      <trkpt lat="49.96245" lon="2.35994">
        <ele>114.5</ele>
        <time>2023-01-25T15:10:23Z</time>
      </trkpt>
      <trkpt lat="49.96245" lon="2.35994">
        <ele>114.4</ele>
        <time>2023-01-25T15:10:25Z</time>
      </trkpt>
      <trkpt lat="49.96245" lon="2.35994">
        <ele>114.4</ele>
        <time>2023-01-25T15:10:26Z</time>
      </trkpt>
      <trkpt lat="49.96245" lon="2.35994">
        <ele>114.4</ele>
        <time>2023-01-25T15:10:27Z</time>
      </trkpt>
      <trkpt lat="49.96245" lon="2.35994">
        <ele>114.4</ele>
        <time>2023-01-25T15:10:29Z</time>
      </trkpt>
      <trkpt lat="49.96245" lon="2.35994">
        <ele>114.4</ele>
        <time>2023-01-25T15:10:30Z</time>
      </trkpt>
      <trkpt lat="49.96245" lon="2.35994">
        <ele>114.4</ele>
        <time>2023-01-25T15:10:31Z</time>
      </trkpt>
      <trkpt lat="49.96245" lon="2.35994">
        <ele>114.4</ele>
        <time>2023-01-25T15:10:32Z</time>
      </trkpt>
      <trkpt lat="49.96245" lon="2.35994">
        <ele>114.4</ele>
        <time>2023-01-25T15:10:33Z</time>
      </trkpt>
      <trkpt lat="49.96245" lon="2.35994">
        <ele>114.4</ele>
        <time>2023-01-25T15:10:34Z</time>
      </trkpt>
      <trkpt lat="49.96245" lon="2.35994">
        <ele>114.4</ele>
        <time>2023-01-25T15:10:35Z</time>
      </trkpt>
      <trkpt lat="49.96245" lon="2.35994">
        <ele>114.4</ele>
        <time>2023-01-25T15:10:36Z</time>
      </trkpt>
      <trkpt lat="49.96245" lon="2.35994">
        <ele>114.4</ele>
        <time>2023-01-25T15:10:37Z</time>
      </trkpt>
      <trkpt lat="49.96245" lon="2.35994">
        <ele>114.4</ele>
        <time>2023-01-25T15:10:38Z</time>
      </trkpt>
      <trkpt lat="49.96245" lon="2.35994">
        <ele>114.4</ele>
        <time>2023-01-25T15:10:39Z</time>
      </trkpt>
      <trkpt lat="49.96245" lon="2.35994">
        <ele>114.4</ele>
        <time>2023-01-25T15:10:40Z</time>
      </trkpt>
      <trkpt lat="49.96245" lon="2.35994">
        <ele>114.4</ele>
        <time>2023-01-25T15:10:41Z</time>
      </trkpt>
      <trkpt lat="49.96245" lon="2.35994">
        <ele>114.4</ele>
        <time>2023-01-25T15:10:42Z</time>
      </trkpt>
      <trkpt lat="49.96245" lon="2.35994">
        <ele>114.4</ele>
        <time>2023-01-25T15:10:43Z</time>
      </trkpt>
      <trkpt lat="49.96245" lon="2.35994">
        <ele>114.4</ele>
        <time>2023-01-25T15:10:44Z</time>
      </trkpt>
      <trkpt lat="49.96245" lon="2.35994">
        <ele>114.4</ele>
        <time>2023-01-25T15:10:45Z</time>
      </trkpt>
      <trkpt lat="49.96245" lon="2.35994">
        <ele>114.4</ele>
        <time>2023-01-25T15:10:46Z</time>
      </trkpt>
      <trkpt lat="49.96245" lon="2.35994">
        <ele>114.4</ele>
        <time>2023-01-25T15:10:47Z</time>
      </trkpt>
      <trkpt lat="49.96245" lon="2.35994">
        <ele>114.4</ele>
        <time>2023-01-25T15:10:48Z</time>
      </trkpt>
      <trkpt lat="49.96245" lon="2.35994">
        <ele>114.4</ele>
        <time>2023-01-25T15:10:49Z</time>
      </trkpt>
      <trkpt lat="49.96245" lon="2.35994">
        <ele>114.4</ele>
        <time>2023-01-25T15:10:50Z</time>
      </trkpt>
      <trkpt lat="49.96245" lon="2.35994">
        <ele>114.4</ele>
        <time>2023-01-25T15:10:51Z</time>
      </trkpt>
      <trkpt lat="49.96245" lon="2.35994">
        <ele>114.4</ele>
        <time>2023-01-25T15:10:52Z</time>
      </trkpt>
      <trkpt lat="49.96245" lon="2.35994">
        <ele>114.4</ele>
        <time>2023-01-25T15:10:53Z</time>
      </trkpt>
      <trkpt lat="49.96245" lon="2.35994">
        <ele>114.4</ele>
        <time>2023-01-25T15:10:54Z</time>
      </trkpt>
      <trkpt lat="49.96245" lon="2.35994">
        <ele>114.4</ele>
        <time>2023-01-25T15:10:55Z</time>
      </trkpt>
      <trkpt lat="49.96244" lon="2.35994">
        <ele>114.4</ele>
        <time>2023-01-25T15:10:56Z</time>
      </trkpt>
      <trkpt lat="49.96244" lon="2.35994">
        <ele>114.4</ele>
        <time>2023-01-25T15:10:57Z</time>
      </trkpt>
      <trkpt lat="49.96244" lon="2.35994">
        <ele>114.4</ele>
        <time>2023-01-25T15:10:58Z</time>
      </trkpt>
      <trkpt lat="49.96244" lon="2.35993">
        <ele>114.4</ele>
        <time>2023-01-25T15:10:59Z</time>
      </trkpt>
      <trkpt lat="49.96244" lon="2.35993">
        <ele>114.4</ele>
        <time>2023-01-25T15:11:00Z</time>
      </trkpt>
      <trkpt lat="49.96244" lon="2.35993">
        <ele>114.4</ele>
        <time>2023-01-25T15:11:01Z</time>
      </trkpt>
      <trkpt lat="49.96244" lon="2.35993">
        <ele>114.4</ele>
        <time>2023-01-25T15:11:02Z</time>
      </trkpt>
      <trkpt lat="49.96244" lon="2.35993">
        <ele>114.4</ele>
        <time>2023-01-25T15:11:03Z</time>
      </trkpt>
      <trkpt lat="49.96244" lon="2.35993">
        <ele>114.4</ele>
        <time>2023-01-25T15:11:04Z</time>
      </trkpt>
      <trkpt lat="49.96244" lon="2.35993">
        <ele>114.4</ele>
        <time>2023-01-25T15:11:06Z</time>
      </trkpt>
      <trkpt lat="49.96244" lon="2.35993">
        <ele>114.4</ele>
        <time>2023-01-25T15:11:07Z</time>
      </trkpt>
      <trkpt lat="49.96244" lon="2.35993">
        <ele>114.4</ele>
        <time>2023-01-25T15:11:08Z</time>
      </trkpt>
      <trkpt lat="49.96244" lon="2.35993">
        <ele>114.4</ele>
        <time>2023-01-25T15:11:10Z</time>
      </trkpt>
      <trkpt lat="49.96244" lon="2.35993">
        <ele>114.4</ele>
        <time>2023-01-25T15:11:11Z</time>
      </trkpt>
      <trkpt lat="49.96244" lon="2.35993">
        <ele>114.4</ele>
        <time>2023-01-25T15:11:12Z</time>
      </trkpt>
      <trkpt lat="49.96241" lon="2.3599">
        <ele>114.4</ele>
        <time>2023-01-25T15:11:13Z</time>
      </trkpt>
      <trkpt lat="49.9624" lon="2.35989">
        <ele>114.4</ele>
        <time>2023-01-25T15:11:14Z</time>
      </trkpt>
      <trkpt lat="49.96239" lon="2.35987">
        <ele>114.5</ele>
        <time>2023-01-25T15:11:15Z</time>
      </trkpt>
      <trkpt lat="49.96238" lon="2.35986">
        <ele>114.5</ele>
        <time>2023-01-25T15:11:16Z</time>
      </trkpt>
      <trkpt lat="49.96235" lon="2.35984">
        <ele>114.6</ele>
        <time>2023-01-25T15:11:17Z</time>
      </trkpt>
      <trkpt lat="49.96234" lon="2.35984">
        <ele>114.7</ele>
        <time>2023-01-25T15:11:19Z</time>
      </trkpt>
      <trkpt lat="49.96233" lon="2.35983">
        <ele>114.7</ele>
        <time>2023-01-25T15:11:20Z</time>
      </trkpt>
      <trkpt lat="49.96231" lon="2.35983">
        <ele>114.7</ele>
        <time>2023-01-25T15:11:21Z</time>
      </trkpt>
      <trkpt lat="49.9623" lon="2.35983">
        <ele>114.7</ele>
        <time>2023-01-25T15:11:22Z</time>
      </trkpt>
      <trkpt lat="49.96229" lon="2.35983">
        <ele>114.7</ele>
        <time>2023-01-25T15:11:23Z</time>
      </trkpt>
      <trkpt lat="49.96228" lon="2.35984">
        <ele>114.6</ele>
        <time>2023-01-25T15:11:24Z</time>
      </trkpt>
      <trkpt lat="49.96227" lon="2.35984">
        <ele>114.6</ele>
        <time>2023-01-25T15:11:26Z</time>
      </trkpt>
      <trkpt lat="49.96226" lon="2.35984">
        <ele>114.6</ele>
        <time>2023-01-25T15:11:27Z</time>
      </trkpt>
      <trkpt lat="49.96225" lon="2.35984">
        <ele>114.6</ele>
        <time>2023-01-25T15:11:28Z</time>
      </trkpt>
      <trkpt lat="49.96223" lon="2.35984">
        <ele>114.6</ele>
        <time>2023-01-25T15:11:29Z</time>
      </trkpt>
      <trkpt lat="49.96222" lon="2.35984">
        <ele>114.6</ele>
        <time>2023-01-25T15:11:30Z</time>
      </trkpt>
      <trkpt lat="49.96221" lon="2.35983">
        <ele>114.6</ele>
        <time>2023-01-25T15:11:31Z</time>
      </trkpt>
      <trkpt lat="49.9622" lon="2.35983">
        <ele>114.6</ele>
        <time>2023-01-25T15:11:32Z</time>
      </trkpt>
      <trkpt lat="49.96218" lon="2.35983">
        <ele>114.6</ele>
        <time>2023-01-25T15:11:34Z</time>
      </trkpt>
      <trkpt lat="49.96216" lon="2.35983">
        <ele>114.6</ele>
        <time>2023-01-25T15:11:35Z</time>
      </trkpt>
      <trkpt lat="49.96214" lon="2.35983">
        <ele>114.6</ele>
        <time>2023-01-25T15:11:36Z</time>
      </trkpt>
      <trkpt lat="49.96213" lon="2.35982">
        <ele>114.6</ele>
        <time>2023-01-25T15:11:37Z</time>
      </trkpt>
      <trkpt lat="49.96211" lon="2.35982">
        <ele>114.6</ele>
        <time>2023-01-25T15:11:38Z</time>
      </trkpt>
      <trkpt lat="49.9621" lon="2.35982">
        <ele>114.5</ele>
        <time>2023-01-25T15:11:39Z</time>
      </trkpt>
      <trkpt lat="49.96208" lon="2.35982">
        <ele>114.5</ele>
        <time>2023-01-25T15:11:40Z</time>
      </trkpt>
      <trkpt lat="49.96206" lon="2.35982">
        <ele>114.5</ele>
        <time>2023-01-25T15:11:42Z</time>
      </trkpt>
      <trkpt lat="49.96205" lon="2.35982">
        <ele>114.5</ele>
        <time>2023-01-25T15:11:43Z</time>
      </trkpt>
      <trkpt lat="49.96203" lon="2.35982">
        <ele>114.5</ele>
        <time>2023-01-25T15:11:44Z</time>
      </trkpt>
      <trkpt lat="49.96202" lon="2.35982">
        <ele>114.5</ele>
        <time>2023-01-25T15:11:45Z</time>
      </trkpt>
      <trkpt lat="49.96201" lon="2.35982">
        <ele>114.5</ele>
        <time>2023-01-25T15:11:46Z</time>
      </trkpt>
      <trkpt lat="49.962" lon="2.35983">
        <ele>114.5</ele>
        <time>2023-01-25T15:11:47Z</time>
      </trkpt>
      <trkpt lat="49.96199" lon="2.35983">
        <ele>114.5</ele>
        <time>2023-01-25T15:11:48Z</time>
      </trkpt>
      <trkpt lat="49.96198" lon="2.35983">
        <ele>114.5</ele>
        <time>2023-01-25T15:11:50Z</time>
      </trkpt>
      <trkpt lat="49.96196" lon="2.35983">
        <ele>114.5</ele>
        <time>2023-01-25T15:11:51Z</time>
      </trkpt>
      <trkpt lat="49.96195" lon="2.35983">
        <ele>114.5</ele>
        <time>2023-01-25T15:11:52Z</time>
      </trkpt>
      <trkpt lat="49.96195" lon="2.35982">
        <ele>114.5</ele>
        <time>2023-01-25T15:11:53Z</time>
      </trkpt>
      <trkpt lat="49.96193" lon="2.35982">
        <ele>114.5</ele>
        <time>2023-01-25T15:11:54Z</time>
      </trkpt>
      <trkpt lat="49.96192" lon="2.35982">
        <ele>114.5</ele>
        <time>2023-01-25T15:11:55Z</time>
      </trkpt>
      <trkpt lat="49.96191" lon="2.35982">
        <ele>114.5</ele>
        <time>2023-01-25T15:11:56Z</time>
      </trkpt>
      <trkpt lat="49.9619" lon="2.35982">
        <ele>114.5</ele>
        <time>2023-01-25T15:11:57Z</time>
      </trkpt>
      <trkpt lat="49.96189" lon="2.35982">
        <ele>114.5</ele>
        <time>2023-01-25T15:11:59Z</time>
      </trkpt>
      <trkpt lat="49.96188" lon="2.35982">
        <ele>114.5</ele>
        <time>2023-01-25T15:12:00Z</time>
      </trkpt>
      <trkpt lat="49.96186" lon="2.35982">
        <ele>114.5</ele>
        <time>2023-01-25T15:12:01Z</time>
      </trkpt>
      <trkpt lat="49.96186" lon="2.35983">
        <ele>114.5</ele>
        <time>2023-01-25T15:12:02Z</time>
      </trkpt>
      <trkpt lat="49.96184" lon="2.35983">
        <ele>114.5</ele>
        <time>2023-01-25T15:12:03Z</time>
      </trkpt>
      <trkpt lat="49.96183" lon="2.35982">
        <ele>114.5</ele>
        <time>2023-01-25T15:12:04Z</time>
      </trkpt>
      <trkpt lat="49.96182" lon="2.35983">
        <ele>114.5</ele>
        <time>2023-01-25T15:12:05Z</time>
      </trkpt>
      <trkpt lat="49.96181" lon="2.35983">
        <ele>114.5</ele>
        <time>2023-01-25T15:12:07Z</time>
      </trkpt>
      <trkpt lat="49.96179" lon="2.35983">
        <ele>114.5</ele>
        <time>2023-01-25T15:12:08Z</time>
      </trkpt>
      <trkpt lat="49.96178" lon="2.35983">
        <ele>114.5</ele>
        <time>2023-01-25T15:12:09Z</time>
      </trkpt>
      <trkpt lat="49.96175" lon="2.35983">
        <ele>114.5</ele>
        <time>2023-01-25T15:12:10Z</time>
      </trkpt>
      <trkpt lat="49.96175" lon="2.35983">
        <ele>114.4</ele>
        <time>2023-01-25T15:12:11Z</time>
      </trkpt>
      <trkpt lat="49.96174" lon="2.35984">
        <ele>114.4</ele>
        <time>2023-01-25T15:12:12Z</time>
      </trkpt>
      <trkpt lat="49.96172" lon="2.35984">
        <ele>114.4</ele>
        <time>2023-01-25T15:12:13Z</time>
      </trkpt>
      <trkpt lat="49.96171" lon="2.35984">
        <ele>114.4</ele>
        <time>2023-01-25T15:12:14Z</time>
      </trkpt>
      <trkpt lat="49.9617" lon="2.35984">
        <ele>114.4</ele>
        <time>2023-01-25T15:12:15Z</time>
      </trkpt>
      <trkpt lat="49.96169" lon="2.35984">
        <ele>114.4</ele>
        <time>2023-01-25T15:12:16Z</time>
      </trkpt>
      <trkpt lat="49.96168" lon="2.35984">
        <ele>114.4</ele>
        <time>2023-01-25T15:12:17Z</time>
      </trkpt>
      <trkpt lat="49.96166" lon="2.35984">
        <ele>114.4</ele>
        <time>2023-01-25T15:12:19Z</time>
      </trkpt>
      <trkpt lat="49.96165" lon="2.35984">
        <ele>114.4</ele>
        <time>2023-01-25T15:12:20Z</time>
      </trkpt>
      <trkpt lat="49.96163" lon="2.35984">
        <ele>114.4</ele>
        <time>2023-01-25T15:12:21Z</time>
      </trkpt>
      <trkpt lat="49.96162" lon="2.35984">
        <ele>114.4</ele>
        <time>2023-01-25T15:12:22Z</time>
      </trkpt>
      <trkpt lat="49.96161" lon="2.35984">
        <ele>114.4</ele>
        <time>2023-01-25T15:12:23Z</time>
      </trkpt>
      <trkpt lat="49.9616" lon="2.35984">
        <ele>114.4</ele>
        <time>2023-01-25T15:12:25Z</time>
      </trkpt>
      <trkpt lat="49.96159" lon="2.35984">
        <ele>114.4</ele>
        <time>2023-01-25T15:12:26Z</time>
      </trkpt>
      <trkpt lat="49.96158" lon="2.35983">
        <ele>114.4</ele>
        <time>2023-01-25T15:12:27Z</time>
      </trkpt>
      <trkpt lat="49.96157" lon="2.35983">
        <ele>114.3</ele>
        <time>2023-01-25T15:12:28Z</time>
      </trkpt>
      <trkpt lat="49.96155" lon="2.35982">
        <ele>114.3</ele>
        <time>2023-01-25T15:12:29Z</time>
      </trkpt>
      <trkpt lat="49.96154" lon="2.35982">
        <ele>114.3</ele>
        <time>2023-01-25T15:12:30Z</time>
      </trkpt>
      <trkpt lat="49.96153" lon="2.35982">
        <ele>114.3</ele>
        <time>2023-01-25T15:12:31Z</time>
      </trkpt>
      <trkpt lat="49.96152" lon="2.35982">
        <ele>114.3</ele>
        <time>2023-01-25T15:12:32Z</time>
      </trkpt>
      <trkpt lat="49.9615" lon="2.35982">
        <ele>114.3</ele>
        <time>2023-01-25T15:12:34Z</time>
      </trkpt>
      <trkpt lat="49.96148" lon="2.35983">
        <ele>114.3</ele>
        <time>2023-01-25T15:12:35Z</time>
      </trkpt>
      <trkpt lat="49.96147" lon="2.35983">
        <ele>114.3</ele>
        <time>2023-01-25T15:12:36Z</time>
      </trkpt>
      <trkpt lat="49.96146" lon="2.35983">
        <ele>114.3</ele>
        <time>2023-01-25T15:12:37Z</time>
      </trkpt>
      <trkpt lat="49.96144" lon="2.35984">
        <ele>114.3</ele>
        <time>2023-01-25T15:12:38Z</time>
      </trkpt>
      <trkpt lat="49.96144" lon="2.35984">
        <ele>114.3</ele>
        <time>2023-01-25T15:12:39Z</time>
      </trkpt>
      <trkpt lat="49.96143" lon="2.35985">
        <ele>114.3</ele>
        <time>2023-01-25T15:12:40Z</time>
      </trkpt>
      <trkpt lat="49.96141" lon="2.35985">
        <ele>114.2</ele>
        <time>2023-01-25T15:12:41Z</time>
      </trkpt>
      <trkpt lat="49.9614" lon="2.35986">
        <ele>114.2</ele>
        <time>2023-01-25T15:12:42Z</time>
      </trkpt>
      <trkpt lat="49.96139" lon="2.35986">
        <ele>114.2</ele>
        <time>2023-01-25T15:12:44Z</time>
      </trkpt>
      <trkpt lat="49.96138" lon="2.35986">
        <ele>114.2</ele>
        <time>2023-01-25T15:12:45Z</time>
      </trkpt>
      <trkpt lat="49.96136" lon="2.35987">
        <ele>114.2</ele>
        <time>2023-01-25T15:12:46Z</time>
      </trkpt>
      <trkpt lat="49.96135" lon="2.35987">
        <ele>114.2</ele>
        <time>2023-01-25T15:12:47Z</time>
      </trkpt>
      <trkpt lat="49.96134" lon="2.35988">
        <ele>114.2</ele>
        <time>2023-01-25T15:12:48Z</time>
      </trkpt>
      <trkpt lat="49.96132" lon="2.35988">
        <ele>114.2</ele>
        <time>2023-01-25T15:12:49Z</time>
      </trkpt>
      <trkpt lat="49.96131" lon="2.35989">
        <ele>114.2</ele>
        <time>2023-01-25T15:12:50Z</time>
      </trkpt>
      <trkpt lat="49.9613" lon="2.35989">
        <ele>114.2</ele>
        <time>2023-01-25T15:12:52Z</time>
      </trkpt>
      <trkpt lat="49.96128" lon="2.3599">
        <ele>114.2</ele>
        <time>2023-01-25T15:12:53Z</time>
      </trkpt>
      <trkpt lat="49.96127" lon="2.3599">
        <ele>114.2</ele>
        <time>2023-01-25T15:12:54Z</time>
      </trkpt>
      <trkpt lat="49.96126" lon="2.35991">
        <ele>114.1</ele>
        <time>2023-01-25T15:12:55Z</time>
      </trkpt>
      <trkpt lat="49.96125" lon="2.35992">
        <ele>114.1</ele>
        <time>2023-01-25T15:12:56Z</time>
      </trkpt>
      <trkpt lat="49.96124" lon="2.35992">
        <ele>114.1</ele>
        <time>2023-01-25T15:12:57Z</time>
      </trkpt>
      <trkpt lat="49.96121" lon="2.35993">
        <ele>114.1</ele>
        <time>2023-01-25T15:12:58Z</time>
      </trkpt>
      <trkpt lat="49.9612" lon="2.35994">
        <ele>114.1</ele>
        <time>2023-01-25T15:13:00Z</time>
      </trkpt>
      <trkpt lat="49.96119" lon="2.35994">
        <ele>114.1</ele>
        <time>2023-01-25T15:13:01Z</time>
      </trkpt>
      <trkpt lat="49.96118" lon="2.35995">
        <ele>114.1</ele>
        <time>2023-01-25T15:13:02Z</time>
      </trkpt>
      <trkpt lat="49.96117" lon="2.35995">
        <ele>114.1</ele>
        <time>2023-01-25T15:13:03Z</time>
      </trkpt>
      <trkpt lat="49.96115" lon="2.35996">
        <ele>114.1</ele>
        <time>2023-01-25T15:13:04Z</time>
      </trkpt>
      <trkpt lat="49.96114" lon="2.35996">
        <ele>114.1</ele>
        <time>2023-01-25T15:13:05Z</time>
      </trkpt>
      <trkpt lat="49.96112" lon="2.35997">
        <ele>114</ele>
        <time>2023-01-25T15:13:06Z</time>
      </trkpt>
      <trkpt lat="49.96111" lon="2.35997">
        <ele>114</ele>
        <time>2023-01-25T15:13:08Z</time>
      </trkpt>
      <trkpt lat="49.9611" lon="2.35997">
        <ele>114</ele>
        <time>2023-01-25T15:13:09Z</time>
      </trkpt>
      <trkpt lat="49.96109" lon="2.35997">
        <ele>114</ele>
        <time>2023-01-25T15:13:10Z</time>
      </trkpt>
      <trkpt lat="49.96108" lon="2.35997">
        <ele>114</ele>
        <time>2023-01-25T15:13:11Z</time>
      </trkpt>
      <trkpt lat="49.96107" lon="2.35997">
        <ele>114</ele>
        <time>2023-01-25T15:13:12Z</time>
      </trkpt>
      <trkpt lat="49.96105" lon="2.35997">
        <ele>114</ele>
        <time>2023-01-25T15:13:13Z</time>
      </trkpt>
      <trkpt lat="49.96103" lon="2.35998">
        <ele>114</ele>
        <time>2023-01-25T15:13:14Z</time>
      </trkpt>
      <trkpt lat="49.96102" lon="2.35998">
        <ele>114</ele>
        <time>2023-01-25T15:13:15Z</time>
      </trkpt>
      <trkpt lat="49.96101" lon="2.35998">
        <ele>113.9</ele>
        <time>2023-01-25T15:13:17Z</time>
      </trkpt>
      <trkpt lat="49.961" lon="2.35998">
        <ele>113.9</ele>
        <time>2023-01-25T15:13:18Z</time>
      </trkpt>
      <trkpt lat="49.96098" lon="2.35998">
        <ele>113.9</ele>
        <time>2023-01-25T15:13:19Z</time>
      </trkpt>
      <trkpt lat="49.96098" lon="2.35998">
        <ele>113.9</ele>
        <time>2023-01-25T15:13:20Z</time>
      </trkpt>
      <trkpt lat="49.96096" lon="2.35998">
        <ele>113.9</ele>
        <time>2023-01-25T15:13:21Z</time>
      </trkpt>
      <trkpt lat="49.96094" lon="2.35998">
        <ele>113.9</ele>
        <time>2023-01-25T15:13:22Z</time>
      </trkpt>
      <trkpt lat="49.96094" lon="2.35998">
        <ele>113.9</ele>
        <time>2023-01-25T15:13:23Z</time>
      </trkpt>
      <trkpt lat="49.96093" lon="2.35997">
        <ele>113.9</ele>
        <time>2023-01-25T15:13:24Z</time>
      </trkpt>
      <trkpt lat="49.96091" lon="2.35997">
        <ele>113.9</ele>
        <time>2023-01-25T15:13:26Z</time>
      </trkpt>
      <trkpt lat="49.9609" lon="2.35997">
        <ele>113.9</ele>
        <time>2023-01-25T15:13:27Z</time>
      </trkpt>
      <trkpt lat="49.96089" lon="2.35997">
        <ele>113.9</ele>
        <time>2023-01-25T15:13:28Z</time>
      </trkpt>
      <trkpt lat="49.96087" lon="2.35997">
        <ele>113.9</ele>
        <time>2023-01-25T15:13:29Z</time>
      </trkpt>
      <trkpt lat="49.96086" lon="2.35997">
        <ele>113.9</ele>
        <time>2023-01-25T15:13:30Z</time>
      </trkpt>
      <trkpt lat="49.96085" lon="2.35997">
        <ele>113.9</ele>
        <time>2023-01-25T15:13:31Z</time>
      </trkpt>
      <trkpt lat="49.96084" lon="2.35997">
        <ele>113.9</ele>
        <time>2023-01-25T15:13:32Z</time>
      </trkpt>
      <trkpt lat="49.96081" lon="2.35997">
        <ele>113.8</ele>
        <time>2023-01-25T15:13:33Z</time>
      </trkpt>
      <trkpt lat="49.9608" lon="2.35997">
        <ele>113.8</ele>
        <time>2023-01-25T15:13:35Z</time>
      </trkpt>
      <trkpt lat="49.96079" lon="2.35997">
        <ele>113.8</ele>
        <time>2023-01-25T15:13:36Z</time>
      </trkpt>
      <trkpt lat="49.96078" lon="2.35997">
        <ele>113.8</ele>
        <time>2023-01-25T15:13:37Z</time>
      </trkpt>
      <trkpt lat="49.96077" lon="2.35997">
        <ele>113.8</ele>
        <time>2023-01-25T15:13:38Z</time>
      </trkpt>
      <trkpt lat="49.96075" lon="2.35997">
        <ele>113.8</ele>
        <time>2023-01-25T15:13:39Z</time>
      </trkpt>
      <trkpt lat="49.96074" lon="2.35997">
        <ele>113.8</ele>
        <time>2023-01-25T15:13:40Z</time>
      </trkpt>
      <trkpt lat="49.96073" lon="2.35997">
        <ele>113.8</ele>
        <time>2023-01-25T15:13:41Z</time>
      </trkpt>
      <trkpt lat="49.96071" lon="2.35998">
        <ele>113.8</ele>
        <time>2023-01-25T15:13:42Z</time>
      </trkpt>
      <trkpt lat="49.9607" lon="2.35998">
        <ele>113.8</ele>
        <time>2023-01-25T15:13:44Z</time>
      </trkpt>
      <trkpt lat="49.96069" lon="2.35998">
        <ele>113.8</ele>
        <time>2023-01-25T15:13:45Z</time>
      </trkpt>
      <trkpt lat="49.96067" lon="2.35998">
        <ele>113.7</ele>
        <time>2023-01-25T15:13:46Z</time>
      </trkpt>
      <trkpt lat="49.96066" lon="2.35998">
        <ele>113.7</ele>
        <time>2023-01-25T15:13:47Z</time>
      </trkpt>
      <trkpt lat="49.96065" lon="2.35998">
        <ele>113.7</ele>
        <time>2023-01-25T15:13:48Z</time>
      </trkpt>
      <trkpt lat="49.96063" lon="2.35999">
        <ele>113.7</ele>
        <time>2023-01-25T15:13:49Z</time>
      </trkpt>
      <trkpt lat="49.96062" lon="2.35999">
        <ele>113.7</ele>
        <time>2023-01-25T15:13:50Z</time>
      </trkpt>
      <trkpt lat="49.96061" lon="2.35999">
        <ele>113.7</ele>
        <time>2023-01-25T15:13:51Z</time>
      </trkpt>
      <trkpt lat="49.9606" lon="2.35998">
        <ele>113.7</ele>
        <time>2023-01-25T15:13:53Z</time>
      </trkpt>
      <trkpt lat="49.96059" lon="2.35998">
        <ele>113.7</ele>
        <time>2023-01-25T15:13:54Z</time>
      </trkpt>
      <trkpt lat="49.96057" lon="2.35998">
        <ele>113.6</ele>
        <time>2023-01-25T15:13:55Z</time>
      </trkpt>
      <trkpt lat="49.96056" lon="2.35998">
        <ele>113.6</ele>
        <time>2023-01-25T15:13:56Z</time>
      </trkpt>
      <trkpt lat="49.96055" lon="2.35998">
        <ele>113.6</ele>
        <time>2023-01-25T15:13:57Z</time>
      </trkpt>
      <trkpt lat="49.96055" lon="2.35998">
        <ele>113.6</ele>
        <time>2023-01-25T15:13:58Z</time>
      </trkpt>
      <trkpt lat="49.96053" lon="2.35998">
        <ele>113.6</ele>
        <time>2023-01-25T15:13:59Z</time>
      </trkpt>
      <trkpt lat="49.96053" lon="2.35998">
        <ele>113.6</ele>
        <time>2023-01-25T15:14:00Z</time>
      </trkpt>
      <trkpt lat="49.96052" lon="2.35998">
        <ele>113.6</ele>
        <time>2023-01-25T15:14:01Z</time>
      </trkpt>
      <trkpt lat="49.9605" lon="2.35999">
        <ele>113.6</ele>
        <time>2023-01-25T15:14:02Z</time>
      </trkpt>
      <trkpt lat="49.96049" lon="2.35999">
        <ele>113.6</ele>
        <time>2023-01-25T15:14:04Z</time>
      </trkpt>
      <trkpt lat="49.96048" lon="2.35999">
        <ele>113.5</ele>
        <time>2023-01-25T15:14:05Z</time>
      </trkpt>
      <trkpt lat="49.96047" lon="2.35998">
        <ele>113.5</ele>
        <time>2023-01-25T15:14:06Z</time>
      </trkpt>
      <trkpt lat="49.96046" lon="2.35998">
        <ele>113.5</ele>
        <time>2023-01-25T15:14:07Z</time>
      </trkpt>
      <trkpt lat="49.96045" lon="2.35998">
        <ele>113.5</ele>
        <time>2023-01-25T15:14:08Z</time>
      </trkpt>
      <trkpt lat="49.96043" lon="2.35998">
        <ele>113.5</ele>
        <time>2023-01-25T15:14:09Z</time>
      </trkpt>
      <trkpt lat="49.96043" lon="2.35998">
        <ele>113.5</ele>
        <time>2023-01-25T15:14:10Z</time>
      </trkpt>
      <trkpt lat="49.96041" lon="2.35998">
        <ele>113.5</ele>
        <time>2023-01-25T15:14:12Z</time>
      </trkpt>
      <trkpt lat="49.9604" lon="2.35998">
        <ele>113.5</ele>
        <time>2023-01-25T15:14:13Z</time>
      </trkpt>
      <trkpt lat="49.96038" lon="2.35998">
        <ele>113.4</ele>
        <time>2023-01-25T15:14:14Z</time>
      </trkpt>
      <trkpt lat="49.96037" lon="2.35998">
        <ele>113.4</ele>
        <time>2023-01-25T15:14:15Z</time>
      </trkpt>
      <trkpt lat="49.96036" lon="2.35999">
        <ele>113.4</ele>
        <time>2023-01-25T15:14:16Z</time>
      </trkpt>
      <trkpt lat="49.96035" lon="2.35999">
        <ele>113.4</ele>
        <time>2023-01-25T15:14:17Z</time>
      </trkpt>
      <trkpt lat="49.96034" lon="2.36">
        <ele>113.4</ele>
        <time>2023-01-25T15:14:18Z</time>
      </trkpt>
      <trkpt lat="49.96032" lon="2.36">
        <ele>113.4</ele>
        <time>2023-01-25T15:14:20Z</time>
      </trkpt>
      <trkpt lat="49.96031" lon="2.36">
        <ele>113.4</ele>
        <time>2023-01-25T15:14:21Z</time>
      </trkpt>
      <trkpt lat="49.96029" lon="2.36001">
        <ele>113.3</ele>
        <time>2023-01-25T15:14:22Z</time>
      </trkpt>
      <trkpt lat="49.96028" lon="2.36001">
        <ele>113.3</ele>
        <time>2023-01-25T15:14:23Z</time>
      </trkpt>
      <trkpt lat="49.96027" lon="2.36002">
        <ele>113.3</ele>
        <time>2023-01-25T15:14:24Z</time>
      </trkpt>
      <trkpt lat="49.96027" lon="2.36002">
        <ele>113.3</ele>
        <time>2023-01-25T15:14:25Z</time>
      </trkpt>
      <trkpt lat="49.96026" lon="2.36003">
        <ele>113.3</ele>
        <time>2023-01-25T15:14:26Z</time>
      </trkpt>
      <trkpt lat="49.96025" lon="2.36003">
        <ele>113.2</ele>
        <time>2023-01-25T15:14:27Z</time>
      </trkpt>
      <trkpt lat="49.96023" lon="2.36004">
        <ele>113.2</ele>
        <time>2023-01-25T15:14:28Z</time>
      </trkpt>
      <trkpt lat="49.96022" lon="2.36004">
        <ele>113.2</ele>
        <time>2023-01-25T15:14:30Z</time>
      </trkpt>
      <trkpt lat="49.96021" lon="2.36005">
        <ele>113.2</ele>
        <time>2023-01-25T15:14:31Z</time>
      </trkpt>
      <trkpt lat="49.9602" lon="2.36005">
        <ele>113.1</ele>
        <time>2023-01-25T15:14:32Z</time>
      </trkpt>
      <trkpt lat="49.96019" lon="2.36005">
        <ele>113.1</ele>
        <time>2023-01-25T15:14:33Z</time>
      </trkpt>
      <trkpt lat="49.96017" lon="2.36006">
        <ele>113.1</ele>
        <time>2023-01-25T15:14:34Z</time>
      </trkpt>
      <trkpt lat="49.96016" lon="2.36006">
        <ele>113.1</ele>
        <time>2023-01-25T15:14:35Z</time>
      </trkpt>
      <trkpt lat="49.96015" lon="2.36006">
        <ele>113.1</ele>
        <time>2023-01-25T15:14:36Z</time>
      </trkpt>
      <trkpt lat="49.96014" lon="2.36007">
        <ele>113</ele>
        <time>2023-01-25T15:14:38Z</time>
      </trkpt>
      <trkpt lat="49.96012" lon="2.36008">
        <ele>113</ele>
        <time>2023-01-25T15:14:39Z</time>
      </trkpt>
      <trkpt lat="49.96011" lon="2.36008">
        <ele>113</ele>
        <time>2023-01-25T15:14:40Z</time>
      </trkpt>
      <trkpt lat="49.9601" lon="2.36009">
        <ele>113</ele>
        <time>2023-01-25T15:14:41Z</time>
      </trkpt>
      <trkpt lat="49.96008" lon="2.36009">
        <ele>112.9</ele>
        <time>2023-01-25T15:14:42Z</time>
      </trkpt>
      <trkpt lat="49.96007" lon="2.36008">
        <ele>112.8</ele>
        <time>2023-01-25T15:14:43Z</time>
      </trkpt>
      <trkpt lat="49.96006" lon="2.36007">
        <ele>112.8</ele>
        <time>2023-01-25T15:14:44Z</time>
      </trkpt>
      <trkpt lat="49.96006" lon="2.36006">
        <ele>112.8</ele>
        <time>2023-01-25T15:14:45Z</time>
      </trkpt>
      <trkpt lat="49.96005" lon="2.36005">
        <ele>112.8</ele>
        <time>2023-01-25T15:14:47Z</time>
      </trkpt>
      <trkpt lat="49.96004" lon="2.36003">
        <ele>112.8</ele>
        <time>2023-01-25T15:14:48Z</time>
      </trkpt>
      <trkpt lat="49.96004" lon="2.36001">
        <ele>112.8</ele>
        <time>2023-01-25T15:14:49Z</time>
      </trkpt>
      <trkpt lat="49.96003" lon="2.35999">
        <ele>112.7</ele>
        <time>2023-01-25T15:14:50Z</time>
      </trkpt>
      <trkpt lat="49.96003" lon="2.35997">
        <ele>112.7</ele>
        <time>2023-01-25T15:14:51Z</time>
      </trkpt>
      <trkpt lat="49.96003" lon="2.35995">
        <ele>112.7</ele>
        <time>2023-01-25T15:14:52Z</time>
      </trkpt>
      <trkpt lat="49.96002" lon="2.35994">
        <ele>112.7</ele>
        <time>2023-01-25T15:14:53Z</time>
      </trkpt>
      <trkpt lat="49.96002" lon="2.35992">
        <ele>112.7</ele>
        <time>2023-01-25T15:14:54Z</time>
      </trkpt>
      <trkpt lat="49.96002" lon="2.3599">
        <ele>112.7</ele>
        <time>2023-01-25T15:14:55Z</time>
      </trkpt>
      <trkpt lat="49.96002" lon="2.35988">
        <ele>112.6</ele>
        <time>2023-01-25T15:14:57Z</time>
      </trkpt>
      <trkpt lat="49.96001" lon="2.35985">
        <ele>112.6</ele>
        <time>2023-01-25T15:14:58Z</time>
      </trkpt>
      <trkpt lat="49.96001" lon="2.35984">
        <ele>112.6</ele>
        <time>2023-01-25T15:14:59Z</time>
      </trkpt>
      <trkpt lat="49.96001" lon="2.35982">
        <ele>112.6</ele>
        <time>2023-01-25T15:15:00Z</time>
      </trkpt>
      <trkpt lat="49.96001" lon="2.35981">
        <ele>112.6</ele>
        <time>2023-01-25T15:15:01Z</time>
      </trkpt>
      <trkpt lat="49.96001" lon="2.3598">
        <ele>112.6</ele>
        <time>2023-01-25T15:15:02Z</time>
      </trkpt>
      <trkpt lat="49.96001" lon="2.35979">
        <ele>112.6</ele>
        <time>2023-01-25T15:15:03Z</time>
      </trkpt>
      <trkpt lat="49.96" lon="2.35976">
        <ele>112.6</ele>
        <time>2023-01-25T15:15:05Z</time>
      </trkpt>
      <trkpt lat="49.96" lon="2.35975">
        <ele>112.6</ele>
        <time>2023-01-25T15:15:06Z</time>
      </trkpt>
      <trkpt lat="49.96" lon="2.35973">
        <ele>112.6</ele>
        <time>2023-01-25T15:15:07Z</time>
      </trkpt>
      <trkpt lat="49.96" lon="2.35972">
        <ele>112.6</ele>
        <time>2023-01-25T15:15:08Z</time>
      </trkpt>
      <trkpt lat="49.96" lon="2.3597">
        <ele>112.6</ele>
        <time>2023-01-25T15:15:09Z</time>
      </trkpt>
      <trkpt lat="49.95999" lon="2.35968">
        <ele>112.6</ele>
        <time>2023-01-25T15:15:10Z</time>
      </trkpt>
      <trkpt lat="49.95999" lon="2.35967">
        <ele>112.6</ele>
        <time>2023-01-25T15:15:11Z</time>
      </trkpt>
      <trkpt lat="49.95998" lon="2.35964">
        <ele>112.5</ele>
        <time>2023-01-25T15:15:13Z</time>
      </trkpt>
      <trkpt lat="49.95998" lon="2.35963">
        <ele>112.5</ele>
        <time>2023-01-25T15:15:14Z</time>
      </trkpt>
      <trkpt lat="49.95998" lon="2.35961">
        <ele>112.5</ele>
        <time>2023-01-25T15:15:15Z</time>
      </trkpt>
      <trkpt lat="49.95997" lon="2.3596">
        <ele>112.5</ele>
        <time>2023-01-25T15:15:16Z</time>
      </trkpt>
      <trkpt lat="49.95997" lon="2.35959">
        <ele>112.5</ele>
        <time>2023-01-25T15:15:17Z</time>
      </trkpt>
      <trkpt lat="49.95997" lon="2.35957">
        <ele>112.5</ele>
        <time>2023-01-25T15:15:18Z</time>
      </trkpt>
      <trkpt lat="49.95997" lon="2.35955">
        <ele>112.5</ele>
        <time>2023-01-25T15:15:19Z</time>
      </trkpt>
      <trkpt lat="49.95996" lon="2.35953">
        <ele>112.5</ele>
        <time>2023-01-25T15:15:20Z</time>
      </trkpt>
      <trkpt lat="49.95996" lon="2.35951">
        <ele>112.5</ele>
        <time>2023-01-25T15:15:21Z</time>
      </trkpt>
      <trkpt lat="49.95996" lon="2.35949">
        <ele>112.5</ele>
        <time>2023-01-25T15:15:22Z</time>
      </trkpt>
      <trkpt lat="49.95996" lon="2.35947">
        <ele>112.5</ele>
        <time>2023-01-25T15:15:24Z</time>
      </trkpt>
      <trkpt lat="49.95995" lon="2.35944">
        <ele>112.4</ele>
        <time>2023-01-25T15:15:25Z</time>
      </trkpt>
      <trkpt lat="49.95995" lon="2.35943">
        <ele>112.4</ele>
        <time>2023-01-25T15:15:26Z</time>
      </trkpt>
      <trkpt lat="49.95995" lon="2.35941">
        <ele>112.4</ele>
        <time>2023-01-25T15:15:27Z</time>
      </trkpt>
      <trkpt lat="49.95994" lon="2.3594">
        <ele>112.4</ele>
        <time>2023-01-25T15:15:28Z</time>
      </trkpt>
      <trkpt lat="49.95994" lon="2.35938">
        <ele>112.3</ele>
        <time>2023-01-25T15:15:29Z</time>
      </trkpt>
      <trkpt lat="49.95993" lon="2.35936">
        <ele>112.3</ele>
        <time>2023-01-25T15:15:31Z</time>
      </trkpt>
      <trkpt lat="49.95993" lon="2.35933">
        <ele>112.2</ele>
        <time>2023-01-25T15:15:32Z</time>
      </trkpt>
      <trkpt lat="49.95993" lon="2.35932">
        <ele>112.2</ele>
        <time>2023-01-25T15:15:33Z</time>
      </trkpt>
      <trkpt lat="49.95993" lon="2.3593">
        <ele>112.2</ele>
        <time>2023-01-25T15:15:34Z</time>
      </trkpt>
      <trkpt lat="49.95992" lon="2.35926">
        <ele>112.1</ele>
        <time>2023-01-25T15:15:35Z</time>
      </trkpt>
      <trkpt lat="49.95991" lon="2.35925">
        <ele>112.1</ele>
        <time>2023-01-25T15:15:36Z</time>
      </trkpt>
      <trkpt lat="49.95991" lon="2.35924">
        <ele>112.1</ele>
        <time>2023-01-25T15:15:37Z</time>
      </trkpt>
      <trkpt lat="49.9599" lon="2.35921">
        <ele>112.1</ele>
        <time>2023-01-25T15:15:38Z</time>
      </trkpt>
      <trkpt lat="49.9599" lon="2.3592">
        <ele>112</ele>
        <time>2023-01-25T15:15:40Z</time>
      </trkpt>
      <trkpt lat="49.9599" lon="2.35918">
        <ele>112</ele>
        <time>2023-01-25T15:15:41Z</time>
      </trkpt>
      <trkpt lat="49.95989" lon="2.35917">
        <ele>112</ele>
        <time>2023-01-25T15:15:42Z</time>
      </trkpt>
      <trkpt lat="49.95989" lon="2.35915">
        <ele>112</ele>
        <time>2023-01-25T15:15:43Z</time>
      </trkpt>
      <trkpt lat="49.95989" lon="2.35913">
        <ele>112</ele>
        <time>2023-01-25T15:15:44Z</time>
      </trkpt>
      <trkpt lat="49.95989" lon="2.35911">
        <ele>112</ele>
        <time>2023-01-25T15:15:45Z</time>
      </trkpt>
      <trkpt lat="49.95988" lon="2.35909">
        <ele>112</ele>
        <time>2023-01-25T15:15:46Z</time>
      </trkpt>
      <trkpt lat="49.95988" lon="2.35907">
        <ele>112</ele>
        <time>2023-01-25T15:15:47Z</time>
      </trkpt>
      <trkpt lat="49.95988" lon="2.35905">
        <ele>112</ele>
        <time>2023-01-25T15:15:48Z</time>
      </trkpt>
      <trkpt lat="49.95988" lon="2.35904">
        <ele>111.9</ele>
        <time>2023-01-25T15:15:50Z</time>
      </trkpt>
      <trkpt lat="49.95988" lon="2.35901">
        <ele>111.9</ele>
        <time>2023-01-25T15:15:51Z</time>
      </trkpt>
      <trkpt lat="49.95988" lon="2.359">
        <ele>111.9</ele>
        <time>2023-01-25T15:15:52Z</time>
      </trkpt>
      <trkpt lat="49.95988" lon="2.35898">
        <ele>111.9</ele>
        <time>2023-01-25T15:15:53Z</time>
      </trkpt>
      <trkpt lat="49.95987" lon="2.35896">
        <ele>111.9</ele>
        <time>2023-01-25T15:15:54Z</time>
      </trkpt>
      <trkpt lat="49.95987" lon="2.35894">
        <ele>111.9</ele>
        <time>2023-01-25T15:15:55Z</time>
      </trkpt>
      <trkpt lat="49.95987" lon="2.35892">
        <ele>111.9</ele>
        <time>2023-01-25T15:15:56Z</time>
      </trkpt>
      <trkpt lat="49.95987" lon="2.3589">
        <ele>111.9</ele>
        <time>2023-01-25T15:15:57Z</time>
      </trkpt>
      <trkpt lat="49.95987" lon="2.35889">
        <ele>111.9</ele>
        <time>2023-01-25T15:15:58Z</time>
      </trkpt>
      <trkpt lat="49.95987" lon="2.35887">
        <ele>111.9</ele>
        <time>2023-01-25T15:15:59Z</time>
      </trkpt>
      <trkpt lat="49.95987" lon="2.35884">
        <ele>111.9</ele>
        <time>2023-01-25T15:16:01Z</time>
      </trkpt>
      <trkpt lat="49.95986" lon="2.35883">
        <ele>111.9</ele>
        <time>2023-01-25T15:16:02Z</time>
      </trkpt>
      <trkpt lat="49.95986" lon="2.35881">
        <ele>111.9</ele>
        <time>2023-01-25T15:16:03Z</time>
      </trkpt>
      <trkpt lat="49.95986" lon="2.3588">
        <ele>111.9</ele>
        <time>2023-01-25T15:16:04Z</time>
      </trkpt>
      <trkpt lat="49.95985" lon="2.35878">
        <ele>111.9</ele>
        <time>2023-01-25T15:16:05Z</time>
      </trkpt>
      <trkpt lat="49.95985" lon="2.35877">
        <ele>111.9</ele>
        <time>2023-01-25T15:16:07Z</time>
      </trkpt>
      <trkpt lat="49.95985" lon="2.35875">
        <ele>111.9</ele>
        <time>2023-01-25T15:16:08Z</time>
      </trkpt>
      <trkpt lat="49.95984" lon="2.35872">
        <ele>111.9</ele>
        <time>2023-01-25T15:16:09Z</time>
      </trkpt>
      <trkpt lat="49.95983" lon="2.35871">
        <ele>111.9</ele>
        <time>2023-01-25T15:16:10Z</time>
      </trkpt>
      <trkpt lat="49.95982" lon="2.3587">
        <ele>111.9</ele>
        <time>2023-01-25T15:16:11Z</time>
      </trkpt>
      <trkpt lat="49.95981" lon="2.35869">
        <ele>111.9</ele>
        <time>2023-01-25T15:16:12Z</time>
      </trkpt>
      <trkpt lat="49.9598" lon="2.35868">
        <ele>111.8</ele>
        <time>2023-01-25T15:16:13Z</time>
      </trkpt>
      <trkpt lat="49.95979" lon="2.35867">
        <ele>111.8</ele>
        <time>2023-01-25T15:16:14Z</time>
      </trkpt>
      <trkpt lat="49.95979" lon="2.35865">
        <ele>111.8</ele>
        <time>2023-01-25T15:16:15Z</time>
      </trkpt>
      <trkpt lat="49.95978" lon="2.35864">
        <ele>111.8</ele>
        <time>2023-01-25T15:16:16Z</time>
      </trkpt>
      <trkpt lat="49.95978" lon="2.35863">
        <ele>111.7</ele>
        <time>2023-01-25T15:16:17Z</time>
      </trkpt>
      <trkpt lat="49.95976" lon="2.3586">
        <ele>111.7</ele>
        <time>2023-01-25T15:16:19Z</time>
      </trkpt>
      <trkpt lat="49.95976" lon="2.35859">
        <ele>111.7</ele>
        <time>2023-01-25T15:16:20Z</time>
      </trkpt>
      <trkpt lat="49.95975" lon="2.35858">
        <ele>111.6</ele>
        <time>2023-01-25T15:16:21Z</time>
      </trkpt>
      <trkpt lat="49.95975" lon="2.35856">
        <ele>111.6</ele>
        <time>2023-01-25T15:16:22Z</time>
      </trkpt>
      <trkpt lat="49.95974" lon="2.35855">
        <ele>111.6</ele>
        <time>2023-01-25T15:16:23Z</time>
      </trkpt>
      <trkpt lat="49.95974" lon="2.35853">
        <ele>111.5</ele>
        <time>2023-01-25T15:16:24Z</time>
      </trkpt>
      <trkpt lat="49.95973" lon="2.35851">
        <ele>111.5</ele>
        <time>2023-01-25T15:16:25Z</time>
      </trkpt>
      <trkpt lat="49.95973" lon="2.35849">
        <ele>111.5</ele>
        <time>2023-01-25T15:16:26Z</time>
      </trkpt>
      <trkpt lat="49.95973" lon="2.35847">
        <ele>111.4</ele>
        <time>2023-01-25T15:16:28Z</time>
      </trkpt>
      <trkpt lat="49.95972" lon="2.35845">
        <ele>111.4</ele>
        <time>2023-01-25T15:16:29Z</time>
      </trkpt>
      <trkpt lat="49.95972" lon="2.35842">
        <ele>111.3</ele>
        <time>2023-01-25T15:16:30Z</time>
      </trkpt>
      <trkpt lat="49.95971" lon="2.3584">
        <ele>111.3</ele>
        <time>2023-01-25T15:16:31Z</time>
      </trkpt>
      <trkpt lat="49.95971" lon="2.35839">
        <ele>111.3</ele>
        <time>2023-01-25T15:16:32Z</time>
      </trkpt>
      <trkpt lat="49.95971" lon="2.35837">
        <ele>111.3</ele>
        <time>2023-01-25T15:16:33Z</time>
      </trkpt>
      <trkpt lat="49.95971" lon="2.35834">
        <ele>111.2</ele>
        <time>2023-01-25T15:16:35Z</time>
      </trkpt>
      <trkpt lat="49.95971" lon="2.35832">
        <ele>111.2</ele>
        <time>2023-01-25T15:16:36Z</time>
      </trkpt>
      <trkpt lat="49.95971" lon="2.3583">
        <ele>111.1</ele>
        <time>2023-01-25T15:16:37Z</time>
      </trkpt>
      <trkpt lat="49.95971" lon="2.35829">
        <ele>111.1</ele>
        <time>2023-01-25T15:16:38Z</time>
      </trkpt>
      <trkpt lat="49.95971" lon="2.35827">
        <ele>111.1</ele>
        <time>2023-01-25T15:16:39Z</time>
      </trkpt>
      <trkpt lat="49.95971" lon="2.35824">
        <ele>111</ele>
        <time>2023-01-25T15:16:40Z</time>
      </trkpt>
      <trkpt lat="49.95971" lon="2.35823">
        <ele>111</ele>
        <time>2023-01-25T15:16:41Z</time>
      </trkpt>
      <trkpt lat="49.95971" lon="2.35819">
        <ele>110.9</ele>
        <time>2023-01-25T15:16:43Z</time>
      </trkpt>
      <trkpt lat="49.9597" lon="2.35816">
        <ele>110.9</ele>
        <time>2023-01-25T15:16:45Z</time>
      </trkpt>
      <trkpt lat="49.9597" lon="2.35815">
        <ele>110.9</ele>
        <time>2023-01-25T15:16:46Z</time>
      </trkpt>
      <trkpt lat="49.9597" lon="2.35812">
        <ele>110.8</ele>
        <time>2023-01-25T15:16:47Z</time>
      </trkpt>
      <trkpt lat="49.9597" lon="2.35811">
        <ele>110.8</ele>
        <time>2023-01-25T15:16:48Z</time>
      </trkpt>
      <trkpt lat="49.9597" lon="2.3581">
        <ele>110.8</ele>
        <time>2023-01-25T15:16:49Z</time>
      </trkpt>
      <trkpt lat="49.9597" lon="2.35809">
        <ele>110.8</ele>
        <time>2023-01-25T15:16:50Z</time>
      </trkpt>
      <trkpt lat="49.95969" lon="2.35807">
        <ele>110.7</ele>
        <time>2023-01-25T15:16:51Z</time>
      </trkpt>
      <trkpt lat="49.95969" lon="2.35806">
        <ele>110.7</ele>
        <time>2023-01-25T15:16:52Z</time>
      </trkpt>
      <trkpt lat="49.95969" lon="2.35804">
        <ele>110.7</ele>
        <time>2023-01-25T15:16:54Z</time>
      </trkpt>
      <trkpt lat="49.95969" lon="2.35802">
        <ele>110.6</ele>
        <time>2023-01-25T15:16:55Z</time>
      </trkpt>
      <trkpt lat="49.95969" lon="2.35801">
        <ele>110.6</ele>
        <time>2023-01-25T15:16:56Z</time>
      </trkpt>
      <trkpt lat="49.95969" lon="2.35799">
        <ele>110.6</ele>
        <time>2023-01-25T15:16:57Z</time>
      </trkpt>
      <trkpt lat="49.95968" lon="2.35798">
        <ele>110.5</ele>
        <time>2023-01-25T15:16:58Z</time>
      </trkpt>
      <trkpt lat="49.95968" lon="2.35796">
        <ele>110.5</ele>
        <time>2023-01-25T15:16:59Z</time>
      </trkpt>
      <trkpt lat="49.95967" lon="2.35794">
        <ele>110.5</ele>
        <time>2023-01-25T15:17:00Z</time>
      </trkpt>
      <trkpt lat="49.95967" lon="2.35791">
        <ele>110.4</ele>
        <time>2023-01-25T15:17:01Z</time>
      </trkpt>
      <trkpt lat="49.95967" lon="2.3579">
        <ele>110.4</ele>
        <time>2023-01-25T15:17:02Z</time>
      </trkpt>
      <trkpt lat="49.95967" lon="2.35788">
        <ele>110.3</ele>
        <time>2023-01-25T15:17:04Z</time>
      </trkpt>
      <trkpt lat="49.95967" lon="2.35787">
        <ele>110.3</ele>
        <time>2023-01-25T15:17:05Z</time>
      </trkpt>
      <trkpt lat="49.95967" lon="2.35785">
        <ele>110.3</ele>
        <time>2023-01-25T15:17:06Z</time>
      </trkpt>
      <trkpt lat="49.95967" lon="2.35784">
        <ele>110.3</ele>
        <time>2023-01-25T15:17:07Z</time>
      </trkpt>
      <trkpt lat="49.95966" lon="2.3578">
        <ele>110.2</ele>
        <time>2023-01-25T15:17:08Z</time>
      </trkpt>
      <trkpt lat="49.95966" lon="2.35779">
        <ele>110.2</ele>
        <time>2023-01-25T15:17:09Z</time>
      </trkpt>
      <trkpt lat="49.95966" lon="2.35777">
        <ele>110.1</ele>
        <time>2023-01-25T15:17:10Z</time>
      </trkpt>
      <trkpt lat="49.95965" lon="2.35776">
        <ele>110.1</ele>
        <time>2023-01-25T15:17:11Z</time>
      </trkpt>
      <trkpt lat="49.95965" lon="2.35774">
        <ele>110.1</ele>
        <time>2023-01-25T15:17:12Z</time>
      </trkpt>
      <trkpt lat="49.95965" lon="2.35773">
        <ele>110</ele>
        <time>2023-01-25T15:17:13Z</time>
      </trkpt>
      <trkpt lat="49.95965" lon="2.3577">
        <ele>110</ele>
        <time>2023-01-25T15:17:15Z</time>
      </trkpt>
      <trkpt lat="49.95964" lon="2.35767">
        <ele>109.9</ele>
        <time>2023-01-25T15:17:16Z</time>
      </trkpt>
      <trkpt lat="49.95964" lon="2.35766">
        <ele>109.9</ele>
        <time>2023-01-25T15:17:17Z</time>
      </trkpt>
      <trkpt lat="49.95964" lon="2.35765">
        <ele>109.9</ele>
        <time>2023-01-25T15:17:18Z</time>
      </trkpt>
      <trkpt lat="49.95963" lon="2.35763">
        <ele>109.8</ele>
        <time>2023-01-25T15:17:19Z</time>
      </trkpt>
      <trkpt lat="49.95961" lon="2.35761">
        <ele>109.8</ele>
        <time>2023-01-25T15:17:20Z</time>
      </trkpt>
      <trkpt lat="49.95961" lon="2.35759">
        <ele>109.7</ele>
        <time>2023-01-25T15:17:22Z</time>
      </trkpt>
      <trkpt lat="49.95961" lon="2.35757">
        <ele>109.7</ele>
        <time>2023-01-25T15:17:23Z</time>
      </trkpt>
      <trkpt lat="49.9596" lon="2.35755">
        <ele>109.7</ele>
        <time>2023-01-25T15:17:24Z</time>
      </trkpt>
      <trkpt lat="49.9596" lon="2.35753">
        <ele>109.7</ele>
        <time>2023-01-25T15:17:25Z</time>
      </trkpt>
      <trkpt lat="49.95959" lon="2.35751">
        <ele>109.7</ele>
        <time>2023-01-25T15:17:26Z</time>
      </trkpt>
      <trkpt lat="49.95959" lon="2.35749">
        <ele>109.6</ele>
        <time>2023-01-25T15:17:27Z</time>
      </trkpt>
      <trkpt lat="49.95959" lon="2.35747">
        <ele>109.6</ele>
        <time>2023-01-25T15:17:28Z</time>
      </trkpt>
      <trkpt lat="49.95959" lon="2.35745">
        <ele>109.6</ele>
        <time>2023-01-25T15:17:30Z</time>
      </trkpt>
      <trkpt lat="49.95959" lon="2.35743">
        <ele>109.6</ele>
        <time>2023-01-25T15:17:31Z</time>
      </trkpt>
      <trkpt lat="49.95958" lon="2.3574">
        <ele>109.6</ele>
        <time>2023-01-25T15:17:32Z</time>
      </trkpt>
      <trkpt lat="49.95958" lon="2.35739">
        <ele>109.5</ele>
        <time>2023-01-25T15:17:33Z</time>
      </trkpt>
      <trkpt lat="49.95958" lon="2.35737">
        <ele>109.5</ele>
        <time>2023-01-25T15:17:34Z</time>
      </trkpt>
      <trkpt lat="49.95958" lon="2.35735">
        <ele>109.5</ele>
        <time>2023-01-25T15:17:35Z</time>
      </trkpt>
      <trkpt lat="49.95957" lon="2.35733">
        <ele>109.5</ele>
        <time>2023-01-25T15:17:36Z</time>
      </trkpt>
      <trkpt lat="49.95957" lon="2.35731">
        <ele>109.5</ele>
        <time>2023-01-25T15:17:37Z</time>
      </trkpt>
      <trkpt lat="49.95957" lon="2.35729">
        <ele>109.4</ele>
        <time>2023-01-25T15:17:39Z</time>
      </trkpt>
      <trkpt lat="49.95956" lon="2.35726">
        <ele>109.4</ele>
        <time>2023-01-25T15:17:40Z</time>
      </trkpt>
      <trkpt lat="49.95956" lon="2.35724">
        <ele>109.4</ele>
        <time>2023-01-25T15:17:41Z</time>
      </trkpt>
      <trkpt lat="49.95956" lon="2.35722">
        <ele>109.3</ele>
        <time>2023-01-25T15:17:42Z</time>
      </trkpt>
      <trkpt lat="49.95955" lon="2.3572">
        <ele>109.3</ele>
        <time>2023-01-25T15:17:43Z</time>
      </trkpt>
      <trkpt lat="49.95955" lon="2.35718">
        <ele>109.3</ele>
        <time>2023-01-25T15:17:45Z</time>
      </trkpt>
      <trkpt lat="49.95954" lon="2.35716">
        <ele>109.3</ele>
        <time>2023-01-25T15:17:46Z</time>
      </trkpt>
      <trkpt lat="49.95954" lon="2.35714">
        <ele>109.2</ele>
        <time>2023-01-25T15:17:47Z</time>
      </trkpt>
      <trkpt lat="49.95954" lon="2.35713">
        <ele>109.2</ele>
        <time>2023-01-25T15:17:48Z</time>
      </trkpt>
      <trkpt lat="49.95953" lon="2.35711">
        <ele>109.2</ele>
        <time>2023-01-25T15:17:49Z</time>
      </trkpt>
      <trkpt lat="49.95953" lon="2.3571">
        <ele>109.2</ele>
        <time>2023-01-25T15:17:50Z</time>
      </trkpt>
      <trkpt lat="49.95953" lon="2.35707">
        <ele>109.1</ele>
        <time>2023-01-25T15:17:51Z</time>
      </trkpt>
      <trkpt lat="49.95953" lon="2.35705">
        <ele>109.1</ele>
        <time>2023-01-25T15:17:52Z</time>
      </trkpt>
      <trkpt lat="49.95952" lon="2.35704">
        <ele>109.1</ele>
        <time>2023-01-25T15:17:53Z</time>
      </trkpt>
      <trkpt lat="49.95952" lon="2.35703">
        <ele>109.1</ele>
        <time>2023-01-25T15:17:54Z</time>
      </trkpt>
      <trkpt lat="49.95952" lon="2.35701">
        <ele>109.1</ele>
        <time>2023-01-25T15:17:55Z</time>
      </trkpt>
      <trkpt lat="49.95953" lon="2.35699">
        <ele>109</ele>
        <time>2023-01-25T15:17:57Z</time>
      </trkpt>
      <trkpt lat="49.95953" lon="2.35697">
        <ele>109</ele>
        <time>2023-01-25T15:17:58Z</time>
      </trkpt>
      <trkpt lat="49.95953" lon="2.35695">
        <ele>109</ele>
        <time>2023-01-25T15:17:59Z</time>
      </trkpt>
      <trkpt lat="49.95953" lon="2.35694">
        <ele>109</ele>
        <time>2023-01-25T15:18:00Z</time>
      </trkpt>
      <trkpt lat="49.95954" lon="2.35693">
        <ele>109</ele>
        <time>2023-01-25T15:18:01Z</time>
      </trkpt>
      <trkpt lat="49.95954" lon="2.35691">
        <ele>109</ele>
        <time>2023-01-25T15:18:02Z</time>
      </trkpt>
      <trkpt lat="49.95954" lon="2.35689">
        <ele>108.9</ele>
        <time>2023-01-25T15:18:03Z</time>
      </trkpt>
      <trkpt lat="49.95954" lon="2.35686">
        <ele>108.9</ele>
        <time>2023-01-25T15:18:04Z</time>
      </trkpt>
      <trkpt lat="49.95954" lon="2.35685">
        <ele>108.9</ele>
        <time>2023-01-25T15:18:06Z</time>
      </trkpt>
      <trkpt lat="49.95954" lon="2.35683">
        <ele>108.9</ele>
        <time>2023-01-25T15:18:07Z</time>
      </trkpt>
      <trkpt lat="49.95954" lon="2.35682">
        <ele>108.9</ele>
        <time>2023-01-25T15:18:08Z</time>
      </trkpt>
      <trkpt lat="49.95954" lon="2.35681">
        <ele>108.9</ele>
        <time>2023-01-25T15:18:09Z</time>
      </trkpt>
      <trkpt lat="49.95953" lon="2.3568">
        <ele>108.9</ele>
        <time>2023-01-25T15:18:10Z</time>
      </trkpt>
      <trkpt lat="49.95953" lon="2.35679">
        <ele>108.9</ele>
        <time>2023-01-25T15:18:11Z</time>
      </trkpt>
      <trkpt lat="49.95952" lon="2.35678">
        <ele>108.8</ele>
        <time>2023-01-25T15:18:13Z</time>
      </trkpt>
      <trkpt lat="49.95952" lon="2.35676">
        <ele>108.8</ele>
        <time>2023-01-25T15:18:14Z</time>
      </trkpt>
      <trkpt lat="49.95952" lon="2.35676">
        <ele>108.8</ele>
        <time>2023-01-25T15:18:15Z</time>
      </trkpt>
      <trkpt lat="49.95951" lon="2.35674">
        <ele>108.8</ele>
        <time>2023-01-25T15:18:17Z</time>
      </trkpt>
      <trkpt lat="49.95951" lon="2.35674">
        <ele>108.8</ele>
        <time>2023-01-25T15:18:18Z</time>
      </trkpt>
      <trkpt lat="49.95951" lon="2.35673">
        <ele>108.8</ele>
        <time>2023-01-25T15:18:19Z</time>
      </trkpt>
      <trkpt lat="49.95951" lon="2.35672">
        <ele>108.8</ele>
        <time>2023-01-25T15:18:20Z</time>
      </trkpt>
      <trkpt lat="49.95951" lon="2.3567">
        <ele>108.8</ele>
        <time>2023-01-25T15:18:22Z</time>
      </trkpt>
      <trkpt lat="49.9595" lon="2.35669">
        <ele>108.8</ele>
        <time>2023-01-25T15:18:23Z</time>
      </trkpt>
      <trkpt lat="49.9595" lon="2.35668">
        <ele>108.8</ele>
        <time>2023-01-25T15:18:24Z</time>
      </trkpt>
      <trkpt lat="49.9595" lon="2.35666">
        <ele>108.8</ele>
        <time>2023-01-25T15:18:25Z</time>
      </trkpt>
      <trkpt lat="49.95949" lon="2.35665">
        <ele>108.8</ele>
        <time>2023-01-25T15:18:26Z</time>
      </trkpt>
      <trkpt lat="49.95948" lon="2.35662">
        <ele>108.8</ele>
        <time>2023-01-25T15:18:27Z</time>
      </trkpt>
      <trkpt lat="49.95948" lon="2.35661">
        <ele>108.8</ele>
        <time>2023-01-25T15:18:28Z</time>
      </trkpt>
      <trkpt lat="49.95948" lon="2.3566">
        <ele>108.8</ele>
        <time>2023-01-25T15:18:29Z</time>
      </trkpt>
      <trkpt lat="49.95947" lon="2.35658">
        <ele>108.8</ele>
        <time>2023-01-25T15:18:31Z</time>
      </trkpt>
      <trkpt lat="49.95947" lon="2.35655">
        <ele>108.8</ele>
        <time>2023-01-25T15:18:32Z</time>
      </trkpt>
      <trkpt lat="49.95946" lon="2.35653">
        <ele>108.8</ele>
        <time>2023-01-25T15:18:33Z</time>
      </trkpt>
      <trkpt lat="49.95945" lon="2.35652">
        <ele>108.8</ele>
        <time>2023-01-25T15:18:34Z</time>
      </trkpt>
      <trkpt lat="49.95945" lon="2.35651">
        <ele>108.8</ele>
        <time>2023-01-25T15:18:35Z</time>
      </trkpt>
      <trkpt lat="49.95945" lon="2.3565">
        <ele>108.8</ele>
        <time>2023-01-25T15:18:36Z</time>
      </trkpt>
      <trkpt lat="49.95944" lon="2.35647">
        <ele>108.8</ele>
        <time>2023-01-25T15:18:37Z</time>
      </trkpt>
      <trkpt lat="49.95943" lon="2.35646">
        <ele>108.8</ele>
        <time>2023-01-25T15:18:39Z</time>
      </trkpt>
      <trkpt lat="49.95943" lon="2.35645">
        <ele>108.8</ele>
        <time>2023-01-25T15:18:40Z</time>
      </trkpt>
      <trkpt lat="49.95943" lon="2.35643">
        <ele>108.8</ele>
        <time>2023-01-25T15:18:41Z</time>
      </trkpt>
      <trkpt lat="49.95942" lon="2.35641">
        <ele>108.8</ele>
        <time>2023-01-25T15:18:42Z</time>
      </trkpt>
      <trkpt lat="49.95941" lon="2.35638">
        <ele>108.8</ele>
        <time>2023-01-25T15:18:43Z</time>
      </trkpt>
      <trkpt lat="49.95941" lon="2.35637">
        <ele>108.8</ele>
        <time>2023-01-25T15:18:44Z</time>
      </trkpt>
      <trkpt lat="49.9594" lon="2.35635">
        <ele>108.8</ele>
        <time>2023-01-25T15:18:46Z</time>
      </trkpt>
      <trkpt lat="49.9594" lon="2.35634">
        <ele>108.8</ele>
        <time>2023-01-25T15:18:47Z</time>
      </trkpt>
      <trkpt lat="49.95939" lon="2.35633">
        <ele>108.8</ele>
        <time>2023-01-25T15:18:48Z</time>
      </trkpt>
      <trkpt lat="49.95939" lon="2.35631">
        <ele>108.8</ele>
        <time>2023-01-25T15:18:49Z</time>
      </trkpt>
      <trkpt lat="49.95938" lon="2.35629">
        <ele>108.9</ele>
        <time>2023-01-25T15:18:50Z</time>
      </trkpt>
      <trkpt lat="49.95937" lon="2.35627">
        <ele>108.9</ele>
        <time>2023-01-25T15:18:51Z</time>
      </trkpt>
      <trkpt lat="49.95937" lon="2.35626">
        <ele>108.9</ele>
        <time>2023-01-25T15:18:52Z</time>
      </trkpt>
      <trkpt lat="49.95936" lon="2.35623">
        <ele>108.9</ele>
        <time>2023-01-25T15:18:53Z</time>
      </trkpt>
      <trkpt lat="49.95936" lon="2.35622">
        <ele>108.9</ele>
        <time>2023-01-25T15:18:55Z</time>
      </trkpt>
      <trkpt lat="49.95936" lon="2.35621">
        <ele>108.9</ele>
        <time>2023-01-25T15:18:56Z</time>
      </trkpt>
      <trkpt lat="49.95935" lon="2.35618">
        <ele>108.9</ele>
        <time>2023-01-25T15:18:57Z</time>
      </trkpt>
      <trkpt lat="49.95935" lon="2.35617">
        <ele>108.9</ele>
        <time>2023-01-25T15:18:58Z</time>
      </trkpt>
      <trkpt lat="49.95934" lon="2.35615">
        <ele>108.9</ele>
        <time>2023-01-25T15:18:59Z</time>
      </trkpt>
      <trkpt lat="49.95934" lon="2.35614">
        <ele>108.9</ele>
        <time>2023-01-25T15:19:00Z</time>
      </trkpt>
      <trkpt lat="49.95934" lon="2.35612">
        <ele>108.9</ele>
        <time>2023-01-25T15:19:01Z</time>
      </trkpt>
      <trkpt lat="49.95933" lon="2.3561">
        <ele>108.9</ele>
        <time>2023-01-25T15:19:03Z</time>
      </trkpt>
      <trkpt lat="49.95933" lon="2.35608">
        <ele>109</ele>
        <time>2023-01-25T15:19:04Z</time>
      </trkpt>
      <trkpt lat="49.95933" lon="2.35606">
        <ele>109</ele>
        <time>2023-01-25T15:19:05Z</time>
      </trkpt>
      <trkpt lat="49.95932" lon="2.35604">
        <ele>109</ele>
        <time>2023-01-25T15:19:06Z</time>
      </trkpt>
      <trkpt lat="49.95932" lon="2.35601">
        <ele>109</ele>
        <time>2023-01-25T15:19:07Z</time>
      </trkpt>
      <trkpt lat="49.95932" lon="2.356">
        <ele>109</ele>
        <time>2023-01-25T15:19:08Z</time>
      </trkpt>
      <trkpt lat="49.95932" lon="2.35599">
        <ele>109</ele>
        <time>2023-01-25T15:19:09Z</time>
      </trkpt>
      <trkpt lat="49.95932" lon="2.35597">
        <ele>109.1</ele>
        <time>2023-01-25T15:19:11Z</time>
      </trkpt>
      <trkpt lat="49.95931" lon="2.35594">
        <ele>109.1</ele>
        <time>2023-01-25T15:19:12Z</time>
      </trkpt>
      <trkpt lat="49.95931" lon="2.35592">
        <ele>109.1</ele>
        <time>2023-01-25T15:19:13Z</time>
      </trkpt>
      <trkpt lat="49.95931" lon="2.3559">
        <ele>109.1</ele>
        <time>2023-01-25T15:19:14Z</time>
      </trkpt>
      <trkpt lat="49.95931" lon="2.35589">
        <ele>109.1</ele>
        <time>2023-01-25T15:19:15Z</time>
      </trkpt>
      <trkpt lat="49.9593" lon="2.35587">
        <ele>109.1</ele>
        <time>2023-01-25T15:19:16Z</time>
      </trkpt>
      <trkpt lat="49.9593" lon="2.35585">
        <ele>109.1</ele>
        <time>2023-01-25T15:19:18Z</time>
      </trkpt>
      <trkpt lat="49.9593" lon="2.35583">
        <ele>109.1</ele>
        <time>2023-01-25T15:19:19Z</time>
      </trkpt>
      <trkpt lat="49.95929" lon="2.3558">
        <ele>109.1</ele>
        <time>2023-01-25T15:19:20Z</time>
      </trkpt>
      <trkpt lat="49.95929" lon="2.35579">
        <ele>109.1</ele>
        <time>2023-01-25T15:19:21Z</time>
      </trkpt>
      <trkpt lat="49.95929" lon="2.35577">
        <ele>109.1</ele>
        <time>2023-01-25T15:19:22Z</time>
      </trkpt>
      <trkpt lat="49.95929" lon="2.35576">
        <ele>109.1</ele>
        <time>2023-01-25T15:19:23Z</time>
      </trkpt>
      <trkpt lat="49.95928" lon="2.35574">
        <ele>109.1</ele>
        <time>2023-01-25T15:19:25Z</time>
      </trkpt>
      <trkpt lat="49.95928" lon="2.35572">
        <ele>109.1</ele>
        <time>2023-01-25T15:19:26Z</time>
      </trkpt>
      <trkpt lat="49.95928" lon="2.35571">
        <ele>109.1</ele>
        <time>2023-01-25T15:19:27Z</time>
      </trkpt>
      <trkpt lat="49.95928" lon="2.35569">
        <ele>109.1</ele>
        <time>2023-01-25T15:19:28Z</time>
      </trkpt>
      <trkpt lat="49.95928" lon="2.35568">
        <ele>109.1</ele>
        <time>2023-01-25T15:19:29Z</time>
      </trkpt>
      <trkpt lat="49.95928" lon="2.35566">
        <ele>109.1</ele>
        <time>2023-01-25T15:19:30Z</time>
      </trkpt>
      <trkpt lat="49.95928" lon="2.35565">
        <ele>109.1</ele>
        <time>2023-01-25T15:19:31Z</time>
      </trkpt>
      <trkpt lat="49.95929" lon="2.35563">
        <ele>109.1</ele>
        <time>2023-01-25T15:19:32Z</time>
      </trkpt>
      <trkpt lat="49.95929" lon="2.35561">
        <ele>109.1</ele>
        <time>2023-01-25T15:19:33Z</time>
      </trkpt>
      <trkpt lat="49.95929" lon="2.3556">
        <ele>109.2</ele>
        <time>2023-01-25T15:19:35Z</time>
      </trkpt>
      <trkpt lat="49.95929" lon="2.35558">
        <ele>109.2</ele>
        <time>2023-01-25T15:19:36Z</time>
      </trkpt>
      <trkpt lat="49.95929" lon="2.35557">
        <ele>109.2</ele>
        <time>2023-01-25T15:19:37Z</time>
      </trkpt>
      <trkpt lat="49.95929" lon="2.35557">
        <ele>109.2</ele>
        <time>2023-01-25T15:19:38Z</time>
      </trkpt>
      <trkpt lat="49.95928" lon="2.35556">
        <ele>109.1</ele>
        <time>2023-01-25T15:19:39Z</time>
      </trkpt>
      <trkpt lat="49.95928" lon="2.35555">
        <ele>109.1</ele>
        <time>2023-01-25T15:19:40Z</time>
      </trkpt>
      <trkpt lat="49.95927" lon="2.35555">
        <ele>109.1</ele>
        <time>2023-01-25T15:19:42Z</time>
      </trkpt>
      <trkpt lat="49.95927" lon="2.35555">
        <ele>109.1</ele>
        <time>2023-01-25T15:19:43Z</time>
      </trkpt>
      <trkpt lat="49.95927" lon="2.35555">
        <ele>109.1</ele>
        <time>2023-01-25T15:19:44Z</time>
      </trkpt>
      <trkpt lat="49.95927" lon="2.35555">
        <ele>109.1</ele>
        <time>2023-01-25T15:19:46Z</time>
      </trkpt>
      <trkpt lat="49.95927" lon="2.35555">
        <ele>109.1</ele>
        <time>2023-01-25T15:19:47Z</time>
      </trkpt>
      <trkpt lat="49.95927" lon="2.35555">
        <ele>109.1</ele>
        <time>2023-01-25T15:19:48Z</time>
      </trkpt>
      <trkpt lat="49.95927" lon="2.35556">
        <ele>109.1</ele>
        <time>2023-01-25T15:19:50Z</time>
      </trkpt>
      <trkpt lat="49.95927" lon="2.35556">
        <ele>109.1</ele>
        <time>2023-01-25T15:19:51Z</time>
      </trkpt>
      <trkpt lat="49.95927" lon="2.35556">
        <ele>109.1</ele>
        <time>2023-01-25T15:19:53Z</time>
      </trkpt>
      <trkpt lat="49.95927" lon="2.35556">
        <ele>109.1</ele>
        <time>2023-01-25T15:19:54Z</time>
      </trkpt>
      <trkpt lat="49.95927" lon="2.35556">
        <ele>109.1</ele>
        <time>2023-01-25T15:19:56Z</time>
      </trkpt>
      <trkpt lat="49.95928" lon="2.35557">
        <ele>109.1</ele>
        <time>2023-01-25T15:19:57Z</time>
      </trkpt>
      <trkpt lat="49.95928" lon="2.35557">
        <ele>109.1</ele>
        <time>2023-01-25T15:19:58Z</time>
      </trkpt>
      <trkpt lat="49.95928" lon="2.35557">
        <ele>109.1</ele>
        <time>2023-01-25T15:19:59Z</time>
      </trkpt>
      <trkpt lat="49.95928" lon="2.35557">
        <ele>109.1</ele>
        <time>2023-01-25T15:20:00Z</time>
      </trkpt>
      <trkpt lat="49.95928" lon="2.35557">
        <ele>109.1</ele>
        <time>2023-01-25T15:20:01Z</time>
      </trkpt>
      <trkpt lat="49.95928" lon="2.35557">
        <ele>109.1</ele>
        <time>2023-01-25T15:20:02Z</time>
      </trkpt>
      <trkpt lat="49.95928" lon="2.35558">
        <ele>109.1</ele>
        <time>2023-01-25T15:20:03Z</time>
      </trkpt>
      <trkpt lat="49.95928" lon="2.35558">
        <ele>109.1</ele>
        <time>2023-01-25T15:20:04Z</time>
      </trkpt>
      <trkpt lat="49.95928" lon="2.35558">
        <ele>109.1</ele>
        <time>2023-01-25T15:20:05Z</time>
      </trkpt>
      <trkpt lat="49.95928" lon="2.35558">
        <ele>109.1</ele>
        <time>2023-01-25T15:20:06Z</time>
      </trkpt>
      <trkpt lat="49.95928" lon="2.35558">
        <ele>109.1</ele>
        <time>2023-01-25T15:20:07Z</time>
      </trkpt>
      <trkpt lat="49.95928" lon="2.35559">
        <ele>109.1</ele>
        <time>2023-01-25T15:20:08Z</time>
      </trkpt>
      <trkpt lat="49.95928" lon="2.35559">
        <ele>109.1</ele>
        <time>2023-01-25T15:20:09Z</time>
      </trkpt>
      <trkpt lat="49.95928" lon="2.35559">
        <ele>109.1</ele>
        <time>2023-01-25T15:20:10Z</time>
      </trkpt>
      <trkpt lat="49.95929" lon="2.35559">
        <ele>109.1</ele>
        <time>2023-01-25T15:20:11Z</time>
      </trkpt>
      <trkpt lat="49.95929" lon="2.35559">
        <ele>109.1</ele>
        <time>2023-01-25T15:20:12Z</time>
      </trkpt>
      <trkpt lat="49.95929" lon="2.35559">
        <ele>109.1</ele>
        <time>2023-01-25T15:20:13Z</time>
      </trkpt>
      <trkpt lat="49.95929" lon="2.3556">
        <ele>109.1</ele>
        <time>2023-01-25T15:20:14Z</time>
      </trkpt>
      <trkpt lat="49.95929" lon="2.3556">
        <ele>109.1</ele>
        <time>2023-01-25T15:20:15Z</time>
      </trkpt>
      <trkpt lat="49.95929" lon="2.3556">
        <ele>109.1</ele>
        <time>2023-01-25T15:20:16Z</time>
      </trkpt>
      <trkpt lat="49.95929" lon="2.3556">
        <ele>109.1</ele>
        <time>2023-01-25T15:20:17Z</time>
      </trkpt>
      <trkpt lat="49.95929" lon="2.3556">
        <ele>109.1</ele>
        <time>2023-01-25T15:20:18Z</time>
      </trkpt>
      <trkpt lat="49.95929" lon="2.3556">
        <ele>109.1</ele>
        <time>2023-01-25T15:20:19Z</time>
      </trkpt>
      <trkpt lat="49.95929" lon="2.35561">
        <ele>109.1</ele>
        <time>2023-01-25T15:20:20Z</time>
      </trkpt>
      <trkpt lat="49.95929" lon="2.35561">
        <ele>109.1</ele>
        <time>2023-01-25T15:20:21Z</time>
      </trkpt>
      <trkpt lat="49.95929" lon="2.35561">
        <ele>109.1</ele>
        <time>2023-01-25T15:20:22Z</time>
      </trkpt>
      <trkpt lat="49.95929" lon="2.35561">
        <ele>109</ele>
        <time>2023-01-25T15:20:23Z</time>
      </trkpt>
      <trkpt lat="49.95929" lon="2.35561">
        <ele>109</ele>
        <time>2023-01-25T15:20:24Z</time>
      </trkpt>
      <trkpt lat="49.9593" lon="2.35562">
        <ele>109</ele>
        <time>2023-01-25T15:20:25Z</time>
      </trkpt>
      <trkpt lat="49.9593" lon="2.35563">
        <ele>109</ele>
        <time>2023-01-25T15:20:26Z</time>
      </trkpt>
      <trkpt lat="49.9593" lon="2.35563">
        <ele>109</ele>
        <time>2023-01-25T15:20:27Z</time>
      </trkpt>
      <trkpt lat="49.9593" lon="2.35562">
        <ele>109</ele>
        <time>2023-01-25T15:20:28Z</time>
      </trkpt>
      <trkpt lat="49.9593" lon="2.35561">
        <ele>109</ele>
        <time>2023-01-25T15:20:29Z</time>
      </trkpt>
      <trkpt lat="49.95929" lon="2.3556">
        <ele>109</ele>
        <time>2023-01-25T15:20:30Z</time>
      </trkpt>
      <trkpt lat="49.95928" lon="2.35559">
        <ele>109</ele>
        <time>2023-01-25T15:20:31Z</time>
      </trkpt>
      <trkpt lat="49.95928" lon="2.35559">
        <ele>109</ele>
        <time>2023-01-25T15:20:33Z</time>
      </trkpt>
      <trkpt lat="49.95927" lon="2.35558">
        <ele>109</ele>
        <time>2023-01-25T15:20:34Z</time>
      </trkpt>
      <trkpt lat="49.95926" lon="2.35557">
        <ele>108.9</ele>
        <time>2023-01-25T15:20:35Z</time>
      </trkpt>
      <trkpt lat="49.95925" lon="2.35556">
        <ele>108.9</ele>
        <time>2023-01-25T15:20:36Z</time>
      </trkpt>
      <trkpt lat="49.95924" lon="2.35555">
        <ele>108.9</ele>
        <time>2023-01-25T15:20:37Z</time>
      </trkpt>
      <trkpt lat="49.95922" lon="2.35554">
        <ele>108.9</ele>
        <time>2023-01-25T15:20:38Z</time>
      </trkpt>
      <trkpt lat="49.95921" lon="2.35553">
        <ele>108.9</ele>
        <time>2023-01-25T15:20:39Z</time>
      </trkpt>
      <trkpt lat="49.95919" lon="2.35552">
        <ele>108.8</ele>
        <time>2023-01-25T15:20:41Z</time>
      </trkpt>
      <trkpt lat="49.95918" lon="2.35552">
        <ele>108.8</ele>
        <time>2023-01-25T15:20:42Z</time>
      </trkpt>
      <trkpt lat="49.95917" lon="2.35551">
        <ele>108.8</ele>
        <time>2023-01-25T15:20:43Z</time>
      </trkpt>
      <trkpt lat="49.95915" lon="2.3555">
        <ele>108.8</ele>
        <time>2023-01-25T15:20:44Z</time>
      </trkpt>
      <trkpt lat="49.95914" lon="2.3555">
        <ele>108.8</ele>
        <time>2023-01-25T15:20:45Z</time>
      </trkpt>
      <trkpt lat="49.95913" lon="2.3555">
        <ele>108.7</ele>
        <time>2023-01-25T15:20:46Z</time>
      </trkpt>
      <trkpt lat="49.95911" lon="2.35548">
        <ele>108.7</ele>
        <time>2023-01-25T15:20:47Z</time>
      </trkpt>
      <trkpt lat="49.9591" lon="2.35548">
        <ele>108.7</ele>
        <time>2023-01-25T15:20:49Z</time>
      </trkpt>
      <trkpt lat="49.95909" lon="2.35548">
        <ele>108.7</ele>
        <time>2023-01-25T15:20:50Z</time>
      </trkpt>
      <trkpt lat="49.95908" lon="2.35547">
        <ele>108.7</ele>
        <time>2023-01-25T15:20:51Z</time>
      </trkpt>
      <trkpt lat="49.95907" lon="2.35547">
        <ele>108.6</ele>
        <time>2023-01-25T15:20:52Z</time>
      </trkpt>
      <trkpt lat="49.95905" lon="2.35546">
        <ele>108.6</ele>
        <time>2023-01-25T15:20:53Z</time>
      </trkpt>
      <trkpt lat="49.95904" lon="2.35545">
        <ele>108.6</ele>
        <time>2023-01-25T15:20:54Z</time>
      </trkpt>
      <trkpt lat="49.95903" lon="2.35545">
        <ele>108.5</ele>
        <time>2023-01-25T15:20:55Z</time>
      </trkpt>
      <trkpt lat="49.95901" lon="2.35544">
        <ele>108.5</ele>
        <time>2023-01-25T15:20:56Z</time>
      </trkpt>
      <trkpt lat="49.959" lon="2.35543">
        <ele>108.5</ele>
        <time>2023-01-25T15:20:58Z</time>
      </trkpt>
      <trkpt lat="49.95899" lon="2.35543">
        <ele>108.4</ele>
        <time>2023-01-25T15:20:59Z</time>
      </trkpt>
      <trkpt lat="49.95898" lon="2.35542">
        <ele>108.4</ele>
        <time>2023-01-25T15:21:00Z</time>
      </trkpt>
      <trkpt lat="49.95897" lon="2.35541">
        <ele>108.4</ele>
        <time>2023-01-25T15:21:01Z</time>
      </trkpt>
      <trkpt lat="49.95895" lon="2.35541">
        <ele>108.4</ele>
        <time>2023-01-25T15:21:02Z</time>
      </trkpt>
      <trkpt lat="49.95894" lon="2.3554">
        <ele>108.3</ele>
        <time>2023-01-25T15:21:03Z</time>
      </trkpt>
      <trkpt lat="49.95893" lon="2.3554">
        <ele>108.3</ele>
        <time>2023-01-25T15:21:04Z</time>
      </trkpt>
      <trkpt lat="49.95892" lon="2.35539">
        <ele>108.3</ele>
        <time>2023-01-25T15:21:05Z</time>
      </trkpt>
      <trkpt lat="49.9589" lon="2.35539">
        <ele>108.2</ele>
        <time>2023-01-25T15:21:07Z</time>
      </trkpt>
      <trkpt lat="49.95889" lon="2.35538">
        <ele>108.2</ele>
        <time>2023-01-25T15:21:08Z</time>
      </trkpt>
      <trkpt lat="49.95888" lon="2.35538">
        <ele>108.2</ele>
        <time>2023-01-25T15:21:09Z</time>
      </trkpt>
      <trkpt lat="49.95887" lon="2.35538">
        <ele>108.2</ele>
        <time>2023-01-25T15:21:10Z</time>
      </trkpt>
      <trkpt lat="49.95886" lon="2.35538">
        <ele>108.2</ele>
        <time>2023-01-25T15:21:11Z</time>
      </trkpt>
      <trkpt lat="49.95885" lon="2.35537">
        <ele>108.2</ele>
        <time>2023-01-25T15:21:12Z</time>
      </trkpt>
      <trkpt lat="49.95884" lon="2.35537">
        <ele>108.1</ele>
        <time>2023-01-25T15:21:13Z</time>
      </trkpt>
      <trkpt lat="49.95882" lon="2.35536">
        <ele>108.1</ele>
        <time>2023-01-25T15:21:14Z</time>
      </trkpt>
      <trkpt lat="49.95881" lon="2.35535">
        <ele>108.1</ele>
        <time>2023-01-25T15:21:15Z</time>
      </trkpt>
      <trkpt lat="49.9588" lon="2.35535">
        <ele>108.1</ele>
        <time>2023-01-25T15:21:17Z</time>
      </trkpt>
      <trkpt lat="49.95879" lon="2.35534">
        <ele>108.1</ele>
        <time>2023-01-25T15:21:18Z</time>
      </trkpt>
      <trkpt lat="49.95878" lon="2.35534">
        <ele>108.1</ele>
        <time>2023-01-25T15:21:19Z</time>
      </trkpt>
      <trkpt lat="49.95877" lon="2.35533">
        <ele>108</ele>
        <time>2023-01-25T15:21:20Z</time>
      </trkpt>
      <trkpt lat="49.95876" lon="2.35533">
        <ele>108</ele>
        <time>2023-01-25T15:21:21Z</time>
      </trkpt>
      <trkpt lat="49.95875" lon="2.35532">
        <ele>108</ele>
        <time>2023-01-25T15:21:22Z</time>
      </trkpt>
      <trkpt lat="49.95874" lon="2.35532">
        <ele>108</ele>
        <time>2023-01-25T15:21:23Z</time>
      </trkpt>
      <trkpt lat="49.95873" lon="2.35532">
        <ele>108</ele>
        <time>2023-01-25T15:21:24Z</time>
      </trkpt>
      <trkpt lat="49.95872" lon="2.35532">
        <ele>108</ele>
        <time>2023-01-25T15:21:25Z</time>
      </trkpt>
      <trkpt lat="49.95871" lon="2.35532">
        <ele>108</ele>
        <time>2023-01-25T15:21:26Z</time>
      </trkpt>
      <trkpt lat="49.9587" lon="2.35531">
        <ele>107.9</ele>
        <time>2023-01-25T15:21:28Z</time>
      </trkpt>
      <trkpt lat="49.95869" lon="2.3553">
        <ele>107.9</ele>
        <time>2023-01-25T15:21:29Z</time>
      </trkpt>
      <trkpt lat="49.95868" lon="2.3553">
        <ele>107.9</ele>
        <time>2023-01-25T15:21:30Z</time>
      </trkpt>
      <trkpt lat="49.95867" lon="2.35529">
        <ele>107.9</ele>
        <time>2023-01-25T15:21:31Z</time>
      </trkpt>
      <trkpt lat="49.95865" lon="2.35528">
        <ele>107.9</ele>
        <time>2023-01-25T15:21:33Z</time>
      </trkpt>
      <trkpt lat="49.95865" lon="2.35528">
        <ele>107.9</ele>
        <time>2023-01-25T15:21:34Z</time>
      </trkpt>
      <trkpt lat="49.95864" lon="2.35527">
        <ele>107.9</ele>
        <time>2023-01-25T15:21:35Z</time>
      </trkpt>
      <trkpt lat="49.95863" lon="2.35526">
        <ele>107.8</ele>
        <time>2023-01-25T15:21:36Z</time>
      </trkpt>
      <trkpt lat="49.95862" lon="2.35526">
        <ele>107.8</ele>
        <time>2023-01-25T15:21:37Z</time>
      </trkpt>
      <trkpt lat="49.95861" lon="2.35525">
        <ele>107.8</ele>
        <time>2023-01-25T15:21:38Z</time>
      </trkpt>
      <trkpt lat="49.9586" lon="2.35525">
        <ele>107.8</ele>
        <time>2023-01-25T15:21:39Z</time>
      </trkpt>
      <trkpt lat="49.95859" lon="2.35524">
        <ele>107.8</ele>
        <time>2023-01-25T15:21:40Z</time>
      </trkpt>
      <trkpt lat="49.95858" lon="2.35524">
        <ele>107.8</ele>
        <time>2023-01-25T15:21:41Z</time>
      </trkpt>
      <trkpt lat="49.95857" lon="2.35523">
        <ele>107.8</ele>
        <time>2023-01-25T15:21:43Z</time>
      </trkpt>
      <trkpt lat="49.95856" lon="2.35523">
        <ele>107.8</ele>
        <time>2023-01-25T15:21:44Z</time>
      </trkpt>
      <trkpt lat="49.95855" lon="2.35522">
        <ele>107.7</ele>
        <time>2023-01-25T15:21:45Z</time>
      </trkpt>
      <trkpt lat="49.95854" lon="2.35522">
        <ele>107.7</ele>
        <time>2023-01-25T15:21:46Z</time>
      </trkpt>
      <trkpt lat="49.95853" lon="2.35521">
        <ele>107.7</ele>
        <time>2023-01-25T15:21:47Z</time>
      </trkpt>
      <trkpt lat="49.95851" lon="2.35521">
        <ele>107.7</ele>
        <time>2023-01-25T15:21:48Z</time>
      </trkpt>
      <trkpt lat="49.9585" lon="2.3552">
        <ele>107.7</ele>
        <time>2023-01-25T15:21:49Z</time>
      </trkpt>
      <trkpt lat="49.95849" lon="2.3552">
        <ele>107.7</ele>
        <time>2023-01-25T15:21:50Z</time>
      </trkpt>
      <trkpt lat="49.95848" lon="2.35519">
        <ele>107.7</ele>
        <time>2023-01-25T15:21:51Z</time>
      </trkpt>
      <trkpt lat="49.95846" lon="2.35519">
        <ele>107.6</ele>
        <time>2023-01-25T15:21:52Z</time>
      </trkpt>
      <trkpt lat="49.95845" lon="2.35518">
        <ele>107.6</ele>
        <time>2023-01-25T15:21:54Z</time>
      </trkpt>
      <trkpt lat="49.95844" lon="2.35518">
        <ele>107.6</ele>
        <time>2023-01-25T15:21:55Z</time>
      </trkpt>
      <trkpt lat="49.95843" lon="2.35517">
        <ele>107.6</ele>
        <time>2023-01-25T15:21:56Z</time>
      </trkpt>
      <trkpt lat="49.95842" lon="2.35517">
        <ele>107.6</ele>
        <time>2023-01-25T15:21:57Z</time>
      </trkpt>
      <trkpt lat="49.95839" lon="2.35515">
        <ele>107.5</ele>
        <time>2023-01-25T15:21:58Z</time>
      </trkpt>
      <trkpt lat="49.95838" lon="2.35515">
        <ele>107.5</ele>
        <time>2023-01-25T15:22:00Z</time>
      </trkpt>
      <trkpt lat="49.95837" lon="2.35514">
        <ele>107.5</ele>
        <time>2023-01-25T15:22:01Z</time>
      </trkpt>
      <trkpt lat="49.95836" lon="2.35514">
        <ele>107.5</ele>
        <time>2023-01-25T15:22:02Z</time>
      </trkpt>
      <trkpt lat="49.95835" lon="2.35513">
        <ele>107.5</ele>
        <time>2023-01-25T15:22:03Z</time>
      </trkpt>
      <trkpt lat="49.95834" lon="2.35513">
        <ele>107.5</ele>
        <time>2023-01-25T15:22:04Z</time>
      </trkpt>
      <trkpt lat="49.95833" lon="2.35513">
        <ele>107.5</ele>
        <time>2023-01-25T15:22:05Z</time>
      </trkpt>
      <trkpt lat="49.95832" lon="2.35512">
        <ele>107.4</ele>
        <time>2023-01-25T15:22:06Z</time>
      </trkpt>
      <trkpt lat="49.9583" lon="2.35511">
        <ele>107.4</ele>
        <time>2023-01-25T15:22:07Z</time>
      </trkpt>
      <trkpt lat="49.95829" lon="2.35511">
        <ele>107.4</ele>
        <time>2023-01-25T15:22:08Z</time>
      </trkpt>
      <trkpt lat="49.95828" lon="2.3551">
        <ele>107.4</ele>
        <time>2023-01-25T15:22:10Z</time>
      </trkpt>
      <trkpt lat="49.95827" lon="2.3551">
        <ele>107.4</ele>
        <time>2023-01-25T15:22:11Z</time>
      </trkpt>
      <trkpt lat="49.95826" lon="2.35509">
        <ele>107.3</ele>
        <time>2023-01-25T15:22:12Z</time>
      </trkpt>
      <trkpt lat="49.95825" lon="2.35509">
        <ele>107.3</ele>
        <time>2023-01-25T15:22:13Z</time>
      </trkpt>
      <trkpt lat="49.95823" lon="2.35508">
        <ele>107.3</ele>
        <time>2023-01-25T15:22:14Z</time>
      </trkpt>
      <trkpt lat="49.95822" lon="2.35508">
        <ele>107.3</ele>
        <time>2023-01-25T15:22:15Z</time>
      </trkpt>
      <trkpt lat="49.95821" lon="2.35507">
        <ele>107.3</ele>
        <time>2023-01-25T15:22:17Z</time>
      </trkpt>
      <trkpt lat="49.9582" lon="2.35507">
        <ele>107.3</ele>
        <time>2023-01-25T15:22:18Z</time>
      </trkpt>
      <trkpt lat="49.95819" lon="2.35506">
        <ele>107.2</ele>
        <time>2023-01-25T15:22:19Z</time>
      </trkpt>
      <trkpt lat="49.95818" lon="2.35506">
        <ele>107.2</ele>
        <time>2023-01-25T15:22:20Z</time>
      </trkpt>
      <trkpt lat="49.95816" lon="2.35505">
        <ele>107.2</ele>
        <time>2023-01-25T15:22:21Z</time>
      </trkpt>
      <trkpt lat="49.95815" lon="2.35504">
        <ele>107.2</ele>
        <time>2023-01-25T15:22:22Z</time>
      </trkpt>
      <trkpt lat="49.95815" lon="2.35504">
        <ele>107.2</ele>
        <time>2023-01-25T15:22:23Z</time>
      </trkpt>
      <trkpt lat="49.95814" lon="2.35503">
        <ele>107.2</ele>
        <time>2023-01-25T15:22:24Z</time>
      </trkpt>
      <trkpt lat="49.95813" lon="2.35503">
        <ele>107.1</ele>
        <time>2023-01-25T15:22:26Z</time>
      </trkpt>
      <trkpt lat="49.95811" lon="2.35502">
        <ele>107.1</ele>
        <time>2023-01-25T15:22:27Z</time>
      </trkpt>
      <trkpt lat="49.9581" lon="2.35501">
        <ele>107.1</ele>
        <time>2023-01-25T15:22:28Z</time>
      </trkpt>
      <trkpt lat="49.95809" lon="2.35501">
        <ele>107.1</ele>
        <time>2023-01-25T15:22:29Z</time>
      </trkpt>
      <trkpt lat="49.95808" lon="2.355">
        <ele>107.1</ele>
        <time>2023-01-25T15:22:30Z</time>
      </trkpt>
      <trkpt lat="49.95807" lon="2.355">
        <ele>107.1</ele>
        <time>2023-01-25T15:22:31Z</time>
      </trkpt>
      <trkpt lat="49.95806" lon="2.35499">
        <ele>107</ele>
        <time>2023-01-25T15:22:32Z</time>
      </trkpt>
      <trkpt lat="49.95805" lon="2.35498">
        <ele>107</ele>
        <time>2023-01-25T15:22:33Z</time>
      </trkpt>
      <trkpt lat="49.95804" lon="2.35498">
        <ele>107</ele>
        <time>2023-01-25T15:22:35Z</time>
      </trkpt>
      <trkpt lat="49.95803" lon="2.35497">
        <ele>107</ele>
        <time>2023-01-25T15:22:36Z</time>
      </trkpt>
      <trkpt lat="49.95802" lon="2.35497">
        <ele>107</ele>
        <time>2023-01-25T15:22:37Z</time>
      </trkpt>
      <trkpt lat="49.95801" lon="2.35496">
        <ele>107</ele>
        <time>2023-01-25T15:22:38Z</time>
      </trkpt>
      <trkpt lat="49.958" lon="2.35496">
        <ele>107</ele>
        <time>2023-01-25T15:22:39Z</time>
      </trkpt>
      <trkpt lat="49.95799" lon="2.35495">
        <ele>107</ele>
        <time>2023-01-25T15:22:40Z</time>
      </trkpt>
      <trkpt lat="49.95798" lon="2.35495">
        <ele>107</ele>
        <time>2023-01-25T15:22:41Z</time>
      </trkpt>
      <trkpt lat="49.95797" lon="2.35494">
        <ele>106.9</ele>
        <time>2023-01-25T15:22:42Z</time>
      </trkpt>
      <trkpt lat="49.95796" lon="2.35494">
        <ele>106.9</ele>
        <time>2023-01-25T15:22:44Z</time>
      </trkpt>
      <trkpt lat="49.95795" lon="2.35493">
        <ele>106.9</ele>
        <time>2023-01-25T15:22:45Z</time>
      </trkpt>
      <trkpt lat="49.95793" lon="2.35493">
        <ele>106.9</ele>
        <time>2023-01-25T15:22:46Z</time>
      </trkpt>
      <trkpt lat="49.95793" lon="2.35492">
        <ele>106.9</ele>
        <time>2023-01-25T15:22:47Z</time>
      </trkpt>
      <trkpt lat="49.95791" lon="2.35492">
        <ele>106.9</ele>
        <time>2023-01-25T15:22:48Z</time>
      </trkpt>
      <trkpt lat="49.9579" lon="2.35491">
        <ele>106.9</ele>
        <time>2023-01-25T15:22:49Z</time>
      </trkpt>
      <trkpt lat="49.95789" lon="2.35491">
        <ele>106.9</ele>
        <time>2023-01-25T15:22:50Z</time>
      </trkpt>
      <trkpt lat="49.95788" lon="2.35491">
        <ele>106.9</ele>
        <time>2023-01-25T15:22:51Z</time>
      </trkpt>
      <trkpt lat="49.95787" lon="2.3549">
        <ele>106.9</ele>
        <time>2023-01-25T15:22:52Z</time>
      </trkpt>
      <trkpt lat="49.95786" lon="2.3549">
        <ele>106.9</ele>
        <time>2023-01-25T15:22:53Z</time>
      </trkpt>
      <trkpt lat="49.95785" lon="2.35489">
        <ele>106.9</ele>
        <time>2023-01-25T15:22:54Z</time>
      </trkpt>
      <trkpt lat="49.95784" lon="2.35489">
        <ele>106.9</ele>
        <time>2023-01-25T15:22:56Z</time>
      </trkpt>
      <trkpt lat="49.95783" lon="2.35488">
        <ele>106.8</ele>
        <time>2023-01-25T15:22:57Z</time>
      </trkpt>
      <trkpt lat="49.95782" lon="2.35488">
        <ele>106.8</ele>
        <time>2023-01-25T15:22:58Z</time>
      </trkpt>
      <trkpt lat="49.95781" lon="2.35487">
        <ele>106.8</ele>
        <time>2023-01-25T15:22:59Z</time>
      </trkpt>
      <trkpt lat="49.9578" lon="2.35487">
        <ele>106.8</ele>
        <time>2023-01-25T15:23:00Z</time>
      </trkpt>
      <trkpt lat="49.95779" lon="2.35487">
        <ele>106.8</ele>
        <time>2023-01-25T15:23:01Z</time>
      </trkpt>
      <trkpt lat="49.95777" lon="2.35486">
        <ele>106.8</ele>
        <time>2023-01-25T15:23:02Z</time>
      </trkpt>
      <trkpt lat="49.95776" lon="2.35485">
        <ele>106.8</ele>
        <time>2023-01-25T15:23:03Z</time>
      </trkpt>
      <trkpt lat="49.95775" lon="2.35485">
        <ele>106.7</ele>
        <time>2023-01-25T15:23:05Z</time>
      </trkpt>
      <trkpt lat="49.95774" lon="2.35484">
        <ele>106.7</ele>
        <time>2023-01-25T15:23:06Z</time>
      </trkpt>
      <trkpt lat="49.95772" lon="2.35483">
        <ele>106.7</ele>
        <time>2023-01-25T15:23:07Z</time>
      </trkpt>
      <trkpt lat="49.95771" lon="2.35483">
        <ele>106.7</ele>
        <time>2023-01-25T15:23:08Z</time>
      </trkpt>
      <trkpt lat="49.9577" lon="2.35482">
        <ele>106.7</ele>
        <time>2023-01-25T15:23:09Z</time>
      </trkpt>
      <trkpt lat="49.95769" lon="2.35482">
        <ele>106.7</ele>
        <time>2023-01-25T15:23:10Z</time>
      </trkpt>
      <trkpt lat="49.95768" lon="2.35481">
        <ele>106.7</ele>
        <time>2023-01-25T15:23:12Z</time>
      </trkpt>
      <trkpt lat="49.95767" lon="2.35481">
        <ele>106.7</ele>
        <time>2023-01-25T15:23:13Z</time>
      </trkpt>
      <trkpt lat="49.95765" lon="2.3548">
        <ele>106.7</ele>
        <time>2023-01-25T15:23:14Z</time>
      </trkpt>
      <trkpt lat="49.95764" lon="2.35479">
        <ele>106.7</ele>
        <time>2023-01-25T15:23:15Z</time>
      </trkpt>
      <trkpt lat="49.95763" lon="2.35479">
        <ele>106.7</ele>
        <time>2023-01-25T15:23:16Z</time>
      </trkpt>
      <trkpt lat="49.95762" lon="2.35478">
        <ele>106.7</ele>
        <time>2023-01-25T15:23:17Z</time>
      </trkpt>
      <trkpt lat="49.9576" lon="2.35477">
        <ele>106.7</ele>
        <time>2023-01-25T15:23:18Z</time>
      </trkpt>
      <trkpt lat="49.9576" lon="2.35477">
        <ele>106.7</ele>
        <time>2023-01-25T15:23:19Z</time>
      </trkpt>
      <trkpt lat="49.95759" lon="2.35476">
        <ele>106.7</ele>
        <time>2023-01-25T15:23:20Z</time>
      </trkpt>
      <trkpt lat="49.95757" lon="2.35475">
        <ele>106.7</ele>
        <time>2023-01-25T15:23:22Z</time>
      </trkpt>
      <trkpt lat="49.95756" lon="2.35475">
        <ele>106.7</ele>
        <time>2023-01-25T15:23:23Z</time>
      </trkpt>
      <trkpt lat="49.95755" lon="2.35474">
        <ele>106.7</ele>
        <time>2023-01-25T15:23:24Z</time>
      </trkpt>
      <trkpt lat="49.95754" lon="2.35474">
        <ele>106.7</ele>
        <time>2023-01-25T15:23:25Z</time>
      </trkpt>
      <trkpt lat="49.95753" lon="2.35473">
        <ele>106.7</ele>
        <time>2023-01-25T15:23:26Z</time>
      </trkpt>
      <trkpt lat="49.95752" lon="2.35473">
        <ele>106.7</ele>
        <time>2023-01-25T15:23:27Z</time>
      </trkpt>
      <trkpt lat="49.9575" lon="2.35472">
        <ele>106.8</ele>
        <time>2023-01-25T15:23:28Z</time>
      </trkpt>
      <trkpt lat="49.95749" lon="2.35472">
        <ele>106.8</ele>
        <time>2023-01-25T15:23:29Z</time>
      </trkpt>
      <trkpt lat="49.95748" lon="2.35471">
        <ele>106.8</ele>
        <time>2023-01-25T15:23:30Z</time>
      </trkpt>
      <trkpt lat="49.95747" lon="2.35471">
        <ele>106.8</ele>
        <time>2023-01-25T15:23:32Z</time>
      </trkpt>
      <trkpt lat="49.95746" lon="2.3547">
        <ele>106.8</ele>
        <time>2023-01-25T15:23:33Z</time>
      </trkpt>
      <trkpt lat="49.95744" lon="2.35469">
        <ele>106.8</ele>
        <time>2023-01-25T15:23:34Z</time>
      </trkpt>
      <trkpt lat="49.95743" lon="2.35469">
        <ele>106.8</ele>
        <time>2023-01-25T15:23:35Z</time>
      </trkpt>
      <trkpt lat="49.95742" lon="2.35469">
        <ele>106.8</ele>
        <time>2023-01-25T15:23:36Z</time>
      </trkpt>
      <trkpt lat="49.95741" lon="2.35468">
        <ele>106.8</ele>
        <time>2023-01-25T15:23:37Z</time>
      </trkpt>
      <trkpt lat="49.9574" lon="2.35467">
        <ele>106.8</ele>
        <time>2023-01-25T15:23:39Z</time>
      </trkpt>
      <trkpt lat="49.95739" lon="2.35467">
        <ele>106.8</ele>
        <time>2023-01-25T15:23:40Z</time>
      </trkpt>
      <trkpt lat="49.95738" lon="2.35467">
        <ele>106.8</ele>
        <time>2023-01-25T15:23:41Z</time>
      </trkpt>
      <trkpt lat="49.95737" lon="2.35467">
        <ele>106.8</ele>
        <time>2023-01-25T15:23:42Z</time>
      </trkpt>
      <trkpt lat="49.95736" lon="2.35466">
        <ele>106.8</ele>
        <time>2023-01-25T15:23:43Z</time>
      </trkpt>
      <trkpt lat="49.95734" lon="2.35467">
        <ele>106.8</ele>
        <time>2023-01-25T15:23:44Z</time>
      </trkpt>
      <trkpt lat="49.95734" lon="2.35467">
        <ele>106.8</ele>
        <time>2023-01-25T15:23:45Z</time>
      </trkpt>
      <trkpt lat="49.95732" lon="2.35468">
        <ele>106.9</ele>
        <time>2023-01-25T15:23:47Z</time>
      </trkpt>
      <trkpt lat="49.95731" lon="2.35468">
        <ele>106.9</ele>
        <time>2023-01-25T15:23:48Z</time>
      </trkpt>
      <trkpt lat="49.95731" lon="2.35469">
        <ele>106.9</ele>
        <time>2023-01-25T15:23:49Z</time>
      </trkpt>
      <trkpt lat="49.9573" lon="2.35471">
        <ele>106.9</ele>
        <time>2023-01-25T15:23:50Z</time>
      </trkpt>
      <trkpt lat="49.95729" lon="2.35472">
        <ele>106.9</ele>
        <time>2023-01-25T15:23:51Z</time>
      </trkpt>
      <trkpt lat="49.95729" lon="2.35474">
        <ele>106.9</ele>
        <time>2023-01-25T15:23:52Z</time>
      </trkpt>
      <trkpt lat="49.95728" lon="2.35476">
        <ele>106.9</ele>
        <time>2023-01-25T15:23:53Z</time>
      </trkpt>
      <trkpt lat="49.95728" lon="2.35478">
        <ele>106.9</ele>
        <time>2023-01-25T15:23:54Z</time>
      </trkpt>
      <trkpt lat="49.95727" lon="2.3548">
        <ele>106.9</ele>
        <time>2023-01-25T15:23:56Z</time>
      </trkpt>
      <trkpt lat="49.95727" lon="2.35482">
        <ele>106.9</ele>
        <time>2023-01-25T15:23:57Z</time>
      </trkpt>
      <trkpt lat="49.95726" lon="2.35484">
        <ele>106.8</ele>
        <time>2023-01-25T15:23:58Z</time>
      </trkpt>
      <trkpt lat="49.95726" lon="2.35486">
        <ele>106.8</ele>
        <time>2023-01-25T15:23:59Z</time>
      </trkpt>
      <trkpt lat="49.95725" lon="2.35489">
        <ele>106.8</ele>
        <time>2023-01-25T15:24:00Z</time>
      </trkpt>
      <trkpt lat="49.95725" lon="2.35491">
        <ele>106.8</ele>
        <time>2023-01-25T15:24:01Z</time>
      </trkpt>
      <trkpt lat="49.95724" lon="2.35492">
        <ele>106.8</ele>
        <time>2023-01-25T15:24:02Z</time>
      </trkpt>
      <trkpt lat="49.95724" lon="2.35494">
        <ele>106.8</ele>
        <time>2023-01-25T15:24:03Z</time>
      </trkpt>
      <trkpt lat="49.95723" lon="2.35497">
        <ele>106.8</ele>
        <time>2023-01-25T15:24:04Z</time>
      </trkpt>
      <trkpt lat="49.95723" lon="2.35498">
        <ele>106.8</ele>
        <time>2023-01-25T15:24:06Z</time>
      </trkpt>
      <trkpt lat="49.95722" lon="2.355">
        <ele>106.8</ele>
        <time>2023-01-25T15:24:07Z</time>
      </trkpt>
      <trkpt lat="49.95722" lon="2.35502">
        <ele>106.8</ele>
        <time>2023-01-25T15:24:08Z</time>
      </trkpt>
      <trkpt lat="49.95722" lon="2.35504">
        <ele>106.7</ele>
        <time>2023-01-25T15:24:09Z</time>
      </trkpt>
      <trkpt lat="49.95721" lon="2.35506">
        <ele>106.7</ele>
        <time>2023-01-25T15:24:10Z</time>
      </trkpt>
      <trkpt lat="49.95721" lon="2.35508">
        <ele>106.7</ele>
        <time>2023-01-25T15:24:11Z</time>
      </trkpt>
      <trkpt lat="49.9572" lon="2.35509">
        <ele>106.7</ele>
        <time>2023-01-25T15:24:13Z</time>
      </trkpt>
      <trkpt lat="49.9572" lon="2.35511">
        <ele>106.7</ele>
        <time>2023-01-25T15:24:14Z</time>
      </trkpt>
      <trkpt lat="49.95719" lon="2.35515">
        <ele>106.7</ele>
        <time>2023-01-25T15:24:15Z</time>
      </trkpt>
      <trkpt lat="49.95719" lon="2.35516">
        <ele>106.7</ele>
        <time>2023-01-25T15:24:16Z</time>
      </trkpt>
      <trkpt lat="49.95719" lon="2.35517">
        <ele>106.7</ele>
        <time>2023-01-25T15:24:17Z</time>
      </trkpt>
      <trkpt lat="49.95719" lon="2.35519">
        <ele>106.7</ele>
        <time>2023-01-25T15:24:18Z</time>
      </trkpt>
      <trkpt lat="49.95718" lon="2.3552">
        <ele>106.6</ele>
        <time>2023-01-25T15:24:19Z</time>
      </trkpt>
      <trkpt lat="49.95718" lon="2.35521">
        <ele>106.6</ele>
        <time>2023-01-25T15:24:20Z</time>
      </trkpt>
      <trkpt lat="49.95718" lon="2.35523">
        <ele>106.6</ele>
        <time>2023-01-25T15:24:21Z</time>
      </trkpt>
      <trkpt lat="49.95718" lon="2.35524">
        <ele>106.6</ele>
        <time>2023-01-25T15:24:22Z</time>
      </trkpt>
      <trkpt lat="49.95717" lon="2.35525">
        <ele>106.6</ele>
        <time>2023-01-25T15:24:23Z</time>
      </trkpt>
      <trkpt lat="49.95717" lon="2.35528">
        <ele>106.5</ele>
        <time>2023-01-25T15:24:25Z</time>
      </trkpt>
      <trkpt lat="49.95717" lon="2.3553">
        <ele>106.5</ele>
        <time>2023-01-25T15:24:26Z</time>
      </trkpt>
      <trkpt lat="49.95716" lon="2.35533">
        <ele>106.4</ele>
        <time>2023-01-25T15:24:27Z</time>
      </trkpt>
      <trkpt lat="49.95715" lon="2.35535">
        <ele>106.4</ele>
        <time>2023-01-25T15:24:29Z</time>
      </trkpt>
      <trkpt lat="49.95715" lon="2.35536">
        <ele>106.4</ele>
        <time>2023-01-25T15:24:30Z</time>
      </trkpt>
      <trkpt lat="49.95714" lon="2.35538">
        <ele>106.3</ele>
        <time>2023-01-25T15:24:31Z</time>
      </trkpt>
      <trkpt lat="49.95714" lon="2.35539">
        <ele>106.3</ele>
        <time>2023-01-25T15:24:32Z</time>
      </trkpt>
      <trkpt lat="49.95713" lon="2.35541">
        <ele>106.3</ele>
        <time>2023-01-25T15:24:33Z</time>
      </trkpt>
      <trkpt lat="49.95713" lon="2.35542">
        <ele>106.3</ele>
        <time>2023-01-25T15:24:34Z</time>
      </trkpt>
      <trkpt lat="49.95712" lon="2.35545">
        <ele>106.2</ele>
        <time>2023-01-25T15:24:35Z</time>
      </trkpt>
      <trkpt lat="49.95712" lon="2.35546">
        <ele>106.2</ele>
        <time>2023-01-25T15:24:36Z</time>
      </trkpt>
      <trkpt lat="49.95712" lon="2.35547">
        <ele>106.2</ele>
        <time>2023-01-25T15:24:37Z</time>
      </trkpt>
      <trkpt lat="49.95711" lon="2.35549">
        <ele>106.2</ele>
        <time>2023-01-25T15:24:39Z</time>
      </trkpt>
      <trkpt lat="49.95711" lon="2.35552">
        <ele>106.1</ele>
        <time>2023-01-25T15:24:40Z</time>
      </trkpt>
      <trkpt lat="49.95711" lon="2.35553">
        <ele>106.1</ele>
        <time>2023-01-25T15:24:41Z</time>
      </trkpt>
      <trkpt lat="49.9571" lon="2.35555">
        <ele>106.1</ele>
        <time>2023-01-25T15:24:42Z</time>
      </trkpt>
      <trkpt lat="49.9571" lon="2.35556">
        <ele>106.1</ele>
        <time>2023-01-25T15:24:43Z</time>
      </trkpt>
      <trkpt lat="49.95709" lon="2.35558">
        <ele>106</ele>
        <time>2023-01-25T15:24:44Z</time>
      </trkpt>
      <trkpt lat="49.95709" lon="2.35561">
        <ele>106</ele>
        <time>2023-01-25T15:24:45Z</time>
      </trkpt>
      <trkpt lat="49.95708" lon="2.35563">
        <ele>106</ele>
        <time>2023-01-25T15:24:46Z</time>
      </trkpt>
      <trkpt lat="49.95708" lon="2.35565">
        <ele>105.9</ele>
        <time>2023-01-25T15:24:48Z</time>
      </trkpt>
      <trkpt lat="49.95707" lon="2.35566">
        <ele>105.9</ele>
        <time>2023-01-25T15:24:49Z</time>
      </trkpt>
      <trkpt lat="49.95707" lon="2.35568">
        <ele>105.9</ele>
        <time>2023-01-25T15:24:50Z</time>
      </trkpt>
      <trkpt lat="49.95706" lon="2.3557">
        <ele>105.9</ele>
        <time>2023-01-25T15:24:51Z</time>
      </trkpt>
      <trkpt lat="49.95706" lon="2.35573">
        <ele>105.8</ele>
        <time>2023-01-25T15:24:52Z</time>
      </trkpt>
      <trkpt lat="49.95705" lon="2.35575">
        <ele>105.8</ele>
        <time>2023-01-25T15:24:53Z</time>
      </trkpt>
      <trkpt lat="49.95705" lon="2.35576">
        <ele>105.8</ele>
        <time>2023-01-25T15:24:54Z</time>
      </trkpt>
      <trkpt lat="49.95704" lon="2.35578">
        <ele>105.8</ele>
        <time>2023-01-25T15:24:56Z</time>
      </trkpt>
      <trkpt lat="49.95704" lon="2.3558">
        <ele>105.8</ele>
        <time>2023-01-25T15:24:57Z</time>
      </trkpt>
      <trkpt lat="49.95703" lon="2.35582">
        <ele>105.8</ele>
        <time>2023-01-25T15:24:58Z</time>
      </trkpt>
      <trkpt lat="49.95703" lon="2.35584">
        <ele>105.7</ele>
        <time>2023-01-25T15:24:59Z</time>
      </trkpt>
      <trkpt lat="49.95702" lon="2.35586">
        <ele>105.7</ele>
        <time>2023-01-25T15:25:01Z</time>
      </trkpt>
      <trkpt lat="49.95702" lon="2.35587">
        <ele>105.7</ele>
        <time>2023-01-25T15:25:02Z</time>
      </trkpt>
      <trkpt lat="49.95701" lon="2.35589">
        <ele>105.7</ele>
        <time>2023-01-25T15:25:03Z</time>
      </trkpt>
      <trkpt lat="49.95701" lon="2.3559">
        <ele>105.7</ele>
        <time>2023-01-25T15:25:04Z</time>
      </trkpt>
      <trkpt lat="49.957" lon="2.35594">
        <ele>105.6</ele>
        <time>2023-01-25T15:25:05Z</time>
      </trkpt>
      <trkpt lat="49.957" lon="2.35595">
        <ele>105.6</ele>
        <time>2023-01-25T15:25:06Z</time>
      </trkpt>
      <trkpt lat="49.957" lon="2.35596">
        <ele>105.6</ele>
        <time>2023-01-25T15:25:07Z</time>
      </trkpt>
      <trkpt lat="49.95699" lon="2.35598">
        <ele>105.6</ele>
        <time>2023-01-25T15:25:08Z</time>
      </trkpt>
      <trkpt lat="49.95699" lon="2.356">
        <ele>105.5</ele>
        <time>2023-01-25T15:25:10Z</time>
      </trkpt>
      <trkpt lat="49.95698" lon="2.35601">
        <ele>105.5</ele>
        <time>2023-01-25T15:25:11Z</time>
      </trkpt>
      <trkpt lat="49.95698" lon="2.35602">
        <ele>105.5</ele>
        <time>2023-01-25T15:25:12Z</time>
      </trkpt>
      <trkpt lat="49.95698" lon="2.35603">
        <ele>105.5</ele>
        <time>2023-01-25T15:25:13Z</time>
      </trkpt>
      <trkpt lat="49.95697" lon="2.35605">
        <ele>105.4</ele>
        <time>2023-01-25T15:25:14Z</time>
      </trkpt>
      <trkpt lat="49.95696" lon="2.35609">
        <ele>105.4</ele>
        <time>2023-01-25T15:25:15Z</time>
      </trkpt>
      <trkpt lat="49.95696" lon="2.35609">
        <ele>105.4</ele>
        <time>2023-01-25T15:25:16Z</time>
      </trkpt>
      <trkpt lat="49.95695" lon="2.35611">
        <ele>105.3</ele>
        <time>2023-01-25T15:25:17Z</time>
      </trkpt>
      <trkpt lat="49.95695" lon="2.35612">
        <ele>105.3</ele>
        <time>2023-01-25T15:25:18Z</time>
      </trkpt>
      <trkpt lat="49.95694" lon="2.35614">
        <ele>105.2</ele>
        <time>2023-01-25T15:25:19Z</time>
      </trkpt>
      <trkpt lat="49.95694" lon="2.35617">
        <ele>105.2</ele>
        <time>2023-01-25T15:25:21Z</time>
      </trkpt>
      <trkpt lat="49.95693" lon="2.35618">
        <ele>105.1</ele>
        <time>2023-01-25T15:25:22Z</time>
      </trkpt>
      <trkpt lat="49.95692" lon="2.35621">
        <ele>105</ele>
        <time>2023-01-25T15:25:23Z</time>
      </trkpt>
      <trkpt lat="49.95692" lon="2.35623">
        <ele>105</ele>
        <time>2023-01-25T15:25:24Z</time>
      </trkpt>
      <trkpt lat="49.95691" lon="2.35625">
        <ele>104.9</ele>
        <time>2023-01-25T15:25:25Z</time>
      </trkpt>
      <trkpt lat="49.95691" lon="2.35625">
        <ele>104.9</ele>
        <time>2023-01-25T15:25:26Z</time>
      </trkpt>
      <trkpt lat="49.9569" lon="2.35627">
        <ele>104.9</ele>
        <time>2023-01-25T15:25:27Z</time>
      </trkpt>
      <trkpt lat="49.9569" lon="2.35628">
        <ele>104.8</ele>
        <time>2023-01-25T15:25:28Z</time>
      </trkpt>
      <trkpt lat="49.95689" lon="2.35629">
        <ele>104.8</ele>
        <time>2023-01-25T15:25:29Z</time>
      </trkpt>
      <trkpt lat="49.95689" lon="2.35631">
        <ele>104.7</ele>
        <time>2023-01-25T15:25:31Z</time>
      </trkpt>
      <trkpt lat="49.95688" lon="2.35632">
        <ele>104.7</ele>
        <time>2023-01-25T15:25:32Z</time>
      </trkpt>
      <trkpt lat="49.95688" lon="2.35634">
        <ele>104.6</ele>
        <time>2023-01-25T15:25:33Z</time>
      </trkpt>
      <trkpt lat="49.95688" lon="2.35635">
        <ele>104.6</ele>
        <time>2023-01-25T15:25:34Z</time>
      </trkpt>
      <trkpt lat="49.95687" lon="2.35638">
        <ele>104.5</ele>
        <time>2023-01-25T15:25:35Z</time>
      </trkpt>
      <trkpt lat="49.95687" lon="2.35638">
        <ele>104.5</ele>
        <time>2023-01-25T15:25:36Z</time>
      </trkpt>
      <trkpt lat="49.95686" lon="2.3564">
        <ele>104.4</ele>
        <time>2023-01-25T15:25:37Z</time>
      </trkpt>
      <trkpt lat="49.95686" lon="2.35641">
        <ele>104.4</ele>
        <time>2023-01-25T15:25:38Z</time>
      </trkpt>
      <trkpt lat="49.95685" lon="2.35643">
        <ele>104.3</ele>
        <time>2023-01-25T15:25:40Z</time>
      </trkpt>
      <trkpt lat="49.95685" lon="2.35644">
        <ele>104.3</ele>
        <time>2023-01-25T15:25:41Z</time>
      </trkpt>
      <trkpt lat="49.95685" lon="2.35646">
        <ele>104.2</ele>
        <time>2023-01-25T15:25:42Z</time>
      </trkpt>
      <trkpt lat="49.95684" lon="2.35648">
        <ele>104.2</ele>
        <time>2023-01-25T15:25:43Z</time>
      </trkpt>
      <trkpt lat="49.95684" lon="2.35649">
        <ele>104.1</ele>
        <time>2023-01-25T15:25:44Z</time>
      </trkpt>
      <trkpt lat="49.95683" lon="2.35651">
        <ele>104.1</ele>
        <time>2023-01-25T15:25:45Z</time>
      </trkpt>
      <trkpt lat="49.95683" lon="2.35652">
        <ele>104</ele>
        <time>2023-01-25T15:25:46Z</time>
      </trkpt>
      <trkpt lat="49.95682" lon="2.35654">
        <ele>104</ele>
        <time>2023-01-25T15:25:47Z</time>
      </trkpt>
      <trkpt lat="49.95682" lon="2.35655">
        <ele>104</ele>
        <time>2023-01-25T15:25:48Z</time>
      </trkpt>
      <trkpt lat="49.95681" lon="2.35657">
        <ele>103.9</ele>
        <time>2023-01-25T15:25:49Z</time>
      </trkpt>
      <trkpt lat="49.95681" lon="2.35659">
        <ele>103.9</ele>
        <time>2023-01-25T15:25:51Z</time>
      </trkpt>
      <trkpt lat="49.9568" lon="2.3566">
        <ele>103.8</ele>
        <time>2023-01-25T15:25:52Z</time>
      </trkpt>
      <trkpt lat="49.9568" lon="2.35661">
        <ele>103.8</ele>
        <time>2023-01-25T15:25:53Z</time>
      </trkpt>
      <trkpt lat="49.95679" lon="2.35663">
        <ele>103.8</ele>
        <time>2023-01-25T15:25:54Z</time>
      </trkpt>
      <trkpt lat="49.95678" lon="2.35666">
        <ele>103.7</ele>
        <time>2023-01-25T15:25:55Z</time>
      </trkpt>
      <trkpt lat="49.95678" lon="2.35668">
        <ele>103.6</ele>
        <time>2023-01-25T15:25:56Z</time>
      </trkpt>
      <trkpt lat="49.95677" lon="2.35669">
        <ele>103.6</ele>
        <time>2023-01-25T15:25:57Z</time>
      </trkpt>
      <trkpt lat="49.95677" lon="2.3567">
        <ele>103.6</ele>
        <time>2023-01-25T15:25:58Z</time>
      </trkpt>
      <trkpt lat="49.95676" lon="2.35671">
        <ele>103.5</ele>
        <time>2023-01-25T15:25:59Z</time>
      </trkpt>
      <trkpt lat="49.95675" lon="2.35674">
        <ele>103.5</ele>
        <time>2023-01-25T15:26:00Z</time>
      </trkpt>
      <trkpt lat="49.95675" lon="2.35676">
        <ele>103.4</ele>
        <time>2023-01-25T15:26:02Z</time>
      </trkpt>
      <trkpt lat="49.95675" lon="2.35677">
        <ele>103.4</ele>
        <time>2023-01-25T15:26:03Z</time>
      </trkpt>
      <trkpt lat="49.95674" lon="2.35679">
        <ele>103.4</ele>
        <time>2023-01-25T15:26:04Z</time>
      </trkpt>
      <trkpt lat="49.95674" lon="2.35681">
        <ele>103.3</ele>
        <time>2023-01-25T15:26:05Z</time>
      </trkpt>
      <trkpt lat="49.95673" lon="2.35682">
        <ele>103.3</ele>
        <time>2023-01-25T15:26:06Z</time>
      </trkpt>
      <trkpt lat="49.95672" lon="2.35685">
        <ele>103.2</ele>
        <time>2023-01-25T15:26:07Z</time>
      </trkpt>
      <trkpt lat="49.95672" lon="2.35686">
        <ele>103.2</ele>
        <time>2023-01-25T15:26:09Z</time>
      </trkpt>
      <trkpt lat="49.95672" lon="2.35687">
        <ele>103.2</ele>
        <time>2023-01-25T15:26:10Z</time>
      </trkpt>
      <trkpt lat="49.95671" lon="2.35691">
        <ele>103.1</ele>
        <time>2023-01-25T15:26:11Z</time>
      </trkpt>
      <trkpt lat="49.95671" lon="2.35692">
        <ele>103.1</ele>
        <time>2023-01-25T15:26:12Z</time>
      </trkpt>
      <trkpt lat="49.9567" lon="2.35693">
        <ele>103.1</ele>
        <time>2023-01-25T15:26:13Z</time>
      </trkpt>
      <trkpt lat="49.9567" lon="2.35695">
        <ele>103</ele>
        <time>2023-01-25T15:26:14Z</time>
      </trkpt>
      <trkpt lat="49.95669" lon="2.35698">
        <ele>103</ele>
        <time>2023-01-25T15:26:15Z</time>
      </trkpt>
      <trkpt lat="49.95669" lon="2.35699">
        <ele>103</ele>
        <time>2023-01-25T15:26:17Z</time>
      </trkpt>
      <trkpt lat="49.95668" lon="2.35701">
        <ele>102.9</ele>
        <time>2023-01-25T15:26:18Z</time>
      </trkpt>
      <trkpt lat="49.95668" lon="2.35702">
        <ele>102.9</ele>
        <time>2023-01-25T15:26:19Z</time>
      </trkpt>
      <trkpt lat="49.95668" lon="2.35704">
        <ele>102.9</ele>
        <time>2023-01-25T15:26:20Z</time>
      </trkpt>
      <trkpt lat="49.95668" lon="2.35705">
        <ele>102.9</ele>
        <time>2023-01-25T15:26:21Z</time>
      </trkpt>
      <trkpt lat="49.95667" lon="2.35707">
        <ele>102.8</ele>
        <time>2023-01-25T15:26:22Z</time>
      </trkpt>
      <trkpt lat="49.95667" lon="2.35708">
        <ele>102.8</ele>
        <time>2023-01-25T15:26:23Z</time>
      </trkpt>
      <trkpt lat="49.95667" lon="2.3571">
        <ele>102.8</ele>
        <time>2023-01-25T15:26:25Z</time>
      </trkpt>
      <trkpt lat="49.95666" lon="2.35712">
        <ele>102.8</ele>
        <time>2023-01-25T15:26:26Z</time>
      </trkpt>
      <trkpt lat="49.95666" lon="2.35713">
        <ele>102.7</ele>
        <time>2023-01-25T15:26:27Z</time>
      </trkpt>
      <trkpt lat="49.95665" lon="2.35715">
        <ele>102.7</ele>
        <time>2023-01-25T15:26:28Z</time>
      </trkpt>
      <trkpt lat="49.95664" lon="2.35717">
        <ele>102.7</ele>
        <time>2023-01-25T15:26:29Z</time>
      </trkpt>
      <trkpt lat="49.95664" lon="2.35718">
        <ele>102.6</ele>
        <time>2023-01-25T15:26:30Z</time>
      </trkpt>
      <trkpt lat="49.95663" lon="2.35721">
        <ele>102.6</ele>
        <time>2023-01-25T15:26:31Z</time>
      </trkpt>
      <trkpt lat="49.95662" lon="2.35723">
        <ele>102.5</ele>
        <time>2023-01-25T15:26:32Z</time>
      </trkpt>
      <trkpt lat="49.95662" lon="2.35724">
        <ele>102.5</ele>
        <time>2023-01-25T15:26:33Z</time>
      </trkpt>
      <trkpt lat="49.95661" lon="2.35725">
        <ele>102.5</ele>
        <time>2023-01-25T15:26:34Z</time>
      </trkpt>
      <trkpt lat="49.9566" lon="2.35728">
        <ele>102.4</ele>
        <time>2023-01-25T15:26:36Z</time>
      </trkpt>
      <trkpt lat="49.9566" lon="2.35728">
        <ele>102.4</ele>
        <time>2023-01-25T15:26:37Z</time>
      </trkpt>
      <trkpt lat="49.95659" lon="2.35729">
        <ele>102.4</ele>
        <time>2023-01-25T15:26:38Z</time>
      </trkpt>
      <trkpt lat="49.95659" lon="2.3573">
        <ele>102.4</ele>
        <time>2023-01-25T15:26:39Z</time>
      </trkpt>
      <trkpt lat="49.9566" lon="2.35731">
        <ele>102.3</ele>
        <time>2023-01-25T15:26:40Z</time>
      </trkpt>
      <trkpt lat="49.9566" lon="2.35733">
        <ele>102.3</ele>
        <time>2023-01-25T15:26:41Z</time>
      </trkpt>
      <trkpt lat="49.9566" lon="2.35735">
        <ele>102.3</ele>
        <time>2023-01-25T15:26:42Z</time>
      </trkpt>
      <trkpt lat="49.9566" lon="2.35737">
        <ele>102.3</ele>
        <time>2023-01-25T15:26:44Z</time>
      </trkpt>
      <trkpt lat="49.9566" lon="2.35739">
        <ele>102.2</ele>
        <time>2023-01-25T15:26:45Z</time>
      </trkpt>
      <trkpt lat="49.95659" lon="2.35741">
        <ele>102.2</ele>
        <time>2023-01-25T15:26:46Z</time>
      </trkpt>
      <trkpt lat="49.95659" lon="2.35743">
        <ele>102.2</ele>
        <time>2023-01-25T15:26:47Z</time>
      </trkpt>
      <trkpt lat="49.95658" lon="2.35745">
        <ele>102.2</ele>
        <time>2023-01-25T15:26:48Z</time>
      </trkpt>
      <trkpt lat="49.95658" lon="2.35747">
        <ele>102.1</ele>
        <time>2023-01-25T15:26:49Z</time>
      </trkpt>
      <trkpt lat="49.95657" lon="2.35751">
        <ele>102.1</ele>
        <time>2023-01-25T15:26:50Z</time>
      </trkpt>
      <trkpt lat="49.95657" lon="2.35752">
        <ele>102.1</ele>
        <time>2023-01-25T15:26:51Z</time>
      </trkpt>
      <trkpt lat="49.95656" lon="2.35755">
        <ele>102.1</ele>
        <time>2023-01-25T15:26:52Z</time>
      </trkpt>
      <trkpt lat="49.95656" lon="2.35756">
        <ele>102.1</ele>
        <time>2023-01-25T15:26:54Z</time>
      </trkpt>
      <trkpt lat="49.95656" lon="2.35757">
        <ele>102.1</ele>
        <time>2023-01-25T15:26:55Z</time>
      </trkpt>
      <trkpt lat="49.95655" lon="2.3576">
        <ele>102.1</ele>
        <time>2023-01-25T15:26:56Z</time>
      </trkpt>
      <trkpt lat="49.95655" lon="2.35762">
        <ele>102.1</ele>
        <time>2023-01-25T15:26:57Z</time>
      </trkpt>
      <trkpt lat="49.95655" lon="2.35765">
        <ele>102</ele>
        <time>2023-01-25T15:26:58Z</time>
      </trkpt>
      <trkpt lat="49.95654" lon="2.35766">
        <ele>102</ele>
        <time>2023-01-25T15:26:59Z</time>
      </trkpt>
      <trkpt lat="49.95654" lon="2.35768">
        <ele>102</ele>
        <time>2023-01-25T15:27:00Z</time>
      </trkpt>
      <trkpt lat="49.95653" lon="2.3577">
        <ele>102</ele>
        <time>2023-01-25T15:27:01Z</time>
      </trkpt>
      <trkpt lat="49.95653" lon="2.35772">
        <ele>102</ele>
        <time>2023-01-25T15:27:02Z</time>
      </trkpt>
      <trkpt lat="49.95653" lon="2.35773">
        <ele>102</ele>
        <time>2023-01-25T15:27:04Z</time>
      </trkpt>
      <trkpt lat="49.95652" lon="2.35775">
        <ele>102</ele>
        <time>2023-01-25T15:27:05Z</time>
      </trkpt>
      <trkpt lat="49.95652" lon="2.35778">
        <ele>102</ele>
        <time>2023-01-25T15:27:06Z</time>
      </trkpt>
      <trkpt lat="49.95651" lon="2.35781">
        <ele>101.9</ele>
        <time>2023-01-25T15:27:07Z</time>
      </trkpt>
      <trkpt lat="49.95651" lon="2.35782">
        <ele>101.9</ele>
        <time>2023-01-25T15:27:08Z</time>
      </trkpt>
      <trkpt lat="49.9565" lon="2.35783">
        <ele>101.9</ele>
        <time>2023-01-25T15:27:09Z</time>
      </trkpt>
      <trkpt lat="49.9565" lon="2.35786">
        <ele>101.8</ele>
        <time>2023-01-25T15:27:10Z</time>
      </trkpt>
      <trkpt lat="49.95649" lon="2.35788">
        <ele>101.8</ele>
        <time>2023-01-25T15:27:11Z</time>
      </trkpt>
      <trkpt lat="49.95649" lon="2.35789">
        <ele>101.8</ele>
        <time>2023-01-25T15:27:12Z</time>
      </trkpt>
      <trkpt lat="49.95649" lon="2.35791">
        <ele>101.8</ele>
        <time>2023-01-25T15:27:14Z</time>
      </trkpt>
      <trkpt lat="49.95649" lon="2.35792">
        <ele>101.8</ele>
        <time>2023-01-25T15:27:15Z</time>
      </trkpt>
      <trkpt lat="49.95648" lon="2.35794">
        <ele>101.7</ele>
        <time>2023-01-25T15:27:16Z</time>
      </trkpt>
      <trkpt lat="49.95647" lon="2.35796">
        <ele>101.7</ele>
        <time>2023-01-25T15:27:17Z</time>
      </trkpt>
      <trkpt lat="49.95647" lon="2.35797">
        <ele>101.7</ele>
        <time>2023-01-25T15:27:18Z</time>
      </trkpt>
      <trkpt lat="49.95646" lon="2.35799">
        <ele>101.6</ele>
        <time>2023-01-25T15:27:19Z</time>
      </trkpt>
      <trkpt lat="49.95646" lon="2.35801">
        <ele>101.6</ele>
        <time>2023-01-25T15:27:21Z</time>
      </trkpt>
      <trkpt lat="49.95645" lon="2.35803">
        <ele>101.6</ele>
        <time>2023-01-25T15:27:22Z</time>
      </trkpt>
      <trkpt lat="49.95644" lon="2.35806">
        <ele>101.5</ele>
        <time>2023-01-25T15:27:23Z</time>
      </trkpt>
      <trkpt lat="49.95644" lon="2.35807">
        <ele>101.5</ele>
        <time>2023-01-25T15:27:24Z</time>
      </trkpt>
      <trkpt lat="49.95644" lon="2.35808">
        <ele>101.5</ele>
        <time>2023-01-25T15:27:25Z</time>
      </trkpt>
      <trkpt lat="49.95643" lon="2.3581">
        <ele>101.5</ele>
        <time>2023-01-25T15:27:26Z</time>
      </trkpt>
      <trkpt lat="49.95643" lon="2.35811">
        <ele>101.5</ele>
        <time>2023-01-25T15:27:27Z</time>
      </trkpt>
      <trkpt lat="49.95642" lon="2.35813">
        <ele>101.5</ele>
        <time>2023-01-25T15:27:29Z</time>
      </trkpt>
      <trkpt lat="49.95641" lon="2.35816">
        <ele>101.4</ele>
        <time>2023-01-25T15:27:30Z</time>
      </trkpt>
      <trkpt lat="49.95641" lon="2.35817">
        <ele>101.4</ele>
        <time>2023-01-25T15:27:31Z</time>
      </trkpt>
      <trkpt lat="49.9564" lon="2.35818">
        <ele>101.4</ele>
        <time>2023-01-25T15:27:32Z</time>
      </trkpt>
      <trkpt lat="49.9564" lon="2.3582">
        <ele>101.4</ele>
        <time>2023-01-25T15:27:33Z</time>
      </trkpt>
      <trkpt lat="49.95639" lon="2.35821">
        <ele>101.4</ele>
        <time>2023-01-25T15:27:34Z</time>
      </trkpt>
      <trkpt lat="49.95639" lon="2.35823">
        <ele>101.4</ele>
        <time>2023-01-25T15:27:35Z</time>
      </trkpt>
      <trkpt lat="49.95639" lon="2.35824">
        <ele>101.4</ele>
        <time>2023-01-25T15:27:37Z</time>
      </trkpt>
      <trkpt lat="49.95638" lon="2.35825">
        <ele>101.4</ele>
        <time>2023-01-25T15:27:38Z</time>
      </trkpt>
      <trkpt lat="49.95638" lon="2.35827">
        <ele>101.4</ele>
        <time>2023-01-25T15:27:39Z</time>
      </trkpt>
      <trkpt lat="49.95637" lon="2.35828">
        <ele>101.4</ele>
        <time>2023-01-25T15:27:40Z</time>
      </trkpt>
      <trkpt lat="49.95636" lon="2.35829">
        <ele>101.4</ele>
        <time>2023-01-25T15:27:41Z</time>
      </trkpt>
      <trkpt lat="49.95635" lon="2.35829">
        <ele>101.3</ele>
        <time>2023-01-25T15:27:42Z</time>
      </trkpt>
      <trkpt lat="49.95634" lon="2.3583">
        <ele>101.3</ele>
        <time>2023-01-25T15:27:44Z</time>
      </trkpt>
      <trkpt lat="49.95633" lon="2.35831">
        <ele>101.3</ele>
        <time>2023-01-25T15:27:45Z</time>
      </trkpt>
      <trkpt lat="49.95632" lon="2.35831">
        <ele>101.3</ele>
        <time>2023-01-25T15:27:46Z</time>
      </trkpt>
      <trkpt lat="49.95631" lon="2.35832">
        <ele>101.2</ele>
        <time>2023-01-25T15:27:47Z</time>
      </trkpt>
      <trkpt lat="49.9563" lon="2.35832">
        <ele>101.2</ele>
        <time>2023-01-25T15:27:48Z</time>
      </trkpt>
      <trkpt lat="49.9563" lon="2.35832">
        <ele>101.2</ele>
        <time>2023-01-25T15:27:49Z</time>
      </trkpt>
      <trkpt lat="49.95629" lon="2.35832">
        <ele>101.2</ele>
        <time>2023-01-25T15:27:50Z</time>
      </trkpt>
      <trkpt lat="49.95628" lon="2.35831">
        <ele>101.1</ele>
        <time>2023-01-25T15:27:51Z</time>
      </trkpt>
      <trkpt lat="49.95627" lon="2.3583">
        <ele>101.1</ele>
        <time>2023-01-25T15:27:52Z</time>
      </trkpt>
      <trkpt lat="49.95626" lon="2.35829">
        <ele>101.1</ele>
        <time>2023-01-25T15:27:54Z</time>
      </trkpt>
      <trkpt lat="49.95624" lon="2.35828">
        <ele>101.1</ele>
        <time>2023-01-25T15:27:55Z</time>
      </trkpt>
      <trkpt lat="49.95623" lon="2.35826">
        <ele>101</ele>
        <time>2023-01-25T15:27:56Z</time>
      </trkpt>
      <trkpt lat="49.95622" lon="2.35825">
        <ele>101</ele>
        <time>2023-01-25T15:27:57Z</time>
      </trkpt>
      <trkpt lat="49.95621" lon="2.35824">
        <ele>101</ele>
        <time>2023-01-25T15:27:58Z</time>
      </trkpt>
      <trkpt lat="49.95619" lon="2.35823">
        <ele>101</ele>
        <time>2023-01-25T15:27:59Z</time>
      </trkpt>
      <trkpt lat="49.95618" lon="2.35823">
        <ele>100.9</ele>
        <time>2023-01-25T15:28:00Z</time>
      </trkpt>
      <trkpt lat="49.95617" lon="2.35822">
        <ele>100.9</ele>
        <time>2023-01-25T15:28:01Z</time>
      </trkpt>
      <trkpt lat="49.95616" lon="2.35821">
        <ele>100.9</ele>
        <time>2023-01-25T15:28:03Z</time>
      </trkpt>
      <trkpt lat="49.95615" lon="2.3582">
        <ele>100.9</ele>
        <time>2023-01-25T15:28:04Z</time>
      </trkpt>
      <trkpt lat="49.95614" lon="2.35819">
        <ele>100.9</ele>
        <time>2023-01-25T15:28:05Z</time>
      </trkpt>
      <trkpt lat="49.95612" lon="2.35817">
        <ele>100.8</ele>
        <time>2023-01-25T15:28:06Z</time>
      </trkpt>
      <trkpt lat="49.95611" lon="2.35816">
        <ele>100.8</ele>
        <time>2023-01-25T15:28:07Z</time>
      </trkpt>
      <trkpt lat="49.95611" lon="2.35816">
        <ele>100.8</ele>
        <time>2023-01-25T15:28:08Z</time>
      </trkpt>
      <trkpt lat="49.95609" lon="2.35815">
        <ele>100.8</ele>
        <time>2023-01-25T15:28:09Z</time>
      </trkpt>
      <trkpt lat="49.95608" lon="2.35814">
        <ele>100.8</ele>
        <time>2023-01-25T15:28:10Z</time>
      </trkpt>
      <trkpt lat="49.95607" lon="2.35814">
        <ele>100.8</ele>
        <time>2023-01-25T15:28:11Z</time>
      </trkpt>
      <trkpt lat="49.95607" lon="2.35813">
        <ele>100.7</ele>
        <time>2023-01-25T15:28:12Z</time>
      </trkpt>
      <trkpt lat="49.95606" lon="2.35813">
        <ele>100.7</ele>
        <time>2023-01-25T15:28:14Z</time>
      </trkpt>
      <trkpt lat="49.95605" lon="2.35812">
        <ele>100.7</ele>
        <time>2023-01-25T15:28:15Z</time>
      </trkpt>
      <trkpt lat="49.95603" lon="2.35811">
        <ele>100.7</ele>
        <time>2023-01-25T15:28:16Z</time>
      </trkpt>
      <trkpt lat="49.95603" lon="2.3581">
        <ele>100.7</ele>
        <time>2023-01-25T15:28:17Z</time>
      </trkpt>
      <trkpt lat="49.95602" lon="2.3581">
        <ele>100.7</ele>
        <time>2023-01-25T15:28:18Z</time>
      </trkpt>
      <trkpt lat="49.956" lon="2.35809">
        <ele>100.6</ele>
        <time>2023-01-25T15:28:19Z</time>
      </trkpt>
      <trkpt lat="49.956" lon="2.35809">
        <ele>100.6</ele>
        <time>2023-01-25T15:28:20Z</time>
      </trkpt>
      <trkpt lat="49.95599" lon="2.35808">
        <ele>100.6</ele>
        <time>2023-01-25T15:28:21Z</time>
      </trkpt>
      <trkpt lat="49.95597" lon="2.35807">
        <ele>100.6</ele>
        <time>2023-01-25T15:28:23Z</time>
      </trkpt>
      <trkpt lat="49.95596" lon="2.35807">
        <ele>100.6</ele>
        <time>2023-01-25T15:28:24Z</time>
      </trkpt>
      <trkpt lat="49.95595" lon="2.35806">
        <ele>100.6</ele>
        <time>2023-01-25T15:28:25Z</time>
      </trkpt>
      <trkpt lat="49.95593" lon="2.35805">
        <ele>100.6</ele>
        <time>2023-01-25T15:28:26Z</time>
      </trkpt>
      <trkpt lat="49.95592" lon="2.35805">
        <ele>100.5</ele>
        <time>2023-01-25T15:28:28Z</time>
      </trkpt>
      <trkpt lat="49.95592" lon="2.35804">
        <ele>100.5</ele>
        <time>2023-01-25T15:28:29Z</time>
      </trkpt>
      <trkpt lat="49.95591" lon="2.35804">
        <ele>100.5</ele>
        <time>2023-01-25T15:28:30Z</time>
      </trkpt>
      <trkpt lat="49.95589" lon="2.35803">
        <ele>100.5</ele>
        <time>2023-01-25T15:28:31Z</time>
      </trkpt>
      <trkpt lat="49.95588" lon="2.35803">
        <ele>100.5</ele>
        <time>2023-01-25T15:28:32Z</time>
      </trkpt>
      <trkpt lat="49.95587" lon="2.35803">
        <ele>100.5</ele>
        <time>2023-01-25T15:28:33Z</time>
      </trkpt>
      <trkpt lat="49.95586" lon="2.35802">
        <ele>100.5</ele>
        <time>2023-01-25T15:28:34Z</time>
      </trkpt>
      <trkpt lat="49.95585" lon="2.35802">
        <ele>100.4</ele>
        <time>2023-01-25T15:28:35Z</time>
      </trkpt>
      <trkpt lat="49.95583" lon="2.35801">
        <ele>100.4</ele>
        <time>2023-01-25T15:28:37Z</time>
      </trkpt>
      <trkpt lat="49.95582" lon="2.358">
        <ele>100.4</ele>
        <time>2023-01-25T15:28:38Z</time>
      </trkpt>
      <trkpt lat="49.95581" lon="2.35799">
        <ele>100.4</ele>
        <time>2023-01-25T15:28:39Z</time>
      </trkpt>
      <trkpt lat="49.95579" lon="2.35799">
        <ele>100.4</ele>
        <time>2023-01-25T15:28:40Z</time>
      </trkpt>
      <trkpt lat="49.95577" lon="2.35799">
        <ele>100.4</ele>
        <time>2023-01-25T15:28:41Z</time>
      </trkpt>
      <trkpt lat="49.95576" lon="2.35799">
        <ele>100.3</ele>
        <time>2023-01-25T15:28:42Z</time>
      </trkpt>
      <trkpt lat="49.95575" lon="2.35798">
        <ele>100.4</ele>
        <time>2023-01-25T15:28:44Z</time>
      </trkpt>
      <trkpt lat="49.95573" lon="2.35797">
        <ele>100.4</ele>
        <time>2023-01-25T15:28:45Z</time>
      </trkpt>
      <trkpt lat="49.95572" lon="2.35797">
        <ele>100.4</ele>
        <time>2023-01-25T15:28:46Z</time>
      </trkpt>
      <trkpt lat="49.95572" lon="2.35796">
        <ele>100.3</ele>
        <time>2023-01-25T15:28:47Z</time>
      </trkpt>
      <trkpt lat="49.9557" lon="2.35795">
        <ele>100.3</ele>
        <time>2023-01-25T15:28:48Z</time>
      </trkpt>
      <trkpt lat="49.95569" lon="2.35794">
        <ele>100.4</ele>
        <time>2023-01-25T15:28:49Z</time>
      </trkpt>
      <trkpt lat="49.95568" lon="2.35793">
        <ele>100.3</ele>
        <time>2023-01-25T15:28:50Z</time>
      </trkpt>
      <trkpt lat="49.95566" lon="2.35792">
        <ele>100.3</ele>
        <time>2023-01-25T15:28:51Z</time>
      </trkpt>
      <trkpt lat="49.95565" lon="2.35791">
        <ele>100.3</ele>
        <time>2023-01-25T15:28:53Z</time>
      </trkpt>
      <trkpt lat="49.95565" lon="2.35791">
        <ele>100.3</ele>
        <time>2023-01-25T15:28:54Z</time>
      </trkpt>
      <trkpt lat="49.95563" lon="2.3579">
        <ele>100.3</ele>
        <time>2023-01-25T15:28:55Z</time>
      </trkpt>
      <trkpt lat="49.95563" lon="2.35789">
        <ele>100.3</ele>
        <time>2023-01-25T15:28:56Z</time>
      </trkpt>
      <trkpt lat="49.95561" lon="2.35789">
        <ele>100.3</ele>
        <time>2023-01-25T15:28:57Z</time>
      </trkpt>
      <trkpt lat="49.9556" lon="2.35788">
        <ele>100.3</ele>
        <time>2023-01-25T15:28:58Z</time>
      </trkpt>
      <trkpt lat="49.9556" lon="2.35788">
        <ele>100.3</ele>
        <time>2023-01-25T15:28:59Z</time>
      </trkpt>
      <trkpt lat="49.95558" lon="2.35787">
        <ele>100.3</ele>
        <time>2023-01-25T15:29:00Z</time>
      </trkpt>
      <trkpt lat="49.95557" lon="2.35786">
        <ele>100.3</ele>
        <time>2023-01-25T15:29:01Z</time>
      </trkpt>
      <trkpt lat="49.95556" lon="2.35786">
        <ele>100.3</ele>
        <time>2023-01-25T15:29:02Z</time>
      </trkpt>
      <trkpt lat="49.95554" lon="2.35785">
        <ele>100.3</ele>
        <time>2023-01-25T15:29:04Z</time>
      </trkpt>
      <trkpt lat="49.95553" lon="2.35784">
        <ele>100.3</ele>
        <time>2023-01-25T15:29:05Z</time>
      </trkpt>
      <trkpt lat="49.95552" lon="2.35784">
        <ele>100.3</ele>
        <time>2023-01-25T15:29:06Z</time>
      </trkpt>
      <trkpt lat="49.9555" lon="2.35783">
        <ele>100.3</ele>
        <time>2023-01-25T15:29:07Z</time>
      </trkpt>
      <trkpt lat="49.95549" lon="2.35782">
        <ele>100.3</ele>
        <time>2023-01-25T15:29:08Z</time>
      </trkpt>
      <trkpt lat="49.95549" lon="2.35782">
        <ele>100.3</ele>
        <time>2023-01-25T15:29:09Z</time>
      </trkpt>
      <trkpt lat="49.95547" lon="2.35782">
        <ele>100.3</ele>
        <time>2023-01-25T15:29:10Z</time>
      </trkpt>
      <trkpt lat="49.95546" lon="2.35781">
        <ele>100.3</ele>
        <time>2023-01-25T15:29:11Z</time>
      </trkpt>
      <trkpt lat="49.95545" lon="2.35781">
        <ele>100.4</ele>
        <time>2023-01-25T15:29:12Z</time>
      </trkpt>
      <trkpt lat="49.95544" lon="2.3578">
        <ele>100.4</ele>
        <time>2023-01-25T15:29:14Z</time>
      </trkpt>
      <trkpt lat="49.95543" lon="2.3578">
        <ele>100.4</ele>
        <time>2023-01-25T15:29:15Z</time>
      </trkpt>
      <trkpt lat="49.95542" lon="2.3578">
        <ele>100.4</ele>
        <time>2023-01-25T15:29:16Z</time>
      </trkpt>
      <trkpt lat="49.9554" lon="2.35779">
        <ele>100.4</ele>
        <time>2023-01-25T15:29:17Z</time>
      </trkpt>
      <trkpt lat="49.9554" lon="2.35779">
        <ele>100.4</ele>
        <time>2023-01-25T15:29:18Z</time>
      </trkpt>
      <trkpt lat="49.95539" lon="2.35779">
        <ele>100.4</ele>
        <time>2023-01-25T15:29:19Z</time>
      </trkpt>
      <trkpt lat="49.95537" lon="2.35778">
        <ele>100.4</ele>
        <time>2023-01-25T15:29:20Z</time>
      </trkpt>
      <trkpt lat="49.95536" lon="2.35778">
        <ele>100.4</ele>
        <time>2023-01-25T15:29:21Z</time>
      </trkpt>
      <trkpt lat="49.95535" lon="2.35777">
        <ele>100.4</ele>
        <time>2023-01-25T15:29:22Z</time>
      </trkpt>
      <trkpt lat="49.95534" lon="2.35777">
        <ele>100.4</ele>
        <time>2023-01-25T15:29:23Z</time>
      </trkpt>
      <trkpt lat="49.95533" lon="2.35776">
        <ele>100.4</ele>
        <time>2023-01-25T15:29:25Z</time>
      </trkpt>
      <trkpt lat="49.95531" lon="2.35775">
        <ele>100.4</ele>
        <time>2023-01-25T15:29:26Z</time>
      </trkpt>
      <trkpt lat="49.95531" lon="2.35774">
        <ele>100.4</ele>
        <time>2023-01-25T15:29:27Z</time>
      </trkpt>
      <trkpt lat="49.9553" lon="2.35774">
        <ele>100.4</ele>
        <time>2023-01-25T15:29:28Z</time>
      </trkpt>
      <trkpt lat="49.95529" lon="2.35773">
        <ele>100.4</ele>
        <time>2023-01-25T15:29:29Z</time>
      </trkpt>
      <trkpt lat="49.95527" lon="2.35772">
        <ele>100.4</ele>
        <time>2023-01-25T15:29:30Z</time>
      </trkpt>
      <trkpt lat="49.95527" lon="2.35772">
        <ele>100.4</ele>
        <time>2023-01-25T15:29:31Z</time>
      </trkpt>
      <trkpt lat="49.95525" lon="2.35771">
        <ele>100.5</ele>
        <time>2023-01-25T15:29:32Z</time>
      </trkpt>
      <trkpt lat="49.95524" lon="2.35771">
        <ele>100.5</ele>
        <time>2023-01-25T15:29:33Z</time>
      </trkpt>
      <trkpt lat="49.95523" lon="2.3577">
        <ele>100.5</ele>
        <time>2023-01-25T15:29:34Z</time>
      </trkpt>
      <trkpt lat="49.95522" lon="2.3577">
        <ele>100.5</ele>
        <time>2023-01-25T15:29:36Z</time>
      </trkpt>
      <trkpt lat="49.95521" lon="2.35769">
        <ele>100.5</ele>
        <time>2023-01-25T15:29:37Z</time>
      </trkpt>
      <trkpt lat="49.9552" lon="2.35769">
        <ele>100.5</ele>
        <time>2023-01-25T15:29:38Z</time>
      </trkpt>
      <trkpt lat="49.95519" lon="2.35769">
        <ele>100.5</ele>
        <time>2023-01-25T15:29:39Z</time>
      </trkpt>
      <trkpt lat="49.95518" lon="2.35768">
        <ele>100.5</ele>
        <time>2023-01-25T15:29:40Z</time>
      </trkpt>
      <trkpt lat="49.95517" lon="2.35768">
        <ele>100.5</ele>
        <time>2023-01-25T15:29:41Z</time>
      </trkpt>
      <trkpt lat="49.95516" lon="2.35768">
        <ele>100.5</ele>
        <time>2023-01-25T15:29:42Z</time>
      </trkpt>
      <trkpt lat="49.95515" lon="2.35767">
        <ele>100.5</ele>
        <time>2023-01-25T15:29:43Z</time>
      </trkpt>
      <trkpt lat="49.95514" lon="2.35767">
        <ele>100.5</ele>
        <time>2023-01-25T15:29:44Z</time>
      </trkpt>
      <trkpt lat="49.95513" lon="2.35766">
        <ele>100.5</ele>
        <time>2023-01-25T15:29:46Z</time>
      </trkpt>
      <trkpt lat="49.95512" lon="2.35766">
        <ele>100.5</ele>
        <time>2023-01-25T15:29:47Z</time>
      </trkpt>
      <trkpt lat="49.95512" lon="2.35765">
        <ele>100.5</ele>
        <time>2023-01-25T15:29:48Z</time>
      </trkpt>
      <trkpt lat="49.9551" lon="2.35765">
        <ele>100.5</ele>
        <time>2023-01-25T15:29:49Z</time>
      </trkpt>
      <trkpt lat="49.95509" lon="2.35764">
        <ele>100.5</ele>
        <time>2023-01-25T15:29:50Z</time>
      </trkpt>
      <trkpt lat="49.95508" lon="2.35764">
        <ele>100.5</ele>
        <time>2023-01-25T15:29:51Z</time>
      </trkpt>
      <trkpt lat="49.95507" lon="2.35764">
        <ele>100.5</ele>
        <time>2023-01-25T15:29:52Z</time>
      </trkpt>
      <trkpt lat="49.95506" lon="2.35763">
        <ele>100.5</ele>
        <time>2023-01-25T15:29:53Z</time>
      </trkpt>
      <trkpt lat="49.95505" lon="2.35763">
        <ele>100.5</ele>
        <time>2023-01-25T15:29:54Z</time>
      </trkpt>
      <trkpt lat="49.95504" lon="2.35763">
        <ele>100.5</ele>
        <time>2023-01-25T15:29:55Z</time>
      </trkpt>
      <trkpt lat="49.95503" lon="2.35763">
        <ele>100.5</ele>
        <time>2023-01-25T15:29:56Z</time>
      </trkpt>
      <trkpt lat="49.95501" lon="2.35763">
        <ele>100.5</ele>
        <time>2023-01-25T15:29:58Z</time>
      </trkpt>
      <trkpt lat="49.955" lon="2.35762">
        <ele>100.5</ele>
        <time>2023-01-25T15:29:59Z</time>
      </trkpt>
      <trkpt lat="49.95499" lon="2.35762">
        <ele>100.5</ele>
        <time>2023-01-25T15:30:00Z</time>
      </trkpt>
      <trkpt lat="49.95498" lon="2.35761">
        <ele>100.5</ele>
        <time>2023-01-25T15:30:01Z</time>
      </trkpt>
      <trkpt lat="49.95496" lon="2.3576">
        <ele>100.5</ele>
        <time>2023-01-25T15:30:02Z</time>
      </trkpt>
      <trkpt lat="49.95496" lon="2.3576">
        <ele>100.5</ele>
        <time>2023-01-25T15:30:03Z</time>
      </trkpt>
      <trkpt lat="49.95495" lon="2.3576">
        <ele>100.5</ele>
        <time>2023-01-25T15:30:04Z</time>
      </trkpt>
      <trkpt lat="49.95493" lon="2.3576">
        <ele>100.5</ele>
        <time>2023-01-25T15:30:05Z</time>
      </trkpt>
      <trkpt lat="49.95491" lon="2.35759">
        <ele>100.5</ele>
        <time>2023-01-25T15:30:07Z</time>
      </trkpt>
      <trkpt lat="49.95491" lon="2.35759">
        <ele>100.5</ele>
        <time>2023-01-25T15:30:08Z</time>
      </trkpt>
      <trkpt lat="49.9549" lon="2.35759">
        <ele>100.5</ele>
        <time>2023-01-25T15:30:09Z</time>
      </trkpt>
      <trkpt lat="49.95489" lon="2.35759">
        <ele>100.5</ele>
        <time>2023-01-25T15:30:10Z</time>
      </trkpt>
      <trkpt lat="49.95488" lon="2.35759">
        <ele>100.5</ele>
        <time>2023-01-25T15:30:11Z</time>
      </trkpt>
      <trkpt lat="49.95487" lon="2.3576">
        <ele>100.5</ele>
        <time>2023-01-25T15:30:12Z</time>
      </trkpt>
      <trkpt lat="49.95486" lon="2.35761">
        <ele>100.5</ele>
        <time>2023-01-25T15:30:13Z</time>
      </trkpt>
      <trkpt lat="49.95485" lon="2.35762">
        <ele>100.6</ele>
        <time>2023-01-25T15:30:15Z</time>
      </trkpt>
      <trkpt lat="49.95485" lon="2.35763">
        <ele>100.6</ele>
        <time>2023-01-25T15:30:16Z</time>
      </trkpt>
      <trkpt lat="49.95484" lon="2.35765">
        <ele>100.6</ele>
        <time>2023-01-25T15:30:17Z</time>
      </trkpt>
      <trkpt lat="49.95483" lon="2.35767">
        <ele>100.6</ele>
        <time>2023-01-25T15:30:18Z</time>
      </trkpt>
      <trkpt lat="49.95483" lon="2.35768">
        <ele>100.6</ele>
        <time>2023-01-25T15:30:19Z</time>
      </trkpt>
      <trkpt lat="49.95482" lon="2.35771">
        <ele>100.6</ele>
        <time>2023-01-25T15:30:21Z</time>
      </trkpt>
      <trkpt lat="49.95482" lon="2.35772">
        <ele>100.6</ele>
        <time>2023-01-25T15:30:22Z</time>
      </trkpt>
      <trkpt lat="49.95482" lon="2.35774">
        <ele>100.6</ele>
        <time>2023-01-25T15:30:23Z</time>
      </trkpt>
      <trkpt lat="49.95481" lon="2.35776">
        <ele>100.6</ele>
        <time>2023-01-25T15:30:24Z</time>
      </trkpt>
      <trkpt lat="49.9548" lon="2.35779">
        <ele>100.6</ele>
        <time>2023-01-25T15:30:25Z</time>
      </trkpt>
      <trkpt lat="49.9548" lon="2.3578">
        <ele>100.6</ele>
        <time>2023-01-25T15:30:26Z</time>
      </trkpt>
      <trkpt lat="49.9548" lon="2.35781">
        <ele>100.6</ele>
        <time>2023-01-25T15:30:27Z</time>
      </trkpt>
      <trkpt lat="49.95479" lon="2.35784">
        <ele>100.6</ele>
        <time>2023-01-25T15:30:29Z</time>
      </trkpt>
      <trkpt lat="49.95478" lon="2.35786">
        <ele>100.6</ele>
        <time>2023-01-25T15:30:30Z</time>
      </trkpt>
      <trkpt lat="49.95478" lon="2.35787">
        <ele>100.6</ele>
        <time>2023-01-25T15:30:31Z</time>
      </trkpt>
      <trkpt lat="49.95478" lon="2.35791">
        <ele>100.6</ele>
        <time>2023-01-25T15:30:32Z</time>
      </trkpt>
      <trkpt lat="49.95477" lon="2.35792">
        <ele>100.6</ele>
        <time>2023-01-25T15:30:33Z</time>
      </trkpt>
      <trkpt lat="49.95477" lon="2.35793">
        <ele>100.6</ele>
        <time>2023-01-25T15:30:34Z</time>
      </trkpt>
      <trkpt lat="49.95476" lon="2.35795">
        <ele>100.6</ele>
        <time>2023-01-25T15:30:35Z</time>
      </trkpt>
      <trkpt lat="49.95475" lon="2.35796">
        <ele>100.6</ele>
        <time>2023-01-25T15:30:37Z</time>
      </trkpt>
      <trkpt lat="49.95475" lon="2.358">
        <ele>100.6</ele>
        <time>2023-01-25T15:30:38Z</time>
      </trkpt>
      <trkpt lat="49.95475" lon="2.35801">
        <ele>100.6</ele>
        <time>2023-01-25T15:30:39Z</time>
      </trkpt>
      <trkpt lat="49.95474" lon="2.35802">
        <ele>100.6</ele>
        <time>2023-01-25T15:30:40Z</time>
      </trkpt>
      <trkpt lat="49.95474" lon="2.35805">
        <ele>100.6</ele>
        <time>2023-01-25T15:30:41Z</time>
      </trkpt>
      <trkpt lat="49.95474" lon="2.35807">
        <ele>100.6</ele>
        <time>2023-01-25T15:30:42Z</time>
      </trkpt>
      <trkpt lat="49.95474" lon="2.35808">
        <ele>100.6</ele>
        <time>2023-01-25T15:30:43Z</time>
      </trkpt>
      <trkpt lat="49.95473" lon="2.3581">
        <ele>100.6</ele>
        <time>2023-01-25T15:30:44Z</time>
      </trkpt>
      <trkpt lat="49.95473" lon="2.35812">
        <ele>100.6</ele>
        <time>2023-01-25T15:30:45Z</time>
      </trkpt>
      <trkpt lat="49.95472" lon="2.35813">
        <ele>100.6</ele>
        <time>2023-01-25T15:30:47Z</time>
      </trkpt>
      <trkpt lat="49.95471" lon="2.35815">
        <ele>100.6</ele>
        <time>2023-01-25T15:30:48Z</time>
      </trkpt>
      <trkpt lat="49.9547" lon="2.35816">
        <ele>100.5</ele>
        <time>2023-01-25T15:30:49Z</time>
      </trkpt>
      <trkpt lat="49.9547" lon="2.35817">
        <ele>100.5</ele>
        <time>2023-01-25T15:30:50Z</time>
      </trkpt>
      <trkpt lat="49.95469" lon="2.35819">
        <ele>100.5</ele>
        <time>2023-01-25T15:30:51Z</time>
      </trkpt>
      <trkpt lat="49.95468" lon="2.3582">
        <ele>100.5</ele>
        <time>2023-01-25T15:30:52Z</time>
      </trkpt>
      <trkpt lat="49.95468" lon="2.3582">
        <ele>100.5</ele>
        <time>2023-01-25T15:30:54Z</time>
      </trkpt>
      <trkpt lat="49.95468" lon="2.35819">
        <ele>100.5</ele>
        <time>2023-01-25T15:30:55Z</time>
      </trkpt>
      <trkpt lat="49.95467" lon="2.3582">
        <ele>100.5</ele>
        <time>2023-01-25T15:30:56Z</time>
      </trkpt>
      <trkpt lat="49.95467" lon="2.35821">
        <ele>100.5</ele>
        <time>2023-01-25T15:30:57Z</time>
      </trkpt>
      <trkpt lat="49.95467" lon="2.35823">
        <ele>100.5</ele>
        <time>2023-01-25T15:30:58Z</time>
      </trkpt>
      <trkpt lat="49.95466" lon="2.35824">
        <ele>100.5</ele>
        <time>2023-01-25T15:30:59Z</time>
      </trkpt>
      <trkpt lat="49.95466" lon="2.35826">
        <ele>100.5</ele>
        <time>2023-01-25T15:31:00Z</time>
      </trkpt>
      <trkpt lat="49.95466" lon="2.35828">
        <ele>100.5</ele>
        <time>2023-01-25T15:31:01Z</time>
      </trkpt>
      <trkpt lat="49.95465" lon="2.35831">
        <ele>100.5</ele>
        <time>2023-01-25T15:31:03Z</time>
      </trkpt>
      <trkpt lat="49.95465" lon="2.35833">
        <ele>100.5</ele>
        <time>2023-01-25T15:31:04Z</time>
      </trkpt>
      <trkpt lat="49.95464" lon="2.35835">
        <ele>100.5</ele>
        <time>2023-01-25T15:31:05Z</time>
      </trkpt>
      <trkpt lat="49.95464" lon="2.35838">
        <ele>100.4</ele>
        <time>2023-01-25T15:31:06Z</time>
      </trkpt>
      <trkpt lat="49.95464" lon="2.3584">
        <ele>100.4</ele>
        <time>2023-01-25T15:31:07Z</time>
      </trkpt>
      <trkpt lat="49.95463" lon="2.35843">
        <ele>100.4</ele>
        <time>2023-01-25T15:31:09Z</time>
      </trkpt>
      <trkpt lat="49.95463" lon="2.35845">
        <ele>100.4</ele>
        <time>2023-01-25T15:31:10Z</time>
      </trkpt>
      <trkpt lat="49.95462" lon="2.35847">
        <ele>100.4</ele>
        <time>2023-01-25T15:31:11Z</time>
      </trkpt>
      <trkpt lat="49.95463" lon="2.3585">
        <ele>100.4</ele>
        <time>2023-01-25T15:31:12Z</time>
      </trkpt>
      <trkpt lat="49.95462" lon="2.35853">
        <ele>100.4</ele>
        <time>2023-01-25T15:31:13Z</time>
      </trkpt>
      <trkpt lat="49.95462" lon="2.35855">
        <ele>100.4</ele>
        <time>2023-01-25T15:31:14Z</time>
      </trkpt>
      <trkpt lat="49.95462" lon="2.35856">
        <ele>100.4</ele>
        <time>2023-01-25T15:31:15Z</time>
      </trkpt>
      <trkpt lat="49.95461" lon="2.35859">
        <ele>100.4</ele>
        <time>2023-01-25T15:31:16Z</time>
      </trkpt>
      <trkpt lat="49.9546" lon="2.3586">
        <ele>100.4</ele>
        <time>2023-01-25T15:31:17Z</time>
      </trkpt>
      <trkpt lat="49.9546" lon="2.35861">
        <ele>100.3</ele>
        <time>2023-01-25T15:31:19Z</time>
      </trkpt>
      <trkpt lat="49.9546" lon="2.35862">
        <ele>100.3</ele>
        <time>2023-01-25T15:31:20Z</time>
      </trkpt>
      <trkpt lat="49.95459" lon="2.35864">
        <ele>100.3</ele>
        <time>2023-01-25T15:31:21Z</time>
      </trkpt>
      <trkpt lat="49.95459" lon="2.35866">
        <ele>100.3</ele>
        <time>2023-01-25T15:31:22Z</time>
      </trkpt>
      <trkpt lat="49.95459" lon="2.35868">
        <ele>100.3</ele>
        <time>2023-01-25T15:31:23Z</time>
      </trkpt>
      <trkpt lat="49.95458" lon="2.3587">
        <ele>100.3</ele>
        <time>2023-01-25T15:31:24Z</time>
      </trkpt>
      <trkpt lat="49.95457" lon="2.35872">
        <ele>100.3</ele>
        <time>2023-01-25T15:31:26Z</time>
      </trkpt>
      <trkpt lat="49.95456" lon="2.35873">
        <ele>100.4</ele>
        <time>2023-01-25T15:31:27Z</time>
      </trkpt>
      <trkpt lat="49.95455" lon="2.35875">
        <ele>100.4</ele>
        <time>2023-01-25T15:31:28Z</time>
      </trkpt>
      <trkpt lat="49.95455" lon="2.35876">
        <ele>100.5</ele>
        <time>2023-01-25T15:31:29Z</time>
      </trkpt>
      <trkpt lat="49.95455" lon="2.35878">
        <ele>100.6</ele>
        <time>2023-01-25T15:31:30Z</time>
      </trkpt>
      <trkpt lat="49.95455" lon="2.3588">
        <ele>100.6</ele>
        <time>2023-01-25T15:31:32Z</time>
      </trkpt>
      <trkpt lat="49.95456" lon="2.35883">
        <ele>100.6</ele>
        <time>2023-01-25T15:31:33Z</time>
      </trkpt>
      <trkpt lat="49.95456" lon="2.35884">
        <ele>100.6</ele>
        <time>2023-01-25T15:31:34Z</time>
      </trkpt>
      <trkpt lat="49.95456" lon="2.35888">
        <ele>100.6</ele>
        <time>2023-01-25T15:31:35Z</time>
      </trkpt>
      <trkpt lat="49.95456" lon="2.3589">
        <ele>100.5</ele>
        <time>2023-01-25T15:31:36Z</time>
      </trkpt>
      <trkpt lat="49.95456" lon="2.35892">
        <ele>100.5</ele>
        <time>2023-01-25T15:31:37Z</time>
      </trkpt>
      <trkpt lat="49.95456" lon="2.35894">
        <ele>100.5</ele>
        <time>2023-01-25T15:31:38Z</time>
      </trkpt>
      <trkpt lat="49.95455" lon="2.35895">
        <ele>100.5</ele>
        <time>2023-01-25T15:31:39Z</time>
      </trkpt>
      <trkpt lat="49.95455" lon="2.35897">
        <ele>100.5</ele>
        <time>2023-01-25T15:31:40Z</time>
      </trkpt>
      <trkpt lat="49.95455" lon="2.35898">
        <ele>100.4</ele>
        <time>2023-01-25T15:31:41Z</time>
      </trkpt>
      <trkpt lat="49.95456" lon="2.35901">
        <ele>100.4</ele>
        <time>2023-01-25T15:31:43Z</time>
      </trkpt>
      <trkpt lat="49.95456" lon="2.35902">
        <ele>100.4</ele>
        <time>2023-01-25T15:31:44Z</time>
      </trkpt>
      <trkpt lat="49.95456" lon="2.35904">
        <ele>100.4</ele>
        <time>2023-01-25T15:31:45Z</time>
      </trkpt>
      <trkpt lat="49.95456" lon="2.35906">
        <ele>100.3</ele>
        <time>2023-01-25T15:31:46Z</time>
      </trkpt>
      <trkpt lat="49.95456" lon="2.35907">
        <ele>100.3</ele>
        <time>2023-01-25T15:31:47Z</time>
      </trkpt>
      <trkpt lat="49.95458" lon="2.35911">
        <ele>100.2</ele>
        <time>2023-01-25T15:31:48Z</time>
      </trkpt>
      <trkpt lat="49.95459" lon="2.35912">
        <ele>100.2</ele>
        <time>2023-01-25T15:31:49Z</time>
      </trkpt>
      <trkpt lat="49.95459" lon="2.35914">
        <ele>100.1</ele>
        <time>2023-01-25T15:31:50Z</time>
      </trkpt>
      <trkpt lat="49.95459" lon="2.35916">
        <ele>100.1</ele>
        <time>2023-01-25T15:31:52Z</time>
      </trkpt>
      <trkpt lat="49.95457" lon="2.35919">
        <ele>100</ele>
        <time>2023-01-25T15:31:53Z</time>
      </trkpt>
      <trkpt lat="49.95457" lon="2.3592">
        <ele>100</ele>
        <time>2023-01-25T15:31:54Z</time>
      </trkpt>
      <trkpt lat="49.95456" lon="2.35923">
        <ele>99.9</ele>
        <time>2023-01-25T15:31:55Z</time>
      </trkpt>
      <trkpt lat="49.95456" lon="2.35924">
        <ele>99.9</ele>
        <time>2023-01-25T15:31:56Z</time>
      </trkpt>
      <trkpt lat="49.95455" lon="2.35925">
        <ele>99.9</ele>
        <time>2023-01-25T15:31:57Z</time>
      </trkpt>
      <trkpt lat="49.95458" lon="2.35927">
        <ele>99.8</ele>
        <time>2023-01-25T15:31:58Z</time>
      </trkpt>
      <trkpt lat="49.95459" lon="2.35928">
        <ele>99.8</ele>
        <time>2023-01-25T15:31:59Z</time>
      </trkpt>
      <trkpt lat="49.95458" lon="2.3593">
        <ele>99.7</ele>
        <time>2023-01-25T15:32:00Z</time>
      </trkpt>
      <trkpt lat="49.95458" lon="2.35931">
        <ele>99.7</ele>
        <time>2023-01-25T15:32:01Z</time>
      </trkpt>
      <trkpt lat="49.95457" lon="2.35933">
        <ele>99.6</ele>
        <time>2023-01-25T15:32:03Z</time>
      </trkpt>
      <trkpt lat="49.95457" lon="2.35933">
        <ele>99.6</ele>
        <time>2023-01-25T15:32:04Z</time>
      </trkpt>
      <trkpt lat="49.95456" lon="2.35934">
        <ele>99.6</ele>
        <time>2023-01-25T15:32:05Z</time>
      </trkpt>
      <trkpt lat="49.95456" lon="2.35936">
        <ele>99.6</ele>
        <time>2023-01-25T15:32:06Z</time>
      </trkpt>
      <trkpt lat="49.95455" lon="2.35937">
        <ele>99.5</ele>
        <time>2023-01-25T15:32:07Z</time>
      </trkpt>
      <trkpt lat="49.95455" lon="2.35938">
        <ele>99.5</ele>
        <time>2023-01-25T15:32:08Z</time>
      </trkpt>
      <trkpt lat="49.95455" lon="2.35939">
        <ele>99.5</ele>
        <time>2023-01-25T15:32:09Z</time>
      </trkpt>
      <trkpt lat="49.95454" lon="2.3594">
        <ele>99.5</ele>
        <time>2023-01-25T15:32:10Z</time>
      </trkpt>
      <trkpt lat="49.95454" lon="2.35942">
        <ele>99.4</ele>
        <time>2023-01-25T15:32:12Z</time>
      </trkpt>
      <trkpt lat="49.95452" lon="2.35945">
        <ele>99.4</ele>
        <time>2023-01-25T15:32:13Z</time>
      </trkpt>
      <trkpt lat="49.95451" lon="2.35946">
        <ele>99.4</ele>
        <time>2023-01-25T15:32:14Z</time>
      </trkpt>
      <trkpt lat="49.95451" lon="2.35948">
        <ele>99.3</ele>
        <time>2023-01-25T15:32:15Z</time>
      </trkpt>
      <trkpt lat="49.95451" lon="2.3595">
        <ele>99.3</ele>
        <time>2023-01-25T15:32:16Z</time>
      </trkpt>
      <trkpt lat="49.95451" lon="2.35951">
        <ele>99.3</ele>
        <time>2023-01-25T15:32:17Z</time>
      </trkpt>
      <trkpt lat="49.95451" lon="2.35954">
        <ele>99.2</ele>
        <time>2023-01-25T15:32:18Z</time>
      </trkpt>
      <trkpt lat="49.9545" lon="2.35958">
        <ele>99.2</ele>
        <time>2023-01-25T15:32:19Z</time>
      </trkpt>
      <trkpt lat="49.9545" lon="2.35959">
        <ele>99.2</ele>
        <time>2023-01-25T15:32:20Z</time>
      </trkpt>
      <trkpt lat="49.9545" lon="2.35961">
        <ele>99.2</ele>
        <time>2023-01-25T15:32:21Z</time>
      </trkpt>
      <trkpt lat="49.9545" lon="2.35964">
        <ele>99.1</ele>
        <time>2023-01-25T15:32:22Z</time>
      </trkpt>
      <trkpt lat="49.95451" lon="2.35965">
        <ele>99.1</ele>
        <time>2023-01-25T15:32:24Z</time>
      </trkpt>
      <trkpt lat="49.95451" lon="2.35966">
        <ele>99.1</ele>
        <time>2023-01-25T15:32:25Z</time>
      </trkpt>
      <trkpt lat="49.95451" lon="2.35967">
        <ele>99.1</ele>
        <time>2023-01-25T15:32:26Z</time>
      </trkpt>
      <trkpt lat="49.95451" lon="2.35969">
        <ele>99.1</ele>
        <time>2023-01-25T15:32:27Z</time>
      </trkpt>
      <trkpt lat="49.95451" lon="2.35971">
        <ele>99.1</ele>
        <time>2023-01-25T15:32:28Z</time>
      </trkpt>
      <trkpt lat="49.95451" lon="2.35973">
        <ele>99.1</ele>
        <time>2023-01-25T15:32:29Z</time>
      </trkpt>
      <trkpt lat="49.95451" lon="2.35975">
        <ele>99</ele>
        <time>2023-01-25T15:32:30Z</time>
      </trkpt>
      <trkpt lat="49.95451" lon="2.35977">
        <ele>99</ele>
        <time>2023-01-25T15:32:31Z</time>
      </trkpt>
      <trkpt lat="49.95451" lon="2.35979">
        <ele>99</ele>
        <time>2023-01-25T15:32:32Z</time>
      </trkpt>
      <trkpt lat="49.95451" lon="2.35982">
        <ele>99</ele>
        <time>2023-01-25T15:32:33Z</time>
      </trkpt>
      <trkpt lat="49.95451" lon="2.35985">
        <ele>99</ele>
        <time>2023-01-25T15:32:35Z</time>
      </trkpt>
      <trkpt lat="49.95451" lon="2.35988">
        <ele>99</ele>
        <time>2023-01-25T15:32:36Z</time>
      </trkpt>
      <trkpt lat="49.95451" lon="2.3599">
        <ele>99</ele>
        <time>2023-01-25T15:32:37Z</time>
      </trkpt>
      <trkpt lat="49.95451" lon="2.35991">
        <ele>99</ele>
        <time>2023-01-25T15:32:38Z</time>
      </trkpt>
      <trkpt lat="49.95451" lon="2.35993">
        <ele>99</ele>
        <time>2023-01-25T15:32:39Z</time>
      </trkpt>
      <trkpt lat="49.95452" lon="2.35995">
        <ele>99</ele>
        <time>2023-01-25T15:32:40Z</time>
      </trkpt>
      <trkpt lat="49.95451" lon="2.35996">
        <ele>99</ele>
        <time>2023-01-25T15:32:41Z</time>
      </trkpt>
      <trkpt lat="49.95451" lon="2.35998">
        <ele>99</ele>
        <time>2023-01-25T15:32:42Z</time>
      </trkpt>
      <trkpt lat="49.95452" lon="2.36001">
        <ele>99.1</ele>
        <time>2023-01-25T15:32:43Z</time>
      </trkpt>
      <trkpt lat="49.95452" lon="2.36003">
        <ele>99.1</ele>
        <time>2023-01-25T15:32:45Z</time>
      </trkpt>
      <trkpt lat="49.95451" lon="2.36006">
        <ele>99.1</ele>
        <time>2023-01-25T15:32:46Z</time>
      </trkpt>
      <trkpt lat="49.95451" lon="2.36008">
        <ele>99.1</ele>
        <time>2023-01-25T15:32:47Z</time>
      </trkpt>
      <trkpt lat="49.9545" lon="2.3601">
        <ele>99.1</ele>
        <time>2023-01-25T15:32:48Z</time>
      </trkpt>
      <trkpt lat="49.9545" lon="2.3601">
        <ele>99.1</ele>
        <time>2023-01-25T15:32:49Z</time>
      </trkpt>
      <trkpt lat="49.9545" lon="2.36011">
        <ele>99.1</ele>
        <time>2023-01-25T15:32:50Z</time>
      </trkpt>
      <trkpt lat="49.9545" lon="2.36013">
        <ele>99.2</ele>
        <time>2023-01-25T15:32:51Z</time>
      </trkpt>
      <trkpt lat="49.95449" lon="2.36014">
        <ele>99.2</ele>
        <time>2023-01-25T15:32:52Z</time>
      </trkpt>
      <trkpt lat="49.9545" lon="2.36017">
        <ele>99.2</ele>
        <time>2023-01-25T15:32:54Z</time>
      </trkpt>
      <trkpt lat="49.9545" lon="2.36019">
        <ele>99.2</ele>
        <time>2023-01-25T15:32:55Z</time>
      </trkpt>
      <trkpt lat="49.9545" lon="2.3602">
        <ele>99.2</ele>
        <time>2023-01-25T15:32:56Z</time>
      </trkpt>
      <trkpt lat="49.9545" lon="2.36022">
        <ele>99.2</ele>
        <time>2023-01-25T15:32:57Z</time>
      </trkpt>
      <trkpt lat="49.9545" lon="2.36023">
        <ele>99.2</ele>
        <time>2023-01-25T15:32:58Z</time>
      </trkpt>
      <trkpt lat="49.9545" lon="2.36024">
        <ele>99.2</ele>
        <time>2023-01-25T15:32:59Z</time>
      </trkpt>
      <trkpt lat="49.9545" lon="2.36025">
        <ele>99.2</ele>
        <time>2023-01-25T15:33:00Z</time>
      </trkpt>
      <trkpt lat="49.9545" lon="2.36026">
        <ele>99.2</ele>
        <time>2023-01-25T15:33:02Z</time>
      </trkpt>
      <trkpt lat="49.9545" lon="2.36026">
        <ele>99.2</ele>
        <time>2023-01-25T15:33:03Z</time>
      </trkpt>
      <trkpt lat="49.9545" lon="2.36025">
        <ele>99.2</ele>
        <time>2023-01-25T15:33:05Z</time>
      </trkpt>
      <trkpt lat="49.95451" lon="2.36025">
        <ele>99.2</ele>
        <time>2023-01-25T15:33:06Z</time>
      </trkpt>
      <trkpt lat="49.95451" lon="2.36023">
        <ele>99.2</ele>
        <time>2023-01-25T15:33:08Z</time>
      </trkpt>
      <trkpt lat="49.95452" lon="2.36023">
        <ele>99.2</ele>
        <time>2023-01-25T15:33:09Z</time>
      </trkpt>
      <trkpt lat="49.95452" lon="2.36023">
        <ele>99.2</ele>
        <time>2023-01-25T15:33:10Z</time>
      </trkpt>
      <trkpt lat="49.95452" lon="2.36023">
        <ele>99.2</ele>
        <time>2023-01-25T15:33:12Z</time>
      </trkpt>
      <trkpt lat="49.95452" lon="2.36023">
        <ele>99.2</ele>
        <time>2023-01-25T15:33:13Z</time>
      </trkpt>
      <trkpt lat="49.95452" lon="2.36022">
        <ele>99.2</ele>
        <time>2023-01-25T15:33:14Z</time>
      </trkpt>
      <trkpt lat="49.95452" lon="2.36022">
        <ele>99.2</ele>
        <time>2023-01-25T15:33:16Z</time>
      </trkpt>
      <trkpt lat="49.95453" lon="2.36022">
        <ele>99.2</ele>
        <time>2023-01-25T15:33:17Z</time>
      </trkpt>
      <trkpt lat="49.95453" lon="2.36022">
        <ele>99.2</ele>
        <time>2023-01-25T15:33:18Z</time>
      </trkpt>
      <trkpt lat="49.95453" lon="2.3602">
        <ele>99.2</ele>
        <time>2023-01-25T15:33:19Z</time>
      </trkpt>
      <trkpt lat="49.95453" lon="2.3602">
        <ele>99.1</ele>
        <time>2023-01-25T15:33:20Z</time>
      </trkpt>
      <trkpt lat="49.95453" lon="2.36019">
        <ele>99.1</ele>
        <time>2023-01-25T15:33:21Z</time>
      </trkpt>
      <trkpt lat="49.95453" lon="2.36019">
        <ele>99.1</ele>
        <time>2023-01-25T15:33:22Z</time>
      </trkpt>
      <trkpt lat="49.95453" lon="2.36019">
        <ele>99.1</ele>
        <time>2023-01-25T15:33:23Z</time>
      </trkpt>
      <trkpt lat="49.95453" lon="2.36019">
        <ele>99.1</ele>
        <time>2023-01-25T15:33:24Z</time>
      </trkpt>
      <trkpt lat="49.95453" lon="2.36019">
        <ele>99.1</ele>
        <time>2023-01-25T15:33:25Z</time>
      </trkpt>
      <trkpt lat="49.95453" lon="2.36019">
        <ele>99.1</ele>
        <time>2023-01-25T15:33:26Z</time>
      </trkpt>
      <trkpt lat="49.95453" lon="2.36019">
        <ele>99.1</ele>
        <time>2023-01-25T15:33:27Z</time>
      </trkpt>
      <trkpt lat="49.95453" lon="2.36019">
        <ele>99.1</ele>
        <time>2023-01-25T15:33:28Z</time>
      </trkpt>
      <trkpt lat="49.95453" lon="2.36019">
        <ele>99.1</ele>
        <time>2023-01-25T15:33:29Z</time>
      </trkpt>
      <trkpt lat="49.95453" lon="2.36019">
        <ele>99.1</ele>
        <time>2023-01-25T15:33:30Z</time>
      </trkpt>
      <trkpt lat="49.95453" lon="2.36019">
        <ele>99.1</ele>
        <time>2023-01-25T15:33:31Z</time>
      </trkpt>
      <trkpt lat="49.95453" lon="2.36019">
        <ele>99.1</ele>
        <time>2023-01-25T15:33:32Z</time>
      </trkpt>
      <trkpt lat="49.95453" lon="2.36019">
        <ele>99.1</ele>
        <time>2023-01-25T15:33:33Z</time>
      </trkpt>
      <trkpt lat="49.95453" lon="2.36019">
        <ele>99.1</ele>
        <time>2023-01-25T15:33:34Z</time>
      </trkpt>
      <trkpt lat="49.95453" lon="2.36019">
        <ele>99.1</ele>
        <time>2023-01-25T15:33:35Z</time>
      </trkpt>
      <trkpt lat="49.95453" lon="2.36019">
        <ele>99.1</ele>
        <time>2023-01-25T15:33:36Z</time>
      </trkpt>
      <trkpt lat="49.95453" lon="2.36019">
        <ele>99.1</ele>
        <time>2023-01-25T15:33:37Z</time>
      </trkpt>
      <trkpt lat="49.95453" lon="2.36019">
        <ele>99.1</ele>
        <time>2023-01-25T15:33:38Z</time>
      </trkpt>
      <trkpt lat="49.95453" lon="2.36019">
        <ele>99.1</ele>
        <time>2023-01-25T15:33:39Z</time>
      </trkpt>
      <trkpt lat="49.95452" lon="2.36018">
        <ele>99.1</ele>
        <time>2023-01-25T15:33:40Z</time>
      </trkpt>
      <trkpt lat="49.95452" lon="2.36018">
        <ele>99.1</ele>
        <time>2023-01-25T15:33:41Z</time>
      </trkpt>
      <trkpt lat="49.95452" lon="2.36019">
        <ele>99.1</ele>
        <time>2023-01-25T15:33:42Z</time>
      </trkpt>
      <trkpt lat="49.95451" lon="2.36019">
        <ele>99.1</ele>
        <time>2023-01-25T15:33:44Z</time>
      </trkpt>
      <trkpt lat="49.9545" lon="2.36019">
        <ele>99.1</ele>
        <time>2023-01-25T15:33:45Z</time>
      </trkpt>
      <trkpt lat="49.95449" lon="2.3602">
        <ele>99.1</ele>
        <time>2023-01-25T15:33:46Z</time>
      </trkpt>
      <trkpt lat="49.95447" lon="2.3602">
        <ele>99.1</ele>
        <time>2023-01-25T15:33:47Z</time>
      </trkpt>
      <trkpt lat="49.95446" lon="2.36021">
        <ele>99.1</ele>
        <time>2023-01-25T15:33:48Z</time>
      </trkpt>
      <trkpt lat="49.95445" lon="2.36022">
        <ele>99.1</ele>
        <time>2023-01-25T15:33:50Z</time>
      </trkpt>
      <trkpt lat="49.95444" lon="2.36023">
        <ele>99</ele>
        <time>2023-01-25T15:33:51Z</time>
      </trkpt>
      <trkpt lat="49.95442" lon="2.36024">
        <ele>99</ele>
        <time>2023-01-25T15:33:52Z</time>
      </trkpt>
      <trkpt lat="49.95441" lon="2.36024">
        <ele>99</ele>
        <time>2023-01-25T15:33:53Z</time>
      </trkpt>
      <trkpt lat="49.9544" lon="2.36025">
        <ele>99</ele>
        <time>2023-01-25T15:33:54Z</time>
      </trkpt>
      <trkpt lat="49.95439" lon="2.36025">
        <ele>99</ele>
        <time>2023-01-25T15:33:56Z</time>
      </trkpt>
      <trkpt lat="49.95438" lon="2.36027">
        <ele>99</ele>
        <time>2023-01-25T15:33:57Z</time>
      </trkpt>
      <trkpt lat="49.95437" lon="2.36027">
        <ele>99</ele>
        <time>2023-01-25T15:33:58Z</time>
      </trkpt>
      <trkpt lat="49.95436" lon="2.36028">
        <ele>99</ele>
        <time>2023-01-25T15:33:59Z</time>
      </trkpt>
      <trkpt lat="49.95435" lon="2.36028">
        <ele>99</ele>
        <time>2023-01-25T15:34:00Z</time>
      </trkpt>
      <trkpt lat="49.95434" lon="2.36027">
        <ele>99</ele>
        <time>2023-01-25T15:34:01Z</time>
      </trkpt>
      <trkpt lat="49.95433" lon="2.36027">
        <ele>98.9</ele>
        <time>2023-01-25T15:34:02Z</time>
      </trkpt>
      <trkpt lat="49.95432" lon="2.36027">
        <ele>98.9</ele>
        <time>2023-01-25T15:34:03Z</time>
      </trkpt>
      <trkpt lat="49.95431" lon="2.36026">
        <ele>98.9</ele>
        <time>2023-01-25T15:34:05Z</time>
      </trkpt>
      <trkpt lat="49.95431" lon="2.36026">
        <ele>98.9</ele>
        <time>2023-01-25T15:34:06Z</time>
      </trkpt>
      <trkpt lat="49.9543" lon="2.36026">
        <ele>98.9</ele>
        <time>2023-01-25T15:34:07Z</time>
      </trkpt>
      <trkpt lat="49.95429" lon="2.36025">
        <ele>98.9</ele>
        <time>2023-01-25T15:34:08Z</time>
      </trkpt>
      <trkpt lat="49.95429" lon="2.36025">
        <ele>98.9</ele>
        <time>2023-01-25T15:34:09Z</time>
      </trkpt>
      <trkpt lat="49.95428" lon="2.36025">
        <ele>98.9</ele>
        <time>2023-01-25T15:34:10Z</time>
      </trkpt>
      <trkpt lat="49.95427" lon="2.36025">
        <ele>98.9</ele>
        <time>2023-01-25T15:34:11Z</time>
      </trkpt>
      <trkpt lat="49.95426" lon="2.36024">
        <ele>98.9</ele>
        <time>2023-01-25T15:34:12Z</time>
      </trkpt>
      <trkpt lat="49.95425" lon="2.36024">
        <ele>98.9</ele>
        <time>2023-01-25T15:34:13Z</time>
      </trkpt>
      <trkpt lat="49.95423" lon="2.36023">
        <ele>98.9</ele>
        <time>2023-01-25T15:34:15Z</time>
      </trkpt>
      <trkpt lat="49.95423" lon="2.36022">
        <ele>98.8</ele>
        <time>2023-01-25T15:34:16Z</time>
      </trkpt>
      <trkpt lat="49.95422" lon="2.36022">
        <ele>98.8</ele>
        <time>2023-01-25T15:34:17Z</time>
      </trkpt>
      <trkpt lat="49.95421" lon="2.36021">
        <ele>98.8</ele>
        <time>2023-01-25T15:34:18Z</time>
      </trkpt>
      <trkpt lat="49.9542" lon="2.3602">
        <ele>98.8</ele>
        <time>2023-01-25T15:34:19Z</time>
      </trkpt>
      <trkpt lat="49.95419" lon="2.3602">
        <ele>98.8</ele>
        <time>2023-01-25T15:34:20Z</time>
      </trkpt>
      <trkpt lat="49.95417" lon="2.36019">
        <ele>98.8</ele>
        <time>2023-01-25T15:34:21Z</time>
      </trkpt>
      <trkpt lat="49.95416" lon="2.36019">
        <ele>98.8</ele>
        <time>2023-01-25T15:34:22Z</time>
      </trkpt>
      <trkpt lat="49.95415" lon="2.36019">
        <ele>98.8</ele>
        <time>2023-01-25T15:34:23Z</time>
      </trkpt>
      <trkpt lat="49.95414" lon="2.36018">
        <ele>98.8</ele>
        <time>2023-01-25T15:34:25Z</time>
      </trkpt>
      <trkpt lat="49.95413" lon="2.36018">
        <ele>98.8</ele>
        <time>2023-01-25T15:34:26Z</time>
      </trkpt>
      <trkpt lat="49.95412" lon="2.36018">
        <ele>98.7</ele>
        <time>2023-01-25T15:34:27Z</time>
      </trkpt>
      <trkpt lat="49.95411" lon="2.36018">
        <ele>98.7</ele>
        <time>2023-01-25T15:34:28Z</time>
      </trkpt>
      <trkpt lat="49.95409" lon="2.36017">
        <ele>98.7</ele>
        <time>2023-01-25T15:34:29Z</time>
      </trkpt>
      <trkpt lat="49.95408" lon="2.36017">
        <ele>98.7</ele>
        <time>2023-01-25T15:34:30Z</time>
      </trkpt>
      <trkpt lat="49.95406" lon="2.36016">
        <ele>98.7</ele>
        <time>2023-01-25T15:34:31Z</time>
      </trkpt>
      <trkpt lat="49.95405" lon="2.36016">
        <ele>98.7</ele>
        <time>2023-01-25T15:34:33Z</time>
      </trkpt>
      <trkpt lat="49.95404" lon="2.36016">
        <ele>98.7</ele>
        <time>2023-01-25T15:34:34Z</time>
      </trkpt>
      <trkpt lat="49.95403" lon="2.36016">
        <ele>98.6</ele>
        <time>2023-01-25T15:34:35Z</time>
      </trkpt>
      <trkpt lat="49.95402" lon="2.36015">
        <ele>98.6</ele>
        <time>2023-01-25T15:34:36Z</time>
      </trkpt>
      <trkpt lat="49.95401" lon="2.36015">
        <ele>98.6</ele>
        <time>2023-01-25T15:34:38Z</time>
      </trkpt>
      <trkpt lat="49.95399" lon="2.36015">
        <ele>98.6</ele>
        <time>2023-01-25T15:34:39Z</time>
      </trkpt>
      <trkpt lat="49.95398" lon="2.36015">
        <ele>98.6</ele>
        <time>2023-01-25T15:34:40Z</time>
      </trkpt>
      <trkpt lat="49.95397" lon="2.36015">
        <ele>98.6</ele>
        <time>2023-01-25T15:34:41Z</time>
      </trkpt>
      <trkpt lat="49.95395" lon="2.36014">
        <ele>98.5</ele>
        <time>2023-01-25T15:34:43Z</time>
      </trkpt>
      <trkpt lat="49.95395" lon="2.36013">
        <ele>98.5</ele>
        <time>2023-01-25T15:34:44Z</time>
      </trkpt>
      <trkpt lat="49.95394" lon="2.36013">
        <ele>98.5</ele>
        <time>2023-01-25T15:34:45Z</time>
      </trkpt>
      <trkpt lat="49.95392" lon="2.36011">
        <ele>98.5</ele>
        <time>2023-01-25T15:34:46Z</time>
      </trkpt>
      <trkpt lat="49.95391" lon="2.36011">
        <ele>98.5</ele>
        <time>2023-01-25T15:34:47Z</time>
      </trkpt>
      <trkpt lat="49.9539" lon="2.3601">
        <ele>98.5</ele>
        <time>2023-01-25T15:34:48Z</time>
      </trkpt>
      <trkpt lat="49.95389" lon="2.36009">
        <ele>98.4</ele>
        <time>2023-01-25T15:34:49Z</time>
      </trkpt>
      <trkpt lat="49.95388" lon="2.36009">
        <ele>98.4</ele>
        <time>2023-01-25T15:34:51Z</time>
      </trkpt>
      <trkpt lat="49.95387" lon="2.36008">
        <ele>98.4</ele>
        <time>2023-01-25T15:34:52Z</time>
      </trkpt>
      <trkpt lat="49.95386" lon="2.36008">
        <ele>98.4</ele>
        <time>2023-01-25T15:34:53Z</time>
      </trkpt>
      <trkpt lat="49.95385" lon="2.36007">
        <ele>98.4</ele>
        <time>2023-01-25T15:34:54Z</time>
      </trkpt>
      <trkpt lat="49.95384" lon="2.36006">
        <ele>98.4</ele>
        <time>2023-01-25T15:34:55Z</time>
      </trkpt>
      <trkpt lat="49.95383" lon="2.36006">
        <ele>98.4</ele>
        <time>2023-01-25T15:34:56Z</time>
      </trkpt>
      <trkpt lat="49.95382" lon="2.36005">
        <ele>98.3</ele>
        <time>2023-01-25T15:34:57Z</time>
      </trkpt>
      <trkpt lat="49.95382" lon="2.36005">
        <ele>98.3</ele>
        <time>2023-01-25T15:34:58Z</time>
      </trkpt>
      <trkpt lat="49.95381" lon="2.36004">
        <ele>98.3</ele>
        <time>2023-01-25T15:35:00Z</time>
      </trkpt>
      <trkpt lat="49.9538" lon="2.36004">
        <ele>98.3</ele>
        <time>2023-01-25T15:35:01Z</time>
      </trkpt>
      <trkpt lat="49.95379" lon="2.36004">
        <ele>98.3</ele>
        <time>2023-01-25T15:35:02Z</time>
      </trkpt>
      <trkpt lat="49.95378" lon="2.36003">
        <ele>98.3</ele>
        <time>2023-01-25T15:35:03Z</time>
      </trkpt>
      <trkpt lat="49.95377" lon="2.36002">
        <ele>98.3</ele>
        <time>2023-01-25T15:35:04Z</time>
      </trkpt>
      <trkpt lat="49.95376" lon="2.36001">
        <ele>98.2</ele>
        <time>2023-01-25T15:35:05Z</time>
      </trkpt>
      <trkpt lat="49.95375" lon="2.36001">
        <ele>98.2</ele>
        <time>2023-01-25T15:35:06Z</time>
      </trkpt>
      <trkpt lat="49.95374" lon="2.36">
        <ele>98.2</ele>
        <time>2023-01-25T15:35:07Z</time>
      </trkpt>
      <trkpt lat="49.95373" lon="2.35999">
        <ele>98.2</ele>
        <time>2023-01-25T15:35:09Z</time>
      </trkpt>
      <trkpt lat="49.95372" lon="2.35998">
        <ele>98.2</ele>
        <time>2023-01-25T15:35:10Z</time>
      </trkpt>
      <trkpt lat="49.95371" lon="2.35998">
        <ele>98.2</ele>
        <time>2023-01-25T15:35:11Z</time>
      </trkpt>
      <trkpt lat="49.9537" lon="2.35997">
        <ele>98.1</ele>
        <time>2023-01-25T15:35:12Z</time>
      </trkpt>
      <trkpt lat="49.95369" lon="2.35996">
        <ele>98.1</ele>
        <time>2023-01-25T15:35:13Z</time>
      </trkpt>
      <trkpt lat="49.95368" lon="2.35994">
        <ele>98.1</ele>
        <time>2023-01-25T15:35:14Z</time>
      </trkpt>
      <trkpt lat="49.95368" lon="2.35994">
        <ele>98.1</ele>
        <time>2023-01-25T15:35:15Z</time>
      </trkpt>
      <trkpt lat="49.95367" lon="2.35992">
        <ele>98.1</ele>
        <time>2023-01-25T15:35:17Z</time>
      </trkpt>
      <trkpt lat="49.95366" lon="2.35991">
        <ele>98</ele>
        <time>2023-01-25T15:35:18Z</time>
      </trkpt>
      <trkpt lat="49.95365" lon="2.3599">
        <ele>98</ele>
        <time>2023-01-25T15:35:19Z</time>
      </trkpt>
      <trkpt lat="49.95365" lon="2.35989">
        <ele>98</ele>
        <time>2023-01-25T15:35:20Z</time>
      </trkpt>
      <trkpt lat="49.95364" lon="2.35988">
        <ele>98</ele>
        <time>2023-01-25T15:35:21Z</time>
      </trkpt>
      <trkpt lat="49.95363" lon="2.35987">
        <ele>98</ele>
        <time>2023-01-25T15:35:22Z</time>
      </trkpt>
      <trkpt lat="49.95363" lon="2.35986">
        <ele>98</ele>
        <time>2023-01-25T15:35:23Z</time>
      </trkpt>
      <trkpt lat="49.95362" lon="2.35985">
        <ele>98</ele>
        <time>2023-01-25T15:35:25Z</time>
      </trkpt>
      <trkpt lat="49.95361" lon="2.35984">
        <ele>97.9</ele>
        <time>2023-01-25T15:35:26Z</time>
      </trkpt>
      <trkpt lat="49.9536" lon="2.35983">
        <ele>97.9</ele>
        <time>2023-01-25T15:35:27Z</time>
      </trkpt>
      <trkpt lat="49.95359" lon="2.35983">
        <ele>97.9</ele>
        <time>2023-01-25T15:35:28Z</time>
      </trkpt>
      <trkpt lat="49.95357" lon="2.35981">
        <ele>97.9</ele>
        <time>2023-01-25T15:35:29Z</time>
      </trkpt>
      <trkpt lat="49.95357" lon="2.3598">
        <ele>97.8</ele>
        <time>2023-01-25T15:35:30Z</time>
      </trkpt>
      <trkpt lat="49.95356" lon="2.35979">
        <ele>97.8</ele>
        <time>2023-01-25T15:35:31Z</time>
      </trkpt>
      <trkpt lat="49.95355" lon="2.35978">
        <ele>97.8</ele>
        <time>2023-01-25T15:35:32Z</time>
      </trkpt>
      <trkpt lat="49.95354" lon="2.35977">
        <ele>97.8</ele>
        <time>2023-01-25T15:35:33Z</time>
      </trkpt>
      <trkpt lat="49.95352" lon="2.35974">
        <ele>97.7</ele>
        <time>2023-01-25T15:35:35Z</time>
      </trkpt>
      <trkpt lat="49.95351" lon="2.35972">
        <ele>97.7</ele>
        <time>2023-01-25T15:35:36Z</time>
      </trkpt>
      <trkpt lat="49.9535" lon="2.35971">
        <ele>97.7</ele>
        <time>2023-01-25T15:35:37Z</time>
      </trkpt>
      <trkpt lat="49.95349" lon="2.3597">
        <ele>97.6</ele>
        <time>2023-01-25T15:35:38Z</time>
      </trkpt>
      <trkpt lat="49.95348" lon="2.35968">
        <ele>97.6</ele>
        <time>2023-01-25T15:35:39Z</time>
      </trkpt>
      <trkpt lat="49.95347" lon="2.35967">
        <ele>97.6</ele>
        <time>2023-01-25T15:35:40Z</time>
      </trkpt>
      <trkpt lat="49.95347" lon="2.35966">
        <ele>97.6</ele>
        <time>2023-01-25T15:35:41Z</time>
      </trkpt>
      <trkpt lat="49.95346" lon="2.35965">
        <ele>97.5</ele>
        <time>2023-01-25T15:35:42Z</time>
      </trkpt>
      <trkpt lat="49.95345" lon="2.35961">
        <ele>97.5</ele>
        <time>2023-01-25T15:35:44Z</time>
      </trkpt>
      <trkpt lat="49.95344" lon="2.35959">
        <ele>97.4</ele>
        <time>2023-01-25T15:35:45Z</time>
      </trkpt>
      <trkpt lat="49.95344" lon="2.35958">
        <ele>97.4</ele>
        <time>2023-01-25T15:35:46Z</time>
      </trkpt>
      <trkpt lat="49.95343" lon="2.35957">
        <ele>97.4</ele>
        <time>2023-01-25T15:35:47Z</time>
      </trkpt>
      <trkpt lat="49.95343" lon="2.35956">
        <ele>97.3</ele>
        <time>2023-01-25T15:35:48Z</time>
      </trkpt>
      <trkpt lat="49.95342" lon="2.35953">
        <ele>97.3</ele>
        <time>2023-01-25T15:35:49Z</time>
      </trkpt>
      <trkpt lat="49.95343" lon="2.35953">
        <ele>97.3</ele>
        <time>2023-01-25T15:35:51Z</time>
      </trkpt>
      <trkpt lat="49.95343" lon="2.35952">
        <ele>97.3</ele>
        <time>2023-01-25T15:35:52Z</time>
      </trkpt>
      <trkpt lat="49.95343" lon="2.35951">
        <ele>97.2</ele>
        <time>2023-01-25T15:35:53Z</time>
      </trkpt>
      <trkpt lat="49.95342" lon="2.3595">
        <ele>97.2</ele>
        <time>2023-01-25T15:35:54Z</time>
      </trkpt>
      <trkpt lat="49.95342" lon="2.35949">
        <ele>97.2</ele>
        <time>2023-01-25T15:35:55Z</time>
      </trkpt>
      <trkpt lat="49.95341" lon="2.35948">
        <ele>97.1</ele>
        <time>2023-01-25T15:35:56Z</time>
      </trkpt>
      <trkpt lat="49.9534" lon="2.35947">
        <ele>97.1</ele>
        <time>2023-01-25T15:35:57Z</time>
      </trkpt>
      <trkpt lat="49.9534" lon="2.35945">
        <ele>97.1</ele>
        <time>2023-01-25T15:35:58Z</time>
      </trkpt>
      <trkpt lat="49.95338" lon="2.35943">
        <ele>97</ele>
        <time>2023-01-25T15:35:59Z</time>
      </trkpt>
      <trkpt lat="49.95337" lon="2.35942">
        <ele>97</ele>
        <time>2023-01-25T15:36:01Z</time>
      </trkpt>
      <trkpt lat="49.95336" lon="2.35941">
        <ele>96.9</ele>
        <time>2023-01-25T15:36:02Z</time>
      </trkpt>
      <trkpt lat="49.95335" lon="2.3594">
        <ele>96.9</ele>
        <time>2023-01-25T15:36:03Z</time>
      </trkpt>
      <trkpt lat="49.95335" lon="2.35935">
        <ele>96.8</ele>
        <time>2023-01-25T15:36:05Z</time>
      </trkpt>
      <trkpt lat="49.95333" lon="2.35934">
        <ele>96.7</ele>
        <time>2023-01-25T15:36:06Z</time>
      </trkpt>
      <trkpt lat="49.95332" lon="2.35933">
        <ele>96.7</ele>
        <time>2023-01-25T15:36:07Z</time>
      </trkpt>
      <trkpt lat="49.95331" lon="2.35932">
        <ele>96.7</ele>
        <time>2023-01-25T15:36:08Z</time>
      </trkpt>
      <trkpt lat="49.9533" lon="2.35928">
        <ele>96.6</ele>
        <time>2023-01-25T15:36:09Z</time>
      </trkpt>
      <trkpt lat="49.95329" lon="2.35928">
        <ele>96.5</ele>
        <time>2023-01-25T15:36:10Z</time>
      </trkpt>
      <trkpt lat="49.95328" lon="2.35926">
        <ele>96.5</ele>
        <time>2023-01-25T15:36:11Z</time>
      </trkpt>
      <trkpt lat="49.95327" lon="2.35925">
        <ele>96.5</ele>
        <time>2023-01-25T15:36:12Z</time>
      </trkpt>
      <trkpt lat="49.95326" lon="2.35924">
        <ele>96.4</ele>
        <time>2023-01-25T15:36:13Z</time>
      </trkpt>
      <trkpt lat="49.95326" lon="2.35922">
        <ele>96.4</ele>
        <time>2023-01-25T15:36:15Z</time>
      </trkpt>
      <trkpt lat="49.95325" lon="2.35921">
        <ele>96.3</ele>
        <time>2023-01-25T15:36:16Z</time>
      </trkpt>
      <trkpt lat="49.95324" lon="2.3592">
        <ele>96.3</ele>
        <time>2023-01-25T15:36:17Z</time>
      </trkpt>
      <trkpt lat="49.95323" lon="2.35919">
        <ele>96.3</ele>
        <time>2023-01-25T15:36:18Z</time>
      </trkpt>
      <trkpt lat="49.95321" lon="2.35917">
        <ele>96.2</ele>
        <time>2023-01-25T15:36:19Z</time>
      </trkpt>
      <trkpt lat="49.95322" lon="2.35917">
        <ele>96.2</ele>
        <time>2023-01-25T15:36:20Z</time>
      </trkpt>
      <trkpt lat="49.95321" lon="2.35917">
        <ele>96.1</ele>
        <time>2023-01-25T15:36:21Z</time>
      </trkpt>
      <trkpt lat="49.95321" lon="2.35915">
        <ele>96.1</ele>
        <time>2023-01-25T15:36:23Z</time>
      </trkpt>
      <trkpt lat="49.9532" lon="2.35914">
        <ele>96.1</ele>
        <time>2023-01-25T15:36:24Z</time>
      </trkpt>
      <trkpt lat="49.9532" lon="2.35913">
        <ele>96</ele>
        <time>2023-01-25T15:36:25Z</time>
      </trkpt>
      <trkpt lat="49.95319" lon="2.35911">
        <ele>96</ele>
        <time>2023-01-25T15:36:26Z</time>
      </trkpt>
      <trkpt lat="49.95317" lon="2.35909">
        <ele>95.9</ele>
        <time>2023-01-25T15:36:27Z</time>
      </trkpt>
      <trkpt lat="49.95316" lon="2.35909">
        <ele>95.9</ele>
        <time>2023-01-25T15:36:28Z</time>
      </trkpt>
      <trkpt lat="49.95316" lon="2.35908">
        <ele>95.9</ele>
        <time>2023-01-25T15:36:29Z</time>
      </trkpt>
      <trkpt lat="49.95315" lon="2.35908">
        <ele>95.8</ele>
        <time>2023-01-25T15:36:30Z</time>
      </trkpt>
      <trkpt lat="49.95314" lon="2.35907">
        <ele>95.8</ele>
        <time>2023-01-25T15:36:31Z</time>
      </trkpt>
      <trkpt lat="49.95313" lon="2.35906">
        <ele>95.8</ele>
        <time>2023-01-25T15:36:33Z</time>
      </trkpt>
      <trkpt lat="49.95312" lon="2.35904">
        <ele>95.7</ele>
        <time>2023-01-25T15:36:34Z</time>
      </trkpt>
      <trkpt lat="49.95311" lon="2.35902">
        <ele>95.7</ele>
        <time>2023-01-25T15:36:35Z</time>
      </trkpt>
      <trkpt lat="49.95311" lon="2.35901">
        <ele>95.6</ele>
        <time>2023-01-25T15:36:36Z</time>
      </trkpt>
      <trkpt lat="49.9531" lon="2.35899">
        <ele>95.6</ele>
        <time>2023-01-25T15:36:37Z</time>
      </trkpt>
      <trkpt lat="49.95309" lon="2.35898">
        <ele>95.5</ele>
        <time>2023-01-25T15:36:39Z</time>
      </trkpt>
      <trkpt lat="49.95308" lon="2.35896">
        <ele>95.5</ele>
        <time>2023-01-25T15:36:40Z</time>
      </trkpt>
      <trkpt lat="49.95308" lon="2.35895">
        <ele>95.5</ele>
        <time>2023-01-25T15:36:41Z</time>
      </trkpt>
      <trkpt lat="49.95307" lon="2.35894">
        <ele>95.4</ele>
        <time>2023-01-25T15:36:42Z</time>
      </trkpt>
      <trkpt lat="49.95306" lon="2.35894">
        <ele>95.4</ele>
        <time>2023-01-25T15:36:43Z</time>
      </trkpt>
      <trkpt lat="49.95305" lon="2.35892">
        <ele>95.3</ele>
        <time>2023-01-25T15:36:44Z</time>
      </trkpt>
      <trkpt lat="49.95305" lon="2.35891">
        <ele>95.3</ele>
        <time>2023-01-25T15:36:45Z</time>
      </trkpt>
      <trkpt lat="49.95304" lon="2.3589">
        <ele>95.3</ele>
        <time>2023-01-25T15:36:46Z</time>
      </trkpt>
      <trkpt lat="49.95303" lon="2.35889">
        <ele>95.2</ele>
        <time>2023-01-25T15:36:47Z</time>
      </trkpt>
      <trkpt lat="49.95302" lon="2.35888">
        <ele>95.2</ele>
        <time>2023-01-25T15:36:48Z</time>
      </trkpt>
      <trkpt lat="49.95301" lon="2.35886">
        <ele>95.1</ele>
        <time>2023-01-25T15:36:50Z</time>
      </trkpt>
      <trkpt lat="49.953" lon="2.35884">
        <ele>95.1</ele>
        <time>2023-01-25T15:36:51Z</time>
      </trkpt>
      <trkpt lat="49.953" lon="2.35884">
        <ele>95.1</ele>
        <time>2023-01-25T15:36:52Z</time>
      </trkpt>
      <trkpt lat="49.95299" lon="2.35883">
        <ele>95</ele>
        <time>2023-01-25T15:36:53Z</time>
      </trkpt>
      <trkpt lat="49.95298" lon="2.35882">
        <ele>95</ele>
        <time>2023-01-25T15:36:54Z</time>
      </trkpt>
      <trkpt lat="49.95297" lon="2.3588">
        <ele>94.9</ele>
        <time>2023-01-25T15:36:55Z</time>
      </trkpt>
      <trkpt lat="49.95296" lon="2.35879">
        <ele>94.9</ele>
        <time>2023-01-25T15:36:56Z</time>
      </trkpt>
      <trkpt lat="49.95295" lon="2.35877">
        <ele>94.8</ele>
        <time>2023-01-25T15:36:58Z</time>
      </trkpt>
      <trkpt lat="49.95294" lon="2.35876">
        <ele>94.8</ele>
        <time>2023-01-25T15:36:59Z</time>
      </trkpt>
      <trkpt lat="49.95293" lon="2.35874">
        <ele>94.7</ele>
        <time>2023-01-25T15:37:00Z</time>
      </trkpt>
      <trkpt lat="49.95292" lon="2.35873">
        <ele>94.7</ele>
        <time>2023-01-25T15:37:01Z</time>
      </trkpt>
      <trkpt lat="49.95291" lon="2.35871">
        <ele>94.6</ele>
        <time>2023-01-25T15:37:02Z</time>
      </trkpt>
      <trkpt lat="49.9529" lon="2.3587">
        <ele>94.6</ele>
        <time>2023-01-25T15:37:03Z</time>
      </trkpt>
      <trkpt lat="49.95288" lon="2.35869">
        <ele>94.5</ele>
        <time>2023-01-25T15:37:04Z</time>
      </trkpt>
      <trkpt lat="49.95287" lon="2.35868">
        <ele>94.5</ele>
        <time>2023-01-25T15:37:06Z</time>
      </trkpt>
      <trkpt lat="49.95286" lon="2.35868">
        <ele>94.4</ele>
        <time>2023-01-25T15:37:07Z</time>
      </trkpt>
      <trkpt lat="49.95285" lon="2.35867">
        <ele>94.4</ele>
        <time>2023-01-25T15:37:08Z</time>
      </trkpt>
      <trkpt lat="49.95284" lon="2.35866">
        <ele>94.3</ele>
        <time>2023-01-25T15:37:09Z</time>
      </trkpt>
      <trkpt lat="49.95282" lon="2.35865">
        <ele>94.3</ele>
        <time>2023-01-25T15:37:10Z</time>
      </trkpt>
      <trkpt lat="49.95281" lon="2.35864">
        <ele>94.2</ele>
        <time>2023-01-25T15:37:11Z</time>
      </trkpt>
      <trkpt lat="49.95279" lon="2.35862">
        <ele>94.2</ele>
        <time>2023-01-25T15:37:12Z</time>
      </trkpt>
      <trkpt lat="49.95279" lon="2.35861">
        <ele>94.1</ele>
        <time>2023-01-25T15:37:13Z</time>
      </trkpt>
      <trkpt lat="49.95278" lon="2.3586">
        <ele>94.1</ele>
        <time>2023-01-25T15:37:14Z</time>
      </trkpt>
      <trkpt lat="49.95277" lon="2.35859">
        <ele>94.1</ele>
        <time>2023-01-25T15:37:16Z</time>
      </trkpt>
      <trkpt lat="49.95277" lon="2.35858">
        <ele>94</ele>
        <time>2023-01-25T15:37:17Z</time>
      </trkpt>
      <trkpt lat="49.95276" lon="2.35858">
        <ele>94</ele>
        <time>2023-01-25T15:37:18Z</time>
      </trkpt>
      <trkpt lat="49.95276" lon="2.35857">
        <ele>94</ele>
        <time>2023-01-25T15:37:19Z</time>
      </trkpt>
      <trkpt lat="49.95275" lon="2.35856">
        <ele>93.9</ele>
        <time>2023-01-25T15:37:20Z</time>
      </trkpt>
      <trkpt lat="49.95274" lon="2.35855">
        <ele>93.9</ele>
        <time>2023-01-25T15:37:21Z</time>
      </trkpt>
      <trkpt lat="49.95273" lon="2.35854">
        <ele>93.9</ele>
        <time>2023-01-25T15:37:23Z</time>
      </trkpt>
      <trkpt lat="49.95272" lon="2.35852">
        <ele>93.8</ele>
        <time>2023-01-25T15:37:24Z</time>
      </trkpt>
      <trkpt lat="49.95271" lon="2.35851">
        <ele>93.8</ele>
        <time>2023-01-25T15:37:25Z</time>
      </trkpt>
      <trkpt lat="49.95269" lon="2.35849">
        <ele>93.7</ele>
        <time>2023-01-25T15:37:26Z</time>
      </trkpt>
      <trkpt lat="49.95269" lon="2.35848">
        <ele>93.7</ele>
        <time>2023-01-25T15:37:27Z</time>
      </trkpt>
      <trkpt lat="49.95268" lon="2.35848">
        <ele>93.6</ele>
        <time>2023-01-25T15:37:28Z</time>
      </trkpt>
      <trkpt lat="49.95267" lon="2.35847">
        <ele>93.6</ele>
        <time>2023-01-25T15:37:29Z</time>
      </trkpt>
      <trkpt lat="49.95266" lon="2.35846">
        <ele>93.5</ele>
        <time>2023-01-25T15:37:30Z</time>
      </trkpt>
      <trkpt lat="49.95265" lon="2.35846">
        <ele>93.5</ele>
        <time>2023-01-25T15:37:31Z</time>
      </trkpt>
      <trkpt lat="49.95264" lon="2.35845">
        <ele>93.5</ele>
        <time>2023-01-25T15:37:32Z</time>
      </trkpt>
      <trkpt lat="49.95263" lon="2.35844">
        <ele>93.4</ele>
        <time>2023-01-25T15:37:33Z</time>
      </trkpt>
      <trkpt lat="49.95262" lon="2.35843">
        <ele>93.4</ele>
        <time>2023-01-25T15:37:34Z</time>
      </trkpt>
      <trkpt lat="49.95261" lon="2.35843">
        <ele>93.4</ele>
        <time>2023-01-25T15:37:35Z</time>
      </trkpt>
      <trkpt lat="49.9526" lon="2.35842">
        <ele>93.3</ele>
        <time>2023-01-25T15:37:37Z</time>
      </trkpt>
      <trkpt lat="49.95259" lon="2.35841">
        <ele>93.3</ele>
        <time>2023-01-25T15:37:38Z</time>
      </trkpt>
      <trkpt lat="49.95258" lon="2.3584">
        <ele>93.2</ele>
        <time>2023-01-25T15:37:39Z</time>
      </trkpt>
      <trkpt lat="49.95257" lon="2.35839">
        <ele>93.2</ele>
        <time>2023-01-25T15:37:40Z</time>
      </trkpt>
      <trkpt lat="49.95257" lon="2.35838">
        <ele>93.2</ele>
        <time>2023-01-25T15:37:41Z</time>
      </trkpt>
      <trkpt lat="49.95256" lon="2.35837">
        <ele>93.1</ele>
        <time>2023-01-25T15:37:42Z</time>
      </trkpt>
      <trkpt lat="49.95255" lon="2.35836">
        <ele>93.1</ele>
        <time>2023-01-25T15:37:43Z</time>
      </trkpt>
      <trkpt lat="49.95254" lon="2.35835">
        <ele>93</ele>
        <time>2023-01-25T15:37:44Z</time>
      </trkpt>
      <trkpt lat="49.95254" lon="2.35834">
        <ele>93</ele>
        <time>2023-01-25T15:37:45Z</time>
      </trkpt>
      <trkpt lat="49.95253" lon="2.35834">
        <ele>93</ele>
        <time>2023-01-25T15:37:46Z</time>
      </trkpt>
      <trkpt lat="49.95252" lon="2.35833">
        <ele>92.9</ele>
        <time>2023-01-25T15:37:48Z</time>
      </trkpt>
      <trkpt lat="49.95251" lon="2.35832">
        <ele>92.9</ele>
        <time>2023-01-25T15:37:49Z</time>
      </trkpt>
      <trkpt lat="49.9525" lon="2.3583">
        <ele>92.8</ele>
        <time>2023-01-25T15:37:50Z</time>
      </trkpt>
      <trkpt lat="49.9525" lon="2.3583">
        <ele>92.8</ele>
        <time>2023-01-25T15:37:51Z</time>
      </trkpt>
      <trkpt lat="49.95249" lon="2.3583">
        <ele>92.8</ele>
        <time>2023-01-25T15:37:52Z</time>
      </trkpt>
      <trkpt lat="49.95248" lon="2.35829">
        <ele>92.7</ele>
        <time>2023-01-25T15:37:53Z</time>
      </trkpt>
      <trkpt lat="49.95248" lon="2.35828">
        <ele>92.7</ele>
        <time>2023-01-25T15:37:54Z</time>
      </trkpt>
      <trkpt lat="49.95247" lon="2.35827">
        <ele>92.7</ele>
        <time>2023-01-25T15:37:55Z</time>
      </trkpt>
      <trkpt lat="49.95246" lon="2.35826">
        <ele>92.7</ele>
        <time>2023-01-25T15:37:57Z</time>
      </trkpt>
      <trkpt lat="49.95245" lon="2.35825">
        <ele>92.6</ele>
        <time>2023-01-25T15:37:58Z</time>
      </trkpt>
      <trkpt lat="49.95245" lon="2.35824">
        <ele>92.6</ele>
        <time>2023-01-25T15:37:59Z</time>
      </trkpt>
      <trkpt lat="49.95244" lon="2.35823">
        <ele>92.5</ele>
        <time>2023-01-25T15:38:00Z</time>
      </trkpt>
      <trkpt lat="49.95242" lon="2.35821">
        <ele>92.5</ele>
        <time>2023-01-25T15:38:01Z</time>
      </trkpt>
      <trkpt lat="49.95241" lon="2.3582">
        <ele>92.4</ele>
        <time>2023-01-25T15:38:02Z</time>
      </trkpt>
      <trkpt lat="49.95241" lon="2.35819">
        <ele>92.4</ele>
        <time>2023-01-25T15:38:03Z</time>
      </trkpt>
      <trkpt lat="49.95241" lon="2.35819">
        <ele>92.4</ele>
        <time>2023-01-25T15:38:04Z</time>
      </trkpt>
      <trkpt lat="49.9524" lon="2.35818">
        <ele>92.3</ele>
        <time>2023-01-25T15:38:05Z</time>
      </trkpt>
      <trkpt lat="49.95238" lon="2.35816">
        <ele>92.3</ele>
        <time>2023-01-25T15:38:07Z</time>
      </trkpt>
      <trkpt lat="49.95238" lon="2.35816">
        <ele>92.2</ele>
        <time>2023-01-25T15:38:08Z</time>
      </trkpt>
      <trkpt lat="49.95236" lon="2.35814">
        <ele>92.2</ele>
        <time>2023-01-25T15:38:09Z</time>
      </trkpt>
      <trkpt lat="49.95234" lon="2.35813">
        <ele>92.1</ele>
        <time>2023-01-25T15:38:10Z</time>
      </trkpt>
      <trkpt lat="49.95233" lon="2.35812">
        <ele>92.1</ele>
        <time>2023-01-25T15:38:11Z</time>
      </trkpt>
      <trkpt lat="49.95233" lon="2.35812">
        <ele>92</ele>
        <time>2023-01-25T15:38:12Z</time>
      </trkpt>
      <trkpt lat="49.95231" lon="2.35811">
        <ele>91.9</ele>
        <time>2023-01-25T15:38:14Z</time>
      </trkpt>
      <trkpt lat="49.9523" lon="2.3581">
        <ele>91.9</ele>
        <time>2023-01-25T15:38:15Z</time>
      </trkpt>
      <trkpt lat="49.95229" lon="2.35809">
        <ele>91.9</ele>
        <time>2023-01-25T15:38:16Z</time>
      </trkpt>
      <trkpt lat="49.95227" lon="2.35809">
        <ele>91.8</ele>
        <time>2023-01-25T15:38:17Z</time>
      </trkpt>
      <trkpt lat="49.95226" lon="2.35808">
        <ele>91.8</ele>
        <time>2023-01-25T15:38:18Z</time>
      </trkpt>
      <trkpt lat="49.95225" lon="2.35807">
        <ele>91.7</ele>
        <time>2023-01-25T15:38:19Z</time>
      </trkpt>
      <trkpt lat="49.95223" lon="2.35807">
        <ele>91.7</ele>
        <time>2023-01-25T15:38:20Z</time>
      </trkpt>
      <trkpt lat="49.95222" lon="2.35806">
        <ele>91.6</ele>
        <time>2023-01-25T15:38:21Z</time>
      </trkpt>
      <trkpt lat="49.95221" lon="2.35806">
        <ele>91.6</ele>
        <time>2023-01-25T15:38:23Z</time>
      </trkpt>
      <trkpt lat="49.95219" lon="2.35806">
        <ele>91.5</ele>
        <time>2023-01-25T15:38:24Z</time>
      </trkpt>
      <trkpt lat="49.95219" lon="2.35805">
        <ele>91.5</ele>
        <time>2023-01-25T15:38:25Z</time>
      </trkpt>
      <trkpt lat="49.95218" lon="2.35805">
        <ele>91.5</ele>
        <time>2023-01-25T15:38:26Z</time>
      </trkpt>
      <trkpt lat="49.95216" lon="2.35804">
        <ele>91.4</ele>
        <time>2023-01-25T15:38:27Z</time>
      </trkpt>
      <trkpt lat="49.95215" lon="2.35804">
        <ele>91.4</ele>
        <time>2023-01-25T15:38:28Z</time>
      </trkpt>
      <trkpt lat="49.95214" lon="2.35804">
        <ele>91.3</ele>
        <time>2023-01-25T15:38:29Z</time>
      </trkpt>
      <trkpt lat="49.95213" lon="2.35803">
        <ele>91.3</ele>
        <time>2023-01-25T15:38:30Z</time>
      </trkpt>
      <trkpt lat="49.95212" lon="2.35803">
        <ele>91.3</ele>
        <time>2023-01-25T15:38:31Z</time>
      </trkpt>
      <trkpt lat="49.95211" lon="2.35803">
        <ele>91.2</ele>
        <time>2023-01-25T15:38:33Z</time>
      </trkpt>
      <trkpt lat="49.95209" lon="2.35802">
        <ele>91.2</ele>
        <time>2023-01-25T15:38:34Z</time>
      </trkpt>
      <trkpt lat="49.95209" lon="2.35802">
        <ele>91.1</ele>
        <time>2023-01-25T15:38:35Z</time>
      </trkpt>
      <trkpt lat="49.95207" lon="2.35801">
        <ele>91.1</ele>
        <time>2023-01-25T15:38:36Z</time>
      </trkpt>
      <trkpt lat="49.95206" lon="2.358">
        <ele>91.1</ele>
        <time>2023-01-25T15:38:37Z</time>
      </trkpt>
      <trkpt lat="49.95205" lon="2.35799">
        <ele>91</ele>
        <time>2023-01-25T15:38:38Z</time>
      </trkpt>
      <trkpt lat="49.95203" lon="2.35798">
        <ele>91</ele>
        <time>2023-01-25T15:38:39Z</time>
      </trkpt>
      <trkpt lat="49.95202" lon="2.35798">
        <ele>90.9</ele>
        <time>2023-01-25T15:38:40Z</time>
      </trkpt>
      <trkpt lat="49.952" lon="2.35797">
        <ele>90.9</ele>
        <time>2023-01-25T15:38:42Z</time>
      </trkpt>
      <trkpt lat="49.95199" lon="2.35796">
        <ele>90.8</ele>
        <time>2023-01-25T15:38:43Z</time>
      </trkpt>
      <trkpt lat="49.95198" lon="2.35796">
        <ele>90.8</ele>
        <time>2023-01-25T15:38:44Z</time>
      </trkpt>
      <trkpt lat="49.95197" lon="2.35795">
        <ele>90.8</ele>
        <time>2023-01-25T15:38:45Z</time>
      </trkpt>
      <trkpt lat="49.95196" lon="2.35796">
        <ele>90.7</ele>
        <time>2023-01-25T15:38:46Z</time>
      </trkpt>
      <trkpt lat="49.95195" lon="2.35796">
        <ele>90.7</ele>
        <time>2023-01-25T15:38:47Z</time>
      </trkpt>
      <trkpt lat="49.95193" lon="2.35798">
        <ele>90.7</ele>
        <time>2023-01-25T15:38:48Z</time>
      </trkpt>
      <trkpt lat="49.95192" lon="2.35799">
        <ele>90.7</ele>
        <time>2023-01-25T15:38:50Z</time>
      </trkpt>
      <trkpt lat="49.95191" lon="2.358">
        <ele>90.7</ele>
        <time>2023-01-25T15:38:51Z</time>
      </trkpt>
      <trkpt lat="49.9519" lon="2.358">
        <ele>90.7</ele>
        <time>2023-01-25T15:38:52Z</time>
      </trkpt>
      <trkpt lat="49.95189" lon="2.35801">
        <ele>90.7</ele>
        <time>2023-01-25T15:38:53Z</time>
      </trkpt>
      <trkpt lat="49.95188" lon="2.35802">
        <ele>90.7</ele>
        <time>2023-01-25T15:38:55Z</time>
      </trkpt>
      <trkpt lat="49.95188" lon="2.35803">
        <ele>90.7</ele>
        <time>2023-01-25T15:38:56Z</time>
      </trkpt>
      <trkpt lat="49.95187" lon="2.35804">
        <ele>90.7</ele>
        <time>2023-01-25T15:38:57Z</time>
      </trkpt>
      <trkpt lat="49.95187" lon="2.35806">
        <ele>90.7</ele>
        <time>2023-01-25T15:38:58Z</time>
      </trkpt>
      <trkpt lat="49.95186" lon="2.35807">
        <ele>90.7</ele>
        <time>2023-01-25T15:38:59Z</time>
      </trkpt>
      <trkpt lat="49.95186" lon="2.35809">
        <ele>90.7</ele>
        <time>2023-01-25T15:39:00Z</time>
      </trkpt>
      <trkpt lat="49.95185" lon="2.35812">
        <ele>90.7</ele>
        <time>2023-01-25T15:39:02Z</time>
      </trkpt>
      <trkpt lat="49.95185" lon="2.35814">
        <ele>90.7</ele>
        <time>2023-01-25T15:39:04Z</time>
      </trkpt>
      <trkpt lat="49.95184" lon="2.35816">
        <ele>90.7</ele>
        <time>2023-01-25T15:39:05Z</time>
      </trkpt>
      <trkpt lat="49.95184" lon="2.35819">
        <ele>90.7</ele>
        <time>2023-01-25T15:39:06Z</time>
      </trkpt>
      <trkpt lat="49.95184" lon="2.3582">
        <ele>90.7</ele>
        <time>2023-01-25T15:39:07Z</time>
      </trkpt>
      <trkpt lat="49.95184" lon="2.35822">
        <ele>90.7</ele>
        <time>2023-01-25T15:39:08Z</time>
      </trkpt>
      <trkpt lat="49.95185" lon="2.35824">
        <ele>90.7</ele>
        <time>2023-01-25T15:39:09Z</time>
      </trkpt>
      <trkpt lat="49.95185" lon="2.35825">
        <ele>90.7</ele>
        <time>2023-01-25T15:39:10Z</time>
      </trkpt>
      <trkpt lat="49.95185" lon="2.35827">
        <ele>90.7</ele>
        <time>2023-01-25T15:39:11Z</time>
      </trkpt>
      <trkpt lat="49.95186" lon="2.35829">
        <ele>90.7</ele>
        <time>2023-01-25T15:39:13Z</time>
      </trkpt>
      <trkpt lat="49.95185" lon="2.3583">
        <ele>90.7</ele>
        <time>2023-01-25T15:39:14Z</time>
      </trkpt>
      <trkpt lat="49.95185" lon="2.35832">
        <ele>90.7</ele>
        <time>2023-01-25T15:39:15Z</time>
      </trkpt>
      <trkpt lat="49.95185" lon="2.35833">
        <ele>90.7</ele>
        <time>2023-01-25T15:39:16Z</time>
      </trkpt>
      <trkpt lat="49.95186" lon="2.35835">
        <ele>90.7</ele>
        <time>2023-01-25T15:39:17Z</time>
      </trkpt>
      <trkpt lat="49.95186" lon="2.35837">
        <ele>90.7</ele>
        <time>2023-01-25T15:39:18Z</time>
      </trkpt>
      <trkpt lat="49.95189" lon="2.35838">
        <ele>90.7</ele>
        <time>2023-01-25T15:39:20Z</time>
      </trkpt>
      <trkpt lat="49.95189" lon="2.35838">
        <ele>90.7</ele>
        <time>2023-01-25T15:39:21Z</time>
      </trkpt>
      <trkpt lat="49.9519" lon="2.35838">
        <ele>90.7</ele>
        <time>2023-01-25T15:39:22Z</time>
      </trkpt>
      <trkpt lat="49.95189" lon="2.35838">
        <ele>90.7</ele>
        <time>2023-01-25T15:39:23Z</time>
      </trkpt>
      <trkpt lat="49.9519" lon="2.35838">
        <ele>90.7</ele>
        <time>2023-01-25T15:39:25Z</time>
      </trkpt>
      <trkpt lat="49.9519" lon="2.35839">
        <ele>90.7</ele>
        <time>2023-01-25T15:39:26Z</time>
      </trkpt>
      <trkpt lat="49.95191" lon="2.35839">
        <ele>90.7</ele>
        <time>2023-01-25T15:39:27Z</time>
      </trkpt>
      <trkpt lat="49.95191" lon="2.35839">
        <ele>90.7</ele>
        <time>2023-01-25T15:39:29Z</time>
      </trkpt>
      <trkpt lat="49.95191" lon="2.35839">
        <ele>90.7</ele>
        <time>2023-01-25T15:39:30Z</time>
      </trkpt>
      <trkpt lat="49.95192" lon="2.35839">
        <ele>90.7</ele>
        <time>2023-01-25T15:39:32Z</time>
      </trkpt>
      <trkpt lat="49.95192" lon="2.35839">
        <ele>90.7</ele>
        <time>2023-01-25T15:39:33Z</time>
      </trkpt>
      <trkpt lat="49.95193" lon="2.35839">
        <ele>90.7</ele>
        <time>2023-01-25T15:39:34Z</time>
      </trkpt>
      <trkpt lat="49.95193" lon="2.35839">
        <ele>90.7</ele>
        <time>2023-01-25T15:39:36Z</time>
      </trkpt>
      <trkpt lat="49.95193" lon="2.35839">
        <ele>90.7</ele>
        <time>2023-01-25T15:39:37Z</time>
      </trkpt>
      <trkpt lat="49.95193" lon="2.35838">
        <ele>90.7</ele>
        <time>2023-01-25T15:39:38Z</time>
      </trkpt>
      <trkpt lat="49.95193" lon="2.35836">
        <ele>90.7</ele>
        <time>2023-01-25T15:39:39Z</time>
      </trkpt>
      <trkpt lat="49.95192" lon="2.35834">
        <ele>90.7</ele>
        <time>2023-01-25T15:39:40Z</time>
      </trkpt>
      <trkpt lat="49.95192" lon="2.35834">
        <ele>90.7</ele>
        <time>2023-01-25T15:39:41Z</time>
      </trkpt>
      <trkpt lat="49.95192" lon="2.35834">
        <ele>90.7</ele>
        <time>2023-01-25T15:39:42Z</time>
      </trkpt>
      <trkpt lat="49.95192" lon="2.35833">
        <ele>90.7</ele>
        <time>2023-01-25T15:39:43Z</time>
      </trkpt>
      <trkpt lat="49.95192" lon="2.35833">
        <ele>90.7</ele>
        <time>2023-01-25T15:39:44Z</time>
      </trkpt>
      <trkpt lat="49.95192" lon="2.35833">
        <ele>90.7</ele>
        <time>2023-01-25T15:39:45Z</time>
      </trkpt>
      <trkpt lat="49.95192" lon="2.35833">
        <ele>90.7</ele>
        <time>2023-01-25T15:39:46Z</time>
      </trkpt>
      <trkpt lat="49.95192" lon="2.35833">
        <ele>90.7</ele>
        <time>2023-01-25T15:39:47Z</time>
      </trkpt>
      <trkpt lat="49.95192" lon="2.35833">
        <ele>90.7</ele>
        <time>2023-01-25T15:39:48Z</time>
      </trkpt>
      <trkpt lat="49.95192" lon="2.35833">
        <ele>90.7</ele>
        <time>2023-01-25T15:39:49Z</time>
      </trkpt>
      <trkpt lat="49.95192" lon="2.35833">
        <ele>90.7</ele>
        <time>2023-01-25T15:39:50Z</time>
      </trkpt>
      <trkpt lat="49.95192" lon="2.35832">
        <ele>90.7</ele>
        <time>2023-01-25T15:39:51Z</time>
      </trkpt>
      <trkpt lat="49.95192" lon="2.35832">
        <ele>90.7</ele>
        <time>2023-01-25T15:39:52Z</time>
      </trkpt>
      <trkpt lat="49.95192" lon="2.35832">
        <ele>90.7</ele>
        <time>2023-01-25T15:39:53Z</time>
      </trkpt>
      <trkpt lat="49.95192" lon="2.35832">
        <ele>90.7</ele>
        <time>2023-01-25T15:39:54Z</time>
      </trkpt>
      <trkpt lat="49.95192" lon="2.35832">
        <ele>90.7</ele>
        <time>2023-01-25T15:39:55Z</time>
      </trkpt>
      <trkpt lat="49.95191" lon="2.35832">
        <ele>90.7</ele>
        <time>2023-01-25T15:39:56Z</time>
      </trkpt>
      <trkpt lat="49.95191" lon="2.35832">
        <ele>90.7</ele>
        <time>2023-01-25T15:39:57Z</time>
      </trkpt>
      <trkpt lat="49.95191" lon="2.35832">
        <ele>90.7</ele>
        <time>2023-01-25T15:39:58Z</time>
      </trkpt>
      <trkpt lat="49.95191" lon="2.35832">
        <ele>90.7</ele>
        <time>2023-01-25T15:39:59Z</time>
      </trkpt>
      <trkpt lat="49.95191" lon="2.35832">
        <ele>90.7</ele>
        <time>2023-01-25T15:40:00Z</time>
      </trkpt>
      <trkpt lat="49.95191" lon="2.35832">
        <ele>90.7</ele>
        <time>2023-01-25T15:40:01Z</time>
      </trkpt>
      <trkpt lat="49.95191" lon="2.35832">
        <ele>90.7</ele>
        <time>2023-01-25T15:40:02Z</time>
      </trkpt>
      <trkpt lat="49.95191" lon="2.35832">
        <ele>90.7</ele>
        <time>2023-01-25T15:40:03Z</time>
      </trkpt>
      <trkpt lat="49.95191" lon="2.35832">
        <ele>90.7</ele>
        <time>2023-01-25T15:40:04Z</time>
      </trkpt>
      <trkpt lat="49.95191" lon="2.35832">
        <ele>90.7</ele>
        <time>2023-01-25T15:40:05Z</time>
      </trkpt>
      <trkpt lat="49.95191" lon="2.35832">
        <ele>90.7</ele>
        <time>2023-01-25T15:40:06Z</time>
      </trkpt>
      <trkpt lat="49.95191" lon="2.35832">
        <ele>90.7</ele>
        <time>2023-01-25T15:40:07Z</time>
      </trkpt>
      <trkpt lat="49.95191" lon="2.35832">
        <ele>90.7</ele>
        <time>2023-01-25T15:40:08Z</time>
      </trkpt>
      <trkpt lat="49.95191" lon="2.35832">
        <ele>90.7</ele>
        <time>2023-01-25T15:40:09Z</time>
      </trkpt>
      <trkpt lat="49.95191" lon="2.35832">
        <ele>90.7</ele>
        <time>2023-01-25T15:40:10Z</time>
      </trkpt>
      <trkpt lat="49.95191" lon="2.35832">
        <ele>90.7</ele>
        <time>2023-01-25T15:40:11Z</time>
      </trkpt>
      <trkpt lat="49.95191" lon="2.35832">
        <ele>90.7</ele>
        <time>2023-01-25T15:40:12Z</time>
      </trkpt>
      <trkpt lat="49.95191" lon="2.35832">
        <ele>90.7</ele>
        <time>2023-01-25T15:40:13Z</time>
      </trkpt>
      <trkpt lat="49.95191" lon="2.35832">
        <ele>90.7</ele>
        <time>2023-01-25T15:40:14Z</time>
      </trkpt>
      <trkpt lat="49.95191" lon="2.35832">
        <ele>90.7</ele>
        <time>2023-01-25T15:40:15Z</time>
      </trkpt>
      <trkpt lat="49.95191" lon="2.35832">
        <ele>90.7</ele>
        <time>2023-01-25T15:40:16Z</time>
      </trkpt>
      <trkpt lat="49.95191" lon="2.35832">
        <ele>90.7</ele>
        <time>2023-01-25T15:40:17Z</time>
      </trkpt>
      <trkpt lat="49.95191" lon="2.35832">
        <ele>90.7</ele>
        <time>2023-01-25T15:40:18Z</time>
      </trkpt>
      <trkpt lat="49.95191" lon="2.35832">
        <ele>90.7</ele>
        <time>2023-01-25T15:40:19Z</time>
      </trkpt>
      <trkpt lat="49.95191" lon="2.35832">
        <ele>90.7</ele>
        <time>2023-01-25T15:40:20Z</time>
      </trkpt>
      <trkpt lat="49.95191" lon="2.35832">
        <ele>90.7</ele>
        <time>2023-01-25T15:40:21Z</time>
      </trkpt>
      <trkpt lat="49.95191" lon="2.35832">
        <ele>90.7</ele>
        <time>2023-01-25T15:40:22Z</time>
      </trkpt>
      <trkpt lat="49.95191" lon="2.35832">
        <ele>90.7</ele>
        <time>2023-01-25T15:40:23Z</time>
      </trkpt>
      <trkpt lat="49.95191" lon="2.35832">
        <ele>90.7</ele>
        <time>2023-01-25T15:40:24Z</time>
      </trkpt>
      <trkpt lat="49.95191" lon="2.35832">
        <ele>90.7</ele>
        <time>2023-01-25T15:40:25Z</time>
      </trkpt>
      <trkpt lat="49.95191" lon="2.35832">
        <ele>90.7</ele>
        <time>2023-01-25T15:40:26Z</time>
      </trkpt>
      <trkpt lat="49.95191" lon="2.35832">
        <ele>90.7</ele>
        <time>2023-01-25T15:40:27Z</time>
      </trkpt>
      <trkpt lat="49.95191" lon="2.35832">
        <ele>90.7</ele>
        <time>2023-01-25T15:40:28Z</time>
      </trkpt>
      <trkpt lat="49.95191" lon="2.35832">
        <ele>90.7</ele>
        <time>2023-01-25T15:40:29Z</time>
      </trkpt>
      <trkpt lat="49.95191" lon="2.35832">
        <ele>90.7</ele>
        <time>2023-01-25T15:40:30Z</time>
      </trkpt>
      <trkpt lat="49.95191" lon="2.35832">
        <ele>90.7</ele>
        <time>2023-01-25T15:40:31Z</time>
      </trkpt>
      <trkpt lat="49.95191" lon="2.35832">
        <ele>90.7</ele>
        <time>2023-01-25T15:40:32Z</time>
      </trkpt>
      <trkpt lat="49.95191" lon="2.35833">
        <ele>90.7</ele>
        <time>2023-01-25T15:40:33Z</time>
      </trkpt>
      <trkpt lat="49.95191" lon="2.35833">
        <ele>90.7</ele>
        <time>2023-01-25T15:40:34Z</time>
      </trkpt>
      <trkpt lat="49.9519" lon="2.35833">
        <ele>90.7</ele>
        <time>2023-01-25T15:40:36Z</time>
      </trkpt>
      <trkpt lat="49.9519" lon="2.35834">
        <ele>90.7</ele>
        <time>2023-01-25T15:40:38Z</time>
      </trkpt>
      <trkpt lat="49.95191" lon="2.35834">
        <ele>90.7</ele>
        <time>2023-01-25T15:40:39Z</time>
      </trkpt>
      <trkpt lat="49.95191" lon="2.35833">
        <ele>90.7</ele>
        <time>2023-01-25T15:40:40Z</time>
      </trkpt>
      <trkpt lat="49.95191" lon="2.35833">
        <ele>90.7</ele>
        <time>2023-01-25T15:40:42Z</time>
      </trkpt>
      <trkpt lat="49.95192" lon="2.35833">
        <ele>90.7</ele>
        <time>2023-01-25T15:40:43Z</time>
      </trkpt>
      <trkpt lat="49.95192" lon="2.35833">
        <ele>90.7</ele>
        <time>2023-01-25T15:40:44Z</time>
      </trkpt>
      <trkpt lat="49.95192" lon="2.35833">
        <ele>90.7</ele>
        <time>2023-01-25T15:40:45Z</time>
      </trkpt>
      <trkpt lat="49.95192" lon="2.35832">
        <ele>90.7</ele>
        <time>2023-01-25T15:40:47Z</time>
      </trkpt>
      <trkpt lat="49.95193" lon="2.35832">
        <ele>90.7</ele>
        <time>2023-01-25T15:40:48Z</time>
      </trkpt>
      <trkpt lat="49.95193" lon="2.35832">
        <ele>90.7</ele>
        <time>2023-01-25T15:40:50Z</time>
      </trkpt>
      <trkpt lat="49.95193" lon="2.35831">
        <ele>90.7</ele>
        <time>2023-01-25T15:40:51Z</time>
      </trkpt>
      <trkpt lat="49.95193" lon="2.35831">
        <ele>90.7</ele>
        <time>2023-01-25T15:40:52Z</time>
      </trkpt>
      <trkpt lat="49.95193" lon="2.3583">
        <ele>90.7</ele>
        <time>2023-01-25T15:40:53Z</time>
      </trkpt>
      <trkpt lat="49.95194" lon="2.3583">
        <ele>90.7</ele>
        <time>2023-01-25T15:40:55Z</time>
      </trkpt>
      <trkpt lat="49.95195" lon="2.35831">
        <ele>90.7</ele>
        <time>2023-01-25T15:40:56Z</time>
      </trkpt>
      <trkpt lat="49.95195" lon="2.35831">
        <ele>90.7</ele>
        <time>2023-01-25T15:40:57Z</time>
      </trkpt>
      <trkpt lat="49.95195" lon="2.35831">
        <ele>90.7</ele>
        <time>2023-01-25T15:40:58Z</time>
      </trkpt>
      <trkpt lat="49.95195" lon="2.35831">
        <ele>90.7</ele>
        <time>2023-01-25T15:41:00Z</time>
      </trkpt>
      <trkpt lat="49.95194" lon="2.35831">
        <ele>90.7</ele>
        <time>2023-01-25T15:41:01Z</time>
      </trkpt>
      <trkpt lat="49.95194" lon="2.35832">
        <ele>90.7</ele>
        <time>2023-01-25T15:41:03Z</time>
      </trkpt>
      <trkpt lat="49.95194" lon="2.35832">
        <ele>90.7</ele>
        <time>2023-01-25T15:41:04Z</time>
      </trkpt>
      <trkpt lat="49.95194" lon="2.35833">
        <ele>90.7</ele>
        <time>2023-01-25T15:41:05Z</time>
      </trkpt>
      <trkpt lat="49.95194" lon="2.35834">
        <ele>90.7</ele>
        <time>2023-01-25T15:41:07Z</time>
      </trkpt>
      <trkpt lat="49.95194" lon="2.35834">
        <ele>90.7</ele>
        <time>2023-01-25T15:41:08Z</time>
      </trkpt>
      <trkpt lat="49.95194" lon="2.35834">
        <ele>90.7</ele>
        <time>2023-01-25T15:41:10Z</time>
      </trkpt>
      <trkpt lat="49.95193" lon="2.35833">
        <ele>90.7</ele>
        <time>2023-01-25T15:41:11Z</time>
      </trkpt>
    </trkseg>
  </trk>
</gpx>